<?xml version="1.0" encoding="UTF-8" standalone="no" ?>
<gpx xmlns="http://www.topografix.com/GPX/1/1" xmlns:xsi="http://www.w3.org/2001/XMLSchema-instance" xsi:schemaLocation="http://www.topografix.com/GPX/1/1 http://www.topografix.com/GPX/1/1/gpx.xsd" version="1.1" creator="VisuGPX - https://www.visugpx.com">
  <metadata>
    <name>Vers sur selle </name>
  </metadata>
  <trk>
    <name><![CDATA[Vers sur selle _1]]></name>
    <trkseg>
      <trkpt lat="49.84314" lon="2.23059">
        <ele>36.3</ele>
        <time>2023-02-25T13:04:19Z</time>
      </trkpt>
      <trkpt lat="49.84305" lon="2.23075">
        <ele>36.3</ele>
        <time>2023-02-25T13:04:20Z</time>
      </trkpt>
      <trkpt lat="49.84309" lon="2.23067">
        <ele>36.3</ele>
        <time>2023-02-25T13:04:22Z</time>
      </trkpt>
      <trkpt lat="49.84313" lon="2.23061">
        <ele>36.3</ele>
        <time>2023-02-25T13:04:23Z</time>
      </trkpt>
      <trkpt lat="49.84313" lon="2.23061">
        <ele>36.3</ele>
        <time>2023-02-25T13:04:24Z</time>
      </trkpt>
      <trkpt lat="49.84313" lon="2.23061">
        <ele>36.3</ele>
        <time>2023-02-25T13:04:25Z</time>
      </trkpt>
      <trkpt lat="49.84313" lon="2.23061">
        <ele>36.3</ele>
        <time>2023-02-25T13:04:26Z</time>
      </trkpt>
      <trkpt lat="49.84313" lon="2.23061">
        <ele>36.3</ele>
        <time>2023-02-25T13:04:27Z</time>
      </trkpt>
      <trkpt lat="49.84312" lon="2.23061">
        <ele>36.3</ele>
        <time>2023-02-25T13:04:28Z</time>
      </trkpt>
      <trkpt lat="49.84312" lon="2.23061">
        <ele>36.3</ele>
        <time>2023-02-25T13:04:29Z</time>
      </trkpt>
      <trkpt lat="49.84312" lon="2.23061">
        <ele>36.3</ele>
        <time>2023-02-25T13:04:30Z</time>
      </trkpt>
      <trkpt lat="49.84312" lon="2.2306">
        <ele>36.3</ele>
        <time>2023-02-25T13:04:31Z</time>
      </trkpt>
      <trkpt lat="49.84312" lon="2.2306">
        <ele>36.3</ele>
        <time>2023-02-25T13:04:32Z</time>
      </trkpt>
      <trkpt lat="49.84312" lon="2.2306">
        <ele>36.3</ele>
        <time>2023-02-25T13:04:34Z</time>
      </trkpt>
      <trkpt lat="49.84312" lon="2.2306">
        <ele>36.3</ele>
        <time>2023-02-25T13:04:35Z</time>
      </trkpt>
      <trkpt lat="49.84311" lon="2.2306">
        <ele>36.3</ele>
        <time>2023-02-25T13:04:37Z</time>
      </trkpt>
      <trkpt lat="49.84311" lon="2.2306">
        <ele>36.3</ele>
        <time>2023-02-25T13:04:40Z</time>
      </trkpt>
      <trkpt lat="49.84311" lon="2.2306">
        <ele>36.3</ele>
        <time>2023-02-25T13:04:41Z</time>
      </trkpt>
      <trkpt lat="49.84311" lon="2.2306">
        <ele>36.3</ele>
        <time>2023-02-25T13:04:42Z</time>
      </trkpt>
      <trkpt lat="49.84311" lon="2.2306">
        <ele>36.3</ele>
        <time>2023-02-25T13:04:43Z</time>
      </trkpt>
      <trkpt lat="49.84311" lon="2.2306">
        <ele>36.3</ele>
        <time>2023-02-25T13:04:44Z</time>
      </trkpt>
      <trkpt lat="49.84311" lon="2.2306">
        <ele>36.3</ele>
        <time>2023-02-25T13:04:46Z</time>
      </trkpt>
      <trkpt lat="49.8431" lon="2.2306">
        <ele>36.3</ele>
        <time>2023-02-25T13:04:48Z</time>
      </trkpt>
      <trkpt lat="49.8431" lon="2.2306">
        <ele>36.3</ele>
        <time>2023-02-25T13:04:49Z</time>
      </trkpt>
      <trkpt lat="49.8431" lon="2.2306">
        <ele>36.3</ele>
        <time>2023-02-25T13:04:50Z</time>
      </trkpt>
      <trkpt lat="49.8431" lon="2.2306">
        <ele>36.3</ele>
        <time>2023-02-25T13:04:52Z</time>
      </trkpt>
      <trkpt lat="49.8431" lon="2.2306">
        <ele>36.3</ele>
        <time>2023-02-25T13:04:53Z</time>
      </trkpt>
      <trkpt lat="49.8431" lon="2.2306">
        <ele>36.3</ele>
        <time>2023-02-25T13:04:54Z</time>
      </trkpt>
      <trkpt lat="49.8431" lon="2.2306">
        <ele>36.3</ele>
        <time>2023-02-25T13:04:56Z</time>
      </trkpt>
      <trkpt lat="49.84309" lon="2.2306">
        <ele>36.3</ele>
        <time>2023-02-25T13:04:57Z</time>
      </trkpt>
      <trkpt lat="49.84309" lon="2.2306">
        <ele>36.3</ele>
        <time>2023-02-25T13:04:58Z</time>
      </trkpt>
      <trkpt lat="49.84309" lon="2.2306">
        <ele>36.3</ele>
        <time>2023-02-25T13:04:59Z</time>
      </trkpt>
      <trkpt lat="49.84309" lon="2.2306">
        <ele>36.3</ele>
        <time>2023-02-25T13:05:00Z</time>
      </trkpt>
      <trkpt lat="49.84309" lon="2.2306">
        <ele>36.3</ele>
        <time>2023-02-25T13:05:01Z</time>
      </trkpt>
      <trkpt lat="49.84309" lon="2.2306">
        <ele>36.3</ele>
        <time>2023-02-25T13:05:02Z</time>
      </trkpt>
      <trkpt lat="49.84309" lon="2.2306">
        <ele>36.3</ele>
        <time>2023-02-25T13:05:03Z</time>
      </trkpt>
      <trkpt lat="49.84308" lon="2.2306">
        <ele>36.3</ele>
        <time>2023-02-25T13:05:04Z</time>
      </trkpt>
      <trkpt lat="49.84308" lon="2.2306">
        <ele>36.3</ele>
        <time>2023-02-25T13:05:05Z</time>
      </trkpt>
      <trkpt lat="49.84308" lon="2.2306">
        <ele>36.3</ele>
        <time>2023-02-25T13:05:06Z</time>
      </trkpt>
      <trkpt lat="49.84308" lon="2.2306">
        <ele>36.3</ele>
        <time>2023-02-25T13:05:08Z</time>
      </trkpt>
      <trkpt lat="49.84308" lon="2.2306">
        <ele>36.3</ele>
        <time>2023-02-25T13:05:09Z</time>
      </trkpt>
      <trkpt lat="49.84308" lon="2.2306">
        <ele>36.3</ele>
        <time>2023-02-25T13:05:10Z</time>
      </trkpt>
      <trkpt lat="49.84307" lon="2.2306">
        <ele>36.3</ele>
        <time>2023-02-25T13:05:11Z</time>
      </trkpt>
      <trkpt lat="49.84305" lon="2.2306">
        <ele>36.3</ele>
        <time>2023-02-25T13:05:12Z</time>
      </trkpt>
      <trkpt lat="49.84304" lon="2.2306">
        <ele>36.3</ele>
        <time>2023-02-25T13:05:14Z</time>
      </trkpt>
      <trkpt lat="49.84301" lon="2.23062">
        <ele>36.3</ele>
        <time>2023-02-25T13:05:15Z</time>
      </trkpt>
      <trkpt lat="49.843" lon="2.23062">
        <ele>36.3</ele>
        <time>2023-02-25T13:05:16Z</time>
      </trkpt>
      <trkpt lat="49.84299" lon="2.23065">
        <ele>36.3</ele>
        <time>2023-02-25T13:05:18Z</time>
      </trkpt>
      <trkpt lat="49.84298" lon="2.23066">
        <ele>36.3</ele>
        <time>2023-02-25T13:05:20Z</time>
      </trkpt>
      <trkpt lat="49.84298" lon="2.23067">
        <ele>36.3</ele>
        <time>2023-02-25T13:05:21Z</time>
      </trkpt>
      <trkpt lat="49.84298" lon="2.23067">
        <ele>36.3</ele>
        <time>2023-02-25T13:05:22Z</time>
      </trkpt>
      <trkpt lat="49.84298" lon="2.23067">
        <ele>36.3</ele>
        <time>2023-02-25T13:05:24Z</time>
      </trkpt>
      <trkpt lat="49.84297" lon="2.23068">
        <ele>36.3</ele>
        <time>2023-02-25T13:05:25Z</time>
      </trkpt>
      <trkpt lat="49.84296" lon="2.23067">
        <ele>36.3</ele>
        <time>2023-02-25T13:05:26Z</time>
      </trkpt>
      <trkpt lat="49.84296" lon="2.23067">
        <ele>36.3</ele>
        <time>2023-02-25T13:05:29Z</time>
      </trkpt>
      <trkpt lat="49.84296" lon="2.23067">
        <ele>36.3</ele>
        <time>2023-02-25T13:05:30Z</time>
      </trkpt>
      <trkpt lat="49.84296" lon="2.23067">
        <ele>36.3</ele>
        <time>2023-02-25T13:05:31Z</time>
      </trkpt>
      <trkpt lat="49.84296" lon="2.23068">
        <ele>36.3</ele>
        <time>2023-02-25T13:05:32Z</time>
      </trkpt>
      <trkpt lat="49.84296" lon="2.23068">
        <ele>36.3</ele>
        <time>2023-02-25T13:05:33Z</time>
      </trkpt>
      <trkpt lat="49.84296" lon="2.23068">
        <ele>36.3</ele>
        <time>2023-02-25T13:05:34Z</time>
      </trkpt>
      <trkpt lat="49.84296" lon="2.23068">
        <ele>36.3</ele>
        <time>2023-02-25T13:05:35Z</time>
      </trkpt>
      <trkpt lat="49.84296" lon="2.23069">
        <ele>36.3</ele>
        <time>2023-02-25T13:05:36Z</time>
      </trkpt>
      <trkpt lat="49.84296" lon="2.23069">
        <ele>36.3</ele>
        <time>2023-02-25T13:05:38Z</time>
      </trkpt>
      <trkpt lat="49.84296" lon="2.2307">
        <ele>36.3</ele>
        <time>2023-02-25T13:05:39Z</time>
      </trkpt>
      <trkpt lat="49.84296" lon="2.23072">
        <ele>36.3</ele>
        <time>2023-02-25T13:05:40Z</time>
      </trkpt>
      <trkpt lat="49.84296" lon="2.23076">
        <ele>36.3</ele>
        <time>2023-02-25T13:05:41Z</time>
      </trkpt>
      <trkpt lat="49.84297" lon="2.23078">
        <ele>36.3</ele>
        <time>2023-02-25T13:05:42Z</time>
      </trkpt>
      <trkpt lat="49.84297" lon="2.23079">
        <ele>36.3</ele>
        <time>2023-02-25T13:05:43Z</time>
      </trkpt>
      <trkpt lat="49.84298" lon="2.23081">
        <ele>36.3</ele>
        <time>2023-02-25T13:05:44Z</time>
      </trkpt>
      <trkpt lat="49.84299" lon="2.23082">
        <ele>36.3</ele>
        <time>2023-02-25T13:05:45Z</time>
      </trkpt>
      <trkpt lat="49.84301" lon="2.23085">
        <ele>36.3</ele>
        <time>2023-02-25T13:05:46Z</time>
      </trkpt>
      <trkpt lat="49.84303" lon="2.23084">
        <ele>36.3</ele>
        <time>2023-02-25T13:05:47Z</time>
      </trkpt>
      <trkpt lat="49.84303" lon="2.23084">
        <ele>36.3</ele>
        <time>2023-02-25T13:05:49Z</time>
      </trkpt>
      <trkpt lat="49.84304" lon="2.23083">
        <ele>36.3</ele>
        <time>2023-02-25T13:05:50Z</time>
      </trkpt>
      <trkpt lat="49.84305" lon="2.23083">
        <ele>36.3</ele>
        <time>2023-02-25T13:05:51Z</time>
      </trkpt>
      <trkpt lat="49.84305" lon="2.23082">
        <ele>36.3</ele>
        <time>2023-02-25T13:05:52Z</time>
      </trkpt>
      <trkpt lat="49.84306" lon="2.23083">
        <ele>36.3</ele>
        <time>2023-02-25T13:05:53Z</time>
      </trkpt>
      <trkpt lat="49.84307" lon="2.23083">
        <ele>36.3</ele>
        <time>2023-02-25T13:05:54Z</time>
      </trkpt>
      <trkpt lat="49.84308" lon="2.23083">
        <ele>36.3</ele>
        <time>2023-02-25T13:05:55Z</time>
      </trkpt>
      <trkpt lat="49.8431" lon="2.23084">
        <ele>36.3</ele>
        <time>2023-02-25T13:05:57Z</time>
      </trkpt>
      <trkpt lat="49.84311" lon="2.23085">
        <ele>36.3</ele>
        <time>2023-02-25T13:05:58Z</time>
      </trkpt>
      <trkpt lat="49.84312" lon="2.23085">
        <ele>36.3</ele>
        <time>2023-02-25T13:05:59Z</time>
      </trkpt>
      <trkpt lat="49.84313" lon="2.23085">
        <ele>36.3</ele>
        <time>2023-02-25T13:06:00Z</time>
      </trkpt>
      <trkpt lat="49.84315" lon="2.23086">
        <ele>36.3</ele>
        <time>2023-02-25T13:06:01Z</time>
      </trkpt>
      <trkpt lat="49.84318" lon="2.23086">
        <ele>36.3</ele>
        <time>2023-02-25T13:06:02Z</time>
      </trkpt>
      <trkpt lat="49.84319" lon="2.23087">
        <ele>36.3</ele>
        <time>2023-02-25T13:06:03Z</time>
      </trkpt>
      <trkpt lat="49.84321" lon="2.23087">
        <ele>36.3</ele>
        <time>2023-02-25T13:06:04Z</time>
      </trkpt>
      <trkpt lat="49.84322" lon="2.23087">
        <ele>36.3</ele>
        <time>2023-02-25T13:06:06Z</time>
      </trkpt>
      <trkpt lat="49.84325" lon="2.23087">
        <ele>36.3</ele>
        <time>2023-02-25T13:06:07Z</time>
      </trkpt>
      <trkpt lat="49.84326" lon="2.23087">
        <ele>36.3</ele>
        <time>2023-02-25T13:06:08Z</time>
      </trkpt>
      <trkpt lat="49.84328" lon="2.23086">
        <ele>36.3</ele>
        <time>2023-02-25T13:06:09Z</time>
      </trkpt>
      <trkpt lat="49.84329" lon="2.23086">
        <ele>36.3</ele>
        <time>2023-02-25T13:06:10Z</time>
      </trkpt>
      <trkpt lat="49.84332" lon="2.23086">
        <ele>36.3</ele>
        <time>2023-02-25T13:06:11Z</time>
      </trkpt>
      <trkpt lat="49.84333" lon="2.23085">
        <ele>36.3</ele>
        <time>2023-02-25T13:06:12Z</time>
      </trkpt>
      <trkpt lat="49.84333" lon="2.23085">
        <ele>36.3</ele>
        <time>2023-02-25T13:06:13Z</time>
      </trkpt>
      <trkpt lat="49.84335" lon="2.23085">
        <ele>36.3</ele>
        <time>2023-02-25T13:06:15Z</time>
      </trkpt>
      <trkpt lat="49.84336" lon="2.23084">
        <ele>36.3</ele>
        <time>2023-02-25T13:06:16Z</time>
      </trkpt>
      <trkpt lat="49.84337" lon="2.23084">
        <ele>36.3</ele>
        <time>2023-02-25T13:06:17Z</time>
      </trkpt>
      <trkpt lat="49.84338" lon="2.23084">
        <ele>36.3</ele>
        <time>2023-02-25T13:06:18Z</time>
      </trkpt>
      <trkpt lat="49.8434" lon="2.23084">
        <ele>36.3</ele>
        <time>2023-02-25T13:06:19Z</time>
      </trkpt>
      <trkpt lat="49.84342" lon="2.23084">
        <ele>36.3</ele>
        <time>2023-02-25T13:06:21Z</time>
      </trkpt>
      <trkpt lat="49.84344" lon="2.23084">
        <ele>36.3</ele>
        <time>2023-02-25T13:06:22Z</time>
      </trkpt>
      <trkpt lat="49.84345" lon="2.23084">
        <ele>36.3</ele>
        <time>2023-02-25T13:06:24Z</time>
      </trkpt>
      <trkpt lat="49.84347" lon="2.23084">
        <ele>36.3</ele>
        <time>2023-02-25T13:06:26Z</time>
      </trkpt>
      <trkpt lat="49.84347" lon="2.23084">
        <ele>36.3</ele>
        <time>2023-02-25T13:06:27Z</time>
      </trkpt>
      <trkpt lat="49.84347" lon="2.23084">
        <ele>36.3</ele>
        <time>2023-02-25T13:06:29Z</time>
      </trkpt>
      <trkpt lat="49.84347" lon="2.23084">
        <ele>36.3</ele>
        <time>2023-02-25T13:06:30Z</time>
      </trkpt>
      <trkpt lat="49.84346" lon="2.23084">
        <ele>36.3</ele>
        <time>2023-02-25T13:06:31Z</time>
      </trkpt>
      <trkpt lat="49.84346" lon="2.23084">
        <ele>36.3</ele>
        <time>2023-02-25T13:06:33Z</time>
      </trkpt>
      <trkpt lat="49.84345" lon="2.23084">
        <ele>36.3</ele>
        <time>2023-02-25T13:06:35Z</time>
      </trkpt>
      <trkpt lat="49.84345" lon="2.23084">
        <ele>36.3</ele>
        <time>2023-02-25T13:06:36Z</time>
      </trkpt>
      <trkpt lat="49.84345" lon="2.23085">
        <ele>36.3</ele>
        <time>2023-02-25T13:06:38Z</time>
      </trkpt>
      <trkpt lat="49.84345" lon="2.23084">
        <ele>36.3</ele>
        <time>2023-02-25T13:06:39Z</time>
      </trkpt>
      <trkpt lat="49.84345" lon="2.23084">
        <ele>36.3</ele>
        <time>2023-02-25T13:06:40Z</time>
      </trkpt>
      <trkpt lat="49.84345" lon="2.23084">
        <ele>36.3</ele>
        <time>2023-02-25T13:06:41Z</time>
      </trkpt>
      <trkpt lat="49.84345" lon="2.23084">
        <ele>36.3</ele>
        <time>2023-02-25T13:06:43Z</time>
      </trkpt>
      <trkpt lat="49.84343" lon="2.23085">
        <ele>36.3</ele>
        <time>2023-02-25T13:06:44Z</time>
      </trkpt>
      <trkpt lat="49.84343" lon="2.23085">
        <ele>36.3</ele>
        <time>2023-02-25T13:06:45Z</time>
      </trkpt>
      <trkpt lat="49.84343" lon="2.23085">
        <ele>36.3</ele>
        <time>2023-02-25T13:06:46Z</time>
      </trkpt>
      <trkpt lat="49.84343" lon="2.23085">
        <ele>36.3</ele>
        <time>2023-02-25T13:06:47Z</time>
      </trkpt>
      <trkpt lat="49.84341" lon="2.23085">
        <ele>36.3</ele>
        <time>2023-02-25T13:06:48Z</time>
      </trkpt>
      <trkpt lat="49.84342" lon="2.23086">
        <ele>36.3</ele>
        <time>2023-02-25T13:06:49Z</time>
      </trkpt>
      <trkpt lat="49.84343" lon="2.23086">
        <ele>36.3</ele>
        <time>2023-02-25T13:06:50Z</time>
      </trkpt>
      <trkpt lat="49.84345" lon="2.23085">
        <ele>36.3</ele>
        <time>2023-02-25T13:06:51Z</time>
      </trkpt>
      <trkpt lat="49.84347" lon="2.23085">
        <ele>36.3</ele>
        <time>2023-02-25T13:06:52Z</time>
      </trkpt>
      <trkpt lat="49.84348" lon="2.23086">
        <ele>36.3</ele>
        <time>2023-02-25T13:06:53Z</time>
      </trkpt>
      <trkpt lat="49.84349" lon="2.23086">
        <ele>36.3</ele>
        <time>2023-02-25T13:06:54Z</time>
      </trkpt>
      <trkpt lat="49.8435" lon="2.23086">
        <ele>36.3</ele>
        <time>2023-02-25T13:06:55Z</time>
      </trkpt>
      <trkpt lat="49.84351" lon="2.23086">
        <ele>36.4</ele>
        <time>2023-02-25T13:06:57Z</time>
      </trkpt>
      <trkpt lat="49.84352" lon="2.23086">
        <ele>36.4</ele>
        <time>2023-02-25T13:06:58Z</time>
      </trkpt>
      <trkpt lat="49.84353" lon="2.23087">
        <ele>36.4</ele>
        <time>2023-02-25T13:06:59Z</time>
      </trkpt>
      <trkpt lat="49.84355" lon="2.23087">
        <ele>36.4</ele>
        <time>2023-02-25T13:07:00Z</time>
      </trkpt>
      <trkpt lat="49.84356" lon="2.23088">
        <ele>36.4</ele>
        <time>2023-02-25T13:07:01Z</time>
      </trkpt>
      <trkpt lat="49.84357" lon="2.23088">
        <ele>36.4</ele>
        <time>2023-02-25T13:07:02Z</time>
      </trkpt>
      <trkpt lat="49.84358" lon="2.23088">
        <ele>36.4</ele>
        <time>2023-02-25T13:07:03Z</time>
      </trkpt>
      <trkpt lat="49.8436" lon="2.2309">
        <ele>36.4</ele>
        <time>2023-02-25T13:07:04Z</time>
      </trkpt>
      <trkpt lat="49.84361" lon="2.23091">
        <ele>36.4</ele>
        <time>2023-02-25T13:07:05Z</time>
      </trkpt>
      <trkpt lat="49.84362" lon="2.23091">
        <ele>36.4</ele>
        <time>2023-02-25T13:07:06Z</time>
      </trkpt>
      <trkpt lat="49.84363" lon="2.23093">
        <ele>36.4</ele>
        <time>2023-02-25T13:07:08Z</time>
      </trkpt>
      <trkpt lat="49.84363" lon="2.23094">
        <ele>36.4</ele>
        <time>2023-02-25T13:07:09Z</time>
      </trkpt>
      <trkpt lat="49.84364" lon="2.23095">
        <ele>36.4</ele>
        <time>2023-02-25T13:07:10Z</time>
      </trkpt>
      <trkpt lat="49.84365" lon="2.23096">
        <ele>36.4</ele>
        <time>2023-02-25T13:07:11Z</time>
      </trkpt>
      <trkpt lat="49.84365" lon="2.23103">
        <ele>36.5</ele>
        <time>2023-02-25T13:07:12Z</time>
      </trkpt>
      <trkpt lat="49.84366" lon="2.23104">
        <ele>36.5</ele>
        <time>2023-02-25T13:07:13Z</time>
      </trkpt>
      <trkpt lat="49.84367" lon="2.23105">
        <ele>36.5</ele>
        <time>2023-02-25T13:07:14Z</time>
      </trkpt>
      <trkpt lat="49.84368" lon="2.23106">
        <ele>36.5</ele>
        <time>2023-02-25T13:07:15Z</time>
      </trkpt>
      <trkpt lat="49.84368" lon="2.23111">
        <ele>36.5</ele>
        <time>2023-02-25T13:07:16Z</time>
      </trkpt>
      <trkpt lat="49.84368" lon="2.23112">
        <ele>36.5</ele>
        <time>2023-02-25T13:07:17Z</time>
      </trkpt>
      <trkpt lat="49.84369" lon="2.23113">
        <ele>36.5</ele>
        <time>2023-02-25T13:07:19Z</time>
      </trkpt>
      <trkpt lat="49.84371" lon="2.23114">
        <ele>36.5</ele>
        <time>2023-02-25T13:07:20Z</time>
      </trkpt>
      <trkpt lat="49.84372" lon="2.23115">
        <ele>36.5</ele>
        <time>2023-02-25T13:07:21Z</time>
      </trkpt>
      <trkpt lat="49.84374" lon="2.23114">
        <ele>36.5</ele>
        <time>2023-02-25T13:07:22Z</time>
      </trkpt>
      <trkpt lat="49.84375" lon="2.23114">
        <ele>36.5</ele>
        <time>2023-02-25T13:07:23Z</time>
      </trkpt>
      <trkpt lat="49.84377" lon="2.23114">
        <ele>36.5</ele>
        <time>2023-02-25T13:07:24Z</time>
      </trkpt>
      <trkpt lat="49.84378" lon="2.23114">
        <ele>36.6</ele>
        <time>2023-02-25T13:07:26Z</time>
      </trkpt>
      <trkpt lat="49.84379" lon="2.23113">
        <ele>36.6</ele>
        <time>2023-02-25T13:07:27Z</time>
      </trkpt>
      <trkpt lat="49.8438" lon="2.23113">
        <ele>36.6</ele>
        <time>2023-02-25T13:07:28Z</time>
      </trkpt>
      <trkpt lat="49.84381" lon="2.23113">
        <ele>36.6</ele>
        <time>2023-02-25T13:07:29Z</time>
      </trkpt>
      <trkpt lat="49.84382" lon="2.23114">
        <ele>36.6</ele>
        <time>2023-02-25T13:07:30Z</time>
      </trkpt>
      <trkpt lat="49.84384" lon="2.23114">
        <ele>36.6</ele>
        <time>2023-02-25T13:07:31Z</time>
      </trkpt>
      <trkpt lat="49.84385" lon="2.23115">
        <ele>36.6</ele>
        <time>2023-02-25T13:07:33Z</time>
      </trkpt>
      <trkpt lat="49.84387" lon="2.23116">
        <ele>36.6</ele>
        <time>2023-02-25T13:07:34Z</time>
      </trkpt>
      <trkpt lat="49.84387" lon="2.23116">
        <ele>36.6</ele>
        <time>2023-02-25T13:07:35Z</time>
      </trkpt>
      <trkpt lat="49.84388" lon="2.23117">
        <ele>36.6</ele>
        <time>2023-02-25T13:07:36Z</time>
      </trkpt>
      <trkpt lat="49.8439" lon="2.23117">
        <ele>36.6</ele>
        <time>2023-02-25T13:07:37Z</time>
      </trkpt>
      <trkpt lat="49.84391" lon="2.23117">
        <ele>36.6</ele>
        <time>2023-02-25T13:07:38Z</time>
      </trkpt>
      <trkpt lat="49.84392" lon="2.23118">
        <ele>36.6</ele>
        <time>2023-02-25T13:07:40Z</time>
      </trkpt>
      <trkpt lat="49.84393" lon="2.23119">
        <ele>36.7</ele>
        <time>2023-02-25T13:07:41Z</time>
      </trkpt>
      <trkpt lat="49.84394" lon="2.23121">
        <ele>36.7</ele>
        <time>2023-02-25T13:07:42Z</time>
      </trkpt>
      <trkpt lat="49.84395" lon="2.23125">
        <ele>36.7</ele>
        <time>2023-02-25T13:07:43Z</time>
      </trkpt>
      <trkpt lat="49.84395" lon="2.23126">
        <ele>36.7</ele>
        <time>2023-02-25T13:07:44Z</time>
      </trkpt>
      <trkpt lat="49.84396" lon="2.23128">
        <ele>36.7</ele>
        <time>2023-02-25T13:07:45Z</time>
      </trkpt>
      <trkpt lat="49.84397" lon="2.2313">
        <ele>36.7</ele>
        <time>2023-02-25T13:07:46Z</time>
      </trkpt>
      <trkpt lat="49.84397" lon="2.23133">
        <ele>36.7</ele>
        <time>2023-02-25T13:07:48Z</time>
      </trkpt>
      <trkpt lat="49.84397" lon="2.23135">
        <ele>36.7</ele>
        <time>2023-02-25T13:07:49Z</time>
      </trkpt>
      <trkpt lat="49.84399" lon="2.23138">
        <ele>36.7</ele>
        <time>2023-02-25T13:07:50Z</time>
      </trkpt>
      <trkpt lat="49.844" lon="2.23139">
        <ele>36.8</ele>
        <time>2023-02-25T13:07:51Z</time>
      </trkpt>
      <trkpt lat="49.84401" lon="2.2314">
        <ele>36.8</ele>
        <time>2023-02-25T13:07:52Z</time>
      </trkpt>
      <trkpt lat="49.84401" lon="2.2314">
        <ele>36.8</ele>
        <time>2023-02-25T13:07:53Z</time>
      </trkpt>
      <trkpt lat="49.84402" lon="2.23141">
        <ele>36.8</ele>
        <time>2023-02-25T13:07:54Z</time>
      </trkpt>
      <trkpt lat="49.84403" lon="2.23142">
        <ele>36.8</ele>
        <time>2023-02-25T13:07:56Z</time>
      </trkpt>
      <trkpt lat="49.84404" lon="2.23145">
        <ele>36.8</ele>
        <time>2023-02-25T13:07:57Z</time>
      </trkpt>
      <trkpt lat="49.84404" lon="2.23147">
        <ele>36.8</ele>
        <time>2023-02-25T13:07:58Z</time>
      </trkpt>
      <trkpt lat="49.84405" lon="2.23149">
        <ele>36.8</ele>
        <time>2023-02-25T13:07:59Z</time>
      </trkpt>
      <trkpt lat="49.84406" lon="2.2315">
        <ele>36.8</ele>
        <time>2023-02-25T13:08:00Z</time>
      </trkpt>
      <trkpt lat="49.84407" lon="2.2315">
        <ele>36.8</ele>
        <time>2023-02-25T13:08:01Z</time>
      </trkpt>
      <trkpt lat="49.84406" lon="2.23155">
        <ele>36.9</ele>
        <time>2023-02-25T13:08:02Z</time>
      </trkpt>
      <trkpt lat="49.84406" lon="2.23156">
        <ele>36.9</ele>
        <time>2023-02-25T13:08:03Z</time>
      </trkpt>
      <trkpt lat="49.84407" lon="2.23159">
        <ele>36.9</ele>
        <time>2023-02-25T13:08:05Z</time>
      </trkpt>
      <trkpt lat="49.84408" lon="2.2316">
        <ele>36.9</ele>
        <time>2023-02-25T13:08:06Z</time>
      </trkpt>
      <trkpt lat="49.84409" lon="2.23161">
        <ele>36.9</ele>
        <time>2023-02-25T13:08:07Z</time>
      </trkpt>
      <trkpt lat="49.8441" lon="2.23162">
        <ele>36.9</ele>
        <time>2023-02-25T13:08:08Z</time>
      </trkpt>
      <trkpt lat="49.84411" lon="2.23162">
        <ele>36.9</ele>
        <time>2023-02-25T13:08:09Z</time>
      </trkpt>
      <trkpt lat="49.84412" lon="2.23163">
        <ele>37</ele>
        <time>2023-02-25T13:08:10Z</time>
      </trkpt>
      <trkpt lat="49.84414" lon="2.23164">
        <ele>37</ele>
        <time>2023-02-25T13:08:11Z</time>
      </trkpt>
      <trkpt lat="49.84414" lon="2.23164">
        <ele>37</ele>
        <time>2023-02-25T13:08:13Z</time>
      </trkpt>
      <trkpt lat="49.84415" lon="2.23164">
        <ele>37</ele>
        <time>2023-02-25T13:08:14Z</time>
      </trkpt>
      <trkpt lat="49.84416" lon="2.23164">
        <ele>37</ele>
        <time>2023-02-25T13:08:15Z</time>
      </trkpt>
      <trkpt lat="49.84417" lon="2.23164">
        <ele>37</ele>
        <time>2023-02-25T13:08:16Z</time>
      </trkpt>
      <trkpt lat="49.84419" lon="2.23164">
        <ele>37</ele>
        <time>2023-02-25T13:08:17Z</time>
      </trkpt>
      <trkpt lat="49.84419" lon="2.23165">
        <ele>37</ele>
        <time>2023-02-25T13:08:18Z</time>
      </trkpt>
      <trkpt lat="49.8442" lon="2.23166">
        <ele>37</ele>
        <time>2023-02-25T13:08:19Z</time>
      </trkpt>
      <trkpt lat="49.84421" lon="2.23167">
        <ele>37.1</ele>
        <time>2023-02-25T13:08:21Z</time>
      </trkpt>
      <trkpt lat="49.84422" lon="2.23168">
        <ele>37.1</ele>
        <time>2023-02-25T13:08:22Z</time>
      </trkpt>
      <trkpt lat="49.84422" lon="2.23169">
        <ele>37.1</ele>
        <time>2023-02-25T13:08:23Z</time>
      </trkpt>
      <trkpt lat="49.84423" lon="2.2317">
        <ele>37.1</ele>
        <time>2023-02-25T13:08:24Z</time>
      </trkpt>
      <trkpt lat="49.84424" lon="2.23172">
        <ele>37.1</ele>
        <time>2023-02-25T13:08:25Z</time>
      </trkpt>
      <trkpt lat="49.84426" lon="2.23175">
        <ele>37.1</ele>
        <time>2023-02-25T13:08:27Z</time>
      </trkpt>
      <trkpt lat="49.84426" lon="2.23175">
        <ele>37.1</ele>
        <time>2023-02-25T13:08:28Z</time>
      </trkpt>
      <trkpt lat="49.84427" lon="2.23176">
        <ele>37.1</ele>
        <time>2023-02-25T13:08:29Z</time>
      </trkpt>
      <trkpt lat="49.84429" lon="2.23178">
        <ele>37.2</ele>
        <time>2023-02-25T13:08:30Z</time>
      </trkpt>
      <trkpt lat="49.8443" lon="2.23179">
        <ele>37.2</ele>
        <time>2023-02-25T13:08:31Z</time>
      </trkpt>
      <trkpt lat="49.84432" lon="2.23181">
        <ele>37.2</ele>
        <time>2023-02-25T13:08:32Z</time>
      </trkpt>
      <trkpt lat="49.84433" lon="2.23182">
        <ele>37.2</ele>
        <time>2023-02-25T13:08:34Z</time>
      </trkpt>
      <trkpt lat="49.84435" lon="2.23183">
        <ele>37.2</ele>
        <time>2023-02-25T13:08:35Z</time>
      </trkpt>
      <trkpt lat="49.84436" lon="2.23184">
        <ele>37.3</ele>
        <time>2023-02-25T13:08:36Z</time>
      </trkpt>
      <trkpt lat="49.84438" lon="2.23186">
        <ele>37.3</ele>
        <time>2023-02-25T13:08:37Z</time>
      </trkpt>
      <trkpt lat="49.84439" lon="2.23187">
        <ele>37.3</ele>
        <time>2023-02-25T13:08:38Z</time>
      </trkpt>
      <trkpt lat="49.8444" lon="2.23187">
        <ele>37.3</ele>
        <time>2023-02-25T13:08:39Z</time>
      </trkpt>
      <trkpt lat="49.84441" lon="2.23188">
        <ele>37.3</ele>
        <time>2023-02-25T13:08:41Z</time>
      </trkpt>
      <trkpt lat="49.84444" lon="2.2319">
        <ele>37.3</ele>
        <time>2023-02-25T13:08:42Z</time>
      </trkpt>
      <trkpt lat="49.84445" lon="2.2319">
        <ele>37.3</ele>
        <time>2023-02-25T13:08:43Z</time>
      </trkpt>
      <trkpt lat="49.84446" lon="2.23191">
        <ele>37.3</ele>
        <time>2023-02-25T13:08:44Z</time>
      </trkpt>
      <trkpt lat="49.84447" lon="2.23192">
        <ele>37.4</ele>
        <time>2023-02-25T13:08:45Z</time>
      </trkpt>
      <trkpt lat="49.84449" lon="2.23193">
        <ele>37.4</ele>
        <time>2023-02-25T13:08:46Z</time>
      </trkpt>
      <trkpt lat="49.8445" lon="2.23194">
        <ele>37.4</ele>
        <time>2023-02-25T13:08:47Z</time>
      </trkpt>
      <trkpt lat="49.84451" lon="2.23195">
        <ele>37.4</ele>
        <time>2023-02-25T13:08:49Z</time>
      </trkpt>
      <trkpt lat="49.84452" lon="2.23196">
        <ele>37.4</ele>
        <time>2023-02-25T13:08:50Z</time>
      </trkpt>
      <trkpt lat="49.84453" lon="2.23197">
        <ele>37.4</ele>
        <time>2023-02-25T13:08:51Z</time>
      </trkpt>
      <trkpt lat="49.84455" lon="2.23199">
        <ele>37.4</ele>
        <time>2023-02-25T13:08:52Z</time>
      </trkpt>
      <trkpt lat="49.84456" lon="2.232">
        <ele>37.4</ele>
        <time>2023-02-25T13:08:53Z</time>
      </trkpt>
      <trkpt lat="49.84456" lon="2.232">
        <ele>37.4</ele>
        <time>2023-02-25T13:08:54Z</time>
      </trkpt>
      <trkpt lat="49.84459" lon="2.23202">
        <ele>37.4</ele>
        <time>2023-02-25T13:08:56Z</time>
      </trkpt>
      <trkpt lat="49.8446" lon="2.23203">
        <ele>37.4</ele>
        <time>2023-02-25T13:08:57Z</time>
      </trkpt>
      <trkpt lat="49.84461" lon="2.23204">
        <ele>37.4</ele>
        <time>2023-02-25T13:08:59Z</time>
      </trkpt>
      <trkpt lat="49.84462" lon="2.23205">
        <ele>37.4</ele>
        <time>2023-02-25T13:09:00Z</time>
      </trkpt>
      <trkpt lat="49.84464" lon="2.23206">
        <ele>37.4</ele>
        <time>2023-02-25T13:09:01Z</time>
      </trkpt>
      <trkpt lat="49.84465" lon="2.23207">
        <ele>37.4</ele>
        <time>2023-02-25T13:09:02Z</time>
      </trkpt>
      <trkpt lat="49.84466" lon="2.23207">
        <ele>37.4</ele>
        <time>2023-02-25T13:09:03Z</time>
      </trkpt>
      <trkpt lat="49.84468" lon="2.23209">
        <ele>37.5</ele>
        <time>2023-02-25T13:09:04Z</time>
      </trkpt>
      <trkpt lat="49.84469" lon="2.2321">
        <ele>37.5</ele>
        <time>2023-02-25T13:09:06Z</time>
      </trkpt>
      <trkpt lat="49.8447" lon="2.23211">
        <ele>37.5</ele>
        <time>2023-02-25T13:09:07Z</time>
      </trkpt>
      <trkpt lat="49.84471" lon="2.23212">
        <ele>37.5</ele>
        <time>2023-02-25T13:09:08Z</time>
      </trkpt>
      <trkpt lat="49.84472" lon="2.23212">
        <ele>37.5</ele>
        <time>2023-02-25T13:09:09Z</time>
      </trkpt>
      <trkpt lat="49.84473" lon="2.23213">
        <ele>37.5</ele>
        <time>2023-02-25T13:09:10Z</time>
      </trkpt>
      <trkpt lat="49.84473" lon="2.23214">
        <ele>37.5</ele>
        <time>2023-02-25T13:09:11Z</time>
      </trkpt>
      <trkpt lat="49.84475" lon="2.23215">
        <ele>37.5</ele>
        <time>2023-02-25T13:09:12Z</time>
      </trkpt>
      <trkpt lat="49.84475" lon="2.23215">
        <ele>37.5</ele>
        <time>2023-02-25T13:09:13Z</time>
      </trkpt>
      <trkpt lat="49.84476" lon="2.23216">
        <ele>37.5</ele>
        <time>2023-02-25T13:09:14Z</time>
      </trkpt>
      <trkpt lat="49.84477" lon="2.23217">
        <ele>37.5</ele>
        <time>2023-02-25T13:09:16Z</time>
      </trkpt>
      <trkpt lat="49.84479" lon="2.23219">
        <ele>37.5</ele>
        <time>2023-02-25T13:09:17Z</time>
      </trkpt>
      <trkpt lat="49.84479" lon="2.23219">
        <ele>37.5</ele>
        <time>2023-02-25T13:09:18Z</time>
      </trkpt>
      <trkpt lat="49.8448" lon="2.23221">
        <ele>37.5</ele>
        <time>2023-02-25T13:09:19Z</time>
      </trkpt>
      <trkpt lat="49.84481" lon="2.23222">
        <ele>37.5</ele>
        <time>2023-02-25T13:09:20Z</time>
      </trkpt>
      <trkpt lat="49.84483" lon="2.23224">
        <ele>37.5</ele>
        <time>2023-02-25T13:09:21Z</time>
      </trkpt>
      <trkpt lat="49.84484" lon="2.23225">
        <ele>37.5</ele>
        <time>2023-02-25T13:09:22Z</time>
      </trkpt>
      <trkpt lat="49.84484" lon="2.23226">
        <ele>37.5</ele>
        <time>2023-02-25T13:09:23Z</time>
      </trkpt>
      <trkpt lat="49.84486" lon="2.23227">
        <ele>37.5</ele>
        <time>2023-02-25T13:09:24Z</time>
      </trkpt>
      <trkpt lat="49.84487" lon="2.23228">
        <ele>37.5</ele>
        <time>2023-02-25T13:09:25Z</time>
      </trkpt>
      <trkpt lat="49.84488" lon="2.23229">
        <ele>37.5</ele>
        <time>2023-02-25T13:09:27Z</time>
      </trkpt>
      <trkpt lat="49.8449" lon="2.23231">
        <ele>37.5</ele>
        <time>2023-02-25T13:09:28Z</time>
      </trkpt>
      <trkpt lat="49.84491" lon="2.23232">
        <ele>37.5</ele>
        <time>2023-02-25T13:09:29Z</time>
      </trkpt>
      <trkpt lat="49.84492" lon="2.23233">
        <ele>37.5</ele>
        <time>2023-02-25T13:09:30Z</time>
      </trkpt>
      <trkpt lat="49.84493" lon="2.23234">
        <ele>37.5</ele>
        <time>2023-02-25T13:09:31Z</time>
      </trkpt>
      <trkpt lat="49.84495" lon="2.23235">
        <ele>37.5</ele>
        <time>2023-02-25T13:09:32Z</time>
      </trkpt>
      <trkpt lat="49.84496" lon="2.23236">
        <ele>37.5</ele>
        <time>2023-02-25T13:09:34Z</time>
      </trkpt>
      <trkpt lat="49.84497" lon="2.23237">
        <ele>37.5</ele>
        <time>2023-02-25T13:09:35Z</time>
      </trkpt>
      <trkpt lat="49.845" lon="2.23239">
        <ele>37.5</ele>
        <time>2023-02-25T13:09:36Z</time>
      </trkpt>
      <trkpt lat="49.84501" lon="2.23239">
        <ele>37.5</ele>
        <time>2023-02-25T13:09:37Z</time>
      </trkpt>
      <trkpt lat="49.84502" lon="2.23241">
        <ele>37.5</ele>
        <time>2023-02-25T13:09:38Z</time>
      </trkpt>
      <trkpt lat="49.84503" lon="2.23241">
        <ele>37.5</ele>
        <time>2023-02-25T13:09:39Z</time>
      </trkpt>
      <trkpt lat="49.84504" lon="2.23242">
        <ele>37.5</ele>
        <time>2023-02-25T13:09:40Z</time>
      </trkpt>
      <trkpt lat="49.84504" lon="2.23243">
        <ele>37.5</ele>
        <time>2023-02-25T13:09:41Z</time>
      </trkpt>
      <trkpt lat="49.84506" lon="2.23243">
        <ele>37.5</ele>
        <time>2023-02-25T13:09:42Z</time>
      </trkpt>
      <trkpt lat="49.84507" lon="2.23244">
        <ele>37.5</ele>
        <time>2023-02-25T13:09:43Z</time>
      </trkpt>
      <trkpt lat="49.84508" lon="2.23245">
        <ele>37.5</ele>
        <time>2023-02-25T13:09:45Z</time>
      </trkpt>
      <trkpt lat="49.8451" lon="2.23247">
        <ele>37.5</ele>
        <time>2023-02-25T13:09:46Z</time>
      </trkpt>
      <trkpt lat="49.84511" lon="2.23248">
        <ele>37.5</ele>
        <time>2023-02-25T13:09:47Z</time>
      </trkpt>
      <trkpt lat="49.84511" lon="2.23249">
        <ele>37.5</ele>
        <time>2023-02-25T13:09:48Z</time>
      </trkpt>
      <trkpt lat="49.84512" lon="2.2325">
        <ele>37.5</ele>
        <time>2023-02-25T13:09:50Z</time>
      </trkpt>
      <trkpt lat="49.84513" lon="2.23251">
        <ele>37.5</ele>
        <time>2023-02-25T13:09:51Z</time>
      </trkpt>
      <trkpt lat="49.84514" lon="2.23253">
        <ele>37.5</ele>
        <time>2023-02-25T13:09:52Z</time>
      </trkpt>
      <trkpt lat="49.84515" lon="2.2325">
        <ele>37.5</ele>
        <time>2023-02-25T13:09:53Z</time>
      </trkpt>
      <trkpt lat="49.84516" lon="2.23251">
        <ele>37.5</ele>
        <time>2023-02-25T13:09:54Z</time>
      </trkpt>
      <trkpt lat="49.84517" lon="2.23252">
        <ele>37.5</ele>
        <time>2023-02-25T13:09:55Z</time>
      </trkpt>
      <trkpt lat="49.84518" lon="2.23253">
        <ele>37.5</ele>
        <time>2023-02-25T13:09:56Z</time>
      </trkpt>
      <trkpt lat="49.84519" lon="2.23254">
        <ele>37.5</ele>
        <time>2023-02-25T13:09:57Z</time>
      </trkpt>
      <trkpt lat="49.84519" lon="2.23254">
        <ele>37.5</ele>
        <time>2023-02-25T13:09:58Z</time>
      </trkpt>
      <trkpt lat="49.84521" lon="2.23256">
        <ele>37.5</ele>
        <time>2023-02-25T13:09:59Z</time>
      </trkpt>
      <trkpt lat="49.84522" lon="2.23257">
        <ele>37.5</ele>
        <time>2023-02-25T13:10:00Z</time>
      </trkpt>
      <trkpt lat="49.84522" lon="2.23258">
        <ele>37.5</ele>
        <time>2023-02-25T13:10:01Z</time>
      </trkpt>
      <trkpt lat="49.84523" lon="2.23262">
        <ele>37.5</ele>
        <time>2023-02-25T13:10:02Z</time>
      </trkpt>
      <trkpt lat="49.84524" lon="2.23263">
        <ele>37.5</ele>
        <time>2023-02-25T13:10:04Z</time>
      </trkpt>
      <trkpt lat="49.84525" lon="2.23265">
        <ele>37.5</ele>
        <time>2023-02-25T13:10:05Z</time>
      </trkpt>
      <trkpt lat="49.84525" lon="2.23267">
        <ele>37.5</ele>
        <time>2023-02-25T13:10:06Z</time>
      </trkpt>
      <trkpt lat="49.84527" lon="2.23269">
        <ele>37.5</ele>
        <time>2023-02-25T13:10:07Z</time>
      </trkpt>
      <trkpt lat="49.84527" lon="2.2327">
        <ele>37.5</ele>
        <time>2023-02-25T13:10:08Z</time>
      </trkpt>
      <trkpt lat="49.84528" lon="2.23271">
        <ele>37.5</ele>
        <time>2023-02-25T13:10:09Z</time>
      </trkpt>
      <trkpt lat="49.84528" lon="2.23272">
        <ele>37.5</ele>
        <time>2023-02-25T13:10:10Z</time>
      </trkpt>
      <trkpt lat="49.84529" lon="2.23273">
        <ele>37.5</ele>
        <time>2023-02-25T13:10:11Z</time>
      </trkpt>
      <trkpt lat="49.84529" lon="2.23274">
        <ele>37.5</ele>
        <time>2023-02-25T13:10:12Z</time>
      </trkpt>
      <trkpt lat="49.8453" lon="2.23275">
        <ele>37.5</ele>
        <time>2023-02-25T13:10:13Z</time>
      </trkpt>
      <trkpt lat="49.84531" lon="2.23275">
        <ele>37.5</ele>
        <time>2023-02-25T13:10:14Z</time>
      </trkpt>
      <trkpt lat="49.84532" lon="2.23276">
        <ele>37.5</ele>
        <time>2023-02-25T13:10:16Z</time>
      </trkpt>
      <trkpt lat="49.84533" lon="2.23277">
        <ele>37.5</ele>
        <time>2023-02-25T13:10:17Z</time>
      </trkpt>
      <trkpt lat="49.84534" lon="2.23279">
        <ele>37.5</ele>
        <time>2023-02-25T13:10:18Z</time>
      </trkpt>
      <trkpt lat="49.84535" lon="2.2328">
        <ele>37.5</ele>
        <time>2023-02-25T13:10:19Z</time>
      </trkpt>
      <trkpt lat="49.84536" lon="2.23281">
        <ele>37.5</ele>
        <time>2023-02-25T13:10:20Z</time>
      </trkpt>
      <trkpt lat="49.84536" lon="2.23282">
        <ele>37.5</ele>
        <time>2023-02-25T13:10:21Z</time>
      </trkpt>
      <trkpt lat="49.84538" lon="2.23284">
        <ele>37.5</ele>
        <time>2023-02-25T13:10:22Z</time>
      </trkpt>
      <trkpt lat="49.84539" lon="2.23286">
        <ele>37.5</ele>
        <time>2023-02-25T13:10:24Z</time>
      </trkpt>
      <trkpt lat="49.8454" lon="2.23286">
        <ele>37.5</ele>
        <time>2023-02-25T13:10:25Z</time>
      </trkpt>
      <trkpt lat="49.8454" lon="2.23287">
        <ele>37.5</ele>
        <time>2023-02-25T13:10:26Z</time>
      </trkpt>
      <trkpt lat="49.84542" lon="2.23289">
        <ele>37.5</ele>
        <time>2023-02-25T13:10:27Z</time>
      </trkpt>
      <trkpt lat="49.84543" lon="2.2329">
        <ele>37.5</ele>
        <time>2023-02-25T13:10:28Z</time>
      </trkpt>
      <trkpt lat="49.84544" lon="2.23291">
        <ele>37.5</ele>
        <time>2023-02-25T13:10:29Z</time>
      </trkpt>
      <trkpt lat="49.84545" lon="2.23293">
        <ele>37.5</ele>
        <time>2023-02-25T13:10:30Z</time>
      </trkpt>
      <trkpt lat="49.84546" lon="2.23294">
        <ele>37.5</ele>
        <time>2023-02-25T13:10:32Z</time>
      </trkpt>
      <trkpt lat="49.84547" lon="2.23296">
        <ele>37.5</ele>
        <time>2023-02-25T13:10:33Z</time>
      </trkpt>
      <trkpt lat="49.84548" lon="2.23297">
        <ele>37.5</ele>
        <time>2023-02-25T13:10:34Z</time>
      </trkpt>
      <trkpt lat="49.8455" lon="2.23299">
        <ele>37.5</ele>
        <time>2023-02-25T13:10:35Z</time>
      </trkpt>
      <trkpt lat="49.84551" lon="2.233">
        <ele>37.5</ele>
        <time>2023-02-25T13:10:36Z</time>
      </trkpt>
      <trkpt lat="49.84552" lon="2.23302">
        <ele>37.5</ele>
        <time>2023-02-25T13:10:37Z</time>
      </trkpt>
      <trkpt lat="49.84552" lon="2.23302">
        <ele>37.5</ele>
        <time>2023-02-25T13:10:38Z</time>
      </trkpt>
      <trkpt lat="49.84553" lon="2.23303">
        <ele>37.5</ele>
        <time>2023-02-25T13:10:39Z</time>
      </trkpt>
      <trkpt lat="49.84554" lon="2.23304">
        <ele>37.5</ele>
        <time>2023-02-25T13:10:41Z</time>
      </trkpt>
      <trkpt lat="49.84555" lon="2.23305">
        <ele>37.5</ele>
        <time>2023-02-25T13:10:42Z</time>
      </trkpt>
      <trkpt lat="49.84556" lon="2.23307">
        <ele>37.5</ele>
        <time>2023-02-25T13:10:43Z</time>
      </trkpt>
      <trkpt lat="49.84558" lon="2.23309">
        <ele>37.5</ele>
        <time>2023-02-25T13:10:44Z</time>
      </trkpt>
      <trkpt lat="49.84559" lon="2.23309">
        <ele>37.5</ele>
        <time>2023-02-25T13:10:46Z</time>
      </trkpt>
      <trkpt lat="49.8456" lon="2.2331">
        <ele>37.5</ele>
        <time>2023-02-25T13:10:47Z</time>
      </trkpt>
      <trkpt lat="49.84561" lon="2.23311">
        <ele>37.5</ele>
        <time>2023-02-25T13:10:48Z</time>
      </trkpt>
      <trkpt lat="49.84562" lon="2.23312">
        <ele>37.5</ele>
        <time>2023-02-25T13:10:49Z</time>
      </trkpt>
      <trkpt lat="49.84563" lon="2.23313">
        <ele>37.5</ele>
        <time>2023-02-25T13:10:50Z</time>
      </trkpt>
      <trkpt lat="49.84564" lon="2.23314">
        <ele>37.5</ele>
        <time>2023-02-25T13:10:51Z</time>
      </trkpt>
      <trkpt lat="49.84565" lon="2.23316">
        <ele>37.4</ele>
        <time>2023-02-25T13:10:52Z</time>
      </trkpt>
      <trkpt lat="49.84566" lon="2.23316">
        <ele>37.4</ele>
        <time>2023-02-25T13:10:53Z</time>
      </trkpt>
      <trkpt lat="49.84566" lon="2.23317">
        <ele>37.4</ele>
        <time>2023-02-25T13:10:54Z</time>
      </trkpt>
      <trkpt lat="49.84567" lon="2.23319">
        <ele>37.4</ele>
        <time>2023-02-25T13:10:56Z</time>
      </trkpt>
      <trkpt lat="49.84568" lon="2.2332">
        <ele>37.4</ele>
        <time>2023-02-25T13:10:57Z</time>
      </trkpt>
      <trkpt lat="49.8457" lon="2.23322">
        <ele>37.4</ele>
        <time>2023-02-25T13:10:58Z</time>
      </trkpt>
      <trkpt lat="49.8457" lon="2.23323">
        <ele>37.4</ele>
        <time>2023-02-25T13:10:59Z</time>
      </trkpt>
      <trkpt lat="49.84571" lon="2.23324">
        <ele>37.4</ele>
        <time>2023-02-25T13:11:01Z</time>
      </trkpt>
      <trkpt lat="49.84572" lon="2.23325">
        <ele>37.4</ele>
        <time>2023-02-25T13:11:02Z</time>
      </trkpt>
      <trkpt lat="49.84574" lon="2.23327">
        <ele>37.4</ele>
        <time>2023-02-25T13:11:03Z</time>
      </trkpt>
      <trkpt lat="49.84574" lon="2.23328">
        <ele>37.4</ele>
        <time>2023-02-25T13:11:04Z</time>
      </trkpt>
      <trkpt lat="49.84575" lon="2.23329">
        <ele>37.4</ele>
        <time>2023-02-25T13:11:05Z</time>
      </trkpt>
      <trkpt lat="49.84577" lon="2.23332">
        <ele>37.4</ele>
        <time>2023-02-25T13:11:06Z</time>
      </trkpt>
      <trkpt lat="49.84578" lon="2.23333">
        <ele>37.4</ele>
        <time>2023-02-25T13:11:07Z</time>
      </trkpt>
      <trkpt lat="49.84579" lon="2.23334">
        <ele>37.4</ele>
        <time>2023-02-25T13:11:09Z</time>
      </trkpt>
      <trkpt lat="49.8458" lon="2.23335">
        <ele>37.4</ele>
        <time>2023-02-25T13:11:10Z</time>
      </trkpt>
      <trkpt lat="49.8458" lon="2.23335">
        <ele>37.4</ele>
        <time>2023-02-25T13:11:11Z</time>
      </trkpt>
      <trkpt lat="49.84581" lon="2.23336">
        <ele>37.4</ele>
        <time>2023-02-25T13:11:12Z</time>
      </trkpt>
      <trkpt lat="49.84583" lon="2.23338">
        <ele>37.3</ele>
        <time>2023-02-25T13:11:13Z</time>
      </trkpt>
      <trkpt lat="49.84583" lon="2.23339">
        <ele>37.3</ele>
        <time>2023-02-25T13:11:14Z</time>
      </trkpt>
      <trkpt lat="49.84584" lon="2.2334">
        <ele>37.3</ele>
        <time>2023-02-25T13:11:15Z</time>
      </trkpt>
      <trkpt lat="49.84585" lon="2.23342">
        <ele>37.3</ele>
        <time>2023-02-25T13:11:16Z</time>
      </trkpt>
      <trkpt lat="49.84586" lon="2.23342">
        <ele>37.3</ele>
        <time>2023-02-25T13:11:17Z</time>
      </trkpt>
      <trkpt lat="49.84587" lon="2.23343">
        <ele>37.3</ele>
        <time>2023-02-25T13:11:18Z</time>
      </trkpt>
      <trkpt lat="49.84588" lon="2.23344">
        <ele>37.3</ele>
        <time>2023-02-25T13:11:19Z</time>
      </trkpt>
      <trkpt lat="49.84589" lon="2.23345">
        <ele>37.3</ele>
        <time>2023-02-25T13:11:20Z</time>
      </trkpt>
      <trkpt lat="49.8459" lon="2.23346">
        <ele>37.3</ele>
        <time>2023-02-25T13:11:22Z</time>
      </trkpt>
      <trkpt lat="49.84592" lon="2.23347">
        <ele>37.3</ele>
        <time>2023-02-25T13:11:23Z</time>
      </trkpt>
      <trkpt lat="49.84593" lon="2.23348">
        <ele>37.2</ele>
        <time>2023-02-25T13:11:24Z</time>
      </trkpt>
      <trkpt lat="49.84594" lon="2.23349">
        <ele>37.2</ele>
        <time>2023-02-25T13:11:25Z</time>
      </trkpt>
      <trkpt lat="49.84595" lon="2.2335">
        <ele>37.2</ele>
        <time>2023-02-25T13:11:26Z</time>
      </trkpt>
      <trkpt lat="49.84597" lon="2.23352">
        <ele>37.2</ele>
        <time>2023-02-25T13:11:27Z</time>
      </trkpt>
      <trkpt lat="49.84598" lon="2.23352">
        <ele>37.2</ele>
        <time>2023-02-25T13:11:28Z</time>
      </trkpt>
      <trkpt lat="49.84599" lon="2.23353">
        <ele>37.2</ele>
        <time>2023-02-25T13:11:29Z</time>
      </trkpt>
      <trkpt lat="49.846" lon="2.23354">
        <ele>37.2</ele>
        <time>2023-02-25T13:11:31Z</time>
      </trkpt>
      <trkpt lat="49.84601" lon="2.23355">
        <ele>37.2</ele>
        <time>2023-02-25T13:11:32Z</time>
      </trkpt>
      <trkpt lat="49.84602" lon="2.23355">
        <ele>37.2</ele>
        <time>2023-02-25T13:11:33Z</time>
      </trkpt>
      <trkpt lat="49.84604" lon="2.23356">
        <ele>37.1</ele>
        <time>2023-02-25T13:11:34Z</time>
      </trkpt>
      <trkpt lat="49.84607" lon="2.23356">
        <ele>37.1</ele>
        <time>2023-02-25T13:11:36Z</time>
      </trkpt>
      <trkpt lat="49.84608" lon="2.23353">
        <ele>37.1</ele>
        <time>2023-02-25T13:11:37Z</time>
      </trkpt>
      <trkpt lat="49.84608" lon="2.23352">
        <ele>37.1</ele>
        <time>2023-02-25T13:11:39Z</time>
      </trkpt>
      <trkpt lat="49.84609" lon="2.23351">
        <ele>37.1</ele>
        <time>2023-02-25T13:11:40Z</time>
      </trkpt>
      <trkpt lat="49.84609" lon="2.23351">
        <ele>37.1</ele>
        <time>2023-02-25T13:11:42Z</time>
      </trkpt>
      <trkpt lat="49.84608" lon="2.23353">
        <ele>37.1</ele>
        <time>2023-02-25T13:11:44Z</time>
      </trkpt>
      <trkpt lat="49.84609" lon="2.23353">
        <ele>37.1</ele>
        <time>2023-02-25T13:11:45Z</time>
      </trkpt>
      <trkpt lat="49.84608" lon="2.23353">
        <ele>37.1</ele>
        <time>2023-02-25T13:11:47Z</time>
      </trkpt>
      <trkpt lat="49.84608" lon="2.23353">
        <ele>37.1</ele>
        <time>2023-02-25T13:11:48Z</time>
      </trkpt>
      <trkpt lat="49.84608" lon="2.23353">
        <ele>37.1</ele>
        <time>2023-02-25T13:11:51Z</time>
      </trkpt>
      <trkpt lat="49.84608" lon="2.23352">
        <ele>37.1</ele>
        <time>2023-02-25T13:11:52Z</time>
      </trkpt>
      <trkpt lat="49.84607" lon="2.23352">
        <ele>37.1</ele>
        <time>2023-02-25T13:11:54Z</time>
      </trkpt>
      <trkpt lat="49.84607" lon="2.23352">
        <ele>37.1</ele>
        <time>2023-02-25T13:11:55Z</time>
      </trkpt>
      <trkpt lat="49.84606" lon="2.23352">
        <ele>37</ele>
        <time>2023-02-25T13:11:56Z</time>
      </trkpt>
      <trkpt lat="49.84606" lon="2.23352">
        <ele>37</ele>
        <time>2023-02-25T13:11:58Z</time>
      </trkpt>
      <trkpt lat="49.84606" lon="2.23352">
        <ele>37</ele>
        <time>2023-02-25T13:11:59Z</time>
      </trkpt>
      <trkpt lat="49.84606" lon="2.23352">
        <ele>37</ele>
        <time>2023-02-25T13:12:00Z</time>
      </trkpt>
      <trkpt lat="49.84606" lon="2.23352">
        <ele>37</ele>
        <time>2023-02-25T13:12:01Z</time>
      </trkpt>
      <trkpt lat="49.84606" lon="2.23352">
        <ele>37</ele>
        <time>2023-02-25T13:12:02Z</time>
      </trkpt>
      <trkpt lat="49.84606" lon="2.23352">
        <ele>37</ele>
        <time>2023-02-25T13:12:03Z</time>
      </trkpt>
      <trkpt lat="49.84606" lon="2.23352">
        <ele>37</ele>
        <time>2023-02-25T13:12:05Z</time>
      </trkpt>
      <trkpt lat="49.84606" lon="2.23352">
        <ele>37</ele>
        <time>2023-02-25T13:12:07Z</time>
      </trkpt>
      <trkpt lat="49.84606" lon="2.23352">
        <ele>37</ele>
        <time>2023-02-25T13:12:08Z</time>
      </trkpt>
      <trkpt lat="49.84606" lon="2.23352">
        <ele>37</ele>
        <time>2023-02-25T13:12:09Z</time>
      </trkpt>
      <trkpt lat="49.84606" lon="2.23352">
        <ele>37</ele>
        <time>2023-02-25T13:12:10Z</time>
      </trkpt>
      <trkpt lat="49.84606" lon="2.23352">
        <ele>37</ele>
        <time>2023-02-25T13:12:11Z</time>
      </trkpt>
      <trkpt lat="49.84606" lon="2.23352">
        <ele>37</ele>
        <time>2023-02-25T13:12:12Z</time>
      </trkpt>
      <trkpt lat="49.84606" lon="2.23352">
        <ele>37</ele>
        <time>2023-02-25T13:12:13Z</time>
      </trkpt>
      <trkpt lat="49.84605" lon="2.23353">
        <ele>37</ele>
        <time>2023-02-25T13:12:15Z</time>
      </trkpt>
      <trkpt lat="49.84604" lon="2.23354">
        <ele>37</ele>
        <time>2023-02-25T13:12:17Z</time>
      </trkpt>
      <trkpt lat="49.84609" lon="2.23359">
        <ele>37</ele>
        <time>2023-02-25T13:12:19Z</time>
      </trkpt>
      <trkpt lat="49.84606" lon="2.23356">
        <ele>37</ele>
        <time>2023-02-25T13:12:20Z</time>
      </trkpt>
      <trkpt lat="49.84605" lon="2.23355">
        <ele>37</ele>
        <time>2023-02-25T13:12:21Z</time>
      </trkpt>
      <trkpt lat="49.84605" lon="2.23353">
        <ele>36.9</ele>
        <time>2023-02-25T13:12:23Z</time>
      </trkpt>
      <trkpt lat="49.84606" lon="2.23353">
        <ele>36.9</ele>
        <time>2023-02-25T13:12:24Z</time>
      </trkpt>
      <trkpt lat="49.84608" lon="2.23353">
        <ele>36.9</ele>
        <time>2023-02-25T13:12:25Z</time>
      </trkpt>
      <trkpt lat="49.84609" lon="2.23354">
        <ele>36.9</ele>
        <time>2023-02-25T13:12:26Z</time>
      </trkpt>
      <trkpt lat="49.84612" lon="2.23356">
        <ele>36.9</ele>
        <time>2023-02-25T13:12:27Z</time>
      </trkpt>
      <trkpt lat="49.84613" lon="2.23357">
        <ele>36.9</ele>
        <time>2023-02-25T13:12:28Z</time>
      </trkpt>
      <trkpt lat="49.84615" lon="2.2336">
        <ele>36.9</ele>
        <time>2023-02-25T13:12:29Z</time>
      </trkpt>
      <trkpt lat="49.84618" lon="2.23363">
        <ele>36.9</ele>
        <time>2023-02-25T13:12:31Z</time>
      </trkpt>
      <trkpt lat="49.84618" lon="2.23364">
        <ele>36.9</ele>
        <time>2023-02-25T13:12:32Z</time>
      </trkpt>
      <trkpt lat="49.84621" lon="2.23368">
        <ele>36.9</ele>
        <time>2023-02-25T13:12:33Z</time>
      </trkpt>
      <trkpt lat="49.84622" lon="2.23369">
        <ele>36.9</ele>
        <time>2023-02-25T13:12:34Z</time>
      </trkpt>
      <trkpt lat="49.84623" lon="2.2337">
        <ele>36.9</ele>
        <time>2023-02-25T13:12:35Z</time>
      </trkpt>
      <trkpt lat="49.84624" lon="2.23371">
        <ele>36.9</ele>
        <time>2023-02-25T13:12:36Z</time>
      </trkpt>
      <trkpt lat="49.84624" lon="2.23372">
        <ele>36.9</ele>
        <time>2023-02-25T13:12:37Z</time>
      </trkpt>
      <trkpt lat="49.84626" lon="2.23376">
        <ele>36.9</ele>
        <time>2023-02-25T13:12:38Z</time>
      </trkpt>
      <trkpt lat="49.84628" lon="2.23377">
        <ele>36.9</ele>
        <time>2023-02-25T13:12:39Z</time>
      </trkpt>
      <trkpt lat="49.84629" lon="2.23378">
        <ele>36.9</ele>
        <time>2023-02-25T13:12:40Z</time>
      </trkpt>
      <trkpt lat="49.8463" lon="2.23378">
        <ele>36.9</ele>
        <time>2023-02-25T13:12:42Z</time>
      </trkpt>
      <trkpt lat="49.84631" lon="2.23379">
        <ele>36.9</ele>
        <time>2023-02-25T13:12:43Z</time>
      </trkpt>
      <trkpt lat="49.84632" lon="2.23379">
        <ele>36.9</ele>
        <time>2023-02-25T13:12:44Z</time>
      </trkpt>
      <trkpt lat="49.84633" lon="2.2338">
        <ele>36.9</ele>
        <time>2023-02-25T13:12:45Z</time>
      </trkpt>
      <trkpt lat="49.84635" lon="2.2338">
        <ele>37</ele>
        <time>2023-02-25T13:12:46Z</time>
      </trkpt>
      <trkpt lat="49.84636" lon="2.2338">
        <ele>37</ele>
        <time>2023-02-25T13:12:47Z</time>
      </trkpt>
      <trkpt lat="49.84637" lon="2.23381">
        <ele>37</ele>
        <time>2023-02-25T13:12:48Z</time>
      </trkpt>
      <trkpt lat="49.84638" lon="2.23381">
        <ele>37</ele>
        <time>2023-02-25T13:12:49Z</time>
      </trkpt>
      <trkpt lat="49.84639" lon="2.23381">
        <ele>37</ele>
        <time>2023-02-25T13:12:50Z</time>
      </trkpt>
      <trkpt lat="49.8464" lon="2.23381">
        <ele>37</ele>
        <time>2023-02-25T13:12:51Z</time>
      </trkpt>
      <trkpt lat="49.84642" lon="2.23381">
        <ele>37</ele>
        <time>2023-02-25T13:12:53Z</time>
      </trkpt>
      <trkpt lat="49.84644" lon="2.2338">
        <ele>37</ele>
        <time>2023-02-25T13:12:54Z</time>
      </trkpt>
      <trkpt lat="49.84645" lon="2.2338">
        <ele>37.1</ele>
        <time>2023-02-25T13:12:55Z</time>
      </trkpt>
      <trkpt lat="49.84646" lon="2.2338">
        <ele>37.1</ele>
        <time>2023-02-25T13:12:56Z</time>
      </trkpt>
      <trkpt lat="49.84648" lon="2.2338">
        <ele>37.1</ele>
        <time>2023-02-25T13:12:57Z</time>
      </trkpt>
      <trkpt lat="49.8465" lon="2.2338">
        <ele>37.1</ele>
        <time>2023-02-25T13:12:59Z</time>
      </trkpt>
      <trkpt lat="49.84651" lon="2.2338">
        <ele>37.1</ele>
        <time>2023-02-25T13:13:00Z</time>
      </trkpt>
      <trkpt lat="49.84652" lon="2.2338">
        <ele>37.2</ele>
        <time>2023-02-25T13:13:01Z</time>
      </trkpt>
      <trkpt lat="49.84653" lon="2.23381">
        <ele>37.2</ele>
        <time>2023-02-25T13:13:02Z</time>
      </trkpt>
      <trkpt lat="49.84656" lon="2.23382">
        <ele>37.2</ele>
        <time>2023-02-25T13:13:03Z</time>
      </trkpt>
      <trkpt lat="49.84656" lon="2.23382">
        <ele>37.2</ele>
        <time>2023-02-25T13:13:04Z</time>
      </trkpt>
      <trkpt lat="49.84657" lon="2.23383">
        <ele>37.3</ele>
        <time>2023-02-25T13:13:05Z</time>
      </trkpt>
      <trkpt lat="49.84658" lon="2.23383">
        <ele>37.3</ele>
        <time>2023-02-25T13:13:06Z</time>
      </trkpt>
      <trkpt lat="49.84659" lon="2.23384">
        <ele>37.3</ele>
        <time>2023-02-25T13:13:08Z</time>
      </trkpt>
      <trkpt lat="49.8466" lon="2.23383">
        <ele>37.3</ele>
        <time>2023-02-25T13:13:09Z</time>
      </trkpt>
      <trkpt lat="49.84661" lon="2.23383">
        <ele>37.3</ele>
        <time>2023-02-25T13:13:10Z</time>
      </trkpt>
      <trkpt lat="49.84662" lon="2.23383">
        <ele>37.4</ele>
        <time>2023-02-25T13:13:11Z</time>
      </trkpt>
      <trkpt lat="49.84663" lon="2.23383">
        <ele>37.4</ele>
        <time>2023-02-25T13:13:12Z</time>
      </trkpt>
      <trkpt lat="49.84665" lon="2.23381">
        <ele>37.4</ele>
        <time>2023-02-25T13:13:13Z</time>
      </trkpt>
      <trkpt lat="49.84666" lon="2.23381">
        <ele>37.5</ele>
        <time>2023-02-25T13:13:14Z</time>
      </trkpt>
      <trkpt lat="49.84667" lon="2.23381">
        <ele>37.5</ele>
        <time>2023-02-25T13:13:15Z</time>
      </trkpt>
      <trkpt lat="49.84668" lon="2.23381">
        <ele>37.5</ele>
        <time>2023-02-25T13:13:17Z</time>
      </trkpt>
      <trkpt lat="49.84668" lon="2.23381">
        <ele>37.5</ele>
        <time>2023-02-25T13:13:18Z</time>
      </trkpt>
      <trkpt lat="49.84669" lon="2.23381">
        <ele>37.5</ele>
        <time>2023-02-25T13:13:19Z</time>
      </trkpt>
      <trkpt lat="49.8467" lon="2.23381">
        <ele>37.5</ele>
        <time>2023-02-25T13:13:20Z</time>
      </trkpt>
      <trkpt lat="49.84671" lon="2.23381">
        <ele>37.5</ele>
        <time>2023-02-25T13:13:21Z</time>
      </trkpt>
      <trkpt lat="49.84671" lon="2.23381">
        <ele>37.5</ele>
        <time>2023-02-25T13:13:23Z</time>
      </trkpt>
      <trkpt lat="49.8467" lon="2.23382">
        <ele>37.5</ele>
        <time>2023-02-25T13:13:24Z</time>
      </trkpt>
      <trkpt lat="49.84671" lon="2.23382">
        <ele>37.5</ele>
        <time>2023-02-25T13:13:25Z</time>
      </trkpt>
      <trkpt lat="49.84672" lon="2.23383">
        <ele>37.5</ele>
        <time>2023-02-25T13:13:27Z</time>
      </trkpt>
      <trkpt lat="49.84672" lon="2.23385">
        <ele>37.5</ele>
        <time>2023-02-25T13:13:28Z</time>
      </trkpt>
      <trkpt lat="49.84672" lon="2.23385">
        <ele>37.5</ele>
        <time>2023-02-25T13:13:29Z</time>
      </trkpt>
      <trkpt lat="49.84671" lon="2.23387">
        <ele>37.5</ele>
        <time>2023-02-25T13:13:31Z</time>
      </trkpt>
      <trkpt lat="49.84671" lon="2.23387">
        <ele>37.5</ele>
        <time>2023-02-25T13:13:32Z</time>
      </trkpt>
      <trkpt lat="49.8467" lon="2.2339">
        <ele>37.5</ele>
        <time>2023-02-25T13:13:34Z</time>
      </trkpt>
      <trkpt lat="49.8467" lon="2.23392">
        <ele>37.5</ele>
        <time>2023-02-25T13:13:35Z</time>
      </trkpt>
      <trkpt lat="49.84669" lon="2.23393">
        <ele>37.5</ele>
        <time>2023-02-25T13:13:36Z</time>
      </trkpt>
      <trkpt lat="49.84669" lon="2.23396">
        <ele>37.5</ele>
        <time>2023-02-25T13:13:38Z</time>
      </trkpt>
      <trkpt lat="49.84668" lon="2.23397">
        <ele>37.5</ele>
        <time>2023-02-25T13:13:39Z</time>
      </trkpt>
      <trkpt lat="49.84668" lon="2.23398">
        <ele>37.5</ele>
        <time>2023-02-25T13:13:40Z</time>
      </trkpt>
      <trkpt lat="49.84667" lon="2.234">
        <ele>37.5</ele>
        <time>2023-02-25T13:13:42Z</time>
      </trkpt>
      <trkpt lat="49.84667" lon="2.23401">
        <ele>37.5</ele>
        <time>2023-02-25T13:13:43Z</time>
      </trkpt>
      <trkpt lat="49.84666" lon="2.23401">
        <ele>37.5</ele>
        <time>2023-02-25T13:13:44Z</time>
      </trkpt>
      <trkpt lat="49.84665" lon="2.23403">
        <ele>37.5</ele>
        <time>2023-02-25T13:13:45Z</time>
      </trkpt>
      <trkpt lat="49.84664" lon="2.23403">
        <ele>37.5</ele>
        <time>2023-02-25T13:13:46Z</time>
      </trkpt>
      <trkpt lat="49.84663" lon="2.23404">
        <ele>37.5</ele>
        <time>2023-02-25T13:13:48Z</time>
      </trkpt>
      <trkpt lat="49.84662" lon="2.23405">
        <ele>37.5</ele>
        <time>2023-02-25T13:13:49Z</time>
      </trkpt>
      <trkpt lat="49.84661" lon="2.23405">
        <ele>37.5</ele>
        <time>2023-02-25T13:13:50Z</time>
      </trkpt>
      <trkpt lat="49.84661" lon="2.23406">
        <ele>37.5</ele>
        <time>2023-02-25T13:13:51Z</time>
      </trkpt>
      <trkpt lat="49.8466" lon="2.23407">
        <ele>37.5</ele>
        <time>2023-02-25T13:13:52Z</time>
      </trkpt>
      <trkpt lat="49.84659" lon="2.23408">
        <ele>37.5</ele>
        <time>2023-02-25T13:13:53Z</time>
      </trkpt>
      <trkpt lat="49.84658" lon="2.2341">
        <ele>37.5</ele>
        <time>2023-02-25T13:13:55Z</time>
      </trkpt>
      <trkpt lat="49.84657" lon="2.23411">
        <ele>37.5</ele>
        <time>2023-02-25T13:13:56Z</time>
      </trkpt>
      <trkpt lat="49.84657" lon="2.23412">
        <ele>37.6</ele>
        <time>2023-02-25T13:13:57Z</time>
      </trkpt>
      <trkpt lat="49.84655" lon="2.23413">
        <ele>37.6</ele>
        <time>2023-02-25T13:13:58Z</time>
      </trkpt>
      <trkpt lat="49.84654" lon="2.23415">
        <ele>37.6</ele>
        <time>2023-02-25T13:13:59Z</time>
      </trkpt>
      <trkpt lat="49.84653" lon="2.23418">
        <ele>37.6</ele>
        <time>2023-02-25T13:14:00Z</time>
      </trkpt>
      <trkpt lat="49.84653" lon="2.23419">
        <ele>37.6</ele>
        <time>2023-02-25T13:14:01Z</time>
      </trkpt>
      <trkpt lat="49.84653" lon="2.23421">
        <ele>37.6</ele>
        <time>2023-02-25T13:14:03Z</time>
      </trkpt>
      <trkpt lat="49.84652" lon="2.23423">
        <ele>37.6</ele>
        <time>2023-02-25T13:14:04Z</time>
      </trkpt>
      <trkpt lat="49.84652" lon="2.23424">
        <ele>37.6</ele>
        <time>2023-02-25T13:14:05Z</time>
      </trkpt>
      <trkpt lat="49.84651" lon="2.23426">
        <ele>37.6</ele>
        <time>2023-02-25T13:14:06Z</time>
      </trkpt>
      <trkpt lat="49.84651" lon="2.23427">
        <ele>37.6</ele>
        <time>2023-02-25T13:14:07Z</time>
      </trkpt>
      <trkpt lat="49.8465" lon="2.23429">
        <ele>37.6</ele>
        <time>2023-02-25T13:14:08Z</time>
      </trkpt>
      <trkpt lat="49.8465" lon="2.23432">
        <ele>37.6</ele>
        <time>2023-02-25T13:14:09Z</time>
      </trkpt>
      <trkpt lat="49.8465" lon="2.23434">
        <ele>37.6</ele>
        <time>2023-02-25T13:14:11Z</time>
      </trkpt>
      <trkpt lat="49.84649" lon="2.23435">
        <ele>37.6</ele>
        <time>2023-02-25T13:14:12Z</time>
      </trkpt>
      <trkpt lat="49.84648" lon="2.23438">
        <ele>37.6</ele>
        <time>2023-02-25T13:14:13Z</time>
      </trkpt>
      <trkpt lat="49.84647" lon="2.23439">
        <ele>37.6</ele>
        <time>2023-02-25T13:14:14Z</time>
      </trkpt>
      <trkpt lat="49.84647" lon="2.2344">
        <ele>37.6</ele>
        <time>2023-02-25T13:14:15Z</time>
      </trkpt>
      <trkpt lat="49.84646" lon="2.23442">
        <ele>37.6</ele>
        <time>2023-02-25T13:14:16Z</time>
      </trkpt>
      <trkpt lat="49.84645" lon="2.23443">
        <ele>37.6</ele>
        <time>2023-02-25T13:14:17Z</time>
      </trkpt>
      <trkpt lat="49.84644" lon="2.23444">
        <ele>37.6</ele>
        <time>2023-02-25T13:14:18Z</time>
      </trkpt>
      <trkpt lat="49.84643" lon="2.23446">
        <ele>37.6</ele>
        <time>2023-02-25T13:14:19Z</time>
      </trkpt>
      <trkpt lat="49.84642" lon="2.23447">
        <ele>37.6</ele>
        <time>2023-02-25T13:14:21Z</time>
      </trkpt>
      <trkpt lat="49.84642" lon="2.23449">
        <ele>37.6</ele>
        <time>2023-02-25T13:14:22Z</time>
      </trkpt>
      <trkpt lat="49.84641" lon="2.23451">
        <ele>37.6</ele>
        <time>2023-02-25T13:14:23Z</time>
      </trkpt>
      <trkpt lat="49.84641" lon="2.23452">
        <ele>37.6</ele>
        <time>2023-02-25T13:14:24Z</time>
      </trkpt>
      <trkpt lat="49.8464" lon="2.23454">
        <ele>37.7</ele>
        <time>2023-02-25T13:14:25Z</time>
      </trkpt>
      <trkpt lat="49.84639" lon="2.23455">
        <ele>37.7</ele>
        <time>2023-02-25T13:14:26Z</time>
      </trkpt>
      <trkpt lat="49.84639" lon="2.23456">
        <ele>37.7</ele>
        <time>2023-02-25T13:14:27Z</time>
      </trkpt>
      <trkpt lat="49.84637" lon="2.23459">
        <ele>37.7</ele>
        <time>2023-02-25T13:14:28Z</time>
      </trkpt>
      <trkpt lat="49.84636" lon="2.2346">
        <ele>37.7</ele>
        <time>2023-02-25T13:14:30Z</time>
      </trkpt>
      <trkpt lat="49.84636" lon="2.23461">
        <ele>37.7</ele>
        <time>2023-02-25T13:14:31Z</time>
      </trkpt>
      <trkpt lat="49.84635" lon="2.23462">
        <ele>37.7</ele>
        <time>2023-02-25T13:14:32Z</time>
      </trkpt>
      <trkpt lat="49.84634" lon="2.23464">
        <ele>37.7</ele>
        <time>2023-02-25T13:14:33Z</time>
      </trkpt>
      <trkpt lat="49.84633" lon="2.23465">
        <ele>37.7</ele>
        <time>2023-02-25T13:14:34Z</time>
      </trkpt>
      <trkpt lat="49.84632" lon="2.23466">
        <ele>37.7</ele>
        <time>2023-02-25T13:14:35Z</time>
      </trkpt>
      <trkpt lat="49.8463" lon="2.23469">
        <ele>37.7</ele>
        <time>2023-02-25T13:14:36Z</time>
      </trkpt>
      <trkpt lat="49.84629" lon="2.2347">
        <ele>37.7</ele>
        <time>2023-02-25T13:14:37Z</time>
      </trkpt>
      <trkpt lat="49.84628" lon="2.23472">
        <ele>37.7</ele>
        <time>2023-02-25T13:14:38Z</time>
      </trkpt>
      <trkpt lat="49.84627" lon="2.23473">
        <ele>37.7</ele>
        <time>2023-02-25T13:14:40Z</time>
      </trkpt>
      <trkpt lat="49.84626" lon="2.23474">
        <ele>37.7</ele>
        <time>2023-02-25T13:14:41Z</time>
      </trkpt>
      <trkpt lat="49.84626" lon="2.23475">
        <ele>37.7</ele>
        <time>2023-02-25T13:14:42Z</time>
      </trkpt>
      <trkpt lat="49.84625" lon="2.23476">
        <ele>37.7</ele>
        <time>2023-02-25T13:14:43Z</time>
      </trkpt>
      <trkpt lat="49.84624" lon="2.23478">
        <ele>37.7</ele>
        <time>2023-02-25T13:14:44Z</time>
      </trkpt>
      <trkpt lat="49.84623" lon="2.2348">
        <ele>37.7</ele>
        <time>2023-02-25T13:14:45Z</time>
      </trkpt>
      <trkpt lat="49.84622" lon="2.23482">
        <ele>37.7</ele>
        <time>2023-02-25T13:14:46Z</time>
      </trkpt>
      <trkpt lat="49.84622" lon="2.23484">
        <ele>37.7</ele>
        <time>2023-02-25T13:14:47Z</time>
      </trkpt>
      <trkpt lat="49.84622" lon="2.23486">
        <ele>37.7</ele>
        <time>2023-02-25T13:14:48Z</time>
      </trkpt>
      <trkpt lat="49.84621" lon="2.23488">
        <ele>37.7</ele>
        <time>2023-02-25T13:14:50Z</time>
      </trkpt>
      <trkpt lat="49.84621" lon="2.2349">
        <ele>37.7</ele>
        <time>2023-02-25T13:14:51Z</time>
      </trkpt>
      <trkpt lat="49.84621" lon="2.23491">
        <ele>37.7</ele>
        <time>2023-02-25T13:14:52Z</time>
      </trkpt>
      <trkpt lat="49.8462" lon="2.23493">
        <ele>37.7</ele>
        <time>2023-02-25T13:14:53Z</time>
      </trkpt>
      <trkpt lat="49.84619" lon="2.23494">
        <ele>37.7</ele>
        <time>2023-02-25T13:14:54Z</time>
      </trkpt>
      <trkpt lat="49.84619" lon="2.23496">
        <ele>37.8</ele>
        <time>2023-02-25T13:14:55Z</time>
      </trkpt>
      <trkpt lat="49.84618" lon="2.23497">
        <ele>37.8</ele>
        <time>2023-02-25T13:14:56Z</time>
      </trkpt>
      <trkpt lat="49.84617" lon="2.23498">
        <ele>37.8</ele>
        <time>2023-02-25T13:14:57Z</time>
      </trkpt>
      <trkpt lat="49.84617" lon="2.23499">
        <ele>37.8</ele>
        <time>2023-02-25T13:14:59Z</time>
      </trkpt>
      <trkpt lat="49.84616" lon="2.23501">
        <ele>37.8</ele>
        <time>2023-02-25T13:15:00Z</time>
      </trkpt>
      <trkpt lat="49.84615" lon="2.23502">
        <ele>37.8</ele>
        <time>2023-02-25T13:15:01Z</time>
      </trkpt>
      <trkpt lat="49.84614" lon="2.23503">
        <ele>37.8</ele>
        <time>2023-02-25T13:15:02Z</time>
      </trkpt>
      <trkpt lat="49.84614" lon="2.23504">
        <ele>37.8</ele>
        <time>2023-02-25T13:15:03Z</time>
      </trkpt>
      <trkpt lat="49.84613" lon="2.23506">
        <ele>37.8</ele>
        <time>2023-02-25T13:15:04Z</time>
      </trkpt>
      <trkpt lat="49.84612" lon="2.23507">
        <ele>37.8</ele>
        <time>2023-02-25T13:15:05Z</time>
      </trkpt>
      <trkpt lat="49.84612" lon="2.23509">
        <ele>37.8</ele>
        <time>2023-02-25T13:15:06Z</time>
      </trkpt>
      <trkpt lat="49.84611" lon="2.23511">
        <ele>37.8</ele>
        <time>2023-02-25T13:15:07Z</time>
      </trkpt>
      <trkpt lat="49.8461" lon="2.23513">
        <ele>37.8</ele>
        <time>2023-02-25T13:15:08Z</time>
      </trkpt>
      <trkpt lat="49.8461" lon="2.23514">
        <ele>37.8</ele>
        <time>2023-02-25T13:15:10Z</time>
      </trkpt>
      <trkpt lat="49.84609" lon="2.23515">
        <ele>37.8</ele>
        <time>2023-02-25T13:15:11Z</time>
      </trkpt>
      <trkpt lat="49.84609" lon="2.23517">
        <ele>37.8</ele>
        <time>2023-02-25T13:15:12Z</time>
      </trkpt>
      <trkpt lat="49.84608" lon="2.23518">
        <ele>37.8</ele>
        <time>2023-02-25T13:15:13Z</time>
      </trkpt>
      <trkpt lat="49.84608" lon="2.2352">
        <ele>37.8</ele>
        <time>2023-02-25T13:15:14Z</time>
      </trkpt>
      <trkpt lat="49.84607" lon="2.23521">
        <ele>37.9</ele>
        <time>2023-02-25T13:15:15Z</time>
      </trkpt>
      <trkpt lat="49.84607" lon="2.23522">
        <ele>37.9</ele>
        <time>2023-02-25T13:15:17Z</time>
      </trkpt>
      <trkpt lat="49.84606" lon="2.23523">
        <ele>37.9</ele>
        <time>2023-02-25T13:15:18Z</time>
      </trkpt>
      <trkpt lat="49.84605" lon="2.23525">
        <ele>37.9</ele>
        <time>2023-02-25T13:15:19Z</time>
      </trkpt>
      <trkpt lat="49.84605" lon="2.23526">
        <ele>37.9</ele>
        <time>2023-02-25T13:15:20Z</time>
      </trkpt>
      <trkpt lat="49.84605" lon="2.23527">
        <ele>37.9</ele>
        <time>2023-02-25T13:15:21Z</time>
      </trkpt>
      <trkpt lat="49.84604" lon="2.23527">
        <ele>37.9</ele>
        <time>2023-02-25T13:15:22Z</time>
      </trkpt>
      <trkpt lat="49.84604" lon="2.23528">
        <ele>37.9</ele>
        <time>2023-02-25T13:15:23Z</time>
      </trkpt>
      <trkpt lat="49.84603" lon="2.2353">
        <ele>37.9</ele>
        <time>2023-02-25T13:15:24Z</time>
      </trkpt>
      <trkpt lat="49.84602" lon="2.23531">
        <ele>37.9</ele>
        <time>2023-02-25T13:15:26Z</time>
      </trkpt>
      <trkpt lat="49.84601" lon="2.23532">
        <ele>37.9</ele>
        <time>2023-02-25T13:15:27Z</time>
      </trkpt>
      <trkpt lat="49.84601" lon="2.23534">
        <ele>37.9</ele>
        <time>2023-02-25T13:15:28Z</time>
      </trkpt>
      <trkpt lat="49.84601" lon="2.23535">
        <ele>37.9</ele>
        <time>2023-02-25T13:15:29Z</time>
      </trkpt>
      <trkpt lat="49.846" lon="2.23536">
        <ele>37.9</ele>
        <time>2023-02-25T13:15:31Z</time>
      </trkpt>
      <trkpt lat="49.846" lon="2.23538">
        <ele>37.9</ele>
        <time>2023-02-25T13:15:32Z</time>
      </trkpt>
      <trkpt lat="49.846" lon="2.2354">
        <ele>38</ele>
        <time>2023-02-25T13:15:33Z</time>
      </trkpt>
      <trkpt lat="49.84599" lon="2.23542">
        <ele>38</ele>
        <time>2023-02-25T13:15:35Z</time>
      </trkpt>
      <trkpt lat="49.84599" lon="2.23543">
        <ele>38</ele>
        <time>2023-02-25T13:15:36Z</time>
      </trkpt>
      <trkpt lat="49.84598" lon="2.23545">
        <ele>38</ele>
        <time>2023-02-25T13:15:37Z</time>
      </trkpt>
      <trkpt lat="49.84598" lon="2.23546">
        <ele>38</ele>
        <time>2023-02-25T13:15:38Z</time>
      </trkpt>
      <trkpt lat="49.84598" lon="2.23547">
        <ele>38</ele>
        <time>2023-02-25T13:15:39Z</time>
      </trkpt>
      <trkpt lat="49.84597" lon="2.23548">
        <ele>38</ele>
        <time>2023-02-25T13:15:40Z</time>
      </trkpt>
      <trkpt lat="49.84597" lon="2.23549">
        <ele>38</ele>
        <time>2023-02-25T13:15:41Z</time>
      </trkpt>
      <trkpt lat="49.84596" lon="2.23551">
        <ele>38</ele>
        <time>2023-02-25T13:15:43Z</time>
      </trkpt>
      <trkpt lat="49.84596" lon="2.23552">
        <ele>38</ele>
        <time>2023-02-25T13:15:44Z</time>
      </trkpt>
      <trkpt lat="49.84596" lon="2.23554">
        <ele>38</ele>
        <time>2023-02-25T13:15:45Z</time>
      </trkpt>
      <trkpt lat="49.84595" lon="2.23557">
        <ele>38</ele>
        <time>2023-02-25T13:15:46Z</time>
      </trkpt>
      <trkpt lat="49.84595" lon="2.23558">
        <ele>38</ele>
        <time>2023-02-25T13:15:47Z</time>
      </trkpt>
      <trkpt lat="49.84594" lon="2.23559">
        <ele>38</ele>
        <time>2023-02-25T13:15:48Z</time>
      </trkpt>
      <trkpt lat="49.84594" lon="2.2356">
        <ele>38</ele>
        <time>2023-02-25T13:15:49Z</time>
      </trkpt>
      <trkpt lat="49.84593" lon="2.23561">
        <ele>38</ele>
        <time>2023-02-25T13:15:51Z</time>
      </trkpt>
      <trkpt lat="49.84593" lon="2.23563">
        <ele>38</ele>
        <time>2023-02-25T13:15:52Z</time>
      </trkpt>
      <trkpt lat="49.84592" lon="2.23564">
        <ele>38</ele>
        <time>2023-02-25T13:15:53Z</time>
      </trkpt>
      <trkpt lat="49.84592" lon="2.23566">
        <ele>38.1</ele>
        <time>2023-02-25T13:15:54Z</time>
      </trkpt>
      <trkpt lat="49.84591" lon="2.23568">
        <ele>38.1</ele>
        <time>2023-02-25T13:15:55Z</time>
      </trkpt>
      <trkpt lat="49.84591" lon="2.23569">
        <ele>38.1</ele>
        <time>2023-02-25T13:15:56Z</time>
      </trkpt>
      <trkpt lat="49.84591" lon="2.23571">
        <ele>38.1</ele>
        <time>2023-02-25T13:15:57Z</time>
      </trkpt>
      <trkpt lat="49.84591" lon="2.23573">
        <ele>38.1</ele>
        <time>2023-02-25T13:15:59Z</time>
      </trkpt>
      <trkpt lat="49.84591" lon="2.23575">
        <ele>38.1</ele>
        <time>2023-02-25T13:16:00Z</time>
      </trkpt>
      <trkpt lat="49.8459" lon="2.23578">
        <ele>38.1</ele>
        <time>2023-02-25T13:16:01Z</time>
      </trkpt>
      <trkpt lat="49.8459" lon="2.23579">
        <ele>38.1</ele>
        <time>2023-02-25T13:16:02Z</time>
      </trkpt>
      <trkpt lat="49.8459" lon="2.2358">
        <ele>38.1</ele>
        <time>2023-02-25T13:16:03Z</time>
      </trkpt>
      <trkpt lat="49.84589" lon="2.23582">
        <ele>38.1</ele>
        <time>2023-02-25T13:16:04Z</time>
      </trkpt>
      <trkpt lat="49.84589" lon="2.23583">
        <ele>38.1</ele>
        <time>2023-02-25T13:16:05Z</time>
      </trkpt>
      <trkpt lat="49.84589" lon="2.23585">
        <ele>38.1</ele>
        <time>2023-02-25T13:16:06Z</time>
      </trkpt>
      <trkpt lat="49.84589" lon="2.23586">
        <ele>38.1</ele>
        <time>2023-02-25T13:16:08Z</time>
      </trkpt>
      <trkpt lat="49.84588" lon="2.23588">
        <ele>38.1</ele>
        <time>2023-02-25T13:16:09Z</time>
      </trkpt>
      <trkpt lat="49.84588" lon="2.2359">
        <ele>38.1</ele>
        <time>2023-02-25T13:16:10Z</time>
      </trkpt>
      <trkpt lat="49.84588" lon="2.23592">
        <ele>38.1</ele>
        <time>2023-02-25T13:16:11Z</time>
      </trkpt>
      <trkpt lat="49.84588" lon="2.23593">
        <ele>38.1</ele>
        <time>2023-02-25T13:16:12Z</time>
      </trkpt>
      <trkpt lat="49.84587" lon="2.23594">
        <ele>38.1</ele>
        <time>2023-02-25T13:16:13Z</time>
      </trkpt>
      <trkpt lat="49.84587" lon="2.23596">
        <ele>38.1</ele>
        <time>2023-02-25T13:16:14Z</time>
      </trkpt>
      <trkpt lat="49.84587" lon="2.23597">
        <ele>38.1</ele>
        <time>2023-02-25T13:16:16Z</time>
      </trkpt>
      <trkpt lat="49.84587" lon="2.23598">
        <ele>38.1</ele>
        <time>2023-02-25T13:16:17Z</time>
      </trkpt>
      <trkpt lat="49.84586" lon="2.236">
        <ele>38.1</ele>
        <time>2023-02-25T13:16:18Z</time>
      </trkpt>
      <trkpt lat="49.84586" lon="2.23601">
        <ele>38.1</ele>
        <time>2023-02-25T13:16:19Z</time>
      </trkpt>
      <trkpt lat="49.84586" lon="2.23603">
        <ele>38.1</ele>
        <time>2023-02-25T13:16:20Z</time>
      </trkpt>
      <trkpt lat="49.84586" lon="2.23605">
        <ele>38.1</ele>
        <time>2023-02-25T13:16:21Z</time>
      </trkpt>
      <trkpt lat="49.84585" lon="2.23608">
        <ele>38.2</ele>
        <time>2023-02-25T13:16:22Z</time>
      </trkpt>
      <trkpt lat="49.84585" lon="2.23609">
        <ele>38.2</ele>
        <time>2023-02-25T13:16:24Z</time>
      </trkpt>
      <trkpt lat="49.84585" lon="2.23611">
        <ele>38.2</ele>
        <time>2023-02-25T13:16:25Z</time>
      </trkpt>
      <trkpt lat="49.84584" lon="2.23614">
        <ele>38.2</ele>
        <time>2023-02-25T13:16:26Z</time>
      </trkpt>
      <trkpt lat="49.84584" lon="2.23615">
        <ele>38.2</ele>
        <time>2023-02-25T13:16:27Z</time>
      </trkpt>
      <trkpt lat="49.84584" lon="2.23617">
        <ele>38.2</ele>
        <time>2023-02-25T13:16:28Z</time>
      </trkpt>
      <trkpt lat="49.84584" lon="2.2362">
        <ele>38.2</ele>
        <time>2023-02-25T13:16:29Z</time>
      </trkpt>
      <trkpt lat="49.84584" lon="2.23621">
        <ele>38.2</ele>
        <time>2023-02-25T13:16:30Z</time>
      </trkpt>
      <trkpt lat="49.84584" lon="2.23623">
        <ele>38.2</ele>
        <time>2023-02-25T13:16:31Z</time>
      </trkpt>
      <trkpt lat="49.84584" lon="2.23625">
        <ele>38.2</ele>
        <time>2023-02-25T13:16:32Z</time>
      </trkpt>
      <trkpt lat="49.84584" lon="2.23627">
        <ele>38.3</ele>
        <time>2023-02-25T13:16:34Z</time>
      </trkpt>
      <trkpt lat="49.84584" lon="2.2363">
        <ele>38.3</ele>
        <time>2023-02-25T13:16:35Z</time>
      </trkpt>
      <trkpt lat="49.84584" lon="2.23632">
        <ele>38.3</ele>
        <time>2023-02-25T13:16:36Z</time>
      </trkpt>
      <trkpt lat="49.84583" lon="2.23635">
        <ele>38.3</ele>
        <time>2023-02-25T13:16:37Z</time>
      </trkpt>
      <trkpt lat="49.84583" lon="2.23637">
        <ele>38.3</ele>
        <time>2023-02-25T13:16:38Z</time>
      </trkpt>
      <trkpt lat="49.84583" lon="2.23639">
        <ele>38.3</ele>
        <time>2023-02-25T13:16:39Z</time>
      </trkpt>
      <trkpt lat="49.84583" lon="2.2364">
        <ele>38.3</ele>
        <time>2023-02-25T13:16:40Z</time>
      </trkpt>
      <trkpt lat="49.84583" lon="2.23642">
        <ele>38.3</ele>
        <time>2023-02-25T13:16:42Z</time>
      </trkpt>
      <trkpt lat="49.84583" lon="2.23644">
        <ele>38.3</ele>
        <time>2023-02-25T13:16:43Z</time>
      </trkpt>
      <trkpt lat="49.84583" lon="2.23646">
        <ele>38.4</ele>
        <time>2023-02-25T13:16:44Z</time>
      </trkpt>
      <trkpt lat="49.84583" lon="2.23649">
        <ele>38.4</ele>
        <time>2023-02-25T13:16:45Z</time>
      </trkpt>
      <trkpt lat="49.84583" lon="2.2365">
        <ele>38.4</ele>
        <time>2023-02-25T13:16:46Z</time>
      </trkpt>
      <trkpt lat="49.84583" lon="2.23652">
        <ele>38.4</ele>
        <time>2023-02-25T13:16:47Z</time>
      </trkpt>
      <trkpt lat="49.84583" lon="2.23654">
        <ele>38.4</ele>
        <time>2023-02-25T13:16:48Z</time>
      </trkpt>
      <trkpt lat="49.84583" lon="2.23658">
        <ele>38.4</ele>
        <time>2023-02-25T13:16:49Z</time>
      </trkpt>
      <trkpt lat="49.84583" lon="2.2366">
        <ele>38.4</ele>
        <time>2023-02-25T13:16:51Z</time>
      </trkpt>
      <trkpt lat="49.84583" lon="2.23661">
        <ele>38.4</ele>
        <time>2023-02-25T13:16:52Z</time>
      </trkpt>
      <trkpt lat="49.84584" lon="2.23663">
        <ele>38.4</ele>
        <time>2023-02-25T13:16:53Z</time>
      </trkpt>
      <trkpt lat="49.84584" lon="2.23664">
        <ele>38.4</ele>
        <time>2023-02-25T13:16:54Z</time>
      </trkpt>
      <trkpt lat="49.84584" lon="2.23668">
        <ele>38.5</ele>
        <time>2023-02-25T13:16:55Z</time>
      </trkpt>
      <trkpt lat="49.84584" lon="2.23669">
        <ele>38.5</ele>
        <time>2023-02-25T13:16:56Z</time>
      </trkpt>
      <trkpt lat="49.84583" lon="2.2367">
        <ele>38.5</ele>
        <time>2023-02-25T13:16:57Z</time>
      </trkpt>
      <trkpt lat="49.84583" lon="2.23672">
        <ele>38.5</ele>
        <time>2023-02-25T13:16:59Z</time>
      </trkpt>
      <trkpt lat="49.84583" lon="2.23674">
        <ele>38.5</ele>
        <time>2023-02-25T13:17:00Z</time>
      </trkpt>
      <trkpt lat="49.84584" lon="2.23676">
        <ele>38.5</ele>
        <time>2023-02-25T13:17:01Z</time>
      </trkpt>
      <trkpt lat="49.84584" lon="2.23678">
        <ele>38.5</ele>
        <time>2023-02-25T13:17:02Z</time>
      </trkpt>
      <trkpt lat="49.84584" lon="2.23679">
        <ele>38.5</ele>
        <time>2023-02-25T13:17:03Z</time>
      </trkpt>
      <trkpt lat="49.84584" lon="2.23681">
        <ele>38.5</ele>
        <time>2023-02-25T13:17:04Z</time>
      </trkpt>
      <trkpt lat="49.84584" lon="2.23683">
        <ele>38.5</ele>
        <time>2023-02-25T13:17:05Z</time>
      </trkpt>
      <trkpt lat="49.84583" lon="2.23685">
        <ele>38.5</ele>
        <time>2023-02-25T13:17:06Z</time>
      </trkpt>
      <trkpt lat="49.84583" lon="2.23686">
        <ele>38.5</ele>
        <time>2023-02-25T13:17:07Z</time>
      </trkpt>
      <trkpt lat="49.84583" lon="2.23687">
        <ele>38.5</ele>
        <time>2023-02-25T13:17:09Z</time>
      </trkpt>
      <trkpt lat="49.84583" lon="2.23689">
        <ele>38.5</ele>
        <time>2023-02-25T13:17:10Z</time>
      </trkpt>
      <trkpt lat="49.84583" lon="2.23691">
        <ele>38.5</ele>
        <time>2023-02-25T13:17:11Z</time>
      </trkpt>
      <trkpt lat="49.84583" lon="2.23694">
        <ele>38.5</ele>
        <time>2023-02-25T13:17:12Z</time>
      </trkpt>
      <trkpt lat="49.84584" lon="2.23695">
        <ele>38.6</ele>
        <time>2023-02-25T13:17:13Z</time>
      </trkpt>
      <trkpt lat="49.84584" lon="2.23697">
        <ele>38.6</ele>
        <time>2023-02-25T13:17:14Z</time>
      </trkpt>
      <trkpt lat="49.84584" lon="2.23699">
        <ele>38.6</ele>
        <time>2023-02-25T13:17:15Z</time>
      </trkpt>
      <trkpt lat="49.84584" lon="2.23701">
        <ele>38.6</ele>
        <time>2023-02-25T13:17:16Z</time>
      </trkpt>
      <trkpt lat="49.84584" lon="2.23705">
        <ele>38.6</ele>
        <time>2023-02-25T13:17:17Z</time>
      </trkpt>
      <trkpt lat="49.84584" lon="2.23706">
        <ele>38.6</ele>
        <time>2023-02-25T13:17:19Z</time>
      </trkpt>
      <trkpt lat="49.84585" lon="2.23708">
        <ele>38.6</ele>
        <time>2023-02-25T13:17:20Z</time>
      </trkpt>
      <trkpt lat="49.84585" lon="2.23711">
        <ele>38.6</ele>
        <time>2023-02-25T13:17:21Z</time>
      </trkpt>
      <trkpt lat="49.84585" lon="2.23712">
        <ele>38.6</ele>
        <time>2023-02-25T13:17:22Z</time>
      </trkpt>
      <trkpt lat="49.84585" lon="2.23714">
        <ele>38.6</ele>
        <time>2023-02-25T13:17:23Z</time>
      </trkpt>
      <trkpt lat="49.84585" lon="2.23716">
        <ele>38.6</ele>
        <time>2023-02-25T13:17:24Z</time>
      </trkpt>
      <trkpt lat="49.84586" lon="2.23718">
        <ele>38.6</ele>
        <time>2023-02-25T13:17:25Z</time>
      </trkpt>
      <trkpt lat="49.84585" lon="2.23722">
        <ele>38.6</ele>
        <time>2023-02-25T13:17:26Z</time>
      </trkpt>
      <trkpt lat="49.84585" lon="2.23723">
        <ele>38.7</ele>
        <time>2023-02-25T13:17:28Z</time>
      </trkpt>
      <trkpt lat="49.84585" lon="2.23725">
        <ele>38.7</ele>
        <time>2023-02-25T13:17:29Z</time>
      </trkpt>
      <trkpt lat="49.84585" lon="2.23727">
        <ele>38.7</ele>
        <time>2023-02-25T13:17:30Z</time>
      </trkpt>
      <trkpt lat="49.84585" lon="2.23729">
        <ele>38.7</ele>
        <time>2023-02-25T13:17:31Z</time>
      </trkpt>
      <trkpt lat="49.84585" lon="2.23731">
        <ele>38.7</ele>
        <time>2023-02-25T13:17:32Z</time>
      </trkpt>
      <trkpt lat="49.84585" lon="2.23736">
        <ele>38.7</ele>
        <time>2023-02-25T13:17:34Z</time>
      </trkpt>
      <trkpt lat="49.84585" lon="2.23739">
        <ele>38.7</ele>
        <time>2023-02-25T13:17:36Z</time>
      </trkpt>
      <trkpt lat="49.84584" lon="2.2374">
        <ele>38.7</ele>
        <time>2023-02-25T13:17:37Z</time>
      </trkpt>
      <trkpt lat="49.84584" lon="2.23742">
        <ele>38.7</ele>
        <time>2023-02-25T13:17:38Z</time>
      </trkpt>
      <trkpt lat="49.84584" lon="2.23744">
        <ele>38.8</ele>
        <time>2023-02-25T13:17:39Z</time>
      </trkpt>
      <trkpt lat="49.84584" lon="2.23746">
        <ele>38.8</ele>
        <time>2023-02-25T13:17:40Z</time>
      </trkpt>
      <trkpt lat="49.84584" lon="2.23748">
        <ele>38.8</ele>
        <time>2023-02-25T13:17:42Z</time>
      </trkpt>
      <trkpt lat="49.84584" lon="2.2375">
        <ele>38.8</ele>
        <time>2023-02-25T13:17:43Z</time>
      </trkpt>
      <trkpt lat="49.84583" lon="2.23751">
        <ele>38.8</ele>
        <time>2023-02-25T13:17:44Z</time>
      </trkpt>
      <trkpt lat="49.84583" lon="2.23754">
        <ele>38.8</ele>
        <time>2023-02-25T13:17:45Z</time>
      </trkpt>
      <trkpt lat="49.84583" lon="2.23756">
        <ele>38.8</ele>
        <time>2023-02-25T13:17:46Z</time>
      </trkpt>
      <trkpt lat="49.84583" lon="2.23758">
        <ele>38.9</ele>
        <time>2023-02-25T13:17:47Z</time>
      </trkpt>
      <trkpt lat="49.84582" lon="2.23759">
        <ele>38.9</ele>
        <time>2023-02-25T13:17:48Z</time>
      </trkpt>
      <trkpt lat="49.84582" lon="2.23762">
        <ele>38.9</ele>
        <time>2023-02-25T13:17:50Z</time>
      </trkpt>
      <trkpt lat="49.84582" lon="2.23763">
        <ele>38.9</ele>
        <time>2023-02-25T13:17:51Z</time>
      </trkpt>
      <trkpt lat="49.84581" lon="2.23765">
        <ele>38.9</ele>
        <time>2023-02-25T13:17:52Z</time>
      </trkpt>
      <trkpt lat="49.84581" lon="2.23767">
        <ele>38.9</ele>
        <time>2023-02-25T13:17:53Z</time>
      </trkpt>
      <trkpt lat="49.84581" lon="2.2377">
        <ele>39</ele>
        <time>2023-02-25T13:17:54Z</time>
      </trkpt>
      <trkpt lat="49.84581" lon="2.23771">
        <ele>39</ele>
        <time>2023-02-25T13:17:55Z</time>
      </trkpt>
      <trkpt lat="49.8458" lon="2.23772">
        <ele>39</ele>
        <time>2023-02-25T13:17:56Z</time>
      </trkpt>
      <trkpt lat="49.8458" lon="2.23775">
        <ele>39</ele>
        <time>2023-02-25T13:17:58Z</time>
      </trkpt>
      <trkpt lat="49.8458" lon="2.23777">
        <ele>39</ele>
        <time>2023-02-25T13:17:59Z</time>
      </trkpt>
      <trkpt lat="49.8458" lon="2.23778">
        <ele>39</ele>
        <time>2023-02-25T13:18:00Z</time>
      </trkpt>
      <trkpt lat="49.8458" lon="2.23779">
        <ele>39</ele>
        <time>2023-02-25T13:18:01Z</time>
      </trkpt>
      <trkpt lat="49.8458" lon="2.23781">
        <ele>39</ele>
        <time>2023-02-25T13:18:02Z</time>
      </trkpt>
      <trkpt lat="49.8458" lon="2.23783">
        <ele>39.1</ele>
        <time>2023-02-25T13:18:03Z</time>
      </trkpt>
      <trkpt lat="49.84579" lon="2.23785">
        <ele>39.1</ele>
        <time>2023-02-25T13:18:04Z</time>
      </trkpt>
      <trkpt lat="49.84579" lon="2.23787">
        <ele>39.1</ele>
        <time>2023-02-25T13:18:05Z</time>
      </trkpt>
      <trkpt lat="49.84579" lon="2.23789">
        <ele>39.1</ele>
        <time>2023-02-25T13:18:07Z</time>
      </trkpt>
      <trkpt lat="49.84579" lon="2.23791">
        <ele>39.1</ele>
        <time>2023-02-25T13:18:08Z</time>
      </trkpt>
      <trkpt lat="49.84579" lon="2.23793">
        <ele>39.1</ele>
        <time>2023-02-25T13:18:09Z</time>
      </trkpt>
      <trkpt lat="49.84579" lon="2.23795">
        <ele>39.2</ele>
        <time>2023-02-25T13:18:10Z</time>
      </trkpt>
      <trkpt lat="49.84579" lon="2.23797">
        <ele>39.2</ele>
        <time>2023-02-25T13:18:11Z</time>
      </trkpt>
      <trkpt lat="49.84579" lon="2.23798">
        <ele>39.2</ele>
        <time>2023-02-25T13:18:12Z</time>
      </trkpt>
      <trkpt lat="49.84579" lon="2.23801">
        <ele>39.2</ele>
        <time>2023-02-25T13:18:13Z</time>
      </trkpt>
      <trkpt lat="49.84579" lon="2.23802">
        <ele>39.2</ele>
        <time>2023-02-25T13:18:15Z</time>
      </trkpt>
      <trkpt lat="49.84579" lon="2.23804">
        <ele>39.2</ele>
        <time>2023-02-25T13:18:16Z</time>
      </trkpt>
      <trkpt lat="49.84579" lon="2.23805">
        <ele>39.2</ele>
        <time>2023-02-25T13:18:17Z</time>
      </trkpt>
      <trkpt lat="49.84579" lon="2.23807">
        <ele>39.3</ele>
        <time>2023-02-25T13:18:18Z</time>
      </trkpt>
      <trkpt lat="49.84579" lon="2.23809">
        <ele>39.3</ele>
        <time>2023-02-25T13:18:19Z</time>
      </trkpt>
      <trkpt lat="49.84579" lon="2.23812">
        <ele>39.3</ele>
        <time>2023-02-25T13:18:20Z</time>
      </trkpt>
      <trkpt lat="49.84579" lon="2.23813">
        <ele>39.3</ele>
        <time>2023-02-25T13:18:21Z</time>
      </trkpt>
      <trkpt lat="49.84578" lon="2.23816">
        <ele>39.3</ele>
        <time>2023-02-25T13:18:22Z</time>
      </trkpt>
      <trkpt lat="49.84578" lon="2.23818">
        <ele>39.4</ele>
        <time>2023-02-25T13:18:24Z</time>
      </trkpt>
      <trkpt lat="49.84578" lon="2.23819">
        <ele>39.4</ele>
        <time>2023-02-25T13:18:25Z</time>
      </trkpt>
      <trkpt lat="49.84578" lon="2.23821">
        <ele>39.4</ele>
        <time>2023-02-25T13:18:26Z</time>
      </trkpt>
      <trkpt lat="49.84578" lon="2.23822">
        <ele>39.4</ele>
        <time>2023-02-25T13:18:27Z</time>
      </trkpt>
      <trkpt lat="49.84578" lon="2.23824">
        <ele>39.4</ele>
        <time>2023-02-25T13:18:28Z</time>
      </trkpt>
      <trkpt lat="49.84577" lon="2.23825">
        <ele>39.4</ele>
        <time>2023-02-25T13:18:29Z</time>
      </trkpt>
      <trkpt lat="49.84577" lon="2.23828">
        <ele>39.4</ele>
        <time>2023-02-25T13:18:30Z</time>
      </trkpt>
      <trkpt lat="49.84577" lon="2.23829">
        <ele>39.5</ele>
        <time>2023-02-25T13:18:32Z</time>
      </trkpt>
      <trkpt lat="49.84576" lon="2.2383">
        <ele>39.5</ele>
        <time>2023-02-25T13:18:33Z</time>
      </trkpt>
      <trkpt lat="49.84576" lon="2.23832">
        <ele>39.5</ele>
        <time>2023-02-25T13:18:34Z</time>
      </trkpt>
      <trkpt lat="49.84576" lon="2.23835">
        <ele>39.5</ele>
        <time>2023-02-25T13:18:35Z</time>
      </trkpt>
      <trkpt lat="49.84575" lon="2.23836">
        <ele>39.5</ele>
        <time>2023-02-25T13:18:36Z</time>
      </trkpt>
      <trkpt lat="49.84575" lon="2.23838">
        <ele>39.5</ele>
        <time>2023-02-25T13:18:37Z</time>
      </trkpt>
      <trkpt lat="49.84575" lon="2.23839">
        <ele>39.5</ele>
        <time>2023-02-25T13:18:39Z</time>
      </trkpt>
      <trkpt lat="49.84574" lon="2.23841">
        <ele>39.5</ele>
        <time>2023-02-25T13:18:40Z</time>
      </trkpt>
      <trkpt lat="49.84574" lon="2.23843">
        <ele>39.5</ele>
        <time>2023-02-25T13:18:41Z</time>
      </trkpt>
      <trkpt lat="49.84573" lon="2.23846">
        <ele>39.5</ele>
        <time>2023-02-25T13:18:42Z</time>
      </trkpt>
      <trkpt lat="49.84573" lon="2.23848">
        <ele>39.5</ele>
        <time>2023-02-25T13:18:43Z</time>
      </trkpt>
      <trkpt lat="49.84573" lon="2.23849">
        <ele>39.5</ele>
        <time>2023-02-25T13:18:45Z</time>
      </trkpt>
      <trkpt lat="49.84572" lon="2.23851">
        <ele>39.5</ele>
        <time>2023-02-25T13:18:47Z</time>
      </trkpt>
      <trkpt lat="49.84572" lon="2.23852">
        <ele>39.6</ele>
        <time>2023-02-25T13:18:48Z</time>
      </trkpt>
      <trkpt lat="49.84571" lon="2.23854">
        <ele>39.6</ele>
        <time>2023-02-25T13:18:49Z</time>
      </trkpt>
      <trkpt lat="49.8457" lon="2.23856">
        <ele>39.6</ele>
        <time>2023-02-25T13:18:51Z</time>
      </trkpt>
      <trkpt lat="49.8457" lon="2.23857">
        <ele>39.6</ele>
        <time>2023-02-25T13:18:52Z</time>
      </trkpt>
      <trkpt lat="49.84569" lon="2.2386">
        <ele>39.6</ele>
        <time>2023-02-25T13:18:53Z</time>
      </trkpt>
      <trkpt lat="49.84569" lon="2.23861">
        <ele>39.6</ele>
        <time>2023-02-25T13:18:54Z</time>
      </trkpt>
      <trkpt lat="49.84569" lon="2.23863">
        <ele>39.6</ele>
        <time>2023-02-25T13:18:55Z</time>
      </trkpt>
      <trkpt lat="49.84568" lon="2.23864">
        <ele>39.6</ele>
        <time>2023-02-25T13:18:56Z</time>
      </trkpt>
      <trkpt lat="49.84568" lon="2.23865">
        <ele>39.6</ele>
        <time>2023-02-25T13:18:58Z</time>
      </trkpt>
      <trkpt lat="49.84567" lon="2.23867">
        <ele>39.6</ele>
        <time>2023-02-25T13:18:59Z</time>
      </trkpt>
      <trkpt lat="49.84566" lon="2.2387">
        <ele>39.6</ele>
        <time>2023-02-25T13:19:00Z</time>
      </trkpt>
      <trkpt lat="49.84566" lon="2.23871">
        <ele>39.5</ele>
        <time>2023-02-25T13:19:01Z</time>
      </trkpt>
      <trkpt lat="49.84565" lon="2.23873">
        <ele>39.5</ele>
        <time>2023-02-25T13:19:02Z</time>
      </trkpt>
      <trkpt lat="49.84564" lon="2.23875">
        <ele>39.5</ele>
        <time>2023-02-25T13:19:03Z</time>
      </trkpt>
      <trkpt lat="49.84564" lon="2.23876">
        <ele>39.5</ele>
        <time>2023-02-25T13:19:04Z</time>
      </trkpt>
      <trkpt lat="49.84562" lon="2.2388">
        <ele>39.5</ele>
        <time>2023-02-25T13:19:05Z</time>
      </trkpt>
      <trkpt lat="49.84562" lon="2.23881">
        <ele>39.5</ele>
        <time>2023-02-25T13:19:07Z</time>
      </trkpt>
      <trkpt lat="49.84561" lon="2.23883">
        <ele>39.5</ele>
        <time>2023-02-25T13:19:08Z</time>
      </trkpt>
      <trkpt lat="49.84561" lon="2.23884">
        <ele>39.5</ele>
        <time>2023-02-25T13:19:09Z</time>
      </trkpt>
      <trkpt lat="49.8456" lon="2.23885">
        <ele>39.5</ele>
        <time>2023-02-25T13:19:10Z</time>
      </trkpt>
      <trkpt lat="49.84559" lon="2.23887">
        <ele>39.5</ele>
        <time>2023-02-25T13:19:11Z</time>
      </trkpt>
      <trkpt lat="49.84559" lon="2.23888">
        <ele>39.5</ele>
        <time>2023-02-25T13:19:12Z</time>
      </trkpt>
      <trkpt lat="49.84558" lon="2.2389">
        <ele>39.5</ele>
        <time>2023-02-25T13:19:13Z</time>
      </trkpt>
      <trkpt lat="49.84558" lon="2.23892">
        <ele>39.5</ele>
        <time>2023-02-25T13:19:14Z</time>
      </trkpt>
      <trkpt lat="49.84557" lon="2.23894">
        <ele>39.5</ele>
        <time>2023-02-25T13:19:16Z</time>
      </trkpt>
      <trkpt lat="49.84556" lon="2.23895">
        <ele>39.5</ele>
        <time>2023-02-25T13:19:17Z</time>
      </trkpt>
      <trkpt lat="49.84555" lon="2.23896">
        <ele>39.5</ele>
        <time>2023-02-25T13:19:18Z</time>
      </trkpt>
      <trkpt lat="49.84555" lon="2.23897">
        <ele>39.5</ele>
        <time>2023-02-25T13:19:19Z</time>
      </trkpt>
      <trkpt lat="49.84554" lon="2.23899">
        <ele>39.5</ele>
        <time>2023-02-25T13:19:20Z</time>
      </trkpt>
      <trkpt lat="49.84553" lon="2.239">
        <ele>39.5</ele>
        <time>2023-02-25T13:19:21Z</time>
      </trkpt>
      <trkpt lat="49.84553" lon="2.23902">
        <ele>39.5</ele>
        <time>2023-02-25T13:19:22Z</time>
      </trkpt>
      <trkpt lat="49.84552" lon="2.23903">
        <ele>39.5</ele>
        <time>2023-02-25T13:19:24Z</time>
      </trkpt>
      <trkpt lat="49.84551" lon="2.23904">
        <ele>39.4</ele>
        <time>2023-02-25T13:19:25Z</time>
      </trkpt>
      <trkpt lat="49.8455" lon="2.23905">
        <ele>39.4</ele>
        <time>2023-02-25T13:19:26Z</time>
      </trkpt>
      <trkpt lat="49.84549" lon="2.23907">
        <ele>39.4</ele>
        <time>2023-02-25T13:19:27Z</time>
      </trkpt>
      <trkpt lat="49.84548" lon="2.23908">
        <ele>39.4</ele>
        <time>2023-02-25T13:19:28Z</time>
      </trkpt>
      <trkpt lat="49.84548" lon="2.23908">
        <ele>39.4</ele>
        <time>2023-02-25T13:19:30Z</time>
      </trkpt>
      <trkpt lat="49.84547" lon="2.23909">
        <ele>39.4</ele>
        <time>2023-02-25T13:19:31Z</time>
      </trkpt>
      <trkpt lat="49.84547" lon="2.23909">
        <ele>39.4</ele>
        <time>2023-02-25T13:19:32Z</time>
      </trkpt>
      <trkpt lat="49.84546" lon="2.2391">
        <ele>39.4</ele>
        <time>2023-02-25T13:19:33Z</time>
      </trkpt>
      <trkpt lat="49.84545" lon="2.23911">
        <ele>39.4</ele>
        <time>2023-02-25T13:19:34Z</time>
      </trkpt>
      <trkpt lat="49.84544" lon="2.23912">
        <ele>39.4</ele>
        <time>2023-02-25T13:19:35Z</time>
      </trkpt>
      <trkpt lat="49.84544" lon="2.23913">
        <ele>39.4</ele>
        <time>2023-02-25T13:19:36Z</time>
      </trkpt>
      <trkpt lat="49.84543" lon="2.23914">
        <ele>39.4</ele>
        <time>2023-02-25T13:19:37Z</time>
      </trkpt>
      <trkpt lat="49.84542" lon="2.23915">
        <ele>39.4</ele>
        <time>2023-02-25T13:19:39Z</time>
      </trkpt>
      <trkpt lat="49.84541" lon="2.23916">
        <ele>39.4</ele>
        <time>2023-02-25T13:19:40Z</time>
      </trkpt>
      <trkpt lat="49.8454" lon="2.23917">
        <ele>39.4</ele>
        <time>2023-02-25T13:19:41Z</time>
      </trkpt>
      <trkpt lat="49.84539" lon="2.23919">
        <ele>39.4</ele>
        <time>2023-02-25T13:19:42Z</time>
      </trkpt>
      <trkpt lat="49.84538" lon="2.2392">
        <ele>39.4</ele>
        <time>2023-02-25T13:19:43Z</time>
      </trkpt>
      <trkpt lat="49.84537" lon="2.23921">
        <ele>39.4</ele>
        <time>2023-02-25T13:19:45Z</time>
      </trkpt>
      <trkpt lat="49.84536" lon="2.23923">
        <ele>39.4</ele>
        <time>2023-02-25T13:19:46Z</time>
      </trkpt>
      <trkpt lat="49.84536" lon="2.23924">
        <ele>39.4</ele>
        <time>2023-02-25T13:19:48Z</time>
      </trkpt>
      <trkpt lat="49.84535" lon="2.23925">
        <ele>39.4</ele>
        <time>2023-02-25T13:19:49Z</time>
      </trkpt>
      <trkpt lat="49.84534" lon="2.23926">
        <ele>39.4</ele>
        <time>2023-02-25T13:19:50Z</time>
      </trkpt>
      <trkpt lat="49.84533" lon="2.23927">
        <ele>39.4</ele>
        <time>2023-02-25T13:19:51Z</time>
      </trkpt>
      <trkpt lat="49.84533" lon="2.23928">
        <ele>39.4</ele>
        <time>2023-02-25T13:19:52Z</time>
      </trkpt>
      <trkpt lat="49.84532" lon="2.2393">
        <ele>39.4</ele>
        <time>2023-02-25T13:19:53Z</time>
      </trkpt>
      <trkpt lat="49.84531" lon="2.23931">
        <ele>39.4</ele>
        <time>2023-02-25T13:19:54Z</time>
      </trkpt>
      <trkpt lat="49.8453" lon="2.23933">
        <ele>39.4</ele>
        <time>2023-02-25T13:19:56Z</time>
      </trkpt>
      <trkpt lat="49.84529" lon="2.23934">
        <ele>39.4</ele>
        <time>2023-02-25T13:19:57Z</time>
      </trkpt>
      <trkpt lat="49.84529" lon="2.23935">
        <ele>39.4</ele>
        <time>2023-02-25T13:19:58Z</time>
      </trkpt>
      <trkpt lat="49.84527" lon="2.23938">
        <ele>39.4</ele>
        <time>2023-02-25T13:19:59Z</time>
      </trkpt>
      <trkpt lat="49.84527" lon="2.23939">
        <ele>39.4</ele>
        <time>2023-02-25T13:20:00Z</time>
      </trkpt>
      <trkpt lat="49.84526" lon="2.2394">
        <ele>39.4</ele>
        <time>2023-02-25T13:20:01Z</time>
      </trkpt>
      <trkpt lat="49.84525" lon="2.23941">
        <ele>39.4</ele>
        <time>2023-02-25T13:20:02Z</time>
      </trkpt>
      <trkpt lat="49.84524" lon="2.23943">
        <ele>39.4</ele>
        <time>2023-02-25T13:20:03Z</time>
      </trkpt>
      <trkpt lat="49.84523" lon="2.23944">
        <ele>39.5</ele>
        <time>2023-02-25T13:20:05Z</time>
      </trkpt>
      <trkpt lat="49.84522" lon="2.23946">
        <ele>39.5</ele>
        <time>2023-02-25T13:20:06Z</time>
      </trkpt>
      <trkpt lat="49.84521" lon="2.23947">
        <ele>39.5</ele>
        <time>2023-02-25T13:20:07Z</time>
      </trkpt>
      <trkpt lat="49.8452" lon="2.23948">
        <ele>39.5</ele>
        <time>2023-02-25T13:20:08Z</time>
      </trkpt>
      <trkpt lat="49.84519" lon="2.2395">
        <ele>39.5</ele>
        <time>2023-02-25T13:20:09Z</time>
      </trkpt>
      <trkpt lat="49.84519" lon="2.23951">
        <ele>39.5</ele>
        <time>2023-02-25T13:20:10Z</time>
      </trkpt>
      <trkpt lat="49.84518" lon="2.23953">
        <ele>39.5</ele>
        <time>2023-02-25T13:20:11Z</time>
      </trkpt>
      <trkpt lat="49.84517" lon="2.23954">
        <ele>39.5</ele>
        <time>2023-02-25T13:20:13Z</time>
      </trkpt>
      <trkpt lat="49.84516" lon="2.23955">
        <ele>39.5</ele>
        <time>2023-02-25T13:20:14Z</time>
      </trkpt>
      <trkpt lat="49.84515" lon="2.23956">
        <ele>39.5</ele>
        <time>2023-02-25T13:20:15Z</time>
      </trkpt>
      <trkpt lat="49.84514" lon="2.23958">
        <ele>39.5</ele>
        <time>2023-02-25T13:20:16Z</time>
      </trkpt>
      <trkpt lat="49.84513" lon="2.23959">
        <ele>39.5</ele>
        <time>2023-02-25T13:20:17Z</time>
      </trkpt>
      <trkpt lat="49.84513" lon="2.2396">
        <ele>39.5</ele>
        <time>2023-02-25T13:20:18Z</time>
      </trkpt>
      <trkpt lat="49.84512" lon="2.23962">
        <ele>39.5</ele>
        <time>2023-02-25T13:20:19Z</time>
      </trkpt>
      <trkpt lat="49.8451" lon="2.23964">
        <ele>39.5</ele>
        <time>2023-02-25T13:20:20Z</time>
      </trkpt>
      <trkpt lat="49.84509" lon="2.23965">
        <ele>39.5</ele>
        <time>2023-02-25T13:20:21Z</time>
      </trkpt>
      <trkpt lat="49.84509" lon="2.23966">
        <ele>39.5</ele>
        <time>2023-02-25T13:20:23Z</time>
      </trkpt>
      <trkpt lat="49.84508" lon="2.23967">
        <ele>39.5</ele>
        <time>2023-02-25T13:20:24Z</time>
      </trkpt>
      <trkpt lat="49.84507" lon="2.23968">
        <ele>39.5</ele>
        <time>2023-02-25T13:20:25Z</time>
      </trkpt>
      <trkpt lat="49.84507" lon="2.23969">
        <ele>39.5</ele>
        <time>2023-02-25T13:20:26Z</time>
      </trkpt>
      <trkpt lat="49.84506" lon="2.2397">
        <ele>39.5</ele>
        <time>2023-02-25T13:20:27Z</time>
      </trkpt>
      <trkpt lat="49.84505" lon="2.23971">
        <ele>39.5</ele>
        <time>2023-02-25T13:20:28Z</time>
      </trkpt>
      <trkpt lat="49.84504" lon="2.23972">
        <ele>39.5</ele>
        <time>2023-02-25T13:20:29Z</time>
      </trkpt>
      <trkpt lat="49.84503" lon="2.23973">
        <ele>39.5</ele>
        <time>2023-02-25T13:20:31Z</time>
      </trkpt>
      <trkpt lat="49.84502" lon="2.23974">
        <ele>39.5</ele>
        <time>2023-02-25T13:20:32Z</time>
      </trkpt>
      <trkpt lat="49.84501" lon="2.23975">
        <ele>39.5</ele>
        <time>2023-02-25T13:20:33Z</time>
      </trkpt>
      <trkpt lat="49.84501" lon="2.23976">
        <ele>39.5</ele>
        <time>2023-02-25T13:20:34Z</time>
      </trkpt>
      <trkpt lat="49.845" lon="2.23978">
        <ele>39.5</ele>
        <time>2023-02-25T13:20:35Z</time>
      </trkpt>
      <trkpt lat="49.84499" lon="2.23979">
        <ele>39.5</ele>
        <time>2023-02-25T13:20:37Z</time>
      </trkpt>
      <trkpt lat="49.84499" lon="2.2398">
        <ele>39.5</ele>
        <time>2023-02-25T13:20:38Z</time>
      </trkpt>
      <trkpt lat="49.84498" lon="2.23981">
        <ele>39.5</ele>
        <time>2023-02-25T13:20:39Z</time>
      </trkpt>
      <trkpt lat="49.84497" lon="2.23982">
        <ele>39.6</ele>
        <time>2023-02-25T13:20:40Z</time>
      </trkpt>
      <trkpt lat="49.84496" lon="2.23983">
        <ele>39.6</ele>
        <time>2023-02-25T13:20:41Z</time>
      </trkpt>
      <trkpt lat="49.84495" lon="2.23984">
        <ele>39.6</ele>
        <time>2023-02-25T13:20:42Z</time>
      </trkpt>
      <trkpt lat="49.84495" lon="2.23985">
        <ele>39.6</ele>
        <time>2023-02-25T13:20:43Z</time>
      </trkpt>
      <trkpt lat="49.84494" lon="2.23986">
        <ele>39.6</ele>
        <time>2023-02-25T13:20:44Z</time>
      </trkpt>
      <trkpt lat="49.84493" lon="2.23987">
        <ele>39.6</ele>
        <time>2023-02-25T13:20:46Z</time>
      </trkpt>
      <trkpt lat="49.84493" lon="2.23987">
        <ele>39.6</ele>
        <time>2023-02-25T13:20:47Z</time>
      </trkpt>
      <trkpt lat="49.84492" lon="2.23988">
        <ele>39.6</ele>
        <time>2023-02-25T13:20:48Z</time>
      </trkpt>
      <trkpt lat="49.84492" lon="2.23989">
        <ele>39.6</ele>
        <time>2023-02-25T13:20:49Z</time>
      </trkpt>
      <trkpt lat="49.84491" lon="2.2399">
        <ele>39.6</ele>
        <time>2023-02-25T13:20:50Z</time>
      </trkpt>
      <trkpt lat="49.8449" lon="2.23991">
        <ele>39.6</ele>
        <time>2023-02-25T13:20:51Z</time>
      </trkpt>
      <trkpt lat="49.8449" lon="2.23991">
        <ele>39.6</ele>
        <time>2023-02-25T13:20:53Z</time>
      </trkpt>
      <trkpt lat="49.84489" lon="2.23992">
        <ele>39.6</ele>
        <time>2023-02-25T13:20:54Z</time>
      </trkpt>
      <trkpt lat="49.84489" lon="2.23992">
        <ele>39.6</ele>
        <time>2023-02-25T13:20:55Z</time>
      </trkpt>
      <trkpt lat="49.84487" lon="2.23993">
        <ele>39.6</ele>
        <time>2023-02-25T13:20:56Z</time>
      </trkpt>
      <trkpt lat="49.84487" lon="2.23994">
        <ele>39.6</ele>
        <time>2023-02-25T13:20:57Z</time>
      </trkpt>
      <trkpt lat="49.84486" lon="2.23995">
        <ele>39.6</ele>
        <time>2023-02-25T13:20:58Z</time>
      </trkpt>
      <trkpt lat="49.84486" lon="2.23996">
        <ele>39.6</ele>
        <time>2023-02-25T13:20:59Z</time>
      </trkpt>
      <trkpt lat="49.84485" lon="2.23997">
        <ele>39.6</ele>
        <time>2023-02-25T13:21:01Z</time>
      </trkpt>
      <trkpt lat="49.84485" lon="2.23998">
        <ele>39.6</ele>
        <time>2023-02-25T13:21:02Z</time>
      </trkpt>
      <trkpt lat="49.84484" lon="2.23999">
        <ele>39.6</ele>
        <time>2023-02-25T13:21:03Z</time>
      </trkpt>
      <trkpt lat="49.84484" lon="2.24">
        <ele>39.6</ele>
        <time>2023-02-25T13:21:04Z</time>
      </trkpt>
      <trkpt lat="49.84484" lon="2.24001">
        <ele>39.6</ele>
        <time>2023-02-25T13:21:05Z</time>
      </trkpt>
      <trkpt lat="49.84483" lon="2.24002">
        <ele>39.6</ele>
        <time>2023-02-25T13:21:06Z</time>
      </trkpt>
      <trkpt lat="49.84483" lon="2.24003">
        <ele>39.7</ele>
        <time>2023-02-25T13:21:08Z</time>
      </trkpt>
      <trkpt lat="49.84483" lon="2.24005">
        <ele>39.7</ele>
        <time>2023-02-25T13:21:09Z</time>
      </trkpt>
      <trkpt lat="49.84482" lon="2.24006">
        <ele>39.7</ele>
        <time>2023-02-25T13:21:10Z</time>
      </trkpt>
      <trkpt lat="49.84481" lon="2.24008">
        <ele>39.7</ele>
        <time>2023-02-25T13:21:11Z</time>
      </trkpt>
      <trkpt lat="49.8448" lon="2.24009">
        <ele>39.7</ele>
        <time>2023-02-25T13:21:12Z</time>
      </trkpt>
      <trkpt lat="49.8448" lon="2.2401">
        <ele>39.7</ele>
        <time>2023-02-25T13:21:13Z</time>
      </trkpt>
      <trkpt lat="49.84479" lon="2.24011">
        <ele>39.7</ele>
        <time>2023-02-25T13:21:15Z</time>
      </trkpt>
      <trkpt lat="49.84478" lon="2.24012">
        <ele>39.7</ele>
        <time>2023-02-25T13:21:16Z</time>
      </trkpt>
      <trkpt lat="49.84478" lon="2.24013">
        <ele>39.7</ele>
        <time>2023-02-25T13:21:17Z</time>
      </trkpt>
      <trkpt lat="49.84477" lon="2.24014">
        <ele>39.7</ele>
        <time>2023-02-25T13:21:18Z</time>
      </trkpt>
      <trkpt lat="49.84476" lon="2.24015">
        <ele>39.7</ele>
        <time>2023-02-25T13:21:19Z</time>
      </trkpt>
      <trkpt lat="49.84476" lon="2.24016">
        <ele>39.7</ele>
        <time>2023-02-25T13:21:20Z</time>
      </trkpt>
      <trkpt lat="49.84475" lon="2.24017">
        <ele>39.7</ele>
        <time>2023-02-25T13:21:22Z</time>
      </trkpt>
      <trkpt lat="49.84474" lon="2.24018">
        <ele>39.7</ele>
        <time>2023-02-25T13:21:23Z</time>
      </trkpt>
      <trkpt lat="49.84473" lon="2.2402">
        <ele>39.7</ele>
        <time>2023-02-25T13:21:24Z</time>
      </trkpt>
      <trkpt lat="49.84472" lon="2.24021">
        <ele>39.7</ele>
        <time>2023-02-25T13:21:25Z</time>
      </trkpt>
      <trkpt lat="49.84471" lon="2.24022">
        <ele>39.7</ele>
        <time>2023-02-25T13:21:26Z</time>
      </trkpt>
      <trkpt lat="49.8447" lon="2.24024">
        <ele>39.7</ele>
        <time>2023-02-25T13:21:27Z</time>
      </trkpt>
      <trkpt lat="49.84469" lon="2.24025">
        <ele>39.8</ele>
        <time>2023-02-25T13:21:29Z</time>
      </trkpt>
      <trkpt lat="49.84468" lon="2.24026">
        <ele>39.8</ele>
        <time>2023-02-25T13:21:30Z</time>
      </trkpt>
      <trkpt lat="49.84467" lon="2.24028">
        <ele>39.8</ele>
        <time>2023-02-25T13:21:31Z</time>
      </trkpt>
      <trkpt lat="49.84466" lon="2.24029">
        <ele>39.8</ele>
        <time>2023-02-25T13:21:32Z</time>
      </trkpt>
      <trkpt lat="49.84464" lon="2.24031">
        <ele>39.8</ele>
        <time>2023-02-25T13:21:33Z</time>
      </trkpt>
      <trkpt lat="49.84464" lon="2.24032">
        <ele>39.8</ele>
        <time>2023-02-25T13:21:34Z</time>
      </trkpt>
      <trkpt lat="49.84463" lon="2.24033">
        <ele>39.8</ele>
        <time>2023-02-25T13:21:36Z</time>
      </trkpt>
      <trkpt lat="49.84462" lon="2.24034">
        <ele>39.8</ele>
        <time>2023-02-25T13:21:37Z</time>
      </trkpt>
      <trkpt lat="49.84461" lon="2.24035">
        <ele>39.8</ele>
        <time>2023-02-25T13:21:38Z</time>
      </trkpt>
      <trkpt lat="49.84461" lon="2.24036">
        <ele>39.8</ele>
        <time>2023-02-25T13:21:39Z</time>
      </trkpt>
      <trkpt lat="49.8446" lon="2.24037">
        <ele>39.8</ele>
        <time>2023-02-25T13:21:40Z</time>
      </trkpt>
      <trkpt lat="49.84459" lon="2.24039">
        <ele>39.8</ele>
        <time>2023-02-25T13:21:41Z</time>
      </trkpt>
      <trkpt lat="49.84458" lon="2.2404">
        <ele>39.8</ele>
        <time>2023-02-25T13:21:42Z</time>
      </trkpt>
      <trkpt lat="49.84457" lon="2.24041">
        <ele>39.9</ele>
        <time>2023-02-25T13:21:44Z</time>
      </trkpt>
      <trkpt lat="49.84456" lon="2.24043">
        <ele>39.9</ele>
        <time>2023-02-25T13:21:45Z</time>
      </trkpt>
      <trkpt lat="49.84455" lon="2.24045">
        <ele>39.9</ele>
        <time>2023-02-25T13:21:46Z</time>
      </trkpt>
      <trkpt lat="49.84454" lon="2.24046">
        <ele>39.9</ele>
        <time>2023-02-25T13:21:47Z</time>
      </trkpt>
      <trkpt lat="49.84453" lon="2.24048">
        <ele>39.9</ele>
        <time>2023-02-25T13:21:48Z</time>
      </trkpt>
      <trkpt lat="49.84452" lon="2.2405">
        <ele>39.9</ele>
        <time>2023-02-25T13:21:49Z</time>
      </trkpt>
      <trkpt lat="49.84449" lon="2.24053">
        <ele>39.9</ele>
        <time>2023-02-25T13:21:51Z</time>
      </trkpt>
      <trkpt lat="49.84448" lon="2.24054">
        <ele>40</ele>
        <time>2023-02-25T13:21:52Z</time>
      </trkpt>
      <trkpt lat="49.84447" lon="2.24056">
        <ele>40</ele>
        <time>2023-02-25T13:21:54Z</time>
      </trkpt>
      <trkpt lat="49.84446" lon="2.24058">
        <ele>40</ele>
        <time>2023-02-25T13:21:55Z</time>
      </trkpt>
      <trkpt lat="49.84444" lon="2.2406">
        <ele>40</ele>
        <time>2023-02-25T13:21:56Z</time>
      </trkpt>
      <trkpt lat="49.84443" lon="2.24061">
        <ele>40</ele>
        <time>2023-02-25T13:21:57Z</time>
      </trkpt>
      <trkpt lat="49.84442" lon="2.24063">
        <ele>40</ele>
        <time>2023-02-25T13:21:58Z</time>
      </trkpt>
      <trkpt lat="49.84441" lon="2.24064">
        <ele>40.1</ele>
        <time>2023-02-25T13:21:59Z</time>
      </trkpt>
      <trkpt lat="49.8444" lon="2.24066">
        <ele>40.1</ele>
        <time>2023-02-25T13:22:01Z</time>
      </trkpt>
      <trkpt lat="49.84438" lon="2.24068">
        <ele>40.1</ele>
        <time>2023-02-25T13:22:02Z</time>
      </trkpt>
      <trkpt lat="49.84437" lon="2.24069">
        <ele>40.1</ele>
        <time>2023-02-25T13:22:03Z</time>
      </trkpt>
      <trkpt lat="49.84436" lon="2.2407">
        <ele>40.1</ele>
        <time>2023-02-25T13:22:04Z</time>
      </trkpt>
      <trkpt lat="49.84434" lon="2.24071">
        <ele>40.2</ele>
        <time>2023-02-25T13:22:05Z</time>
      </trkpt>
      <trkpt lat="49.84433" lon="2.24073">
        <ele>40.2</ele>
        <time>2023-02-25T13:22:06Z</time>
      </trkpt>
      <trkpt lat="49.84432" lon="2.24074">
        <ele>40.2</ele>
        <time>2023-02-25T13:22:07Z</time>
      </trkpt>
      <trkpt lat="49.84431" lon="2.24075">
        <ele>40.2</ele>
        <time>2023-02-25T13:22:09Z</time>
      </trkpt>
      <trkpt lat="49.8443" lon="2.24076">
        <ele>40.2</ele>
        <time>2023-02-25T13:22:10Z</time>
      </trkpt>
      <trkpt lat="49.84428" lon="2.24078">
        <ele>40.2</ele>
        <time>2023-02-25T13:22:11Z</time>
      </trkpt>
      <trkpt lat="49.84428" lon="2.24078">
        <ele>40.2</ele>
        <time>2023-02-25T13:22:12Z</time>
      </trkpt>
      <trkpt lat="49.84427" lon="2.24079">
        <ele>40.3</ele>
        <time>2023-02-25T13:22:13Z</time>
      </trkpt>
      <trkpt lat="49.84425" lon="2.24081">
        <ele>40.3</ele>
        <time>2023-02-25T13:22:14Z</time>
      </trkpt>
      <trkpt lat="49.84425" lon="2.24082">
        <ele>40.3</ele>
        <time>2023-02-25T13:22:16Z</time>
      </trkpt>
      <trkpt lat="49.84424" lon="2.24083">
        <ele>40.3</ele>
        <time>2023-02-25T13:22:17Z</time>
      </trkpt>
      <trkpt lat="49.84422" lon="2.24085">
        <ele>40.3</ele>
        <time>2023-02-25T13:22:18Z</time>
      </trkpt>
      <trkpt lat="49.84422" lon="2.24085">
        <ele>40.3</ele>
        <time>2023-02-25T13:22:19Z</time>
      </trkpt>
      <trkpt lat="49.84421" lon="2.24086">
        <ele>40.3</ele>
        <time>2023-02-25T13:22:20Z</time>
      </trkpt>
      <trkpt lat="49.8442" lon="2.24088">
        <ele>40.3</ele>
        <time>2023-02-25T13:22:21Z</time>
      </trkpt>
      <trkpt lat="49.84419" lon="2.24089">
        <ele>40.4</ele>
        <time>2023-02-25T13:22:22Z</time>
      </trkpt>
      <trkpt lat="49.84418" lon="2.2409">
        <ele>40.4</ele>
        <time>2023-02-25T13:22:23Z</time>
      </trkpt>
      <trkpt lat="49.84417" lon="2.24091">
        <ele>40.4</ele>
        <time>2023-02-25T13:22:25Z</time>
      </trkpt>
      <trkpt lat="49.84416" lon="2.24092">
        <ele>40.4</ele>
        <time>2023-02-25T13:22:26Z</time>
      </trkpt>
      <trkpt lat="49.84414" lon="2.24095">
        <ele>40.4</ele>
        <time>2023-02-25T13:22:27Z</time>
      </trkpt>
      <trkpt lat="49.84414" lon="2.24095">
        <ele>40.4</ele>
        <time>2023-02-25T13:22:28Z</time>
      </trkpt>
      <trkpt lat="49.84413" lon="2.24096">
        <ele>40.4</ele>
        <time>2023-02-25T13:22:29Z</time>
      </trkpt>
      <trkpt lat="49.84412" lon="2.24097">
        <ele>40.4</ele>
        <time>2023-02-25T13:22:30Z</time>
      </trkpt>
      <trkpt lat="49.84411" lon="2.24099">
        <ele>40.5</ele>
        <time>2023-02-25T13:22:31Z</time>
      </trkpt>
      <trkpt lat="49.8441" lon="2.24099">
        <ele>40.5</ele>
        <time>2023-02-25T13:22:33Z</time>
      </trkpt>
      <trkpt lat="49.84409" lon="2.24098">
        <ele>40.5</ele>
        <time>2023-02-25T13:22:34Z</time>
      </trkpt>
      <trkpt lat="49.84409" lon="2.24096">
        <ele>40.5</ele>
        <time>2023-02-25T13:22:36Z</time>
      </trkpt>
      <trkpt lat="49.84408" lon="2.24096">
        <ele>40.5</ele>
        <time>2023-02-25T13:22:37Z</time>
      </trkpt>
      <trkpt lat="49.84407" lon="2.24097">
        <ele>40.5</ele>
        <time>2023-02-25T13:22:38Z</time>
      </trkpt>
      <trkpt lat="49.84406" lon="2.24099">
        <ele>40.5</ele>
        <time>2023-02-25T13:22:40Z</time>
      </trkpt>
      <trkpt lat="49.84405" lon="2.241">
        <ele>40.5</ele>
        <time>2023-02-25T13:22:41Z</time>
      </trkpt>
      <trkpt lat="49.84404" lon="2.24101">
        <ele>40.6</ele>
        <time>2023-02-25T13:22:42Z</time>
      </trkpt>
      <trkpt lat="49.84403" lon="2.24102">
        <ele>40.6</ele>
        <time>2023-02-25T13:22:44Z</time>
      </trkpt>
      <trkpt lat="49.84402" lon="2.24102">
        <ele>40.6</ele>
        <time>2023-02-25T13:22:46Z</time>
      </trkpt>
      <trkpt lat="49.84402" lon="2.24101">
        <ele>40.6</ele>
        <time>2023-02-25T13:22:47Z</time>
      </trkpt>
      <trkpt lat="49.84401" lon="2.24101">
        <ele>40.6</ele>
        <time>2023-02-25T13:22:48Z</time>
      </trkpt>
      <trkpt lat="49.844" lon="2.241">
        <ele>40.6</ele>
        <time>2023-02-25T13:22:49Z</time>
      </trkpt>
      <trkpt lat="49.844" lon="2.241">
        <ele>40.6</ele>
        <time>2023-02-25T13:22:51Z</time>
      </trkpt>
      <trkpt lat="49.84399" lon="2.241">
        <ele>40.6</ele>
        <time>2023-02-25T13:22:52Z</time>
      </trkpt>
      <trkpt lat="49.84398" lon="2.24101">
        <ele>40.6</ele>
        <time>2023-02-25T13:22:53Z</time>
      </trkpt>
      <trkpt lat="49.84397" lon="2.24103">
        <ele>40.7</ele>
        <time>2023-02-25T13:22:54Z</time>
      </trkpt>
      <trkpt lat="49.84397" lon="2.24104">
        <ele>40.7</ele>
        <time>2023-02-25T13:22:55Z</time>
      </trkpt>
      <trkpt lat="49.84396" lon="2.24106">
        <ele>40.7</ele>
        <time>2023-02-25T13:22:56Z</time>
      </trkpt>
      <trkpt lat="49.84395" lon="2.24107">
        <ele>40.7</ele>
        <time>2023-02-25T13:22:57Z</time>
      </trkpt>
      <trkpt lat="49.84394" lon="2.24108">
        <ele>40.7</ele>
        <time>2023-02-25T13:22:59Z</time>
      </trkpt>
      <trkpt lat="49.84394" lon="2.24109">
        <ele>40.7</ele>
        <time>2023-02-25T13:23:00Z</time>
      </trkpt>
      <trkpt lat="49.84393" lon="2.2411">
        <ele>40.8</ele>
        <time>2023-02-25T13:23:01Z</time>
      </trkpt>
      <trkpt lat="49.84392" lon="2.24111">
        <ele>40.8</ele>
        <time>2023-02-25T13:23:02Z</time>
      </trkpt>
      <trkpt lat="49.84391" lon="2.24112">
        <ele>40.8</ele>
        <time>2023-02-25T13:23:03Z</time>
      </trkpt>
      <trkpt lat="49.8439" lon="2.24112">
        <ele>40.8</ele>
        <time>2023-02-25T13:23:05Z</time>
      </trkpt>
      <trkpt lat="49.84389" lon="2.24112">
        <ele>40.8</ele>
        <time>2023-02-25T13:23:06Z</time>
      </trkpt>
      <trkpt lat="49.84388" lon="2.24113">
        <ele>40.8</ele>
        <time>2023-02-25T13:23:07Z</time>
      </trkpt>
      <trkpt lat="49.84387" lon="2.24114">
        <ele>40.8</ele>
        <time>2023-02-25T13:23:08Z</time>
      </trkpt>
      <trkpt lat="49.84387" lon="2.24115">
        <ele>40.9</ele>
        <time>2023-02-25T13:23:09Z</time>
      </trkpt>
      <trkpt lat="49.84386" lon="2.24116">
        <ele>40.9</ele>
        <time>2023-02-25T13:23:10Z</time>
      </trkpt>
      <trkpt lat="49.84384" lon="2.24117">
        <ele>40.9</ele>
        <time>2023-02-25T13:23:12Z</time>
      </trkpt>
      <trkpt lat="49.84384" lon="2.24118">
        <ele>40.9</ele>
        <time>2023-02-25T13:23:13Z</time>
      </trkpt>
      <trkpt lat="49.84383" lon="2.24119">
        <ele>40.9</ele>
        <time>2023-02-25T13:23:14Z</time>
      </trkpt>
      <trkpt lat="49.84382" lon="2.2412">
        <ele>41</ele>
        <time>2023-02-25T13:23:15Z</time>
      </trkpt>
      <trkpt lat="49.84381" lon="2.2412">
        <ele>41</ele>
        <time>2023-02-25T13:23:16Z</time>
      </trkpt>
      <trkpt lat="49.84379" lon="2.24121">
        <ele>41</ele>
        <time>2023-02-25T13:23:17Z</time>
      </trkpt>
      <trkpt lat="49.84379" lon="2.24122">
        <ele>41</ele>
        <time>2023-02-25T13:23:18Z</time>
      </trkpt>
      <trkpt lat="49.84378" lon="2.24123">
        <ele>41</ele>
        <time>2023-02-25T13:23:20Z</time>
      </trkpt>
      <trkpt lat="49.84377" lon="2.24124">
        <ele>41.1</ele>
        <time>2023-02-25T13:23:21Z</time>
      </trkpt>
      <trkpt lat="49.84376" lon="2.24125">
        <ele>41.1</ele>
        <time>2023-02-25T13:23:22Z</time>
      </trkpt>
      <trkpt lat="49.84375" lon="2.24126">
        <ele>41.1</ele>
        <time>2023-02-25T13:23:23Z</time>
      </trkpt>
      <trkpt lat="49.84374" lon="2.24127">
        <ele>41.1</ele>
        <time>2023-02-25T13:23:24Z</time>
      </trkpt>
      <trkpt lat="49.84373" lon="2.24128">
        <ele>41.2</ele>
        <time>2023-02-25T13:23:25Z</time>
      </trkpt>
      <trkpt lat="49.84372" lon="2.24129">
        <ele>41.2</ele>
        <time>2023-02-25T13:23:27Z</time>
      </trkpt>
      <trkpt lat="49.84371" lon="2.2413">
        <ele>41.2</ele>
        <time>2023-02-25T13:23:28Z</time>
      </trkpt>
      <trkpt lat="49.84371" lon="2.2413">
        <ele>41.2</ele>
        <time>2023-02-25T13:23:29Z</time>
      </trkpt>
      <trkpt lat="49.8437" lon="2.24131">
        <ele>41.2</ele>
        <time>2023-02-25T13:23:30Z</time>
      </trkpt>
      <trkpt lat="49.84369" lon="2.24132">
        <ele>41.2</ele>
        <time>2023-02-25T13:23:31Z</time>
      </trkpt>
      <trkpt lat="49.84367" lon="2.24133">
        <ele>41.3</ele>
        <time>2023-02-25T13:23:32Z</time>
      </trkpt>
      <trkpt lat="49.84366" lon="2.24133">
        <ele>41.3</ele>
        <time>2023-02-25T13:23:33Z</time>
      </trkpt>
      <trkpt lat="49.84366" lon="2.24133">
        <ele>41.3</ele>
        <time>2023-02-25T13:23:35Z</time>
      </trkpt>
      <trkpt lat="49.84365" lon="2.24134">
        <ele>41.3</ele>
        <time>2023-02-25T13:23:36Z</time>
      </trkpt>
      <trkpt lat="49.84364" lon="2.24134">
        <ele>41.3</ele>
        <time>2023-02-25T13:23:37Z</time>
      </trkpt>
      <trkpt lat="49.84363" lon="2.24135">
        <ele>41.3</ele>
        <time>2023-02-25T13:23:38Z</time>
      </trkpt>
      <trkpt lat="49.84362" lon="2.24135">
        <ele>41.3</ele>
        <time>2023-02-25T13:23:39Z</time>
      </trkpt>
      <trkpt lat="49.84361" lon="2.24136">
        <ele>41.4</ele>
        <time>2023-02-25T13:23:40Z</time>
      </trkpt>
      <trkpt lat="49.84359" lon="2.24137">
        <ele>41.4</ele>
        <time>2023-02-25T13:23:42Z</time>
      </trkpt>
      <trkpt lat="49.84359" lon="2.24137">
        <ele>41.4</ele>
        <time>2023-02-25T13:23:43Z</time>
      </trkpt>
      <trkpt lat="49.84358" lon="2.24138">
        <ele>41.4</ele>
        <time>2023-02-25T13:23:44Z</time>
      </trkpt>
      <trkpt lat="49.84357" lon="2.24138">
        <ele>41.4</ele>
        <time>2023-02-25T13:23:45Z</time>
      </trkpt>
      <trkpt lat="49.84356" lon="2.24139">
        <ele>41.4</ele>
        <time>2023-02-25T13:23:46Z</time>
      </trkpt>
      <trkpt lat="49.84355" lon="2.2414">
        <ele>41.4</ele>
        <time>2023-02-25T13:23:47Z</time>
      </trkpt>
      <trkpt lat="49.84354" lon="2.24141">
        <ele>41.4</ele>
        <time>2023-02-25T13:23:49Z</time>
      </trkpt>
      <trkpt lat="49.84354" lon="2.24141">
        <ele>41.4</ele>
        <time>2023-02-25T13:23:50Z</time>
      </trkpt>
      <trkpt lat="49.84353" lon="2.24142">
        <ele>41.5</ele>
        <time>2023-02-25T13:23:51Z</time>
      </trkpt>
      <trkpt lat="49.84352" lon="2.24143">
        <ele>41.5</ele>
        <time>2023-02-25T13:23:52Z</time>
      </trkpt>
      <trkpt lat="49.84351" lon="2.24144">
        <ele>41.5</ele>
        <time>2023-02-25T13:23:53Z</time>
      </trkpt>
      <trkpt lat="49.8435" lon="2.24144">
        <ele>41.5</ele>
        <time>2023-02-25T13:23:54Z</time>
      </trkpt>
      <trkpt lat="49.84349" lon="2.24145">
        <ele>41.5</ele>
        <time>2023-02-25T13:23:56Z</time>
      </trkpt>
      <trkpt lat="49.84348" lon="2.24146">
        <ele>41.5</ele>
        <time>2023-02-25T13:23:57Z</time>
      </trkpt>
      <trkpt lat="49.84348" lon="2.24147">
        <ele>41.5</ele>
        <time>2023-02-25T13:23:58Z</time>
      </trkpt>
      <trkpt lat="49.84347" lon="2.24148">
        <ele>41.5</ele>
        <time>2023-02-25T13:23:59Z</time>
      </trkpt>
      <trkpt lat="49.84346" lon="2.24148">
        <ele>41.5</ele>
        <time>2023-02-25T13:24:00Z</time>
      </trkpt>
      <trkpt lat="49.84346" lon="2.24149">
        <ele>41.5</ele>
        <time>2023-02-25T13:24:01Z</time>
      </trkpt>
      <trkpt lat="49.84345" lon="2.24149">
        <ele>41.6</ele>
        <time>2023-02-25T13:24:02Z</time>
      </trkpt>
      <trkpt lat="49.84344" lon="2.24149">
        <ele>41.6</ele>
        <time>2023-02-25T13:24:04Z</time>
      </trkpt>
      <trkpt lat="49.84343" lon="2.2415">
        <ele>41.6</ele>
        <time>2023-02-25T13:24:05Z</time>
      </trkpt>
      <trkpt lat="49.84343" lon="2.24151">
        <ele>41.6</ele>
        <time>2023-02-25T13:24:06Z</time>
      </trkpt>
      <trkpt lat="49.84342" lon="2.24152">
        <ele>41.6</ele>
        <time>2023-02-25T13:24:07Z</time>
      </trkpt>
      <trkpt lat="49.84342" lon="2.24152">
        <ele>41.6</ele>
        <time>2023-02-25T13:24:08Z</time>
      </trkpt>
      <trkpt lat="49.84341" lon="2.24153">
        <ele>41.6</ele>
        <time>2023-02-25T13:24:09Z</time>
      </trkpt>
      <trkpt lat="49.8434" lon="2.24154">
        <ele>41.6</ele>
        <time>2023-02-25T13:24:11Z</time>
      </trkpt>
      <trkpt lat="49.84339" lon="2.24156">
        <ele>41.6</ele>
        <time>2023-02-25T13:24:12Z</time>
      </trkpt>
      <trkpt lat="49.84339" lon="2.24157">
        <ele>41.7</ele>
        <time>2023-02-25T13:24:13Z</time>
      </trkpt>
      <trkpt lat="49.84338" lon="2.24158">
        <ele>41.7</ele>
        <time>2023-02-25T13:24:14Z</time>
      </trkpt>
      <trkpt lat="49.84337" lon="2.2416">
        <ele>41.7</ele>
        <time>2023-02-25T13:24:15Z</time>
      </trkpt>
      <trkpt lat="49.84336" lon="2.24161">
        <ele>41.7</ele>
        <time>2023-02-25T13:24:16Z</time>
      </trkpt>
      <trkpt lat="49.84335" lon="2.24163">
        <ele>41.7</ele>
        <time>2023-02-25T13:24:18Z</time>
      </trkpt>
      <trkpt lat="49.84334" lon="2.24164">
        <ele>41.7</ele>
        <time>2023-02-25T13:24:19Z</time>
      </trkpt>
      <trkpt lat="49.84334" lon="2.24165">
        <ele>41.8</ele>
        <time>2023-02-25T13:24:20Z</time>
      </trkpt>
      <trkpt lat="49.84333" lon="2.24167">
        <ele>41.8</ele>
        <time>2023-02-25T13:24:21Z</time>
      </trkpt>
      <trkpt lat="49.84331" lon="2.24169">
        <ele>41.8</ele>
        <time>2023-02-25T13:24:22Z</time>
      </trkpt>
      <trkpt lat="49.8433" lon="2.2417">
        <ele>41.8</ele>
        <time>2023-02-25T13:24:23Z</time>
      </trkpt>
      <trkpt lat="49.8433" lon="2.24171">
        <ele>41.8</ele>
        <time>2023-02-25T13:24:24Z</time>
      </trkpt>
      <trkpt lat="49.84329" lon="2.24171">
        <ele>41.8</ele>
        <time>2023-02-25T13:24:26Z</time>
      </trkpt>
      <trkpt lat="49.84327" lon="2.24173">
        <ele>41.9</ele>
        <time>2023-02-25T13:24:27Z</time>
      </trkpt>
      <trkpt lat="49.84327" lon="2.24173">
        <ele>41.9</ele>
        <time>2023-02-25T13:24:28Z</time>
      </trkpt>
      <trkpt lat="49.84326" lon="2.24174">
        <ele>41.9</ele>
        <time>2023-02-25T13:24:29Z</time>
      </trkpt>
      <trkpt lat="49.84325" lon="2.24174">
        <ele>41.9</ele>
        <time>2023-02-25T13:24:30Z</time>
      </trkpt>
      <trkpt lat="49.84324" lon="2.24175">
        <ele>41.9</ele>
        <time>2023-02-25T13:24:31Z</time>
      </trkpt>
      <trkpt lat="49.84322" lon="2.24178">
        <ele>41.9</ele>
        <time>2023-02-25T13:24:33Z</time>
      </trkpt>
      <trkpt lat="49.84322" lon="2.24179">
        <ele>41.9</ele>
        <time>2023-02-25T13:24:34Z</time>
      </trkpt>
      <trkpt lat="49.84321" lon="2.24179">
        <ele>42</ele>
        <time>2023-02-25T13:24:35Z</time>
      </trkpt>
      <trkpt lat="49.8432" lon="2.24181">
        <ele>42</ele>
        <time>2023-02-25T13:24:36Z</time>
      </trkpt>
      <trkpt lat="49.84319" lon="2.24183">
        <ele>42</ele>
        <time>2023-02-25T13:24:37Z</time>
      </trkpt>
      <trkpt lat="49.84318" lon="2.24185">
        <ele>42</ele>
        <time>2023-02-25T13:24:38Z</time>
      </trkpt>
      <trkpt lat="49.84317" lon="2.24186">
        <ele>42</ele>
        <time>2023-02-25T13:24:39Z</time>
      </trkpt>
      <trkpt lat="49.84316" lon="2.24187">
        <ele>42</ele>
        <time>2023-02-25T13:24:41Z</time>
      </trkpt>
      <trkpt lat="49.84315" lon="2.24188">
        <ele>42</ele>
        <time>2023-02-25T13:24:42Z</time>
      </trkpt>
      <trkpt lat="49.84315" lon="2.24189">
        <ele>42.1</ele>
        <time>2023-02-25T13:24:43Z</time>
      </trkpt>
      <trkpt lat="49.84314" lon="2.2419">
        <ele>42.1</ele>
        <time>2023-02-25T13:24:44Z</time>
      </trkpt>
      <trkpt lat="49.84313" lon="2.24191">
        <ele>42.1</ele>
        <time>2023-02-25T13:24:45Z</time>
      </trkpt>
      <trkpt lat="49.84312" lon="2.24192">
        <ele>42.1</ele>
        <time>2023-02-25T13:24:46Z</time>
      </trkpt>
      <trkpt lat="49.84311" lon="2.24194">
        <ele>42.1</ele>
        <time>2023-02-25T13:24:48Z</time>
      </trkpt>
      <trkpt lat="49.8431" lon="2.24194">
        <ele>42.1</ele>
        <time>2023-02-25T13:24:49Z</time>
      </trkpt>
      <trkpt lat="49.84309" lon="2.24195">
        <ele>42.1</ele>
        <time>2023-02-25T13:24:50Z</time>
      </trkpt>
      <trkpt lat="49.84307" lon="2.24196">
        <ele>42.1</ele>
        <time>2023-02-25T13:24:51Z</time>
      </trkpt>
      <trkpt lat="49.84306" lon="2.24197">
        <ele>42.1</ele>
        <time>2023-02-25T13:24:52Z</time>
      </trkpt>
      <trkpt lat="49.84305" lon="2.24198">
        <ele>42.1</ele>
        <time>2023-02-25T13:24:54Z</time>
      </trkpt>
      <trkpt lat="49.84304" lon="2.24198">
        <ele>42.1</ele>
        <time>2023-02-25T13:24:55Z</time>
      </trkpt>
      <trkpt lat="49.84303" lon="2.242">
        <ele>42.1</ele>
        <time>2023-02-25T13:24:56Z</time>
      </trkpt>
      <trkpt lat="49.84301" lon="2.24201">
        <ele>42.1</ele>
        <time>2023-02-25T13:24:58Z</time>
      </trkpt>
      <trkpt lat="49.843" lon="2.24201">
        <ele>42.1</ele>
        <time>2023-02-25T13:25:00Z</time>
      </trkpt>
      <trkpt lat="49.84298" lon="2.24203">
        <ele>42.1</ele>
        <time>2023-02-25T13:25:02Z</time>
      </trkpt>
      <trkpt lat="49.84297" lon="2.24202">
        <ele>42.1</ele>
        <time>2023-02-25T13:25:04Z</time>
      </trkpt>
      <trkpt lat="49.84296" lon="2.24201">
        <ele>42.1</ele>
        <time>2023-02-25T13:25:06Z</time>
      </trkpt>
      <trkpt lat="49.84295" lon="2.242">
        <ele>42.1</ele>
        <time>2023-02-25T13:25:07Z</time>
      </trkpt>
      <trkpt lat="49.84295" lon="2.24199">
        <ele>42.1</ele>
        <time>2023-02-25T13:25:08Z</time>
      </trkpt>
      <trkpt lat="49.84295" lon="2.24198">
        <ele>42.1</ele>
        <time>2023-02-25T13:25:10Z</time>
      </trkpt>
      <trkpt lat="49.84295" lon="2.24198">
        <ele>42.1</ele>
        <time>2023-02-25T13:25:11Z</time>
      </trkpt>
      <trkpt lat="49.84295" lon="2.24198">
        <ele>42.1</ele>
        <time>2023-02-25T13:25:12Z</time>
      </trkpt>
      <trkpt lat="49.84295" lon="2.24198">
        <ele>42.1</ele>
        <time>2023-02-25T13:25:14Z</time>
      </trkpt>
      <trkpt lat="49.84295" lon="2.24198">
        <ele>42.1</ele>
        <time>2023-02-25T13:25:15Z</time>
      </trkpt>
      <trkpt lat="49.84294" lon="2.24197">
        <ele>42.1</ele>
        <time>2023-02-25T13:25:17Z</time>
      </trkpt>
      <trkpt lat="49.84294" lon="2.24197">
        <ele>42.1</ele>
        <time>2023-02-25T13:25:18Z</time>
      </trkpt>
      <trkpt lat="49.84295" lon="2.24197">
        <ele>42.1</ele>
        <time>2023-02-25T13:25:20Z</time>
      </trkpt>
      <trkpt lat="49.84295" lon="2.24197">
        <ele>42.1</ele>
        <time>2023-02-25T13:25:21Z</time>
      </trkpt>
      <trkpt lat="49.84295" lon="2.24197">
        <ele>42.1</ele>
        <time>2023-02-25T13:25:22Z</time>
      </trkpt>
      <trkpt lat="49.84295" lon="2.24197">
        <ele>42.1</ele>
        <time>2023-02-25T13:25:24Z</time>
      </trkpt>
      <trkpt lat="49.84294" lon="2.24197">
        <ele>42.1</ele>
        <time>2023-02-25T13:25:25Z</time>
      </trkpt>
      <trkpt lat="49.84294" lon="2.24198">
        <ele>42.1</ele>
        <time>2023-02-25T13:25:26Z</time>
      </trkpt>
      <trkpt lat="49.84294" lon="2.24198">
        <ele>42.1</ele>
        <time>2023-02-25T13:25:27Z</time>
      </trkpt>
      <trkpt lat="49.84294" lon="2.24198">
        <ele>42.1</ele>
        <time>2023-02-25T13:25:28Z</time>
      </trkpt>
      <trkpt lat="49.84294" lon="2.24198">
        <ele>42.1</ele>
        <time>2023-02-25T13:25:29Z</time>
      </trkpt>
      <trkpt lat="49.84294" lon="2.24198">
        <ele>42.1</ele>
        <time>2023-02-25T13:25:30Z</time>
      </trkpt>
      <trkpt lat="49.84294" lon="2.24198">
        <ele>42.1</ele>
        <time>2023-02-25T13:25:31Z</time>
      </trkpt>
      <trkpt lat="49.84294" lon="2.24198">
        <ele>42.1</ele>
        <time>2023-02-25T13:25:32Z</time>
      </trkpt>
      <trkpt lat="49.84294" lon="2.24198">
        <ele>42.1</ele>
        <time>2023-02-25T13:25:33Z</time>
      </trkpt>
      <trkpt lat="49.84294" lon="2.24198">
        <ele>42.1</ele>
        <time>2023-02-25T13:25:34Z</time>
      </trkpt>
      <trkpt lat="49.84294" lon="2.24198">
        <ele>42.1</ele>
        <time>2023-02-25T13:25:35Z</time>
      </trkpt>
      <trkpt lat="49.84294" lon="2.24198">
        <ele>42.1</ele>
        <time>2023-02-25T13:25:36Z</time>
      </trkpt>
      <trkpt lat="49.84294" lon="2.24198">
        <ele>42.1</ele>
        <time>2023-02-25T13:25:38Z</time>
      </trkpt>
      <trkpt lat="49.84294" lon="2.24198">
        <ele>42.1</ele>
        <time>2023-02-25T13:25:39Z</time>
      </trkpt>
      <trkpt lat="49.84294" lon="2.24198">
        <ele>42.1</ele>
        <time>2023-02-25T13:25:40Z</time>
      </trkpt>
      <trkpt lat="49.84294" lon="2.24198">
        <ele>42.1</ele>
        <time>2023-02-25T13:25:41Z</time>
      </trkpt>
      <trkpt lat="49.84294" lon="2.24198">
        <ele>42.1</ele>
        <time>2023-02-25T13:25:42Z</time>
      </trkpt>
      <trkpt lat="49.84294" lon="2.24198">
        <ele>42.1</ele>
        <time>2023-02-25T13:25:43Z</time>
      </trkpt>
      <trkpt lat="49.84294" lon="2.24198">
        <ele>42.1</ele>
        <time>2023-02-25T13:25:45Z</time>
      </trkpt>
      <trkpt lat="49.84294" lon="2.24198">
        <ele>42.1</ele>
        <time>2023-02-25T13:25:46Z</time>
      </trkpt>
      <trkpt lat="49.84294" lon="2.24198">
        <ele>42.1</ele>
        <time>2023-02-25T13:25:48Z</time>
      </trkpt>
      <trkpt lat="49.84294" lon="2.24198">
        <ele>42.1</ele>
        <time>2023-02-25T13:25:49Z</time>
      </trkpt>
      <trkpt lat="49.84294" lon="2.24198">
        <ele>42.1</ele>
        <time>2023-02-25T13:25:50Z</time>
      </trkpt>
      <trkpt lat="49.84294" lon="2.24198">
        <ele>42.1</ele>
        <time>2023-02-25T13:25:51Z</time>
      </trkpt>
      <trkpt lat="49.84294" lon="2.24198">
        <ele>42.1</ele>
        <time>2023-02-25T13:25:52Z</time>
      </trkpt>
      <trkpt lat="49.84294" lon="2.24198">
        <ele>42.1</ele>
        <time>2023-02-25T13:25:53Z</time>
      </trkpt>
      <trkpt lat="49.84294" lon="2.24198">
        <ele>42.1</ele>
        <time>2023-02-25T13:25:54Z</time>
      </trkpt>
      <trkpt lat="49.84294" lon="2.24198">
        <ele>42.1</ele>
        <time>2023-02-25T13:25:55Z</time>
      </trkpt>
      <trkpt lat="49.84294" lon="2.24198">
        <ele>42.1</ele>
        <time>2023-02-25T13:25:57Z</time>
      </trkpt>
      <trkpt lat="49.84294" lon="2.24198">
        <ele>42.1</ele>
        <time>2023-02-25T13:25:58Z</time>
      </trkpt>
      <trkpt lat="49.84294" lon="2.24198">
        <ele>42.1</ele>
        <time>2023-02-25T13:25:59Z</time>
      </trkpt>
      <trkpt lat="49.84294" lon="2.24198">
        <ele>42.1</ele>
        <time>2023-02-25T13:26:00Z</time>
      </trkpt>
      <trkpt lat="49.84294" lon="2.24198">
        <ele>42.1</ele>
        <time>2023-02-25T13:26:01Z</time>
      </trkpt>
      <trkpt lat="49.84294" lon="2.24198">
        <ele>42.1</ele>
        <time>2023-02-25T13:26:02Z</time>
      </trkpt>
      <trkpt lat="49.84294" lon="2.24198">
        <ele>42.1</ele>
        <time>2023-02-25T13:26:03Z</time>
      </trkpt>
      <trkpt lat="49.84294" lon="2.24198">
        <ele>42.1</ele>
        <time>2023-02-25T13:26:04Z</time>
      </trkpt>
      <trkpt lat="49.84294" lon="2.24198">
        <ele>42.1</ele>
        <time>2023-02-25T13:26:05Z</time>
      </trkpt>
      <trkpt lat="49.84294" lon="2.24198">
        <ele>42.1</ele>
        <time>2023-02-25T13:26:06Z</time>
      </trkpt>
      <trkpt lat="49.84294" lon="2.24198">
        <ele>42.1</ele>
        <time>2023-02-25T13:26:07Z</time>
      </trkpt>
      <trkpt lat="49.84294" lon="2.24198">
        <ele>42.1</ele>
        <time>2023-02-25T13:26:08Z</time>
      </trkpt>
      <trkpt lat="49.84294" lon="2.24198">
        <ele>42.1</ele>
        <time>2023-02-25T13:26:09Z</time>
      </trkpt>
      <trkpt lat="49.84294" lon="2.24198">
        <ele>42.1</ele>
        <time>2023-02-25T13:26:10Z</time>
      </trkpt>
      <trkpt lat="49.84294" lon="2.24198">
        <ele>42.1</ele>
        <time>2023-02-25T13:26:11Z</time>
      </trkpt>
      <trkpt lat="49.84294" lon="2.24198">
        <ele>42.1</ele>
        <time>2023-02-25T13:26:12Z</time>
      </trkpt>
      <trkpt lat="49.84294" lon="2.24198">
        <ele>42.1</ele>
        <time>2023-02-25T13:26:13Z</time>
      </trkpt>
      <trkpt lat="49.84294" lon="2.24198">
        <ele>42.1</ele>
        <time>2023-02-25T13:26:14Z</time>
      </trkpt>
      <trkpt lat="49.84294" lon="2.24198">
        <ele>42.1</ele>
        <time>2023-02-25T13:26:15Z</time>
      </trkpt>
      <trkpt lat="49.84294" lon="2.24198">
        <ele>42.1</ele>
        <time>2023-02-25T13:26:16Z</time>
      </trkpt>
      <trkpt lat="49.84294" lon="2.24198">
        <ele>42.1</ele>
        <time>2023-02-25T13:26:17Z</time>
      </trkpt>
      <trkpt lat="49.84294" lon="2.24198">
        <ele>42.1</ele>
        <time>2023-02-25T13:26:18Z</time>
      </trkpt>
      <trkpt lat="49.84294" lon="2.24198">
        <ele>42.1</ele>
        <time>2023-02-25T13:26:19Z</time>
      </trkpt>
      <trkpt lat="49.84294" lon="2.24198">
        <ele>42.1</ele>
        <time>2023-02-25T13:26:20Z</time>
      </trkpt>
      <trkpt lat="49.84294" lon="2.24198">
        <ele>42.1</ele>
        <time>2023-02-25T13:26:21Z</time>
      </trkpt>
      <trkpt lat="49.84294" lon="2.24198">
        <ele>42.1</ele>
        <time>2023-02-25T13:26:22Z</time>
      </trkpt>
      <trkpt lat="49.84294" lon="2.24198">
        <ele>42.1</ele>
        <time>2023-02-25T13:26:23Z</time>
      </trkpt>
      <trkpt lat="49.84294" lon="2.24198">
        <ele>42.1</ele>
        <time>2023-02-25T13:26:24Z</time>
      </trkpt>
      <trkpt lat="49.84294" lon="2.24198">
        <ele>42.1</ele>
        <time>2023-02-25T13:26:25Z</time>
      </trkpt>
      <trkpt lat="49.84294" lon="2.24198">
        <ele>42.1</ele>
        <time>2023-02-25T13:26:26Z</time>
      </trkpt>
      <trkpt lat="49.84294" lon="2.24198">
        <ele>42.1</ele>
        <time>2023-02-25T13:26:27Z</time>
      </trkpt>
      <trkpt lat="49.84294" lon="2.24198">
        <ele>42.1</ele>
        <time>2023-02-25T13:26:28Z</time>
      </trkpt>
      <trkpt lat="49.84294" lon="2.24198">
        <ele>42.1</ele>
        <time>2023-02-25T13:26:29Z</time>
      </trkpt>
      <trkpt lat="49.84294" lon="2.24198">
        <ele>42.1</ele>
        <time>2023-02-25T13:26:30Z</time>
      </trkpt>
      <trkpt lat="49.84294" lon="2.24198">
        <ele>42.1</ele>
        <time>2023-02-25T13:26:31Z</time>
      </trkpt>
      <trkpt lat="49.84294" lon="2.24198">
        <ele>42.1</ele>
        <time>2023-02-25T13:26:32Z</time>
      </trkpt>
      <trkpt lat="49.84294" lon="2.24198">
        <ele>42.1</ele>
        <time>2023-02-25T13:26:33Z</time>
      </trkpt>
      <trkpt lat="49.84294" lon="2.24198">
        <ele>42.1</ele>
        <time>2023-02-25T13:26:34Z</time>
      </trkpt>
      <trkpt lat="49.84294" lon="2.24198">
        <ele>42.1</ele>
        <time>2023-02-25T13:26:35Z</time>
      </trkpt>
      <trkpt lat="49.84294" lon="2.24198">
        <ele>42.1</ele>
        <time>2023-02-25T13:26:36Z</time>
      </trkpt>
      <trkpt lat="49.84294" lon="2.24198">
        <ele>42.1</ele>
        <time>2023-02-25T13:26:37Z</time>
      </trkpt>
      <trkpt lat="49.84294" lon="2.24198">
        <ele>42.1</ele>
        <time>2023-02-25T13:26:38Z</time>
      </trkpt>
      <trkpt lat="49.84294" lon="2.24198">
        <ele>42.1</ele>
        <time>2023-02-25T13:26:39Z</time>
      </trkpt>
      <trkpt lat="49.84294" lon="2.24198">
        <ele>42.1</ele>
        <time>2023-02-25T13:26:40Z</time>
      </trkpt>
      <trkpt lat="49.84294" lon="2.24198">
        <ele>42.1</ele>
        <time>2023-02-25T13:26:41Z</time>
      </trkpt>
      <trkpt lat="49.84294" lon="2.24198">
        <ele>42.1</ele>
        <time>2023-02-25T13:26:42Z</time>
      </trkpt>
      <trkpt lat="49.84294" lon="2.24198">
        <ele>42.1</ele>
        <time>2023-02-25T13:26:43Z</time>
      </trkpt>
      <trkpt lat="49.84294" lon="2.24198">
        <ele>42.1</ele>
        <time>2023-02-25T13:26:44Z</time>
      </trkpt>
      <trkpt lat="49.84294" lon="2.24198">
        <ele>42.1</ele>
        <time>2023-02-25T13:26:45Z</time>
      </trkpt>
      <trkpt lat="49.84294" lon="2.24198">
        <ele>42.1</ele>
        <time>2023-02-25T13:26:46Z</time>
      </trkpt>
      <trkpt lat="49.84294" lon="2.24198">
        <ele>42.1</ele>
        <time>2023-02-25T13:26:47Z</time>
      </trkpt>
      <trkpt lat="49.84294" lon="2.24198">
        <ele>42.1</ele>
        <time>2023-02-25T13:26:48Z</time>
      </trkpt>
      <trkpt lat="49.84294" lon="2.24198">
        <ele>42.1</ele>
        <time>2023-02-25T13:26:49Z</time>
      </trkpt>
      <trkpt lat="49.84294" lon="2.24198">
        <ele>42.1</ele>
        <time>2023-02-25T13:26:50Z</time>
      </trkpt>
      <trkpt lat="49.84294" lon="2.24198">
        <ele>42.1</ele>
        <time>2023-02-25T13:26:51Z</time>
      </trkpt>
      <trkpt lat="49.84294" lon="2.24198">
        <ele>42.1</ele>
        <time>2023-02-25T13:26:52Z</time>
      </trkpt>
      <trkpt lat="49.84294" lon="2.24198">
        <ele>42.1</ele>
        <time>2023-02-25T13:26:53Z</time>
      </trkpt>
      <trkpt lat="49.84294" lon="2.24198">
        <ele>42.1</ele>
        <time>2023-02-25T13:26:54Z</time>
      </trkpt>
      <trkpt lat="49.84294" lon="2.24198">
        <ele>42.1</ele>
        <time>2023-02-25T13:26:55Z</time>
      </trkpt>
      <trkpt lat="49.84294" lon="2.24198">
        <ele>42.1</ele>
        <time>2023-02-25T13:26:56Z</time>
      </trkpt>
      <trkpt lat="49.84294" lon="2.24198">
        <ele>42.1</ele>
        <time>2023-02-25T13:26:57Z</time>
      </trkpt>
      <trkpt lat="49.84294" lon="2.24198">
        <ele>42.1</ele>
        <time>2023-02-25T13:26:58Z</time>
      </trkpt>
      <trkpt lat="49.84294" lon="2.24198">
        <ele>42.1</ele>
        <time>2023-02-25T13:26:59Z</time>
      </trkpt>
      <trkpt lat="49.84294" lon="2.24198">
        <ele>42.1</ele>
        <time>2023-02-25T13:27:00Z</time>
      </trkpt>
      <trkpt lat="49.84294" lon="2.24198">
        <ele>42.1</ele>
        <time>2023-02-25T13:27:01Z</time>
      </trkpt>
      <trkpt lat="49.84294" lon="2.24198">
        <ele>42.1</ele>
        <time>2023-02-25T13:27:02Z</time>
      </trkpt>
      <trkpt lat="49.84294" lon="2.24198">
        <ele>42.1</ele>
        <time>2023-02-25T13:27:03Z</time>
      </trkpt>
      <trkpt lat="49.84294" lon="2.24198">
        <ele>42.1</ele>
        <time>2023-02-25T13:27:04Z</time>
      </trkpt>
      <trkpt lat="49.84294" lon="2.24198">
        <ele>42.1</ele>
        <time>2023-02-25T13:27:05Z</time>
      </trkpt>
      <trkpt lat="49.84294" lon="2.24198">
        <ele>42.1</ele>
        <time>2023-02-25T13:27:06Z</time>
      </trkpt>
      <trkpt lat="49.84294" lon="2.24198">
        <ele>42.1</ele>
        <time>2023-02-25T13:27:08Z</time>
      </trkpt>
      <trkpt lat="49.84294" lon="2.24198">
        <ele>42.1</ele>
        <time>2023-02-25T13:27:09Z</time>
      </trkpt>
      <trkpt lat="49.84294" lon="2.24198">
        <ele>42.1</ele>
        <time>2023-02-25T13:27:11Z</time>
      </trkpt>
      <trkpt lat="49.84294" lon="2.24198">
        <ele>42.1</ele>
        <time>2023-02-25T13:27:12Z</time>
      </trkpt>
      <trkpt lat="49.84294" lon="2.24198">
        <ele>42.1</ele>
        <time>2023-02-25T13:27:13Z</time>
      </trkpt>
      <trkpt lat="49.84294" lon="2.24198">
        <ele>42.1</ele>
        <time>2023-02-25T13:27:14Z</time>
      </trkpt>
      <trkpt lat="49.84294" lon="2.24198">
        <ele>42.1</ele>
        <time>2023-02-25T13:27:15Z</time>
      </trkpt>
      <trkpt lat="49.84294" lon="2.24198">
        <ele>42.1</ele>
        <time>2023-02-25T13:27:16Z</time>
      </trkpt>
      <trkpt lat="49.84294" lon="2.24198">
        <ele>42.1</ele>
        <time>2023-02-25T13:27:18Z</time>
      </trkpt>
      <trkpt lat="49.84294" lon="2.24198">
        <ele>42.1</ele>
        <time>2023-02-25T13:27:19Z</time>
      </trkpt>
      <trkpt lat="49.84294" lon="2.24198">
        <ele>42.1</ele>
        <time>2023-02-25T13:27:20Z</time>
      </trkpt>
      <trkpt lat="49.84294" lon="2.24198">
        <ele>42.1</ele>
        <time>2023-02-25T13:27:22Z</time>
      </trkpt>
      <trkpt lat="49.84294" lon="2.24198">
        <ele>42.1</ele>
        <time>2023-02-25T13:27:23Z</time>
      </trkpt>
      <trkpt lat="49.84294" lon="2.24198">
        <ele>42.1</ele>
        <time>2023-02-25T13:27:24Z</time>
      </trkpt>
      <trkpt lat="49.84294" lon="2.24198">
        <ele>42.1</ele>
        <time>2023-02-25T13:27:25Z</time>
      </trkpt>
      <trkpt lat="49.84294" lon="2.24198">
        <ele>42.1</ele>
        <time>2023-02-25T13:27:26Z</time>
      </trkpt>
      <trkpt lat="49.84294" lon="2.24198">
        <ele>42.1</ele>
        <time>2023-02-25T13:27:27Z</time>
      </trkpt>
      <trkpt lat="49.84294" lon="2.24198">
        <ele>42.1</ele>
        <time>2023-02-25T13:27:29Z</time>
      </trkpt>
      <trkpt lat="49.84294" lon="2.24198">
        <ele>42.1</ele>
        <time>2023-02-25T13:27:30Z</time>
      </trkpt>
      <trkpt lat="49.84294" lon="2.24198">
        <ele>42.1</ele>
        <time>2023-02-25T13:27:31Z</time>
      </trkpt>
      <trkpt lat="49.84294" lon="2.24198">
        <ele>42.1</ele>
        <time>2023-02-25T13:27:33Z</time>
      </trkpt>
      <trkpt lat="49.84294" lon="2.24198">
        <ele>42.1</ele>
        <time>2023-02-25T13:27:35Z</time>
      </trkpt>
      <trkpt lat="49.84294" lon="2.24198">
        <ele>42.1</ele>
        <time>2023-02-25T13:27:36Z</time>
      </trkpt>
      <trkpt lat="49.84294" lon="2.24198">
        <ele>42.1</ele>
        <time>2023-02-25T13:27:37Z</time>
      </trkpt>
      <trkpt lat="49.84294" lon="2.24198">
        <ele>42.1</ele>
        <time>2023-02-25T13:27:38Z</time>
      </trkpt>
      <trkpt lat="49.84294" lon="2.24198">
        <ele>42.1</ele>
        <time>2023-02-25T13:27:39Z</time>
      </trkpt>
      <trkpt lat="49.84294" lon="2.24198">
        <ele>42.1</ele>
        <time>2023-02-25T13:27:41Z</time>
      </trkpt>
      <trkpt lat="49.84294" lon="2.24198">
        <ele>42.1</ele>
        <time>2023-02-25T13:27:43Z</time>
      </trkpt>
      <trkpt lat="49.84294" lon="2.24198">
        <ele>42.1</ele>
        <time>2023-02-25T13:27:44Z</time>
      </trkpt>
      <trkpt lat="49.84294" lon="2.24198">
        <ele>42.1</ele>
        <time>2023-02-25T13:27:45Z</time>
      </trkpt>
      <trkpt lat="49.84294" lon="2.24198">
        <ele>42.1</ele>
        <time>2023-02-25T13:27:46Z</time>
      </trkpt>
      <trkpt lat="49.84294" lon="2.24199">
        <ele>42.1</ele>
        <time>2023-02-25T13:27:47Z</time>
      </trkpt>
      <trkpt lat="49.84294" lon="2.24199">
        <ele>42.1</ele>
        <time>2023-02-25T13:27:48Z</time>
      </trkpt>
      <trkpt lat="49.84295" lon="2.242">
        <ele>42.1</ele>
        <time>2023-02-25T13:27:49Z</time>
      </trkpt>
      <trkpt lat="49.84295" lon="2.242">
        <ele>42.1</ele>
        <time>2023-02-25T13:27:50Z</time>
      </trkpt>
      <trkpt lat="49.84295" lon="2.242">
        <ele>42.1</ele>
        <time>2023-02-25T13:27:51Z</time>
      </trkpt>
      <trkpt lat="49.84295" lon="2.24199">
        <ele>42.1</ele>
        <time>2023-02-25T13:27:52Z</time>
      </trkpt>
      <trkpt lat="49.84294" lon="2.24199">
        <ele>42.1</ele>
        <time>2023-02-25T13:27:53Z</time>
      </trkpt>
      <trkpt lat="49.84293" lon="2.24199">
        <ele>42.1</ele>
        <time>2023-02-25T13:27:55Z</time>
      </trkpt>
      <trkpt lat="49.84292" lon="2.242">
        <ele>42.1</ele>
        <time>2023-02-25T13:27:56Z</time>
      </trkpt>
      <trkpt lat="49.8429" lon="2.24203">
        <ele>42.1</ele>
        <time>2023-02-25T13:27:57Z</time>
      </trkpt>
      <trkpt lat="49.8429" lon="2.24205">
        <ele>42.1</ele>
        <time>2023-02-25T13:27:58Z</time>
      </trkpt>
      <trkpt lat="49.8429" lon="2.24209">
        <ele>42.1</ele>
        <time>2023-02-25T13:28:00Z</time>
      </trkpt>
      <trkpt lat="49.8429" lon="2.24212">
        <ele>42.1</ele>
        <time>2023-02-25T13:28:02Z</time>
      </trkpt>
      <trkpt lat="49.8429" lon="2.24214">
        <ele>42.1</ele>
        <time>2023-02-25T13:28:03Z</time>
      </trkpt>
      <trkpt lat="49.8429" lon="2.24217">
        <ele>42.1</ele>
        <time>2023-02-25T13:28:04Z</time>
      </trkpt>
      <trkpt lat="49.8429" lon="2.24219">
        <ele>42.1</ele>
        <time>2023-02-25T13:28:05Z</time>
      </trkpt>
      <trkpt lat="49.8429" lon="2.24221">
        <ele>42.1</ele>
        <time>2023-02-25T13:28:06Z</time>
      </trkpt>
      <trkpt lat="49.8429" lon="2.24223">
        <ele>42.1</ele>
        <time>2023-02-25T13:28:08Z</time>
      </trkpt>
      <trkpt lat="49.8429" lon="2.24225">
        <ele>42.1</ele>
        <time>2023-02-25T13:28:09Z</time>
      </trkpt>
      <trkpt lat="49.8429" lon="2.24226">
        <ele>42.1</ele>
        <time>2023-02-25T13:28:10Z</time>
      </trkpt>
      <trkpt lat="49.8429" lon="2.24228">
        <ele>42.1</ele>
        <time>2023-02-25T13:28:11Z</time>
      </trkpt>
      <trkpt lat="49.8429" lon="2.2423">
        <ele>42.1</ele>
        <time>2023-02-25T13:28:12Z</time>
      </trkpt>
      <trkpt lat="49.8429" lon="2.24233">
        <ele>42.1</ele>
        <time>2023-02-25T13:28:13Z</time>
      </trkpt>
      <trkpt lat="49.84289" lon="2.24235">
        <ele>42.1</ele>
        <time>2023-02-25T13:28:14Z</time>
      </trkpt>
      <trkpt lat="49.84289" lon="2.24236">
        <ele>42.1</ele>
        <time>2023-02-25T13:28:16Z</time>
      </trkpt>
      <trkpt lat="49.84289" lon="2.24237">
        <ele>42.1</ele>
        <time>2023-02-25T13:28:17Z</time>
      </trkpt>
      <trkpt lat="49.84289" lon="2.24238">
        <ele>42.1</ele>
        <time>2023-02-25T13:28:18Z</time>
      </trkpt>
      <trkpt lat="49.84289" lon="2.2424">
        <ele>42.1</ele>
        <time>2023-02-25T13:28:19Z</time>
      </trkpt>
      <trkpt lat="49.84289" lon="2.24241">
        <ele>42.1</ele>
        <time>2023-02-25T13:28:20Z</time>
      </trkpt>
      <trkpt lat="49.84289" lon="2.24243">
        <ele>42.1</ele>
        <time>2023-02-25T13:28:22Z</time>
      </trkpt>
      <trkpt lat="49.8429" lon="2.24244">
        <ele>42.1</ele>
        <time>2023-02-25T13:28:23Z</time>
      </trkpt>
      <trkpt lat="49.8429" lon="2.24246">
        <ele>42.1</ele>
        <time>2023-02-25T13:28:24Z</time>
      </trkpt>
      <trkpt lat="49.8429" lon="2.24248">
        <ele>42.1</ele>
        <time>2023-02-25T13:28:25Z</time>
      </trkpt>
      <trkpt lat="49.8429" lon="2.2425">
        <ele>42.1</ele>
        <time>2023-02-25T13:28:26Z</time>
      </trkpt>
      <trkpt lat="49.8429" lon="2.24251">
        <ele>42.1</ele>
        <time>2023-02-25T13:28:27Z</time>
      </trkpt>
      <trkpt lat="49.8429" lon="2.24253">
        <ele>42.1</ele>
        <time>2023-02-25T13:28:28Z</time>
      </trkpt>
      <trkpt lat="49.8429" lon="2.24256">
        <ele>42.1</ele>
        <time>2023-02-25T13:28:30Z</time>
      </trkpt>
      <trkpt lat="49.84289" lon="2.24258">
        <ele>42.1</ele>
        <time>2023-02-25T13:28:31Z</time>
      </trkpt>
      <trkpt lat="49.84289" lon="2.2426">
        <ele>42.1</ele>
        <time>2023-02-25T13:28:32Z</time>
      </trkpt>
      <trkpt lat="49.84289" lon="2.24263">
        <ele>42.2</ele>
        <time>2023-02-25T13:28:33Z</time>
      </trkpt>
      <trkpt lat="49.84289" lon="2.24268">
        <ele>42.2</ele>
        <time>2023-02-25T13:28:34Z</time>
      </trkpt>
      <trkpt lat="49.84289" lon="2.24269">
        <ele>42.2</ele>
        <time>2023-02-25T13:28:35Z</time>
      </trkpt>
      <trkpt lat="49.84288" lon="2.24271">
        <ele>42.2</ele>
        <time>2023-02-25T13:28:36Z</time>
      </trkpt>
      <trkpt lat="49.84288" lon="2.24273">
        <ele>42.2</ele>
        <time>2023-02-25T13:28:38Z</time>
      </trkpt>
      <trkpt lat="49.84288" lon="2.24275">
        <ele>42.2</ele>
        <time>2023-02-25T13:28:39Z</time>
      </trkpt>
      <trkpt lat="49.84288" lon="2.24278">
        <ele>42.2</ele>
        <time>2023-02-25T13:28:40Z</time>
      </trkpt>
      <trkpt lat="49.84288" lon="2.2428">
        <ele>42.2</ele>
        <time>2023-02-25T13:28:41Z</time>
      </trkpt>
      <trkpt lat="49.84288" lon="2.24282">
        <ele>42.2</ele>
        <time>2023-02-25T13:28:42Z</time>
      </trkpt>
      <trkpt lat="49.84287" lon="2.24284">
        <ele>42.2</ele>
        <time>2023-02-25T13:28:43Z</time>
      </trkpt>
      <trkpt lat="49.84287" lon="2.24287">
        <ele>42.2</ele>
        <time>2023-02-25T13:28:44Z</time>
      </trkpt>
      <trkpt lat="49.84287" lon="2.2429">
        <ele>42.2</ele>
        <time>2023-02-25T13:28:46Z</time>
      </trkpt>
      <trkpt lat="49.84287" lon="2.24292">
        <ele>42.2</ele>
        <time>2023-02-25T13:28:47Z</time>
      </trkpt>
      <trkpt lat="49.84287" lon="2.24293">
        <ele>42.2</ele>
        <time>2023-02-25T13:28:48Z</time>
      </trkpt>
      <trkpt lat="49.84287" lon="2.24296">
        <ele>42.3</ele>
        <time>2023-02-25T13:28:49Z</time>
      </trkpt>
      <trkpt lat="49.84287" lon="2.24297">
        <ele>42.3</ele>
        <time>2023-02-25T13:28:50Z</time>
      </trkpt>
      <trkpt lat="49.84286" lon="2.243">
        <ele>42.3</ele>
        <time>2023-02-25T13:28:51Z</time>
      </trkpt>
      <trkpt lat="49.84286" lon="2.24302">
        <ele>42.3</ele>
        <time>2023-02-25T13:28:52Z</time>
      </trkpt>
      <trkpt lat="49.84286" lon="2.24304">
        <ele>42.3</ele>
        <time>2023-02-25T13:28:54Z</time>
      </trkpt>
      <trkpt lat="49.84286" lon="2.24305">
        <ele>42.3</ele>
        <time>2023-02-25T13:28:55Z</time>
      </trkpt>
      <trkpt lat="49.84286" lon="2.24307">
        <ele>42.3</ele>
        <time>2023-02-25T13:28:56Z</time>
      </trkpt>
      <trkpt lat="49.84286" lon="2.24308">
        <ele>42.3</ele>
        <time>2023-02-25T13:28:57Z</time>
      </trkpt>
      <trkpt lat="49.84285" lon="2.2431">
        <ele>42.3</ele>
        <time>2023-02-25T13:28:58Z</time>
      </trkpt>
      <trkpt lat="49.84285" lon="2.24313">
        <ele>42.3</ele>
        <time>2023-02-25T13:28:59Z</time>
      </trkpt>
      <trkpt lat="49.84285" lon="2.24316">
        <ele>42.4</ele>
        <time>2023-02-25T13:29:00Z</time>
      </trkpt>
      <trkpt lat="49.84285" lon="2.24317">
        <ele>42.4</ele>
        <time>2023-02-25T13:29:01Z</time>
      </trkpt>
      <trkpt lat="49.84285" lon="2.24319">
        <ele>42.4</ele>
        <time>2023-02-25T13:29:03Z</time>
      </trkpt>
      <trkpt lat="49.84285" lon="2.2432">
        <ele>42.4</ele>
        <time>2023-02-25T13:29:04Z</time>
      </trkpt>
      <trkpt lat="49.84285" lon="2.24322">
        <ele>42.4</ele>
        <time>2023-02-25T13:29:05Z</time>
      </trkpt>
      <trkpt lat="49.84285" lon="2.24324">
        <ele>42.4</ele>
        <time>2023-02-25T13:29:06Z</time>
      </trkpt>
      <trkpt lat="49.84285" lon="2.24329">
        <ele>42.5</ele>
        <time>2023-02-25T13:29:08Z</time>
      </trkpt>
      <trkpt lat="49.84285" lon="2.24331">
        <ele>42.5</ele>
        <time>2023-02-25T13:29:09Z</time>
      </trkpt>
      <trkpt lat="49.84285" lon="2.24332">
        <ele>42.5</ele>
        <time>2023-02-25T13:29:10Z</time>
      </trkpt>
      <trkpt lat="49.84286" lon="2.24334">
        <ele>42.5</ele>
        <time>2023-02-25T13:29:12Z</time>
      </trkpt>
      <trkpt lat="49.84286" lon="2.24336">
        <ele>42.5</ele>
        <time>2023-02-25T13:29:13Z</time>
      </trkpt>
      <trkpt lat="49.84286" lon="2.24337">
        <ele>42.6</ele>
        <time>2023-02-25T13:29:14Z</time>
      </trkpt>
      <trkpt lat="49.84287" lon="2.2434">
        <ele>42.6</ele>
        <time>2023-02-25T13:29:15Z</time>
      </trkpt>
      <trkpt lat="49.84287" lon="2.24343">
        <ele>42.6</ele>
        <time>2023-02-25T13:29:16Z</time>
      </trkpt>
      <trkpt lat="49.84287" lon="2.24344">
        <ele>42.7</ele>
        <time>2023-02-25T13:29:17Z</time>
      </trkpt>
      <trkpt lat="49.84287" lon="2.24346">
        <ele>42.7</ele>
        <time>2023-02-25T13:29:18Z</time>
      </trkpt>
      <trkpt lat="49.84287" lon="2.24349">
        <ele>42.7</ele>
        <time>2023-02-25T13:29:19Z</time>
      </trkpt>
      <trkpt lat="49.84287" lon="2.2435">
        <ele>42.7</ele>
        <time>2023-02-25T13:29:20Z</time>
      </trkpt>
      <trkpt lat="49.84288" lon="2.24352">
        <ele>42.8</ele>
        <time>2023-02-25T13:29:22Z</time>
      </trkpt>
      <trkpt lat="49.84288" lon="2.24354">
        <ele>42.8</ele>
        <time>2023-02-25T13:29:23Z</time>
      </trkpt>
      <trkpt lat="49.84288" lon="2.24356">
        <ele>42.8</ele>
        <time>2023-02-25T13:29:24Z</time>
      </trkpt>
      <trkpt lat="49.84288" lon="2.24358">
        <ele>42.8</ele>
        <time>2023-02-25T13:29:25Z</time>
      </trkpt>
      <trkpt lat="49.84288" lon="2.2436">
        <ele>42.9</ele>
        <time>2023-02-25T13:29:26Z</time>
      </trkpt>
      <trkpt lat="49.84288" lon="2.24364">
        <ele>42.9</ele>
        <time>2023-02-25T13:29:27Z</time>
      </trkpt>
      <trkpt lat="49.84288" lon="2.24365">
        <ele>43</ele>
        <time>2023-02-25T13:29:28Z</time>
      </trkpt>
      <trkpt lat="49.84288" lon="2.24367">
        <ele>43</ele>
        <time>2023-02-25T13:29:29Z</time>
      </trkpt>
      <trkpt lat="49.84288" lon="2.24368">
        <ele>43</ele>
        <time>2023-02-25T13:29:30Z</time>
      </trkpt>
      <trkpt lat="49.84288" lon="2.2437">
        <ele>43</ele>
        <time>2023-02-25T13:29:31Z</time>
      </trkpt>
      <trkpt lat="49.84288" lon="2.24372">
        <ele>43.1</ele>
        <time>2023-02-25T13:29:33Z</time>
      </trkpt>
      <trkpt lat="49.84288" lon="2.24374">
        <ele>43.1</ele>
        <time>2023-02-25T13:29:34Z</time>
      </trkpt>
      <trkpt lat="49.84288" lon="2.24377">
        <ele>43.2</ele>
        <time>2023-02-25T13:29:35Z</time>
      </trkpt>
      <trkpt lat="49.84288" lon="2.2438">
        <ele>43.2</ele>
        <time>2023-02-25T13:29:36Z</time>
      </trkpt>
      <trkpt lat="49.84288" lon="2.24381">
        <ele>43.3</ele>
        <time>2023-02-25T13:29:37Z</time>
      </trkpt>
      <trkpt lat="49.84288" lon="2.24383">
        <ele>43.3</ele>
        <time>2023-02-25T13:29:38Z</time>
      </trkpt>
      <trkpt lat="49.84288" lon="2.24386">
        <ele>43.3</ele>
        <time>2023-02-25T13:29:39Z</time>
      </trkpt>
      <trkpt lat="49.84288" lon="2.24387">
        <ele>43.4</ele>
        <time>2023-02-25T13:29:40Z</time>
      </trkpt>
      <trkpt lat="49.84288" lon="2.24389">
        <ele>43.4</ele>
        <time>2023-02-25T13:29:42Z</time>
      </trkpt>
      <trkpt lat="49.84288" lon="2.2439">
        <ele>43.5</ele>
        <time>2023-02-25T13:29:43Z</time>
      </trkpt>
      <trkpt lat="49.84288" lon="2.24392">
        <ele>43.5</ele>
        <time>2023-02-25T13:29:44Z</time>
      </trkpt>
      <trkpt lat="49.84288" lon="2.24396">
        <ele>43.6</ele>
        <time>2023-02-25T13:29:45Z</time>
      </trkpt>
      <trkpt lat="49.84288" lon="2.24397">
        <ele>43.6</ele>
        <time>2023-02-25T13:29:46Z</time>
      </trkpt>
      <trkpt lat="49.84288" lon="2.24398">
        <ele>43.6</ele>
        <time>2023-02-25T13:29:47Z</time>
      </trkpt>
      <trkpt lat="49.84288" lon="2.244">
        <ele>43.7</ele>
        <time>2023-02-25T13:29:48Z</time>
      </trkpt>
      <trkpt lat="49.84288" lon="2.24403">
        <ele>43.8</ele>
        <time>2023-02-25T13:29:49Z</time>
      </trkpt>
      <trkpt lat="49.84287" lon="2.24405">
        <ele>43.8</ele>
        <time>2023-02-25T13:29:50Z</time>
      </trkpt>
      <trkpt lat="49.84287" lon="2.24406">
        <ele>43.9</ele>
        <time>2023-02-25T13:29:52Z</time>
      </trkpt>
      <trkpt lat="49.84287" lon="2.24407">
        <ele>43.9</ele>
        <time>2023-02-25T13:29:53Z</time>
      </trkpt>
      <trkpt lat="49.84287" lon="2.24409">
        <ele>43.9</ele>
        <time>2023-02-25T13:29:54Z</time>
      </trkpt>
      <trkpt lat="49.84287" lon="2.24411">
        <ele>44</ele>
        <time>2023-02-25T13:29:55Z</time>
      </trkpt>
      <trkpt lat="49.84287" lon="2.24412">
        <ele>44</ele>
        <time>2023-02-25T13:29:56Z</time>
      </trkpt>
      <trkpt lat="49.84287" lon="2.24414">
        <ele>44.1</ele>
        <time>2023-02-25T13:29:57Z</time>
      </trkpt>
      <trkpt lat="49.84287" lon="2.24416">
        <ele>44.1</ele>
        <time>2023-02-25T13:29:58Z</time>
      </trkpt>
      <trkpt lat="49.84287" lon="2.24418">
        <ele>44.2</ele>
        <time>2023-02-25T13:30:00Z</time>
      </trkpt>
      <trkpt lat="49.84287" lon="2.24419">
        <ele>44.2</ele>
        <time>2023-02-25T13:30:01Z</time>
      </trkpt>
      <trkpt lat="49.84287" lon="2.2442">
        <ele>44.2</ele>
        <time>2023-02-25T13:30:02Z</time>
      </trkpt>
      <trkpt lat="49.84287" lon="2.24422">
        <ele>44.3</ele>
        <time>2023-02-25T13:30:03Z</time>
      </trkpt>
      <trkpt lat="49.84287" lon="2.24424">
        <ele>44.4</ele>
        <time>2023-02-25T13:30:04Z</time>
      </trkpt>
      <trkpt lat="49.84287" lon="2.24426">
        <ele>44.4</ele>
        <time>2023-02-25T13:30:05Z</time>
      </trkpt>
      <trkpt lat="49.84287" lon="2.24428">
        <ele>44.5</ele>
        <time>2023-02-25T13:30:07Z</time>
      </trkpt>
      <trkpt lat="49.84286" lon="2.24429">
        <ele>44.5</ele>
        <time>2023-02-25T13:30:08Z</time>
      </trkpt>
      <trkpt lat="49.84286" lon="2.24431">
        <ele>44.6</ele>
        <time>2023-02-25T13:30:09Z</time>
      </trkpt>
      <trkpt lat="49.84285" lon="2.24432">
        <ele>44.6</ele>
        <time>2023-02-25T13:30:10Z</time>
      </trkpt>
      <trkpt lat="49.84285" lon="2.24433">
        <ele>44.7</ele>
        <time>2023-02-25T13:30:11Z</time>
      </trkpt>
      <trkpt lat="49.84284" lon="2.24435">
        <ele>44.7</ele>
        <time>2023-02-25T13:30:13Z</time>
      </trkpt>
      <trkpt lat="49.84284" lon="2.24436">
        <ele>44.8</ele>
        <time>2023-02-25T13:30:14Z</time>
      </trkpt>
      <trkpt lat="49.84283" lon="2.24438">
        <ele>44.9</ele>
        <time>2023-02-25T13:30:15Z</time>
      </trkpt>
      <trkpt lat="49.84283" lon="2.24439">
        <ele>44.9</ele>
        <time>2023-02-25T13:30:17Z</time>
      </trkpt>
      <trkpt lat="49.84282" lon="2.24441">
        <ele>45</ele>
        <time>2023-02-25T13:30:18Z</time>
      </trkpt>
      <trkpt lat="49.84282" lon="2.24442">
        <ele>45</ele>
        <time>2023-02-25T13:30:19Z</time>
      </trkpt>
      <trkpt lat="49.84282" lon="2.24444">
        <ele>45.1</ele>
        <time>2023-02-25T13:30:20Z</time>
      </trkpt>
      <trkpt lat="49.84282" lon="2.24445">
        <ele>45.1</ele>
        <time>2023-02-25T13:30:23Z</time>
      </trkpt>
      <trkpt lat="49.84282" lon="2.24446">
        <ele>45.2</ele>
        <time>2023-02-25T13:30:24Z</time>
      </trkpt>
      <trkpt lat="49.84282" lon="2.24447">
        <ele>45.2</ele>
        <time>2023-02-25T13:30:25Z</time>
      </trkpt>
      <trkpt lat="49.84284" lon="2.24448">
        <ele>45.3</ele>
        <time>2023-02-25T13:30:27Z</time>
      </trkpt>
      <trkpt lat="49.84284" lon="2.24448">
        <ele>45.3</ele>
        <time>2023-02-25T13:30:28Z</time>
      </trkpt>
      <trkpt lat="49.84284" lon="2.24448">
        <ele>45.3</ele>
        <time>2023-02-25T13:30:30Z</time>
      </trkpt>
      <trkpt lat="49.84284" lon="2.24448">
        <ele>45.3</ele>
        <time>2023-02-25T13:30:31Z</time>
      </trkpt>
      <trkpt lat="49.84284" lon="2.24447">
        <ele>45.3</ele>
        <time>2023-02-25T13:30:32Z</time>
      </trkpt>
      <trkpt lat="49.84284" lon="2.24447">
        <ele>45.3</ele>
        <time>2023-02-25T13:30:34Z</time>
      </trkpt>
      <trkpt lat="49.84284" lon="2.24447">
        <ele>45.3</ele>
        <time>2023-02-25T13:30:35Z</time>
      </trkpt>
      <trkpt lat="49.84284" lon="2.24447">
        <ele>45.3</ele>
        <time>2023-02-25T13:30:37Z</time>
      </trkpt>
      <trkpt lat="49.84284" lon="2.24447">
        <ele>45.4</ele>
        <time>2023-02-25T13:30:38Z</time>
      </trkpt>
      <trkpt lat="49.84284" lon="2.24448">
        <ele>45.4</ele>
        <time>2023-02-25T13:30:39Z</time>
      </trkpt>
      <trkpt lat="49.84284" lon="2.24448">
        <ele>45.4</ele>
        <time>2023-02-25T13:30:40Z</time>
      </trkpt>
      <trkpt lat="49.84283" lon="2.24449">
        <ele>45.4</ele>
        <time>2023-02-25T13:30:41Z</time>
      </trkpt>
      <trkpt lat="49.84283" lon="2.2445">
        <ele>45.4</ele>
        <time>2023-02-25T13:30:42Z</time>
      </trkpt>
      <trkpt lat="49.84283" lon="2.24451">
        <ele>45.4</ele>
        <time>2023-02-25T13:30:43Z</time>
      </trkpt>
      <trkpt lat="49.84283" lon="2.24452">
        <ele>45.4</ele>
        <time>2023-02-25T13:30:44Z</time>
      </trkpt>
      <trkpt lat="49.84283" lon="2.24454">
        <ele>45.4</ele>
        <time>2023-02-25T13:30:45Z</time>
      </trkpt>
      <trkpt lat="49.84283" lon="2.24456">
        <ele>45.4</ele>
        <time>2023-02-25T13:30:47Z</time>
      </trkpt>
      <trkpt lat="49.84283" lon="2.24457">
        <ele>45.4</ele>
        <time>2023-02-25T13:30:48Z</time>
      </trkpt>
      <trkpt lat="49.84283" lon="2.24459">
        <ele>45.4</ele>
        <time>2023-02-25T13:30:49Z</time>
      </trkpt>
      <trkpt lat="49.84283" lon="2.2446">
        <ele>45.4</ele>
        <time>2023-02-25T13:30:50Z</time>
      </trkpt>
      <trkpt lat="49.84284" lon="2.24463">
        <ele>45.3</ele>
        <time>2023-02-25T13:30:52Z</time>
      </trkpt>
      <trkpt lat="49.84285" lon="2.24463">
        <ele>45.3</ele>
        <time>2023-02-25T13:30:53Z</time>
      </trkpt>
      <trkpt lat="49.84286" lon="2.24463">
        <ele>45.3</ele>
        <time>2023-02-25T13:30:55Z</time>
      </trkpt>
      <trkpt lat="49.84285" lon="2.24464">
        <ele>45.3</ele>
        <time>2023-02-25T13:30:56Z</time>
      </trkpt>
      <trkpt lat="49.84284" lon="2.24465">
        <ele>45.3</ele>
        <time>2023-02-25T13:30:57Z</time>
      </trkpt>
      <trkpt lat="49.84284" lon="2.24466">
        <ele>45.3</ele>
        <time>2023-02-25T13:30:58Z</time>
      </trkpt>
      <trkpt lat="49.84283" lon="2.24467">
        <ele>45.3</ele>
        <time>2023-02-25T13:31:00Z</time>
      </trkpt>
      <trkpt lat="49.84282" lon="2.24468">
        <ele>45.2</ele>
        <time>2023-02-25T13:31:01Z</time>
      </trkpt>
      <trkpt lat="49.84281" lon="2.24469">
        <ele>45.2</ele>
        <time>2023-02-25T13:31:02Z</time>
      </trkpt>
      <trkpt lat="49.8428" lon="2.2447">
        <ele>45.2</ele>
        <time>2023-02-25T13:31:03Z</time>
      </trkpt>
      <trkpt lat="49.84279" lon="2.2447">
        <ele>45.2</ele>
        <time>2023-02-25T13:31:04Z</time>
      </trkpt>
      <trkpt lat="49.84278" lon="2.24471">
        <ele>45.2</ele>
        <time>2023-02-25T13:31:05Z</time>
      </trkpt>
      <trkpt lat="49.84277" lon="2.24471">
        <ele>45.2</ele>
        <time>2023-02-25T13:31:06Z</time>
      </trkpt>
      <trkpt lat="49.84275" lon="2.24472">
        <ele>45.1</ele>
        <time>2023-02-25T13:31:08Z</time>
      </trkpt>
      <trkpt lat="49.84274" lon="2.24472">
        <ele>45.1</ele>
        <time>2023-02-25T13:31:09Z</time>
      </trkpt>
      <trkpt lat="49.84273" lon="2.24472">
        <ele>45.1</ele>
        <time>2023-02-25T13:31:10Z</time>
      </trkpt>
      <trkpt lat="49.84272" lon="2.24473">
        <ele>45.1</ele>
        <time>2023-02-25T13:31:11Z</time>
      </trkpt>
      <trkpt lat="49.8427" lon="2.24473">
        <ele>45.1</ele>
        <time>2023-02-25T13:31:12Z</time>
      </trkpt>
      <trkpt lat="49.84268" lon="2.24474">
        <ele>45</ele>
        <time>2023-02-25T13:31:13Z</time>
      </trkpt>
      <trkpt lat="49.84268" lon="2.24474">
        <ele>45</ele>
        <time>2023-02-25T13:31:15Z</time>
      </trkpt>
      <trkpt lat="49.84267" lon="2.24474">
        <ele>45</ele>
        <time>2023-02-25T13:31:16Z</time>
      </trkpt>
      <trkpt lat="49.84266" lon="2.24475">
        <ele>45</ele>
        <time>2023-02-25T13:31:17Z</time>
      </trkpt>
      <trkpt lat="49.84265" lon="2.24476">
        <ele>45</ele>
        <time>2023-02-25T13:31:19Z</time>
      </trkpt>
      <trkpt lat="49.84264" lon="2.24477">
        <ele>45</ele>
        <time>2023-02-25T13:31:20Z</time>
      </trkpt>
      <trkpt lat="49.84263" lon="2.24478">
        <ele>45</ele>
        <time>2023-02-25T13:31:21Z</time>
      </trkpt>
      <trkpt lat="49.84262" lon="2.24479">
        <ele>45</ele>
        <time>2023-02-25T13:31:23Z</time>
      </trkpt>
      <trkpt lat="49.84261" lon="2.24479">
        <ele>45</ele>
        <time>2023-02-25T13:31:24Z</time>
      </trkpt>
      <trkpt lat="49.8426" lon="2.24479">
        <ele>44.9</ele>
        <time>2023-02-25T13:31:25Z</time>
      </trkpt>
      <trkpt lat="49.84259" lon="2.2448">
        <ele>44.9</ele>
        <time>2023-02-25T13:31:26Z</time>
      </trkpt>
      <trkpt lat="49.84258" lon="2.24479">
        <ele>44.9</ele>
        <time>2023-02-25T13:31:28Z</time>
      </trkpt>
      <trkpt lat="49.84257" lon="2.24479">
        <ele>44.9</ele>
        <time>2023-02-25T13:31:29Z</time>
      </trkpt>
      <trkpt lat="49.84256" lon="2.2448">
        <ele>44.9</ele>
        <time>2023-02-25T13:31:30Z</time>
      </trkpt>
      <trkpt lat="49.84255" lon="2.2448">
        <ele>44.9</ele>
        <time>2023-02-25T13:31:31Z</time>
      </trkpt>
      <trkpt lat="49.84253" lon="2.24481">
        <ele>44.9</ele>
        <time>2023-02-25T13:31:32Z</time>
      </trkpt>
      <trkpt lat="49.84252" lon="2.24482">
        <ele>44.9</ele>
        <time>2023-02-25T13:31:33Z</time>
      </trkpt>
      <trkpt lat="49.84251" lon="2.24482">
        <ele>44.9</ele>
        <time>2023-02-25T13:31:35Z</time>
      </trkpt>
      <trkpt lat="49.8425" lon="2.24482">
        <ele>44.8</ele>
        <time>2023-02-25T13:31:36Z</time>
      </trkpt>
      <trkpt lat="49.84249" lon="2.24482">
        <ele>44.8</ele>
        <time>2023-02-25T13:31:37Z</time>
      </trkpt>
      <trkpt lat="49.84248" lon="2.24483">
        <ele>44.8</ele>
        <time>2023-02-25T13:31:38Z</time>
      </trkpt>
      <trkpt lat="49.84247" lon="2.24483">
        <ele>44.8</ele>
        <time>2023-02-25T13:31:39Z</time>
      </trkpt>
      <trkpt lat="49.84245" lon="2.24483">
        <ele>44.8</ele>
        <time>2023-02-25T13:31:40Z</time>
      </trkpt>
      <trkpt lat="49.84244" lon="2.24484">
        <ele>44.8</ele>
        <time>2023-02-25T13:31:42Z</time>
      </trkpt>
      <trkpt lat="49.84243" lon="2.24484">
        <ele>44.8</ele>
        <time>2023-02-25T13:31:43Z</time>
      </trkpt>
      <trkpt lat="49.84242" lon="2.24484">
        <ele>44.8</ele>
        <time>2023-02-25T13:31:44Z</time>
      </trkpt>
      <trkpt lat="49.8424" lon="2.24485">
        <ele>44.8</ele>
        <time>2023-02-25T13:31:45Z</time>
      </trkpt>
      <trkpt lat="49.84239" lon="2.24485">
        <ele>44.8</ele>
        <time>2023-02-25T13:31:46Z</time>
      </trkpt>
      <trkpt lat="49.84237" lon="2.24485">
        <ele>44.8</ele>
        <time>2023-02-25T13:31:47Z</time>
      </trkpt>
      <trkpt lat="49.84236" lon="2.24485">
        <ele>44.8</ele>
        <time>2023-02-25T13:31:49Z</time>
      </trkpt>
      <trkpt lat="49.84235" lon="2.24486">
        <ele>44.8</ele>
        <time>2023-02-25T13:31:50Z</time>
      </trkpt>
      <trkpt lat="49.84234" lon="2.24486">
        <ele>44.8</ele>
        <time>2023-02-25T13:31:51Z</time>
      </trkpt>
      <trkpt lat="49.84232" lon="2.24486">
        <ele>44.8</ele>
        <time>2023-02-25T13:31:52Z</time>
      </trkpt>
      <trkpt lat="49.8423" lon="2.24487">
        <ele>44.8</ele>
        <time>2023-02-25T13:31:53Z</time>
      </trkpt>
      <trkpt lat="49.84229" lon="2.24487">
        <ele>44.8</ele>
        <time>2023-02-25T13:31:54Z</time>
      </trkpt>
      <trkpt lat="49.84229" lon="2.24488">
        <ele>44.8</ele>
        <time>2023-02-25T13:31:55Z</time>
      </trkpt>
      <trkpt lat="49.84228" lon="2.24488">
        <ele>44.8</ele>
        <time>2023-02-25T13:31:57Z</time>
      </trkpt>
      <trkpt lat="49.84227" lon="2.24488">
        <ele>44.8</ele>
        <time>2023-02-25T13:31:58Z</time>
      </trkpt>
      <trkpt lat="49.84225" lon="2.24489">
        <ele>44.8</ele>
        <time>2023-02-25T13:31:59Z</time>
      </trkpt>
      <trkpt lat="49.84224" lon="2.24489">
        <ele>44.8</ele>
        <time>2023-02-25T13:32:00Z</time>
      </trkpt>
      <trkpt lat="49.84223" lon="2.24489">
        <ele>44.8</ele>
        <time>2023-02-25T13:32:01Z</time>
      </trkpt>
      <trkpt lat="49.84222" lon="2.2449">
        <ele>44.8</ele>
        <time>2023-02-25T13:32:02Z</time>
      </trkpt>
      <trkpt lat="49.84221" lon="2.2449">
        <ele>44.8</ele>
        <time>2023-02-25T13:32:03Z</time>
      </trkpt>
      <trkpt lat="49.8422" lon="2.24491">
        <ele>44.8</ele>
        <time>2023-02-25T13:32:05Z</time>
      </trkpt>
      <trkpt lat="49.84219" lon="2.24491">
        <ele>44.8</ele>
        <time>2023-02-25T13:32:06Z</time>
      </trkpt>
      <trkpt lat="49.84218" lon="2.24492">
        <ele>44.8</ele>
        <time>2023-02-25T13:32:07Z</time>
      </trkpt>
      <trkpt lat="49.84217" lon="2.24492">
        <ele>44.8</ele>
        <time>2023-02-25T13:32:08Z</time>
      </trkpt>
      <trkpt lat="49.84216" lon="2.24493">
        <ele>44.8</ele>
        <time>2023-02-25T13:32:09Z</time>
      </trkpt>
      <trkpt lat="49.84213" lon="2.24494">
        <ele>44.8</ele>
        <time>2023-02-25T13:32:10Z</time>
      </trkpt>
      <trkpt lat="49.84213" lon="2.24494">
        <ele>44.7</ele>
        <time>2023-02-25T13:32:12Z</time>
      </trkpt>
      <trkpt lat="49.84212" lon="2.24494">
        <ele>44.7</ele>
        <time>2023-02-25T13:32:13Z</time>
      </trkpt>
      <trkpt lat="49.8421" lon="2.24495">
        <ele>44.7</ele>
        <time>2023-02-25T13:32:14Z</time>
      </trkpt>
      <trkpt lat="49.84209" lon="2.24495">
        <ele>44.7</ele>
        <time>2023-02-25T13:32:15Z</time>
      </trkpt>
      <trkpt lat="49.84208" lon="2.24495">
        <ele>44.7</ele>
        <time>2023-02-25T13:32:16Z</time>
      </trkpt>
      <trkpt lat="49.84207" lon="2.24495">
        <ele>44.7</ele>
        <time>2023-02-25T13:32:17Z</time>
      </trkpt>
      <trkpt lat="49.84206" lon="2.24496">
        <ele>44.7</ele>
        <time>2023-02-25T13:32:18Z</time>
      </trkpt>
      <trkpt lat="49.84204" lon="2.24496">
        <ele>44.7</ele>
        <time>2023-02-25T13:32:19Z</time>
      </trkpt>
      <trkpt lat="49.84203" lon="2.24497">
        <ele>44.7</ele>
        <time>2023-02-25T13:32:21Z</time>
      </trkpt>
      <trkpt lat="49.84202" lon="2.24497">
        <ele>44.7</ele>
        <time>2023-02-25T13:32:22Z</time>
      </trkpt>
      <trkpt lat="49.842" lon="2.24497">
        <ele>44.7</ele>
        <time>2023-02-25T13:32:23Z</time>
      </trkpt>
      <trkpt lat="49.84199" lon="2.24497">
        <ele>44.7</ele>
        <time>2023-02-25T13:32:24Z</time>
      </trkpt>
      <trkpt lat="49.84198" lon="2.24497">
        <ele>44.7</ele>
        <time>2023-02-25T13:32:25Z</time>
      </trkpt>
      <trkpt lat="49.84197" lon="2.24498">
        <ele>44.7</ele>
        <time>2023-02-25T13:32:26Z</time>
      </trkpt>
      <trkpt lat="49.84196" lon="2.24498">
        <ele>44.7</ele>
        <time>2023-02-25T13:32:27Z</time>
      </trkpt>
      <trkpt lat="49.84194" lon="2.24498">
        <ele>44.7</ele>
        <time>2023-02-25T13:32:28Z</time>
      </trkpt>
      <trkpt lat="49.84193" lon="2.24498">
        <ele>44.7</ele>
        <time>2023-02-25T13:32:30Z</time>
      </trkpt>
      <trkpt lat="49.84192" lon="2.24499">
        <ele>44.6</ele>
        <time>2023-02-25T13:32:31Z</time>
      </trkpt>
      <trkpt lat="49.84191" lon="2.24499">
        <ele>44.6</ele>
        <time>2023-02-25T13:32:32Z</time>
      </trkpt>
      <trkpt lat="49.84189" lon="2.24499">
        <ele>44.6</ele>
        <time>2023-02-25T13:32:33Z</time>
      </trkpt>
      <trkpt lat="49.84188" lon="2.245">
        <ele>44.6</ele>
        <time>2023-02-25T13:32:34Z</time>
      </trkpt>
      <trkpt lat="49.84187" lon="2.245">
        <ele>44.6</ele>
        <time>2023-02-25T13:32:35Z</time>
      </trkpt>
      <trkpt lat="49.84185" lon="2.245">
        <ele>44.6</ele>
        <time>2023-02-25T13:32:36Z</time>
      </trkpt>
      <trkpt lat="49.84185" lon="2.24501">
        <ele>44.6</ele>
        <time>2023-02-25T13:32:38Z</time>
      </trkpt>
      <trkpt lat="49.84184" lon="2.24502">
        <ele>44.6</ele>
        <time>2023-02-25T13:32:39Z</time>
      </trkpt>
      <trkpt lat="49.84183" lon="2.24503">
        <ele>44.6</ele>
        <time>2023-02-25T13:32:40Z</time>
      </trkpt>
      <trkpt lat="49.84181" lon="2.24504">
        <ele>44.6</ele>
        <time>2023-02-25T13:32:41Z</time>
      </trkpt>
      <trkpt lat="49.8418" lon="2.24505">
        <ele>44.6</ele>
        <time>2023-02-25T13:32:42Z</time>
      </trkpt>
      <trkpt lat="49.84178" lon="2.24506">
        <ele>44.6</ele>
        <time>2023-02-25T13:32:43Z</time>
      </trkpt>
      <trkpt lat="49.84178" lon="2.24507">
        <ele>44.5</ele>
        <time>2023-02-25T13:32:44Z</time>
      </trkpt>
      <trkpt lat="49.84177" lon="2.24508">
        <ele>44.5</ele>
        <time>2023-02-25T13:32:46Z</time>
      </trkpt>
      <trkpt lat="49.84176" lon="2.24509">
        <ele>44.5</ele>
        <time>2023-02-25T13:32:47Z</time>
      </trkpt>
      <trkpt lat="49.84175" lon="2.2451">
        <ele>44.5</ele>
        <time>2023-02-25T13:32:48Z</time>
      </trkpt>
      <trkpt lat="49.84174" lon="2.2451">
        <ele>44.5</ele>
        <time>2023-02-25T13:32:49Z</time>
      </trkpt>
      <trkpt lat="49.84173" lon="2.24511">
        <ele>44.5</ele>
        <time>2023-02-25T13:32:50Z</time>
      </trkpt>
      <trkpt lat="49.84172" lon="2.24513">
        <ele>44.5</ele>
        <time>2023-02-25T13:32:51Z</time>
      </trkpt>
      <trkpt lat="49.84172" lon="2.24513">
        <ele>44.5</ele>
        <time>2023-02-25T13:32:52Z</time>
      </trkpt>
      <trkpt lat="49.84171" lon="2.24514">
        <ele>44.5</ele>
        <time>2023-02-25T13:32:54Z</time>
      </trkpt>
      <trkpt lat="49.8417" lon="2.24515">
        <ele>44.5</ele>
        <time>2023-02-25T13:32:55Z</time>
      </trkpt>
      <trkpt lat="49.84169" lon="2.24517">
        <ele>44.5</ele>
        <time>2023-02-25T13:32:56Z</time>
      </trkpt>
      <trkpt lat="49.84168" lon="2.24517">
        <ele>44.5</ele>
        <time>2023-02-25T13:32:57Z</time>
      </trkpt>
      <trkpt lat="49.84168" lon="2.24518">
        <ele>44.5</ele>
        <time>2023-02-25T13:32:58Z</time>
      </trkpt>
      <trkpt lat="49.84167" lon="2.24518">
        <ele>44.5</ele>
        <time>2023-02-25T13:32:59Z</time>
      </trkpt>
      <trkpt lat="49.84166" lon="2.24519">
        <ele>44.5</ele>
        <time>2023-02-25T13:33:00Z</time>
      </trkpt>
      <trkpt lat="49.84165" lon="2.24521">
        <ele>44.5</ele>
        <time>2023-02-25T13:33:02Z</time>
      </trkpt>
      <trkpt lat="49.84164" lon="2.24522">
        <ele>44.5</ele>
        <time>2023-02-25T13:33:03Z</time>
      </trkpt>
      <trkpt lat="49.84164" lon="2.24522">
        <ele>44.5</ele>
        <time>2023-02-25T13:33:04Z</time>
      </trkpt>
      <trkpt lat="49.84163" lon="2.24524">
        <ele>44.5</ele>
        <time>2023-02-25T13:33:05Z</time>
      </trkpt>
      <trkpt lat="49.84161" lon="2.24525">
        <ele>44.5</ele>
        <time>2023-02-25T13:33:06Z</time>
      </trkpt>
      <trkpt lat="49.84161" lon="2.24526">
        <ele>44.5</ele>
        <time>2023-02-25T13:33:07Z</time>
      </trkpt>
      <trkpt lat="49.8416" lon="2.24527">
        <ele>44.5</ele>
        <time>2023-02-25T13:33:08Z</time>
      </trkpt>
      <trkpt lat="49.8416" lon="2.24528">
        <ele>44.5</ele>
        <time>2023-02-25T13:33:10Z</time>
      </trkpt>
      <trkpt lat="49.84159" lon="2.24529">
        <ele>44.5</ele>
        <time>2023-02-25T13:33:11Z</time>
      </trkpt>
      <trkpt lat="49.84158" lon="2.2453">
        <ele>44.5</ele>
        <time>2023-02-25T13:33:12Z</time>
      </trkpt>
      <trkpt lat="49.84157" lon="2.24531">
        <ele>44.5</ele>
        <time>2023-02-25T13:33:14Z</time>
      </trkpt>
      <trkpt lat="49.84156" lon="2.24532">
        <ele>44.5</ele>
        <time>2023-02-25T13:33:15Z</time>
      </trkpt>
      <trkpt lat="49.84156" lon="2.24532">
        <ele>44.5</ele>
        <time>2023-02-25T13:33:16Z</time>
      </trkpt>
      <trkpt lat="49.84156" lon="2.24531">
        <ele>44.4</ele>
        <time>2023-02-25T13:33:17Z</time>
      </trkpt>
      <trkpt lat="49.84156" lon="2.2453">
        <ele>44.4</ele>
        <time>2023-02-25T13:33:19Z</time>
      </trkpt>
      <trkpt lat="49.84156" lon="2.2453">
        <ele>44.4</ele>
        <time>2023-02-25T13:33:20Z</time>
      </trkpt>
      <trkpt lat="49.84156" lon="2.24529">
        <ele>44.4</ele>
        <time>2023-02-25T13:33:21Z</time>
      </trkpt>
      <trkpt lat="49.84156" lon="2.24529">
        <ele>44.4</ele>
        <time>2023-02-25T13:33:23Z</time>
      </trkpt>
      <trkpt lat="49.84156" lon="2.24529">
        <ele>44.4</ele>
        <time>2023-02-25T13:33:24Z</time>
      </trkpt>
      <trkpt lat="49.84156" lon="2.24529">
        <ele>44.4</ele>
        <time>2023-02-25T13:33:26Z</time>
      </trkpt>
      <trkpt lat="49.84156" lon="2.24529">
        <ele>44.4</ele>
        <time>2023-02-25T13:33:27Z</time>
      </trkpt>
      <trkpt lat="49.84156" lon="2.24529">
        <ele>44.4</ele>
        <time>2023-02-25T13:33:29Z</time>
      </trkpt>
      <trkpt lat="49.84156" lon="2.24529">
        <ele>44.4</ele>
        <time>2023-02-25T13:33:30Z</time>
      </trkpt>
      <trkpt lat="49.84157" lon="2.24529">
        <ele>44.4</ele>
        <time>2023-02-25T13:33:31Z</time>
      </trkpt>
      <trkpt lat="49.84157" lon="2.24529">
        <ele>44.4</ele>
        <time>2023-02-25T13:33:32Z</time>
      </trkpt>
      <trkpt lat="49.84157" lon="2.24529">
        <ele>44.4</ele>
        <time>2023-02-25T13:33:33Z</time>
      </trkpt>
      <trkpt lat="49.84157" lon="2.24529">
        <ele>44.4</ele>
        <time>2023-02-25T13:33:34Z</time>
      </trkpt>
      <trkpt lat="49.84157" lon="2.24529">
        <ele>44.4</ele>
        <time>2023-02-25T13:33:35Z</time>
      </trkpt>
      <trkpt lat="49.84157" lon="2.24529">
        <ele>44.4</ele>
        <time>2023-02-25T13:33:37Z</time>
      </trkpt>
      <trkpt lat="49.84157" lon="2.24529">
        <ele>44.4</ele>
        <time>2023-02-25T13:33:38Z</time>
      </trkpt>
      <trkpt lat="49.84157" lon="2.24529">
        <ele>44.4</ele>
        <time>2023-02-25T13:33:40Z</time>
      </trkpt>
      <trkpt lat="49.84157" lon="2.24529">
        <ele>44.4</ele>
        <time>2023-02-25T13:33:41Z</time>
      </trkpt>
      <trkpt lat="49.84157" lon="2.24529">
        <ele>44.4</ele>
        <time>2023-02-25T13:33:42Z</time>
      </trkpt>
      <trkpt lat="49.84157" lon="2.24529">
        <ele>44.4</ele>
        <time>2023-02-25T13:33:43Z</time>
      </trkpt>
      <trkpt lat="49.84157" lon="2.24529">
        <ele>44.4</ele>
        <time>2023-02-25T13:33:44Z</time>
      </trkpt>
      <trkpt lat="49.84157" lon="2.24529">
        <ele>44.4</ele>
        <time>2023-02-25T13:33:45Z</time>
      </trkpt>
      <trkpt lat="49.84157" lon="2.24529">
        <ele>44.4</ele>
        <time>2023-02-25T13:33:46Z</time>
      </trkpt>
      <trkpt lat="49.84157" lon="2.24529">
        <ele>44.4</ele>
        <time>2023-02-25T13:33:47Z</time>
      </trkpt>
      <trkpt lat="49.84157" lon="2.24529">
        <ele>44.4</ele>
        <time>2023-02-25T13:33:48Z</time>
      </trkpt>
      <trkpt lat="49.84157" lon="2.24529">
        <ele>44.4</ele>
        <time>2023-02-25T13:33:49Z</time>
      </trkpt>
      <trkpt lat="49.84157" lon="2.24529">
        <ele>44.4</ele>
        <time>2023-02-25T13:33:50Z</time>
      </trkpt>
      <trkpt lat="49.84157" lon="2.24529">
        <ele>44.4</ele>
        <time>2023-02-25T13:33:51Z</time>
      </trkpt>
      <trkpt lat="49.84157" lon="2.24529">
        <ele>44.4</ele>
        <time>2023-02-25T13:33:52Z</time>
      </trkpt>
      <trkpt lat="49.84157" lon="2.24529">
        <ele>44.4</ele>
        <time>2023-02-25T13:33:53Z</time>
      </trkpt>
      <trkpt lat="49.84157" lon="2.24529">
        <ele>44.4</ele>
        <time>2023-02-25T13:33:54Z</time>
      </trkpt>
      <trkpt lat="49.84157" lon="2.24529">
        <ele>44.4</ele>
        <time>2023-02-25T13:33:55Z</time>
      </trkpt>
      <trkpt lat="49.84157" lon="2.24529">
        <ele>44.4</ele>
        <time>2023-02-25T13:33:56Z</time>
      </trkpt>
      <trkpt lat="49.84157" lon="2.24529">
        <ele>44.4</ele>
        <time>2023-02-25T13:33:57Z</time>
      </trkpt>
      <trkpt lat="49.84157" lon="2.24529">
        <ele>44.4</ele>
        <time>2023-02-25T13:33:58Z</time>
      </trkpt>
      <trkpt lat="49.84157" lon="2.24529">
        <ele>44.4</ele>
        <time>2023-02-25T13:33:59Z</time>
      </trkpt>
      <trkpt lat="49.84157" lon="2.24529">
        <ele>44.4</ele>
        <time>2023-02-25T13:34:00Z</time>
      </trkpt>
      <trkpt lat="49.84157" lon="2.24529">
        <ele>44.4</ele>
        <time>2023-02-25T13:34:01Z</time>
      </trkpt>
      <trkpt lat="49.84157" lon="2.24529">
        <ele>44.4</ele>
        <time>2023-02-25T13:34:02Z</time>
      </trkpt>
      <trkpt lat="49.84157" lon="2.24529">
        <ele>44.4</ele>
        <time>2023-02-25T13:34:04Z</time>
      </trkpt>
      <trkpt lat="49.84157" lon="2.24529">
        <ele>44.4</ele>
        <time>2023-02-25T13:34:05Z</time>
      </trkpt>
      <trkpt lat="49.84157" lon="2.24529">
        <ele>44.4</ele>
        <time>2023-02-25T13:34:06Z</time>
      </trkpt>
      <trkpt lat="49.84157" lon="2.24529">
        <ele>44.4</ele>
        <time>2023-02-25T13:34:07Z</time>
      </trkpt>
      <trkpt lat="49.84157" lon="2.24529">
        <ele>44.4</ele>
        <time>2023-02-25T13:34:08Z</time>
      </trkpt>
      <trkpt lat="49.84157" lon="2.24529">
        <ele>44.4</ele>
        <time>2023-02-25T13:34:09Z</time>
      </trkpt>
      <trkpt lat="49.84157" lon="2.24529">
        <ele>44.4</ele>
        <time>2023-02-25T13:34:10Z</time>
      </trkpt>
      <trkpt lat="49.84157" lon="2.24529">
        <ele>44.4</ele>
        <time>2023-02-25T13:34:11Z</time>
      </trkpt>
      <trkpt lat="49.84157" lon="2.24529">
        <ele>44.4</ele>
        <time>2023-02-25T13:34:12Z</time>
      </trkpt>
      <trkpt lat="49.84157" lon="2.24529">
        <ele>44.4</ele>
        <time>2023-02-25T13:34:13Z</time>
      </trkpt>
      <trkpt lat="49.84157" lon="2.24529">
        <ele>44.4</ele>
        <time>2023-02-25T13:34:14Z</time>
      </trkpt>
      <trkpt lat="49.84157" lon="2.24529">
        <ele>44.4</ele>
        <time>2023-02-25T13:34:15Z</time>
      </trkpt>
      <trkpt lat="49.84157" lon="2.24529">
        <ele>44.4</ele>
        <time>2023-02-25T13:34:16Z</time>
      </trkpt>
      <trkpt lat="49.84157" lon="2.24529">
        <ele>44.4</ele>
        <time>2023-02-25T13:34:17Z</time>
      </trkpt>
      <trkpt lat="49.84157" lon="2.24529">
        <ele>44.4</ele>
        <time>2023-02-25T13:34:18Z</time>
      </trkpt>
      <trkpt lat="49.84157" lon="2.24529">
        <ele>44.4</ele>
        <time>2023-02-25T13:34:19Z</time>
      </trkpt>
      <trkpt lat="49.84157" lon="2.24529">
        <ele>44.4</ele>
        <time>2023-02-25T13:34:20Z</time>
      </trkpt>
      <trkpt lat="49.84157" lon="2.24529">
        <ele>44.4</ele>
        <time>2023-02-25T13:34:21Z</time>
      </trkpt>
      <trkpt lat="49.84157" lon="2.24529">
        <ele>44.4</ele>
        <time>2023-02-25T13:34:22Z</time>
      </trkpt>
      <trkpt lat="49.84157" lon="2.24529">
        <ele>44.4</ele>
        <time>2023-02-25T13:34:23Z</time>
      </trkpt>
      <trkpt lat="49.84157" lon="2.24529">
        <ele>44.4</ele>
        <time>2023-02-25T13:34:25Z</time>
      </trkpt>
      <trkpt lat="49.84157" lon="2.24529">
        <ele>44.4</ele>
        <time>2023-02-25T13:34:26Z</time>
      </trkpt>
      <trkpt lat="49.84157" lon="2.24529">
        <ele>44.4</ele>
        <time>2023-02-25T13:34:27Z</time>
      </trkpt>
      <trkpt lat="49.84158" lon="2.24528">
        <ele>44.4</ele>
        <time>2023-02-25T13:34:28Z</time>
      </trkpt>
      <trkpt lat="49.84159" lon="2.24527">
        <ele>44.4</ele>
        <time>2023-02-25T13:34:30Z</time>
      </trkpt>
      <trkpt lat="49.84159" lon="2.24526">
        <ele>44.4</ele>
        <time>2023-02-25T13:34:31Z</time>
      </trkpt>
      <trkpt lat="49.84159" lon="2.24526">
        <ele>44.4</ele>
        <time>2023-02-25T13:34:32Z</time>
      </trkpt>
      <trkpt lat="49.84159" lon="2.24527">
        <ele>44.4</ele>
        <time>2023-02-25T13:34:33Z</time>
      </trkpt>
      <trkpt lat="49.84158" lon="2.24528">
        <ele>44.4</ele>
        <time>2023-02-25T13:34:34Z</time>
      </trkpt>
      <trkpt lat="49.84158" lon="2.24528">
        <ele>44.4</ele>
        <time>2023-02-25T13:34:35Z</time>
      </trkpt>
      <trkpt lat="49.84157" lon="2.24528">
        <ele>44.4</ele>
        <time>2023-02-25T13:34:36Z</time>
      </trkpt>
      <trkpt lat="49.84156" lon="2.24529">
        <ele>44.4</ele>
        <time>2023-02-25T13:34:38Z</time>
      </trkpt>
      <trkpt lat="49.84155" lon="2.24529">
        <ele>44.4</ele>
        <time>2023-02-25T13:34:39Z</time>
      </trkpt>
      <trkpt lat="49.84153" lon="2.2453">
        <ele>44.4</ele>
        <time>2023-02-25T13:34:40Z</time>
      </trkpt>
      <trkpt lat="49.84152" lon="2.2453">
        <ele>44.4</ele>
        <time>2023-02-25T13:34:41Z</time>
      </trkpt>
      <trkpt lat="49.84151" lon="2.24531">
        <ele>44.4</ele>
        <time>2023-02-25T13:34:42Z</time>
      </trkpt>
      <trkpt lat="49.8415" lon="2.24531">
        <ele>44.4</ele>
        <time>2023-02-25T13:34:43Z</time>
      </trkpt>
      <trkpt lat="49.84149" lon="2.24532">
        <ele>44.4</ele>
        <time>2023-02-25T13:34:45Z</time>
      </trkpt>
      <trkpt lat="49.84148" lon="2.24533">
        <ele>44.4</ele>
        <time>2023-02-25T13:34:46Z</time>
      </trkpt>
      <trkpt lat="49.84147" lon="2.24533">
        <ele>44.4</ele>
        <time>2023-02-25T13:34:47Z</time>
      </trkpt>
      <trkpt lat="49.84146" lon="2.24534">
        <ele>44.4</ele>
        <time>2023-02-25T13:34:48Z</time>
      </trkpt>
      <trkpt lat="49.84144" lon="2.24534">
        <ele>44.4</ele>
        <time>2023-02-25T13:34:49Z</time>
      </trkpt>
      <trkpt lat="49.84144" lon="2.24534">
        <ele>44.4</ele>
        <time>2023-02-25T13:34:51Z</time>
      </trkpt>
      <trkpt lat="49.84143" lon="2.24535">
        <ele>44.4</ele>
        <time>2023-02-25T13:34:52Z</time>
      </trkpt>
      <trkpt lat="49.84142" lon="2.24535">
        <ele>44.4</ele>
        <time>2023-02-25T13:34:53Z</time>
      </trkpt>
      <trkpt lat="49.84142" lon="2.24536">
        <ele>44.4</ele>
        <time>2023-02-25T13:34:54Z</time>
      </trkpt>
      <trkpt lat="49.84141" lon="2.24538">
        <ele>44.4</ele>
        <time>2023-02-25T13:34:55Z</time>
      </trkpt>
      <trkpt lat="49.8414" lon="2.24539">
        <ele>44.4</ele>
        <time>2023-02-25T13:34:57Z</time>
      </trkpt>
      <trkpt lat="49.8414" lon="2.24539">
        <ele>44.4</ele>
        <time>2023-02-25T13:34:58Z</time>
      </trkpt>
      <trkpt lat="49.8414" lon="2.2454">
        <ele>44.4</ele>
        <time>2023-02-25T13:34:59Z</time>
      </trkpt>
      <trkpt lat="49.84139" lon="2.24541">
        <ele>44.4</ele>
        <time>2023-02-25T13:35:00Z</time>
      </trkpt>
      <trkpt lat="49.84138" lon="2.24543">
        <ele>44.4</ele>
        <time>2023-02-25T13:35:01Z</time>
      </trkpt>
      <trkpt lat="49.84138" lon="2.24544">
        <ele>44.4</ele>
        <time>2023-02-25T13:35:02Z</time>
      </trkpt>
      <trkpt lat="49.84137" lon="2.24545">
        <ele>44.4</ele>
        <time>2023-02-25T13:35:03Z</time>
      </trkpt>
      <trkpt lat="49.84137" lon="2.24547">
        <ele>44.4</ele>
        <time>2023-02-25T13:35:04Z</time>
      </trkpt>
      <trkpt lat="49.84136" lon="2.24549">
        <ele>44.4</ele>
        <time>2023-02-25T13:35:06Z</time>
      </trkpt>
      <trkpt lat="49.84136" lon="2.2455">
        <ele>44.4</ele>
        <time>2023-02-25T13:35:07Z</time>
      </trkpt>
      <trkpt lat="49.84135" lon="2.24553">
        <ele>44.4</ele>
        <time>2023-02-25T13:35:08Z</time>
      </trkpt>
      <trkpt lat="49.84134" lon="2.24554">
        <ele>44.4</ele>
        <time>2023-02-25T13:35:09Z</time>
      </trkpt>
      <trkpt lat="49.84134" lon="2.24555">
        <ele>44.4</ele>
        <time>2023-02-25T13:35:10Z</time>
      </trkpt>
      <trkpt lat="49.84133" lon="2.24557">
        <ele>44.4</ele>
        <time>2023-02-25T13:35:11Z</time>
      </trkpt>
      <trkpt lat="49.84132" lon="2.2456">
        <ele>44.4</ele>
        <time>2023-02-25T13:35:13Z</time>
      </trkpt>
      <trkpt lat="49.84132" lon="2.24562">
        <ele>44.4</ele>
        <time>2023-02-25T13:35:14Z</time>
      </trkpt>
      <trkpt lat="49.84131" lon="2.24563">
        <ele>44.4</ele>
        <time>2023-02-25T13:35:16Z</time>
      </trkpt>
      <trkpt lat="49.84131" lon="2.24564">
        <ele>44.4</ele>
        <time>2023-02-25T13:35:17Z</time>
      </trkpt>
      <trkpt lat="49.8413" lon="2.24565">
        <ele>44.4</ele>
        <time>2023-02-25T13:35:18Z</time>
      </trkpt>
      <trkpt lat="49.84129" lon="2.24567">
        <ele>44.4</ele>
        <time>2023-02-25T13:35:19Z</time>
      </trkpt>
      <trkpt lat="49.84129" lon="2.24569">
        <ele>44.4</ele>
        <time>2023-02-25T13:35:20Z</time>
      </trkpt>
      <trkpt lat="49.84128" lon="2.2457">
        <ele>44.4</ele>
        <time>2023-02-25T13:35:21Z</time>
      </trkpt>
      <trkpt lat="49.84128" lon="2.24572">
        <ele>44.4</ele>
        <time>2023-02-25T13:35:22Z</time>
      </trkpt>
      <trkpt lat="49.84127" lon="2.24574">
        <ele>44.4</ele>
        <time>2023-02-25T13:35:23Z</time>
      </trkpt>
      <trkpt lat="49.84126" lon="2.24575">
        <ele>44.4</ele>
        <time>2023-02-25T13:35:24Z</time>
      </trkpt>
      <trkpt lat="49.84126" lon="2.24577">
        <ele>44.4</ele>
        <time>2023-02-25T13:35:26Z</time>
      </trkpt>
      <trkpt lat="49.84126" lon="2.24578">
        <ele>44.4</ele>
        <time>2023-02-25T13:35:27Z</time>
      </trkpt>
      <trkpt lat="49.84125" lon="2.2458">
        <ele>44.4</ele>
        <time>2023-02-25T13:35:28Z</time>
      </trkpt>
      <trkpt lat="49.84125" lon="2.24582">
        <ele>44.4</ele>
        <time>2023-02-25T13:35:29Z</time>
      </trkpt>
      <trkpt lat="49.84124" lon="2.24583">
        <ele>44.4</ele>
        <time>2023-02-25T13:35:31Z</time>
      </trkpt>
      <trkpt lat="49.84124" lon="2.24585">
        <ele>44.4</ele>
        <time>2023-02-25T13:35:32Z</time>
      </trkpt>
      <trkpt lat="49.84123" lon="2.24586">
        <ele>44.4</ele>
        <time>2023-02-25T13:35:33Z</time>
      </trkpt>
      <trkpt lat="49.84123" lon="2.24587">
        <ele>44.4</ele>
        <time>2023-02-25T13:35:34Z</time>
      </trkpt>
      <trkpt lat="49.84123" lon="2.24589">
        <ele>44.4</ele>
        <time>2023-02-25T13:35:35Z</time>
      </trkpt>
      <trkpt lat="49.84123" lon="2.24591">
        <ele>44.4</ele>
        <time>2023-02-25T13:35:36Z</time>
      </trkpt>
      <trkpt lat="49.84123" lon="2.24592">
        <ele>44.4</ele>
        <time>2023-02-25T13:35:37Z</time>
      </trkpt>
      <trkpt lat="49.84123" lon="2.24594">
        <ele>44.4</ele>
        <time>2023-02-25T13:35:39Z</time>
      </trkpt>
      <trkpt lat="49.84123" lon="2.24595">
        <ele>44.4</ele>
        <time>2023-02-25T13:35:40Z</time>
      </trkpt>
      <trkpt lat="49.84122" lon="2.24596">
        <ele>44.4</ele>
        <time>2023-02-25T13:35:41Z</time>
      </trkpt>
      <trkpt lat="49.84122" lon="2.24599">
        <ele>44.4</ele>
        <time>2023-02-25T13:35:42Z</time>
      </trkpt>
      <trkpt lat="49.84122" lon="2.246">
        <ele>44.4</ele>
        <time>2023-02-25T13:35:43Z</time>
      </trkpt>
      <trkpt lat="49.84121" lon="2.24602">
        <ele>44.5</ele>
        <time>2023-02-25T13:35:44Z</time>
      </trkpt>
      <trkpt lat="49.8412" lon="2.24603">
        <ele>44.5</ele>
        <time>2023-02-25T13:35:45Z</time>
      </trkpt>
      <trkpt lat="49.84119" lon="2.24607">
        <ele>44.5</ele>
        <time>2023-02-25T13:35:46Z</time>
      </trkpt>
      <trkpt lat="49.84118" lon="2.24608">
        <ele>44.5</ele>
        <time>2023-02-25T13:35:47Z</time>
      </trkpt>
      <trkpt lat="49.84117" lon="2.2461">
        <ele>44.5</ele>
        <time>2023-02-25T13:35:49Z</time>
      </trkpt>
      <trkpt lat="49.84116" lon="2.24613">
        <ele>44.5</ele>
        <time>2023-02-25T13:35:50Z</time>
      </trkpt>
      <trkpt lat="49.84115" lon="2.24616">
        <ele>44.5</ele>
        <time>2023-02-25T13:35:51Z</time>
      </trkpt>
      <trkpt lat="49.84114" lon="2.24618">
        <ele>44.5</ele>
        <time>2023-02-25T13:35:52Z</time>
      </trkpt>
      <trkpt lat="49.84113" lon="2.2462">
        <ele>44.5</ele>
        <time>2023-02-25T13:35:53Z</time>
      </trkpt>
      <trkpt lat="49.84113" lon="2.24622">
        <ele>44.5</ele>
        <time>2023-02-25T13:35:54Z</time>
      </trkpt>
      <trkpt lat="49.84113" lon="2.24623">
        <ele>44.5</ele>
        <time>2023-02-25T13:35:55Z</time>
      </trkpt>
      <trkpt lat="49.84112" lon="2.24627">
        <ele>44.5</ele>
        <time>2023-02-25T13:35:56Z</time>
      </trkpt>
      <trkpt lat="49.84112" lon="2.24628">
        <ele>44.5</ele>
        <time>2023-02-25T13:35:58Z</time>
      </trkpt>
      <trkpt lat="49.84111" lon="2.2463">
        <ele>44.5</ele>
        <time>2023-02-25T13:35:59Z</time>
      </trkpt>
      <trkpt lat="49.84111" lon="2.24632">
        <ele>44.5</ele>
        <time>2023-02-25T13:36:00Z</time>
      </trkpt>
      <trkpt lat="49.84111" lon="2.24634">
        <ele>44.5</ele>
        <time>2023-02-25T13:36:01Z</time>
      </trkpt>
      <trkpt lat="49.8411" lon="2.24637">
        <ele>44.5</ele>
        <time>2023-02-25T13:36:02Z</time>
      </trkpt>
      <trkpt lat="49.84111" lon="2.24638">
        <ele>44.5</ele>
        <time>2023-02-25T13:36:03Z</time>
      </trkpt>
      <trkpt lat="49.84111" lon="2.24642">
        <ele>44.5</ele>
        <time>2023-02-25T13:36:04Z</time>
      </trkpt>
      <trkpt lat="49.84111" lon="2.24643">
        <ele>44.5</ele>
        <time>2023-02-25T13:36:05Z</time>
      </trkpt>
      <trkpt lat="49.84111" lon="2.24644">
        <ele>44.5</ele>
        <time>2023-02-25T13:36:06Z</time>
      </trkpt>
      <trkpt lat="49.84111" lon="2.24647">
        <ele>44.5</ele>
        <time>2023-02-25T13:36:08Z</time>
      </trkpt>
      <trkpt lat="49.84111" lon="2.24649">
        <ele>44.5</ele>
        <time>2023-02-25T13:36:09Z</time>
      </trkpt>
      <trkpt lat="49.8411" lon="2.24652">
        <ele>44.5</ele>
        <time>2023-02-25T13:36:10Z</time>
      </trkpt>
      <trkpt lat="49.8411" lon="2.24654">
        <ele>44.5</ele>
        <time>2023-02-25T13:36:11Z</time>
      </trkpt>
      <trkpt lat="49.8411" lon="2.24655">
        <ele>44.5</ele>
        <time>2023-02-25T13:36:12Z</time>
      </trkpt>
      <trkpt lat="49.8411" lon="2.24656">
        <ele>44.5</ele>
        <time>2023-02-25T13:36:13Z</time>
      </trkpt>
      <trkpt lat="49.84109" lon="2.24658">
        <ele>44.5</ele>
        <time>2023-02-25T13:36:14Z</time>
      </trkpt>
      <trkpt lat="49.84109" lon="2.2466">
        <ele>44.5</ele>
        <time>2023-02-25T13:36:15Z</time>
      </trkpt>
      <trkpt lat="49.84109" lon="2.24661">
        <ele>44.5</ele>
        <time>2023-02-25T13:36:17Z</time>
      </trkpt>
      <trkpt lat="49.84108" lon="2.24664">
        <ele>44.5</ele>
        <time>2023-02-25T13:36:18Z</time>
      </trkpt>
      <trkpt lat="49.84108" lon="2.24666">
        <ele>44.5</ele>
        <time>2023-02-25T13:36:19Z</time>
      </trkpt>
      <trkpt lat="49.84107" lon="2.24667">
        <ele>44.5</ele>
        <time>2023-02-25T13:36:20Z</time>
      </trkpt>
      <trkpt lat="49.84107" lon="2.24669">
        <ele>44.5</ele>
        <time>2023-02-25T13:36:21Z</time>
      </trkpt>
      <trkpt lat="49.84106" lon="2.24673">
        <ele>44.5</ele>
        <time>2023-02-25T13:36:22Z</time>
      </trkpt>
      <trkpt lat="49.84106" lon="2.24674">
        <ele>44.5</ele>
        <time>2023-02-25T13:36:23Z</time>
      </trkpt>
      <trkpt lat="49.84106" lon="2.24676">
        <ele>44.5</ele>
        <time>2023-02-25T13:36:25Z</time>
      </trkpt>
      <trkpt lat="49.84106" lon="2.24677">
        <ele>44.5</ele>
        <time>2023-02-25T13:36:26Z</time>
      </trkpt>
      <trkpt lat="49.84105" lon="2.24679">
        <ele>44.5</ele>
        <time>2023-02-25T13:36:27Z</time>
      </trkpt>
      <trkpt lat="49.84105" lon="2.2468">
        <ele>44.5</ele>
        <time>2023-02-25T13:36:28Z</time>
      </trkpt>
      <trkpt lat="49.84105" lon="2.24682">
        <ele>44.5</ele>
        <time>2023-02-25T13:36:29Z</time>
      </trkpt>
      <trkpt lat="49.84105" lon="2.24683">
        <ele>44.5</ele>
        <time>2023-02-25T13:36:30Z</time>
      </trkpt>
      <trkpt lat="49.84105" lon="2.24685">
        <ele>44.5</ele>
        <time>2023-02-25T13:36:31Z</time>
      </trkpt>
      <trkpt lat="49.84105" lon="2.24687">
        <ele>44.5</ele>
        <time>2023-02-25T13:36:32Z</time>
      </trkpt>
      <trkpt lat="49.84104" lon="2.24689">
        <ele>44.5</ele>
        <time>2023-02-25T13:36:33Z</time>
      </trkpt>
      <trkpt lat="49.84104" lon="2.2469">
        <ele>44.5</ele>
        <time>2023-02-25T13:36:35Z</time>
      </trkpt>
      <trkpt lat="49.84103" lon="2.24692">
        <ele>44.4</ele>
        <time>2023-02-25T13:36:36Z</time>
      </trkpt>
      <trkpt lat="49.84103" lon="2.24694">
        <ele>44.4</ele>
        <time>2023-02-25T13:36:37Z</time>
      </trkpt>
      <trkpt lat="49.84103" lon="2.24696">
        <ele>44.4</ele>
        <time>2023-02-25T13:36:38Z</time>
      </trkpt>
      <trkpt lat="49.84103" lon="2.24698">
        <ele>44.4</ele>
        <time>2023-02-25T13:36:39Z</time>
      </trkpt>
      <trkpt lat="49.84102" lon="2.24701">
        <ele>44.4</ele>
        <time>2023-02-25T13:36:41Z</time>
      </trkpt>
      <trkpt lat="49.84102" lon="2.24703">
        <ele>44.4</ele>
        <time>2023-02-25T13:36:42Z</time>
      </trkpt>
      <trkpt lat="49.84102" lon="2.24705">
        <ele>44.4</ele>
        <time>2023-02-25T13:36:43Z</time>
      </trkpt>
      <trkpt lat="49.84103" lon="2.24708">
        <ele>44.4</ele>
        <time>2023-02-25T13:36:45Z</time>
      </trkpt>
      <trkpt lat="49.84103" lon="2.24709">
        <ele>44.4</ele>
        <time>2023-02-25T13:36:46Z</time>
      </trkpt>
      <trkpt lat="49.84103" lon="2.24711">
        <ele>44.4</ele>
        <time>2023-02-25T13:36:47Z</time>
      </trkpt>
      <trkpt lat="49.84103" lon="2.24713">
        <ele>44.4</ele>
        <time>2023-02-25T13:36:48Z</time>
      </trkpt>
      <trkpt lat="49.84103" lon="2.24715">
        <ele>44.4</ele>
        <time>2023-02-25T13:36:49Z</time>
      </trkpt>
      <trkpt lat="49.84103" lon="2.24718">
        <ele>44.4</ele>
        <time>2023-02-25T13:36:50Z</time>
      </trkpt>
      <trkpt lat="49.84102" lon="2.2472">
        <ele>44.4</ele>
        <time>2023-02-25T13:36:51Z</time>
      </trkpt>
      <trkpt lat="49.84102" lon="2.24721">
        <ele>44.4</ele>
        <time>2023-02-25T13:36:52Z</time>
      </trkpt>
      <trkpt lat="49.84102" lon="2.24722">
        <ele>44.4</ele>
        <time>2023-02-25T13:36:54Z</time>
      </trkpt>
      <trkpt lat="49.84102" lon="2.24724">
        <ele>44.4</ele>
        <time>2023-02-25T13:36:55Z</time>
      </trkpt>
      <trkpt lat="49.84102" lon="2.24726">
        <ele>44.4</ele>
        <time>2023-02-25T13:36:56Z</time>
      </trkpt>
      <trkpt lat="49.84102" lon="2.24728">
        <ele>44.4</ele>
        <time>2023-02-25T13:36:57Z</time>
      </trkpt>
      <trkpt lat="49.84102" lon="2.2473">
        <ele>44.4</ele>
        <time>2023-02-25T13:36:58Z</time>
      </trkpt>
      <trkpt lat="49.84102" lon="2.24732">
        <ele>44.4</ele>
        <time>2023-02-25T13:36:59Z</time>
      </trkpt>
      <trkpt lat="49.84102" lon="2.24733">
        <ele>44.4</ele>
        <time>2023-02-25T13:37:00Z</time>
      </trkpt>
      <trkpt lat="49.84102" lon="2.24735">
        <ele>44.4</ele>
        <time>2023-02-25T13:37:01Z</time>
      </trkpt>
      <trkpt lat="49.84102" lon="2.24738">
        <ele>44.4</ele>
        <time>2023-02-25T13:37:03Z</time>
      </trkpt>
      <trkpt lat="49.84102" lon="2.24739">
        <ele>44.4</ele>
        <time>2023-02-25T13:37:04Z</time>
      </trkpt>
      <trkpt lat="49.84102" lon="2.24741">
        <ele>44.4</ele>
        <time>2023-02-25T13:37:05Z</time>
      </trkpt>
      <trkpt lat="49.84101" lon="2.24743">
        <ele>44.4</ele>
        <time>2023-02-25T13:37:06Z</time>
      </trkpt>
      <trkpt lat="49.84101" lon="2.24744">
        <ele>44.4</ele>
        <time>2023-02-25T13:37:07Z</time>
      </trkpt>
      <trkpt lat="49.84101" lon="2.24746">
        <ele>44.5</ele>
        <time>2023-02-25T13:37:08Z</time>
      </trkpt>
      <trkpt lat="49.84101" lon="2.24748">
        <ele>44.5</ele>
        <time>2023-02-25T13:37:09Z</time>
      </trkpt>
      <trkpt lat="49.84101" lon="2.24749">
        <ele>44.5</ele>
        <time>2023-02-25T13:37:10Z</time>
      </trkpt>
      <trkpt lat="49.84101" lon="2.24751">
        <ele>44.5</ele>
        <time>2023-02-25T13:37:12Z</time>
      </trkpt>
      <trkpt lat="49.84101" lon="2.24753">
        <ele>44.5</ele>
        <time>2023-02-25T13:37:13Z</time>
      </trkpt>
      <trkpt lat="49.84101" lon="2.24754">
        <ele>44.5</ele>
        <time>2023-02-25T13:37:14Z</time>
      </trkpt>
      <trkpt lat="49.84101" lon="2.24756">
        <ele>44.5</ele>
        <time>2023-02-25T13:37:15Z</time>
      </trkpt>
      <trkpt lat="49.84101" lon="2.24757">
        <ele>44.5</ele>
        <time>2023-02-25T13:37:16Z</time>
      </trkpt>
      <trkpt lat="49.84101" lon="2.24759">
        <ele>44.5</ele>
        <time>2023-02-25T13:37:17Z</time>
      </trkpt>
      <trkpt lat="49.84102" lon="2.24761">
        <ele>44.5</ele>
        <time>2023-02-25T13:37:18Z</time>
      </trkpt>
      <trkpt lat="49.84101" lon="2.24764">
        <ele>44.6</ele>
        <time>2023-02-25T13:37:19Z</time>
      </trkpt>
      <trkpt lat="49.84101" lon="2.24765">
        <ele>44.6</ele>
        <time>2023-02-25T13:37:20Z</time>
      </trkpt>
      <trkpt lat="49.841" lon="2.24766">
        <ele>44.6</ele>
        <time>2023-02-25T13:37:22Z</time>
      </trkpt>
      <trkpt lat="49.841" lon="2.24767">
        <ele>44.6</ele>
        <time>2023-02-25T13:37:23Z</time>
      </trkpt>
      <trkpt lat="49.84099" lon="2.24769">
        <ele>44.6</ele>
        <time>2023-02-25T13:37:24Z</time>
      </trkpt>
      <trkpt lat="49.84099" lon="2.2477">
        <ele>44.6</ele>
        <time>2023-02-25T13:37:25Z</time>
      </trkpt>
      <trkpt lat="49.84098" lon="2.24772">
        <ele>44.7</ele>
        <time>2023-02-25T13:37:27Z</time>
      </trkpt>
      <trkpt lat="49.84098" lon="2.24774">
        <ele>44.7</ele>
        <time>2023-02-25T13:37:28Z</time>
      </trkpt>
      <trkpt lat="49.84098" lon="2.24776">
        <ele>44.7</ele>
        <time>2023-02-25T13:37:29Z</time>
      </trkpt>
      <trkpt lat="49.84098" lon="2.24778">
        <ele>44.7</ele>
        <time>2023-02-25T13:37:30Z</time>
      </trkpt>
      <trkpt lat="49.84098" lon="2.2478">
        <ele>44.7</ele>
        <time>2023-02-25T13:37:31Z</time>
      </trkpt>
      <trkpt lat="49.84098" lon="2.24782">
        <ele>44.7</ele>
        <time>2023-02-25T13:37:32Z</time>
      </trkpt>
      <trkpt lat="49.84098" lon="2.24784">
        <ele>44.8</ele>
        <time>2023-02-25T13:37:33Z</time>
      </trkpt>
      <trkpt lat="49.84098" lon="2.24786">
        <ele>44.8</ele>
        <time>2023-02-25T13:37:34Z</time>
      </trkpt>
      <trkpt lat="49.84098" lon="2.24788">
        <ele>44.8</ele>
        <time>2023-02-25T13:37:36Z</time>
      </trkpt>
      <trkpt lat="49.84098" lon="2.24789">
        <ele>44.8</ele>
        <time>2023-02-25T13:37:37Z</time>
      </trkpt>
      <trkpt lat="49.84098" lon="2.24791">
        <ele>44.8</ele>
        <time>2023-02-25T13:37:38Z</time>
      </trkpt>
      <trkpt lat="49.84098" lon="2.24793">
        <ele>44.8</ele>
        <time>2023-02-25T13:37:39Z</time>
      </trkpt>
      <trkpt lat="49.84098" lon="2.24794">
        <ele>44.9</ele>
        <time>2023-02-25T13:37:40Z</time>
      </trkpt>
      <trkpt lat="49.84098" lon="2.24796">
        <ele>44.9</ele>
        <time>2023-02-25T13:37:41Z</time>
      </trkpt>
      <trkpt lat="49.84098" lon="2.24798">
        <ele>44.9</ele>
        <time>2023-02-25T13:37:43Z</time>
      </trkpt>
      <trkpt lat="49.84098" lon="2.24799">
        <ele>44.9</ele>
        <time>2023-02-25T13:37:44Z</time>
      </trkpt>
      <trkpt lat="49.84098" lon="2.24801">
        <ele>44.9</ele>
        <time>2023-02-25T13:37:45Z</time>
      </trkpt>
      <trkpt lat="49.84098" lon="2.24803">
        <ele>44.9</ele>
        <time>2023-02-25T13:37:46Z</time>
      </trkpt>
      <trkpt lat="49.84098" lon="2.24803">
        <ele>44.9</ele>
        <time>2023-02-25T13:37:47Z</time>
      </trkpt>
      <trkpt lat="49.84098" lon="2.24806">
        <ele>45</ele>
        <time>2023-02-25T13:37:49Z</time>
      </trkpt>
      <trkpt lat="49.84098" lon="2.24808">
        <ele>45</ele>
        <time>2023-02-25T13:37:50Z</time>
      </trkpt>
      <trkpt lat="49.84097" lon="2.24811">
        <ele>45</ele>
        <time>2023-02-25T13:37:51Z</time>
      </trkpt>
      <trkpt lat="49.84097" lon="2.24812">
        <ele>45</ele>
        <time>2023-02-25T13:37:52Z</time>
      </trkpt>
      <trkpt lat="49.84097" lon="2.24814">
        <ele>45</ele>
        <time>2023-02-25T13:37:53Z</time>
      </trkpt>
      <trkpt lat="49.84097" lon="2.24816">
        <ele>45</ele>
        <time>2023-02-25T13:37:55Z</time>
      </trkpt>
      <trkpt lat="49.84097" lon="2.24817">
        <ele>45.1</ele>
        <time>2023-02-25T13:37:56Z</time>
      </trkpt>
      <trkpt lat="49.84097" lon="2.24818">
        <ele>45.1</ele>
        <time>2023-02-25T13:37:57Z</time>
      </trkpt>
      <trkpt lat="49.84097" lon="2.2482">
        <ele>45.1</ele>
        <time>2023-02-25T13:37:58Z</time>
      </trkpt>
      <trkpt lat="49.84097" lon="2.24821">
        <ele>45.1</ele>
        <time>2023-02-25T13:37:59Z</time>
      </trkpt>
      <trkpt lat="49.84097" lon="2.24823">
        <ele>45.1</ele>
        <time>2023-02-25T13:38:00Z</time>
      </trkpt>
      <trkpt lat="49.84097" lon="2.24824">
        <ele>45.1</ele>
        <time>2023-02-25T13:38:01Z</time>
      </trkpt>
      <trkpt lat="49.84096" lon="2.24825">
        <ele>45.1</ele>
        <time>2023-02-25T13:38:02Z</time>
      </trkpt>
      <trkpt lat="49.84096" lon="2.24827">
        <ele>45.1</ele>
        <time>2023-02-25T13:38:04Z</time>
      </trkpt>
      <trkpt lat="49.84096" lon="2.24829">
        <ele>45.1</ele>
        <time>2023-02-25T13:38:05Z</time>
      </trkpt>
      <trkpt lat="49.84095" lon="2.2483">
        <ele>45.1</ele>
        <time>2023-02-25T13:38:06Z</time>
      </trkpt>
      <trkpt lat="49.84095" lon="2.24832">
        <ele>45.2</ele>
        <time>2023-02-25T13:38:07Z</time>
      </trkpt>
      <trkpt lat="49.84095" lon="2.24834">
        <ele>45.2</ele>
        <time>2023-02-25T13:38:08Z</time>
      </trkpt>
      <trkpt lat="49.84094" lon="2.24835">
        <ele>45.2</ele>
        <time>2023-02-25T13:38:10Z</time>
      </trkpt>
      <trkpt lat="49.84093" lon="2.24837">
        <ele>45.2</ele>
        <time>2023-02-25T13:38:11Z</time>
      </trkpt>
      <trkpt lat="49.84093" lon="2.24838">
        <ele>45.2</ele>
        <time>2023-02-25T13:38:12Z</time>
      </trkpt>
      <trkpt lat="49.84092" lon="2.24839">
        <ele>45.2</ele>
        <time>2023-02-25T13:38:13Z</time>
      </trkpt>
      <trkpt lat="49.84091" lon="2.2484">
        <ele>45.2</ele>
        <time>2023-02-25T13:38:14Z</time>
      </trkpt>
      <trkpt lat="49.84091" lon="2.24842">
        <ele>45.2</ele>
        <time>2023-02-25T13:38:15Z</time>
      </trkpt>
      <trkpt lat="49.8409" lon="2.24843">
        <ele>45.2</ele>
        <time>2023-02-25T13:38:16Z</time>
      </trkpt>
      <trkpt lat="49.84089" lon="2.24844">
        <ele>45.2</ele>
        <time>2023-02-25T13:38:18Z</time>
      </trkpt>
      <trkpt lat="49.84088" lon="2.24845">
        <ele>45.2</ele>
        <time>2023-02-25T13:38:19Z</time>
      </trkpt>
      <trkpt lat="49.84087" lon="2.24845">
        <ele>45.2</ele>
        <time>2023-02-25T13:38:20Z</time>
      </trkpt>
      <trkpt lat="49.84086" lon="2.24846">
        <ele>45.2</ele>
        <time>2023-02-25T13:38:21Z</time>
      </trkpt>
      <trkpt lat="49.84085" lon="2.24846">
        <ele>45.3</ele>
        <time>2023-02-25T13:38:22Z</time>
      </trkpt>
      <trkpt lat="49.84084" lon="2.24847">
        <ele>45.3</ele>
        <time>2023-02-25T13:38:24Z</time>
      </trkpt>
      <trkpt lat="49.84084" lon="2.24847">
        <ele>45.3</ele>
        <time>2023-02-25T13:38:25Z</time>
      </trkpt>
      <trkpt lat="49.84082" lon="2.24848">
        <ele>45.3</ele>
        <time>2023-02-25T13:38:26Z</time>
      </trkpt>
      <trkpt lat="49.84081" lon="2.24849">
        <ele>45.3</ele>
        <time>2023-02-25T13:38:27Z</time>
      </trkpt>
      <trkpt lat="49.8408" lon="2.24851">
        <ele>45.3</ele>
        <time>2023-02-25T13:38:28Z</time>
      </trkpt>
      <trkpt lat="49.84079" lon="2.24852">
        <ele>45.3</ele>
        <time>2023-02-25T13:38:29Z</time>
      </trkpt>
      <trkpt lat="49.84078" lon="2.24853">
        <ele>45.3</ele>
        <time>2023-02-25T13:38:31Z</time>
      </trkpt>
      <trkpt lat="49.84077" lon="2.24854">
        <ele>45.3</ele>
        <time>2023-02-25T13:38:32Z</time>
      </trkpt>
      <trkpt lat="49.84075" lon="2.24856">
        <ele>45.3</ele>
        <time>2023-02-25T13:38:33Z</time>
      </trkpt>
      <trkpt lat="49.84074" lon="2.24857">
        <ele>45.3</ele>
        <time>2023-02-25T13:38:34Z</time>
      </trkpt>
      <trkpt lat="49.84073" lon="2.24858">
        <ele>45.3</ele>
        <time>2023-02-25T13:38:35Z</time>
      </trkpt>
      <trkpt lat="49.84072" lon="2.24859">
        <ele>45.3</ele>
        <time>2023-02-25T13:38:36Z</time>
      </trkpt>
      <trkpt lat="49.8407" lon="2.2486">
        <ele>45.4</ele>
        <time>2023-02-25T13:38:38Z</time>
      </trkpt>
      <trkpt lat="49.84069" lon="2.24862">
        <ele>45.4</ele>
        <time>2023-02-25T13:38:39Z</time>
      </trkpt>
      <trkpt lat="49.84067" lon="2.24864">
        <ele>45.4</ele>
        <time>2023-02-25T13:38:40Z</time>
      </trkpt>
      <trkpt lat="49.84067" lon="2.24864">
        <ele>45.4</ele>
        <time>2023-02-25T13:38:41Z</time>
      </trkpt>
      <trkpt lat="49.84066" lon="2.24865">
        <ele>45.4</ele>
        <time>2023-02-25T13:38:42Z</time>
      </trkpt>
      <trkpt lat="49.84064" lon="2.24867">
        <ele>45.4</ele>
        <time>2023-02-25T13:38:43Z</time>
      </trkpt>
      <trkpt lat="49.84063" lon="2.24868">
        <ele>45.4</ele>
        <time>2023-02-25T13:38:45Z</time>
      </trkpt>
      <trkpt lat="49.84062" lon="2.24869">
        <ele>45.4</ele>
        <time>2023-02-25T13:38:46Z</time>
      </trkpt>
      <trkpt lat="49.84061" lon="2.2487">
        <ele>45.4</ele>
        <time>2023-02-25T13:38:47Z</time>
      </trkpt>
      <trkpt lat="49.84059" lon="2.24872">
        <ele>45.4</ele>
        <time>2023-02-25T13:38:48Z</time>
      </trkpt>
      <trkpt lat="49.84058" lon="2.24873">
        <ele>45.4</ele>
        <time>2023-02-25T13:38:49Z</time>
      </trkpt>
      <trkpt lat="49.84057" lon="2.24874">
        <ele>45.4</ele>
        <time>2023-02-25T13:38:50Z</time>
      </trkpt>
      <trkpt lat="49.84056" lon="2.24875">
        <ele>45.4</ele>
        <time>2023-02-25T13:38:51Z</time>
      </trkpt>
      <trkpt lat="49.84055" lon="2.24877">
        <ele>45.4</ele>
        <time>2023-02-25T13:38:53Z</time>
      </trkpt>
      <trkpt lat="49.84053" lon="2.24878">
        <ele>45.4</ele>
        <time>2023-02-25T13:38:54Z</time>
      </trkpt>
      <trkpt lat="49.84051" lon="2.2488">
        <ele>45.4</ele>
        <time>2023-02-25T13:38:55Z</time>
      </trkpt>
      <trkpt lat="49.8405" lon="2.24881">
        <ele>45.4</ele>
        <time>2023-02-25T13:38:56Z</time>
      </trkpt>
      <trkpt lat="49.84049" lon="2.24881">
        <ele>45.4</ele>
        <time>2023-02-25T13:38:57Z</time>
      </trkpt>
      <trkpt lat="49.84047" lon="2.24884">
        <ele>45.4</ele>
        <time>2023-02-25T13:38:58Z</time>
      </trkpt>
      <trkpt lat="49.84046" lon="2.24884">
        <ele>45.4</ele>
        <time>2023-02-25T13:38:59Z</time>
      </trkpt>
      <trkpt lat="49.84044" lon="2.24886">
        <ele>45.4</ele>
        <time>2023-02-25T13:39:01Z</time>
      </trkpt>
      <trkpt lat="49.84043" lon="2.24887">
        <ele>45.4</ele>
        <time>2023-02-25T13:39:02Z</time>
      </trkpt>
      <trkpt lat="49.84043" lon="2.24888">
        <ele>45.4</ele>
        <time>2023-02-25T13:39:03Z</time>
      </trkpt>
      <trkpt lat="49.84042" lon="2.24889">
        <ele>45.4</ele>
        <time>2023-02-25T13:39:04Z</time>
      </trkpt>
      <trkpt lat="49.84041" lon="2.2489">
        <ele>45.5</ele>
        <time>2023-02-25T13:39:05Z</time>
      </trkpt>
      <trkpt lat="49.8404" lon="2.24891">
        <ele>45.5</ele>
        <time>2023-02-25T13:39:06Z</time>
      </trkpt>
      <trkpt lat="49.84038" lon="2.24892">
        <ele>45.5</ele>
        <time>2023-02-25T13:39:08Z</time>
      </trkpt>
      <trkpt lat="49.84038" lon="2.24893">
        <ele>45.5</ele>
        <time>2023-02-25T13:39:09Z</time>
      </trkpt>
      <trkpt lat="49.84037" lon="2.24894">
        <ele>45.5</ele>
        <time>2023-02-25T13:39:10Z</time>
      </trkpt>
      <trkpt lat="49.84035" lon="2.24896">
        <ele>45.5</ele>
        <time>2023-02-25T13:39:11Z</time>
      </trkpt>
      <trkpt lat="49.84034" lon="2.24897">
        <ele>45.5</ele>
        <time>2023-02-25T13:39:12Z</time>
      </trkpt>
      <trkpt lat="49.84034" lon="2.24898">
        <ele>45.5</ele>
        <time>2023-02-25T13:39:13Z</time>
      </trkpt>
      <trkpt lat="49.84032" lon="2.249">
        <ele>45.5</ele>
        <time>2023-02-25T13:39:15Z</time>
      </trkpt>
      <trkpt lat="49.84032" lon="2.249">
        <ele>45.5</ele>
        <time>2023-02-25T13:39:16Z</time>
      </trkpt>
      <trkpt lat="49.84031" lon="2.24901">
        <ele>45.5</ele>
        <time>2023-02-25T13:39:17Z</time>
      </trkpt>
      <trkpt lat="49.84031" lon="2.24902">
        <ele>45.5</ele>
        <time>2023-02-25T13:39:18Z</time>
      </trkpt>
      <trkpt lat="49.8403" lon="2.24903">
        <ele>45.5</ele>
        <time>2023-02-25T13:39:19Z</time>
      </trkpt>
      <trkpt lat="49.84029" lon="2.24904">
        <ele>45.5</ele>
        <time>2023-02-25T13:39:20Z</time>
      </trkpt>
      <trkpt lat="49.84029" lon="2.24905">
        <ele>45.6</ele>
        <time>2023-02-25T13:39:21Z</time>
      </trkpt>
      <trkpt lat="49.84028" lon="2.24906">
        <ele>45.6</ele>
        <time>2023-02-25T13:39:23Z</time>
      </trkpt>
      <trkpt lat="49.84027" lon="2.24907">
        <ele>45.6</ele>
        <time>2023-02-25T13:39:24Z</time>
      </trkpt>
      <trkpt lat="49.84027" lon="2.24908">
        <ele>45.6</ele>
        <time>2023-02-25T13:39:25Z</time>
      </trkpt>
      <trkpt lat="49.84026" lon="2.24909">
        <ele>45.6</ele>
        <time>2023-02-25T13:39:26Z</time>
      </trkpt>
      <trkpt lat="49.84025" lon="2.24909">
        <ele>45.6</ele>
        <time>2023-02-25T13:39:27Z</time>
      </trkpt>
      <trkpt lat="49.84024" lon="2.2491">
        <ele>45.6</ele>
        <time>2023-02-25T13:39:28Z</time>
      </trkpt>
      <trkpt lat="49.84023" lon="2.24911">
        <ele>45.6</ele>
        <time>2023-02-25T13:39:30Z</time>
      </trkpt>
      <trkpt lat="49.84022" lon="2.24912">
        <ele>45.6</ele>
        <time>2023-02-25T13:39:31Z</time>
      </trkpt>
      <trkpt lat="49.84021" lon="2.24913">
        <ele>45.6</ele>
        <time>2023-02-25T13:39:32Z</time>
      </trkpt>
      <trkpt lat="49.84021" lon="2.24913">
        <ele>45.6</ele>
        <time>2023-02-25T13:39:33Z</time>
      </trkpt>
      <trkpt lat="49.8402" lon="2.24914">
        <ele>45.6</ele>
        <time>2023-02-25T13:39:34Z</time>
      </trkpt>
      <trkpt lat="49.84019" lon="2.24915">
        <ele>45.6</ele>
        <time>2023-02-25T13:39:36Z</time>
      </trkpt>
      <trkpt lat="49.84019" lon="2.24916">
        <ele>45.6</ele>
        <time>2023-02-25T13:39:37Z</time>
      </trkpt>
      <trkpt lat="49.84018" lon="2.24917">
        <ele>45.6</ele>
        <time>2023-02-25T13:39:38Z</time>
      </trkpt>
      <trkpt lat="49.84017" lon="2.24919">
        <ele>45.7</ele>
        <time>2023-02-25T13:39:39Z</time>
      </trkpt>
      <trkpt lat="49.84016" lon="2.2492">
        <ele>45.7</ele>
        <time>2023-02-25T13:39:40Z</time>
      </trkpt>
      <trkpt lat="49.84016" lon="2.24921">
        <ele>45.7</ele>
        <time>2023-02-25T13:39:41Z</time>
      </trkpt>
      <trkpt lat="49.84015" lon="2.24922">
        <ele>45.7</ele>
        <time>2023-02-25T13:39:43Z</time>
      </trkpt>
      <trkpt lat="49.84014" lon="2.24923">
        <ele>45.7</ele>
        <time>2023-02-25T13:39:44Z</time>
      </trkpt>
      <trkpt lat="49.84014" lon="2.24924">
        <ele>45.7</ele>
        <time>2023-02-25T13:39:45Z</time>
      </trkpt>
      <trkpt lat="49.84013" lon="2.24925">
        <ele>45.7</ele>
        <time>2023-02-25T13:39:46Z</time>
      </trkpt>
      <trkpt lat="49.84012" lon="2.24927">
        <ele>45.7</ele>
        <time>2023-02-25T13:39:47Z</time>
      </trkpt>
      <trkpt lat="49.84011" lon="2.24928">
        <ele>45.7</ele>
        <time>2023-02-25T13:39:48Z</time>
      </trkpt>
      <trkpt lat="49.84011" lon="2.24929">
        <ele>45.7</ele>
        <time>2023-02-25T13:39:50Z</time>
      </trkpt>
      <trkpt lat="49.8401" lon="2.24929">
        <ele>45.7</ele>
        <time>2023-02-25T13:39:51Z</time>
      </trkpt>
      <trkpt lat="49.84009" lon="2.2493">
        <ele>45.7</ele>
        <time>2023-02-25T13:39:52Z</time>
      </trkpt>
      <trkpt lat="49.84009" lon="2.24931">
        <ele>45.7</ele>
        <time>2023-02-25T13:39:53Z</time>
      </trkpt>
      <trkpt lat="49.84007" lon="2.24933">
        <ele>45.7</ele>
        <time>2023-02-25T13:39:54Z</time>
      </trkpt>
      <trkpt lat="49.84007" lon="2.24934">
        <ele>45.7</ele>
        <time>2023-02-25T13:39:55Z</time>
      </trkpt>
      <trkpt lat="49.84006" lon="2.24936">
        <ele>45.6</ele>
        <time>2023-02-25T13:39:57Z</time>
      </trkpt>
      <trkpt lat="49.84005" lon="2.24937">
        <ele>45.6</ele>
        <time>2023-02-25T13:39:58Z</time>
      </trkpt>
      <trkpt lat="49.84005" lon="2.24939">
        <ele>45.6</ele>
        <time>2023-02-25T13:39:59Z</time>
      </trkpt>
      <trkpt lat="49.84004" lon="2.2494">
        <ele>45.6</ele>
        <time>2023-02-25T13:40:00Z</time>
      </trkpt>
      <trkpt lat="49.84003" lon="2.24941">
        <ele>45.6</ele>
        <time>2023-02-25T13:40:01Z</time>
      </trkpt>
      <trkpt lat="49.84003" lon="2.24942">
        <ele>45.6</ele>
        <time>2023-02-25T13:40:02Z</time>
      </trkpt>
      <trkpt lat="49.84001" lon="2.24944">
        <ele>45.6</ele>
        <time>2023-02-25T13:40:03Z</time>
      </trkpt>
      <trkpt lat="49.84001" lon="2.24945">
        <ele>45.6</ele>
        <time>2023-02-25T13:40:04Z</time>
      </trkpt>
      <trkpt lat="49.84001" lon="2.24946">
        <ele>45.6</ele>
        <time>2023-02-25T13:40:06Z</time>
      </trkpt>
      <trkpt lat="49.84" lon="2.24946">
        <ele>45.6</ele>
        <time>2023-02-25T13:40:07Z</time>
      </trkpt>
      <trkpt lat="49.83999" lon="2.24947">
        <ele>45.6</ele>
        <time>2023-02-25T13:40:08Z</time>
      </trkpt>
      <trkpt lat="49.83998" lon="2.24948">
        <ele>45.6</ele>
        <time>2023-02-25T13:40:09Z</time>
      </trkpt>
      <trkpt lat="49.83997" lon="2.24949">
        <ele>45.6</ele>
        <time>2023-02-25T13:40:10Z</time>
      </trkpt>
      <trkpt lat="49.83996" lon="2.2495">
        <ele>45.6</ele>
        <time>2023-02-25T13:40:11Z</time>
      </trkpt>
      <trkpt lat="49.83995" lon="2.2495">
        <ele>45.5</ele>
        <time>2023-02-25T13:40:13Z</time>
      </trkpt>
      <trkpt lat="49.83994" lon="2.24951">
        <ele>45.5</ele>
        <time>2023-02-25T13:40:14Z</time>
      </trkpt>
      <trkpt lat="49.83994" lon="2.24952">
        <ele>45.5</ele>
        <time>2023-02-25T13:40:15Z</time>
      </trkpt>
      <trkpt lat="49.83993" lon="2.24953">
        <ele>45.5</ele>
        <time>2023-02-25T13:40:16Z</time>
      </trkpt>
      <trkpt lat="49.83992" lon="2.24955">
        <ele>45.5</ele>
        <time>2023-02-25T13:40:17Z</time>
      </trkpt>
      <trkpt lat="49.83991" lon="2.24956">
        <ele>45.5</ele>
        <time>2023-02-25T13:40:18Z</time>
      </trkpt>
      <trkpt lat="49.8399" lon="2.24956">
        <ele>45.5</ele>
        <time>2023-02-25T13:40:19Z</time>
      </trkpt>
      <trkpt lat="49.83989" lon="2.24958">
        <ele>45.4</ele>
        <time>2023-02-25T13:40:20Z</time>
      </trkpt>
      <trkpt lat="49.83988" lon="2.24959">
        <ele>45.4</ele>
        <time>2023-02-25T13:40:21Z</time>
      </trkpt>
      <trkpt lat="49.83987" lon="2.2496">
        <ele>45.4</ele>
        <time>2023-02-25T13:40:23Z</time>
      </trkpt>
      <trkpt lat="49.83986" lon="2.24961">
        <ele>45.4</ele>
        <time>2023-02-25T13:40:24Z</time>
      </trkpt>
      <trkpt lat="49.83986" lon="2.24962">
        <ele>45.4</ele>
        <time>2023-02-25T13:40:25Z</time>
      </trkpt>
      <trkpt lat="49.83985" lon="2.24963">
        <ele>45.4</ele>
        <time>2023-02-25T13:40:26Z</time>
      </trkpt>
      <trkpt lat="49.83983" lon="2.24966">
        <ele>45.4</ele>
        <time>2023-02-25T13:40:27Z</time>
      </trkpt>
      <trkpt lat="49.83982" lon="2.24967">
        <ele>45.3</ele>
        <time>2023-02-25T13:40:28Z</time>
      </trkpt>
      <trkpt lat="49.83982" lon="2.24968">
        <ele>45.3</ele>
        <time>2023-02-25T13:40:29Z</time>
      </trkpt>
      <trkpt lat="49.83981" lon="2.24969">
        <ele>45.3</ele>
        <time>2023-02-25T13:40:30Z</time>
      </trkpt>
      <trkpt lat="49.8398" lon="2.2497">
        <ele>45.3</ele>
        <time>2023-02-25T13:40:31Z</time>
      </trkpt>
      <trkpt lat="49.8398" lon="2.24972">
        <ele>45.3</ele>
        <time>2023-02-25T13:40:33Z</time>
      </trkpt>
      <trkpt lat="49.8398" lon="2.24974">
        <ele>45.3</ele>
        <time>2023-02-25T13:40:35Z</time>
      </trkpt>
      <trkpt lat="49.8398" lon="2.24975">
        <ele>45.3</ele>
        <time>2023-02-25T13:40:36Z</time>
      </trkpt>
      <trkpt lat="49.83979" lon="2.24976">
        <ele>45.3</ele>
        <time>2023-02-25T13:40:37Z</time>
      </trkpt>
      <trkpt lat="49.83979" lon="2.24976">
        <ele>45.3</ele>
        <time>2023-02-25T13:40:38Z</time>
      </trkpt>
      <trkpt lat="49.83978" lon="2.24977">
        <ele>45.3</ele>
        <time>2023-02-25T13:40:39Z</time>
      </trkpt>
      <trkpt lat="49.83977" lon="2.24978">
        <ele>45.3</ele>
        <time>2023-02-25T13:40:40Z</time>
      </trkpt>
      <trkpt lat="49.83976" lon="2.24978">
        <ele>45.3</ele>
        <time>2023-02-25T13:40:41Z</time>
      </trkpt>
      <trkpt lat="49.83975" lon="2.24979">
        <ele>45.3</ele>
        <time>2023-02-25T13:40:43Z</time>
      </trkpt>
      <trkpt lat="49.83973" lon="2.24979">
        <ele>45.3</ele>
        <time>2023-02-25T13:40:44Z</time>
      </trkpt>
      <trkpt lat="49.83973" lon="2.2498">
        <ele>45.3</ele>
        <time>2023-02-25T13:40:45Z</time>
      </trkpt>
      <trkpt lat="49.83972" lon="2.2498">
        <ele>45.3</ele>
        <time>2023-02-25T13:40:46Z</time>
      </trkpt>
      <trkpt lat="49.83971" lon="2.24981">
        <ele>45.3</ele>
        <time>2023-02-25T13:40:47Z</time>
      </trkpt>
      <trkpt lat="49.83969" lon="2.24982">
        <ele>45.3</ele>
        <time>2023-02-25T13:40:48Z</time>
      </trkpt>
      <trkpt lat="49.83968" lon="2.24983">
        <ele>45.3</ele>
        <time>2023-02-25T13:40:49Z</time>
      </trkpt>
      <trkpt lat="49.83967" lon="2.24984">
        <ele>45.3</ele>
        <time>2023-02-25T13:40:50Z</time>
      </trkpt>
      <trkpt lat="49.83966" lon="2.24984">
        <ele>45.3</ele>
        <time>2023-02-25T13:40:52Z</time>
      </trkpt>
      <trkpt lat="49.83966" lon="2.24985">
        <ele>45.3</ele>
        <time>2023-02-25T13:40:53Z</time>
      </trkpt>
      <trkpt lat="49.83965" lon="2.24986">
        <ele>45.3</ele>
        <time>2023-02-25T13:40:54Z</time>
      </trkpt>
      <trkpt lat="49.83964" lon="2.24987">
        <ele>45.4</ele>
        <time>2023-02-25T13:40:55Z</time>
      </trkpt>
      <trkpt lat="49.83963" lon="2.24989">
        <ele>45.4</ele>
        <time>2023-02-25T13:40:56Z</time>
      </trkpt>
      <trkpt lat="49.83962" lon="2.2499">
        <ele>45.4</ele>
        <time>2023-02-25T13:40:57Z</time>
      </trkpt>
      <trkpt lat="49.83961" lon="2.24991">
        <ele>45.4</ele>
        <time>2023-02-25T13:40:58Z</time>
      </trkpt>
      <trkpt lat="49.83959" lon="2.24993">
        <ele>45.4</ele>
        <time>2023-02-25T13:40:59Z</time>
      </trkpt>
      <trkpt lat="49.83959" lon="2.24994">
        <ele>45.4</ele>
        <time>2023-02-25T13:41:00Z</time>
      </trkpt>
      <trkpt lat="49.83958" lon="2.24995">
        <ele>45.5</ele>
        <time>2023-02-25T13:41:02Z</time>
      </trkpt>
      <trkpt lat="49.83957" lon="2.24995">
        <ele>45.5</ele>
        <time>2023-02-25T13:41:03Z</time>
      </trkpt>
      <trkpt lat="49.83956" lon="2.24996">
        <ele>45.5</ele>
        <time>2023-02-25T13:41:04Z</time>
      </trkpt>
      <trkpt lat="49.83955" lon="2.24997">
        <ele>45.5</ele>
        <time>2023-02-25T13:41:05Z</time>
      </trkpt>
      <trkpt lat="49.83954" lon="2.24998">
        <ele>45.5</ele>
        <time>2023-02-25T13:41:06Z</time>
      </trkpt>
      <trkpt lat="49.83953" lon="2.24999">
        <ele>45.5</ele>
        <time>2023-02-25T13:41:07Z</time>
      </trkpt>
      <trkpt lat="49.83953" lon="2.24999">
        <ele>45.6</ele>
        <time>2023-02-25T13:41:08Z</time>
      </trkpt>
      <trkpt lat="49.83951" lon="2.25001">
        <ele>45.6</ele>
        <time>2023-02-25T13:41:09Z</time>
      </trkpt>
      <trkpt lat="49.8395" lon="2.25003">
        <ele>45.6</ele>
        <time>2023-02-25T13:41:11Z</time>
      </trkpt>
      <trkpt lat="49.83949" lon="2.25004">
        <ele>45.6</ele>
        <time>2023-02-25T13:41:12Z</time>
      </trkpt>
      <trkpt lat="49.83948" lon="2.25005">
        <ele>45.7</ele>
        <time>2023-02-25T13:41:13Z</time>
      </trkpt>
      <trkpt lat="49.83947" lon="2.25007">
        <ele>45.7</ele>
        <time>2023-02-25T13:41:14Z</time>
      </trkpt>
      <trkpt lat="49.83946" lon="2.25008">
        <ele>45.7</ele>
        <time>2023-02-25T13:41:15Z</time>
      </trkpt>
      <trkpt lat="49.83945" lon="2.25009">
        <ele>45.7</ele>
        <time>2023-02-25T13:41:16Z</time>
      </trkpt>
      <trkpt lat="49.83944" lon="2.25011">
        <ele>45.8</ele>
        <time>2023-02-25T13:41:17Z</time>
      </trkpt>
      <trkpt lat="49.83943" lon="2.25012">
        <ele>45.8</ele>
        <time>2023-02-25T13:41:19Z</time>
      </trkpt>
      <trkpt lat="49.83942" lon="2.25013">
        <ele>45.8</ele>
        <time>2023-02-25T13:41:20Z</time>
      </trkpt>
      <trkpt lat="49.83941" lon="2.25014">
        <ele>45.8</ele>
        <time>2023-02-25T13:41:21Z</time>
      </trkpt>
      <trkpt lat="49.83939" lon="2.25016">
        <ele>45.9</ele>
        <time>2023-02-25T13:41:22Z</time>
      </trkpt>
      <trkpt lat="49.83938" lon="2.25017">
        <ele>45.9</ele>
        <time>2023-02-25T13:41:23Z</time>
      </trkpt>
      <trkpt lat="49.83938" lon="2.25018">
        <ele>45.9</ele>
        <time>2023-02-25T13:41:24Z</time>
      </trkpt>
      <trkpt lat="49.83936" lon="2.2502">
        <ele>45.9</ele>
        <time>2023-02-25T13:41:26Z</time>
      </trkpt>
      <trkpt lat="49.83936" lon="2.25021">
        <ele>45.9</ele>
        <time>2023-02-25T13:41:27Z</time>
      </trkpt>
      <trkpt lat="49.83935" lon="2.25022">
        <ele>46</ele>
        <time>2023-02-25T13:41:28Z</time>
      </trkpt>
      <trkpt lat="49.83934" lon="2.25024">
        <ele>46</ele>
        <time>2023-02-25T13:41:29Z</time>
      </trkpt>
      <trkpt lat="49.83933" lon="2.25025">
        <ele>46</ele>
        <time>2023-02-25T13:41:30Z</time>
      </trkpt>
      <trkpt lat="49.83932" lon="2.25028">
        <ele>46</ele>
        <time>2023-02-25T13:41:32Z</time>
      </trkpt>
      <trkpt lat="49.83931" lon="2.25029">
        <ele>46.1</ele>
        <time>2023-02-25T13:41:33Z</time>
      </trkpt>
      <trkpt lat="49.83931" lon="2.2503">
        <ele>46.1</ele>
        <time>2023-02-25T13:41:34Z</time>
      </trkpt>
      <trkpt lat="49.8393" lon="2.25031">
        <ele>46.1</ele>
        <time>2023-02-25T13:41:35Z</time>
      </trkpt>
      <trkpt lat="49.8393" lon="2.25033">
        <ele>46.1</ele>
        <time>2023-02-25T13:41:36Z</time>
      </trkpt>
      <trkpt lat="49.83929" lon="2.25034">
        <ele>46.1</ele>
        <time>2023-02-25T13:41:38Z</time>
      </trkpt>
      <trkpt lat="49.83929" lon="2.25035">
        <ele>46.1</ele>
        <time>2023-02-25T13:41:39Z</time>
      </trkpt>
      <trkpt lat="49.83928" lon="2.25037">
        <ele>46.2</ele>
        <time>2023-02-25T13:41:40Z</time>
      </trkpt>
      <trkpt lat="49.83927" lon="2.25038">
        <ele>46.2</ele>
        <time>2023-02-25T13:41:41Z</time>
      </trkpt>
      <trkpt lat="49.83926" lon="2.25039">
        <ele>46.2</ele>
        <time>2023-02-25T13:41:42Z</time>
      </trkpt>
      <trkpt lat="49.83926" lon="2.2504">
        <ele>46.2</ele>
        <time>2023-02-25T13:41:44Z</time>
      </trkpt>
      <trkpt lat="49.83925" lon="2.25041">
        <ele>46.2</ele>
        <time>2023-02-25T13:41:45Z</time>
      </trkpt>
      <trkpt lat="49.83924" lon="2.25043">
        <ele>46.3</ele>
        <time>2023-02-25T13:41:46Z</time>
      </trkpt>
      <trkpt lat="49.83923" lon="2.25044">
        <ele>46.3</ele>
        <time>2023-02-25T13:41:47Z</time>
      </trkpt>
      <trkpt lat="49.83922" lon="2.25045">
        <ele>46.3</ele>
        <time>2023-02-25T13:41:49Z</time>
      </trkpt>
      <trkpt lat="49.83921" lon="2.25047">
        <ele>46.3</ele>
        <time>2023-02-25T13:41:50Z</time>
      </trkpt>
      <trkpt lat="49.8392" lon="2.25048">
        <ele>46.3</ele>
        <time>2023-02-25T13:41:51Z</time>
      </trkpt>
      <trkpt lat="49.8392" lon="2.25049">
        <ele>46.3</ele>
        <time>2023-02-25T13:41:52Z</time>
      </trkpt>
      <trkpt lat="49.83919" lon="2.2505">
        <ele>46.4</ele>
        <time>2023-02-25T13:41:54Z</time>
      </trkpt>
      <trkpt lat="49.83917" lon="2.25051">
        <ele>46.4</ele>
        <time>2023-02-25T13:41:55Z</time>
      </trkpt>
      <trkpt lat="49.83917" lon="2.25052">
        <ele>46.4</ele>
        <time>2023-02-25T13:41:56Z</time>
      </trkpt>
      <trkpt lat="49.83916" lon="2.25053">
        <ele>46.4</ele>
        <time>2023-02-25T13:41:57Z</time>
      </trkpt>
      <trkpt lat="49.83915" lon="2.25054">
        <ele>46.4</ele>
        <time>2023-02-25T13:41:58Z</time>
      </trkpt>
      <trkpt lat="49.83913" lon="2.25055">
        <ele>46.5</ele>
        <time>2023-02-25T13:41:59Z</time>
      </trkpt>
      <trkpt lat="49.83912" lon="2.25055">
        <ele>46.5</ele>
        <time>2023-02-25T13:42:01Z</time>
      </trkpt>
      <trkpt lat="49.83911" lon="2.25056">
        <ele>46.5</ele>
        <time>2023-02-25T13:42:02Z</time>
      </trkpt>
      <trkpt lat="49.8391" lon="2.25056">
        <ele>46.5</ele>
        <time>2023-02-25T13:42:03Z</time>
      </trkpt>
      <trkpt lat="49.83908" lon="2.25057">
        <ele>46.5</ele>
        <time>2023-02-25T13:42:04Z</time>
      </trkpt>
      <trkpt lat="49.83908" lon="2.25057">
        <ele>46.5</ele>
        <time>2023-02-25T13:42:05Z</time>
      </trkpt>
      <trkpt lat="49.83906" lon="2.25057">
        <ele>46.6</ele>
        <time>2023-02-25T13:42:06Z</time>
      </trkpt>
      <trkpt lat="49.83905" lon="2.25057">
        <ele>46.6</ele>
        <time>2023-02-25T13:42:08Z</time>
      </trkpt>
      <trkpt lat="49.83904" lon="2.25056">
        <ele>46.6</ele>
        <time>2023-02-25T13:42:09Z</time>
      </trkpt>
      <trkpt lat="49.83903" lon="2.25056">
        <ele>46.6</ele>
        <time>2023-02-25T13:42:10Z</time>
      </trkpt>
      <trkpt lat="49.83902" lon="2.25056">
        <ele>46.6</ele>
        <time>2023-02-25T13:42:11Z</time>
      </trkpt>
      <trkpt lat="49.839" lon="2.25055">
        <ele>46.7</ele>
        <time>2023-02-25T13:42:12Z</time>
      </trkpt>
      <trkpt lat="49.83899" lon="2.25054">
        <ele>46.7</ele>
        <time>2023-02-25T13:42:13Z</time>
      </trkpt>
      <trkpt lat="49.83898" lon="2.25054">
        <ele>46.7</ele>
        <time>2023-02-25T13:42:14Z</time>
      </trkpt>
      <trkpt lat="49.83897" lon="2.25053">
        <ele>46.7</ele>
        <time>2023-02-25T13:42:15Z</time>
      </trkpt>
      <trkpt lat="49.83896" lon="2.25052">
        <ele>46.7</ele>
        <time>2023-02-25T13:42:17Z</time>
      </trkpt>
      <trkpt lat="49.83895" lon="2.25052">
        <ele>46.7</ele>
        <time>2023-02-25T13:42:18Z</time>
      </trkpt>
      <trkpt lat="49.83894" lon="2.25051">
        <ele>46.7</ele>
        <time>2023-02-25T13:42:19Z</time>
      </trkpt>
      <trkpt lat="49.83893" lon="2.2505">
        <ele>46.7</ele>
        <time>2023-02-25T13:42:20Z</time>
      </trkpt>
      <trkpt lat="49.83892" lon="2.2505">
        <ele>46.8</ele>
        <time>2023-02-25T13:42:21Z</time>
      </trkpt>
      <trkpt lat="49.8389" lon="2.2505">
        <ele>46.8</ele>
        <time>2023-02-25T13:42:22Z</time>
      </trkpt>
      <trkpt lat="49.83889" lon="2.25049">
        <ele>46.8</ele>
        <time>2023-02-25T13:42:24Z</time>
      </trkpt>
      <trkpt lat="49.83887" lon="2.25049">
        <ele>46.8</ele>
        <time>2023-02-25T13:42:25Z</time>
      </trkpt>
      <trkpt lat="49.83886" lon="2.25048">
        <ele>46.8</ele>
        <time>2023-02-25T13:42:26Z</time>
      </trkpt>
      <trkpt lat="49.83886" lon="2.25048">
        <ele>46.8</ele>
        <time>2023-02-25T13:42:27Z</time>
      </trkpt>
      <trkpt lat="49.83884" lon="2.25047">
        <ele>46.8</ele>
        <time>2023-02-25T13:42:28Z</time>
      </trkpt>
      <trkpt lat="49.83882" lon="2.25047">
        <ele>46.8</ele>
        <time>2023-02-25T13:42:29Z</time>
      </trkpt>
      <trkpt lat="49.83882" lon="2.25046">
        <ele>46.8</ele>
        <time>2023-02-25T13:42:30Z</time>
      </trkpt>
      <trkpt lat="49.83881" lon="2.25046">
        <ele>46.8</ele>
        <time>2023-02-25T13:42:32Z</time>
      </trkpt>
      <trkpt lat="49.8388" lon="2.25045">
        <ele>46.9</ele>
        <time>2023-02-25T13:42:33Z</time>
      </trkpt>
      <trkpt lat="49.83878" lon="2.25044">
        <ele>46.9</ele>
        <time>2023-02-25T13:42:34Z</time>
      </trkpt>
      <trkpt lat="49.83877" lon="2.25043">
        <ele>46.9</ele>
        <time>2023-02-25T13:42:35Z</time>
      </trkpt>
      <trkpt lat="49.83877" lon="2.25042">
        <ele>46.9</ele>
        <time>2023-02-25T13:42:36Z</time>
      </trkpt>
      <trkpt lat="49.83876" lon="2.2504">
        <ele>46.9</ele>
        <time>2023-02-25T13:42:37Z</time>
      </trkpt>
      <trkpt lat="49.83876" lon="2.25039">
        <ele>46.9</ele>
        <time>2023-02-25T13:42:38Z</time>
      </trkpt>
      <trkpt lat="49.83875" lon="2.25038">
        <ele>46.9</ele>
        <time>2023-02-25T13:42:40Z</time>
      </trkpt>
      <trkpt lat="49.83874" lon="2.25037">
        <ele>46.9</ele>
        <time>2023-02-25T13:42:41Z</time>
      </trkpt>
      <trkpt lat="49.83873" lon="2.25037">
        <ele>46.9</ele>
        <time>2023-02-25T13:42:42Z</time>
      </trkpt>
      <trkpt lat="49.83872" lon="2.25036">
        <ele>46.9</ele>
        <time>2023-02-25T13:42:43Z</time>
      </trkpt>
      <trkpt lat="49.83871" lon="2.25036">
        <ele>46.9</ele>
        <time>2023-02-25T13:42:44Z</time>
      </trkpt>
      <trkpt lat="49.8387" lon="2.25035">
        <ele>46.9</ele>
        <time>2023-02-25T13:42:45Z</time>
      </trkpt>
      <trkpt lat="49.83869" lon="2.25035">
        <ele>46.9</ele>
        <time>2023-02-25T13:42:46Z</time>
      </trkpt>
      <trkpt lat="49.83868" lon="2.25035">
        <ele>46.9</ele>
        <time>2023-02-25T13:42:47Z</time>
      </trkpt>
      <trkpt lat="49.83867" lon="2.25035">
        <ele>46.9</ele>
        <time>2023-02-25T13:42:49Z</time>
      </trkpt>
      <trkpt lat="49.83866" lon="2.25034">
        <ele>46.9</ele>
        <time>2023-02-25T13:42:50Z</time>
      </trkpt>
      <trkpt lat="49.83865" lon="2.25033">
        <ele>46.9</ele>
        <time>2023-02-25T13:42:51Z</time>
      </trkpt>
      <trkpt lat="49.83864" lon="2.25033">
        <ele>46.9</ele>
        <time>2023-02-25T13:42:52Z</time>
      </trkpt>
      <trkpt lat="49.83863" lon="2.25032">
        <ele>46.9</ele>
        <time>2023-02-25T13:42:53Z</time>
      </trkpt>
      <trkpt lat="49.83861" lon="2.25031">
        <ele>46.9</ele>
        <time>2023-02-25T13:42:54Z</time>
      </trkpt>
      <trkpt lat="49.8386" lon="2.2503">
        <ele>47</ele>
        <time>2023-02-25T13:42:55Z</time>
      </trkpt>
      <trkpt lat="49.83859" lon="2.2503">
        <ele>47</ele>
        <time>2023-02-25T13:42:57Z</time>
      </trkpt>
      <trkpt lat="49.83859" lon="2.25029">
        <ele>47</ele>
        <time>2023-02-25T13:42:58Z</time>
      </trkpt>
      <trkpt lat="49.83858" lon="2.25029">
        <ele>47</ele>
        <time>2023-02-25T13:42:59Z</time>
      </trkpt>
      <trkpt lat="49.83857" lon="2.25028">
        <ele>47</ele>
        <time>2023-02-25T13:43:00Z</time>
      </trkpt>
      <trkpt lat="49.83856" lon="2.25027">
        <ele>47</ele>
        <time>2023-02-25T13:43:01Z</time>
      </trkpt>
      <trkpt lat="49.83855" lon="2.25027">
        <ele>47</ele>
        <time>2023-02-25T13:43:02Z</time>
      </trkpt>
      <trkpt lat="49.83854" lon="2.25026">
        <ele>47</ele>
        <time>2023-02-25T13:43:03Z</time>
      </trkpt>
      <trkpt lat="49.83853" lon="2.25026">
        <ele>47</ele>
        <time>2023-02-25T13:43:05Z</time>
      </trkpt>
      <trkpt lat="49.83852" lon="2.25026">
        <ele>47</ele>
        <time>2023-02-25T13:43:06Z</time>
      </trkpt>
      <trkpt lat="49.83851" lon="2.25025">
        <ele>47</ele>
        <time>2023-02-25T13:43:07Z</time>
      </trkpt>
      <trkpt lat="49.8385" lon="2.25025">
        <ele>47</ele>
        <time>2023-02-25T13:43:08Z</time>
      </trkpt>
      <trkpt lat="49.83849" lon="2.25024">
        <ele>47</ele>
        <time>2023-02-25T13:43:09Z</time>
      </trkpt>
      <trkpt lat="49.83849" lon="2.25024">
        <ele>47</ele>
        <time>2023-02-25T13:43:10Z</time>
      </trkpt>
      <trkpt lat="49.83848" lon="2.25023">
        <ele>47</ele>
        <time>2023-02-25T13:43:11Z</time>
      </trkpt>
      <trkpt lat="49.83847" lon="2.25022">
        <ele>47</ele>
        <time>2023-02-25T13:43:13Z</time>
      </trkpt>
      <trkpt lat="49.83846" lon="2.25022">
        <ele>47</ele>
        <time>2023-02-25T13:43:14Z</time>
      </trkpt>
      <trkpt lat="49.83845" lon="2.25021">
        <ele>47</ele>
        <time>2023-02-25T13:43:15Z</time>
      </trkpt>
      <trkpt lat="49.83844" lon="2.25021">
        <ele>47.1</ele>
        <time>2023-02-25T13:43:16Z</time>
      </trkpt>
      <trkpt lat="49.83843" lon="2.2502">
        <ele>47.1</ele>
        <time>2023-02-25T13:43:17Z</time>
      </trkpt>
      <trkpt lat="49.83842" lon="2.2502">
        <ele>47.1</ele>
        <time>2023-02-25T13:43:18Z</time>
      </trkpt>
      <trkpt lat="49.8384" lon="2.25019">
        <ele>47.1</ele>
        <time>2023-02-25T13:43:19Z</time>
      </trkpt>
      <trkpt lat="49.8384" lon="2.25019">
        <ele>47.1</ele>
        <time>2023-02-25T13:43:21Z</time>
      </trkpt>
      <trkpt lat="49.83839" lon="2.25019">
        <ele>47.1</ele>
        <time>2023-02-25T13:43:22Z</time>
      </trkpt>
      <trkpt lat="49.83838" lon="2.25018">
        <ele>47.1</ele>
        <time>2023-02-25T13:43:23Z</time>
      </trkpt>
      <trkpt lat="49.83838" lon="2.25017">
        <ele>47.1</ele>
        <time>2023-02-25T13:43:24Z</time>
      </trkpt>
      <trkpt lat="49.83837" lon="2.25016">
        <ele>47.1</ele>
        <time>2023-02-25T13:43:25Z</time>
      </trkpt>
      <trkpt lat="49.83836" lon="2.25015">
        <ele>47.1</ele>
        <time>2023-02-25T13:43:26Z</time>
      </trkpt>
      <trkpt lat="49.83835" lon="2.25015">
        <ele>47.1</ele>
        <time>2023-02-25T13:43:28Z</time>
      </trkpt>
      <trkpt lat="49.83835" lon="2.25014">
        <ele>47.1</ele>
        <time>2023-02-25T13:43:29Z</time>
      </trkpt>
      <trkpt lat="49.83834" lon="2.25013">
        <ele>47.1</ele>
        <time>2023-02-25T13:43:30Z</time>
      </trkpt>
      <trkpt lat="49.83834" lon="2.25012">
        <ele>47.1</ele>
        <time>2023-02-25T13:43:32Z</time>
      </trkpt>
      <trkpt lat="49.83833" lon="2.25011">
        <ele>47.1</ele>
        <time>2023-02-25T13:43:33Z</time>
      </trkpt>
      <trkpt lat="49.83833" lon="2.2501">
        <ele>47.1</ele>
        <time>2023-02-25T13:43:34Z</time>
      </trkpt>
      <trkpt lat="49.83832" lon="2.25009">
        <ele>47.2</ele>
        <time>2023-02-25T13:43:35Z</time>
      </trkpt>
      <trkpt lat="49.83831" lon="2.25008">
        <ele>47.2</ele>
        <time>2023-02-25T13:43:36Z</time>
      </trkpt>
      <trkpt lat="49.8383" lon="2.25007">
        <ele>47.2</ele>
        <time>2023-02-25T13:43:37Z</time>
      </trkpt>
      <trkpt lat="49.83829" lon="2.25005">
        <ele>47.2</ele>
        <time>2023-02-25T13:43:39Z</time>
      </trkpt>
      <trkpt lat="49.83828" lon="2.25003">
        <ele>47.2</ele>
        <time>2023-02-25T13:43:40Z</time>
      </trkpt>
      <trkpt lat="49.83827" lon="2.25002">
        <ele>47.2</ele>
        <time>2023-02-25T13:43:41Z</time>
      </trkpt>
      <trkpt lat="49.83826" lon="2.25001">
        <ele>47.2</ele>
        <time>2023-02-25T13:43:42Z</time>
      </trkpt>
      <trkpt lat="49.83825" lon="2.24999">
        <ele>47.2</ele>
        <time>2023-02-25T13:43:43Z</time>
      </trkpt>
      <trkpt lat="49.83823" lon="2.24997">
        <ele>47.2</ele>
        <time>2023-02-25T13:43:45Z</time>
      </trkpt>
      <trkpt lat="49.83823" lon="2.24996">
        <ele>47.2</ele>
        <time>2023-02-25T13:43:46Z</time>
      </trkpt>
      <trkpt lat="49.83822" lon="2.24996">
        <ele>47.2</ele>
        <time>2023-02-25T13:43:47Z</time>
      </trkpt>
      <trkpt lat="49.83821" lon="2.24995">
        <ele>47.3</ele>
        <time>2023-02-25T13:43:48Z</time>
      </trkpt>
      <trkpt lat="49.8382" lon="2.24994">
        <ele>47.3</ele>
        <time>2023-02-25T13:43:49Z</time>
      </trkpt>
      <trkpt lat="49.83818" lon="2.24993">
        <ele>47.3</ele>
        <time>2023-02-25T13:43:51Z</time>
      </trkpt>
      <trkpt lat="49.83817" lon="2.24992">
        <ele>47.3</ele>
        <time>2023-02-25T13:43:52Z</time>
      </trkpt>
      <trkpt lat="49.83816" lon="2.2499">
        <ele>47.3</ele>
        <time>2023-02-25T13:43:53Z</time>
      </trkpt>
      <trkpt lat="49.83815" lon="2.24989">
        <ele>47.3</ele>
        <time>2023-02-25T13:43:54Z</time>
      </trkpt>
      <trkpt lat="49.83813" lon="2.24987">
        <ele>47.3</ele>
        <time>2023-02-25T13:43:55Z</time>
      </trkpt>
      <trkpt lat="49.83812" lon="2.24986">
        <ele>47.3</ele>
        <time>2023-02-25T13:43:56Z</time>
      </trkpt>
      <trkpt lat="49.83811" lon="2.24985">
        <ele>47.3</ele>
        <time>2023-02-25T13:43:57Z</time>
      </trkpt>
      <trkpt lat="49.8381" lon="2.24984">
        <ele>47.3</ele>
        <time>2023-02-25T13:43:58Z</time>
      </trkpt>
      <trkpt lat="49.83808" lon="2.24983">
        <ele>47.3</ele>
        <time>2023-02-25T13:44:00Z</time>
      </trkpt>
      <trkpt lat="49.83808" lon="2.24982">
        <ele>47.3</ele>
        <time>2023-02-25T13:44:01Z</time>
      </trkpt>
      <trkpt lat="49.83807" lon="2.24981">
        <ele>47.3</ele>
        <time>2023-02-25T13:44:02Z</time>
      </trkpt>
      <trkpt lat="49.83806" lon="2.2498">
        <ele>47.3</ele>
        <time>2023-02-25T13:44:03Z</time>
      </trkpt>
      <trkpt lat="49.83805" lon="2.24979">
        <ele>47.3</ele>
        <time>2023-02-25T13:44:05Z</time>
      </trkpt>
      <trkpt lat="49.83804" lon="2.24978">
        <ele>47.2</ele>
        <time>2023-02-25T13:44:06Z</time>
      </trkpt>
      <trkpt lat="49.83804" lon="2.24976">
        <ele>47.2</ele>
        <time>2023-02-25T13:44:07Z</time>
      </trkpt>
      <trkpt lat="49.83803" lon="2.24975">
        <ele>47.2</ele>
        <time>2023-02-25T13:44:08Z</time>
      </trkpt>
      <trkpt lat="49.83801" lon="2.24974">
        <ele>47.2</ele>
        <time>2023-02-25T13:44:09Z</time>
      </trkpt>
      <trkpt lat="49.838" lon="2.24973">
        <ele>47.2</ele>
        <time>2023-02-25T13:44:11Z</time>
      </trkpt>
      <trkpt lat="49.838" lon="2.24972">
        <ele>47.2</ele>
        <time>2023-02-25T13:44:12Z</time>
      </trkpt>
      <trkpt lat="49.83799" lon="2.24971">
        <ele>47.2</ele>
        <time>2023-02-25T13:44:13Z</time>
      </trkpt>
      <trkpt lat="49.83798" lon="2.2497">
        <ele>47.2</ele>
        <time>2023-02-25T13:44:14Z</time>
      </trkpt>
      <trkpt lat="49.83796" lon="2.24968">
        <ele>47.2</ele>
        <time>2023-02-25T13:44:15Z</time>
      </trkpt>
      <trkpt lat="49.83795" lon="2.24968">
        <ele>47.2</ele>
        <time>2023-02-25T13:44:16Z</time>
      </trkpt>
      <trkpt lat="49.83794" lon="2.24967">
        <ele>47.2</ele>
        <time>2023-02-25T13:44:18Z</time>
      </trkpt>
      <trkpt lat="49.83793" lon="2.24967">
        <ele>47.1</ele>
        <time>2023-02-25T13:44:19Z</time>
      </trkpt>
      <trkpt lat="49.83792" lon="2.24966">
        <ele>47.1</ele>
        <time>2023-02-25T13:44:20Z</time>
      </trkpt>
      <trkpt lat="49.83791" lon="2.24966">
        <ele>47.1</ele>
        <time>2023-02-25T13:44:21Z</time>
      </trkpt>
      <trkpt lat="49.8379" lon="2.24965">
        <ele>47.1</ele>
        <time>2023-02-25T13:44:22Z</time>
      </trkpt>
      <trkpt lat="49.83789" lon="2.24965">
        <ele>47.1</ele>
        <time>2023-02-25T13:44:23Z</time>
      </trkpt>
      <trkpt lat="49.83788" lon="2.24965">
        <ele>47.1</ele>
        <time>2023-02-25T13:44:24Z</time>
      </trkpt>
      <trkpt lat="49.83786" lon="2.24964">
        <ele>47.1</ele>
        <time>2023-02-25T13:44:26Z</time>
      </trkpt>
      <trkpt lat="49.83785" lon="2.24963">
        <ele>47.1</ele>
        <time>2023-02-25T13:44:27Z</time>
      </trkpt>
      <trkpt lat="49.83783" lon="2.24962">
        <ele>47.1</ele>
        <time>2023-02-25T13:44:28Z</time>
      </trkpt>
      <trkpt lat="49.83783" lon="2.24961">
        <ele>47.1</ele>
        <time>2023-02-25T13:44:29Z</time>
      </trkpt>
      <trkpt lat="49.83782" lon="2.24961">
        <ele>47.1</ele>
        <time>2023-02-25T13:44:30Z</time>
      </trkpt>
      <trkpt lat="49.83781" lon="2.2496">
        <ele>47.1</ele>
        <time>2023-02-25T13:44:32Z</time>
      </trkpt>
      <trkpt lat="49.8378" lon="2.2496">
        <ele>47.1</ele>
        <time>2023-02-25T13:44:33Z</time>
      </trkpt>
      <trkpt lat="49.83779" lon="2.24959">
        <ele>47.1</ele>
        <time>2023-02-25T13:44:34Z</time>
      </trkpt>
      <trkpt lat="49.83777" lon="2.24957">
        <ele>47.1</ele>
        <time>2023-02-25T13:44:35Z</time>
      </trkpt>
      <trkpt lat="49.83777" lon="2.24956">
        <ele>47.1</ele>
        <time>2023-02-25T13:44:36Z</time>
      </trkpt>
      <trkpt lat="49.83776" lon="2.24956">
        <ele>47.1</ele>
        <time>2023-02-25T13:44:37Z</time>
      </trkpt>
      <trkpt lat="49.83775" lon="2.24955">
        <ele>47.1</ele>
        <time>2023-02-25T13:44:38Z</time>
      </trkpt>
      <trkpt lat="49.83774" lon="2.24954">
        <ele>47.1</ele>
        <time>2023-02-25T13:44:40Z</time>
      </trkpt>
      <trkpt lat="49.83773" lon="2.24953">
        <ele>47.1</ele>
        <time>2023-02-25T13:44:41Z</time>
      </trkpt>
      <trkpt lat="49.83772" lon="2.24953">
        <ele>47.1</ele>
        <time>2023-02-25T13:44:42Z</time>
      </trkpt>
      <trkpt lat="49.83771" lon="2.24952">
        <ele>47.1</ele>
        <time>2023-02-25T13:44:43Z</time>
      </trkpt>
      <trkpt lat="49.8377" lon="2.24951">
        <ele>47.1</ele>
        <time>2023-02-25T13:44:44Z</time>
      </trkpt>
      <trkpt lat="49.83769" lon="2.24951">
        <ele>47.1</ele>
        <time>2023-02-25T13:44:46Z</time>
      </trkpt>
      <trkpt lat="49.83769" lon="2.2495">
        <ele>47.1</ele>
        <time>2023-02-25T13:44:47Z</time>
      </trkpt>
      <trkpt lat="49.83768" lon="2.24949">
        <ele>47.1</ele>
        <time>2023-02-25T13:44:48Z</time>
      </trkpt>
      <trkpt lat="49.83766" lon="2.24949">
        <ele>47.1</ele>
        <time>2023-02-25T13:44:49Z</time>
      </trkpt>
      <trkpt lat="49.83765" lon="2.24948">
        <ele>47.1</ele>
        <time>2023-02-25T13:44:50Z</time>
      </trkpt>
      <trkpt lat="49.83764" lon="2.24948">
        <ele>47.1</ele>
        <time>2023-02-25T13:44:52Z</time>
      </trkpt>
      <trkpt lat="49.83764" lon="2.24948">
        <ele>47.1</ele>
        <time>2023-02-25T13:44:53Z</time>
      </trkpt>
      <trkpt lat="49.83763" lon="2.24947">
        <ele>47.1</ele>
        <time>2023-02-25T13:44:54Z</time>
      </trkpt>
      <trkpt lat="49.83761" lon="2.24946">
        <ele>47.1</ele>
        <time>2023-02-25T13:44:55Z</time>
      </trkpt>
      <trkpt lat="49.8376" lon="2.24946">
        <ele>47.1</ele>
        <time>2023-02-25T13:44:56Z</time>
      </trkpt>
      <trkpt lat="49.83759" lon="2.24945">
        <ele>47.2</ele>
        <time>2023-02-25T13:44:57Z</time>
      </trkpt>
      <trkpt lat="49.83758" lon="2.24945">
        <ele>47.2</ele>
        <time>2023-02-25T13:44:59Z</time>
      </trkpt>
      <trkpt lat="49.83757" lon="2.24945">
        <ele>47.2</ele>
        <time>2023-02-25T13:45:00Z</time>
      </trkpt>
      <trkpt lat="49.83756" lon="2.24945">
        <ele>47.2</ele>
        <time>2023-02-25T13:45:01Z</time>
      </trkpt>
      <trkpt lat="49.83755" lon="2.24945">
        <ele>47.2</ele>
        <time>2023-02-25T13:45:02Z</time>
      </trkpt>
      <trkpt lat="49.83753" lon="2.24944">
        <ele>47.2</ele>
        <time>2023-02-25T13:45:03Z</time>
      </trkpt>
      <trkpt lat="49.83752" lon="2.24944">
        <ele>47.2</ele>
        <time>2023-02-25T13:45:05Z</time>
      </trkpt>
      <trkpt lat="49.83752" lon="2.24944">
        <ele>47.2</ele>
        <time>2023-02-25T13:45:06Z</time>
      </trkpt>
      <trkpt lat="49.83751" lon="2.24943">
        <ele>47.2</ele>
        <time>2023-02-25T13:45:07Z</time>
      </trkpt>
      <trkpt lat="49.83749" lon="2.24943">
        <ele>47.2</ele>
        <time>2023-02-25T13:45:08Z</time>
      </trkpt>
      <trkpt lat="49.83748" lon="2.24943">
        <ele>47.3</ele>
        <time>2023-02-25T13:45:09Z</time>
      </trkpt>
      <trkpt lat="49.83746" lon="2.24942">
        <ele>47.3</ele>
        <time>2023-02-25T13:45:10Z</time>
      </trkpt>
      <trkpt lat="49.83745" lon="2.24942">
        <ele>47.3</ele>
        <time>2023-02-25T13:45:12Z</time>
      </trkpt>
      <trkpt lat="49.83745" lon="2.24942">
        <ele>47.3</ele>
        <time>2023-02-25T13:45:13Z</time>
      </trkpt>
      <trkpt lat="49.83743" lon="2.24941">
        <ele>47.3</ele>
        <time>2023-02-25T13:45:14Z</time>
      </trkpt>
      <trkpt lat="49.83742" lon="2.24941">
        <ele>47.4</ele>
        <time>2023-02-25T13:45:15Z</time>
      </trkpt>
      <trkpt lat="49.83741" lon="2.24941">
        <ele>47.4</ele>
        <time>2023-02-25T13:45:16Z</time>
      </trkpt>
      <trkpt lat="49.83739" lon="2.2494">
        <ele>47.4</ele>
        <time>2023-02-25T13:45:17Z</time>
      </trkpt>
      <trkpt lat="49.83738" lon="2.2494">
        <ele>47.4</ele>
        <time>2023-02-25T13:45:19Z</time>
      </trkpt>
      <trkpt lat="49.83737" lon="2.2494">
        <ele>47.5</ele>
        <time>2023-02-25T13:45:20Z</time>
      </trkpt>
      <trkpt lat="49.83735" lon="2.2494">
        <ele>47.5</ele>
        <time>2023-02-25T13:45:21Z</time>
      </trkpt>
      <trkpt lat="49.83733" lon="2.24939">
        <ele>47.5</ele>
        <time>2023-02-25T13:45:22Z</time>
      </trkpt>
      <trkpt lat="49.83732" lon="2.24939">
        <ele>47.5</ele>
        <time>2023-02-25T13:45:24Z</time>
      </trkpt>
      <trkpt lat="49.83731" lon="2.24939">
        <ele>47.6</ele>
        <time>2023-02-25T13:45:25Z</time>
      </trkpt>
      <trkpt lat="49.83731" lon="2.24939">
        <ele>47.6</ele>
        <time>2023-02-25T13:45:26Z</time>
      </trkpt>
      <trkpt lat="49.8373" lon="2.24938">
        <ele>47.6</ele>
        <time>2023-02-25T13:45:27Z</time>
      </trkpt>
      <trkpt lat="49.83729" lon="2.24939">
        <ele>47.6</ele>
        <time>2023-02-25T13:45:29Z</time>
      </trkpt>
      <trkpt lat="49.83728" lon="2.24939">
        <ele>47.6</ele>
        <time>2023-02-25T13:45:30Z</time>
      </trkpt>
      <trkpt lat="49.83727" lon="2.24939">
        <ele>47.6</ele>
        <time>2023-02-25T13:45:31Z</time>
      </trkpt>
      <trkpt lat="49.83726" lon="2.24939">
        <ele>47.6</ele>
        <time>2023-02-25T13:45:32Z</time>
      </trkpt>
      <trkpt lat="49.83725" lon="2.24939">
        <ele>47.7</ele>
        <time>2023-02-25T13:45:33Z</time>
      </trkpt>
      <trkpt lat="49.83724" lon="2.24939">
        <ele>47.7</ele>
        <time>2023-02-25T13:45:34Z</time>
      </trkpt>
      <trkpt lat="49.83723" lon="2.2494">
        <ele>47.7</ele>
        <time>2023-02-25T13:45:36Z</time>
      </trkpt>
      <trkpt lat="49.83722" lon="2.2494">
        <ele>47.7</ele>
        <time>2023-02-25T13:45:37Z</time>
      </trkpt>
      <trkpt lat="49.83721" lon="2.24939">
        <ele>47.7</ele>
        <time>2023-02-25T13:45:38Z</time>
      </trkpt>
      <trkpt lat="49.8372" lon="2.24939">
        <ele>47.7</ele>
        <time>2023-02-25T13:45:39Z</time>
      </trkpt>
      <trkpt lat="49.83719" lon="2.24938">
        <ele>47.8</ele>
        <time>2023-02-25T13:45:40Z</time>
      </trkpt>
      <trkpt lat="49.83718" lon="2.24938">
        <ele>47.8</ele>
        <time>2023-02-25T13:45:41Z</time>
      </trkpt>
      <trkpt lat="49.83717" lon="2.24938">
        <ele>47.8</ele>
        <time>2023-02-25T13:45:42Z</time>
      </trkpt>
      <trkpt lat="49.83716" lon="2.24938">
        <ele>47.8</ele>
        <time>2023-02-25T13:45:43Z</time>
      </trkpt>
      <trkpt lat="49.83715" lon="2.24938">
        <ele>47.8</ele>
        <time>2023-02-25T13:45:45Z</time>
      </trkpt>
      <trkpt lat="49.83714" lon="2.24937">
        <ele>47.8</ele>
        <time>2023-02-25T13:45:46Z</time>
      </trkpt>
      <trkpt lat="49.83713" lon="2.24937">
        <ele>47.9</ele>
        <time>2023-02-25T13:45:47Z</time>
      </trkpt>
      <trkpt lat="49.83711" lon="2.24936">
        <ele>47.9</ele>
        <time>2023-02-25T13:45:48Z</time>
      </trkpt>
      <trkpt lat="49.8371" lon="2.24936">
        <ele>47.9</ele>
        <time>2023-02-25T13:45:49Z</time>
      </trkpt>
      <trkpt lat="49.83709" lon="2.24936">
        <ele>47.9</ele>
        <time>2023-02-25T13:45:51Z</time>
      </trkpt>
      <trkpt lat="49.83707" lon="2.24936">
        <ele>47.9</ele>
        <time>2023-02-25T13:45:52Z</time>
      </trkpt>
      <trkpt lat="49.83707" lon="2.24936">
        <ele>48</ele>
        <time>2023-02-25T13:45:53Z</time>
      </trkpt>
      <trkpt lat="49.83706" lon="2.24936">
        <ele>48</ele>
        <time>2023-02-25T13:45:54Z</time>
      </trkpt>
      <trkpt lat="49.83705" lon="2.24936">
        <ele>48</ele>
        <time>2023-02-25T13:45:55Z</time>
      </trkpt>
      <trkpt lat="49.83704" lon="2.24936">
        <ele>48</ele>
        <time>2023-02-25T13:45:56Z</time>
      </trkpt>
      <trkpt lat="49.83703" lon="2.24936">
        <ele>48</ele>
        <time>2023-02-25T13:45:58Z</time>
      </trkpt>
      <trkpt lat="49.83702" lon="2.24935">
        <ele>48</ele>
        <time>2023-02-25T13:45:59Z</time>
      </trkpt>
      <trkpt lat="49.83702" lon="2.24935">
        <ele>48</ele>
        <time>2023-02-25T13:46:00Z</time>
      </trkpt>
      <trkpt lat="49.837" lon="2.24935">
        <ele>48.1</ele>
        <time>2023-02-25T13:46:01Z</time>
      </trkpt>
      <trkpt lat="49.83699" lon="2.24934">
        <ele>48.1</ele>
        <time>2023-02-25T13:46:02Z</time>
      </trkpt>
      <trkpt lat="49.83699" lon="2.24934">
        <ele>48.1</ele>
        <time>2023-02-25T13:46:04Z</time>
      </trkpt>
      <trkpt lat="49.83698" lon="2.24933">
        <ele>48.1</ele>
        <time>2023-02-25T13:46:05Z</time>
      </trkpt>
      <trkpt lat="49.83697" lon="2.24933">
        <ele>48.1</ele>
        <time>2023-02-25T13:46:06Z</time>
      </trkpt>
      <trkpt lat="49.83697" lon="2.24933">
        <ele>48.1</ele>
        <time>2023-02-25T13:46:07Z</time>
      </trkpt>
      <trkpt lat="49.83696" lon="2.24932">
        <ele>48.1</ele>
        <time>2023-02-25T13:46:08Z</time>
      </trkpt>
      <trkpt lat="49.83695" lon="2.24932">
        <ele>48.1</ele>
        <time>2023-02-25T13:46:09Z</time>
      </trkpt>
      <trkpt lat="49.83693" lon="2.24932">
        <ele>48.1</ele>
        <time>2023-02-25T13:46:10Z</time>
      </trkpt>
      <trkpt lat="49.83693" lon="2.24931">
        <ele>48.2</ele>
        <time>2023-02-25T13:46:12Z</time>
      </trkpt>
      <trkpt lat="49.83692" lon="2.24931">
        <ele>48.2</ele>
        <time>2023-02-25T13:46:13Z</time>
      </trkpt>
      <trkpt lat="49.83692" lon="2.24931">
        <ele>48.2</ele>
        <time>2023-02-25T13:46:14Z</time>
      </trkpt>
      <trkpt lat="49.83691" lon="2.24931">
        <ele>48.2</ele>
        <time>2023-02-25T13:46:15Z</time>
      </trkpt>
      <trkpt lat="49.83689" lon="2.24931">
        <ele>48.2</ele>
        <time>2023-02-25T13:46:16Z</time>
      </trkpt>
      <trkpt lat="49.83688" lon="2.2493">
        <ele>48.2</ele>
        <time>2023-02-25T13:46:18Z</time>
      </trkpt>
      <trkpt lat="49.83687" lon="2.2493">
        <ele>48.2</ele>
        <time>2023-02-25T13:46:19Z</time>
      </trkpt>
      <trkpt lat="49.83685" lon="2.24929">
        <ele>48.2</ele>
        <time>2023-02-25T13:46:21Z</time>
      </trkpt>
      <trkpt lat="49.83685" lon="2.24929">
        <ele>48.2</ele>
        <time>2023-02-25T13:46:22Z</time>
      </trkpt>
      <trkpt lat="49.83684" lon="2.24928">
        <ele>48.2</ele>
        <time>2023-02-25T13:46:23Z</time>
      </trkpt>
      <trkpt lat="49.83683" lon="2.24928">
        <ele>48.2</ele>
        <time>2023-02-25T13:46:24Z</time>
      </trkpt>
      <trkpt lat="49.83682" lon="2.24928">
        <ele>48.2</ele>
        <time>2023-02-25T13:46:25Z</time>
      </trkpt>
      <trkpt lat="49.83681" lon="2.24927">
        <ele>48.2</ele>
        <time>2023-02-25T13:46:26Z</time>
      </trkpt>
      <trkpt lat="49.8368" lon="2.24927">
        <ele>48.2</ele>
        <time>2023-02-25T13:46:28Z</time>
      </trkpt>
      <trkpt lat="49.83679" lon="2.24927">
        <ele>48.2</ele>
        <time>2023-02-25T13:46:29Z</time>
      </trkpt>
      <trkpt lat="49.83677" lon="2.24925">
        <ele>48.2</ele>
        <time>2023-02-25T13:46:30Z</time>
      </trkpt>
      <trkpt lat="49.83676" lon="2.24925">
        <ele>48.3</ele>
        <time>2023-02-25T13:46:31Z</time>
      </trkpt>
      <trkpt lat="49.83676" lon="2.24924">
        <ele>48.3</ele>
        <time>2023-02-25T13:46:32Z</time>
      </trkpt>
      <trkpt lat="49.83675" lon="2.24923">
        <ele>48.3</ele>
        <time>2023-02-25T13:46:34Z</time>
      </trkpt>
      <trkpt lat="49.83674" lon="2.24923">
        <ele>48.3</ele>
        <time>2023-02-25T13:46:35Z</time>
      </trkpt>
      <trkpt lat="49.83673" lon="2.24922">
        <ele>48.3</ele>
        <time>2023-02-25T13:46:36Z</time>
      </trkpt>
      <trkpt lat="49.83671" lon="2.24921">
        <ele>48.3</ele>
        <time>2023-02-25T13:46:37Z</time>
      </trkpt>
      <trkpt lat="49.8367" lon="2.2492">
        <ele>48.3</ele>
        <time>2023-02-25T13:46:38Z</time>
      </trkpt>
      <trkpt lat="49.83669" lon="2.24919">
        <ele>48.3</ele>
        <time>2023-02-25T13:46:40Z</time>
      </trkpt>
      <trkpt lat="49.83668" lon="2.24919">
        <ele>48.3</ele>
        <time>2023-02-25T13:46:41Z</time>
      </trkpt>
      <trkpt lat="49.83667" lon="2.24918">
        <ele>48.3</ele>
        <time>2023-02-25T13:46:42Z</time>
      </trkpt>
      <trkpt lat="49.83666" lon="2.24918">
        <ele>48.2</ele>
        <time>2023-02-25T13:46:43Z</time>
      </trkpt>
      <trkpt lat="49.83665" lon="2.24917">
        <ele>48.2</ele>
        <time>2023-02-25T13:46:44Z</time>
      </trkpt>
      <trkpt lat="49.83664" lon="2.24916">
        <ele>48.2</ele>
        <time>2023-02-25T13:46:45Z</time>
      </trkpt>
      <trkpt lat="49.83663" lon="2.24914">
        <ele>48.2</ele>
        <time>2023-02-25T13:46:47Z</time>
      </trkpt>
      <trkpt lat="49.83662" lon="2.24913">
        <ele>48.2</ele>
        <time>2023-02-25T13:46:48Z</time>
      </trkpt>
      <trkpt lat="49.83661" lon="2.24912">
        <ele>48.2</ele>
        <time>2023-02-25T13:46:49Z</time>
      </trkpt>
      <trkpt lat="49.8366" lon="2.24911">
        <ele>48.2</ele>
        <time>2023-02-25T13:46:50Z</time>
      </trkpt>
      <trkpt lat="49.83659" lon="2.24911">
        <ele>48.2</ele>
        <time>2023-02-25T13:46:51Z</time>
      </trkpt>
      <trkpt lat="49.83658" lon="2.2491">
        <ele>48.2</ele>
        <time>2023-02-25T13:46:53Z</time>
      </trkpt>
      <trkpt lat="49.83657" lon="2.2491">
        <ele>48.2</ele>
        <time>2023-02-25T13:46:54Z</time>
      </trkpt>
      <trkpt lat="49.83656" lon="2.24909">
        <ele>48.2</ele>
        <time>2023-02-25T13:46:55Z</time>
      </trkpt>
      <trkpt lat="49.83655" lon="2.24908">
        <ele>48.2</ele>
        <time>2023-02-25T13:46:56Z</time>
      </trkpt>
      <trkpt lat="49.83654" lon="2.24908">
        <ele>48.2</ele>
        <time>2023-02-25T13:46:57Z</time>
      </trkpt>
      <trkpt lat="49.83653" lon="2.24907">
        <ele>48.2</ele>
        <time>2023-02-25T13:46:58Z</time>
      </trkpt>
      <trkpt lat="49.83652" lon="2.24906">
        <ele>48.2</ele>
        <time>2023-02-25T13:47:00Z</time>
      </trkpt>
      <trkpt lat="49.83651" lon="2.24906">
        <ele>48.2</ele>
        <time>2023-02-25T13:47:01Z</time>
      </trkpt>
      <trkpt lat="49.83651" lon="2.24905">
        <ele>48.2</ele>
        <time>2023-02-25T13:47:02Z</time>
      </trkpt>
      <trkpt lat="49.8365" lon="2.24905">
        <ele>48.2</ele>
        <time>2023-02-25T13:47:03Z</time>
      </trkpt>
      <trkpt lat="49.83649" lon="2.24904">
        <ele>48.2</ele>
        <time>2023-02-25T13:47:04Z</time>
      </trkpt>
      <trkpt lat="49.83648" lon="2.24904">
        <ele>48.2</ele>
        <time>2023-02-25T13:47:05Z</time>
      </trkpt>
      <trkpt lat="49.83646" lon="2.24903">
        <ele>48.2</ele>
        <time>2023-02-25T13:47:07Z</time>
      </trkpt>
      <trkpt lat="49.83645" lon="2.24902">
        <ele>48.1</ele>
        <time>2023-02-25T13:47:08Z</time>
      </trkpt>
      <trkpt lat="49.83644" lon="2.24901">
        <ele>48.1</ele>
        <time>2023-02-25T13:47:09Z</time>
      </trkpt>
      <trkpt lat="49.83642" lon="2.249">
        <ele>48.1</ele>
        <time>2023-02-25T13:47:10Z</time>
      </trkpt>
      <trkpt lat="49.83642" lon="2.249">
        <ele>48.1</ele>
        <time>2023-02-25T13:47:12Z</time>
      </trkpt>
      <trkpt lat="49.83641" lon="2.24899">
        <ele>48.1</ele>
        <time>2023-02-25T13:47:13Z</time>
      </trkpt>
      <trkpt lat="49.83639" lon="2.24898">
        <ele>48.1</ele>
        <time>2023-02-25T13:47:14Z</time>
      </trkpt>
      <trkpt lat="49.83638" lon="2.24898">
        <ele>48.1</ele>
        <time>2023-02-25T13:47:15Z</time>
      </trkpt>
      <trkpt lat="49.83637" lon="2.24897">
        <ele>48</ele>
        <time>2023-02-25T13:47:17Z</time>
      </trkpt>
      <trkpt lat="49.83636" lon="2.24897">
        <ele>48</ele>
        <time>2023-02-25T13:47:18Z</time>
      </trkpt>
      <trkpt lat="49.83635" lon="2.24896">
        <ele>48</ele>
        <time>2023-02-25T13:47:19Z</time>
      </trkpt>
      <trkpt lat="49.83635" lon="2.24894">
        <ele>48</ele>
        <time>2023-02-25T13:47:21Z</time>
      </trkpt>
      <trkpt lat="49.83635" lon="2.24893">
        <ele>48.1</ele>
        <time>2023-02-25T13:47:22Z</time>
      </trkpt>
      <trkpt lat="49.83635" lon="2.24892">
        <ele>48.1</ele>
        <time>2023-02-25T13:47:24Z</time>
      </trkpt>
      <trkpt lat="49.83634" lon="2.24892">
        <ele>48.1</ele>
        <time>2023-02-25T13:47:25Z</time>
      </trkpt>
      <trkpt lat="49.83633" lon="2.24891">
        <ele>48.1</ele>
        <time>2023-02-25T13:47:26Z</time>
      </trkpt>
      <trkpt lat="49.83632" lon="2.24891">
        <ele>48.1</ele>
        <time>2023-02-25T13:47:27Z</time>
      </trkpt>
      <trkpt lat="49.8363" lon="2.2489">
        <ele>48.1</ele>
        <time>2023-02-25T13:47:29Z</time>
      </trkpt>
      <trkpt lat="49.83629" lon="2.2489">
        <ele>48.1</ele>
        <time>2023-02-25T13:47:30Z</time>
      </trkpt>
      <trkpt lat="49.83627" lon="2.2489">
        <ele>48.1</ele>
        <time>2023-02-25T13:47:32Z</time>
      </trkpt>
      <trkpt lat="49.83626" lon="2.24889">
        <ele>48.1</ele>
        <time>2023-02-25T13:47:33Z</time>
      </trkpt>
      <trkpt lat="49.83625" lon="2.24889">
        <ele>48.1</ele>
        <time>2023-02-25T13:47:34Z</time>
      </trkpt>
      <trkpt lat="49.83624" lon="2.24889">
        <ele>48.1</ele>
        <time>2023-02-25T13:47:36Z</time>
      </trkpt>
      <trkpt lat="49.83623" lon="2.24889">
        <ele>48.1</ele>
        <time>2023-02-25T13:47:37Z</time>
      </trkpt>
      <trkpt lat="49.83622" lon="2.24889">
        <ele>48.1</ele>
        <time>2023-02-25T13:47:38Z</time>
      </trkpt>
      <trkpt lat="49.83621" lon="2.24889">
        <ele>48.1</ele>
        <time>2023-02-25T13:47:39Z</time>
      </trkpt>
      <trkpt lat="49.8362" lon="2.24889">
        <ele>48.1</ele>
        <time>2023-02-25T13:47:40Z</time>
      </trkpt>
      <trkpt lat="49.83619" lon="2.24888">
        <ele>48.1</ele>
        <time>2023-02-25T13:47:42Z</time>
      </trkpt>
      <trkpt lat="49.83618" lon="2.24888">
        <ele>48.1</ele>
        <time>2023-02-25T13:47:43Z</time>
      </trkpt>
      <trkpt lat="49.83618" lon="2.24887">
        <ele>48.1</ele>
        <time>2023-02-25T13:47:44Z</time>
      </trkpt>
      <trkpt lat="49.83617" lon="2.24887">
        <ele>48.1</ele>
        <time>2023-02-25T13:47:45Z</time>
      </trkpt>
      <trkpt lat="49.83616" lon="2.24887">
        <ele>48.1</ele>
        <time>2023-02-25T13:47:47Z</time>
      </trkpt>
      <trkpt lat="49.83615" lon="2.24887">
        <ele>48.1</ele>
        <time>2023-02-25T13:47:48Z</time>
      </trkpt>
      <trkpt lat="49.83614" lon="2.24887">
        <ele>48.1</ele>
        <time>2023-02-25T13:47:49Z</time>
      </trkpt>
      <trkpt lat="49.83613" lon="2.24887">
        <ele>48.1</ele>
        <time>2023-02-25T13:47:50Z</time>
      </trkpt>
      <trkpt lat="49.83612" lon="2.24887">
        <ele>48.1</ele>
        <time>2023-02-25T13:47:51Z</time>
      </trkpt>
      <trkpt lat="49.83611" lon="2.24886">
        <ele>48.1</ele>
        <time>2023-02-25T13:47:53Z</time>
      </trkpt>
      <trkpt lat="49.8361" lon="2.24886">
        <ele>48.1</ele>
        <time>2023-02-25T13:47:54Z</time>
      </trkpt>
      <trkpt lat="49.83609" lon="2.24885">
        <ele>48.1</ele>
        <time>2023-02-25T13:47:56Z</time>
      </trkpt>
      <trkpt lat="49.83608" lon="2.24885">
        <ele>48.1</ele>
        <time>2023-02-25T13:47:57Z</time>
      </trkpt>
      <trkpt lat="49.83607" lon="2.24885">
        <ele>48.1</ele>
        <time>2023-02-25T13:47:58Z</time>
      </trkpt>
      <trkpt lat="49.83606" lon="2.24884">
        <ele>48.2</ele>
        <time>2023-02-25T13:48:00Z</time>
      </trkpt>
      <trkpt lat="49.83605" lon="2.24884">
        <ele>48.2</ele>
        <time>2023-02-25T13:48:01Z</time>
      </trkpt>
      <trkpt lat="49.83604" lon="2.24884">
        <ele>48.2</ele>
        <time>2023-02-25T13:48:02Z</time>
      </trkpt>
      <trkpt lat="49.83603" lon="2.24883">
        <ele>48.2</ele>
        <time>2023-02-25T13:48:03Z</time>
      </trkpt>
      <trkpt lat="49.836" lon="2.24883">
        <ele>48.2</ele>
        <time>2023-02-25T13:48:04Z</time>
      </trkpt>
      <trkpt lat="49.836" lon="2.24883">
        <ele>48.2</ele>
        <time>2023-02-25T13:48:06Z</time>
      </trkpt>
      <trkpt lat="49.83599" lon="2.24883">
        <ele>48.2</ele>
        <time>2023-02-25T13:48:07Z</time>
      </trkpt>
      <trkpt lat="49.83597" lon="2.24882">
        <ele>48.2</ele>
        <time>2023-02-25T13:48:08Z</time>
      </trkpt>
      <trkpt lat="49.83596" lon="2.24882">
        <ele>48.2</ele>
        <time>2023-02-25T13:48:09Z</time>
      </trkpt>
      <trkpt lat="49.83595" lon="2.24882">
        <ele>48.2</ele>
        <time>2023-02-25T13:48:10Z</time>
      </trkpt>
      <trkpt lat="49.83593" lon="2.24881">
        <ele>48.2</ele>
        <time>2023-02-25T13:48:12Z</time>
      </trkpt>
      <trkpt lat="49.83592" lon="2.24881">
        <ele>48.2</ele>
        <time>2023-02-25T13:48:13Z</time>
      </trkpt>
      <trkpt lat="49.83591" lon="2.24881">
        <ele>48.2</ele>
        <time>2023-02-25T13:48:14Z</time>
      </trkpt>
      <trkpt lat="49.83589" lon="2.24881">
        <ele>48.2</ele>
        <time>2023-02-25T13:48:15Z</time>
      </trkpt>
      <trkpt lat="49.83588" lon="2.2488">
        <ele>48.2</ele>
        <time>2023-02-25T13:48:16Z</time>
      </trkpt>
      <trkpt lat="49.83587" lon="2.2488">
        <ele>48.2</ele>
        <time>2023-02-25T13:48:17Z</time>
      </trkpt>
      <trkpt lat="49.83585" lon="2.24879">
        <ele>48.2</ele>
        <time>2023-02-25T13:48:19Z</time>
      </trkpt>
      <trkpt lat="49.83584" lon="2.24879">
        <ele>48.2</ele>
        <time>2023-02-25T13:48:20Z</time>
      </trkpt>
      <trkpt lat="49.83583" lon="2.24878">
        <ele>48.2</ele>
        <time>2023-02-25T13:48:21Z</time>
      </trkpt>
      <trkpt lat="49.83581" lon="2.24877">
        <ele>48.2</ele>
        <time>2023-02-25T13:48:22Z</time>
      </trkpt>
      <trkpt lat="49.8358" lon="2.24877">
        <ele>48.2</ele>
        <time>2023-02-25T13:48:23Z</time>
      </trkpt>
      <trkpt lat="49.83579" lon="2.24876">
        <ele>48.2</ele>
        <time>2023-02-25T13:48:25Z</time>
      </trkpt>
      <trkpt lat="49.83578" lon="2.24875">
        <ele>48.2</ele>
        <time>2023-02-25T13:48:26Z</time>
      </trkpt>
      <trkpt lat="49.83577" lon="2.24875">
        <ele>48.2</ele>
        <time>2023-02-25T13:48:27Z</time>
      </trkpt>
      <trkpt lat="49.83576" lon="2.24874">
        <ele>48.2</ele>
        <time>2023-02-25T13:48:28Z</time>
      </trkpt>
      <trkpt lat="49.83575" lon="2.24874">
        <ele>48.2</ele>
        <time>2023-02-25T13:48:29Z</time>
      </trkpt>
      <trkpt lat="49.83573" lon="2.24874">
        <ele>48.2</ele>
        <time>2023-02-25T13:48:30Z</time>
      </trkpt>
      <trkpt lat="49.83572" lon="2.24874">
        <ele>48.2</ele>
        <time>2023-02-25T13:48:32Z</time>
      </trkpt>
      <trkpt lat="49.83571" lon="2.24873">
        <ele>48.2</ele>
        <time>2023-02-25T13:48:33Z</time>
      </trkpt>
      <trkpt lat="49.8357" lon="2.24873">
        <ele>48.2</ele>
        <time>2023-02-25T13:48:34Z</time>
      </trkpt>
      <trkpt lat="49.83568" lon="2.24871">
        <ele>48.3</ele>
        <time>2023-02-25T13:48:35Z</time>
      </trkpt>
      <trkpt lat="49.83567" lon="2.24871">
        <ele>48.3</ele>
        <time>2023-02-25T13:48:36Z</time>
      </trkpt>
      <trkpt lat="49.83567" lon="2.2487">
        <ele>48.3</ele>
        <time>2023-02-25T13:48:37Z</time>
      </trkpt>
      <trkpt lat="49.83565" lon="2.24869">
        <ele>48.3</ele>
        <time>2023-02-25T13:48:39Z</time>
      </trkpt>
      <trkpt lat="49.83564" lon="2.24869">
        <ele>48.3</ele>
        <time>2023-02-25T13:48:40Z</time>
      </trkpt>
      <trkpt lat="49.83563" lon="2.24869">
        <ele>48.3</ele>
        <time>2023-02-25T13:48:41Z</time>
      </trkpt>
      <trkpt lat="49.83562" lon="2.24868">
        <ele>48.3</ele>
        <time>2023-02-25T13:48:42Z</time>
      </trkpt>
      <trkpt lat="49.83561" lon="2.24868">
        <ele>48.3</ele>
        <time>2023-02-25T13:48:43Z</time>
      </trkpt>
      <trkpt lat="49.8356" lon="2.24867">
        <ele>48.3</ele>
        <time>2023-02-25T13:48:44Z</time>
      </trkpt>
      <trkpt lat="49.83559" lon="2.24867">
        <ele>48.3</ele>
        <time>2023-02-25T13:48:46Z</time>
      </trkpt>
      <trkpt lat="49.83558" lon="2.24866">
        <ele>48.3</ele>
        <time>2023-02-25T13:48:47Z</time>
      </trkpt>
      <trkpt lat="49.83556" lon="2.24866">
        <ele>48.3</ele>
        <time>2023-02-25T13:48:48Z</time>
      </trkpt>
      <trkpt lat="49.83554" lon="2.24865">
        <ele>48.3</ele>
        <time>2023-02-25T13:48:49Z</time>
      </trkpt>
      <trkpt lat="49.83553" lon="2.24865">
        <ele>48.3</ele>
        <time>2023-02-25T13:48:50Z</time>
      </trkpt>
      <trkpt lat="49.83552" lon="2.24865">
        <ele>48.3</ele>
        <time>2023-02-25T13:48:52Z</time>
      </trkpt>
      <trkpt lat="49.83551" lon="2.24864">
        <ele>48.4</ele>
        <time>2023-02-25T13:48:53Z</time>
      </trkpt>
      <trkpt lat="49.8355" lon="2.24864">
        <ele>48.4</ele>
        <time>2023-02-25T13:48:54Z</time>
      </trkpt>
      <trkpt lat="49.8355" lon="2.24864">
        <ele>48.4</ele>
        <time>2023-02-25T13:48:55Z</time>
      </trkpt>
      <trkpt lat="49.83548" lon="2.24864">
        <ele>48.4</ele>
        <time>2023-02-25T13:48:56Z</time>
      </trkpt>
      <trkpt lat="49.83547" lon="2.24863">
        <ele>48.4</ele>
        <time>2023-02-25T13:48:58Z</time>
      </trkpt>
      <trkpt lat="49.83546" lon="2.24863">
        <ele>48.4</ele>
        <time>2023-02-25T13:48:59Z</time>
      </trkpt>
      <trkpt lat="49.83545" lon="2.24863">
        <ele>48.4</ele>
        <time>2023-02-25T13:49:00Z</time>
      </trkpt>
      <trkpt lat="49.83544" lon="2.24862">
        <ele>48.4</ele>
        <time>2023-02-25T13:49:01Z</time>
      </trkpt>
      <trkpt lat="49.83542" lon="2.24862">
        <ele>48.4</ele>
        <time>2023-02-25T13:49:02Z</time>
      </trkpt>
      <trkpt lat="49.83541" lon="2.24862">
        <ele>48.4</ele>
        <time>2023-02-25T13:49:04Z</time>
      </trkpt>
      <trkpt lat="49.83541" lon="2.24861">
        <ele>48.4</ele>
        <time>2023-02-25T13:49:05Z</time>
      </trkpt>
      <trkpt lat="49.8354" lon="2.24861">
        <ele>48.4</ele>
        <time>2023-02-25T13:49:06Z</time>
      </trkpt>
      <trkpt lat="49.83539" lon="2.24861">
        <ele>48.5</ele>
        <time>2023-02-25T13:49:07Z</time>
      </trkpt>
      <trkpt lat="49.83538" lon="2.2486">
        <ele>48.5</ele>
        <time>2023-02-25T13:49:08Z</time>
      </trkpt>
      <trkpt lat="49.83537" lon="2.2486">
        <ele>48.5</ele>
        <time>2023-02-25T13:49:09Z</time>
      </trkpt>
      <trkpt lat="49.83536" lon="2.24859">
        <ele>48.5</ele>
        <time>2023-02-25T13:49:10Z</time>
      </trkpt>
      <trkpt lat="49.83535" lon="2.24858">
        <ele>48.5</ele>
        <time>2023-02-25T13:49:11Z</time>
      </trkpt>
      <trkpt lat="49.83534" lon="2.24857">
        <ele>48.5</ele>
        <time>2023-02-25T13:49:13Z</time>
      </trkpt>
      <trkpt lat="49.83533" lon="2.24856">
        <ele>48.5</ele>
        <time>2023-02-25T13:49:14Z</time>
      </trkpt>
      <trkpt lat="49.83532" lon="2.24855">
        <ele>48.5</ele>
        <time>2023-02-25T13:49:15Z</time>
      </trkpt>
      <trkpt lat="49.83531" lon="2.24855">
        <ele>48.5</ele>
        <time>2023-02-25T13:49:16Z</time>
      </trkpt>
      <trkpt lat="49.8353" lon="2.24854">
        <ele>48.5</ele>
        <time>2023-02-25T13:49:17Z</time>
      </trkpt>
      <trkpt lat="49.83528" lon="2.24853">
        <ele>48.5</ele>
        <time>2023-02-25T13:49:18Z</time>
      </trkpt>
      <trkpt lat="49.83527" lon="2.24853">
        <ele>48.6</ele>
        <time>2023-02-25T13:49:20Z</time>
      </trkpt>
      <trkpt lat="49.83525" lon="2.24852">
        <ele>48.6</ele>
        <time>2023-02-25T13:49:21Z</time>
      </trkpt>
      <trkpt lat="49.83524" lon="2.24852">
        <ele>48.6</ele>
        <time>2023-02-25T13:49:22Z</time>
      </trkpt>
      <trkpt lat="49.83524" lon="2.24852">
        <ele>48.6</ele>
        <time>2023-02-25T13:49:23Z</time>
      </trkpt>
      <trkpt lat="49.83521" lon="2.24851">
        <ele>48.6</ele>
        <time>2023-02-25T13:49:24Z</time>
      </trkpt>
      <trkpt lat="49.83521" lon="2.24851">
        <ele>48.6</ele>
        <time>2023-02-25T13:49:26Z</time>
      </trkpt>
      <trkpt lat="49.8352" lon="2.24851">
        <ele>48.6</ele>
        <time>2023-02-25T13:49:27Z</time>
      </trkpt>
      <trkpt lat="49.83519" lon="2.2485">
        <ele>48.6</ele>
        <time>2023-02-25T13:49:28Z</time>
      </trkpt>
      <trkpt lat="49.83517" lon="2.2485">
        <ele>48.6</ele>
        <time>2023-02-25T13:49:29Z</time>
      </trkpt>
      <trkpt lat="49.83516" lon="2.24849">
        <ele>48.7</ele>
        <time>2023-02-25T13:49:30Z</time>
      </trkpt>
      <trkpt lat="49.83515" lon="2.24849">
        <ele>48.7</ele>
        <time>2023-02-25T13:49:31Z</time>
      </trkpt>
      <trkpt lat="49.83514" lon="2.24849">
        <ele>48.7</ele>
        <time>2023-02-25T13:49:33Z</time>
      </trkpt>
      <trkpt lat="49.83513" lon="2.24848">
        <ele>48.7</ele>
        <time>2023-02-25T13:49:34Z</time>
      </trkpt>
      <trkpt lat="49.83511" lon="2.24848">
        <ele>48.7</ele>
        <time>2023-02-25T13:49:35Z</time>
      </trkpt>
      <trkpt lat="49.8351" lon="2.24848">
        <ele>48.7</ele>
        <time>2023-02-25T13:49:36Z</time>
      </trkpt>
      <trkpt lat="49.83508" lon="2.24847">
        <ele>48.7</ele>
        <time>2023-02-25T13:49:38Z</time>
      </trkpt>
      <trkpt lat="49.83507" lon="2.24847">
        <ele>48.7</ele>
        <time>2023-02-25T13:49:39Z</time>
      </trkpt>
      <trkpt lat="49.83505" lon="2.24847">
        <ele>48.7</ele>
        <time>2023-02-25T13:49:41Z</time>
      </trkpt>
      <trkpt lat="49.83504" lon="2.24847">
        <ele>48.8</ele>
        <time>2023-02-25T13:49:42Z</time>
      </trkpt>
      <trkpt lat="49.83503" lon="2.24846">
        <ele>48.8</ele>
        <time>2023-02-25T13:49:43Z</time>
      </trkpt>
      <trkpt lat="49.83503" lon="2.24847">
        <ele>48.8</ele>
        <time>2023-02-25T13:49:45Z</time>
      </trkpt>
      <trkpt lat="49.83503" lon="2.24849">
        <ele>48.8</ele>
        <time>2023-02-25T13:49:46Z</time>
      </trkpt>
      <trkpt lat="49.83502" lon="2.24849">
        <ele>48.8</ele>
        <time>2023-02-25T13:49:48Z</time>
      </trkpt>
      <trkpt lat="49.83502" lon="2.24849">
        <ele>48.8</ele>
        <time>2023-02-25T13:49:49Z</time>
      </trkpt>
      <trkpt lat="49.83501" lon="2.2485">
        <ele>48.8</ele>
        <time>2023-02-25T13:49:50Z</time>
      </trkpt>
      <trkpt lat="49.835" lon="2.2485">
        <ele>48.8</ele>
        <time>2023-02-25T13:49:51Z</time>
      </trkpt>
      <trkpt lat="49.83499" lon="2.24849">
        <ele>48.8</ele>
        <time>2023-02-25T13:49:52Z</time>
      </trkpt>
      <trkpt lat="49.83498" lon="2.24849">
        <ele>48.8</ele>
        <time>2023-02-25T13:49:53Z</time>
      </trkpt>
      <trkpt lat="49.83498" lon="2.24849">
        <ele>48.8</ele>
        <time>2023-02-25T13:49:55Z</time>
      </trkpt>
      <trkpt lat="49.83497" lon="2.24849">
        <ele>48.8</ele>
        <time>2023-02-25T13:49:56Z</time>
      </trkpt>
      <trkpt lat="49.83497" lon="2.24848">
        <ele>48.8</ele>
        <time>2023-02-25T13:49:58Z</time>
      </trkpt>
      <trkpt lat="49.83497" lon="2.24847">
        <ele>48.8</ele>
        <time>2023-02-25T13:49:59Z</time>
      </trkpt>
      <trkpt lat="49.83498" lon="2.24847">
        <ele>48.8</ele>
        <time>2023-02-25T13:50:00Z</time>
      </trkpt>
      <trkpt lat="49.83498" lon="2.24846">
        <ele>48.8</ele>
        <time>2023-02-25T13:50:02Z</time>
      </trkpt>
      <trkpt lat="49.83499" lon="2.24846">
        <ele>48.8</ele>
        <time>2023-02-25T13:50:03Z</time>
      </trkpt>
      <trkpt lat="49.83499" lon="2.24846">
        <ele>48.8</ele>
        <time>2023-02-25T13:50:05Z</time>
      </trkpt>
      <trkpt lat="49.83499" lon="2.24846">
        <ele>48.8</ele>
        <time>2023-02-25T13:50:06Z</time>
      </trkpt>
      <trkpt lat="49.83499" lon="2.24846">
        <ele>48.8</ele>
        <time>2023-02-25T13:50:08Z</time>
      </trkpt>
      <trkpt lat="49.83499" lon="2.24846">
        <ele>48.8</ele>
        <time>2023-02-25T13:50:09Z</time>
      </trkpt>
      <trkpt lat="49.83499" lon="2.24846">
        <ele>48.8</ele>
        <time>2023-02-25T13:50:11Z</time>
      </trkpt>
      <trkpt lat="49.83499" lon="2.24846">
        <ele>48.8</ele>
        <time>2023-02-25T13:50:12Z</time>
      </trkpt>
      <trkpt lat="49.83499" lon="2.24846">
        <ele>48.8</ele>
        <time>2023-02-25T13:50:13Z</time>
      </trkpt>
      <trkpt lat="49.83499" lon="2.24846">
        <ele>48.8</ele>
        <time>2023-02-25T13:50:15Z</time>
      </trkpt>
      <trkpt lat="49.83499" lon="2.24846">
        <ele>48.8</ele>
        <time>2023-02-25T13:50:16Z</time>
      </trkpt>
      <trkpt lat="49.83499" lon="2.24846">
        <ele>48.8</ele>
        <time>2023-02-25T13:50:17Z</time>
      </trkpt>
      <trkpt lat="49.83499" lon="2.24846">
        <ele>48.8</ele>
        <time>2023-02-25T13:50:18Z</time>
      </trkpt>
      <trkpt lat="49.83499" lon="2.24846">
        <ele>48.8</ele>
        <time>2023-02-25T13:50:19Z</time>
      </trkpt>
      <trkpt lat="49.83499" lon="2.24846">
        <ele>48.8</ele>
        <time>2023-02-25T13:50:20Z</time>
      </trkpt>
      <trkpt lat="49.83499" lon="2.24846">
        <ele>48.8</ele>
        <time>2023-02-25T13:50:21Z</time>
      </trkpt>
      <trkpt lat="49.83499" lon="2.24846">
        <ele>48.8</ele>
        <time>2023-02-25T13:50:22Z</time>
      </trkpt>
      <trkpt lat="49.83499" lon="2.24846">
        <ele>48.8</ele>
        <time>2023-02-25T13:50:23Z</time>
      </trkpt>
      <trkpt lat="49.83499" lon="2.24846">
        <ele>48.8</ele>
        <time>2023-02-25T13:50:24Z</time>
      </trkpt>
      <trkpt lat="49.83499" lon="2.24846">
        <ele>48.8</ele>
        <time>2023-02-25T13:50:25Z</time>
      </trkpt>
      <trkpt lat="49.83499" lon="2.24846">
        <ele>48.8</ele>
        <time>2023-02-25T13:50:26Z</time>
      </trkpt>
      <trkpt lat="49.83499" lon="2.24846">
        <ele>48.8</ele>
        <time>2023-02-25T13:50:27Z</time>
      </trkpt>
      <trkpt lat="49.83499" lon="2.24846">
        <ele>48.8</ele>
        <time>2023-02-25T13:50:28Z</time>
      </trkpt>
      <trkpt lat="49.83499" lon="2.24846">
        <ele>48.8</ele>
        <time>2023-02-25T13:50:29Z</time>
      </trkpt>
      <trkpt lat="49.83499" lon="2.24846">
        <ele>48.8</ele>
        <time>2023-02-25T13:50:30Z</time>
      </trkpt>
      <trkpt lat="49.83499" lon="2.24846">
        <ele>48.8</ele>
        <time>2023-02-25T13:50:31Z</time>
      </trkpt>
      <trkpt lat="49.835" lon="2.24845">
        <ele>48.8</ele>
        <time>2023-02-25T13:50:32Z</time>
      </trkpt>
      <trkpt lat="49.83499" lon="2.24844">
        <ele>48.8</ele>
        <time>2023-02-25T13:50:33Z</time>
      </trkpt>
      <trkpt lat="49.83498" lon="2.24841">
        <ele>48.9</ele>
        <time>2023-02-25T13:50:34Z</time>
      </trkpt>
      <trkpt lat="49.83497" lon="2.24839">
        <ele>48.9</ele>
        <time>2023-02-25T13:50:35Z</time>
      </trkpt>
      <trkpt lat="49.83496" lon="2.24839">
        <ele>48.9</ele>
        <time>2023-02-25T13:50:36Z</time>
      </trkpt>
      <trkpt lat="49.83495" lon="2.2484">
        <ele>48.9</ele>
        <time>2023-02-25T13:50:37Z</time>
      </trkpt>
      <trkpt lat="49.83492" lon="2.24839">
        <ele>48.9</ele>
        <time>2023-02-25T13:50:38Z</time>
      </trkpt>
      <trkpt lat="49.83491" lon="2.24839">
        <ele>48.9</ele>
        <time>2023-02-25T13:50:39Z</time>
      </trkpt>
      <trkpt lat="49.83489" lon="2.24838">
        <ele>48.9</ele>
        <time>2023-02-25T13:50:41Z</time>
      </trkpt>
      <trkpt lat="49.83488" lon="2.24837">
        <ele>48.9</ele>
        <time>2023-02-25T13:50:42Z</time>
      </trkpt>
      <trkpt lat="49.83487" lon="2.24837">
        <ele>48.9</ele>
        <time>2023-02-25T13:50:43Z</time>
      </trkpt>
      <trkpt lat="49.83485" lon="2.24836">
        <ele>48.9</ele>
        <time>2023-02-25T13:50:44Z</time>
      </trkpt>
      <trkpt lat="49.83485" lon="2.24836">
        <ele>48.9</ele>
        <time>2023-02-25T13:50:46Z</time>
      </trkpt>
      <trkpt lat="49.83484" lon="2.24835">
        <ele>48.9</ele>
        <time>2023-02-25T13:50:47Z</time>
      </trkpt>
      <trkpt lat="49.83483" lon="2.24835">
        <ele>48.9</ele>
        <time>2023-02-25T13:50:48Z</time>
      </trkpt>
      <trkpt lat="49.83482" lon="2.24834">
        <ele>48.9</ele>
        <time>2023-02-25T13:50:49Z</time>
      </trkpt>
      <trkpt lat="49.83482" lon="2.24834">
        <ele>48.9</ele>
        <time>2023-02-25T13:50:50Z</time>
      </trkpt>
      <trkpt lat="49.83481" lon="2.24834">
        <ele>48.9</ele>
        <time>2023-02-25T13:50:51Z</time>
      </trkpt>
      <trkpt lat="49.83479" lon="2.24834">
        <ele>49</ele>
        <time>2023-02-25T13:50:53Z</time>
      </trkpt>
      <trkpt lat="49.83479" lon="2.24834">
        <ele>49</ele>
        <time>2023-02-25T13:50:55Z</time>
      </trkpt>
      <trkpt lat="49.83478" lon="2.24834">
        <ele>49</ele>
        <time>2023-02-25T13:50:56Z</time>
      </trkpt>
      <trkpt lat="49.83478" lon="2.24833">
        <ele>49</ele>
        <time>2023-02-25T13:50:57Z</time>
      </trkpt>
      <trkpt lat="49.83477" lon="2.24833">
        <ele>49</ele>
        <time>2023-02-25T13:50:58Z</time>
      </trkpt>
      <trkpt lat="49.83477" lon="2.24833">
        <ele>49</ele>
        <time>2023-02-25T13:51:00Z</time>
      </trkpt>
      <trkpt lat="49.83477" lon="2.24832">
        <ele>49</ele>
        <time>2023-02-25T13:51:01Z</time>
      </trkpt>
      <trkpt lat="49.83477" lon="2.24832">
        <ele>49</ele>
        <time>2023-02-25T13:51:02Z</time>
      </trkpt>
      <trkpt lat="49.83477" lon="2.24832">
        <ele>49</ele>
        <time>2023-02-25T13:51:03Z</time>
      </trkpt>
      <trkpt lat="49.83476" lon="2.24832">
        <ele>49</ele>
        <time>2023-02-25T13:51:04Z</time>
      </trkpt>
      <trkpt lat="49.83475" lon="2.24832">
        <ele>49</ele>
        <time>2023-02-25T13:51:05Z</time>
      </trkpt>
      <trkpt lat="49.83474" lon="2.24831">
        <ele>49</ele>
        <time>2023-02-25T13:51:06Z</time>
      </trkpt>
      <trkpt lat="49.83474" lon="2.24831">
        <ele>49</ele>
        <time>2023-02-25T13:51:08Z</time>
      </trkpt>
      <trkpt lat="49.83474" lon="2.24829">
        <ele>49</ele>
        <time>2023-02-25T13:51:10Z</time>
      </trkpt>
      <trkpt lat="49.83474" lon="2.24828">
        <ele>49</ele>
        <time>2023-02-25T13:51:11Z</time>
      </trkpt>
      <trkpt lat="49.83476" lon="2.24828">
        <ele>49</ele>
        <time>2023-02-25T13:51:13Z</time>
      </trkpt>
      <trkpt lat="49.83476" lon="2.24827">
        <ele>49</ele>
        <time>2023-02-25T13:51:14Z</time>
      </trkpt>
      <trkpt lat="49.83476" lon="2.24827">
        <ele>49</ele>
        <time>2023-02-25T13:51:15Z</time>
      </trkpt>
      <trkpt lat="49.83476" lon="2.24827">
        <ele>49</ele>
        <time>2023-02-25T13:51:16Z</time>
      </trkpt>
      <trkpt lat="49.83475" lon="2.24827">
        <ele>49</ele>
        <time>2023-02-25T13:51:18Z</time>
      </trkpt>
      <trkpt lat="49.83474" lon="2.24827">
        <ele>49</ele>
        <time>2023-02-25T13:51:19Z</time>
      </trkpt>
      <trkpt lat="49.83474" lon="2.24827">
        <ele>49</ele>
        <time>2023-02-25T13:51:21Z</time>
      </trkpt>
      <trkpt lat="49.83473" lon="2.24826">
        <ele>49</ele>
        <time>2023-02-25T13:51:22Z</time>
      </trkpt>
      <trkpt lat="49.83473" lon="2.24826">
        <ele>49</ele>
        <time>2023-02-25T13:51:23Z</time>
      </trkpt>
      <trkpt lat="49.83471" lon="2.24826">
        <ele>49</ele>
        <time>2023-02-25T13:51:25Z</time>
      </trkpt>
      <trkpt lat="49.8347" lon="2.24826">
        <ele>49</ele>
        <time>2023-02-25T13:51:27Z</time>
      </trkpt>
      <trkpt lat="49.83469" lon="2.24826">
        <ele>49</ele>
        <time>2023-02-25T13:51:28Z</time>
      </trkpt>
      <trkpt lat="49.83468" lon="2.24826">
        <ele>49</ele>
        <time>2023-02-25T13:51:29Z</time>
      </trkpt>
      <trkpt lat="49.83467" lon="2.24825">
        <ele>49</ele>
        <time>2023-02-25T13:51:31Z</time>
      </trkpt>
      <trkpt lat="49.83467" lon="2.24823">
        <ele>49</ele>
        <time>2023-02-25T13:51:33Z</time>
      </trkpt>
      <trkpt lat="49.83467" lon="2.24822">
        <ele>49</ele>
        <time>2023-02-25T13:51:35Z</time>
      </trkpt>
      <trkpt lat="49.83468" lon="2.24821">
        <ele>49</ele>
        <time>2023-02-25T13:51:37Z</time>
      </trkpt>
      <trkpt lat="49.83468" lon="2.24821">
        <ele>49</ele>
        <time>2023-02-25T13:51:38Z</time>
      </trkpt>
      <trkpt lat="49.83468" lon="2.24821">
        <ele>49</ele>
        <time>2023-02-25T13:51:39Z</time>
      </trkpt>
      <trkpt lat="49.83468" lon="2.24821">
        <ele>49</ele>
        <time>2023-02-25T13:51:40Z</time>
      </trkpt>
      <trkpt lat="49.83468" lon="2.24821">
        <ele>49</ele>
        <time>2023-02-25T13:51:42Z</time>
      </trkpt>
      <trkpt lat="49.83467" lon="2.24821">
        <ele>49</ele>
        <time>2023-02-25T13:51:43Z</time>
      </trkpt>
      <trkpt lat="49.83467" lon="2.24821">
        <ele>49</ele>
        <time>2023-02-25T13:51:45Z</time>
      </trkpt>
      <trkpt lat="49.83466" lon="2.24822">
        <ele>49</ele>
        <time>2023-02-25T13:51:46Z</time>
      </trkpt>
      <trkpt lat="49.83465" lon="2.24822">
        <ele>49</ele>
        <time>2023-02-25T13:51:47Z</time>
      </trkpt>
      <trkpt lat="49.83464" lon="2.24822">
        <ele>49.1</ele>
        <time>2023-02-25T13:51:48Z</time>
      </trkpt>
      <trkpt lat="49.83462" lon="2.24822">
        <ele>49.1</ele>
        <time>2023-02-25T13:51:49Z</time>
      </trkpt>
      <trkpt lat="49.83461" lon="2.24822">
        <ele>49.1</ele>
        <time>2023-02-25T13:51:51Z</time>
      </trkpt>
      <trkpt lat="49.8346" lon="2.24822">
        <ele>49.1</ele>
        <time>2023-02-25T13:51:52Z</time>
      </trkpt>
      <trkpt lat="49.83459" lon="2.24822">
        <ele>49.1</ele>
        <time>2023-02-25T13:51:53Z</time>
      </trkpt>
      <trkpt lat="49.83457" lon="2.24822">
        <ele>49.1</ele>
        <time>2023-02-25T13:51:54Z</time>
      </trkpt>
      <trkpt lat="49.83456" lon="2.24822">
        <ele>49.1</ele>
        <time>2023-02-25T13:51:55Z</time>
      </trkpt>
      <trkpt lat="49.83455" lon="2.24821">
        <ele>49.1</ele>
        <time>2023-02-25T13:51:57Z</time>
      </trkpt>
      <trkpt lat="49.83453" lon="2.24821">
        <ele>49.1</ele>
        <time>2023-02-25T13:51:58Z</time>
      </trkpt>
      <trkpt lat="49.83452" lon="2.2482">
        <ele>49.1</ele>
        <time>2023-02-25T13:51:59Z</time>
      </trkpt>
      <trkpt lat="49.83451" lon="2.2482">
        <ele>49.1</ele>
        <time>2023-02-25T13:52:00Z</time>
      </trkpt>
      <trkpt lat="49.8345" lon="2.2482">
        <ele>49.1</ele>
        <time>2023-02-25T13:52:01Z</time>
      </trkpt>
      <trkpt lat="49.83449" lon="2.2482">
        <ele>49.1</ele>
        <time>2023-02-25T13:52:02Z</time>
      </trkpt>
      <trkpt lat="49.83447" lon="2.24819">
        <ele>49.1</ele>
        <time>2023-02-25T13:52:04Z</time>
      </trkpt>
      <trkpt lat="49.83445" lon="2.24818">
        <ele>49.1</ele>
        <time>2023-02-25T13:52:05Z</time>
      </trkpt>
      <trkpt lat="49.83444" lon="2.24817">
        <ele>49.1</ele>
        <time>2023-02-25T13:52:06Z</time>
      </trkpt>
      <trkpt lat="49.83444" lon="2.24816">
        <ele>49.1</ele>
        <time>2023-02-25T13:52:07Z</time>
      </trkpt>
      <trkpt lat="49.83441" lon="2.24815">
        <ele>49.2</ele>
        <time>2023-02-25T13:52:08Z</time>
      </trkpt>
      <trkpt lat="49.8344" lon="2.24814">
        <ele>49.2</ele>
        <time>2023-02-25T13:52:10Z</time>
      </trkpt>
      <trkpt lat="49.83439" lon="2.24813">
        <ele>49.2</ele>
        <time>2023-02-25T13:52:11Z</time>
      </trkpt>
      <trkpt lat="49.83438" lon="2.24812">
        <ele>49.2</ele>
        <time>2023-02-25T13:52:13Z</time>
      </trkpt>
      <trkpt lat="49.83437" lon="2.24811">
        <ele>49.2</ele>
        <time>2023-02-25T13:52:14Z</time>
      </trkpt>
      <trkpt lat="49.83435" lon="2.2481">
        <ele>49.2</ele>
        <time>2023-02-25T13:52:15Z</time>
      </trkpt>
      <trkpt lat="49.83434" lon="2.2481">
        <ele>49.2</ele>
        <time>2023-02-25T13:52:16Z</time>
      </trkpt>
      <trkpt lat="49.83433" lon="2.2481">
        <ele>49.2</ele>
        <time>2023-02-25T13:52:17Z</time>
      </trkpt>
      <trkpt lat="49.83432" lon="2.24809">
        <ele>49.2</ele>
        <time>2023-02-25T13:52:19Z</time>
      </trkpt>
      <trkpt lat="49.83431" lon="2.24809">
        <ele>49.2</ele>
        <time>2023-02-25T13:52:20Z</time>
      </trkpt>
      <trkpt lat="49.8343" lon="2.24808">
        <ele>49.2</ele>
        <time>2023-02-25T13:52:21Z</time>
      </trkpt>
      <trkpt lat="49.83428" lon="2.24807">
        <ele>49.2</ele>
        <time>2023-02-25T13:52:22Z</time>
      </trkpt>
      <trkpt lat="49.83427" lon="2.24806">
        <ele>49.2</ele>
        <time>2023-02-25T13:52:23Z</time>
      </trkpt>
      <trkpt lat="49.83427" lon="2.24806">
        <ele>49.2</ele>
        <time>2023-02-25T13:52:24Z</time>
      </trkpt>
      <trkpt lat="49.83426" lon="2.24805">
        <ele>49.2</ele>
        <time>2023-02-25T13:52:25Z</time>
      </trkpt>
      <trkpt lat="49.83425" lon="2.24805">
        <ele>49.2</ele>
        <time>2023-02-25T13:52:27Z</time>
      </trkpt>
      <trkpt lat="49.83423" lon="2.24804">
        <ele>49.2</ele>
        <time>2023-02-25T13:52:28Z</time>
      </trkpt>
      <trkpt lat="49.83422" lon="2.24803">
        <ele>49.2</ele>
        <time>2023-02-25T13:52:29Z</time>
      </trkpt>
      <trkpt lat="49.83421" lon="2.24802">
        <ele>49.2</ele>
        <time>2023-02-25T13:52:30Z</time>
      </trkpt>
      <trkpt lat="49.83421" lon="2.24801">
        <ele>49.2</ele>
        <time>2023-02-25T13:52:32Z</time>
      </trkpt>
      <trkpt lat="49.8342" lon="2.248">
        <ele>49.2</ele>
        <time>2023-02-25T13:52:33Z</time>
      </trkpt>
      <trkpt lat="49.83419" lon="2.24799">
        <ele>49.2</ele>
        <time>2023-02-25T13:52:34Z</time>
      </trkpt>
      <trkpt lat="49.83418" lon="2.24798">
        <ele>49.2</ele>
        <time>2023-02-25T13:52:35Z</time>
      </trkpt>
      <trkpt lat="49.83417" lon="2.24798">
        <ele>49.2</ele>
        <time>2023-02-25T13:52:36Z</time>
      </trkpt>
      <trkpt lat="49.83416" lon="2.24797">
        <ele>49.3</ele>
        <time>2023-02-25T13:52:38Z</time>
      </trkpt>
      <trkpt lat="49.83415" lon="2.24796">
        <ele>49.3</ele>
        <time>2023-02-25T13:52:39Z</time>
      </trkpt>
      <trkpt lat="49.83414" lon="2.24796">
        <ele>49.3</ele>
        <time>2023-02-25T13:52:40Z</time>
      </trkpt>
      <trkpt lat="49.83413" lon="2.24795">
        <ele>49.3</ele>
        <time>2023-02-25T13:52:41Z</time>
      </trkpt>
      <trkpt lat="49.83412" lon="2.24794">
        <ele>49.3</ele>
        <time>2023-02-25T13:52:43Z</time>
      </trkpt>
      <trkpt lat="49.83412" lon="2.24794">
        <ele>49.3</ele>
        <time>2023-02-25T13:52:44Z</time>
      </trkpt>
      <trkpt lat="49.83411" lon="2.24793">
        <ele>49.3</ele>
        <time>2023-02-25T13:52:45Z</time>
      </trkpt>
      <trkpt lat="49.8341" lon="2.24793">
        <ele>49.3</ele>
        <time>2023-02-25T13:52:46Z</time>
      </trkpt>
      <trkpt lat="49.83409" lon="2.24792">
        <ele>49.3</ele>
        <time>2023-02-25T13:52:47Z</time>
      </trkpt>
      <trkpt lat="49.83408" lon="2.24791">
        <ele>49.3</ele>
        <time>2023-02-25T13:52:48Z</time>
      </trkpt>
      <trkpt lat="49.83407" lon="2.24791">
        <ele>49.3</ele>
        <time>2023-02-25T13:52:49Z</time>
      </trkpt>
      <trkpt lat="49.83407" lon="2.24791">
        <ele>49.3</ele>
        <time>2023-02-25T13:52:50Z</time>
      </trkpt>
      <trkpt lat="49.83406" lon="2.2479">
        <ele>49.3</ele>
        <time>2023-02-25T13:52:51Z</time>
      </trkpt>
      <trkpt lat="49.83405" lon="2.2479">
        <ele>49.3</ele>
        <time>2023-02-25T13:52:52Z</time>
      </trkpt>
      <trkpt lat="49.83404" lon="2.24789">
        <ele>49.3</ele>
        <time>2023-02-25T13:52:54Z</time>
      </trkpt>
      <trkpt lat="49.83403" lon="2.24788">
        <ele>49.3</ele>
        <time>2023-02-25T13:52:55Z</time>
      </trkpt>
      <trkpt lat="49.83402" lon="2.24785">
        <ele>49.3</ele>
        <time>2023-02-25T13:52:56Z</time>
      </trkpt>
      <trkpt lat="49.83401" lon="2.24785">
        <ele>49.3</ele>
        <time>2023-02-25T13:52:57Z</time>
      </trkpt>
      <trkpt lat="49.834" lon="2.24784">
        <ele>49.3</ele>
        <time>2023-02-25T13:52:58Z</time>
      </trkpt>
      <trkpt lat="49.83398" lon="2.24781">
        <ele>49.3</ele>
        <time>2023-02-25T13:52:59Z</time>
      </trkpt>
      <trkpt lat="49.83397" lon="2.2478">
        <ele>49.3</ele>
        <time>2023-02-25T13:53:01Z</time>
      </trkpt>
      <trkpt lat="49.83396" lon="2.24779">
        <ele>49.3</ele>
        <time>2023-02-25T13:53:02Z</time>
      </trkpt>
      <trkpt lat="49.83395" lon="2.24777">
        <ele>49.3</ele>
        <time>2023-02-25T13:53:03Z</time>
      </trkpt>
      <trkpt lat="49.83395" lon="2.24776">
        <ele>49.3</ele>
        <time>2023-02-25T13:53:04Z</time>
      </trkpt>
      <trkpt lat="49.83394" lon="2.24775">
        <ele>49.3</ele>
        <time>2023-02-25T13:53:05Z</time>
      </trkpt>
      <trkpt lat="49.83393" lon="2.24773">
        <ele>49.3</ele>
        <time>2023-02-25T13:53:07Z</time>
      </trkpt>
      <trkpt lat="49.83392" lon="2.24771">
        <ele>49.3</ele>
        <time>2023-02-25T13:53:08Z</time>
      </trkpt>
      <trkpt lat="49.83392" lon="2.24769">
        <ele>49.3</ele>
        <time>2023-02-25T13:53:09Z</time>
      </trkpt>
      <trkpt lat="49.83391" lon="2.24767">
        <ele>49.3</ele>
        <time>2023-02-25T13:53:10Z</time>
      </trkpt>
      <trkpt lat="49.83391" lon="2.24766">
        <ele>49.3</ele>
        <time>2023-02-25T13:53:11Z</time>
      </trkpt>
      <trkpt lat="49.8339" lon="2.24763">
        <ele>49.3</ele>
        <time>2023-02-25T13:53:13Z</time>
      </trkpt>
      <trkpt lat="49.8339" lon="2.24761">
        <ele>49.3</ele>
        <time>2023-02-25T13:53:14Z</time>
      </trkpt>
      <trkpt lat="49.8339" lon="2.24759">
        <ele>49.3</ele>
        <time>2023-02-25T13:53:16Z</time>
      </trkpt>
      <trkpt lat="49.8339" lon="2.24757">
        <ele>49.3</ele>
        <time>2023-02-25T13:53:17Z</time>
      </trkpt>
      <trkpt lat="49.83389" lon="2.24755">
        <ele>49.3</ele>
        <time>2023-02-25T13:53:18Z</time>
      </trkpt>
      <trkpt lat="49.83389" lon="2.24753">
        <ele>49.3</ele>
        <time>2023-02-25T13:53:19Z</time>
      </trkpt>
      <trkpt lat="49.83389" lon="2.2475">
        <ele>49.3</ele>
        <time>2023-02-25T13:53:20Z</time>
      </trkpt>
      <trkpt lat="49.83389" lon="2.24749">
        <ele>49.3</ele>
        <time>2023-02-25T13:53:22Z</time>
      </trkpt>
      <trkpt lat="49.83389" lon="2.24748">
        <ele>49.3</ele>
        <time>2023-02-25T13:53:23Z</time>
      </trkpt>
      <trkpt lat="49.83388" lon="2.24746">
        <ele>49.3</ele>
        <time>2023-02-25T13:53:24Z</time>
      </trkpt>
      <trkpt lat="49.83388" lon="2.24744">
        <ele>49.3</ele>
        <time>2023-02-25T13:53:25Z</time>
      </trkpt>
      <trkpt lat="49.83388" lon="2.24742">
        <ele>49.3</ele>
        <time>2023-02-25T13:53:26Z</time>
      </trkpt>
      <trkpt lat="49.83388" lon="2.24741">
        <ele>49.3</ele>
        <time>2023-02-25T13:53:28Z</time>
      </trkpt>
      <trkpt lat="49.83387" lon="2.24739">
        <ele>49.4</ele>
        <time>2023-02-25T13:53:29Z</time>
      </trkpt>
      <trkpt lat="49.83387" lon="2.24737">
        <ele>49.4</ele>
        <time>2023-02-25T13:53:30Z</time>
      </trkpt>
      <trkpt lat="49.83386" lon="2.24736">
        <ele>49.4</ele>
        <time>2023-02-25T13:53:31Z</time>
      </trkpt>
      <trkpt lat="49.83385" lon="2.24734">
        <ele>49.4</ele>
        <time>2023-02-25T13:53:32Z</time>
      </trkpt>
      <trkpt lat="49.83385" lon="2.24733">
        <ele>49.4</ele>
        <time>2023-02-25T13:53:33Z</time>
      </trkpt>
      <trkpt lat="49.83384" lon="2.24732">
        <ele>49.4</ele>
        <time>2023-02-25T13:53:34Z</time>
      </trkpt>
      <trkpt lat="49.83383" lon="2.2473">
        <ele>49.4</ele>
        <time>2023-02-25T13:53:35Z</time>
      </trkpt>
      <trkpt lat="49.83382" lon="2.24729">
        <ele>49.4</ele>
        <time>2023-02-25T13:53:37Z</time>
      </trkpt>
      <trkpt lat="49.83381" lon="2.24728">
        <ele>49.4</ele>
        <time>2023-02-25T13:53:38Z</time>
      </trkpt>
      <trkpt lat="49.8338" lon="2.24727">
        <ele>49.4</ele>
        <time>2023-02-25T13:53:39Z</time>
      </trkpt>
      <trkpt lat="49.83379" lon="2.24726">
        <ele>49.4</ele>
        <time>2023-02-25T13:53:40Z</time>
      </trkpt>
      <trkpt lat="49.83377" lon="2.24725">
        <ele>49.4</ele>
        <time>2023-02-25T13:53:41Z</time>
      </trkpt>
      <trkpt lat="49.83376" lon="2.24724">
        <ele>49.4</ele>
        <time>2023-02-25T13:53:43Z</time>
      </trkpt>
      <trkpt lat="49.83375" lon="2.24723">
        <ele>49.5</ele>
        <time>2023-02-25T13:53:45Z</time>
      </trkpt>
      <trkpt lat="49.83374" lon="2.24721">
        <ele>49.5</ele>
        <time>2023-02-25T13:53:46Z</time>
      </trkpt>
      <trkpt lat="49.83373" lon="2.2472">
        <ele>49.5</ele>
        <time>2023-02-25T13:53:47Z</time>
      </trkpt>
      <trkpt lat="49.83371" lon="2.24719">
        <ele>49.5</ele>
        <time>2023-02-25T13:53:48Z</time>
      </trkpt>
      <trkpt lat="49.8337" lon="2.24718">
        <ele>49.5</ele>
        <time>2023-02-25T13:53:49Z</time>
      </trkpt>
      <trkpt lat="49.83369" lon="2.24717">
        <ele>49.5</ele>
        <time>2023-02-25T13:53:51Z</time>
      </trkpt>
      <trkpt lat="49.83369" lon="2.24717">
        <ele>49.5</ele>
        <time>2023-02-25T13:53:52Z</time>
      </trkpt>
      <trkpt lat="49.83368" lon="2.24716">
        <ele>49.5</ele>
        <time>2023-02-25T13:53:53Z</time>
      </trkpt>
      <trkpt lat="49.83367" lon="2.24715">
        <ele>49.5</ele>
        <time>2023-02-25T13:53:54Z</time>
      </trkpt>
      <trkpt lat="49.83366" lon="2.24714">
        <ele>49.5</ele>
        <time>2023-02-25T13:53:55Z</time>
      </trkpt>
      <trkpt lat="49.83365" lon="2.24713">
        <ele>49.5</ele>
        <time>2023-02-25T13:53:56Z</time>
      </trkpt>
      <trkpt lat="49.83364" lon="2.24712">
        <ele>49.6</ele>
        <time>2023-02-25T13:53:57Z</time>
      </trkpt>
      <trkpt lat="49.83363" lon="2.24712">
        <ele>49.6</ele>
        <time>2023-02-25T13:53:59Z</time>
      </trkpt>
      <trkpt lat="49.83362" lon="2.24711">
        <ele>49.6</ele>
        <time>2023-02-25T13:54:00Z</time>
      </trkpt>
      <trkpt lat="49.83362" lon="2.2471">
        <ele>49.6</ele>
        <time>2023-02-25T13:54:01Z</time>
      </trkpt>
      <trkpt lat="49.83361" lon="2.24709">
        <ele>49.6</ele>
        <time>2023-02-25T13:54:02Z</time>
      </trkpt>
      <trkpt lat="49.8336" lon="2.24708">
        <ele>49.6</ele>
        <time>2023-02-25T13:54:03Z</time>
      </trkpt>
      <trkpt lat="49.83359" lon="2.24707">
        <ele>49.6</ele>
        <time>2023-02-25T13:54:04Z</time>
      </trkpt>
      <trkpt lat="49.83358" lon="2.24706">
        <ele>49.6</ele>
        <time>2023-02-25T13:54:05Z</time>
      </trkpt>
      <trkpt lat="49.83358" lon="2.24705">
        <ele>49.6</ele>
        <time>2023-02-25T13:54:07Z</time>
      </trkpt>
      <trkpt lat="49.83357" lon="2.24704">
        <ele>49.6</ele>
        <time>2023-02-25T13:54:08Z</time>
      </trkpt>
      <trkpt lat="49.83355" lon="2.24703">
        <ele>49.6</ele>
        <time>2023-02-25T13:54:09Z</time>
      </trkpt>
      <trkpt lat="49.83355" lon="2.24702">
        <ele>49.6</ele>
        <time>2023-02-25T13:54:10Z</time>
      </trkpt>
      <trkpt lat="49.83354" lon="2.24701">
        <ele>49.6</ele>
        <time>2023-02-25T13:54:11Z</time>
      </trkpt>
      <trkpt lat="49.83354" lon="2.24701">
        <ele>49.6</ele>
        <time>2023-02-25T13:54:12Z</time>
      </trkpt>
      <trkpt lat="49.83353" lon="2.247">
        <ele>49.6</ele>
        <time>2023-02-25T13:54:14Z</time>
      </trkpt>
      <trkpt lat="49.83352" lon="2.24699">
        <ele>49.6</ele>
        <time>2023-02-25T13:54:15Z</time>
      </trkpt>
      <trkpt lat="49.83351" lon="2.24699">
        <ele>49.7</ele>
        <time>2023-02-25T13:54:16Z</time>
      </trkpt>
      <trkpt lat="49.8335" lon="2.24698">
        <ele>49.7</ele>
        <time>2023-02-25T13:54:17Z</time>
      </trkpt>
      <trkpt lat="49.83349" lon="2.24697">
        <ele>49.7</ele>
        <time>2023-02-25T13:54:18Z</time>
      </trkpt>
      <trkpt lat="49.83349" lon="2.24697">
        <ele>49.7</ele>
        <time>2023-02-25T13:54:19Z</time>
      </trkpt>
      <trkpt lat="49.83348" lon="2.24696">
        <ele>49.7</ele>
        <time>2023-02-25T13:54:21Z</time>
      </trkpt>
      <trkpt lat="49.83347" lon="2.24696">
        <ele>49.7</ele>
        <time>2023-02-25T13:54:22Z</time>
      </trkpt>
      <trkpt lat="49.83346" lon="2.24695">
        <ele>49.7</ele>
        <time>2023-02-25T13:54:23Z</time>
      </trkpt>
      <trkpt lat="49.83346" lon="2.24694">
        <ele>49.7</ele>
        <time>2023-02-25T13:54:24Z</time>
      </trkpt>
      <trkpt lat="49.83344" lon="2.24692">
        <ele>49.7</ele>
        <time>2023-02-25T13:54:25Z</time>
      </trkpt>
      <trkpt lat="49.83344" lon="2.24692">
        <ele>49.7</ele>
        <time>2023-02-25T13:54:26Z</time>
      </trkpt>
      <trkpt lat="49.83343" lon="2.24691">
        <ele>49.7</ele>
        <time>2023-02-25T13:54:28Z</time>
      </trkpt>
      <trkpt lat="49.83342" lon="2.2469">
        <ele>49.7</ele>
        <time>2023-02-25T13:54:29Z</time>
      </trkpt>
      <trkpt lat="49.83341" lon="2.24689">
        <ele>49.7</ele>
        <time>2023-02-25T13:54:30Z</time>
      </trkpt>
      <trkpt lat="49.8334" lon="2.24688">
        <ele>49.7</ele>
        <time>2023-02-25T13:54:31Z</time>
      </trkpt>
      <trkpt lat="49.83339" lon="2.24687">
        <ele>49.7</ele>
        <time>2023-02-25T13:54:32Z</time>
      </trkpt>
      <trkpt lat="49.83338" lon="2.24686">
        <ele>49.7</ele>
        <time>2023-02-25T13:54:33Z</time>
      </trkpt>
      <trkpt lat="49.83337" lon="2.24685">
        <ele>49.7</ele>
        <time>2023-02-25T13:54:35Z</time>
      </trkpt>
      <trkpt lat="49.83335" lon="2.24684">
        <ele>49.7</ele>
        <time>2023-02-25T13:54:36Z</time>
      </trkpt>
      <trkpt lat="49.83334" lon="2.24683">
        <ele>49.8</ele>
        <time>2023-02-25T13:54:37Z</time>
      </trkpt>
      <trkpt lat="49.83333" lon="2.24681">
        <ele>49.8</ele>
        <time>2023-02-25T13:54:38Z</time>
      </trkpt>
      <trkpt lat="49.83331" lon="2.2468">
        <ele>49.8</ele>
        <time>2023-02-25T13:54:39Z</time>
      </trkpt>
      <trkpt lat="49.83329" lon="2.24678">
        <ele>49.8</ele>
        <time>2023-02-25T13:54:40Z</time>
      </trkpt>
      <trkpt lat="49.83328" lon="2.24678">
        <ele>49.8</ele>
        <time>2023-02-25T13:54:41Z</time>
      </trkpt>
      <trkpt lat="49.83326" lon="2.24677">
        <ele>49.8</ele>
        <time>2023-02-25T13:54:43Z</time>
      </trkpt>
      <trkpt lat="49.83325" lon="2.24675">
        <ele>49.8</ele>
        <time>2023-02-25T13:54:44Z</time>
      </trkpt>
      <trkpt lat="49.83323" lon="2.24674">
        <ele>49.9</ele>
        <time>2023-02-25T13:54:45Z</time>
      </trkpt>
      <trkpt lat="49.83322" lon="2.24673">
        <ele>49.9</ele>
        <time>2023-02-25T13:54:46Z</time>
      </trkpt>
      <trkpt lat="49.83321" lon="2.24672">
        <ele>49.9</ele>
        <time>2023-02-25T13:54:47Z</time>
      </trkpt>
      <trkpt lat="49.8332" lon="2.24671">
        <ele>49.9</ele>
        <time>2023-02-25T13:54:48Z</time>
      </trkpt>
      <trkpt lat="49.83319" lon="2.24671">
        <ele>49.9</ele>
        <time>2023-02-25T13:54:50Z</time>
      </trkpt>
      <trkpt lat="49.83318" lon="2.2467">
        <ele>49.9</ele>
        <time>2023-02-25T13:54:51Z</time>
      </trkpt>
      <trkpt lat="49.83317" lon="2.24669">
        <ele>49.9</ele>
        <time>2023-02-25T13:54:52Z</time>
      </trkpt>
      <trkpt lat="49.83316" lon="2.24668">
        <ele>49.9</ele>
        <time>2023-02-25T13:54:53Z</time>
      </trkpt>
      <trkpt lat="49.83315" lon="2.24668">
        <ele>50</ele>
        <time>2023-02-25T13:54:54Z</time>
      </trkpt>
      <trkpt lat="49.83314" lon="2.24667">
        <ele>50</ele>
        <time>2023-02-25T13:54:55Z</time>
      </trkpt>
      <trkpt lat="49.83312" lon="2.24666">
        <ele>50</ele>
        <time>2023-02-25T13:54:56Z</time>
      </trkpt>
      <trkpt lat="49.83311" lon="2.24665">
        <ele>50</ele>
        <time>2023-02-25T13:54:58Z</time>
      </trkpt>
      <trkpt lat="49.8331" lon="2.24665">
        <ele>50</ele>
        <time>2023-02-25T13:54:59Z</time>
      </trkpt>
      <trkpt lat="49.83309" lon="2.24664">
        <ele>50</ele>
        <time>2023-02-25T13:55:00Z</time>
      </trkpt>
      <trkpt lat="49.83308" lon="2.24663">
        <ele>50</ele>
        <time>2023-02-25T13:55:01Z</time>
      </trkpt>
      <trkpt lat="49.83306" lon="2.24662">
        <ele>50.1</ele>
        <time>2023-02-25T13:55:02Z</time>
      </trkpt>
      <trkpt lat="49.83305" lon="2.24661">
        <ele>50.1</ele>
        <time>2023-02-25T13:55:03Z</time>
      </trkpt>
      <trkpt lat="49.83304" lon="2.2466">
        <ele>50.1</ele>
        <time>2023-02-25T13:55:05Z</time>
      </trkpt>
      <trkpt lat="49.83303" lon="2.2466">
        <ele>50.1</ele>
        <time>2023-02-25T13:55:06Z</time>
      </trkpt>
      <trkpt lat="49.83302" lon="2.24659">
        <ele>50.1</ele>
        <time>2023-02-25T13:55:07Z</time>
      </trkpt>
      <trkpt lat="49.83301" lon="2.24658">
        <ele>50.2</ele>
        <time>2023-02-25T13:55:08Z</time>
      </trkpt>
      <trkpt lat="49.83299" lon="2.24657">
        <ele>50.2</ele>
        <time>2023-02-25T13:55:09Z</time>
      </trkpt>
      <trkpt lat="49.83298" lon="2.24657">
        <ele>50.2</ele>
        <time>2023-02-25T13:55:10Z</time>
      </trkpt>
      <trkpt lat="49.83297" lon="2.24657">
        <ele>50.2</ele>
        <time>2023-02-25T13:55:12Z</time>
      </trkpt>
      <trkpt lat="49.83296" lon="2.24656">
        <ele>50.2</ele>
        <time>2023-02-25T13:55:13Z</time>
      </trkpt>
      <trkpt lat="49.83295" lon="2.24655">
        <ele>50.2</ele>
        <time>2023-02-25T13:55:14Z</time>
      </trkpt>
      <trkpt lat="49.83293" lon="2.24654">
        <ele>50.3</ele>
        <time>2023-02-25T13:55:15Z</time>
      </trkpt>
      <trkpt lat="49.83292" lon="2.24654">
        <ele>50.3</ele>
        <time>2023-02-25T13:55:16Z</time>
      </trkpt>
      <trkpt lat="49.83291" lon="2.24654">
        <ele>50.3</ele>
        <time>2023-02-25T13:55:17Z</time>
      </trkpt>
      <trkpt lat="49.8329" lon="2.24653">
        <ele>50.3</ele>
        <time>2023-02-25T13:55:19Z</time>
      </trkpt>
      <trkpt lat="49.83289" lon="2.24653">
        <ele>50.3</ele>
        <time>2023-02-25T13:55:20Z</time>
      </trkpt>
      <trkpt lat="49.83287" lon="2.24652">
        <ele>50.4</ele>
        <time>2023-02-25T13:55:21Z</time>
      </trkpt>
      <trkpt lat="49.83285" lon="2.24651">
        <ele>50.4</ele>
        <time>2023-02-25T13:55:22Z</time>
      </trkpt>
      <trkpt lat="49.83285" lon="2.24651">
        <ele>50.4</ele>
        <time>2023-02-25T13:55:23Z</time>
      </trkpt>
      <trkpt lat="49.83284" lon="2.24651">
        <ele>50.4</ele>
        <time>2023-02-25T13:55:24Z</time>
      </trkpt>
      <trkpt lat="49.83282" lon="2.2465">
        <ele>50.4</ele>
        <time>2023-02-25T13:55:26Z</time>
      </trkpt>
      <trkpt lat="49.83281" lon="2.24649">
        <ele>50.4</ele>
        <time>2023-02-25T13:55:27Z</time>
      </trkpt>
      <trkpt lat="49.8328" lon="2.24649">
        <ele>50.5</ele>
        <time>2023-02-25T13:55:28Z</time>
      </trkpt>
      <trkpt lat="49.83279" lon="2.24648">
        <ele>50.5</ele>
        <time>2023-02-25T13:55:29Z</time>
      </trkpt>
      <trkpt lat="49.83278" lon="2.24648">
        <ele>50.5</ele>
        <time>2023-02-25T13:55:30Z</time>
      </trkpt>
      <trkpt lat="49.83277" lon="2.24647">
        <ele>50.5</ele>
        <time>2023-02-25T13:55:31Z</time>
      </trkpt>
      <trkpt lat="49.83275" lon="2.24646">
        <ele>50.5</ele>
        <time>2023-02-25T13:55:32Z</time>
      </trkpt>
      <trkpt lat="49.83274" lon="2.24645">
        <ele>50.5</ele>
        <time>2023-02-25T13:55:34Z</time>
      </trkpt>
      <trkpt lat="49.83273" lon="2.24645">
        <ele>50.5</ele>
        <time>2023-02-25T13:55:35Z</time>
      </trkpt>
      <trkpt lat="49.83272" lon="2.24644">
        <ele>50.6</ele>
        <time>2023-02-25T13:55:36Z</time>
      </trkpt>
      <trkpt lat="49.83271" lon="2.24643">
        <ele>50.6</ele>
        <time>2023-02-25T13:55:37Z</time>
      </trkpt>
      <trkpt lat="49.8327" lon="2.24642">
        <ele>50.6</ele>
        <time>2023-02-25T13:55:38Z</time>
      </trkpt>
      <trkpt lat="49.83269" lon="2.24641">
        <ele>50.6</ele>
        <time>2023-02-25T13:55:39Z</time>
      </trkpt>
      <trkpt lat="49.83267" lon="2.2464">
        <ele>50.6</ele>
        <time>2023-02-25T13:55:40Z</time>
      </trkpt>
      <trkpt lat="49.83266" lon="2.24639">
        <ele>50.6</ele>
        <time>2023-02-25T13:55:42Z</time>
      </trkpt>
      <trkpt lat="49.83265" lon="2.24638">
        <ele>50.6</ele>
        <time>2023-02-25T13:55:43Z</time>
      </trkpt>
      <trkpt lat="49.83263" lon="2.24637">
        <ele>50.6</ele>
        <time>2023-02-25T13:55:44Z</time>
      </trkpt>
      <trkpt lat="49.83262" lon="2.24636">
        <ele>50.6</ele>
        <time>2023-02-25T13:55:45Z</time>
      </trkpt>
      <trkpt lat="49.83261" lon="2.24636">
        <ele>50.6</ele>
        <time>2023-02-25T13:55:46Z</time>
      </trkpt>
      <trkpt lat="49.8326" lon="2.24636">
        <ele>50.7</ele>
        <time>2023-02-25T13:55:47Z</time>
      </trkpt>
      <trkpt lat="49.83259" lon="2.24635">
        <ele>50.7</ele>
        <time>2023-02-25T13:55:48Z</time>
      </trkpt>
      <trkpt lat="49.83258" lon="2.24635">
        <ele>50.7</ele>
        <time>2023-02-25T13:55:50Z</time>
      </trkpt>
      <trkpt lat="49.83257" lon="2.24634">
        <ele>50.7</ele>
        <time>2023-02-25T13:55:51Z</time>
      </trkpt>
      <trkpt lat="49.83256" lon="2.24634">
        <ele>50.7</ele>
        <time>2023-02-25T13:55:52Z</time>
      </trkpt>
      <trkpt lat="49.83255" lon="2.24634">
        <ele>50.7</ele>
        <time>2023-02-25T13:55:54Z</time>
      </trkpt>
      <trkpt lat="49.83254" lon="2.24634">
        <ele>50.7</ele>
        <time>2023-02-25T13:55:55Z</time>
      </trkpt>
      <trkpt lat="49.83253" lon="2.24635">
        <ele>50.7</ele>
        <time>2023-02-25T13:55:56Z</time>
      </trkpt>
      <trkpt lat="49.83252" lon="2.24635">
        <ele>50.7</ele>
        <time>2023-02-25T13:55:58Z</time>
      </trkpt>
      <trkpt lat="49.83251" lon="2.24636">
        <ele>50.7</ele>
        <time>2023-02-25T13:55:59Z</time>
      </trkpt>
      <trkpt lat="49.8325" lon="2.24637">
        <ele>50.7</ele>
        <time>2023-02-25T13:56:01Z</time>
      </trkpt>
      <trkpt lat="49.8325" lon="2.24637">
        <ele>50.8</ele>
        <time>2023-02-25T13:56:02Z</time>
      </trkpt>
      <trkpt lat="49.8325" lon="2.24637">
        <ele>50.8</ele>
        <time>2023-02-25T13:56:04Z</time>
      </trkpt>
      <trkpt lat="49.83251" lon="2.24637">
        <ele>50.8</ele>
        <time>2023-02-25T13:56:05Z</time>
      </trkpt>
      <trkpt lat="49.83251" lon="2.24637">
        <ele>50.8</ele>
        <time>2023-02-25T13:56:06Z</time>
      </trkpt>
      <trkpt lat="49.83251" lon="2.24637">
        <ele>50.8</ele>
        <time>2023-02-25T13:56:08Z</time>
      </trkpt>
      <trkpt lat="49.83251" lon="2.24638">
        <ele>50.8</ele>
        <time>2023-02-25T13:56:10Z</time>
      </trkpt>
      <trkpt lat="49.83251" lon="2.24638">
        <ele>50.8</ele>
        <time>2023-02-25T13:56:12Z</time>
      </trkpt>
      <trkpt lat="49.83252" lon="2.24638">
        <ele>50.8</ele>
        <time>2023-02-25T13:56:13Z</time>
      </trkpt>
      <trkpt lat="49.83252" lon="2.24637">
        <ele>50.8</ele>
        <time>2023-02-25T13:56:15Z</time>
      </trkpt>
      <trkpt lat="49.83252" lon="2.24637">
        <ele>50.8</ele>
        <time>2023-02-25T13:56:16Z</time>
      </trkpt>
      <trkpt lat="49.83252" lon="2.24637">
        <ele>50.8</ele>
        <time>2023-02-25T13:56:18Z</time>
      </trkpt>
      <trkpt lat="49.83253" lon="2.24637">
        <ele>50.8</ele>
        <time>2023-02-25T13:56:19Z</time>
      </trkpt>
      <trkpt lat="49.83253" lon="2.24637">
        <ele>50.8</ele>
        <time>2023-02-25T13:56:20Z</time>
      </trkpt>
      <trkpt lat="49.83253" lon="2.24637">
        <ele>50.8</ele>
        <time>2023-02-25T13:56:22Z</time>
      </trkpt>
      <trkpt lat="49.83253" lon="2.24636">
        <ele>50.8</ele>
        <time>2023-02-25T13:56:23Z</time>
      </trkpt>
      <trkpt lat="49.83254" lon="2.24635">
        <ele>50.8</ele>
        <time>2023-02-25T13:56:24Z</time>
      </trkpt>
      <trkpt lat="49.83255" lon="2.24633">
        <ele>50.8</ele>
        <time>2023-02-25T13:56:25Z</time>
      </trkpt>
      <trkpt lat="49.83255" lon="2.24631">
        <ele>50.8</ele>
        <time>2023-02-25T13:56:27Z</time>
      </trkpt>
      <trkpt lat="49.83254" lon="2.24628">
        <ele>50.9</ele>
        <time>2023-02-25T13:56:28Z</time>
      </trkpt>
      <trkpt lat="49.83254" lon="2.24626">
        <ele>50.9</ele>
        <time>2023-02-25T13:56:29Z</time>
      </trkpt>
      <trkpt lat="49.83253" lon="2.24625">
        <ele>50.9</ele>
        <time>2023-02-25T13:56:30Z</time>
      </trkpt>
      <trkpt lat="49.83252" lon="2.24623">
        <ele>50.9</ele>
        <time>2023-02-25T13:56:31Z</time>
      </trkpt>
      <trkpt lat="49.8325" lon="2.2462">
        <ele>50.9</ele>
        <time>2023-02-25T13:56:33Z</time>
      </trkpt>
      <trkpt lat="49.8325" lon="2.24619">
        <ele>50.9</ele>
        <time>2023-02-25T13:56:35Z</time>
      </trkpt>
      <trkpt lat="49.83249" lon="2.24618">
        <ele>51</ele>
        <time>2023-02-25T13:56:36Z</time>
      </trkpt>
      <trkpt lat="49.83248" lon="2.24616">
        <ele>51</ele>
        <time>2023-02-25T13:56:37Z</time>
      </trkpt>
      <trkpt lat="49.83247" lon="2.24615">
        <ele>51</ele>
        <time>2023-02-25T13:56:38Z</time>
      </trkpt>
      <trkpt lat="49.83246" lon="2.24615">
        <ele>51</ele>
        <time>2023-02-25T13:56:39Z</time>
      </trkpt>
      <trkpt lat="49.83244" lon="2.24614">
        <ele>51</ele>
        <time>2023-02-25T13:56:40Z</time>
      </trkpt>
      <trkpt lat="49.83243" lon="2.24614">
        <ele>51</ele>
        <time>2023-02-25T13:56:41Z</time>
      </trkpt>
      <trkpt lat="49.83242" lon="2.24614">
        <ele>51.1</ele>
        <time>2023-02-25T13:56:42Z</time>
      </trkpt>
      <trkpt lat="49.83241" lon="2.24614">
        <ele>51.1</ele>
        <time>2023-02-25T13:56:44Z</time>
      </trkpt>
      <trkpt lat="49.83239" lon="2.24613">
        <ele>51.1</ele>
        <time>2023-02-25T13:56:45Z</time>
      </trkpt>
      <trkpt lat="49.83237" lon="2.24612">
        <ele>51.1</ele>
        <time>2023-02-25T13:56:46Z</time>
      </trkpt>
      <trkpt lat="49.83237" lon="2.24612">
        <ele>51.1</ele>
        <time>2023-02-25T13:56:48Z</time>
      </trkpt>
      <trkpt lat="49.83237" lon="2.24612">
        <ele>51.2</ele>
        <time>2023-02-25T13:56:49Z</time>
      </trkpt>
      <trkpt lat="49.83236" lon="2.24612">
        <ele>51.2</ele>
        <time>2023-02-25T13:56:50Z</time>
      </trkpt>
      <trkpt lat="49.83236" lon="2.24612">
        <ele>51.2</ele>
        <time>2023-02-25T13:56:51Z</time>
      </trkpt>
      <trkpt lat="49.83235" lon="2.24612">
        <ele>51.2</ele>
        <time>2023-02-25T13:56:53Z</time>
      </trkpt>
      <trkpt lat="49.83235" lon="2.24612">
        <ele>51.2</ele>
        <time>2023-02-25T13:56:54Z</time>
      </trkpt>
      <trkpt lat="49.83233" lon="2.24611">
        <ele>51.2</ele>
        <time>2023-02-25T13:56:55Z</time>
      </trkpt>
      <trkpt lat="49.83231" lon="2.2461">
        <ele>51.2</ele>
        <time>2023-02-25T13:56:56Z</time>
      </trkpt>
      <trkpt lat="49.83231" lon="2.2461">
        <ele>51.3</ele>
        <time>2023-02-25T13:56:57Z</time>
      </trkpt>
      <trkpt lat="49.8323" lon="2.2461">
        <ele>51.3</ele>
        <time>2023-02-25T13:56:58Z</time>
      </trkpt>
      <trkpt lat="49.83228" lon="2.24609">
        <ele>51.3</ele>
        <time>2023-02-25T13:56:59Z</time>
      </trkpt>
      <trkpt lat="49.83227" lon="2.24608">
        <ele>51.3</ele>
        <time>2023-02-25T13:57:00Z</time>
      </trkpt>
      <trkpt lat="49.83226" lon="2.24608">
        <ele>51.3</ele>
        <time>2023-02-25T13:57:02Z</time>
      </trkpt>
      <trkpt lat="49.83226" lon="2.24607">
        <ele>51.4</ele>
        <time>2023-02-25T13:57:03Z</time>
      </trkpt>
      <trkpt lat="49.83225" lon="2.24607">
        <ele>51.4</ele>
        <time>2023-02-25T13:57:04Z</time>
      </trkpt>
      <trkpt lat="49.83224" lon="2.24607">
        <ele>51.4</ele>
        <time>2023-02-25T13:57:05Z</time>
      </trkpt>
      <trkpt lat="49.83224" lon="2.24606">
        <ele>51.4</ele>
        <time>2023-02-25T13:57:06Z</time>
      </trkpt>
      <trkpt lat="49.83222" lon="2.24605">
        <ele>51.5</ele>
        <time>2023-02-25T13:57:07Z</time>
      </trkpt>
      <trkpt lat="49.83221" lon="2.24604">
        <ele>51.5</ele>
        <time>2023-02-25T13:57:09Z</time>
      </trkpt>
      <trkpt lat="49.8322" lon="2.24603">
        <ele>51.5</ele>
        <time>2023-02-25T13:57:10Z</time>
      </trkpt>
      <trkpt lat="49.83218" lon="2.24602">
        <ele>51.5</ele>
        <time>2023-02-25T13:57:11Z</time>
      </trkpt>
      <trkpt lat="49.83217" lon="2.24601">
        <ele>51.6</ele>
        <time>2023-02-25T13:57:12Z</time>
      </trkpt>
      <trkpt lat="49.83215" lon="2.246">
        <ele>51.6</ele>
        <time>2023-02-25T13:57:13Z</time>
      </trkpt>
      <trkpt lat="49.83215" lon="2.24599">
        <ele>51.7</ele>
        <time>2023-02-25T13:57:15Z</time>
      </trkpt>
      <trkpt lat="49.83214" lon="2.24599">
        <ele>51.7</ele>
        <time>2023-02-25T13:57:16Z</time>
      </trkpt>
      <trkpt lat="49.83213" lon="2.24598">
        <ele>51.7</ele>
        <time>2023-02-25T13:57:17Z</time>
      </trkpt>
      <trkpt lat="49.83212" lon="2.24597">
        <ele>51.7</ele>
        <time>2023-02-25T13:57:18Z</time>
      </trkpt>
      <trkpt lat="49.83211" lon="2.24597">
        <ele>51.8</ele>
        <time>2023-02-25T13:57:19Z</time>
      </trkpt>
      <trkpt lat="49.83211" lon="2.24597">
        <ele>51.8</ele>
        <time>2023-02-25T13:57:20Z</time>
      </trkpt>
      <trkpt lat="49.83209" lon="2.24596">
        <ele>51.8</ele>
        <time>2023-02-25T13:57:22Z</time>
      </trkpt>
      <trkpt lat="49.83208" lon="2.24595">
        <ele>51.9</ele>
        <time>2023-02-25T13:57:23Z</time>
      </trkpt>
      <trkpt lat="49.83204" lon="2.24597">
        <ele>52</ele>
        <time>2023-02-25T13:57:25Z</time>
      </trkpt>
      <trkpt lat="49.83203" lon="2.24598">
        <ele>52.2</ele>
        <time>2023-02-25T13:57:27Z</time>
      </trkpt>
      <trkpt lat="49.83202" lon="2.246">
        <ele>52.2</ele>
        <time>2023-02-25T13:57:28Z</time>
      </trkpt>
      <trkpt lat="49.83202" lon="2.246">
        <ele>52.2</ele>
        <time>2023-02-25T13:57:30Z</time>
      </trkpt>
      <trkpt lat="49.83202" lon="2.24601">
        <ele>52.2</ele>
        <time>2023-02-25T13:57:32Z</time>
      </trkpt>
      <trkpt lat="49.83202" lon="2.24601">
        <ele>52.2</ele>
        <time>2023-02-25T13:57:33Z</time>
      </trkpt>
      <trkpt lat="49.83202" lon="2.24601">
        <ele>52.2</ele>
        <time>2023-02-25T13:57:34Z</time>
      </trkpt>
      <trkpt lat="49.83202" lon="2.24601">
        <ele>52.2</ele>
        <time>2023-02-25T13:57:36Z</time>
      </trkpt>
      <trkpt lat="49.83202" lon="2.24601">
        <ele>52.2</ele>
        <time>2023-02-25T13:57:38Z</time>
      </trkpt>
      <trkpt lat="49.83202" lon="2.24601">
        <ele>52.2</ele>
        <time>2023-02-25T13:57:39Z</time>
      </trkpt>
      <trkpt lat="49.83202" lon="2.246">
        <ele>52.2</ele>
        <time>2023-02-25T13:57:41Z</time>
      </trkpt>
      <trkpt lat="49.83202" lon="2.246">
        <ele>52.2</ele>
        <time>2023-02-25T13:57:42Z</time>
      </trkpt>
      <trkpt lat="49.83202" lon="2.246">
        <ele>52.2</ele>
        <time>2023-02-25T13:57:43Z</time>
      </trkpt>
      <trkpt lat="49.83202" lon="2.246">
        <ele>52.2</ele>
        <time>2023-02-25T13:57:45Z</time>
      </trkpt>
      <trkpt lat="49.83202" lon="2.246">
        <ele>52.2</ele>
        <time>2023-02-25T13:57:46Z</time>
      </trkpt>
      <trkpt lat="49.83202" lon="2.24598">
        <ele>52.2</ele>
        <time>2023-02-25T13:57:47Z</time>
      </trkpt>
      <trkpt lat="49.83202" lon="2.24597">
        <ele>52.2</ele>
        <time>2023-02-25T13:57:48Z</time>
      </trkpt>
      <trkpt lat="49.83202" lon="2.24597">
        <ele>52.2</ele>
        <time>2023-02-25T13:57:49Z</time>
      </trkpt>
      <trkpt lat="49.83202" lon="2.24597">
        <ele>52.2</ele>
        <time>2023-02-25T13:57:50Z</time>
      </trkpt>
      <trkpt lat="49.83202" lon="2.24596">
        <ele>52.2</ele>
        <time>2023-02-25T13:57:51Z</time>
      </trkpt>
      <trkpt lat="49.83202" lon="2.24596">
        <ele>52.2</ele>
        <time>2023-02-25T13:57:52Z</time>
      </trkpt>
      <trkpt lat="49.83202" lon="2.24596">
        <ele>52.2</ele>
        <time>2023-02-25T13:57:53Z</time>
      </trkpt>
      <trkpt lat="49.83202" lon="2.24596">
        <ele>52.2</ele>
        <time>2023-02-25T13:57:54Z</time>
      </trkpt>
      <trkpt lat="49.83202" lon="2.24596">
        <ele>52.2</ele>
        <time>2023-02-25T13:57:55Z</time>
      </trkpt>
      <trkpt lat="49.83202" lon="2.24596">
        <ele>52.2</ele>
        <time>2023-02-25T13:57:56Z</time>
      </trkpt>
      <trkpt lat="49.83202" lon="2.24596">
        <ele>52.2</ele>
        <time>2023-02-25T13:57:57Z</time>
      </trkpt>
      <trkpt lat="49.83202" lon="2.24596">
        <ele>52.2</ele>
        <time>2023-02-25T13:57:58Z</time>
      </trkpt>
      <trkpt lat="49.83202" lon="2.24596">
        <ele>52.2</ele>
        <time>2023-02-25T13:57:59Z</time>
      </trkpt>
      <trkpt lat="49.83202" lon="2.24596">
        <ele>52.2</ele>
        <time>2023-02-25T13:58:00Z</time>
      </trkpt>
      <trkpt lat="49.83202" lon="2.24596">
        <ele>52.2</ele>
        <time>2023-02-25T13:58:01Z</time>
      </trkpt>
      <trkpt lat="49.83202" lon="2.24596">
        <ele>52.2</ele>
        <time>2023-02-25T13:58:02Z</time>
      </trkpt>
      <trkpt lat="49.83202" lon="2.24596">
        <ele>52.2</ele>
        <time>2023-02-25T13:58:03Z</time>
      </trkpt>
      <trkpt lat="49.83202" lon="2.24596">
        <ele>52.2</ele>
        <time>2023-02-25T13:58:04Z</time>
      </trkpt>
      <trkpt lat="49.83202" lon="2.24596">
        <ele>52.2</ele>
        <time>2023-02-25T13:58:06Z</time>
      </trkpt>
      <trkpt lat="49.83202" lon="2.24596">
        <ele>52.2</ele>
        <time>2023-02-25T13:58:07Z</time>
      </trkpt>
      <trkpt lat="49.83202" lon="2.24596">
        <ele>52.2</ele>
        <time>2023-02-25T13:58:08Z</time>
      </trkpt>
      <trkpt lat="49.83202" lon="2.24596">
        <ele>52.2</ele>
        <time>2023-02-25T13:58:09Z</time>
      </trkpt>
      <trkpt lat="49.83202" lon="2.24596">
        <ele>52.2</ele>
        <time>2023-02-25T13:58:10Z</time>
      </trkpt>
      <trkpt lat="49.83202" lon="2.24596">
        <ele>52.2</ele>
        <time>2023-02-25T13:58:11Z</time>
      </trkpt>
      <trkpt lat="49.83202" lon="2.24596">
        <ele>52.2</ele>
        <time>2023-02-25T13:58:12Z</time>
      </trkpt>
      <trkpt lat="49.83202" lon="2.24596">
        <ele>52.2</ele>
        <time>2023-02-25T13:58:13Z</time>
      </trkpt>
      <trkpt lat="49.83202" lon="2.24596">
        <ele>52.2</ele>
        <time>2023-02-25T13:58:14Z</time>
      </trkpt>
      <trkpt lat="49.83202" lon="2.24596">
        <ele>52.2</ele>
        <time>2023-02-25T13:58:16Z</time>
      </trkpt>
      <trkpt lat="49.83202" lon="2.24596">
        <ele>52.2</ele>
        <time>2023-02-25T13:58:17Z</time>
      </trkpt>
      <trkpt lat="49.83202" lon="2.24596">
        <ele>52.2</ele>
        <time>2023-02-25T13:58:18Z</time>
      </trkpt>
      <trkpt lat="49.83202" lon="2.24596">
        <ele>52.2</ele>
        <time>2023-02-25T13:58:19Z</time>
      </trkpt>
      <trkpt lat="49.83202" lon="2.24596">
        <ele>52.2</ele>
        <time>2023-02-25T13:58:20Z</time>
      </trkpt>
      <trkpt lat="49.83202" lon="2.24596">
        <ele>52.2</ele>
        <time>2023-02-25T13:58:21Z</time>
      </trkpt>
      <trkpt lat="49.83202" lon="2.24596">
        <ele>52.2</ele>
        <time>2023-02-25T13:58:22Z</time>
      </trkpt>
      <trkpt lat="49.83202" lon="2.24596">
        <ele>52.2</ele>
        <time>2023-02-25T13:58:23Z</time>
      </trkpt>
      <trkpt lat="49.83202" lon="2.24596">
        <ele>52.2</ele>
        <time>2023-02-25T13:58:24Z</time>
      </trkpt>
      <trkpt lat="49.83202" lon="2.24596">
        <ele>52.2</ele>
        <time>2023-02-25T13:58:25Z</time>
      </trkpt>
      <trkpt lat="49.83202" lon="2.24596">
        <ele>52.2</ele>
        <time>2023-02-25T13:58:26Z</time>
      </trkpt>
      <trkpt lat="49.83202" lon="2.24596">
        <ele>52.2</ele>
        <time>2023-02-25T13:58:27Z</time>
      </trkpt>
      <trkpt lat="49.83202" lon="2.24596">
        <ele>52.2</ele>
        <time>2023-02-25T13:58:28Z</time>
      </trkpt>
      <trkpt lat="49.83202" lon="2.24596">
        <ele>52.2</ele>
        <time>2023-02-25T13:58:29Z</time>
      </trkpt>
      <trkpt lat="49.83202" lon="2.24596">
        <ele>52.2</ele>
        <time>2023-02-25T13:58:30Z</time>
      </trkpt>
      <trkpt lat="49.83202" lon="2.24596">
        <ele>52.2</ele>
        <time>2023-02-25T13:58:32Z</time>
      </trkpt>
      <trkpt lat="49.83202" lon="2.24596">
        <ele>52.2</ele>
        <time>2023-02-25T13:58:33Z</time>
      </trkpt>
      <trkpt lat="49.83202" lon="2.24596">
        <ele>52.2</ele>
        <time>2023-02-25T13:58:34Z</time>
      </trkpt>
      <trkpt lat="49.83202" lon="2.24596">
        <ele>52.2</ele>
        <time>2023-02-25T13:58:35Z</time>
      </trkpt>
      <trkpt lat="49.83202" lon="2.24596">
        <ele>52.2</ele>
        <time>2023-02-25T13:58:36Z</time>
      </trkpt>
      <trkpt lat="49.83202" lon="2.24596">
        <ele>52.2</ele>
        <time>2023-02-25T13:58:37Z</time>
      </trkpt>
      <trkpt lat="49.83202" lon="2.24596">
        <ele>52.2</ele>
        <time>2023-02-25T13:58:38Z</time>
      </trkpt>
      <trkpt lat="49.83202" lon="2.24596">
        <ele>52.2</ele>
        <time>2023-02-25T13:58:39Z</time>
      </trkpt>
      <trkpt lat="49.83202" lon="2.24596">
        <ele>52.2</ele>
        <time>2023-02-25T13:58:40Z</time>
      </trkpt>
      <trkpt lat="49.83202" lon="2.24596">
        <ele>52.2</ele>
        <time>2023-02-25T13:58:41Z</time>
      </trkpt>
      <trkpt lat="49.83202" lon="2.24596">
        <ele>52.2</ele>
        <time>2023-02-25T13:58:42Z</time>
      </trkpt>
      <trkpt lat="49.83202" lon="2.24596">
        <ele>52.2</ele>
        <time>2023-02-25T13:58:43Z</time>
      </trkpt>
      <trkpt lat="49.83202" lon="2.24596">
        <ele>52.2</ele>
        <time>2023-02-25T13:58:44Z</time>
      </trkpt>
      <trkpt lat="49.83202" lon="2.24596">
        <ele>52.2</ele>
        <time>2023-02-25T13:58:45Z</time>
      </trkpt>
      <trkpt lat="49.83202" lon="2.24596">
        <ele>52.2</ele>
        <time>2023-02-25T13:58:46Z</time>
      </trkpt>
      <trkpt lat="49.83202" lon="2.24596">
        <ele>52.2</ele>
        <time>2023-02-25T13:58:47Z</time>
      </trkpt>
      <trkpt lat="49.83202" lon="2.24596">
        <ele>52.2</ele>
        <time>2023-02-25T13:58:48Z</time>
      </trkpt>
      <trkpt lat="49.83202" lon="2.24596">
        <ele>52.2</ele>
        <time>2023-02-25T13:58:49Z</time>
      </trkpt>
      <trkpt lat="49.83202" lon="2.24596">
        <ele>52.2</ele>
        <time>2023-02-25T13:58:50Z</time>
      </trkpt>
      <trkpt lat="49.83202" lon="2.24596">
        <ele>52.2</ele>
        <time>2023-02-25T13:58:51Z</time>
      </trkpt>
      <trkpt lat="49.83202" lon="2.24596">
        <ele>52.2</ele>
        <time>2023-02-25T13:58:52Z</time>
      </trkpt>
      <trkpt lat="49.83202" lon="2.24596">
        <ele>52.2</ele>
        <time>2023-02-25T13:58:53Z</time>
      </trkpt>
      <trkpt lat="49.83202" lon="2.24596">
        <ele>52.2</ele>
        <time>2023-02-25T13:58:54Z</time>
      </trkpt>
      <trkpt lat="49.83202" lon="2.24596">
        <ele>52.2</ele>
        <time>2023-02-25T13:58:55Z</time>
      </trkpt>
      <trkpt lat="49.83202" lon="2.24596">
        <ele>52.2</ele>
        <time>2023-02-25T13:58:56Z</time>
      </trkpt>
      <trkpt lat="49.83202" lon="2.24596">
        <ele>52.2</ele>
        <time>2023-02-25T13:58:57Z</time>
      </trkpt>
      <trkpt lat="49.83202" lon="2.24596">
        <ele>52.2</ele>
        <time>2023-02-25T13:58:58Z</time>
      </trkpt>
      <trkpt lat="49.83202" lon="2.24596">
        <ele>52.2</ele>
        <time>2023-02-25T13:58:59Z</time>
      </trkpt>
      <trkpt lat="49.83202" lon="2.24596">
        <ele>52.2</ele>
        <time>2023-02-25T13:59:00Z</time>
      </trkpt>
      <trkpt lat="49.83202" lon="2.24596">
        <ele>52.2</ele>
        <time>2023-02-25T13:59:01Z</time>
      </trkpt>
      <trkpt lat="49.83202" lon="2.24596">
        <ele>52.2</ele>
        <time>2023-02-25T13:59:02Z</time>
      </trkpt>
      <trkpt lat="49.83202" lon="2.24596">
        <ele>52.2</ele>
        <time>2023-02-25T13:59:03Z</time>
      </trkpt>
      <trkpt lat="49.83202" lon="2.24596">
        <ele>52.2</ele>
        <time>2023-02-25T13:59:04Z</time>
      </trkpt>
      <trkpt lat="49.83202" lon="2.24596">
        <ele>52.2</ele>
        <time>2023-02-25T13:59:05Z</time>
      </trkpt>
      <trkpt lat="49.83202" lon="2.24596">
        <ele>52.2</ele>
        <time>2023-02-25T13:59:06Z</time>
      </trkpt>
      <trkpt lat="49.83202" lon="2.24596">
        <ele>52.2</ele>
        <time>2023-02-25T13:59:07Z</time>
      </trkpt>
      <trkpt lat="49.83202" lon="2.24596">
        <ele>52.2</ele>
        <time>2023-02-25T13:59:08Z</time>
      </trkpt>
      <trkpt lat="49.83202" lon="2.24596">
        <ele>52.2</ele>
        <time>2023-02-25T13:59:09Z</time>
      </trkpt>
      <trkpt lat="49.83202" lon="2.24596">
        <ele>52.2</ele>
        <time>2023-02-25T13:59:10Z</time>
      </trkpt>
      <trkpt lat="49.83202" lon="2.24596">
        <ele>52.2</ele>
        <time>2023-02-25T13:59:11Z</time>
      </trkpt>
      <trkpt lat="49.83202" lon="2.24596">
        <ele>52.2</ele>
        <time>2023-02-25T13:59:12Z</time>
      </trkpt>
      <trkpt lat="49.83202" lon="2.24596">
        <ele>52.2</ele>
        <time>2023-02-25T13:59:14Z</time>
      </trkpt>
      <trkpt lat="49.83202" lon="2.24596">
        <ele>52.2</ele>
        <time>2023-02-25T13:59:15Z</time>
      </trkpt>
      <trkpt lat="49.83202" lon="2.24596">
        <ele>52.2</ele>
        <time>2023-02-25T13:59:16Z</time>
      </trkpt>
      <trkpt lat="49.83202" lon="2.24596">
        <ele>52.2</ele>
        <time>2023-02-25T13:59:17Z</time>
      </trkpt>
      <trkpt lat="49.83202" lon="2.24596">
        <ele>52.2</ele>
        <time>2023-02-25T13:59:18Z</time>
      </trkpt>
      <trkpt lat="49.83202" lon="2.24596">
        <ele>52.2</ele>
        <time>2023-02-25T13:59:19Z</time>
      </trkpt>
      <trkpt lat="49.83202" lon="2.24596">
        <ele>52.2</ele>
        <time>2023-02-25T13:59:20Z</time>
      </trkpt>
      <trkpt lat="49.83202" lon="2.24596">
        <ele>52.2</ele>
        <time>2023-02-25T13:59:21Z</time>
      </trkpt>
      <trkpt lat="49.83202" lon="2.24596">
        <ele>52.2</ele>
        <time>2023-02-25T13:59:22Z</time>
      </trkpt>
      <trkpt lat="49.83202" lon="2.24596">
        <ele>52.2</ele>
        <time>2023-02-25T13:59:23Z</time>
      </trkpt>
      <trkpt lat="49.83202" lon="2.24596">
        <ele>52.2</ele>
        <time>2023-02-25T13:59:24Z</time>
      </trkpt>
      <trkpt lat="49.83202" lon="2.24596">
        <ele>52.2</ele>
        <time>2023-02-25T13:59:25Z</time>
      </trkpt>
      <trkpt lat="49.83202" lon="2.24596">
        <ele>52.2</ele>
        <time>2023-02-25T13:59:27Z</time>
      </trkpt>
      <trkpt lat="49.83202" lon="2.24596">
        <ele>52.2</ele>
        <time>2023-02-25T13:59:28Z</time>
      </trkpt>
      <trkpt lat="49.83202" lon="2.24596">
        <ele>52.2</ele>
        <time>2023-02-25T13:59:29Z</time>
      </trkpt>
      <trkpt lat="49.83202" lon="2.24596">
        <ele>52.2</ele>
        <time>2023-02-25T13:59:30Z</time>
      </trkpt>
      <trkpt lat="49.83202" lon="2.24596">
        <ele>52.2</ele>
        <time>2023-02-25T13:59:31Z</time>
      </trkpt>
      <trkpt lat="49.83202" lon="2.24596">
        <ele>52.2</ele>
        <time>2023-02-25T13:59:32Z</time>
      </trkpt>
      <trkpt lat="49.83202" lon="2.24596">
        <ele>52.2</ele>
        <time>2023-02-25T13:59:33Z</time>
      </trkpt>
      <trkpt lat="49.83202" lon="2.24596">
        <ele>52.2</ele>
        <time>2023-02-25T13:59:34Z</time>
      </trkpt>
      <trkpt lat="49.83202" lon="2.24596">
        <ele>52.2</ele>
        <time>2023-02-25T13:59:35Z</time>
      </trkpt>
      <trkpt lat="49.83202" lon="2.24596">
        <ele>52.2</ele>
        <time>2023-02-25T13:59:37Z</time>
      </trkpt>
      <trkpt lat="49.83202" lon="2.24596">
        <ele>52.2</ele>
        <time>2023-02-25T13:59:38Z</time>
      </trkpt>
      <trkpt lat="49.83202" lon="2.24596">
        <ele>52.2</ele>
        <time>2023-02-25T13:59:39Z</time>
      </trkpt>
      <trkpt lat="49.83202" lon="2.24596">
        <ele>52.2</ele>
        <time>2023-02-25T13:59:40Z</time>
      </trkpt>
      <trkpt lat="49.83202" lon="2.24596">
        <ele>52.2</ele>
        <time>2023-02-25T13:59:41Z</time>
      </trkpt>
      <trkpt lat="49.83202" lon="2.24596">
        <ele>52.2</ele>
        <time>2023-02-25T13:59:42Z</time>
      </trkpt>
      <trkpt lat="49.83202" lon="2.24596">
        <ele>52.2</ele>
        <time>2023-02-25T13:59:43Z</time>
      </trkpt>
      <trkpt lat="49.83202" lon="2.24596">
        <ele>52.2</ele>
        <time>2023-02-25T13:59:44Z</time>
      </trkpt>
      <trkpt lat="49.83202" lon="2.24596">
        <ele>52.2</ele>
        <time>2023-02-25T13:59:45Z</time>
      </trkpt>
      <trkpt lat="49.83202" lon="2.24596">
        <ele>52.2</ele>
        <time>2023-02-25T13:59:46Z</time>
      </trkpt>
      <trkpt lat="49.83202" lon="2.24596">
        <ele>52.2</ele>
        <time>2023-02-25T13:59:47Z</time>
      </trkpt>
      <trkpt lat="49.83202" lon="2.24596">
        <ele>52.2</ele>
        <time>2023-02-25T13:59:48Z</time>
      </trkpt>
      <trkpt lat="49.83202" lon="2.24596">
        <ele>52.2</ele>
        <time>2023-02-25T13:59:49Z</time>
      </trkpt>
      <trkpt lat="49.83202" lon="2.24596">
        <ele>52.2</ele>
        <time>2023-02-25T13:59:50Z</time>
      </trkpt>
      <trkpt lat="49.83202" lon="2.24596">
        <ele>52.2</ele>
        <time>2023-02-25T13:59:51Z</time>
      </trkpt>
      <trkpt lat="49.83202" lon="2.24596">
        <ele>52.2</ele>
        <time>2023-02-25T13:59:52Z</time>
      </trkpt>
      <trkpt lat="49.83202" lon="2.24596">
        <ele>52.2</ele>
        <time>2023-02-25T13:59:53Z</time>
      </trkpt>
      <trkpt lat="49.83202" lon="2.24596">
        <ele>52.2</ele>
        <time>2023-02-25T13:59:54Z</time>
      </trkpt>
      <trkpt lat="49.83202" lon="2.24596">
        <ele>52.2</ele>
        <time>2023-02-25T13:59:55Z</time>
      </trkpt>
      <trkpt lat="49.83202" lon="2.24596">
        <ele>52.2</ele>
        <time>2023-02-25T13:59:56Z</time>
      </trkpt>
      <trkpt lat="49.83202" lon="2.24596">
        <ele>52.2</ele>
        <time>2023-02-25T13:59:57Z</time>
      </trkpt>
      <trkpt lat="49.83202" lon="2.24596">
        <ele>52.2</ele>
        <time>2023-02-25T13:59:58Z</time>
      </trkpt>
      <trkpt lat="49.83202" lon="2.24596">
        <ele>52.2</ele>
        <time>2023-02-25T13:59:59Z</time>
      </trkpt>
      <trkpt lat="49.83202" lon="2.24596">
        <ele>52.2</ele>
        <time>2023-02-25T14:00:00Z</time>
      </trkpt>
      <trkpt lat="49.83202" lon="2.24596">
        <ele>52.2</ele>
        <time>2023-02-25T14:00:01Z</time>
      </trkpt>
      <trkpt lat="49.83202" lon="2.24596">
        <ele>52.2</ele>
        <time>2023-02-25T14:00:02Z</time>
      </trkpt>
      <trkpt lat="49.83202" lon="2.24596">
        <ele>52.2</ele>
        <time>2023-02-25T14:00:03Z</time>
      </trkpt>
      <trkpt lat="49.83202" lon="2.24596">
        <ele>52.2</ele>
        <time>2023-02-25T14:00:04Z</time>
      </trkpt>
      <trkpt lat="49.83202" lon="2.24596">
        <ele>52.2</ele>
        <time>2023-02-25T14:00:05Z</time>
      </trkpt>
      <trkpt lat="49.83202" lon="2.24596">
        <ele>52.2</ele>
        <time>2023-02-25T14:00:06Z</time>
      </trkpt>
      <trkpt lat="49.83202" lon="2.24596">
        <ele>52.2</ele>
        <time>2023-02-25T14:00:07Z</time>
      </trkpt>
      <trkpt lat="49.83202" lon="2.24596">
        <ele>52.2</ele>
        <time>2023-02-25T14:00:08Z</time>
      </trkpt>
      <trkpt lat="49.83202" lon="2.24596">
        <ele>52.2</ele>
        <time>2023-02-25T14:00:09Z</time>
      </trkpt>
      <trkpt lat="49.83202" lon="2.24596">
        <ele>52.2</ele>
        <time>2023-02-25T14:00:10Z</time>
      </trkpt>
      <trkpt lat="49.83202" lon="2.24596">
        <ele>52.2</ele>
        <time>2023-02-25T14:00:11Z</time>
      </trkpt>
      <trkpt lat="49.83202" lon="2.24596">
        <ele>52.2</ele>
        <time>2023-02-25T14:00:12Z</time>
      </trkpt>
      <trkpt lat="49.83202" lon="2.24596">
        <ele>52.2</ele>
        <time>2023-02-25T14:00:13Z</time>
      </trkpt>
      <trkpt lat="49.83202" lon="2.24596">
        <ele>52.2</ele>
        <time>2023-02-25T14:00:14Z</time>
      </trkpt>
      <trkpt lat="49.83202" lon="2.24596">
        <ele>52.2</ele>
        <time>2023-02-25T14:00:15Z</time>
      </trkpt>
      <trkpt lat="49.83202" lon="2.24596">
        <ele>52.2</ele>
        <time>2023-02-25T14:00:16Z</time>
      </trkpt>
      <trkpt lat="49.83202" lon="2.24596">
        <ele>52.2</ele>
        <time>2023-02-25T14:00:17Z</time>
      </trkpt>
      <trkpt lat="49.83202" lon="2.24596">
        <ele>52.2</ele>
        <time>2023-02-25T14:00:18Z</time>
      </trkpt>
      <trkpt lat="49.83202" lon="2.24596">
        <ele>52.2</ele>
        <time>2023-02-25T14:00:19Z</time>
      </trkpt>
      <trkpt lat="49.83202" lon="2.24596">
        <ele>52.2</ele>
        <time>2023-02-25T14:00:20Z</time>
      </trkpt>
      <trkpt lat="49.83202" lon="2.24596">
        <ele>52.2</ele>
        <time>2023-02-25T14:00:21Z</time>
      </trkpt>
      <trkpt lat="49.83202" lon="2.24596">
        <ele>52.2</ele>
        <time>2023-02-25T14:00:22Z</time>
      </trkpt>
      <trkpt lat="49.83202" lon="2.24596">
        <ele>52.2</ele>
        <time>2023-02-25T14:00:23Z</time>
      </trkpt>
      <trkpt lat="49.83202" lon="2.24596">
        <ele>52.2</ele>
        <time>2023-02-25T14:00:24Z</time>
      </trkpt>
      <trkpt lat="49.83202" lon="2.24596">
        <ele>52.2</ele>
        <time>2023-02-25T14:00:25Z</time>
      </trkpt>
      <trkpt lat="49.83202" lon="2.24596">
        <ele>52.2</ele>
        <time>2023-02-25T14:00:26Z</time>
      </trkpt>
      <trkpt lat="49.83202" lon="2.24596">
        <ele>52.2</ele>
        <time>2023-02-25T14:00:28Z</time>
      </trkpt>
      <trkpt lat="49.83202" lon="2.24596">
        <ele>52.2</ele>
        <time>2023-02-25T14:00:29Z</time>
      </trkpt>
      <trkpt lat="49.83202" lon="2.24596">
        <ele>52.2</ele>
        <time>2023-02-25T14:00:31Z</time>
      </trkpt>
      <trkpt lat="49.83202" lon="2.24596">
        <ele>52.2</ele>
        <time>2023-02-25T14:00:32Z</time>
      </trkpt>
      <trkpt lat="49.83202" lon="2.24596">
        <ele>52.2</ele>
        <time>2023-02-25T14:00:33Z</time>
      </trkpt>
      <trkpt lat="49.83202" lon="2.24596">
        <ele>52.2</ele>
        <time>2023-02-25T14:00:34Z</time>
      </trkpt>
      <trkpt lat="49.83202" lon="2.24596">
        <ele>52.2</ele>
        <time>2023-02-25T14:00:35Z</time>
      </trkpt>
      <trkpt lat="49.83202" lon="2.24596">
        <ele>52.2</ele>
        <time>2023-02-25T14:00:36Z</time>
      </trkpt>
      <trkpt lat="49.83202" lon="2.24596">
        <ele>52.2</ele>
        <time>2023-02-25T14:00:37Z</time>
      </trkpt>
      <trkpt lat="49.83202" lon="2.24596">
        <ele>52.2</ele>
        <time>2023-02-25T14:00:38Z</time>
      </trkpt>
      <trkpt lat="49.83202" lon="2.24596">
        <ele>52.2</ele>
        <time>2023-02-25T14:00:39Z</time>
      </trkpt>
      <trkpt lat="49.83202" lon="2.24596">
        <ele>52.2</ele>
        <time>2023-02-25T14:00:40Z</time>
      </trkpt>
      <trkpt lat="49.83202" lon="2.24596">
        <ele>52.2</ele>
        <time>2023-02-25T14:00:41Z</time>
      </trkpt>
      <trkpt lat="49.83202" lon="2.24596">
        <ele>52.2</ele>
        <time>2023-02-25T14:00:42Z</time>
      </trkpt>
      <trkpt lat="49.83202" lon="2.24596">
        <ele>52.2</ele>
        <time>2023-02-25T14:00:43Z</time>
      </trkpt>
      <trkpt lat="49.83202" lon="2.24596">
        <ele>52.2</ele>
        <time>2023-02-25T14:00:44Z</time>
      </trkpt>
      <trkpt lat="49.83202" lon="2.24596">
        <ele>52.2</ele>
        <time>2023-02-25T14:00:45Z</time>
      </trkpt>
      <trkpt lat="49.83202" lon="2.24596">
        <ele>52.2</ele>
        <time>2023-02-25T14:00:46Z</time>
      </trkpt>
      <trkpt lat="49.83202" lon="2.24596">
        <ele>52.2</ele>
        <time>2023-02-25T14:00:47Z</time>
      </trkpt>
      <trkpt lat="49.83202" lon="2.24596">
        <ele>52.2</ele>
        <time>2023-02-25T14:00:48Z</time>
      </trkpt>
      <trkpt lat="49.83202" lon="2.24596">
        <ele>52.2</ele>
        <time>2023-02-25T14:00:49Z</time>
      </trkpt>
      <trkpt lat="49.83202" lon="2.24596">
        <ele>52.2</ele>
        <time>2023-02-25T14:00:50Z</time>
      </trkpt>
      <trkpt lat="49.83202" lon="2.24596">
        <ele>52.2</ele>
        <time>2023-02-25T14:00:51Z</time>
      </trkpt>
      <trkpt lat="49.83202" lon="2.24596">
        <ele>52.2</ele>
        <time>2023-02-25T14:00:52Z</time>
      </trkpt>
      <trkpt lat="49.83202" lon="2.24596">
        <ele>52.2</ele>
        <time>2023-02-25T14:00:53Z</time>
      </trkpt>
      <trkpt lat="49.83202" lon="2.24596">
        <ele>52.2</ele>
        <time>2023-02-25T14:00:54Z</time>
      </trkpt>
      <trkpt lat="49.83202" lon="2.24596">
        <ele>52.2</ele>
        <time>2023-02-25T14:00:55Z</time>
      </trkpt>
      <trkpt lat="49.83202" lon="2.24596">
        <ele>52.2</ele>
        <time>2023-02-25T14:00:56Z</time>
      </trkpt>
      <trkpt lat="49.83202" lon="2.24596">
        <ele>52.2</ele>
        <time>2023-02-25T14:00:57Z</time>
      </trkpt>
      <trkpt lat="49.83202" lon="2.24596">
        <ele>52.2</ele>
        <time>2023-02-25T14:00:58Z</time>
      </trkpt>
      <trkpt lat="49.83202" lon="2.24596">
        <ele>52.2</ele>
        <time>2023-02-25T14:00:59Z</time>
      </trkpt>
      <trkpt lat="49.83202" lon="2.24596">
        <ele>52.2</ele>
        <time>2023-02-25T14:01:00Z</time>
      </trkpt>
      <trkpt lat="49.83202" lon="2.24596">
        <ele>52.2</ele>
        <time>2023-02-25T14:01:01Z</time>
      </trkpt>
      <trkpt lat="49.83202" lon="2.24596">
        <ele>52.2</ele>
        <time>2023-02-25T14:01:02Z</time>
      </trkpt>
      <trkpt lat="49.83202" lon="2.24596">
        <ele>52.2</ele>
        <time>2023-02-25T14:01:03Z</time>
      </trkpt>
      <trkpt lat="49.83202" lon="2.24596">
        <ele>52.2</ele>
        <time>2023-02-25T14:01:04Z</time>
      </trkpt>
      <trkpt lat="49.83202" lon="2.24596">
        <ele>52.2</ele>
        <time>2023-02-25T14:01:05Z</time>
      </trkpt>
      <trkpt lat="49.83202" lon="2.24596">
        <ele>52.2</ele>
        <time>2023-02-25T14:01:06Z</time>
      </trkpt>
      <trkpt lat="49.83202" lon="2.24596">
        <ele>52.2</ele>
        <time>2023-02-25T14:01:07Z</time>
      </trkpt>
      <trkpt lat="49.83202" lon="2.24596">
        <ele>52.2</ele>
        <time>2023-02-25T14:01:08Z</time>
      </trkpt>
      <trkpt lat="49.83202" lon="2.24596">
        <ele>52.2</ele>
        <time>2023-02-25T14:01:09Z</time>
      </trkpt>
      <trkpt lat="49.83202" lon="2.24596">
        <ele>52.2</ele>
        <time>2023-02-25T14:01:10Z</time>
      </trkpt>
      <trkpt lat="49.83202" lon="2.24596">
        <ele>52.2</ele>
        <time>2023-02-25T14:01:11Z</time>
      </trkpt>
      <trkpt lat="49.83202" lon="2.24596">
        <ele>52.2</ele>
        <time>2023-02-25T14:01:12Z</time>
      </trkpt>
      <trkpt lat="49.83202" lon="2.24596">
        <ele>52.2</ele>
        <time>2023-02-25T14:01:13Z</time>
      </trkpt>
      <trkpt lat="49.83202" lon="2.24596">
        <ele>52.2</ele>
        <time>2023-02-25T14:01:14Z</time>
      </trkpt>
      <trkpt lat="49.83202" lon="2.24596">
        <ele>52.2</ele>
        <time>2023-02-25T14:01:15Z</time>
      </trkpt>
      <trkpt lat="49.83202" lon="2.24596">
        <ele>52.2</ele>
        <time>2023-02-25T14:01:16Z</time>
      </trkpt>
      <trkpt lat="49.83202" lon="2.24596">
        <ele>52.2</ele>
        <time>2023-02-25T14:01:18Z</time>
      </trkpt>
      <trkpt lat="49.83202" lon="2.24596">
        <ele>52.2</ele>
        <time>2023-02-25T14:01:19Z</time>
      </trkpt>
      <trkpt lat="49.83202" lon="2.24596">
        <ele>52.2</ele>
        <time>2023-02-25T14:01:20Z</time>
      </trkpt>
      <trkpt lat="49.83202" lon="2.24596">
        <ele>52.2</ele>
        <time>2023-02-25T14:01:21Z</time>
      </trkpt>
      <trkpt lat="49.83202" lon="2.24596">
        <ele>52.2</ele>
        <time>2023-02-25T14:01:22Z</time>
      </trkpt>
      <trkpt lat="49.83202" lon="2.24596">
        <ele>52.2</ele>
        <time>2023-02-25T14:01:23Z</time>
      </trkpt>
      <trkpt lat="49.83202" lon="2.24596">
        <ele>52.2</ele>
        <time>2023-02-25T14:01:24Z</time>
      </trkpt>
      <trkpt lat="49.83202" lon="2.24596">
        <ele>52.2</ele>
        <time>2023-02-25T14:01:25Z</time>
      </trkpt>
      <trkpt lat="49.83202" lon="2.24596">
        <ele>52.2</ele>
        <time>2023-02-25T14:01:26Z</time>
      </trkpt>
      <trkpt lat="49.83202" lon="2.24596">
        <ele>52.2</ele>
        <time>2023-02-25T14:01:27Z</time>
      </trkpt>
      <trkpt lat="49.83202" lon="2.24596">
        <ele>52.2</ele>
        <time>2023-02-25T14:01:28Z</time>
      </trkpt>
      <trkpt lat="49.83202" lon="2.24596">
        <ele>52.2</ele>
        <time>2023-02-25T14:01:29Z</time>
      </trkpt>
      <trkpt lat="49.83203" lon="2.24596">
        <ele>52.2</ele>
        <time>2023-02-25T14:01:30Z</time>
      </trkpt>
      <trkpt lat="49.83203" lon="2.24595">
        <ele>52.2</ele>
        <time>2023-02-25T14:01:31Z</time>
      </trkpt>
      <trkpt lat="49.83203" lon="2.24594">
        <ele>52.1</ele>
        <time>2023-02-25T14:01:32Z</time>
      </trkpt>
      <trkpt lat="49.83203" lon="2.24593">
        <ele>52.1</ele>
        <time>2023-02-25T14:01:33Z</time>
      </trkpt>
      <trkpt lat="49.83203" lon="2.24592">
        <ele>52.1</ele>
        <time>2023-02-25T14:01:34Z</time>
      </trkpt>
      <trkpt lat="49.83204" lon="2.2459">
        <ele>52.1</ele>
        <time>2023-02-25T14:01:35Z</time>
      </trkpt>
      <trkpt lat="49.83204" lon="2.2459">
        <ele>52.1</ele>
        <time>2023-02-25T14:01:36Z</time>
      </trkpt>
      <trkpt lat="49.83205" lon="2.2459">
        <ele>52.1</ele>
        <time>2023-02-25T14:01:39Z</time>
      </trkpt>
      <trkpt lat="49.83205" lon="2.2459">
        <ele>52.1</ele>
        <time>2023-02-25T14:01:40Z</time>
      </trkpt>
      <trkpt lat="49.83205" lon="2.2459">
        <ele>52.1</ele>
        <time>2023-02-25T14:01:42Z</time>
      </trkpt>
      <trkpt lat="49.83205" lon="2.2459">
        <ele>52.1</ele>
        <time>2023-02-25T14:01:43Z</time>
      </trkpt>
      <trkpt lat="49.83205" lon="2.24591">
        <ele>52.1</ele>
        <time>2023-02-25T14:01:45Z</time>
      </trkpt>
      <trkpt lat="49.83205" lon="2.24591">
        <ele>52.1</ele>
        <time>2023-02-25T14:01:46Z</time>
      </trkpt>
      <trkpt lat="49.83205" lon="2.24591">
        <ele>52.1</ele>
        <time>2023-02-25T14:01:47Z</time>
      </trkpt>
      <trkpt lat="49.83205" lon="2.24591">
        <ele>52.1</ele>
        <time>2023-02-25T14:01:49Z</time>
      </trkpt>
      <trkpt lat="49.83205" lon="2.24591">
        <ele>52.1</ele>
        <time>2023-02-25T14:01:50Z</time>
      </trkpt>
      <trkpt lat="49.83205" lon="2.24591">
        <ele>52.1</ele>
        <time>2023-02-25T14:01:52Z</time>
      </trkpt>
      <trkpt lat="49.83205" lon="2.24591">
        <ele>52.1</ele>
        <time>2023-02-25T14:01:53Z</time>
      </trkpt>
      <trkpt lat="49.83205" lon="2.24591">
        <ele>52.1</ele>
        <time>2023-02-25T14:01:54Z</time>
      </trkpt>
      <trkpt lat="49.83205" lon="2.24591">
        <ele>52.1</ele>
        <time>2023-02-25T14:01:55Z</time>
      </trkpt>
      <trkpt lat="49.83205" lon="2.24591">
        <ele>52.1</ele>
        <time>2023-02-25T14:01:56Z</time>
      </trkpt>
      <trkpt lat="49.83205" lon="2.24591">
        <ele>52.1</ele>
        <time>2023-02-25T14:01:57Z</time>
      </trkpt>
      <trkpt lat="49.83205" lon="2.24591">
        <ele>52.1</ele>
        <time>2023-02-25T14:01:58Z</time>
      </trkpt>
      <trkpt lat="49.83205" lon="2.24591">
        <ele>52.1</ele>
        <time>2023-02-25T14:01:59Z</time>
      </trkpt>
      <trkpt lat="49.83205" lon="2.24591">
        <ele>52.1</ele>
        <time>2023-02-25T14:02:00Z</time>
      </trkpt>
      <trkpt lat="49.83205" lon="2.24591">
        <ele>52.1</ele>
        <time>2023-02-25T14:02:01Z</time>
      </trkpt>
      <trkpt lat="49.83205" lon="2.24591">
        <ele>52.1</ele>
        <time>2023-02-25T14:02:02Z</time>
      </trkpt>
      <trkpt lat="49.83204" lon="2.24592">
        <ele>52.1</ele>
        <time>2023-02-25T14:02:03Z</time>
      </trkpt>
      <trkpt lat="49.83204" lon="2.24593">
        <ele>52.1</ele>
        <time>2023-02-25T14:02:04Z</time>
      </trkpt>
      <trkpt lat="49.83204" lon="2.24593">
        <ele>52.1</ele>
        <time>2023-02-25T14:02:05Z</time>
      </trkpt>
      <trkpt lat="49.83204" lon="2.24593">
        <ele>52.1</ele>
        <time>2023-02-25T14:02:06Z</time>
      </trkpt>
      <trkpt lat="49.83203" lon="2.24593">
        <ele>52.1</ele>
        <time>2023-02-25T14:02:07Z</time>
      </trkpt>
      <trkpt lat="49.83203" lon="2.24594">
        <ele>52.1</ele>
        <time>2023-02-25T14:02:08Z</time>
      </trkpt>
      <trkpt lat="49.83203" lon="2.24594">
        <ele>52.1</ele>
        <time>2023-02-25T14:02:09Z</time>
      </trkpt>
      <trkpt lat="49.83202" lon="2.24594">
        <ele>52.1</ele>
        <time>2023-02-25T14:02:11Z</time>
      </trkpt>
      <trkpt lat="49.83202" lon="2.24594">
        <ele>52.1</ele>
        <time>2023-02-25T14:02:13Z</time>
      </trkpt>
      <trkpt lat="49.83201" lon="2.24594">
        <ele>52.1</ele>
        <time>2023-02-25T14:02:14Z</time>
      </trkpt>
      <trkpt lat="49.83201" lon="2.24594">
        <ele>52.1</ele>
        <time>2023-02-25T14:02:15Z</time>
      </trkpt>
      <trkpt lat="49.83201" lon="2.24594">
        <ele>52.1</ele>
        <time>2023-02-25T14:02:17Z</time>
      </trkpt>
      <trkpt lat="49.83201" lon="2.24594">
        <ele>52.1</ele>
        <time>2023-02-25T14:02:18Z</time>
      </trkpt>
      <trkpt lat="49.832" lon="2.24593">
        <ele>52.1</ele>
        <time>2023-02-25T14:02:19Z</time>
      </trkpt>
      <trkpt lat="49.832" lon="2.24593">
        <ele>52.1</ele>
        <time>2023-02-25T14:02:21Z</time>
      </trkpt>
      <trkpt lat="49.832" lon="2.24593">
        <ele>52.1</ele>
        <time>2023-02-25T14:02:22Z</time>
      </trkpt>
      <trkpt lat="49.832" lon="2.24593">
        <ele>52.1</ele>
        <time>2023-02-25T14:02:23Z</time>
      </trkpt>
      <trkpt lat="49.832" lon="2.24592">
        <ele>52.1</ele>
        <time>2023-02-25T14:02:25Z</time>
      </trkpt>
      <trkpt lat="49.83201" lon="2.24591">
        <ele>52.1</ele>
        <time>2023-02-25T14:02:26Z</time>
      </trkpt>
      <trkpt lat="49.83202" lon="2.2459">
        <ele>52.1</ele>
        <time>2023-02-25T14:02:28Z</time>
      </trkpt>
      <trkpt lat="49.83203" lon="2.2459">
        <ele>52.1</ele>
        <time>2023-02-25T14:02:29Z</time>
      </trkpt>
      <trkpt lat="49.83204" lon="2.2459">
        <ele>52.1</ele>
        <time>2023-02-25T14:02:30Z</time>
      </trkpt>
      <trkpt lat="49.83206" lon="2.2459">
        <ele>52.1</ele>
        <time>2023-02-25T14:02:31Z</time>
      </trkpt>
      <trkpt lat="49.83207" lon="2.24589">
        <ele>52.1</ele>
        <time>2023-02-25T14:02:32Z</time>
      </trkpt>
      <trkpt lat="49.83208" lon="2.24588">
        <ele>52.1</ele>
        <time>2023-02-25T14:02:34Z</time>
      </trkpt>
      <trkpt lat="49.83208" lon="2.24586">
        <ele>52.1</ele>
        <time>2023-02-25T14:02:35Z</time>
      </trkpt>
      <trkpt lat="49.83209" lon="2.24585">
        <ele>52.1</ele>
        <time>2023-02-25T14:02:36Z</time>
      </trkpt>
      <trkpt lat="49.8321" lon="2.24584">
        <ele>52.1</ele>
        <time>2023-02-25T14:02:37Z</time>
      </trkpt>
      <trkpt lat="49.8321" lon="2.24582">
        <ele>52.1</ele>
        <time>2023-02-25T14:02:39Z</time>
      </trkpt>
      <trkpt lat="49.8321" lon="2.2458">
        <ele>52.2</ele>
        <time>2023-02-25T14:02:40Z</time>
      </trkpt>
      <trkpt lat="49.83211" lon="2.24579">
        <ele>52.2</ele>
        <time>2023-02-25T14:02:41Z</time>
      </trkpt>
      <trkpt lat="49.83211" lon="2.24577">
        <ele>52.2</ele>
        <time>2023-02-25T14:02:43Z</time>
      </trkpt>
      <trkpt lat="49.83212" lon="2.24576">
        <ele>52.2</ele>
        <time>2023-02-25T14:02:44Z</time>
      </trkpt>
      <trkpt lat="49.83213" lon="2.24574">
        <ele>52.2</ele>
        <time>2023-02-25T14:02:45Z</time>
      </trkpt>
      <trkpt lat="49.83213" lon="2.24573">
        <ele>52.3</ele>
        <time>2023-02-25T14:02:46Z</time>
      </trkpt>
      <trkpt lat="49.83214" lon="2.24571">
        <ele>52.3</ele>
        <time>2023-02-25T14:02:47Z</time>
      </trkpt>
      <trkpt lat="49.83214" lon="2.2457">
        <ele>52.3</ele>
        <time>2023-02-25T14:02:49Z</time>
      </trkpt>
      <trkpt lat="49.83215" lon="2.24568">
        <ele>52.3</ele>
        <time>2023-02-25T14:02:50Z</time>
      </trkpt>
      <trkpt lat="49.83215" lon="2.24566">
        <ele>52.4</ele>
        <time>2023-02-25T14:02:51Z</time>
      </trkpt>
      <trkpt lat="49.83216" lon="2.24564">
        <ele>52.4</ele>
        <time>2023-02-25T14:02:52Z</time>
      </trkpt>
      <trkpt lat="49.83216" lon="2.24562">
        <ele>52.5</ele>
        <time>2023-02-25T14:02:53Z</time>
      </trkpt>
      <trkpt lat="49.83217" lon="2.2456">
        <ele>52.5</ele>
        <time>2023-02-25T14:02:55Z</time>
      </trkpt>
      <trkpt lat="49.83218" lon="2.24559">
        <ele>52.6</ele>
        <time>2023-02-25T14:02:56Z</time>
      </trkpt>
      <trkpt lat="49.83218" lon="2.24558">
        <ele>52.6</ele>
        <time>2023-02-25T14:02:57Z</time>
      </trkpt>
      <trkpt lat="49.83219" lon="2.24557">
        <ele>52.6</ele>
        <time>2023-02-25T14:02:58Z</time>
      </trkpt>
      <trkpt lat="49.8322" lon="2.24555">
        <ele>52.7</ele>
        <time>2023-02-25T14:02:59Z</time>
      </trkpt>
      <trkpt lat="49.83221" lon="2.24553">
        <ele>52.7</ele>
        <time>2023-02-25T14:03:01Z</time>
      </trkpt>
      <trkpt lat="49.83221" lon="2.24552">
        <ele>52.8</ele>
        <time>2023-02-25T14:03:02Z</time>
      </trkpt>
      <trkpt lat="49.83221" lon="2.24551">
        <ele>52.8</ele>
        <time>2023-02-25T14:03:03Z</time>
      </trkpt>
      <trkpt lat="49.83222" lon="2.2455">
        <ele>52.8</ele>
        <time>2023-02-25T14:03:04Z</time>
      </trkpt>
      <trkpt lat="49.83223" lon="2.24549">
        <ele>52.9</ele>
        <time>2023-02-25T14:03:05Z</time>
      </trkpt>
      <trkpt lat="49.83223" lon="2.24547">
        <ele>52.9</ele>
        <time>2023-02-25T14:03:06Z</time>
      </trkpt>
      <trkpt lat="49.83224" lon="2.24546">
        <ele>53</ele>
        <time>2023-02-25T14:03:08Z</time>
      </trkpt>
      <trkpt lat="49.83225" lon="2.24545">
        <ele>53</ele>
        <time>2023-02-25T14:03:09Z</time>
      </trkpt>
      <trkpt lat="49.83226" lon="2.24544">
        <ele>53.1</ele>
        <time>2023-02-25T14:03:10Z</time>
      </trkpt>
      <trkpt lat="49.83226" lon="2.24542">
        <ele>53.1</ele>
        <time>2023-02-25T14:03:11Z</time>
      </trkpt>
      <trkpt lat="49.83227" lon="2.24541">
        <ele>53.2</ele>
        <time>2023-02-25T14:03:12Z</time>
      </trkpt>
      <trkpt lat="49.83227" lon="2.2454">
        <ele>53.3</ele>
        <time>2023-02-25T14:03:13Z</time>
      </trkpt>
      <trkpt lat="49.83228" lon="2.24539">
        <ele>53.3</ele>
        <time>2023-02-25T14:03:14Z</time>
      </trkpt>
      <trkpt lat="49.83229" lon="2.24537">
        <ele>53.4</ele>
        <time>2023-02-25T14:03:15Z</time>
      </trkpt>
      <trkpt lat="49.8323" lon="2.24536">
        <ele>53.4</ele>
        <time>2023-02-25T14:03:17Z</time>
      </trkpt>
      <trkpt lat="49.8323" lon="2.24535">
        <ele>53.5</ele>
        <time>2023-02-25T14:03:18Z</time>
      </trkpt>
      <trkpt lat="49.83231" lon="2.24534">
        <ele>53.5</ele>
        <time>2023-02-25T14:03:19Z</time>
      </trkpt>
      <trkpt lat="49.83231" lon="2.24533">
        <ele>53.6</ele>
        <time>2023-02-25T14:03:20Z</time>
      </trkpt>
      <trkpt lat="49.83232" lon="2.24532">
        <ele>53.6</ele>
        <time>2023-02-25T14:03:21Z</time>
      </trkpt>
      <trkpt lat="49.83232" lon="2.24532">
        <ele>53.7</ele>
        <time>2023-02-25T14:03:23Z</time>
      </trkpt>
      <trkpt lat="49.83233" lon="2.24531">
        <ele>53.7</ele>
        <time>2023-02-25T14:03:24Z</time>
      </trkpt>
      <trkpt lat="49.83234" lon="2.2453">
        <ele>53.8</ele>
        <time>2023-02-25T14:03:25Z</time>
      </trkpt>
      <trkpt lat="49.83235" lon="2.24528">
        <ele>53.8</ele>
        <time>2023-02-25T14:03:26Z</time>
      </trkpt>
      <trkpt lat="49.83235" lon="2.24527">
        <ele>53.9</ele>
        <time>2023-02-25T14:03:27Z</time>
      </trkpt>
      <trkpt lat="49.83235" lon="2.24526">
        <ele>54</ele>
        <time>2023-02-25T14:03:29Z</time>
      </trkpt>
      <trkpt lat="49.83236" lon="2.24524">
        <ele>54</ele>
        <time>2023-02-25T14:03:30Z</time>
      </trkpt>
      <trkpt lat="49.83237" lon="2.24523">
        <ele>54.1</ele>
        <time>2023-02-25T14:03:31Z</time>
      </trkpt>
      <trkpt lat="49.83238" lon="2.2452">
        <ele>54.2</ele>
        <time>2023-02-25T14:03:32Z</time>
      </trkpt>
      <trkpt lat="49.83238" lon="2.24519">
        <ele>54.3</ele>
        <time>2023-02-25T14:03:33Z</time>
      </trkpt>
      <trkpt lat="49.83239" lon="2.24518">
        <ele>54.3</ele>
        <time>2023-02-25T14:03:34Z</time>
      </trkpt>
      <trkpt lat="49.83239" lon="2.24517">
        <ele>54.4</ele>
        <time>2023-02-25T14:03:36Z</time>
      </trkpt>
      <trkpt lat="49.8324" lon="2.24514">
        <ele>54.5</ele>
        <time>2023-02-25T14:03:37Z</time>
      </trkpt>
      <trkpt lat="49.8324" lon="2.24512">
        <ele>54.6</ele>
        <time>2023-02-25T14:03:38Z</time>
      </trkpt>
      <trkpt lat="49.83241" lon="2.24511">
        <ele>54.7</ele>
        <time>2023-02-25T14:03:39Z</time>
      </trkpt>
      <trkpt lat="49.83241" lon="2.2451">
        <ele>54.7</ele>
        <time>2023-02-25T14:03:40Z</time>
      </trkpt>
      <trkpt lat="49.83241" lon="2.24509">
        <ele>54.8</ele>
        <time>2023-02-25T14:03:41Z</time>
      </trkpt>
      <trkpt lat="49.83242" lon="2.24508">
        <ele>54.9</ele>
        <time>2023-02-25T14:03:42Z</time>
      </trkpt>
      <trkpt lat="49.83243" lon="2.24507">
        <ele>54.9</ele>
        <time>2023-02-25T14:03:44Z</time>
      </trkpt>
      <trkpt lat="49.83243" lon="2.24506">
        <ele>55</ele>
        <time>2023-02-25T14:03:45Z</time>
      </trkpt>
      <trkpt lat="49.83243" lon="2.24505">
        <ele>55</ele>
        <time>2023-02-25T14:03:46Z</time>
      </trkpt>
      <trkpt lat="49.83244" lon="2.24503">
        <ele>55.1</ele>
        <time>2023-02-25T14:03:47Z</time>
      </trkpt>
      <trkpt lat="49.83244" lon="2.24502">
        <ele>55.2</ele>
        <time>2023-02-25T14:03:48Z</time>
      </trkpt>
      <trkpt lat="49.83245" lon="2.245">
        <ele>55.3</ele>
        <time>2023-02-25T14:03:49Z</time>
      </trkpt>
      <trkpt lat="49.83245" lon="2.24498">
        <ele>55.4</ele>
        <time>2023-02-25T14:03:50Z</time>
      </trkpt>
      <trkpt lat="49.83246" lon="2.24497">
        <ele>55.5</ele>
        <time>2023-02-25T14:03:51Z</time>
      </trkpt>
      <trkpt lat="49.83247" lon="2.24496">
        <ele>55.6</ele>
        <time>2023-02-25T14:03:53Z</time>
      </trkpt>
      <trkpt lat="49.83248" lon="2.24495">
        <ele>55.7</ele>
        <time>2023-02-25T14:03:54Z</time>
      </trkpt>
      <trkpt lat="49.83248" lon="2.24494">
        <ele>55.8</ele>
        <time>2023-02-25T14:03:55Z</time>
      </trkpt>
      <trkpt lat="49.83248" lon="2.24492">
        <ele>55.8</ele>
        <time>2023-02-25T14:03:56Z</time>
      </trkpt>
      <trkpt lat="49.83249" lon="2.2449">
        <ele>56</ele>
        <time>2023-02-25T14:03:58Z</time>
      </trkpt>
      <trkpt lat="49.8325" lon="2.24489">
        <ele>56.1</ele>
        <time>2023-02-25T14:04:00Z</time>
      </trkpt>
      <trkpt lat="49.83251" lon="2.24487">
        <ele>56.2</ele>
        <time>2023-02-25T14:04:01Z</time>
      </trkpt>
      <trkpt lat="49.83252" lon="2.24485">
        <ele>56.4</ele>
        <time>2023-02-25T14:04:03Z</time>
      </trkpt>
      <trkpt lat="49.83253" lon="2.24484">
        <ele>56.5</ele>
        <time>2023-02-25T14:04:05Z</time>
      </trkpt>
      <trkpt lat="49.83253" lon="2.24483">
        <ele>56.6</ele>
        <time>2023-02-25T14:04:06Z</time>
      </trkpt>
      <trkpt lat="49.83254" lon="2.24481">
        <ele>56.7</ele>
        <time>2023-02-25T14:04:07Z</time>
      </trkpt>
      <trkpt lat="49.83254" lon="2.2448">
        <ele>56.8</ele>
        <time>2023-02-25T14:04:08Z</time>
      </trkpt>
      <trkpt lat="49.83255" lon="2.24478">
        <ele>57</ele>
        <time>2023-02-25T14:04:09Z</time>
      </trkpt>
      <trkpt lat="49.83255" lon="2.24477">
        <ele>57</ele>
        <time>2023-02-25T14:04:10Z</time>
      </trkpt>
      <trkpt lat="49.83256" lon="2.24476">
        <ele>57.1</ele>
        <time>2023-02-25T14:04:12Z</time>
      </trkpt>
      <trkpt lat="49.83257" lon="2.24474">
        <ele>57.3</ele>
        <time>2023-02-25T14:04:13Z</time>
      </trkpt>
      <trkpt lat="49.83257" lon="2.24473">
        <ele>57.4</ele>
        <time>2023-02-25T14:04:15Z</time>
      </trkpt>
      <trkpt lat="49.83258" lon="2.24472">
        <ele>57.5</ele>
        <time>2023-02-25T14:04:16Z</time>
      </trkpt>
      <trkpt lat="49.83259" lon="2.24471">
        <ele>57.6</ele>
        <time>2023-02-25T14:04:17Z</time>
      </trkpt>
      <trkpt lat="49.8326" lon="2.24469">
        <ele>57.7</ele>
        <time>2023-02-25T14:04:18Z</time>
      </trkpt>
      <trkpt lat="49.8326" lon="2.24469">
        <ele>57.8</ele>
        <time>2023-02-25T14:04:19Z</time>
      </trkpt>
      <trkpt lat="49.83261" lon="2.24468">
        <ele>57.9</ele>
        <time>2023-02-25T14:04:20Z</time>
      </trkpt>
      <trkpt lat="49.83261" lon="2.24467">
        <ele>58</ele>
        <time>2023-02-25T14:04:22Z</time>
      </trkpt>
      <trkpt lat="49.83263" lon="2.24466">
        <ele>58.1</ele>
        <time>2023-02-25T14:04:23Z</time>
      </trkpt>
      <trkpt lat="49.83263" lon="2.24466">
        <ele>58.2</ele>
        <time>2023-02-25T14:04:24Z</time>
      </trkpt>
      <trkpt lat="49.83264" lon="2.24465">
        <ele>58.3</ele>
        <time>2023-02-25T14:04:25Z</time>
      </trkpt>
      <trkpt lat="49.83265" lon="2.24464">
        <ele>58.4</ele>
        <time>2023-02-25T14:04:27Z</time>
      </trkpt>
      <trkpt lat="49.83266" lon="2.24462">
        <ele>58.5</ele>
        <time>2023-02-25T14:04:29Z</time>
      </trkpt>
      <trkpt lat="49.83267" lon="2.24462">
        <ele>58.6</ele>
        <time>2023-02-25T14:04:30Z</time>
      </trkpt>
      <trkpt lat="49.83267" lon="2.24461">
        <ele>58.7</ele>
        <time>2023-02-25T14:04:31Z</time>
      </trkpt>
      <trkpt lat="49.83268" lon="2.24459">
        <ele>58.8</ele>
        <time>2023-02-25T14:04:32Z</time>
      </trkpt>
      <trkpt lat="49.83269" lon="2.24458">
        <ele>59</ele>
        <time>2023-02-25T14:04:34Z</time>
      </trkpt>
      <trkpt lat="49.8327" lon="2.24457">
        <ele>59</ele>
        <time>2023-02-25T14:04:35Z</time>
      </trkpt>
      <trkpt lat="49.8327" lon="2.24456">
        <ele>59.2</ele>
        <time>2023-02-25T14:04:36Z</time>
      </trkpt>
      <trkpt lat="49.83271" lon="2.24455">
        <ele>59.2</ele>
        <time>2023-02-25T14:04:38Z</time>
      </trkpt>
      <trkpt lat="49.83271" lon="2.24453">
        <ele>59.4</ele>
        <time>2023-02-25T14:04:39Z</time>
      </trkpt>
      <trkpt lat="49.83271" lon="2.24452">
        <ele>59.4</ele>
        <time>2023-02-25T14:04:40Z</time>
      </trkpt>
      <trkpt lat="49.83272" lon="2.24451">
        <ele>59.5</ele>
        <time>2023-02-25T14:04:41Z</time>
      </trkpt>
      <trkpt lat="49.83273" lon="2.24449">
        <ele>59.7</ele>
        <time>2023-02-25T14:04:42Z</time>
      </trkpt>
      <trkpt lat="49.83274" lon="2.24447">
        <ele>59.9</ele>
        <time>2023-02-25T14:04:44Z</time>
      </trkpt>
      <trkpt lat="49.83274" lon="2.24445">
        <ele>60</ele>
        <time>2023-02-25T14:04:46Z</time>
      </trkpt>
      <trkpt lat="49.83275" lon="2.24444">
        <ele>60.1</ele>
        <time>2023-02-25T14:04:47Z</time>
      </trkpt>
      <trkpt lat="49.83275" lon="2.24442">
        <ele>60.2</ele>
        <time>2023-02-25T14:04:48Z</time>
      </trkpt>
      <trkpt lat="49.83276" lon="2.24441">
        <ele>60.3</ele>
        <time>2023-02-25T14:04:50Z</time>
      </trkpt>
      <trkpt lat="49.83277" lon="2.2444">
        <ele>60.4</ele>
        <time>2023-02-25T14:04:52Z</time>
      </trkpt>
      <trkpt lat="49.83277" lon="2.24439">
        <ele>60.5</ele>
        <time>2023-02-25T14:04:53Z</time>
      </trkpt>
      <trkpt lat="49.83278" lon="2.24438">
        <ele>60.6</ele>
        <time>2023-02-25T14:04:54Z</time>
      </trkpt>
      <trkpt lat="49.83279" lon="2.24436">
        <ele>60.8</ele>
        <time>2023-02-25T14:04:55Z</time>
      </trkpt>
      <trkpt lat="49.8328" lon="2.24435">
        <ele>60.9</ele>
        <time>2023-02-25T14:04:56Z</time>
      </trkpt>
      <trkpt lat="49.8328" lon="2.24435">
        <ele>61</ele>
        <time>2023-02-25T14:04:57Z</time>
      </trkpt>
      <trkpt lat="49.83281" lon="2.24434">
        <ele>61.1</ele>
        <time>2023-02-25T14:04:58Z</time>
      </trkpt>
      <trkpt lat="49.83281" lon="2.24433">
        <ele>61.1</ele>
        <time>2023-02-25T14:05:00Z</time>
      </trkpt>
      <trkpt lat="49.83282" lon="2.24433">
        <ele>61.2</ele>
        <time>2023-02-25T14:05:01Z</time>
      </trkpt>
      <trkpt lat="49.83282" lon="2.24432">
        <ele>61.3</ele>
        <time>2023-02-25T14:05:02Z</time>
      </trkpt>
      <trkpt lat="49.83283" lon="2.24431">
        <ele>61.4</ele>
        <time>2023-02-25T14:05:03Z</time>
      </trkpt>
      <trkpt lat="49.83284" lon="2.24429">
        <ele>61.6</ele>
        <time>2023-02-25T14:05:04Z</time>
      </trkpt>
      <trkpt lat="49.83285" lon="2.24428">
        <ele>61.7</ele>
        <time>2023-02-25T14:05:06Z</time>
      </trkpt>
      <trkpt lat="49.83286" lon="2.24427">
        <ele>61.8</ele>
        <time>2023-02-25T14:05:08Z</time>
      </trkpt>
      <trkpt lat="49.83287" lon="2.24427">
        <ele>61.9</ele>
        <time>2023-02-25T14:05:09Z</time>
      </trkpt>
      <trkpt lat="49.83288" lon="2.24426">
        <ele>62</ele>
        <time>2023-02-25T14:05:10Z</time>
      </trkpt>
      <trkpt lat="49.83288" lon="2.24425">
        <ele>62.1</ele>
        <time>2023-02-25T14:05:12Z</time>
      </trkpt>
      <trkpt lat="49.83288" lon="2.24424">
        <ele>62.2</ele>
        <time>2023-02-25T14:05:13Z</time>
      </trkpt>
      <trkpt lat="49.83288" lon="2.24422">
        <ele>62.3</ele>
        <time>2023-02-25T14:05:15Z</time>
      </trkpt>
      <trkpt lat="49.83288" lon="2.24422">
        <ele>62.4</ele>
        <time>2023-02-25T14:05:16Z</time>
      </trkpt>
      <trkpt lat="49.83287" lon="2.24422">
        <ele>62.5</ele>
        <time>2023-02-25T14:05:17Z</time>
      </trkpt>
      <trkpt lat="49.83286" lon="2.24424">
        <ele>62.7</ele>
        <time>2023-02-25T14:05:18Z</time>
      </trkpt>
      <trkpt lat="49.83285" lon="2.24425">
        <ele>62.9</ele>
        <time>2023-02-25T14:05:20Z</time>
      </trkpt>
      <trkpt lat="49.83284" lon="2.24427">
        <ele>63</ele>
        <time>2023-02-25T14:05:22Z</time>
      </trkpt>
      <trkpt lat="49.83284" lon="2.24427">
        <ele>63.1</ele>
        <time>2023-02-25T14:05:23Z</time>
      </trkpt>
      <trkpt lat="49.83283" lon="2.24428">
        <ele>63.1</ele>
        <time>2023-02-25T14:05:25Z</time>
      </trkpt>
      <trkpt lat="49.83283" lon="2.24429">
        <ele>63.1</ele>
        <time>2023-02-25T14:05:26Z</time>
      </trkpt>
      <trkpt lat="49.83283" lon="2.24429">
        <ele>63.2</ele>
        <time>2023-02-25T14:05:27Z</time>
      </trkpt>
      <trkpt lat="49.83283" lon="2.24429">
        <ele>63.2</ele>
        <time>2023-02-25T14:05:28Z</time>
      </trkpt>
      <trkpt lat="49.83284" lon="2.24429">
        <ele>63.2</ele>
        <time>2023-02-25T14:05:29Z</time>
      </trkpt>
      <trkpt lat="49.83284" lon="2.24429">
        <ele>63.2</ele>
        <time>2023-02-25T14:05:30Z</time>
      </trkpt>
      <trkpt lat="49.83284" lon="2.24428">
        <ele>63.3</ele>
        <time>2023-02-25T14:05:32Z</time>
      </trkpt>
      <trkpt lat="49.83286" lon="2.24425">
        <ele>63.6</ele>
        <time>2023-02-25T14:05:33Z</time>
      </trkpt>
      <trkpt lat="49.83287" lon="2.24423">
        <ele>63.8</ele>
        <time>2023-02-25T14:05:35Z</time>
      </trkpt>
      <trkpt lat="49.83288" lon="2.24422">
        <ele>63.9</ele>
        <time>2023-02-25T14:05:36Z</time>
      </trkpt>
      <trkpt lat="49.83289" lon="2.24421">
        <ele>64</ele>
        <time>2023-02-25T14:05:37Z</time>
      </trkpt>
      <trkpt lat="49.8329" lon="2.2442">
        <ele>64.1</ele>
        <time>2023-02-25T14:05:38Z</time>
      </trkpt>
      <trkpt lat="49.8329" lon="2.24418">
        <ele>64.2</ele>
        <time>2023-02-25T14:05:39Z</time>
      </trkpt>
      <trkpt lat="49.83291" lon="2.24416">
        <ele>64.5</ele>
        <time>2023-02-25T14:05:41Z</time>
      </trkpt>
      <trkpt lat="49.83292" lon="2.24413">
        <ele>64.7</ele>
        <time>2023-02-25T14:05:43Z</time>
      </trkpt>
      <trkpt lat="49.83293" lon="2.24412">
        <ele>64.7</ele>
        <time>2023-02-25T14:05:44Z</time>
      </trkpt>
      <trkpt lat="49.83294" lon="2.2441">
        <ele>64.9</ele>
        <time>2023-02-25T14:05:45Z</time>
      </trkpt>
      <trkpt lat="49.83294" lon="2.24408">
        <ele>65</ele>
        <time>2023-02-25T14:05:47Z</time>
      </trkpt>
      <trkpt lat="49.83295" lon="2.24407">
        <ele>65.1</ele>
        <time>2023-02-25T14:05:48Z</time>
      </trkpt>
      <trkpt lat="49.83296" lon="2.24405">
        <ele>65.3</ele>
        <time>2023-02-25T14:05:50Z</time>
      </trkpt>
      <trkpt lat="49.83297" lon="2.24403">
        <ele>65.4</ele>
        <time>2023-02-25T14:05:51Z</time>
      </trkpt>
      <trkpt lat="49.83297" lon="2.24402">
        <ele>65.5</ele>
        <time>2023-02-25T14:05:53Z</time>
      </trkpt>
      <trkpt lat="49.83298" lon="2.24401">
        <ele>65.6</ele>
        <time>2023-02-25T14:05:55Z</time>
      </trkpt>
      <trkpt lat="49.83298" lon="2.24401">
        <ele>65.6</ele>
        <time>2023-02-25T14:05:56Z</time>
      </trkpt>
      <trkpt lat="49.83297" lon="2.24401">
        <ele>65.6</ele>
        <time>2023-02-25T14:05:58Z</time>
      </trkpt>
      <trkpt lat="49.83297" lon="2.24401">
        <ele>65.6</ele>
        <time>2023-02-25T14:05:59Z</time>
      </trkpt>
      <trkpt lat="49.83297" lon="2.24401">
        <ele>65.6</ele>
        <time>2023-02-25T14:06:00Z</time>
      </trkpt>
      <trkpt lat="49.83297" lon="2.24401">
        <ele>65.6</ele>
        <time>2023-02-25T14:06:02Z</time>
      </trkpt>
      <trkpt lat="49.83297" lon="2.24401">
        <ele>65.6</ele>
        <time>2023-02-25T14:06:03Z</time>
      </trkpt>
      <trkpt lat="49.83297" lon="2.24401">
        <ele>65.6</ele>
        <time>2023-02-25T14:06:05Z</time>
      </trkpt>
      <trkpt lat="49.83297" lon="2.24401">
        <ele>65.7</ele>
        <time>2023-02-25T14:06:06Z</time>
      </trkpt>
      <trkpt lat="49.83297" lon="2.24401">
        <ele>65.7</ele>
        <time>2023-02-25T14:06:08Z</time>
      </trkpt>
      <trkpt lat="49.83297" lon="2.24401">
        <ele>65.7</ele>
        <time>2023-02-25T14:06:09Z</time>
      </trkpt>
      <trkpt lat="49.83297" lon="2.24401">
        <ele>65.7</ele>
        <time>2023-02-25T14:06:10Z</time>
      </trkpt>
      <trkpt lat="49.83297" lon="2.24401">
        <ele>65.7</ele>
        <time>2023-02-25T14:06:11Z</time>
      </trkpt>
      <trkpt lat="49.83296" lon="2.24402">
        <ele>65.8</ele>
        <time>2023-02-25T14:06:12Z</time>
      </trkpt>
      <trkpt lat="49.83296" lon="2.24402">
        <ele>65.8</ele>
        <time>2023-02-25T14:06:13Z</time>
      </trkpt>
      <trkpt lat="49.83297" lon="2.24401">
        <ele>65.9</ele>
        <time>2023-02-25T14:06:14Z</time>
      </trkpt>
      <trkpt lat="49.83298" lon="2.244">
        <ele>66</ele>
        <time>2023-02-25T14:06:15Z</time>
      </trkpt>
      <trkpt lat="49.83299" lon="2.24399">
        <ele>66.1</ele>
        <time>2023-02-25T14:06:16Z</time>
      </trkpt>
      <trkpt lat="49.83299" lon="2.24398">
        <ele>66.2</ele>
        <time>2023-02-25T14:06:17Z</time>
      </trkpt>
      <trkpt lat="49.833" lon="2.24397">
        <ele>66.3</ele>
        <time>2023-02-25T14:06:19Z</time>
      </trkpt>
      <trkpt lat="49.83301" lon="2.24397">
        <ele>66.3</ele>
        <time>2023-02-25T14:06:20Z</time>
      </trkpt>
      <trkpt lat="49.83301" lon="2.24396">
        <ele>66.4</ele>
        <time>2023-02-25T14:06:21Z</time>
      </trkpt>
      <trkpt lat="49.83302" lon="2.24395">
        <ele>66.5</ele>
        <time>2023-02-25T14:06:22Z</time>
      </trkpt>
      <trkpt lat="49.83302" lon="2.24394">
        <ele>66.5</ele>
        <time>2023-02-25T14:06:23Z</time>
      </trkpt>
      <trkpt lat="49.83304" lon="2.24392">
        <ele>66.7</ele>
        <time>2023-02-25T14:06:25Z</time>
      </trkpt>
      <trkpt lat="49.83304" lon="2.24391">
        <ele>66.8</ele>
        <time>2023-02-25T14:06:26Z</time>
      </trkpt>
      <trkpt lat="49.83305" lon="2.24391">
        <ele>66.8</ele>
        <time>2023-02-25T14:06:28Z</time>
      </trkpt>
      <trkpt lat="49.83305" lon="2.24389">
        <ele>66.9</ele>
        <time>2023-02-25T14:06:29Z</time>
      </trkpt>
      <trkpt lat="49.83306" lon="2.24389">
        <ele>67</ele>
        <time>2023-02-25T14:06:30Z</time>
      </trkpt>
      <trkpt lat="49.83307" lon="2.24388">
        <ele>67.1</ele>
        <time>2023-02-25T14:06:31Z</time>
      </trkpt>
      <trkpt lat="49.83307" lon="2.24386">
        <ele>67.1</ele>
        <time>2023-02-25T14:06:32Z</time>
      </trkpt>
      <trkpt lat="49.83308" lon="2.24385">
        <ele>67.2</ele>
        <time>2023-02-25T14:06:34Z</time>
      </trkpt>
      <trkpt lat="49.83308" lon="2.24385">
        <ele>67.3</ele>
        <time>2023-02-25T14:06:35Z</time>
      </trkpt>
      <trkpt lat="49.83309" lon="2.24383">
        <ele>67.4</ele>
        <time>2023-02-25T14:06:36Z</time>
      </trkpt>
      <trkpt lat="49.8331" lon="2.24382">
        <ele>67.5</ele>
        <time>2023-02-25T14:06:37Z</time>
      </trkpt>
      <trkpt lat="49.83311" lon="2.24381">
        <ele>67.6</ele>
        <time>2023-02-25T14:06:39Z</time>
      </trkpt>
      <trkpt lat="49.83312" lon="2.24381">
        <ele>67.6</ele>
        <time>2023-02-25T14:06:40Z</time>
      </trkpt>
      <trkpt lat="49.83313" lon="2.2438">
        <ele>67.7</ele>
        <time>2023-02-25T14:06:41Z</time>
      </trkpt>
      <trkpt lat="49.83313" lon="2.24379">
        <ele>67.8</ele>
        <time>2023-02-25T14:06:43Z</time>
      </trkpt>
      <trkpt lat="49.83314" lon="2.24377">
        <ele>67.9</ele>
        <time>2023-02-25T14:06:44Z</time>
      </trkpt>
      <trkpt lat="49.83315" lon="2.24376">
        <ele>68</ele>
        <time>2023-02-25T14:06:45Z</time>
      </trkpt>
      <trkpt lat="49.83315" lon="2.24376">
        <ele>68</ele>
        <time>2023-02-25T14:06:46Z</time>
      </trkpt>
      <trkpt lat="49.83316" lon="2.24375">
        <ele>68.1</ele>
        <time>2023-02-25T14:06:47Z</time>
      </trkpt>
      <trkpt lat="49.83316" lon="2.24374">
        <ele>68.1</ele>
        <time>2023-02-25T14:06:48Z</time>
      </trkpt>
      <trkpt lat="49.83317" lon="2.24373">
        <ele>68.2</ele>
        <time>2023-02-25T14:06:50Z</time>
      </trkpt>
      <trkpt lat="49.83318" lon="2.24372">
        <ele>68.3</ele>
        <time>2023-02-25T14:06:51Z</time>
      </trkpt>
      <trkpt lat="49.83318" lon="2.24371">
        <ele>68.4</ele>
        <time>2023-02-25T14:06:52Z</time>
      </trkpt>
      <trkpt lat="49.83319" lon="2.24369">
        <ele>68.5</ele>
        <time>2023-02-25T14:06:53Z</time>
      </trkpt>
      <trkpt lat="49.8332" lon="2.24368">
        <ele>68.6</ele>
        <time>2023-02-25T14:06:55Z</time>
      </trkpt>
      <trkpt lat="49.83321" lon="2.24367">
        <ele>68.6</ele>
        <time>2023-02-25T14:06:56Z</time>
      </trkpt>
      <trkpt lat="49.83321" lon="2.24366">
        <ele>68.7</ele>
        <time>2023-02-25T14:06:57Z</time>
      </trkpt>
      <trkpt lat="49.83322" lon="2.24365">
        <ele>68.8</ele>
        <time>2023-02-25T14:06:58Z</time>
      </trkpt>
      <trkpt lat="49.83323" lon="2.24364">
        <ele>68.9</ele>
        <time>2023-02-25T14:06:59Z</time>
      </trkpt>
      <trkpt lat="49.83324" lon="2.24363">
        <ele>68.9</ele>
        <time>2023-02-25T14:07:01Z</time>
      </trkpt>
      <trkpt lat="49.83324" lon="2.24363">
        <ele>69</ele>
        <time>2023-02-25T14:07:02Z</time>
      </trkpt>
      <trkpt lat="49.83325" lon="2.24362">
        <ele>69.1</ele>
        <time>2023-02-25T14:07:03Z</time>
      </trkpt>
      <trkpt lat="49.83326" lon="2.24361">
        <ele>69.2</ele>
        <time>2023-02-25T14:07:04Z</time>
      </trkpt>
      <trkpt lat="49.83327" lon="2.2436">
        <ele>69.2</ele>
        <time>2023-02-25T14:07:05Z</time>
      </trkpt>
      <trkpt lat="49.83327" lon="2.24359">
        <ele>69.3</ele>
        <time>2023-02-25T14:07:06Z</time>
      </trkpt>
      <trkpt lat="49.83328" lon="2.24358">
        <ele>69.3</ele>
        <time>2023-02-25T14:07:07Z</time>
      </trkpt>
      <trkpt lat="49.83328" lon="2.24357">
        <ele>69.4</ele>
        <time>2023-02-25T14:07:09Z</time>
      </trkpt>
      <trkpt lat="49.83329" lon="2.24355">
        <ele>69.5</ele>
        <time>2023-02-25T14:07:10Z</time>
      </trkpt>
      <trkpt lat="49.83329" lon="2.24354">
        <ele>69.6</ele>
        <time>2023-02-25T14:07:11Z</time>
      </trkpt>
      <trkpt lat="49.8333" lon="2.24352">
        <ele>69.7</ele>
        <time>2023-02-25T14:07:12Z</time>
      </trkpt>
      <trkpt lat="49.83331" lon="2.24351">
        <ele>69.7</ele>
        <time>2023-02-25T14:07:13Z</time>
      </trkpt>
      <trkpt lat="49.83331" lon="2.24349">
        <ele>69.8</ele>
        <time>2023-02-25T14:07:15Z</time>
      </trkpt>
      <trkpt lat="49.83332" lon="2.24348">
        <ele>69.9</ele>
        <time>2023-02-25T14:07:16Z</time>
      </trkpt>
      <trkpt lat="49.83333" lon="2.24346">
        <ele>70</ele>
        <time>2023-02-25T14:07:17Z</time>
      </trkpt>
      <trkpt lat="49.83334" lon="2.24345">
        <ele>70.1</ele>
        <time>2023-02-25T14:07:18Z</time>
      </trkpt>
      <trkpt lat="49.83334" lon="2.24344">
        <ele>70.2</ele>
        <time>2023-02-25T14:07:19Z</time>
      </trkpt>
      <trkpt lat="49.83335" lon="2.24342">
        <ele>70.3</ele>
        <time>2023-02-25T14:07:21Z</time>
      </trkpt>
      <trkpt lat="49.83336" lon="2.24341">
        <ele>70.3</ele>
        <time>2023-02-25T14:07:23Z</time>
      </trkpt>
      <trkpt lat="49.83336" lon="2.2434">
        <ele>70.4</ele>
        <time>2023-02-25T14:07:24Z</time>
      </trkpt>
      <trkpt lat="49.83337" lon="2.24339">
        <ele>70.5</ele>
        <time>2023-02-25T14:07:25Z</time>
      </trkpt>
      <trkpt lat="49.83337" lon="2.24338">
        <ele>70.5</ele>
        <time>2023-02-25T14:07:26Z</time>
      </trkpt>
      <trkpt lat="49.83338" lon="2.24337">
        <ele>70.6</ele>
        <time>2023-02-25T14:07:27Z</time>
      </trkpt>
      <trkpt lat="49.83339" lon="2.24335">
        <ele>70.7</ele>
        <time>2023-02-25T14:07:29Z</time>
      </trkpt>
      <trkpt lat="49.8334" lon="2.24333">
        <ele>70.8</ele>
        <time>2023-02-25T14:07:31Z</time>
      </trkpt>
      <trkpt lat="49.83341" lon="2.24332">
        <ele>70.9</ele>
        <time>2023-02-25T14:07:33Z</time>
      </trkpt>
      <trkpt lat="49.83342" lon="2.24331">
        <ele>71</ele>
        <time>2023-02-25T14:07:34Z</time>
      </trkpt>
      <trkpt lat="49.83342" lon="2.2433">
        <ele>71</ele>
        <time>2023-02-25T14:07:35Z</time>
      </trkpt>
      <trkpt lat="49.83343" lon="2.24328">
        <ele>71.1</ele>
        <time>2023-02-25T14:07:37Z</time>
      </trkpt>
      <trkpt lat="49.83344" lon="2.24327">
        <ele>71.2</ele>
        <time>2023-02-25T14:07:39Z</time>
      </trkpt>
      <trkpt lat="49.83344" lon="2.24326">
        <ele>71.3</ele>
        <time>2023-02-25T14:07:40Z</time>
      </trkpt>
      <trkpt lat="49.83345" lon="2.24325">
        <ele>71.3</ele>
        <time>2023-02-25T14:07:41Z</time>
      </trkpt>
      <trkpt lat="49.83346" lon="2.24324">
        <ele>71.4</ele>
        <time>2023-02-25T14:07:42Z</time>
      </trkpt>
      <trkpt lat="49.83346" lon="2.24323">
        <ele>71.4</ele>
        <time>2023-02-25T14:07:43Z</time>
      </trkpt>
      <trkpt lat="49.83347" lon="2.24321">
        <ele>71.5</ele>
        <time>2023-02-25T14:07:45Z</time>
      </trkpt>
      <trkpt lat="49.83348" lon="2.2432">
        <ele>71.6</ele>
        <time>2023-02-25T14:07:47Z</time>
      </trkpt>
      <trkpt lat="49.83348" lon="2.24319">
        <ele>71.7</ele>
        <time>2023-02-25T14:07:48Z</time>
      </trkpt>
      <trkpt lat="49.83349" lon="2.24318">
        <ele>71.7</ele>
        <time>2023-02-25T14:07:49Z</time>
      </trkpt>
      <trkpt lat="49.8335" lon="2.24315">
        <ele>71.8</ele>
        <time>2023-02-25T14:07:50Z</time>
      </trkpt>
      <trkpt lat="49.83351" lon="2.24314">
        <ele>71.9</ele>
        <time>2023-02-25T14:07:51Z</time>
      </trkpt>
      <trkpt lat="49.83351" lon="2.24313">
        <ele>72</ele>
        <time>2023-02-25T14:07:53Z</time>
      </trkpt>
      <trkpt lat="49.83352" lon="2.24312">
        <ele>72</ele>
        <time>2023-02-25T14:07:54Z</time>
      </trkpt>
      <trkpt lat="49.83352" lon="2.24311">
        <ele>72</ele>
        <time>2023-02-25T14:07:56Z</time>
      </trkpt>
      <trkpt lat="49.83353" lon="2.2431">
        <ele>72.1</ele>
        <time>2023-02-25T14:07:57Z</time>
      </trkpt>
      <trkpt lat="49.83354" lon="2.24307">
        <ele>72.2</ele>
        <time>2023-02-25T14:07:58Z</time>
      </trkpt>
      <trkpt lat="49.83354" lon="2.24305">
        <ele>72.3</ele>
        <time>2023-02-25T14:08:00Z</time>
      </trkpt>
      <trkpt lat="49.83355" lon="2.24304">
        <ele>72.3</ele>
        <time>2023-02-25T14:08:01Z</time>
      </trkpt>
      <trkpt lat="49.83355" lon="2.24303">
        <ele>72.4</ele>
        <time>2023-02-25T14:08:02Z</time>
      </trkpt>
      <trkpt lat="49.83356" lon="2.243">
        <ele>72.5</ele>
        <time>2023-02-25T14:08:04Z</time>
      </trkpt>
      <trkpt lat="49.83357" lon="2.24299">
        <ele>72.5</ele>
        <time>2023-02-25T14:08:06Z</time>
      </trkpt>
      <trkpt lat="49.83357" lon="2.24297">
        <ele>72.6</ele>
        <time>2023-02-25T14:08:07Z</time>
      </trkpt>
      <trkpt lat="49.83358" lon="2.24296">
        <ele>72.6</ele>
        <time>2023-02-25T14:08:08Z</time>
      </trkpt>
      <trkpt lat="49.83359" lon="2.24294">
        <ele>72.7</ele>
        <time>2023-02-25T14:08:10Z</time>
      </trkpt>
      <trkpt lat="49.8336" lon="2.24294">
        <ele>72.7</ele>
        <time>2023-02-25T14:08:11Z</time>
      </trkpt>
      <trkpt lat="49.83361" lon="2.24292">
        <ele>72.8</ele>
        <time>2023-02-25T14:08:13Z</time>
      </trkpt>
      <trkpt lat="49.83361" lon="2.24291">
        <ele>72.8</ele>
        <time>2023-02-25T14:08:14Z</time>
      </trkpt>
      <trkpt lat="49.83362" lon="2.2429">
        <ele>72.8</ele>
        <time>2023-02-25T14:08:15Z</time>
      </trkpt>
      <trkpt lat="49.83362" lon="2.24289">
        <ele>72.9</ele>
        <time>2023-02-25T14:08:16Z</time>
      </trkpt>
      <trkpt lat="49.83363" lon="2.24288">
        <ele>72.9</ele>
        <time>2023-02-25T14:08:17Z</time>
      </trkpt>
      <trkpt lat="49.83365" lon="2.24286">
        <ele>73</ele>
        <time>2023-02-25T14:08:19Z</time>
      </trkpt>
      <trkpt lat="49.83366" lon="2.24284">
        <ele>73.1</ele>
        <time>2023-02-25T14:08:21Z</time>
      </trkpt>
      <trkpt lat="49.83367" lon="2.24283">
        <ele>73.1</ele>
        <time>2023-02-25T14:08:23Z</time>
      </trkpt>
      <trkpt lat="49.83368" lon="2.24281">
        <ele>73.2</ele>
        <time>2023-02-25T14:08:25Z</time>
      </trkpt>
      <trkpt lat="49.83368" lon="2.2428">
        <ele>73.2</ele>
        <time>2023-02-25T14:08:26Z</time>
      </trkpt>
      <trkpt lat="49.83369" lon="2.24279">
        <ele>73.2</ele>
        <time>2023-02-25T14:08:27Z</time>
      </trkpt>
      <trkpt lat="49.8337" lon="2.24278">
        <ele>73.3</ele>
        <time>2023-02-25T14:08:28Z</time>
      </trkpt>
      <trkpt lat="49.83371" lon="2.24275">
        <ele>73.4</ele>
        <time>2023-02-25T14:08:30Z</time>
      </trkpt>
      <trkpt lat="49.83372" lon="2.24274">
        <ele>73.4</ele>
        <time>2023-02-25T14:08:32Z</time>
      </trkpt>
      <trkpt lat="49.83372" lon="2.24272">
        <ele>73.4</ele>
        <time>2023-02-25T14:08:33Z</time>
      </trkpt>
      <trkpt lat="49.83373" lon="2.24271">
        <ele>73.4</ele>
        <time>2023-02-25T14:08:34Z</time>
      </trkpt>
      <trkpt lat="49.83373" lon="2.24269">
        <ele>73.5</ele>
        <time>2023-02-25T14:08:35Z</time>
      </trkpt>
      <trkpt lat="49.83374" lon="2.24268">
        <ele>73.5</ele>
        <time>2023-02-25T14:08:36Z</time>
      </trkpt>
      <trkpt lat="49.83375" lon="2.24267">
        <ele>73.6</ele>
        <time>2023-02-25T14:08:37Z</time>
      </trkpt>
      <trkpt lat="49.83376" lon="2.24266">
        <ele>73.6</ele>
        <time>2023-02-25T14:08:39Z</time>
      </trkpt>
      <trkpt lat="49.83376" lon="2.24264">
        <ele>73.6</ele>
        <time>2023-02-25T14:08:40Z</time>
      </trkpt>
      <trkpt lat="49.83377" lon="2.24263">
        <ele>73.6</ele>
        <time>2023-02-25T14:08:41Z</time>
      </trkpt>
      <trkpt lat="49.83377" lon="2.24262">
        <ele>73.7</ele>
        <time>2023-02-25T14:08:42Z</time>
      </trkpt>
      <trkpt lat="49.83378" lon="2.24261">
        <ele>73.7</ele>
        <time>2023-02-25T14:08:43Z</time>
      </trkpt>
      <trkpt lat="49.83379" lon="2.24259">
        <ele>73.7</ele>
        <time>2023-02-25T14:08:44Z</time>
      </trkpt>
      <trkpt lat="49.8338" lon="2.24258">
        <ele>73.8</ele>
        <time>2023-02-25T14:08:46Z</time>
      </trkpt>
      <trkpt lat="49.8338" lon="2.24258">
        <ele>73.8</ele>
        <time>2023-02-25T14:08:47Z</time>
      </trkpt>
      <trkpt lat="49.83381" lon="2.24257">
        <ele>73.8</ele>
        <time>2023-02-25T14:08:48Z</time>
      </trkpt>
      <trkpt lat="49.83383" lon="2.24256">
        <ele>73.9</ele>
        <time>2023-02-25T14:08:50Z</time>
      </trkpt>
      <trkpt lat="49.83383" lon="2.24256">
        <ele>73.9</ele>
        <time>2023-02-25T14:08:52Z</time>
      </trkpt>
      <trkpt lat="49.83384" lon="2.24255">
        <ele>73.9</ele>
        <time>2023-02-25T14:08:53Z</time>
      </trkpt>
      <trkpt lat="49.83385" lon="2.24253">
        <ele>73.9</ele>
        <time>2023-02-25T14:08:54Z</time>
      </trkpt>
      <trkpt lat="49.83385" lon="2.24252">
        <ele>73.9</ele>
        <time>2023-02-25T14:08:56Z</time>
      </trkpt>
      <trkpt lat="49.83385" lon="2.24251">
        <ele>74</ele>
        <time>2023-02-25T14:08:57Z</time>
      </trkpt>
      <trkpt lat="49.83386" lon="2.2425">
        <ele>74</ele>
        <time>2023-02-25T14:08:58Z</time>
      </trkpt>
      <trkpt lat="49.83385" lon="2.2425">
        <ele>74</ele>
        <time>2023-02-25T14:08:59Z</time>
      </trkpt>
      <trkpt lat="49.83386" lon="2.2425">
        <ele>74</ele>
        <time>2023-02-25T14:09:00Z</time>
      </trkpt>
      <trkpt lat="49.83387" lon="2.2425">
        <ele>74</ele>
        <time>2023-02-25T14:09:01Z</time>
      </trkpt>
      <trkpt lat="49.83387" lon="2.2425">
        <ele>74</ele>
        <time>2023-02-25T14:09:03Z</time>
      </trkpt>
      <trkpt lat="49.83387" lon="2.24251">
        <ele>74</ele>
        <time>2023-02-25T14:09:04Z</time>
      </trkpt>
      <trkpt lat="49.83387" lon="2.24251">
        <ele>74</ele>
        <time>2023-02-25T14:09:05Z</time>
      </trkpt>
      <trkpt lat="49.83387" lon="2.24251">
        <ele>74</ele>
        <time>2023-02-25T14:09:07Z</time>
      </trkpt>
      <trkpt lat="49.83387" lon="2.24252">
        <ele>74</ele>
        <time>2023-02-25T14:09:08Z</time>
      </trkpt>
      <trkpt lat="49.83387" lon="2.24252">
        <ele>74</ele>
        <time>2023-02-25T14:09:09Z</time>
      </trkpt>
      <trkpt lat="49.83387" lon="2.24252">
        <ele>74</ele>
        <time>2023-02-25T14:09:11Z</time>
      </trkpt>
      <trkpt lat="49.83387" lon="2.24253">
        <ele>74</ele>
        <time>2023-02-25T14:09:13Z</time>
      </trkpt>
      <trkpt lat="49.83387" lon="2.24253">
        <ele>74.1</ele>
        <time>2023-02-25T14:09:14Z</time>
      </trkpt>
      <trkpt lat="49.83386" lon="2.24253">
        <ele>74.1</ele>
        <time>2023-02-25T14:09:15Z</time>
      </trkpt>
      <trkpt lat="49.83386" lon="2.24254">
        <ele>74.1</ele>
        <time>2023-02-25T14:09:17Z</time>
      </trkpt>
      <trkpt lat="49.83386" lon="2.24254">
        <ele>74.1</ele>
        <time>2023-02-25T14:09:18Z</time>
      </trkpt>
      <trkpt lat="49.83386" lon="2.24254">
        <ele>74.1</ele>
        <time>2023-02-25T14:09:19Z</time>
      </trkpt>
      <trkpt lat="49.83386" lon="2.24255">
        <ele>74.1</ele>
        <time>2023-02-25T14:09:20Z</time>
      </trkpt>
      <trkpt lat="49.83386" lon="2.24255">
        <ele>74.1</ele>
        <time>2023-02-25T14:09:21Z</time>
      </trkpt>
      <trkpt lat="49.83386" lon="2.24255">
        <ele>74.1</ele>
        <time>2023-02-25T14:09:22Z</time>
      </trkpt>
      <trkpt lat="49.83386" lon="2.24256">
        <ele>74.1</ele>
        <time>2023-02-25T14:09:23Z</time>
      </trkpt>
      <trkpt lat="49.83386" lon="2.24256">
        <ele>74.1</ele>
        <time>2023-02-25T14:09:24Z</time>
      </trkpt>
      <trkpt lat="49.83386" lon="2.24256">
        <ele>74.1</ele>
        <time>2023-02-25T14:09:25Z</time>
      </trkpt>
      <trkpt lat="49.83386" lon="2.24257">
        <ele>74.1</ele>
        <time>2023-02-25T14:09:26Z</time>
      </trkpt>
      <trkpt lat="49.83386" lon="2.24257">
        <ele>74.1</ele>
        <time>2023-02-25T14:09:27Z</time>
      </trkpt>
      <trkpt lat="49.83385" lon="2.24257">
        <ele>74.1</ele>
        <time>2023-02-25T14:09:28Z</time>
      </trkpt>
      <trkpt lat="49.83385" lon="2.24258">
        <ele>74.1</ele>
        <time>2023-02-25T14:09:29Z</time>
      </trkpt>
      <trkpt lat="49.83385" lon="2.24258">
        <ele>74.1</ele>
        <time>2023-02-25T14:09:30Z</time>
      </trkpt>
      <trkpt lat="49.83385" lon="2.24258">
        <ele>74.1</ele>
        <time>2023-02-25T14:09:31Z</time>
      </trkpt>
      <trkpt lat="49.83385" lon="2.24259">
        <ele>74.1</ele>
        <time>2023-02-25T14:09:32Z</time>
      </trkpt>
      <trkpt lat="49.83385" lon="2.24259">
        <ele>74.1</ele>
        <time>2023-02-25T14:09:33Z</time>
      </trkpt>
      <trkpt lat="49.83385" lon="2.24261">
        <ele>74.2</ele>
        <time>2023-02-25T14:09:34Z</time>
      </trkpt>
      <trkpt lat="49.83384" lon="2.24263">
        <ele>74.2</ele>
        <time>2023-02-25T14:09:35Z</time>
      </trkpt>
      <trkpt lat="49.83384" lon="2.24263">
        <ele>74.2</ele>
        <time>2023-02-25T14:09:36Z</time>
      </trkpt>
      <trkpt lat="49.83384" lon="2.24264">
        <ele>74.2</ele>
        <time>2023-02-25T14:09:37Z</time>
      </trkpt>
      <trkpt lat="49.83384" lon="2.24264">
        <ele>74.2</ele>
        <time>2023-02-25T14:09:38Z</time>
      </trkpt>
      <trkpt lat="49.83384" lon="2.24264">
        <ele>74.2</ele>
        <time>2023-02-25T14:09:39Z</time>
      </trkpt>
      <trkpt lat="49.83384" lon="2.24263">
        <ele>74.2</ele>
        <time>2023-02-25T14:09:40Z</time>
      </trkpt>
      <trkpt lat="49.83384" lon="2.24263">
        <ele>74.2</ele>
        <time>2023-02-25T14:09:41Z</time>
      </trkpt>
      <trkpt lat="49.83384" lon="2.24263">
        <ele>74.2</ele>
        <time>2023-02-25T14:09:42Z</time>
      </trkpt>
      <trkpt lat="49.83384" lon="2.24263">
        <ele>74.2</ele>
        <time>2023-02-25T14:09:44Z</time>
      </trkpt>
      <trkpt lat="49.83384" lon="2.24263">
        <ele>74.2</ele>
        <time>2023-02-25T14:09:45Z</time>
      </trkpt>
      <trkpt lat="49.83384" lon="2.24263">
        <ele>74.2</ele>
        <time>2023-02-25T14:09:46Z</time>
      </trkpt>
      <trkpt lat="49.83385" lon="2.24263">
        <ele>74.2</ele>
        <time>2023-02-25T14:09:47Z</time>
      </trkpt>
      <trkpt lat="49.83385" lon="2.24263">
        <ele>74.2</ele>
        <time>2023-02-25T14:09:49Z</time>
      </trkpt>
      <trkpt lat="49.83385" lon="2.24263">
        <ele>74.2</ele>
        <time>2023-02-25T14:09:51Z</time>
      </trkpt>
      <trkpt lat="49.83385" lon="2.24262">
        <ele>74.2</ele>
        <time>2023-02-25T14:09:52Z</time>
      </trkpt>
      <trkpt lat="49.83385" lon="2.24262">
        <ele>74.2</ele>
        <time>2023-02-25T14:09:53Z</time>
      </trkpt>
      <trkpt lat="49.83385" lon="2.24262">
        <ele>74.2</ele>
        <time>2023-02-25T14:09:54Z</time>
      </trkpt>
      <trkpt lat="49.83385" lon="2.24262">
        <ele>74.2</ele>
        <time>2023-02-25T14:09:56Z</time>
      </trkpt>
      <trkpt lat="49.83385" lon="2.24262">
        <ele>74.2</ele>
        <time>2023-02-25T14:09:57Z</time>
      </trkpt>
      <trkpt lat="49.83385" lon="2.24262">
        <ele>74.2</ele>
        <time>2023-02-25T14:09:58Z</time>
      </trkpt>
      <trkpt lat="49.83385" lon="2.24262">
        <ele>74.2</ele>
        <time>2023-02-25T14:10:00Z</time>
      </trkpt>
      <trkpt lat="49.83385" lon="2.24262">
        <ele>74.2</ele>
        <time>2023-02-25T14:10:01Z</time>
      </trkpt>
      <trkpt lat="49.83385" lon="2.24262">
        <ele>74.2</ele>
        <time>2023-02-25T14:10:02Z</time>
      </trkpt>
      <trkpt lat="49.83385" lon="2.24261">
        <ele>74.2</ele>
        <time>2023-02-25T14:10:03Z</time>
      </trkpt>
      <trkpt lat="49.83385" lon="2.24261">
        <ele>74.2</ele>
        <time>2023-02-25T14:10:04Z</time>
      </trkpt>
      <trkpt lat="49.83385" lon="2.24261">
        <ele>74.2</ele>
        <time>2023-02-25T14:10:06Z</time>
      </trkpt>
      <trkpt lat="49.83385" lon="2.24261">
        <ele>74.2</ele>
        <time>2023-02-25T14:10:07Z</time>
      </trkpt>
      <trkpt lat="49.83385" lon="2.24261">
        <ele>74.2</ele>
        <time>2023-02-25T14:10:09Z</time>
      </trkpt>
      <trkpt lat="49.83385" lon="2.24261">
        <ele>74.2</ele>
        <time>2023-02-25T14:10:10Z</time>
      </trkpt>
      <trkpt lat="49.83385" lon="2.24261">
        <ele>74.2</ele>
        <time>2023-02-25T14:10:12Z</time>
      </trkpt>
      <trkpt lat="49.83385" lon="2.24261">
        <ele>74.2</ele>
        <time>2023-02-25T14:10:13Z</time>
      </trkpt>
      <trkpt lat="49.83385" lon="2.24261">
        <ele>74.2</ele>
        <time>2023-02-25T14:10:14Z</time>
      </trkpt>
      <trkpt lat="49.83385" lon="2.24261">
        <ele>74.2</ele>
        <time>2023-02-25T14:10:15Z</time>
      </trkpt>
      <trkpt lat="49.83385" lon="2.2426">
        <ele>74.2</ele>
        <time>2023-02-25T14:10:16Z</time>
      </trkpt>
      <trkpt lat="49.83385" lon="2.2426">
        <ele>74.2</ele>
        <time>2023-02-25T14:10:17Z</time>
      </trkpt>
      <trkpt lat="49.83385" lon="2.2426">
        <ele>74.2</ele>
        <time>2023-02-25T14:10:18Z</time>
      </trkpt>
      <trkpt lat="49.83385" lon="2.2426">
        <ele>74.3</ele>
        <time>2023-02-25T14:10:19Z</time>
      </trkpt>
      <trkpt lat="49.83385" lon="2.2426">
        <ele>74.3</ele>
        <time>2023-02-25T14:10:20Z</time>
      </trkpt>
      <trkpt lat="49.83385" lon="2.2426">
        <ele>74.3</ele>
        <time>2023-02-25T14:10:21Z</time>
      </trkpt>
      <trkpt lat="49.83385" lon="2.2426">
        <ele>74.3</ele>
        <time>2023-02-25T14:10:22Z</time>
      </trkpt>
      <trkpt lat="49.83385" lon="2.2426">
        <ele>74.3</ele>
        <time>2023-02-25T14:10:23Z</time>
      </trkpt>
      <trkpt lat="49.83385" lon="2.2426">
        <ele>74.3</ele>
        <time>2023-02-25T14:10:24Z</time>
      </trkpt>
      <trkpt lat="49.83385" lon="2.24259">
        <ele>74.3</ele>
        <time>2023-02-25T14:10:25Z</time>
      </trkpt>
      <trkpt lat="49.83385" lon="2.24259">
        <ele>74.3</ele>
        <time>2023-02-25T14:10:26Z</time>
      </trkpt>
      <trkpt lat="49.83385" lon="2.24259">
        <ele>74.3</ele>
        <time>2023-02-25T14:10:27Z</time>
      </trkpt>
      <trkpt lat="49.83385" lon="2.24259">
        <ele>74.3</ele>
        <time>2023-02-25T14:10:28Z</time>
      </trkpt>
      <trkpt lat="49.83385" lon="2.24259">
        <ele>74.3</ele>
        <time>2023-02-25T14:10:29Z</time>
      </trkpt>
      <trkpt lat="49.83385" lon="2.24259">
        <ele>74.3</ele>
        <time>2023-02-25T14:10:30Z</time>
      </trkpt>
      <trkpt lat="49.83385" lon="2.24259">
        <ele>74.3</ele>
        <time>2023-02-25T14:10:31Z</time>
      </trkpt>
      <trkpt lat="49.83385" lon="2.24259">
        <ele>74.3</ele>
        <time>2023-02-25T14:10:32Z</time>
      </trkpt>
      <trkpt lat="49.83385" lon="2.24259">
        <ele>74.3</ele>
        <time>2023-02-25T14:10:33Z</time>
      </trkpt>
      <trkpt lat="49.83385" lon="2.24258">
        <ele>74.3</ele>
        <time>2023-02-25T14:10:34Z</time>
      </trkpt>
      <trkpt lat="49.83385" lon="2.24258">
        <ele>74.3</ele>
        <time>2023-02-25T14:10:35Z</time>
      </trkpt>
      <trkpt lat="49.83385" lon="2.24258">
        <ele>74.3</ele>
        <time>2023-02-25T14:10:36Z</time>
      </trkpt>
      <trkpt lat="49.83385" lon="2.24258">
        <ele>74.3</ele>
        <time>2023-02-25T14:10:37Z</time>
      </trkpt>
      <trkpt lat="49.83385" lon="2.24258">
        <ele>74.3</ele>
        <time>2023-02-25T14:10:38Z</time>
      </trkpt>
      <trkpt lat="49.83385" lon="2.24258">
        <ele>74.3</ele>
        <time>2023-02-25T14:10:39Z</time>
      </trkpt>
      <trkpt lat="49.83385" lon="2.24258">
        <ele>74.3</ele>
        <time>2023-02-25T14:10:40Z</time>
      </trkpt>
      <trkpt lat="49.83385" lon="2.24258">
        <ele>74.3</ele>
        <time>2023-02-25T14:10:41Z</time>
      </trkpt>
      <trkpt lat="49.83385" lon="2.24258">
        <ele>74.3</ele>
        <time>2023-02-25T14:10:42Z</time>
      </trkpt>
      <trkpt lat="49.83385" lon="2.24258">
        <ele>74.3</ele>
        <time>2023-02-25T14:10:43Z</time>
      </trkpt>
      <trkpt lat="49.83387" lon="2.24255">
        <ele>74.3</ele>
        <time>2023-02-25T14:10:44Z</time>
      </trkpt>
      <trkpt lat="49.83389" lon="2.24252">
        <ele>74.4</ele>
        <time>2023-02-25T14:10:46Z</time>
      </trkpt>
      <trkpt lat="49.8339" lon="2.24251">
        <ele>74.4</ele>
        <time>2023-02-25T14:10:47Z</time>
      </trkpt>
      <trkpt lat="49.83391" lon="2.24249">
        <ele>74.4</ele>
        <time>2023-02-25T14:10:48Z</time>
      </trkpt>
      <trkpt lat="49.83392" lon="2.24247">
        <ele>74.5</ele>
        <time>2023-02-25T14:10:49Z</time>
      </trkpt>
      <trkpt lat="49.83393" lon="2.24245">
        <ele>74.5</ele>
        <time>2023-02-25T14:10:50Z</time>
      </trkpt>
      <trkpt lat="49.83395" lon="2.24243">
        <ele>74.5</ele>
        <time>2023-02-25T14:10:51Z</time>
      </trkpt>
      <trkpt lat="49.83395" lon="2.24242">
        <ele>74.5</ele>
        <time>2023-02-25T14:10:53Z</time>
      </trkpt>
      <trkpt lat="49.83396" lon="2.24241">
        <ele>74.6</ele>
        <time>2023-02-25T14:10:54Z</time>
      </trkpt>
      <trkpt lat="49.83397" lon="2.24239">
        <ele>74.6</ele>
        <time>2023-02-25T14:10:55Z</time>
      </trkpt>
      <trkpt lat="49.83398" lon="2.24238">
        <ele>74.6</ele>
        <time>2023-02-25T14:10:56Z</time>
      </trkpt>
      <trkpt lat="49.83399" lon="2.24237">
        <ele>74.6</ele>
        <time>2023-02-25T14:10:57Z</time>
      </trkpt>
      <trkpt lat="49.834" lon="2.24236">
        <ele>74.7</ele>
        <time>2023-02-25T14:10:59Z</time>
      </trkpt>
      <trkpt lat="49.83401" lon="2.24235">
        <ele>74.7</ele>
        <time>2023-02-25T14:11:00Z</time>
      </trkpt>
      <trkpt lat="49.83403" lon="2.24233">
        <ele>74.7</ele>
        <time>2023-02-25T14:11:01Z</time>
      </trkpt>
      <trkpt lat="49.83404" lon="2.24232">
        <ele>74.7</ele>
        <time>2023-02-25T14:11:02Z</time>
      </trkpt>
      <trkpt lat="49.83404" lon="2.24232">
        <ele>74.8</ele>
        <time>2023-02-25T14:11:03Z</time>
      </trkpt>
      <trkpt lat="49.83406" lon="2.2423">
        <ele>74.8</ele>
        <time>2023-02-25T14:11:05Z</time>
      </trkpt>
      <trkpt lat="49.83407" lon="2.24229">
        <ele>74.8</ele>
        <time>2023-02-25T14:11:06Z</time>
      </trkpt>
      <trkpt lat="49.83407" lon="2.24229">
        <ele>74.8</ele>
        <time>2023-02-25T14:11:07Z</time>
      </trkpt>
      <trkpt lat="49.83409" lon="2.24227">
        <ele>74.9</ele>
        <time>2023-02-25T14:11:08Z</time>
      </trkpt>
      <trkpt lat="49.8341" lon="2.24226">
        <ele>74.9</ele>
        <time>2023-02-25T14:11:09Z</time>
      </trkpt>
      <trkpt lat="49.83411" lon="2.24225">
        <ele>74.9</ele>
        <time>2023-02-25T14:11:10Z</time>
      </trkpt>
      <trkpt lat="49.83411" lon="2.24225">
        <ele>74.9</ele>
        <time>2023-02-25T14:11:11Z</time>
      </trkpt>
      <trkpt lat="49.83412" lon="2.24224">
        <ele>75</ele>
        <time>2023-02-25T14:11:12Z</time>
      </trkpt>
      <trkpt lat="49.83413" lon="2.24223">
        <ele>75</ele>
        <time>2023-02-25T14:11:14Z</time>
      </trkpt>
      <trkpt lat="49.83414" lon="2.24221">
        <ele>75</ele>
        <time>2023-02-25T14:11:15Z</time>
      </trkpt>
      <trkpt lat="49.83415" lon="2.2422">
        <ele>75</ele>
        <time>2023-02-25T14:11:16Z</time>
      </trkpt>
      <trkpt lat="49.83416" lon="2.24219">
        <ele>75.1</ele>
        <time>2023-02-25T14:11:17Z</time>
      </trkpt>
      <trkpt lat="49.83417" lon="2.24218">
        <ele>75.1</ele>
        <time>2023-02-25T14:11:19Z</time>
      </trkpt>
      <trkpt lat="49.83418" lon="2.24217">
        <ele>75.1</ele>
        <time>2023-02-25T14:11:20Z</time>
      </trkpt>
      <trkpt lat="49.83419" lon="2.24216">
        <ele>75.1</ele>
        <time>2023-02-25T14:11:22Z</time>
      </trkpt>
      <trkpt lat="49.8342" lon="2.24215">
        <ele>75.2</ele>
        <time>2023-02-25T14:11:23Z</time>
      </trkpt>
      <trkpt lat="49.83421" lon="2.24214">
        <ele>75.2</ele>
        <time>2023-02-25T14:11:24Z</time>
      </trkpt>
      <trkpt lat="49.83423" lon="2.24212">
        <ele>75.2</ele>
        <time>2023-02-25T14:11:26Z</time>
      </trkpt>
      <trkpt lat="49.83423" lon="2.24211">
        <ele>75.2</ele>
        <time>2023-02-25T14:11:27Z</time>
      </trkpt>
      <trkpt lat="49.83424" lon="2.2421">
        <ele>75.3</ele>
        <time>2023-02-25T14:11:29Z</time>
      </trkpt>
      <trkpt lat="49.83425" lon="2.24209">
        <ele>75.3</ele>
        <time>2023-02-25T14:11:30Z</time>
      </trkpt>
      <trkpt lat="49.83426" lon="2.24208">
        <ele>75.3</ele>
        <time>2023-02-25T14:11:31Z</time>
      </trkpt>
      <trkpt lat="49.83427" lon="2.24206">
        <ele>75.3</ele>
        <time>2023-02-25T14:11:32Z</time>
      </trkpt>
      <trkpt lat="49.83428" lon="2.24205">
        <ele>75.3</ele>
        <time>2023-02-25T14:11:33Z</time>
      </trkpt>
      <trkpt lat="49.83429" lon="2.24205">
        <ele>75.4</ele>
        <time>2023-02-25T14:11:35Z</time>
      </trkpt>
      <trkpt lat="49.8343" lon="2.24204">
        <ele>75.4</ele>
        <time>2023-02-25T14:11:36Z</time>
      </trkpt>
      <trkpt lat="49.8343" lon="2.24203">
        <ele>75.4</ele>
        <time>2023-02-25T14:11:37Z</time>
      </trkpt>
      <trkpt lat="49.83431" lon="2.24202">
        <ele>75.4</ele>
        <time>2023-02-25T14:11:38Z</time>
      </trkpt>
      <trkpt lat="49.83432" lon="2.24201">
        <ele>75.4</ele>
        <time>2023-02-25T14:11:39Z</time>
      </trkpt>
      <trkpt lat="49.83434" lon="2.242">
        <ele>75.4</ele>
        <time>2023-02-25T14:11:40Z</time>
      </trkpt>
      <trkpt lat="49.83434" lon="2.24199">
        <ele>75.4</ele>
        <time>2023-02-25T14:11:42Z</time>
      </trkpt>
      <trkpt lat="49.83435" lon="2.24198">
        <ele>75.5</ele>
        <time>2023-02-25T14:11:43Z</time>
      </trkpt>
      <trkpt lat="49.83436" lon="2.24196">
        <ele>75.5</ele>
        <time>2023-02-25T14:11:44Z</time>
      </trkpt>
      <trkpt lat="49.83436" lon="2.24195">
        <ele>75.5</ele>
        <time>2023-02-25T14:11:45Z</time>
      </trkpt>
      <trkpt lat="49.83437" lon="2.24194">
        <ele>75.5</ele>
        <time>2023-02-25T14:11:46Z</time>
      </trkpt>
      <trkpt lat="49.83438" lon="2.24193">
        <ele>75.5</ele>
        <time>2023-02-25T14:11:47Z</time>
      </trkpt>
      <trkpt lat="49.83439" lon="2.24192">
        <ele>75.5</ele>
        <time>2023-02-25T14:11:48Z</time>
      </trkpt>
      <trkpt lat="49.8344" lon="2.24191">
        <ele>75.5</ele>
        <time>2023-02-25T14:11:50Z</time>
      </trkpt>
      <trkpt lat="49.83441" lon="2.2419">
        <ele>75.5</ele>
        <time>2023-02-25T14:11:51Z</time>
      </trkpt>
      <trkpt lat="49.83442" lon="2.24189">
        <ele>75.5</ele>
        <time>2023-02-25T14:11:52Z</time>
      </trkpt>
      <trkpt lat="49.83443" lon="2.24188">
        <ele>75.5</ele>
        <time>2023-02-25T14:11:53Z</time>
      </trkpt>
      <trkpt lat="49.83444" lon="2.24187">
        <ele>75.5</ele>
        <time>2023-02-25T14:11:54Z</time>
      </trkpt>
      <trkpt lat="49.83446" lon="2.24185">
        <ele>75.6</ele>
        <time>2023-02-25T14:11:55Z</time>
      </trkpt>
      <trkpt lat="49.83446" lon="2.24184">
        <ele>75.6</ele>
        <time>2023-02-25T14:11:56Z</time>
      </trkpt>
      <trkpt lat="49.83447" lon="2.24184">
        <ele>75.6</ele>
        <time>2023-02-25T14:11:58Z</time>
      </trkpt>
      <trkpt lat="49.83448" lon="2.24183">
        <ele>75.6</ele>
        <time>2023-02-25T14:11:59Z</time>
      </trkpt>
      <trkpt lat="49.83449" lon="2.24182">
        <ele>75.6</ele>
        <time>2023-02-25T14:12:00Z</time>
      </trkpt>
      <trkpt lat="49.8345" lon="2.24182">
        <ele>75.6</ele>
        <time>2023-02-25T14:12:01Z</time>
      </trkpt>
      <trkpt lat="49.83451" lon="2.2418">
        <ele>75.6</ele>
        <time>2023-02-25T14:12:03Z</time>
      </trkpt>
      <trkpt lat="49.83452" lon="2.24179">
        <ele>75.6</ele>
        <time>2023-02-25T14:12:04Z</time>
      </trkpt>
      <trkpt lat="49.83453" lon="2.24179">
        <ele>75.6</ele>
        <time>2023-02-25T14:12:05Z</time>
      </trkpt>
      <trkpt lat="49.83454" lon="2.24177">
        <ele>75.6</ele>
        <time>2023-02-25T14:12:06Z</time>
      </trkpt>
      <trkpt lat="49.83455" lon="2.24176">
        <ele>75.6</ele>
        <time>2023-02-25T14:12:07Z</time>
      </trkpt>
      <trkpt lat="49.83456" lon="2.24173">
        <ele>75.6</ele>
        <time>2023-02-25T14:12:08Z</time>
      </trkpt>
      <trkpt lat="49.83456" lon="2.24172">
        <ele>75.6</ele>
        <time>2023-02-25T14:12:09Z</time>
      </trkpt>
      <trkpt lat="49.83457" lon="2.24171">
        <ele>75.6</ele>
        <time>2023-02-25T14:12:10Z</time>
      </trkpt>
      <trkpt lat="49.83457" lon="2.24168">
        <ele>75.6</ele>
        <time>2023-02-25T14:12:11Z</time>
      </trkpt>
      <trkpt lat="49.83458" lon="2.24166">
        <ele>75.6</ele>
        <time>2023-02-25T14:12:13Z</time>
      </trkpt>
      <trkpt lat="49.83458" lon="2.24165">
        <ele>75.6</ele>
        <time>2023-02-25T14:12:14Z</time>
      </trkpt>
      <trkpt lat="49.83458" lon="2.24163">
        <ele>75.6</ele>
        <time>2023-02-25T14:12:15Z</time>
      </trkpt>
      <trkpt lat="49.83459" lon="2.24161">
        <ele>75.6</ele>
        <time>2023-02-25T14:12:16Z</time>
      </trkpt>
      <trkpt lat="49.8346" lon="2.24159">
        <ele>75.6</ele>
        <time>2023-02-25T14:12:17Z</time>
      </trkpt>
      <trkpt lat="49.8346" lon="2.24158">
        <ele>75.6</ele>
        <time>2023-02-25T14:12:18Z</time>
      </trkpt>
      <trkpt lat="49.83461" lon="2.24157">
        <ele>75.6</ele>
        <time>2023-02-25T14:12:19Z</time>
      </trkpt>
      <trkpt lat="49.83463" lon="2.24154">
        <ele>75.6</ele>
        <time>2023-02-25T14:12:20Z</time>
      </trkpt>
      <trkpt lat="49.83463" lon="2.24153">
        <ele>75.6</ele>
        <time>2023-02-25T14:12:22Z</time>
      </trkpt>
      <trkpt lat="49.83463" lon="2.24152">
        <ele>75.6</ele>
        <time>2023-02-25T14:12:23Z</time>
      </trkpt>
      <trkpt lat="49.83464" lon="2.24149">
        <ele>75.6</ele>
        <time>2023-02-25T14:12:24Z</time>
      </trkpt>
      <trkpt lat="49.83465" lon="2.24148">
        <ele>75.6</ele>
        <time>2023-02-25T14:12:25Z</time>
      </trkpt>
      <trkpt lat="49.83465" lon="2.24147">
        <ele>75.6</ele>
        <time>2023-02-25T14:12:26Z</time>
      </trkpt>
      <trkpt lat="49.83466" lon="2.24146">
        <ele>75.6</ele>
        <time>2023-02-25T14:12:27Z</time>
      </trkpt>
      <trkpt lat="49.83466" lon="2.24145">
        <ele>75.6</ele>
        <time>2023-02-25T14:12:28Z</time>
      </trkpt>
      <trkpt lat="49.83467" lon="2.24144">
        <ele>75.6</ele>
        <time>2023-02-25T14:12:29Z</time>
      </trkpt>
      <trkpt lat="49.83468" lon="2.24143">
        <ele>75.6</ele>
        <time>2023-02-25T14:12:31Z</time>
      </trkpt>
      <trkpt lat="49.83469" lon="2.24142">
        <ele>75.6</ele>
        <time>2023-02-25T14:12:32Z</time>
      </trkpt>
      <trkpt lat="49.83469" lon="2.24141">
        <ele>75.6</ele>
        <time>2023-02-25T14:12:33Z</time>
      </trkpt>
      <trkpt lat="49.8347" lon="2.2414">
        <ele>75.6</ele>
        <time>2023-02-25T14:12:34Z</time>
      </trkpt>
      <trkpt lat="49.83471" lon="2.24139">
        <ele>75.6</ele>
        <time>2023-02-25T14:12:35Z</time>
      </trkpt>
      <trkpt lat="49.83472" lon="2.24138">
        <ele>75.6</ele>
        <time>2023-02-25T14:12:36Z</time>
      </trkpt>
      <trkpt lat="49.83472" lon="2.24137">
        <ele>75.6</ele>
        <time>2023-02-25T14:12:37Z</time>
      </trkpt>
      <trkpt lat="49.83473" lon="2.24136">
        <ele>75.6</ele>
        <time>2023-02-25T14:12:38Z</time>
      </trkpt>
      <trkpt lat="49.83474" lon="2.24132">
        <ele>75.6</ele>
        <time>2023-02-25T14:12:39Z</time>
      </trkpt>
      <trkpt lat="49.83474" lon="2.2413">
        <ele>75.6</ele>
        <time>2023-02-25T14:12:41Z</time>
      </trkpt>
      <trkpt lat="49.83475" lon="2.24129">
        <ele>75.6</ele>
        <time>2023-02-25T14:12:42Z</time>
      </trkpt>
      <trkpt lat="49.83475" lon="2.24127">
        <ele>75.6</ele>
        <time>2023-02-25T14:12:43Z</time>
      </trkpt>
      <trkpt lat="49.83476" lon="2.24125">
        <ele>75.6</ele>
        <time>2023-02-25T14:12:44Z</time>
      </trkpt>
      <trkpt lat="49.83476" lon="2.24122">
        <ele>75.6</ele>
        <time>2023-02-25T14:12:45Z</time>
      </trkpt>
      <trkpt lat="49.83477" lon="2.24121">
        <ele>75.6</ele>
        <time>2023-02-25T14:12:47Z</time>
      </trkpt>
      <trkpt lat="49.83477" lon="2.2412">
        <ele>75.6</ele>
        <time>2023-02-25T14:12:48Z</time>
      </trkpt>
      <trkpt lat="49.83477" lon="2.24118">
        <ele>75.6</ele>
        <time>2023-02-25T14:12:49Z</time>
      </trkpt>
      <trkpt lat="49.83478" lon="2.24116">
        <ele>75.6</ele>
        <time>2023-02-25T14:12:50Z</time>
      </trkpt>
      <trkpt lat="49.83479" lon="2.24114">
        <ele>75.6</ele>
        <time>2023-02-25T14:12:51Z</time>
      </trkpt>
      <trkpt lat="49.83479" lon="2.24112">
        <ele>75.6</ele>
        <time>2023-02-25T14:12:52Z</time>
      </trkpt>
      <trkpt lat="49.8348" lon="2.24109">
        <ele>75.6</ele>
        <time>2023-02-25T14:12:53Z</time>
      </trkpt>
      <trkpt lat="49.83481" lon="2.24107">
        <ele>75.6</ele>
        <time>2023-02-25T14:12:55Z</time>
      </trkpt>
      <trkpt lat="49.83481" lon="2.24105">
        <ele>75.6</ele>
        <time>2023-02-25T14:12:57Z</time>
      </trkpt>
      <trkpt lat="49.83482" lon="2.24103">
        <ele>75.6</ele>
        <time>2023-02-25T14:12:58Z</time>
      </trkpt>
      <trkpt lat="49.83483" lon="2.241">
        <ele>75.6</ele>
        <time>2023-02-25T14:12:59Z</time>
      </trkpt>
      <trkpt lat="49.83483" lon="2.24098">
        <ele>75.6</ele>
        <time>2023-02-25T14:13:00Z</time>
      </trkpt>
      <trkpt lat="49.83484" lon="2.24097">
        <ele>75.6</ele>
        <time>2023-02-25T14:13:01Z</time>
      </trkpt>
      <trkpt lat="49.83484" lon="2.24096">
        <ele>75.6</ele>
        <time>2023-02-25T14:13:02Z</time>
      </trkpt>
      <trkpt lat="49.83485" lon="2.24095">
        <ele>75.6</ele>
        <time>2023-02-25T14:13:04Z</time>
      </trkpt>
      <trkpt lat="49.83485" lon="2.24093">
        <ele>75.6</ele>
        <time>2023-02-25T14:13:05Z</time>
      </trkpt>
      <trkpt lat="49.83486" lon="2.24092">
        <ele>75.6</ele>
        <time>2023-02-25T14:13:06Z</time>
      </trkpt>
      <trkpt lat="49.83487" lon="2.2409">
        <ele>75.6</ele>
        <time>2023-02-25T14:13:07Z</time>
      </trkpt>
      <trkpt lat="49.83487" lon="2.24089">
        <ele>75.6</ele>
        <time>2023-02-25T14:13:08Z</time>
      </trkpt>
      <trkpt lat="49.83488" lon="2.24088">
        <ele>75.6</ele>
        <time>2023-02-25T14:13:09Z</time>
      </trkpt>
      <trkpt lat="49.83488" lon="2.24086">
        <ele>75.6</ele>
        <time>2023-02-25T14:13:10Z</time>
      </trkpt>
      <trkpt lat="49.83489" lon="2.24084">
        <ele>75.6</ele>
        <time>2023-02-25T14:13:11Z</time>
      </trkpt>
      <trkpt lat="49.83489" lon="2.24083">
        <ele>75.6</ele>
        <time>2023-02-25T14:13:13Z</time>
      </trkpt>
      <trkpt lat="49.8349" lon="2.24082">
        <ele>75.6</ele>
        <time>2023-02-25T14:13:14Z</time>
      </trkpt>
      <trkpt lat="49.83491" lon="2.24081">
        <ele>75.6</ele>
        <time>2023-02-25T14:13:15Z</time>
      </trkpt>
      <trkpt lat="49.83493" lon="2.24078">
        <ele>75.6</ele>
        <time>2023-02-25T14:13:16Z</time>
      </trkpt>
      <trkpt lat="49.83493" lon="2.24077">
        <ele>75.6</ele>
        <time>2023-02-25T14:13:17Z</time>
      </trkpt>
      <trkpt lat="49.83494" lon="2.24076">
        <ele>75.6</ele>
        <time>2023-02-25T14:13:18Z</time>
      </trkpt>
      <trkpt lat="49.83495" lon="2.24074">
        <ele>75.6</ele>
        <time>2023-02-25T14:13:19Z</time>
      </trkpt>
      <trkpt lat="49.83495" lon="2.24072">
        <ele>75.6</ele>
        <time>2023-02-25T14:13:20Z</time>
      </trkpt>
      <trkpt lat="49.83496" lon="2.24071">
        <ele>75.5</ele>
        <time>2023-02-25T14:13:22Z</time>
      </trkpt>
      <trkpt lat="49.83497" lon="2.2407">
        <ele>75.5</ele>
        <time>2023-02-25T14:13:23Z</time>
      </trkpt>
      <trkpt lat="49.83497" lon="2.24069">
        <ele>75.5</ele>
        <time>2023-02-25T14:13:24Z</time>
      </trkpt>
      <trkpt lat="49.83498" lon="2.24067">
        <ele>75.5</ele>
        <time>2023-02-25T14:13:25Z</time>
      </trkpt>
      <trkpt lat="49.83498" lon="2.24065">
        <ele>75.5</ele>
        <time>2023-02-25T14:13:26Z</time>
      </trkpt>
      <trkpt lat="49.83499" lon="2.24064">
        <ele>75.5</ele>
        <time>2023-02-25T14:13:27Z</time>
      </trkpt>
      <trkpt lat="49.835" lon="2.24061">
        <ele>75.5</ele>
        <time>2023-02-25T14:13:29Z</time>
      </trkpt>
      <trkpt lat="49.835" lon="2.2406">
        <ele>75.5</ele>
        <time>2023-02-25T14:13:31Z</time>
      </trkpt>
      <trkpt lat="49.83501" lon="2.24058">
        <ele>75.5</ele>
        <time>2023-02-25T14:13:32Z</time>
      </trkpt>
      <trkpt lat="49.83502" lon="2.24056">
        <ele>75.5</ele>
        <time>2023-02-25T14:13:33Z</time>
      </trkpt>
      <trkpt lat="49.83502" lon="2.24055">
        <ele>75.5</ele>
        <time>2023-02-25T14:13:34Z</time>
      </trkpt>
      <trkpt lat="49.83502" lon="2.24053">
        <ele>75.5</ele>
        <time>2023-02-25T14:13:35Z</time>
      </trkpt>
      <trkpt lat="49.83503" lon="2.24051">
        <ele>75.5</ele>
        <time>2023-02-25T14:13:36Z</time>
      </trkpt>
      <trkpt lat="49.83504" lon="2.24049">
        <ele>75.5</ele>
        <time>2023-02-25T14:13:37Z</time>
      </trkpt>
      <trkpt lat="49.83505" lon="2.24045">
        <ele>75.5</ele>
        <time>2023-02-25T14:13:39Z</time>
      </trkpt>
      <trkpt lat="49.83505" lon="2.24044">
        <ele>75.5</ele>
        <time>2023-02-25T14:13:40Z</time>
      </trkpt>
      <trkpt lat="49.83506" lon="2.24043">
        <ele>75.5</ele>
        <time>2023-02-25T14:13:42Z</time>
      </trkpt>
      <trkpt lat="49.83507" lon="2.24042">
        <ele>75.5</ele>
        <time>2023-02-25T14:13:43Z</time>
      </trkpt>
      <trkpt lat="49.83507" lon="2.2404">
        <ele>75.5</ele>
        <time>2023-02-25T14:13:44Z</time>
      </trkpt>
      <trkpt lat="49.83508" lon="2.24039">
        <ele>75.5</ele>
        <time>2023-02-25T14:13:45Z</time>
      </trkpt>
      <trkpt lat="49.83509" lon="2.24037">
        <ele>75.4</ele>
        <time>2023-02-25T14:13:46Z</time>
      </trkpt>
      <trkpt lat="49.83509" lon="2.24036">
        <ele>75.4</ele>
        <time>2023-02-25T14:13:47Z</time>
      </trkpt>
      <trkpt lat="49.8351" lon="2.24035">
        <ele>75.4</ele>
        <time>2023-02-25T14:13:48Z</time>
      </trkpt>
      <trkpt lat="49.83511" lon="2.24033">
        <ele>75.4</ele>
        <time>2023-02-25T14:13:50Z</time>
      </trkpt>
      <trkpt lat="49.83511" lon="2.24031">
        <ele>75.4</ele>
        <time>2023-02-25T14:13:51Z</time>
      </trkpt>
      <trkpt lat="49.83511" lon="2.24029">
        <ele>75.4</ele>
        <time>2023-02-25T14:13:52Z</time>
      </trkpt>
      <trkpt lat="49.83512" lon="2.24027">
        <ele>75.4</ele>
        <time>2023-02-25T14:13:53Z</time>
      </trkpt>
      <trkpt lat="49.83512" lon="2.24026">
        <ele>75.4</ele>
        <time>2023-02-25T14:13:54Z</time>
      </trkpt>
      <trkpt lat="49.83513" lon="2.24024">
        <ele>75.4</ele>
        <time>2023-02-25T14:13:55Z</time>
      </trkpt>
      <trkpt lat="49.83514" lon="2.24021">
        <ele>75.4</ele>
        <time>2023-02-25T14:13:56Z</time>
      </trkpt>
      <trkpt lat="49.83514" lon="2.2402">
        <ele>75.4</ele>
        <time>2023-02-25T14:13:57Z</time>
      </trkpt>
      <trkpt lat="49.83514" lon="2.24018">
        <ele>75.4</ele>
        <time>2023-02-25T14:13:58Z</time>
      </trkpt>
      <trkpt lat="49.83514" lon="2.24017">
        <ele>75.4</ele>
        <time>2023-02-25T14:13:59Z</time>
      </trkpt>
      <trkpt lat="49.83514" lon="2.24013">
        <ele>75.4</ele>
        <time>2023-02-25T14:14:01Z</time>
      </trkpt>
      <trkpt lat="49.83514" lon="2.24012">
        <ele>75.4</ele>
        <time>2023-02-25T14:14:03Z</time>
      </trkpt>
      <trkpt lat="49.83514" lon="2.2401">
        <ele>75.4</ele>
        <time>2023-02-25T14:14:04Z</time>
      </trkpt>
      <trkpt lat="49.83515" lon="2.24008">
        <ele>75.4</ele>
        <time>2023-02-25T14:14:05Z</time>
      </trkpt>
      <trkpt lat="49.83516" lon="2.24007">
        <ele>75.4</ele>
        <time>2023-02-25T14:14:06Z</time>
      </trkpt>
      <trkpt lat="49.83516" lon="2.24006">
        <ele>75.4</ele>
        <time>2023-02-25T14:14:07Z</time>
      </trkpt>
      <trkpt lat="49.83516" lon="2.24004">
        <ele>75.4</ele>
        <time>2023-02-25T14:14:08Z</time>
      </trkpt>
      <trkpt lat="49.83517" lon="2.24003">
        <ele>75.4</ele>
        <time>2023-02-25T14:14:10Z</time>
      </trkpt>
      <trkpt lat="49.83517" lon="2.24001">
        <ele>75.4</ele>
        <time>2023-02-25T14:14:11Z</time>
      </trkpt>
      <trkpt lat="49.83517" lon="2.23999">
        <ele>75.4</ele>
        <time>2023-02-25T14:14:12Z</time>
      </trkpt>
      <trkpt lat="49.83517" lon="2.23997">
        <ele>75.4</ele>
        <time>2023-02-25T14:14:13Z</time>
      </trkpt>
      <trkpt lat="49.83517" lon="2.23996">
        <ele>75.4</ele>
        <time>2023-02-25T14:14:14Z</time>
      </trkpt>
      <trkpt lat="49.83517" lon="2.23994">
        <ele>75.4</ele>
        <time>2023-02-25T14:14:15Z</time>
      </trkpt>
      <trkpt lat="49.83517" lon="2.23991">
        <ele>75.4</ele>
        <time>2023-02-25T14:14:16Z</time>
      </trkpt>
      <trkpt lat="49.83517" lon="2.2399">
        <ele>75.5</ele>
        <time>2023-02-25T14:14:17Z</time>
      </trkpt>
      <trkpt lat="49.83517" lon="2.23988">
        <ele>75.5</ele>
        <time>2023-02-25T14:14:18Z</time>
      </trkpt>
      <trkpt lat="49.83517" lon="2.23985">
        <ele>75.5</ele>
        <time>2023-02-25T14:14:20Z</time>
      </trkpt>
      <trkpt lat="49.83517" lon="2.23984">
        <ele>75.5</ele>
        <time>2023-02-25T14:14:21Z</time>
      </trkpt>
      <trkpt lat="49.83517" lon="2.23982">
        <ele>75.5</ele>
        <time>2023-02-25T14:14:22Z</time>
      </trkpt>
      <trkpt lat="49.83517" lon="2.2398">
        <ele>75.5</ele>
        <time>2023-02-25T14:14:23Z</time>
      </trkpt>
      <trkpt lat="49.83517" lon="2.23978">
        <ele>75.5</ele>
        <time>2023-02-25T14:14:24Z</time>
      </trkpt>
      <trkpt lat="49.83518" lon="2.23977">
        <ele>75.5</ele>
        <time>2023-02-25T14:14:26Z</time>
      </trkpt>
      <trkpt lat="49.83518" lon="2.23974">
        <ele>75.5</ele>
        <time>2023-02-25T14:14:27Z</time>
      </trkpt>
      <trkpt lat="49.83518" lon="2.23972">
        <ele>75.5</ele>
        <time>2023-02-25T14:14:28Z</time>
      </trkpt>
      <trkpt lat="49.83518" lon="2.23971">
        <ele>75.5</ele>
        <time>2023-02-25T14:14:29Z</time>
      </trkpt>
      <trkpt lat="49.83518" lon="2.23969">
        <ele>75.5</ele>
        <time>2023-02-25T14:14:30Z</time>
      </trkpt>
      <trkpt lat="49.83518" lon="2.23966">
        <ele>75.5</ele>
        <time>2023-02-25T14:14:31Z</time>
      </trkpt>
      <trkpt lat="49.83518" lon="2.23965">
        <ele>75.6</ele>
        <time>2023-02-25T14:14:32Z</time>
      </trkpt>
      <trkpt lat="49.83519" lon="2.23963">
        <ele>75.6</ele>
        <time>2023-02-25T14:14:34Z</time>
      </trkpt>
      <trkpt lat="49.83519" lon="2.23962">
        <ele>75.6</ele>
        <time>2023-02-25T14:14:35Z</time>
      </trkpt>
      <trkpt lat="49.83519" lon="2.23959">
        <ele>75.6</ele>
        <time>2023-02-25T14:14:36Z</time>
      </trkpt>
      <trkpt lat="49.8352" lon="2.23958">
        <ele>75.6</ele>
        <time>2023-02-25T14:14:37Z</time>
      </trkpt>
      <trkpt lat="49.8352" lon="2.23956">
        <ele>75.6</ele>
        <time>2023-02-25T14:14:38Z</time>
      </trkpt>
      <trkpt lat="49.8352" lon="2.23955">
        <ele>75.6</ele>
        <time>2023-02-25T14:14:39Z</time>
      </trkpt>
      <trkpt lat="49.83521" lon="2.23954">
        <ele>75.6</ele>
        <time>2023-02-25T14:14:40Z</time>
      </trkpt>
      <trkpt lat="49.83522" lon="2.23953">
        <ele>75.6</ele>
        <time>2023-02-25T14:14:42Z</time>
      </trkpt>
      <trkpt lat="49.83522" lon="2.23952">
        <ele>75.6</ele>
        <time>2023-02-25T14:14:43Z</time>
      </trkpt>
      <trkpt lat="49.83523" lon="2.23951">
        <ele>75.6</ele>
        <time>2023-02-25T14:14:44Z</time>
      </trkpt>
      <trkpt lat="49.83523" lon="2.2395">
        <ele>75.6</ele>
        <time>2023-02-25T14:14:45Z</time>
      </trkpt>
      <trkpt lat="49.83524" lon="2.23948">
        <ele>75.5</ele>
        <time>2023-02-25T14:14:46Z</time>
      </trkpt>
      <trkpt lat="49.83524" lon="2.23947">
        <ele>75.5</ele>
        <time>2023-02-25T14:14:48Z</time>
      </trkpt>
      <trkpt lat="49.83525" lon="2.23946">
        <ele>75.5</ele>
        <time>2023-02-25T14:14:49Z</time>
      </trkpt>
      <trkpt lat="49.83525" lon="2.23945">
        <ele>75.5</ele>
        <time>2023-02-25T14:14:50Z</time>
      </trkpt>
      <trkpt lat="49.83526" lon="2.23943">
        <ele>75.5</ele>
        <time>2023-02-25T14:14:51Z</time>
      </trkpt>
      <trkpt lat="49.83526" lon="2.2394">
        <ele>75.5</ele>
        <time>2023-02-25T14:14:52Z</time>
      </trkpt>
      <trkpt lat="49.83525" lon="2.23937">
        <ele>75.4</ele>
        <time>2023-02-25T14:14:53Z</time>
      </trkpt>
      <trkpt lat="49.83525" lon="2.23935">
        <ele>75.4</ele>
        <time>2023-02-25T14:14:54Z</time>
      </trkpt>
      <trkpt lat="49.83525" lon="2.23934">
        <ele>75.4</ele>
        <time>2023-02-25T14:14:56Z</time>
      </trkpt>
      <trkpt lat="49.83525" lon="2.23932">
        <ele>75.4</ele>
        <time>2023-02-25T14:14:57Z</time>
      </trkpt>
      <trkpt lat="49.83525" lon="2.2393">
        <ele>75.3</ele>
        <time>2023-02-25T14:14:58Z</time>
      </trkpt>
      <trkpt lat="49.83525" lon="2.23929">
        <ele>75.3</ele>
        <time>2023-02-25T14:14:59Z</time>
      </trkpt>
      <trkpt lat="49.83525" lon="2.23927">
        <ele>75.3</ele>
        <time>2023-02-25T14:15:00Z</time>
      </trkpt>
      <trkpt lat="49.83525" lon="2.23925">
        <ele>75.3</ele>
        <time>2023-02-25T14:15:01Z</time>
      </trkpt>
      <trkpt lat="49.83525" lon="2.23924">
        <ele>75.3</ele>
        <time>2023-02-25T14:15:02Z</time>
      </trkpt>
      <trkpt lat="49.83525" lon="2.23922">
        <ele>75.2</ele>
        <time>2023-02-25T14:15:03Z</time>
      </trkpt>
      <trkpt lat="49.83526" lon="2.23921">
        <ele>75.2</ele>
        <time>2023-02-25T14:15:04Z</time>
      </trkpt>
      <trkpt lat="49.83526" lon="2.23919">
        <ele>75.2</ele>
        <time>2023-02-25T14:15:05Z</time>
      </trkpt>
      <trkpt lat="49.83527" lon="2.23915">
        <ele>75.2</ele>
        <time>2023-02-25T14:15:07Z</time>
      </trkpt>
      <trkpt lat="49.83527" lon="2.23914">
        <ele>75.2</ele>
        <time>2023-02-25T14:15:08Z</time>
      </trkpt>
      <trkpt lat="49.83528" lon="2.23913">
        <ele>75.2</ele>
        <time>2023-02-25T14:15:09Z</time>
      </trkpt>
      <trkpt lat="49.83528" lon="2.23912">
        <ele>75.1</ele>
        <time>2023-02-25T14:15:10Z</time>
      </trkpt>
      <trkpt lat="49.83528" lon="2.23909">
        <ele>75.1</ele>
        <time>2023-02-25T14:15:11Z</time>
      </trkpt>
      <trkpt lat="49.83529" lon="2.23908">
        <ele>75.1</ele>
        <time>2023-02-25T14:15:12Z</time>
      </trkpt>
      <trkpt lat="49.83529" lon="2.23907">
        <ele>75.1</ele>
        <time>2023-02-25T14:15:13Z</time>
      </trkpt>
      <trkpt lat="49.8353" lon="2.23905">
        <ele>75.1</ele>
        <time>2023-02-25T14:15:14Z</time>
      </trkpt>
      <trkpt lat="49.83531" lon="2.23902">
        <ele>75.1</ele>
        <time>2023-02-25T14:15:16Z</time>
      </trkpt>
      <trkpt lat="49.83531" lon="2.23901">
        <ele>75.1</ele>
        <time>2023-02-25T14:15:17Z</time>
      </trkpt>
      <trkpt lat="49.83531" lon="2.239">
        <ele>75</ele>
        <time>2023-02-25T14:15:18Z</time>
      </trkpt>
      <trkpt lat="49.83532" lon="2.23897">
        <ele>75</ele>
        <time>2023-02-25T14:15:19Z</time>
      </trkpt>
      <trkpt lat="49.83533" lon="2.23895">
        <ele>75</ele>
        <time>2023-02-25T14:15:21Z</time>
      </trkpt>
      <trkpt lat="49.83533" lon="2.23894">
        <ele>75</ele>
        <time>2023-02-25T14:15:22Z</time>
      </trkpt>
      <trkpt lat="49.83533" lon="2.23893">
        <ele>75</ele>
        <time>2023-02-25T14:15:23Z</time>
      </trkpt>
      <trkpt lat="49.83534" lon="2.23892">
        <ele>75</ele>
        <time>2023-02-25T14:15:24Z</time>
      </trkpt>
      <trkpt lat="49.83534" lon="2.2389">
        <ele>75</ele>
        <time>2023-02-25T14:15:25Z</time>
      </trkpt>
      <trkpt lat="49.83535" lon="2.23887">
        <ele>74.9</ele>
        <time>2023-02-25T14:15:26Z</time>
      </trkpt>
      <trkpt lat="49.83535" lon="2.23886">
        <ele>74.9</ele>
        <time>2023-02-25T14:15:27Z</time>
      </trkpt>
      <trkpt lat="49.83535" lon="2.23885">
        <ele>74.9</ele>
        <time>2023-02-25T14:15:28Z</time>
      </trkpt>
      <trkpt lat="49.83536" lon="2.23883">
        <ele>74.9</ele>
        <time>2023-02-25T14:15:30Z</time>
      </trkpt>
      <trkpt lat="49.83536" lon="2.23882">
        <ele>74.9</ele>
        <time>2023-02-25T14:15:31Z</time>
      </trkpt>
      <trkpt lat="49.83537" lon="2.2388">
        <ele>74.9</ele>
        <time>2023-02-25T14:15:32Z</time>
      </trkpt>
      <trkpt lat="49.83538" lon="2.23877">
        <ele>74.9</ele>
        <time>2023-02-25T14:15:33Z</time>
      </trkpt>
      <trkpt lat="49.83538" lon="2.23876">
        <ele>74.9</ele>
        <time>2023-02-25T14:15:34Z</time>
      </trkpt>
      <trkpt lat="49.83539" lon="2.23875">
        <ele>74.9</ele>
        <time>2023-02-25T14:15:35Z</time>
      </trkpt>
      <trkpt lat="49.83539" lon="2.23872">
        <ele>74.9</ele>
        <time>2023-02-25T14:15:36Z</time>
      </trkpt>
      <trkpt lat="49.8354" lon="2.23871">
        <ele>74.8</ele>
        <time>2023-02-25T14:15:38Z</time>
      </trkpt>
      <trkpt lat="49.83541" lon="2.2387">
        <ele>74.8</ele>
        <time>2023-02-25T14:15:39Z</time>
      </trkpt>
      <trkpt lat="49.83541" lon="2.23869">
        <ele>74.8</ele>
        <time>2023-02-25T14:15:40Z</time>
      </trkpt>
      <trkpt lat="49.83542" lon="2.23867">
        <ele>74.8</ele>
        <time>2023-02-25T14:15:41Z</time>
      </trkpt>
      <trkpt lat="49.83542" lon="2.23866">
        <ele>74.8</ele>
        <time>2023-02-25T14:15:42Z</time>
      </trkpt>
      <trkpt lat="49.83543" lon="2.23865">
        <ele>74.8</ele>
        <time>2023-02-25T14:15:43Z</time>
      </trkpt>
      <trkpt lat="49.83544" lon="2.23863">
        <ele>74.8</ele>
        <time>2023-02-25T14:15:45Z</time>
      </trkpt>
      <trkpt lat="49.83544" lon="2.23862">
        <ele>74.8</ele>
        <time>2023-02-25T14:15:46Z</time>
      </trkpt>
      <trkpt lat="49.83545" lon="2.2386">
        <ele>74.8</ele>
        <time>2023-02-25T14:15:47Z</time>
      </trkpt>
      <trkpt lat="49.83546" lon="2.23859">
        <ele>74.8</ele>
        <time>2023-02-25T14:15:48Z</time>
      </trkpt>
      <trkpt lat="49.83546" lon="2.23857">
        <ele>74.7</ele>
        <time>2023-02-25T14:15:49Z</time>
      </trkpt>
      <trkpt lat="49.83547" lon="2.23856">
        <ele>74.7</ele>
        <time>2023-02-25T14:15:50Z</time>
      </trkpt>
      <trkpt lat="49.83548" lon="2.23854">
        <ele>74.7</ele>
        <time>2023-02-25T14:15:51Z</time>
      </trkpt>
      <trkpt lat="49.83549" lon="2.23852">
        <ele>74.7</ele>
        <time>2023-02-25T14:15:53Z</time>
      </trkpt>
      <trkpt lat="49.83549" lon="2.23851">
        <ele>74.7</ele>
        <time>2023-02-25T14:15:54Z</time>
      </trkpt>
      <trkpt lat="49.8355" lon="2.2385">
        <ele>74.7</ele>
        <time>2023-02-25T14:15:55Z</time>
      </trkpt>
      <trkpt lat="49.8355" lon="2.23849">
        <ele>74.7</ele>
        <time>2023-02-25T14:15:56Z</time>
      </trkpt>
      <trkpt lat="49.83551" lon="2.23848">
        <ele>74.7</ele>
        <time>2023-02-25T14:15:57Z</time>
      </trkpt>
      <trkpt lat="49.83551" lon="2.23846">
        <ele>74.7</ele>
        <time>2023-02-25T14:15:58Z</time>
      </trkpt>
      <trkpt lat="49.83552" lon="2.23845">
        <ele>74.6</ele>
        <time>2023-02-25T14:16:00Z</time>
      </trkpt>
      <trkpt lat="49.83552" lon="2.23844">
        <ele>74.6</ele>
        <time>2023-02-25T14:16:01Z</time>
      </trkpt>
      <trkpt lat="49.83553" lon="2.23842">
        <ele>74.6</ele>
        <time>2023-02-25T14:16:02Z</time>
      </trkpt>
      <trkpt lat="49.83553" lon="2.23841">
        <ele>74.6</ele>
        <time>2023-02-25T14:16:03Z</time>
      </trkpt>
      <trkpt lat="49.83554" lon="2.2384">
        <ele>74.6</ele>
        <time>2023-02-25T14:16:04Z</time>
      </trkpt>
      <trkpt lat="49.83555" lon="2.23838">
        <ele>74.6</ele>
        <time>2023-02-25T14:16:05Z</time>
      </trkpt>
      <trkpt lat="49.83555" lon="2.23836">
        <ele>74.6</ele>
        <time>2023-02-25T14:16:07Z</time>
      </trkpt>
      <trkpt lat="49.83555" lon="2.23836">
        <ele>74.6</ele>
        <time>2023-02-25T14:16:08Z</time>
      </trkpt>
      <trkpt lat="49.83556" lon="2.23834">
        <ele>74.5</ele>
        <time>2023-02-25T14:16:09Z</time>
      </trkpt>
      <trkpt lat="49.83557" lon="2.23833">
        <ele>74.5</ele>
        <time>2023-02-25T14:16:10Z</time>
      </trkpt>
      <trkpt lat="49.83558" lon="2.2383">
        <ele>74.5</ele>
        <time>2023-02-25T14:16:11Z</time>
      </trkpt>
      <trkpt lat="49.83559" lon="2.23829">
        <ele>74.5</ele>
        <time>2023-02-25T14:16:12Z</time>
      </trkpt>
      <trkpt lat="49.83559" lon="2.23828">
        <ele>74.5</ele>
        <time>2023-02-25T14:16:13Z</time>
      </trkpt>
      <trkpt lat="49.83561" lon="2.23826">
        <ele>74.4</ele>
        <time>2023-02-25T14:16:15Z</time>
      </trkpt>
      <trkpt lat="49.83561" lon="2.23825">
        <ele>74.4</ele>
        <time>2023-02-25T14:16:16Z</time>
      </trkpt>
      <trkpt lat="49.83562" lon="2.23824">
        <ele>74.4</ele>
        <time>2023-02-25T14:16:17Z</time>
      </trkpt>
      <trkpt lat="49.83563" lon="2.23823">
        <ele>74.4</ele>
        <time>2023-02-25T14:16:18Z</time>
      </trkpt>
      <trkpt lat="49.83564" lon="2.23822">
        <ele>74.4</ele>
        <time>2023-02-25T14:16:19Z</time>
      </trkpt>
      <trkpt lat="49.83564" lon="2.2382">
        <ele>74.3</ele>
        <time>2023-02-25T14:16:20Z</time>
      </trkpt>
      <trkpt lat="49.83565" lon="2.23819">
        <ele>74.3</ele>
        <time>2023-02-25T14:16:21Z</time>
      </trkpt>
      <trkpt lat="49.83566" lon="2.23817">
        <ele>74.3</ele>
        <time>2023-02-25T14:16:22Z</time>
      </trkpt>
      <trkpt lat="49.83567" lon="2.23816">
        <ele>74.3</ele>
        <time>2023-02-25T14:16:23Z</time>
      </trkpt>
      <trkpt lat="49.83567" lon="2.23814">
        <ele>74.3</ele>
        <time>2023-02-25T14:16:25Z</time>
      </trkpt>
      <trkpt lat="49.83567" lon="2.23813">
        <ele>74.3</ele>
        <time>2023-02-25T14:16:26Z</time>
      </trkpt>
      <trkpt lat="49.83568" lon="2.23811">
        <ele>74.2</ele>
        <time>2023-02-25T14:16:27Z</time>
      </trkpt>
      <trkpt lat="49.83568" lon="2.2381">
        <ele>74.2</ele>
        <time>2023-02-25T14:16:28Z</time>
      </trkpt>
      <trkpt lat="49.83569" lon="2.23808">
        <ele>74.2</ele>
        <time>2023-02-25T14:16:29Z</time>
      </trkpt>
      <trkpt lat="49.83569" lon="2.23807">
        <ele>74.2</ele>
        <time>2023-02-25T14:16:30Z</time>
      </trkpt>
      <trkpt lat="49.8357" lon="2.23805">
        <ele>74.1</ele>
        <time>2023-02-25T14:16:31Z</time>
      </trkpt>
      <trkpt lat="49.83571" lon="2.23804">
        <ele>74.1</ele>
        <time>2023-02-25T14:16:32Z</time>
      </trkpt>
      <trkpt lat="49.83571" lon="2.23803">
        <ele>74.1</ele>
        <time>2023-02-25T14:16:33Z</time>
      </trkpt>
      <trkpt lat="49.83572" lon="2.23802">
        <ele>74.1</ele>
        <time>2023-02-25T14:16:35Z</time>
      </trkpt>
      <trkpt lat="49.83573" lon="2.238">
        <ele>74.1</ele>
        <time>2023-02-25T14:16:36Z</time>
      </trkpt>
      <trkpt lat="49.83573" lon="2.23799">
        <ele>74</ele>
        <time>2023-02-25T14:16:37Z</time>
      </trkpt>
      <trkpt lat="49.83574" lon="2.23797">
        <ele>74</ele>
        <time>2023-02-25T14:16:38Z</time>
      </trkpt>
      <trkpt lat="49.83575" lon="2.23796">
        <ele>74</ele>
        <time>2023-02-25T14:16:39Z</time>
      </trkpt>
      <trkpt lat="49.83575" lon="2.23795">
        <ele>74</ele>
        <time>2023-02-25T14:16:40Z</time>
      </trkpt>
      <trkpt lat="49.83576" lon="2.23793">
        <ele>74</ele>
        <time>2023-02-25T14:16:41Z</time>
      </trkpt>
      <trkpt lat="49.83577" lon="2.23792">
        <ele>73.9</ele>
        <time>2023-02-25T14:16:42Z</time>
      </trkpt>
      <trkpt lat="49.83577" lon="2.2379">
        <ele>73.9</ele>
        <time>2023-02-25T14:16:44Z</time>
      </trkpt>
      <trkpt lat="49.83577" lon="2.23789">
        <ele>73.9</ele>
        <time>2023-02-25T14:16:45Z</time>
      </trkpt>
      <trkpt lat="49.83578" lon="2.23787">
        <ele>73.9</ele>
        <time>2023-02-25T14:16:46Z</time>
      </trkpt>
      <trkpt lat="49.83579" lon="2.23785">
        <ele>73.8</ele>
        <time>2023-02-25T14:16:47Z</time>
      </trkpt>
      <trkpt lat="49.83579" lon="2.23784">
        <ele>73.8</ele>
        <time>2023-02-25T14:16:48Z</time>
      </trkpt>
      <trkpt lat="49.83579" lon="2.23783">
        <ele>73.8</ele>
        <time>2023-02-25T14:16:49Z</time>
      </trkpt>
      <trkpt lat="49.83581" lon="2.2378">
        <ele>73.8</ele>
        <time>2023-02-25T14:16:50Z</time>
      </trkpt>
      <trkpt lat="49.83581" lon="2.23779">
        <ele>73.7</ele>
        <time>2023-02-25T14:16:51Z</time>
      </trkpt>
      <trkpt lat="49.83581" lon="2.23778">
        <ele>73.7</ele>
        <time>2023-02-25T14:16:52Z</time>
      </trkpt>
      <trkpt lat="49.83582" lon="2.23777">
        <ele>73.7</ele>
        <time>2023-02-25T14:16:53Z</time>
      </trkpt>
      <trkpt lat="49.83582" lon="2.23775">
        <ele>73.7</ele>
        <time>2023-02-25T14:16:54Z</time>
      </trkpt>
      <trkpt lat="49.83583" lon="2.23774">
        <ele>73.7</ele>
        <time>2023-02-25T14:16:55Z</time>
      </trkpt>
      <trkpt lat="49.83583" lon="2.23772">
        <ele>73.6</ele>
        <time>2023-02-25T14:16:57Z</time>
      </trkpt>
      <trkpt lat="49.83584" lon="2.23771">
        <ele>73.6</ele>
        <time>2023-02-25T14:16:58Z</time>
      </trkpt>
      <trkpt lat="49.83584" lon="2.23769">
        <ele>73.6</ele>
        <time>2023-02-25T14:16:59Z</time>
      </trkpt>
      <trkpt lat="49.83586" lon="2.23766">
        <ele>73.6</ele>
        <time>2023-02-25T14:17:00Z</time>
      </trkpt>
      <trkpt lat="49.83586" lon="2.23765">
        <ele>73.5</ele>
        <time>2023-02-25T14:17:01Z</time>
      </trkpt>
      <trkpt lat="49.83587" lon="2.23764">
        <ele>73.5</ele>
        <time>2023-02-25T14:17:02Z</time>
      </trkpt>
      <trkpt lat="49.83587" lon="2.23763">
        <ele>73.5</ele>
        <time>2023-02-25T14:17:03Z</time>
      </trkpt>
      <trkpt lat="49.83588" lon="2.23761">
        <ele>73.5</ele>
        <time>2023-02-25T14:17:04Z</time>
      </trkpt>
      <trkpt lat="49.83588" lon="2.23759">
        <ele>73.5</ele>
        <time>2023-02-25T14:17:05Z</time>
      </trkpt>
      <trkpt lat="49.83589" lon="2.23757">
        <ele>73.4</ele>
        <time>2023-02-25T14:17:07Z</time>
      </trkpt>
      <trkpt lat="49.83589" lon="2.23756">
        <ele>73.4</ele>
        <time>2023-02-25T14:17:08Z</time>
      </trkpt>
      <trkpt lat="49.8359" lon="2.23754">
        <ele>73.4</ele>
        <time>2023-02-25T14:17:09Z</time>
      </trkpt>
      <trkpt lat="49.83591" lon="2.23751">
        <ele>73.3</ele>
        <time>2023-02-25T14:17:10Z</time>
      </trkpt>
      <trkpt lat="49.83591" lon="2.23749">
        <ele>73.3</ele>
        <time>2023-02-25T14:17:11Z</time>
      </trkpt>
      <trkpt lat="49.83592" lon="2.23748">
        <ele>73.3</ele>
        <time>2023-02-25T14:17:12Z</time>
      </trkpt>
      <trkpt lat="49.83592" lon="2.23747">
        <ele>73.3</ele>
        <time>2023-02-25T14:17:13Z</time>
      </trkpt>
      <trkpt lat="49.83593" lon="2.23746">
        <ele>73.3</ele>
        <time>2023-02-25T14:17:14Z</time>
      </trkpt>
      <trkpt lat="49.83593" lon="2.23744">
        <ele>73.3</ele>
        <time>2023-02-25T14:17:16Z</time>
      </trkpt>
      <trkpt lat="49.83593" lon="2.23743">
        <ele>73.2</ele>
        <time>2023-02-25T14:17:17Z</time>
      </trkpt>
      <trkpt lat="49.83594" lon="2.23741">
        <ele>73.2</ele>
        <time>2023-02-25T14:17:18Z</time>
      </trkpt>
      <trkpt lat="49.83595" lon="2.2374">
        <ele>73.2</ele>
        <time>2023-02-25T14:17:19Z</time>
      </trkpt>
      <trkpt lat="49.83595" lon="2.23738">
        <ele>73.2</ele>
        <time>2023-02-25T14:17:20Z</time>
      </trkpt>
      <trkpt lat="49.83596" lon="2.23736">
        <ele>73.1</ele>
        <time>2023-02-25T14:17:21Z</time>
      </trkpt>
      <trkpt lat="49.83597" lon="2.23734">
        <ele>73.1</ele>
        <time>2023-02-25T14:17:22Z</time>
      </trkpt>
      <trkpt lat="49.83597" lon="2.23733">
        <ele>73.1</ele>
        <time>2023-02-25T14:17:23Z</time>
      </trkpt>
      <trkpt lat="49.83598" lon="2.23731">
        <ele>73.1</ele>
        <time>2023-02-25T14:17:25Z</time>
      </trkpt>
      <trkpt lat="49.83598" lon="2.2373">
        <ele>73.1</ele>
        <time>2023-02-25T14:17:26Z</time>
      </trkpt>
      <trkpt lat="49.83599" lon="2.23728">
        <ele>73</ele>
        <time>2023-02-25T14:17:27Z</time>
      </trkpt>
      <trkpt lat="49.83599" lon="2.23726">
        <ele>73</ele>
        <time>2023-02-25T14:17:28Z</time>
      </trkpt>
      <trkpt lat="49.836" lon="2.23723">
        <ele>73</ele>
        <time>2023-02-25T14:17:29Z</time>
      </trkpt>
      <trkpt lat="49.836" lon="2.23722">
        <ele>72.9</ele>
        <time>2023-02-25T14:17:30Z</time>
      </trkpt>
      <trkpt lat="49.83601" lon="2.2372">
        <ele>72.9</ele>
        <time>2023-02-25T14:17:31Z</time>
      </trkpt>
      <trkpt lat="49.83602" lon="2.23717">
        <ele>72.9</ele>
        <time>2023-02-25T14:17:32Z</time>
      </trkpt>
      <trkpt lat="49.83602" lon="2.23716">
        <ele>72.9</ele>
        <time>2023-02-25T14:17:34Z</time>
      </trkpt>
      <trkpt lat="49.83602" lon="2.23715">
        <ele>72.8</ele>
        <time>2023-02-25T14:17:35Z</time>
      </trkpt>
      <trkpt lat="49.83603" lon="2.23713">
        <ele>72.8</ele>
        <time>2023-02-25T14:17:36Z</time>
      </trkpt>
      <trkpt lat="49.83603" lon="2.23711">
        <ele>72.8</ele>
        <time>2023-02-25T14:17:37Z</time>
      </trkpt>
      <trkpt lat="49.83604" lon="2.23709">
        <ele>72.8</ele>
        <time>2023-02-25T14:17:38Z</time>
      </trkpt>
      <trkpt lat="49.83604" lon="2.23708">
        <ele>72.7</ele>
        <time>2023-02-25T14:17:39Z</time>
      </trkpt>
      <trkpt lat="49.83605" lon="2.23707">
        <ele>72.7</ele>
        <time>2023-02-25T14:17:40Z</time>
      </trkpt>
      <trkpt lat="49.83606" lon="2.23705">
        <ele>72.7</ele>
        <time>2023-02-25T14:17:41Z</time>
      </trkpt>
      <trkpt lat="49.83607" lon="2.23703">
        <ele>72.7</ele>
        <time>2023-02-25T14:17:42Z</time>
      </trkpt>
      <trkpt lat="49.83608" lon="2.23701">
        <ele>72.6</ele>
        <time>2023-02-25T14:17:43Z</time>
      </trkpt>
      <trkpt lat="49.83608" lon="2.237">
        <ele>72.6</ele>
        <time>2023-02-25T14:17:45Z</time>
      </trkpt>
      <trkpt lat="49.83608" lon="2.23699">
        <ele>72.6</ele>
        <time>2023-02-25T14:17:46Z</time>
      </trkpt>
      <trkpt lat="49.83609" lon="2.23698">
        <ele>72.6</ele>
        <time>2023-02-25T14:17:47Z</time>
      </trkpt>
      <trkpt lat="49.83609" lon="2.23696">
        <ele>72.6</ele>
        <time>2023-02-25T14:17:48Z</time>
      </trkpt>
      <trkpt lat="49.8361" lon="2.23695">
        <ele>72.5</ele>
        <time>2023-02-25T14:17:49Z</time>
      </trkpt>
      <trkpt lat="49.83611" lon="2.23693">
        <ele>72.5</ele>
        <time>2023-02-25T14:17:50Z</time>
      </trkpt>
      <trkpt lat="49.83611" lon="2.23692">
        <ele>72.5</ele>
        <time>2023-02-25T14:17:51Z</time>
      </trkpt>
      <trkpt lat="49.83612" lon="2.23688">
        <ele>72.5</ele>
        <time>2023-02-25T14:17:52Z</time>
      </trkpt>
      <trkpt lat="49.83612" lon="2.23686">
        <ele>72.4</ele>
        <time>2023-02-25T14:17:53Z</time>
      </trkpt>
      <trkpt lat="49.83612" lon="2.23685">
        <ele>72.4</ele>
        <time>2023-02-25T14:17:55Z</time>
      </trkpt>
      <trkpt lat="49.83612" lon="2.23684">
        <ele>72.4</ele>
        <time>2023-02-25T14:17:56Z</time>
      </trkpt>
      <trkpt lat="49.83612" lon="2.23683">
        <ele>72.4</ele>
        <time>2023-02-25T14:17:57Z</time>
      </trkpt>
      <trkpt lat="49.83613" lon="2.23679">
        <ele>72.4</ele>
        <time>2023-02-25T14:17:58Z</time>
      </trkpt>
      <trkpt lat="49.83613" lon="2.23678">
        <ele>72.4</ele>
        <time>2023-02-25T14:17:59Z</time>
      </trkpt>
      <trkpt lat="49.83613" lon="2.23677">
        <ele>72.3</ele>
        <time>2023-02-25T14:18:00Z</time>
      </trkpt>
      <trkpt lat="49.83613" lon="2.23676">
        <ele>72.3</ele>
        <time>2023-02-25T14:18:01Z</time>
      </trkpt>
      <trkpt lat="49.83614" lon="2.23674">
        <ele>72.3</ele>
        <time>2023-02-25T14:18:02Z</time>
      </trkpt>
      <trkpt lat="49.83614" lon="2.23672">
        <ele>72.3</ele>
        <time>2023-02-25T14:18:03Z</time>
      </trkpt>
      <trkpt lat="49.83615" lon="2.2367">
        <ele>72.3</ele>
        <time>2023-02-25T14:18:04Z</time>
      </trkpt>
      <trkpt lat="49.83615" lon="2.23668">
        <ele>72.2</ele>
        <time>2023-02-25T14:18:06Z</time>
      </trkpt>
      <trkpt lat="49.83615" lon="2.23667">
        <ele>72.2</ele>
        <time>2023-02-25T14:18:07Z</time>
      </trkpt>
      <trkpt lat="49.83615" lon="2.23665">
        <ele>72.2</ele>
        <time>2023-02-25T14:18:08Z</time>
      </trkpt>
      <trkpt lat="49.83615" lon="2.23663">
        <ele>72.2</ele>
        <time>2023-02-25T14:18:09Z</time>
      </trkpt>
      <trkpt lat="49.83615" lon="2.23662">
        <ele>72.2</ele>
        <time>2023-02-25T14:18:10Z</time>
      </trkpt>
      <trkpt lat="49.83615" lon="2.2366">
        <ele>72.2</ele>
        <time>2023-02-25T14:18:11Z</time>
      </trkpt>
      <trkpt lat="49.83616" lon="2.23657">
        <ele>72.1</ele>
        <time>2023-02-25T14:18:12Z</time>
      </trkpt>
      <trkpt lat="49.83616" lon="2.23656">
        <ele>72.1</ele>
        <time>2023-02-25T14:18:13Z</time>
      </trkpt>
      <trkpt lat="49.83617" lon="2.23654">
        <ele>72.1</ele>
        <time>2023-02-25T14:18:14Z</time>
      </trkpt>
      <trkpt lat="49.83617" lon="2.23652">
        <ele>72.1</ele>
        <time>2023-02-25T14:18:15Z</time>
      </trkpt>
      <trkpt lat="49.83618" lon="2.23651">
        <ele>72.1</ele>
        <time>2023-02-25T14:18:17Z</time>
      </trkpt>
      <trkpt lat="49.83618" lon="2.23649">
        <ele>72</ele>
        <time>2023-02-25T14:18:18Z</time>
      </trkpt>
      <trkpt lat="49.83619" lon="2.23648">
        <ele>72</ele>
        <time>2023-02-25T14:18:19Z</time>
      </trkpt>
      <trkpt lat="49.83619" lon="2.23645">
        <ele>72</ele>
        <time>2023-02-25T14:18:20Z</time>
      </trkpt>
      <trkpt lat="49.8362" lon="2.23643">
        <ele>72</ele>
        <time>2023-02-25T14:18:21Z</time>
      </trkpt>
      <trkpt lat="49.8362" lon="2.23642">
        <ele>72</ele>
        <time>2023-02-25T14:18:22Z</time>
      </trkpt>
      <trkpt lat="49.8362" lon="2.2364">
        <ele>71.9</ele>
        <time>2023-02-25T14:18:23Z</time>
      </trkpt>
      <trkpt lat="49.8362" lon="2.23638">
        <ele>71.9</ele>
        <time>2023-02-25T14:18:24Z</time>
      </trkpt>
      <trkpt lat="49.83621" lon="2.23636">
        <ele>71.9</ele>
        <time>2023-02-25T14:18:25Z</time>
      </trkpt>
      <trkpt lat="49.83621" lon="2.23634">
        <ele>71.9</ele>
        <time>2023-02-25T14:18:26Z</time>
      </trkpt>
      <trkpt lat="49.83622" lon="2.2363">
        <ele>71.8</ele>
        <time>2023-02-25T14:18:28Z</time>
      </trkpt>
      <trkpt lat="49.83622" lon="2.23629">
        <ele>71.8</ele>
        <time>2023-02-25T14:18:29Z</time>
      </trkpt>
      <trkpt lat="49.83623" lon="2.23626">
        <ele>71.8</ele>
        <time>2023-02-25T14:18:30Z</time>
      </trkpt>
      <trkpt lat="49.83623" lon="2.23625">
        <ele>71.8</ele>
        <time>2023-02-25T14:18:31Z</time>
      </trkpt>
      <trkpt lat="49.83624" lon="2.23623">
        <ele>71.8</ele>
        <time>2023-02-25T14:18:32Z</time>
      </trkpt>
      <trkpt lat="49.83624" lon="2.23623">
        <ele>71.7</ele>
        <time>2023-02-25T14:18:34Z</time>
      </trkpt>
      <trkpt lat="49.83625" lon="2.23622">
        <ele>71.7</ele>
        <time>2023-02-25T14:18:35Z</time>
      </trkpt>
      <trkpt lat="49.83626" lon="2.23619">
        <ele>71.7</ele>
        <time>2023-02-25T14:18:36Z</time>
      </trkpt>
      <trkpt lat="49.83626" lon="2.23617">
        <ele>71.7</ele>
        <time>2023-02-25T14:18:38Z</time>
      </trkpt>
      <trkpt lat="49.83627" lon="2.23615">
        <ele>71.7</ele>
        <time>2023-02-25T14:18:39Z</time>
      </trkpt>
      <trkpt lat="49.83627" lon="2.23612">
        <ele>71.6</ele>
        <time>2023-02-25T14:18:40Z</time>
      </trkpt>
      <trkpt lat="49.83628" lon="2.23611">
        <ele>71.6</ele>
        <time>2023-02-25T14:18:41Z</time>
      </trkpt>
      <trkpt lat="49.83628" lon="2.2361">
        <ele>71.6</ele>
        <time>2023-02-25T14:18:42Z</time>
      </trkpt>
      <trkpt lat="49.83629" lon="2.23607">
        <ele>71.6</ele>
        <time>2023-02-25T14:18:44Z</time>
      </trkpt>
      <trkpt lat="49.8363" lon="2.23606">
        <ele>71.5</ele>
        <time>2023-02-25T14:18:45Z</time>
      </trkpt>
      <trkpt lat="49.8363" lon="2.23604">
        <ele>71.5</ele>
        <time>2023-02-25T14:18:46Z</time>
      </trkpt>
      <trkpt lat="49.8363" lon="2.23602">
        <ele>71.5</ele>
        <time>2023-02-25T14:18:47Z</time>
      </trkpt>
      <trkpt lat="49.83631" lon="2.236">
        <ele>71.5</ele>
        <time>2023-02-25T14:18:48Z</time>
      </trkpt>
      <trkpt lat="49.83631" lon="2.23598">
        <ele>71.5</ele>
        <time>2023-02-25T14:18:49Z</time>
      </trkpt>
      <trkpt lat="49.83631" lon="2.23597">
        <ele>71.4</ele>
        <time>2023-02-25T14:18:50Z</time>
      </trkpt>
      <trkpt lat="49.83632" lon="2.23595">
        <ele>71.4</ele>
        <time>2023-02-25T14:18:52Z</time>
      </trkpt>
      <trkpt lat="49.83632" lon="2.23592">
        <ele>71.4</ele>
        <time>2023-02-25T14:18:53Z</time>
      </trkpt>
      <trkpt lat="49.83632" lon="2.23591">
        <ele>71.4</ele>
        <time>2023-02-25T14:18:54Z</time>
      </trkpt>
      <trkpt lat="49.83632" lon="2.2359">
        <ele>71.4</ele>
        <time>2023-02-25T14:18:55Z</time>
      </trkpt>
      <trkpt lat="49.83633" lon="2.23586">
        <ele>71.3</ele>
        <time>2023-02-25T14:18:56Z</time>
      </trkpt>
      <trkpt lat="49.83633" lon="2.23585">
        <ele>71.3</ele>
        <time>2023-02-25T14:18:57Z</time>
      </trkpt>
      <trkpt lat="49.83633" lon="2.23583">
        <ele>71.3</ele>
        <time>2023-02-25T14:18:58Z</time>
      </trkpt>
      <trkpt lat="49.83633" lon="2.23582">
        <ele>71.3</ele>
        <time>2023-02-25T14:18:59Z</time>
      </trkpt>
      <trkpt lat="49.83634" lon="2.2358">
        <ele>71.3</ele>
        <time>2023-02-25T14:19:00Z</time>
      </trkpt>
      <trkpt lat="49.83634" lon="2.23579">
        <ele>71.3</ele>
        <time>2023-02-25T14:19:01Z</time>
      </trkpt>
      <trkpt lat="49.83635" lon="2.23577">
        <ele>71.3</ele>
        <time>2023-02-25T14:19:02Z</time>
      </trkpt>
      <trkpt lat="49.83635" lon="2.23575">
        <ele>71.2</ele>
        <time>2023-02-25T14:19:03Z</time>
      </trkpt>
      <trkpt lat="49.83635" lon="2.23574">
        <ele>71.2</ele>
        <time>2023-02-25T14:19:05Z</time>
      </trkpt>
      <trkpt lat="49.83636" lon="2.23573">
        <ele>71.2</ele>
        <time>2023-02-25T14:19:06Z</time>
      </trkpt>
      <trkpt lat="49.83636" lon="2.23571">
        <ele>71.2</ele>
        <time>2023-02-25T14:19:07Z</time>
      </trkpt>
      <trkpt lat="49.83636" lon="2.23569">
        <ele>71.2</ele>
        <time>2023-02-25T14:19:08Z</time>
      </trkpt>
      <trkpt lat="49.83637" lon="2.23565">
        <ele>71.1</ele>
        <time>2023-02-25T14:19:09Z</time>
      </trkpt>
      <trkpt lat="49.83637" lon="2.23564">
        <ele>71.1</ele>
        <time>2023-02-25T14:19:11Z</time>
      </trkpt>
      <trkpt lat="49.83637" lon="2.23563">
        <ele>71.1</ele>
        <time>2023-02-25T14:19:12Z</time>
      </trkpt>
      <trkpt lat="49.83638" lon="2.2356">
        <ele>71.1</ele>
        <time>2023-02-25T14:19:13Z</time>
      </trkpt>
      <trkpt lat="49.83638" lon="2.23559">
        <ele>71.1</ele>
        <time>2023-02-25T14:19:14Z</time>
      </trkpt>
      <trkpt lat="49.83638" lon="2.23557">
        <ele>71.1</ele>
        <time>2023-02-25T14:19:15Z</time>
      </trkpt>
      <trkpt lat="49.83639" lon="2.23556">
        <ele>71.1</ele>
        <time>2023-02-25T14:19:16Z</time>
      </trkpt>
      <trkpt lat="49.83639" lon="2.23554">
        <ele>71</ele>
        <time>2023-02-25T14:19:17Z</time>
      </trkpt>
      <trkpt lat="49.83639" lon="2.23552">
        <ele>71</ele>
        <time>2023-02-25T14:19:18Z</time>
      </trkpt>
      <trkpt lat="49.83639" lon="2.23551">
        <ele>71</ele>
        <time>2023-02-25T14:19:19Z</time>
      </trkpt>
      <trkpt lat="49.8364" lon="2.23549">
        <ele>71</ele>
        <time>2023-02-25T14:19:21Z</time>
      </trkpt>
      <trkpt lat="49.8364" lon="2.23547">
        <ele>71</ele>
        <time>2023-02-25T14:19:22Z</time>
      </trkpt>
      <trkpt lat="49.8364" lon="2.23544">
        <ele>70.9</ele>
        <time>2023-02-25T14:19:23Z</time>
      </trkpt>
      <trkpt lat="49.8364" lon="2.23542">
        <ele>70.9</ele>
        <time>2023-02-25T14:19:24Z</time>
      </trkpt>
      <trkpt lat="49.83641" lon="2.23539">
        <ele>70.9</ele>
        <time>2023-02-25T14:19:25Z</time>
      </trkpt>
      <trkpt lat="49.83641" lon="2.23538">
        <ele>70.9</ele>
        <time>2023-02-25T14:19:26Z</time>
      </trkpt>
      <trkpt lat="49.83641" lon="2.23537">
        <ele>70.9</ele>
        <time>2023-02-25T14:19:27Z</time>
      </trkpt>
      <trkpt lat="49.83642" lon="2.23534">
        <ele>70.8</ele>
        <time>2023-02-25T14:19:28Z</time>
      </trkpt>
      <trkpt lat="49.83642" lon="2.23533">
        <ele>70.8</ele>
        <time>2023-02-25T14:19:30Z</time>
      </trkpt>
      <trkpt lat="49.83642" lon="2.23532">
        <ele>70.8</ele>
        <time>2023-02-25T14:19:31Z</time>
      </trkpt>
      <trkpt lat="49.83642" lon="2.2353">
        <ele>70.8</ele>
        <time>2023-02-25T14:19:32Z</time>
      </trkpt>
      <trkpt lat="49.83643" lon="2.23528">
        <ele>70.8</ele>
        <time>2023-02-25T14:19:33Z</time>
      </trkpt>
      <trkpt lat="49.83643" lon="2.23527">
        <ele>70.7</ele>
        <time>2023-02-25T14:19:34Z</time>
      </trkpt>
      <trkpt lat="49.83643" lon="2.23524">
        <ele>70.7</ele>
        <time>2023-02-25T14:19:35Z</time>
      </trkpt>
      <trkpt lat="49.83643" lon="2.23522">
        <ele>70.7</ele>
        <time>2023-02-25T14:19:36Z</time>
      </trkpt>
      <trkpt lat="49.83644" lon="2.23521">
        <ele>70.7</ele>
        <time>2023-02-25T14:19:37Z</time>
      </trkpt>
      <trkpt lat="49.83645" lon="2.23519">
        <ele>70.6</ele>
        <time>2023-02-25T14:19:39Z</time>
      </trkpt>
      <trkpt lat="49.83645" lon="2.23517">
        <ele>70.6</ele>
        <time>2023-02-25T14:19:40Z</time>
      </trkpt>
      <trkpt lat="49.83646" lon="2.23514">
        <ele>70.6</ele>
        <time>2023-02-25T14:19:41Z</time>
      </trkpt>
      <trkpt lat="49.83646" lon="2.23513">
        <ele>70.6</ele>
        <time>2023-02-25T14:19:42Z</time>
      </trkpt>
      <trkpt lat="49.83647" lon="2.23512">
        <ele>70.5</ele>
        <time>2023-02-25T14:19:43Z</time>
      </trkpt>
      <trkpt lat="49.83648" lon="2.23509">
        <ele>70.5</ele>
        <time>2023-02-25T14:19:44Z</time>
      </trkpt>
      <trkpt lat="49.83648" lon="2.23508">
        <ele>70.5</ele>
        <time>2023-02-25T14:19:45Z</time>
      </trkpt>
      <trkpt lat="49.83648" lon="2.23506">
        <ele>70.5</ele>
        <time>2023-02-25T14:19:46Z</time>
      </trkpt>
      <trkpt lat="49.83649" lon="2.23504">
        <ele>70.4</ele>
        <time>2023-02-25T14:19:47Z</time>
      </trkpt>
      <trkpt lat="49.8365" lon="2.23501">
        <ele>70.4</ele>
        <time>2023-02-25T14:19:48Z</time>
      </trkpt>
      <trkpt lat="49.8365" lon="2.23498">
        <ele>70.4</ele>
        <time>2023-02-25T14:19:50Z</time>
      </trkpt>
      <trkpt lat="49.83651" lon="2.23497">
        <ele>70.3</ele>
        <time>2023-02-25T14:19:51Z</time>
      </trkpt>
      <trkpt lat="49.83651" lon="2.23496">
        <ele>70.3</ele>
        <time>2023-02-25T14:19:52Z</time>
      </trkpt>
      <trkpt lat="49.83652" lon="2.23493">
        <ele>70.3</ele>
        <time>2023-02-25T14:19:53Z</time>
      </trkpt>
      <trkpt lat="49.83652" lon="2.23492">
        <ele>70.3</ele>
        <time>2023-02-25T14:19:54Z</time>
      </trkpt>
      <trkpt lat="49.83653" lon="2.23492">
        <ele>70.3</ele>
        <time>2023-02-25T14:19:55Z</time>
      </trkpt>
      <trkpt lat="49.83653" lon="2.23491">
        <ele>70.3</ele>
        <time>2023-02-25T14:19:56Z</time>
      </trkpt>
      <trkpt lat="49.83654" lon="2.2349">
        <ele>70.2</ele>
        <time>2023-02-25T14:19:57Z</time>
      </trkpt>
      <trkpt lat="49.83654" lon="2.23489">
        <ele>70.2</ele>
        <time>2023-02-25T14:19:58Z</time>
      </trkpt>
      <trkpt lat="49.83655" lon="2.23486">
        <ele>70.2</ele>
        <time>2023-02-25T14:20:00Z</time>
      </trkpt>
      <trkpt lat="49.83655" lon="2.23484">
        <ele>70.2</ele>
        <time>2023-02-25T14:20:01Z</time>
      </trkpt>
      <trkpt lat="49.83655" lon="2.23483">
        <ele>70.2</ele>
        <time>2023-02-25T14:20:02Z</time>
      </trkpt>
      <trkpt lat="49.83656" lon="2.23479">
        <ele>70.1</ele>
        <time>2023-02-25T14:20:03Z</time>
      </trkpt>
      <trkpt lat="49.83656" lon="2.23478">
        <ele>70.1</ele>
        <time>2023-02-25T14:20:04Z</time>
      </trkpt>
      <trkpt lat="49.83656" lon="2.23476">
        <ele>70.1</ele>
        <time>2023-02-25T14:20:05Z</time>
      </trkpt>
      <trkpt lat="49.83656" lon="2.23475">
        <ele>70</ele>
        <time>2023-02-25T14:20:06Z</time>
      </trkpt>
      <trkpt lat="49.83656" lon="2.23473">
        <ele>70</ele>
        <time>2023-02-25T14:20:07Z</time>
      </trkpt>
      <trkpt lat="49.83657" lon="2.23472">
        <ele>70</ele>
        <time>2023-02-25T14:20:08Z</time>
      </trkpt>
      <trkpt lat="49.83657" lon="2.23471">
        <ele>70</ele>
        <time>2023-02-25T14:20:09Z</time>
      </trkpt>
      <trkpt lat="49.83657" lon="2.23469">
        <ele>70</ele>
        <time>2023-02-25T14:20:10Z</time>
      </trkpt>
      <trkpt lat="49.83657" lon="2.23467">
        <ele>70</ele>
        <time>2023-02-25T14:20:12Z</time>
      </trkpt>
      <trkpt lat="49.83658" lon="2.23465">
        <ele>69.9</ele>
        <time>2023-02-25T14:20:13Z</time>
      </trkpt>
      <trkpt lat="49.83658" lon="2.23464">
        <ele>69.9</ele>
        <time>2023-02-25T14:20:14Z</time>
      </trkpt>
      <trkpt lat="49.83658" lon="2.23462">
        <ele>69.9</ele>
        <time>2023-02-25T14:20:15Z</time>
      </trkpt>
      <trkpt lat="49.83659" lon="2.23459">
        <ele>69.9</ele>
        <time>2023-02-25T14:20:16Z</time>
      </trkpt>
      <trkpt lat="49.83659" lon="2.23457">
        <ele>69.8</ele>
        <time>2023-02-25T14:20:17Z</time>
      </trkpt>
      <trkpt lat="49.83659" lon="2.23456">
        <ele>69.8</ele>
        <time>2023-02-25T14:20:18Z</time>
      </trkpt>
      <trkpt lat="49.83659" lon="2.23455">
        <ele>69.8</ele>
        <time>2023-02-25T14:20:19Z</time>
      </trkpt>
      <trkpt lat="49.8366" lon="2.23454">
        <ele>69.8</ele>
        <time>2023-02-25T14:20:20Z</time>
      </trkpt>
      <trkpt lat="49.8366" lon="2.23452">
        <ele>69.8</ele>
        <time>2023-02-25T14:20:21Z</time>
      </trkpt>
      <trkpt lat="49.8366" lon="2.23449">
        <ele>69.7</ele>
        <time>2023-02-25T14:20:23Z</time>
      </trkpt>
      <trkpt lat="49.8366" lon="2.23448">
        <ele>69.7</ele>
        <time>2023-02-25T14:20:24Z</time>
      </trkpt>
      <trkpt lat="49.83661" lon="2.23446">
        <ele>69.7</ele>
        <time>2023-02-25T14:20:25Z</time>
      </trkpt>
      <trkpt lat="49.83661" lon="2.23443">
        <ele>69.6</ele>
        <time>2023-02-25T14:20:26Z</time>
      </trkpt>
      <trkpt lat="49.83661" lon="2.23441">
        <ele>69.6</ele>
        <time>2023-02-25T14:20:27Z</time>
      </trkpt>
      <trkpt lat="49.83661" lon="2.2344">
        <ele>69.6</ele>
        <time>2023-02-25T14:20:28Z</time>
      </trkpt>
      <trkpt lat="49.83661" lon="2.23439">
        <ele>69.6</ele>
        <time>2023-02-25T14:20:29Z</time>
      </trkpt>
      <trkpt lat="49.83661" lon="2.23437">
        <ele>69.6</ele>
        <time>2023-02-25T14:20:30Z</time>
      </trkpt>
      <trkpt lat="49.83661" lon="2.23435">
        <ele>69.5</ele>
        <time>2023-02-25T14:20:31Z</time>
      </trkpt>
      <trkpt lat="49.83662" lon="2.23432">
        <ele>69.5</ele>
        <time>2023-02-25T14:20:32Z</time>
      </trkpt>
      <trkpt lat="49.83662" lon="2.2343">
        <ele>69.5</ele>
        <time>2023-02-25T14:20:34Z</time>
      </trkpt>
      <trkpt lat="49.83662" lon="2.23428">
        <ele>69.4</ele>
        <time>2023-02-25T14:20:35Z</time>
      </trkpt>
      <trkpt lat="49.83662" lon="2.23427">
        <ele>69.4</ele>
        <time>2023-02-25T14:20:36Z</time>
      </trkpt>
      <trkpt lat="49.83662" lon="2.23425">
        <ele>69.4</ele>
        <time>2023-02-25T14:20:37Z</time>
      </trkpt>
      <trkpt lat="49.83662" lon="2.23422">
        <ele>69.3</ele>
        <time>2023-02-25T14:20:38Z</time>
      </trkpt>
      <trkpt lat="49.83662" lon="2.23422">
        <ele>69.3</ele>
        <time>2023-02-25T14:20:39Z</time>
      </trkpt>
      <trkpt lat="49.83663" lon="2.2342">
        <ele>69.3</ele>
        <time>2023-02-25T14:20:40Z</time>
      </trkpt>
      <trkpt lat="49.83663" lon="2.23417">
        <ele>69.2</ele>
        <time>2023-02-25T14:20:41Z</time>
      </trkpt>
      <trkpt lat="49.83663" lon="2.23415">
        <ele>69.2</ele>
        <time>2023-02-25T14:20:42Z</time>
      </trkpt>
      <trkpt lat="49.83663" lon="2.23414">
        <ele>69.2</ele>
        <time>2023-02-25T14:20:43Z</time>
      </trkpt>
      <trkpt lat="49.83663" lon="2.2341">
        <ele>69.1</ele>
        <time>2023-02-25T14:20:45Z</time>
      </trkpt>
      <trkpt lat="49.83663" lon="2.23409">
        <ele>69.1</ele>
        <time>2023-02-25T14:20:46Z</time>
      </trkpt>
      <trkpt lat="49.83664" lon="2.23408">
        <ele>69.1</ele>
        <time>2023-02-25T14:20:47Z</time>
      </trkpt>
      <trkpt lat="49.83664" lon="2.23405">
        <ele>69</ele>
        <time>2023-02-25T14:20:48Z</time>
      </trkpt>
      <trkpt lat="49.83664" lon="2.23402">
        <ele>69</ele>
        <time>2023-02-25T14:20:49Z</time>
      </trkpt>
      <trkpt lat="49.83664" lon="2.23401">
        <ele>68.9</ele>
        <time>2023-02-25T14:20:50Z</time>
      </trkpt>
      <trkpt lat="49.83664" lon="2.23399">
        <ele>68.9</ele>
        <time>2023-02-25T14:20:51Z</time>
      </trkpt>
      <trkpt lat="49.83665" lon="2.23395">
        <ele>68.8</ele>
        <time>2023-02-25T14:20:53Z</time>
      </trkpt>
      <trkpt lat="49.83665" lon="2.23395">
        <ele>68.8</ele>
        <time>2023-02-25T14:20:54Z</time>
      </trkpt>
      <trkpt lat="49.83666" lon="2.23393">
        <ele>68.7</ele>
        <time>2023-02-25T14:20:55Z</time>
      </trkpt>
      <trkpt lat="49.83666" lon="2.2339">
        <ele>68.7</ele>
        <time>2023-02-25T14:20:56Z</time>
      </trkpt>
      <trkpt lat="49.83666" lon="2.23388">
        <ele>68.7</ele>
        <time>2023-02-25T14:20:58Z</time>
      </trkpt>
      <trkpt lat="49.83666" lon="2.23387">
        <ele>68.6</ele>
        <time>2023-02-25T14:20:59Z</time>
      </trkpt>
      <trkpt lat="49.83667" lon="2.23385">
        <ele>68.6</ele>
        <time>2023-02-25T14:21:00Z</time>
      </trkpt>
      <trkpt lat="49.83667" lon="2.23384">
        <ele>68.5</ele>
        <time>2023-02-25T14:21:01Z</time>
      </trkpt>
      <trkpt lat="49.83667" lon="2.23382">
        <ele>68.5</ele>
        <time>2023-02-25T14:21:02Z</time>
      </trkpt>
      <trkpt lat="49.83668" lon="2.23378">
        <ele>68.4</ele>
        <time>2023-02-25T14:21:03Z</time>
      </trkpt>
      <trkpt lat="49.83668" lon="2.23376">
        <ele>68.4</ele>
        <time>2023-02-25T14:21:04Z</time>
      </trkpt>
      <trkpt lat="49.83668" lon="2.23375">
        <ele>68.4</ele>
        <time>2023-02-25T14:21:06Z</time>
      </trkpt>
      <trkpt lat="49.83669" lon="2.23374">
        <ele>68.3</ele>
        <time>2023-02-25T14:21:07Z</time>
      </trkpt>
      <trkpt lat="49.83669" lon="2.23372">
        <ele>68.3</ele>
        <time>2023-02-25T14:21:08Z</time>
      </trkpt>
      <trkpt lat="49.83669" lon="2.23371">
        <ele>68.3</ele>
        <time>2023-02-25T14:21:09Z</time>
      </trkpt>
      <trkpt lat="49.8367" lon="2.23369">
        <ele>68.2</ele>
        <time>2023-02-25T14:21:10Z</time>
      </trkpt>
      <trkpt lat="49.8367" lon="2.23368">
        <ele>68.2</ele>
        <time>2023-02-25T14:21:11Z</time>
      </trkpt>
      <trkpt lat="49.83671" lon="2.23366">
        <ele>68.2</ele>
        <time>2023-02-25T14:21:12Z</time>
      </trkpt>
      <trkpt lat="49.83671" lon="2.23364">
        <ele>68.1</ele>
        <time>2023-02-25T14:21:14Z</time>
      </trkpt>
      <trkpt lat="49.8367" lon="2.23363">
        <ele>68.1</ele>
        <time>2023-02-25T14:21:15Z</time>
      </trkpt>
      <trkpt lat="49.83671" lon="2.23362">
        <ele>68.1</ele>
        <time>2023-02-25T14:21:16Z</time>
      </trkpt>
      <trkpt lat="49.83671" lon="2.23358">
        <ele>68</ele>
        <time>2023-02-25T14:21:17Z</time>
      </trkpt>
      <trkpt lat="49.83671" lon="2.23356">
        <ele>68</ele>
        <time>2023-02-25T14:21:18Z</time>
      </trkpt>
      <trkpt lat="49.83671" lon="2.23355">
        <ele>67.9</ele>
        <time>2023-02-25T14:21:19Z</time>
      </trkpt>
      <trkpt lat="49.83671" lon="2.23352">
        <ele>67.9</ele>
        <time>2023-02-25T14:21:20Z</time>
      </trkpt>
      <trkpt lat="49.83671" lon="2.23351">
        <ele>67.9</ele>
        <time>2023-02-25T14:21:21Z</time>
      </trkpt>
      <trkpt lat="49.83671" lon="2.23349">
        <ele>67.8</ele>
        <time>2023-02-25T14:21:22Z</time>
      </trkpt>
      <trkpt lat="49.83672" lon="2.23347">
        <ele>67.8</ele>
        <time>2023-02-25T14:21:23Z</time>
      </trkpt>
      <trkpt lat="49.83672" lon="2.23346">
        <ele>67.8</ele>
        <time>2023-02-25T14:21:25Z</time>
      </trkpt>
      <trkpt lat="49.83672" lon="2.23345">
        <ele>67.7</ele>
        <time>2023-02-25T14:21:26Z</time>
      </trkpt>
      <trkpt lat="49.83672" lon="2.23343">
        <ele>67.7</ele>
        <time>2023-02-25T14:21:27Z</time>
      </trkpt>
      <trkpt lat="49.83672" lon="2.23341">
        <ele>67.7</ele>
        <time>2023-02-25T14:21:28Z</time>
      </trkpt>
      <trkpt lat="49.83672" lon="2.23337">
        <ele>67.6</ele>
        <time>2023-02-25T14:21:30Z</time>
      </trkpt>
      <trkpt lat="49.83672" lon="2.23335">
        <ele>67.5</ele>
        <time>2023-02-25T14:21:31Z</time>
      </trkpt>
      <trkpt lat="49.83672" lon="2.23332">
        <ele>67.5</ele>
        <time>2023-02-25T14:21:32Z</time>
      </trkpt>
      <trkpt lat="49.83672" lon="2.23329">
        <ele>67.4</ele>
        <time>2023-02-25T14:21:33Z</time>
      </trkpt>
      <trkpt lat="49.83672" lon="2.23328">
        <ele>67.4</ele>
        <time>2023-02-25T14:21:34Z</time>
      </trkpt>
      <trkpt lat="49.83672" lon="2.23326">
        <ele>67.4</ele>
        <time>2023-02-25T14:21:36Z</time>
      </trkpt>
      <trkpt lat="49.83671" lon="2.23325">
        <ele>67.3</ele>
        <time>2023-02-25T14:21:37Z</time>
      </trkpt>
      <trkpt lat="49.83671" lon="2.23323">
        <ele>67.3</ele>
        <time>2023-02-25T14:21:38Z</time>
      </trkpt>
      <trkpt lat="49.83671" lon="2.23319">
        <ele>67.2</ele>
        <time>2023-02-25T14:21:39Z</time>
      </trkpt>
      <trkpt lat="49.83671" lon="2.23318">
        <ele>67.2</ele>
        <time>2023-02-25T14:21:40Z</time>
      </trkpt>
      <trkpt lat="49.83671" lon="2.23317">
        <ele>67.2</ele>
        <time>2023-02-25T14:21:41Z</time>
      </trkpt>
      <trkpt lat="49.83671" lon="2.23315">
        <ele>67.2</ele>
        <time>2023-02-25T14:21:42Z</time>
      </trkpt>
      <trkpt lat="49.83671" lon="2.23313">
        <ele>67.1</ele>
        <time>2023-02-25T14:21:43Z</time>
      </trkpt>
      <trkpt lat="49.83671" lon="2.23311">
        <ele>67.1</ele>
        <time>2023-02-25T14:21:45Z</time>
      </trkpt>
      <trkpt lat="49.83671" lon="2.2331">
        <ele>67.1</ele>
        <time>2023-02-25T14:21:46Z</time>
      </trkpt>
      <trkpt lat="49.83671" lon="2.23308">
        <ele>67.1</ele>
        <time>2023-02-25T14:21:47Z</time>
      </trkpt>
      <trkpt lat="49.83671" lon="2.23307">
        <ele>67.1</ele>
        <time>2023-02-25T14:21:48Z</time>
      </trkpt>
      <trkpt lat="49.83672" lon="2.23304">
        <ele>67</ele>
        <time>2023-02-25T14:21:50Z</time>
      </trkpt>
      <trkpt lat="49.83672" lon="2.23303">
        <ele>67</ele>
        <time>2023-02-25T14:21:52Z</time>
      </trkpt>
      <trkpt lat="49.83673" lon="2.23301">
        <ele>67</ele>
        <time>2023-02-25T14:21:53Z</time>
      </trkpt>
      <trkpt lat="49.83673" lon="2.233">
        <ele>66.9</ele>
        <time>2023-02-25T14:21:55Z</time>
      </trkpt>
      <trkpt lat="49.83674" lon="2.233">
        <ele>66.8</ele>
        <time>2023-02-25T14:21:56Z</time>
      </trkpt>
      <trkpt lat="49.83675" lon="2.23298">
        <ele>66.8</ele>
        <time>2023-02-25T14:21:57Z</time>
      </trkpt>
      <trkpt lat="49.83676" lon="2.23297">
        <ele>66.7</ele>
        <time>2023-02-25T14:21:58Z</time>
      </trkpt>
      <trkpt lat="49.83676" lon="2.23296">
        <ele>66.7</ele>
        <time>2023-02-25T14:21:59Z</time>
      </trkpt>
      <trkpt lat="49.83677" lon="2.23296">
        <ele>66.7</ele>
        <time>2023-02-25T14:22:00Z</time>
      </trkpt>
      <trkpt lat="49.83677" lon="2.23295">
        <ele>66.7</ele>
        <time>2023-02-25T14:22:02Z</time>
      </trkpt>
      <trkpt lat="49.83677" lon="2.23294">
        <ele>66.6</ele>
        <time>2023-02-25T14:22:03Z</time>
      </trkpt>
      <trkpt lat="49.83678" lon="2.23293">
        <ele>66.6</ele>
        <time>2023-02-25T14:22:04Z</time>
      </trkpt>
      <trkpt lat="49.83678" lon="2.23292">
        <ele>66.6</ele>
        <time>2023-02-25T14:22:05Z</time>
      </trkpt>
      <trkpt lat="49.83678" lon="2.23291">
        <ele>66.5</ele>
        <time>2023-02-25T14:22:06Z</time>
      </trkpt>
      <trkpt lat="49.83679" lon="2.2329">
        <ele>66.5</ele>
        <time>2023-02-25T14:22:07Z</time>
      </trkpt>
      <trkpt lat="49.83679" lon="2.23288">
        <ele>66.4</ele>
        <time>2023-02-25T14:22:08Z</time>
      </trkpt>
      <trkpt lat="49.8368" lon="2.23286">
        <ele>66.3</ele>
        <time>2023-02-25T14:22:09Z</time>
      </trkpt>
      <trkpt lat="49.8368" lon="2.23284">
        <ele>66.3</ele>
        <time>2023-02-25T14:22:10Z</time>
      </trkpt>
      <trkpt lat="49.8368" lon="2.23282">
        <ele>66.2</ele>
        <time>2023-02-25T14:22:12Z</time>
      </trkpt>
      <trkpt lat="49.83681" lon="2.23279">
        <ele>66.1</ele>
        <time>2023-02-25T14:22:13Z</time>
      </trkpt>
      <trkpt lat="49.83681" lon="2.23277">
        <ele>66</ele>
        <time>2023-02-25T14:22:14Z</time>
      </trkpt>
      <trkpt lat="49.83681" lon="2.23275">
        <ele>65.9</ele>
        <time>2023-02-25T14:22:15Z</time>
      </trkpt>
      <trkpt lat="49.83681" lon="2.23274">
        <ele>65.9</ele>
        <time>2023-02-25T14:22:16Z</time>
      </trkpt>
      <trkpt lat="49.83681" lon="2.23272">
        <ele>65.8</ele>
        <time>2023-02-25T14:22:17Z</time>
      </trkpt>
      <trkpt lat="49.83682" lon="2.23269">
        <ele>65.7</ele>
        <time>2023-02-25T14:22:18Z</time>
      </trkpt>
      <trkpt lat="49.83682" lon="2.23267">
        <ele>65.6</ele>
        <time>2023-02-25T14:22:19Z</time>
      </trkpt>
      <trkpt lat="49.83683" lon="2.23266">
        <ele>65.6</ele>
        <time>2023-02-25T14:22:20Z</time>
      </trkpt>
      <trkpt lat="49.83683" lon="2.23264">
        <ele>65.5</ele>
        <time>2023-02-25T14:22:21Z</time>
      </trkpt>
      <trkpt lat="49.83684" lon="2.23262">
        <ele>65.4</ele>
        <time>2023-02-25T14:22:23Z</time>
      </trkpt>
      <trkpt lat="49.83685" lon="2.23259">
        <ele>65.3</ele>
        <time>2023-02-25T14:22:24Z</time>
      </trkpt>
      <trkpt lat="49.83685" lon="2.23258">
        <ele>65.3</ele>
        <time>2023-02-25T14:22:25Z</time>
      </trkpt>
      <trkpt lat="49.83686" lon="2.23256">
        <ele>65.2</ele>
        <time>2023-02-25T14:22:26Z</time>
      </trkpt>
      <trkpt lat="49.83686" lon="2.23256">
        <ele>65.2</ele>
        <time>2023-02-25T14:22:28Z</time>
      </trkpt>
      <trkpt lat="49.83686" lon="2.23255">
        <ele>65.1</ele>
        <time>2023-02-25T14:22:29Z</time>
      </trkpt>
      <trkpt lat="49.83686" lon="2.23253">
        <ele>65.1</ele>
        <time>2023-02-25T14:22:30Z</time>
      </trkpt>
      <trkpt lat="49.83687" lon="2.23251">
        <ele>65</ele>
        <time>2023-02-25T14:22:31Z</time>
      </trkpt>
      <trkpt lat="49.83687" lon="2.2325">
        <ele>64.9</ele>
        <time>2023-02-25T14:22:32Z</time>
      </trkpt>
      <trkpt lat="49.83687" lon="2.23248">
        <ele>64.9</ele>
        <time>2023-02-25T14:22:33Z</time>
      </trkpt>
      <trkpt lat="49.83688" lon="2.23246">
        <ele>64.8</ele>
        <time>2023-02-25T14:22:34Z</time>
      </trkpt>
      <trkpt lat="49.83689" lon="2.23245">
        <ele>64.7</ele>
        <time>2023-02-25T14:22:35Z</time>
      </trkpt>
      <trkpt lat="49.83689" lon="2.23244">
        <ele>64.7</ele>
        <time>2023-02-25T14:22:37Z</time>
      </trkpt>
      <trkpt lat="49.8369" lon="2.23243">
        <ele>64.6</ele>
        <time>2023-02-25T14:22:38Z</time>
      </trkpt>
      <trkpt lat="49.8369" lon="2.23241">
        <ele>64.5</ele>
        <time>2023-02-25T14:22:39Z</time>
      </trkpt>
      <trkpt lat="49.83691" lon="2.23239">
        <ele>64.4</ele>
        <time>2023-02-25T14:22:40Z</time>
      </trkpt>
      <trkpt lat="49.83691" lon="2.23236">
        <ele>64.3</ele>
        <time>2023-02-25T14:22:41Z</time>
      </trkpt>
      <trkpt lat="49.83691" lon="2.23235">
        <ele>64.2</ele>
        <time>2023-02-25T14:22:42Z</time>
      </trkpt>
      <trkpt lat="49.83692" lon="2.23233">
        <ele>64.1</ele>
        <time>2023-02-25T14:22:43Z</time>
      </trkpt>
      <trkpt lat="49.83692" lon="2.23231">
        <ele>64</ele>
        <time>2023-02-25T14:22:44Z</time>
      </trkpt>
      <trkpt lat="49.83693" lon="2.2323">
        <ele>63.9</ele>
        <time>2023-02-25T14:22:45Z</time>
      </trkpt>
      <trkpt lat="49.83693" lon="2.23229">
        <ele>63.9</ele>
        <time>2023-02-25T14:22:46Z</time>
      </trkpt>
      <trkpt lat="49.83694" lon="2.23228">
        <ele>63.8</ele>
        <time>2023-02-25T14:22:48Z</time>
      </trkpt>
      <trkpt lat="49.83694" lon="2.23226">
        <ele>63.7</ele>
        <time>2023-02-25T14:22:49Z</time>
      </trkpt>
      <trkpt lat="49.83695" lon="2.23224">
        <ele>63.6</ele>
        <time>2023-02-25T14:22:50Z</time>
      </trkpt>
      <trkpt lat="49.83695" lon="2.23221">
        <ele>63.4</ele>
        <time>2023-02-25T14:22:51Z</time>
      </trkpt>
      <trkpt lat="49.83696" lon="2.2322">
        <ele>63.4</ele>
        <time>2023-02-25T14:22:52Z</time>
      </trkpt>
      <trkpt lat="49.83696" lon="2.23219">
        <ele>63.3</ele>
        <time>2023-02-25T14:22:53Z</time>
      </trkpt>
      <trkpt lat="49.83696" lon="2.23217">
        <ele>63.2</ele>
        <time>2023-02-25T14:22:54Z</time>
      </trkpt>
      <trkpt lat="49.83697" lon="2.23215">
        <ele>63.1</ele>
        <time>2023-02-25T14:22:55Z</time>
      </trkpt>
      <trkpt lat="49.83697" lon="2.23214">
        <ele>63</ele>
        <time>2023-02-25T14:22:57Z</time>
      </trkpt>
      <trkpt lat="49.83697" lon="2.23212">
        <ele>63</ele>
        <time>2023-02-25T14:22:58Z</time>
      </trkpt>
      <trkpt lat="49.83698" lon="2.23211">
        <ele>62.9</ele>
        <time>2023-02-25T14:22:59Z</time>
      </trkpt>
      <trkpt lat="49.83698" lon="2.23209">
        <ele>62.8</ele>
        <time>2023-02-25T14:23:00Z</time>
      </trkpt>
      <trkpt lat="49.83698" lon="2.23207">
        <ele>62.7</ele>
        <time>2023-02-25T14:23:01Z</time>
      </trkpt>
      <trkpt lat="49.83699" lon="2.23205">
        <ele>62.6</ele>
        <time>2023-02-25T14:23:02Z</time>
      </trkpt>
      <trkpt lat="49.83699" lon="2.23204">
        <ele>62.5</ele>
        <time>2023-02-25T14:23:03Z</time>
      </trkpt>
      <trkpt lat="49.837" lon="2.23202">
        <ele>62.4</ele>
        <time>2023-02-25T14:23:04Z</time>
      </trkpt>
      <trkpt lat="49.83701" lon="2.23201">
        <ele>62.3</ele>
        <time>2023-02-25T14:23:06Z</time>
      </trkpt>
      <trkpt lat="49.83701" lon="2.232">
        <ele>62.2</ele>
        <time>2023-02-25T14:23:07Z</time>
      </trkpt>
      <trkpt lat="49.83702" lon="2.23199">
        <ele>62.1</ele>
        <time>2023-02-25T14:23:08Z</time>
      </trkpt>
      <trkpt lat="49.83702" lon="2.23197">
        <ele>62</ele>
        <time>2023-02-25T14:23:09Z</time>
      </trkpt>
      <trkpt lat="49.83703" lon="2.23196">
        <ele>61.9</ele>
        <time>2023-02-25T14:23:10Z</time>
      </trkpt>
      <trkpt lat="49.83703" lon="2.23194">
        <ele>61.8</ele>
        <time>2023-02-25T14:23:11Z</time>
      </trkpt>
      <trkpt lat="49.83703" lon="2.23193">
        <ele>61.7</ele>
        <time>2023-02-25T14:23:12Z</time>
      </trkpt>
      <trkpt lat="49.83704" lon="2.23191">
        <ele>61.6</ele>
        <time>2023-02-25T14:23:13Z</time>
      </trkpt>
      <trkpt lat="49.83704" lon="2.23189">
        <ele>61.5</ele>
        <time>2023-02-25T14:23:15Z</time>
      </trkpt>
      <trkpt lat="49.83703" lon="2.23188">
        <ele>61.4</ele>
        <time>2023-02-25T14:23:16Z</time>
      </trkpt>
      <trkpt lat="49.83703" lon="2.23186">
        <ele>61.3</ele>
        <time>2023-02-25T14:23:17Z</time>
      </trkpt>
      <trkpt lat="49.83703" lon="2.23185">
        <ele>61.3</ele>
        <time>2023-02-25T14:23:18Z</time>
      </trkpt>
      <trkpt lat="49.83703" lon="2.23184">
        <ele>61.1</ele>
        <time>2023-02-25T14:23:19Z</time>
      </trkpt>
      <trkpt lat="49.83702" lon="2.23182">
        <ele>61</ele>
        <time>2023-02-25T14:23:20Z</time>
      </trkpt>
      <trkpt lat="49.83701" lon="2.2318">
        <ele>60.9</ele>
        <time>2023-02-25T14:23:21Z</time>
      </trkpt>
      <trkpt lat="49.83701" lon="2.23178">
        <ele>60.8</ele>
        <time>2023-02-25T14:23:22Z</time>
      </trkpt>
      <trkpt lat="49.83701" lon="2.23177">
        <ele>60.4</ele>
        <time>2023-02-25T14:23:24Z</time>
      </trkpt>
      <trkpt lat="49.83701" lon="2.23176">
        <ele>60.3</ele>
        <time>2023-02-25T14:23:25Z</time>
      </trkpt>
      <trkpt lat="49.83701" lon="2.23175">
        <ele>60.3</ele>
        <time>2023-02-25T14:23:26Z</time>
      </trkpt>
      <trkpt lat="49.837" lon="2.23173">
        <ele>60.3</ele>
        <time>2023-02-25T14:23:27Z</time>
      </trkpt>
      <trkpt lat="49.83699" lon="2.23172">
        <ele>60.3</ele>
        <time>2023-02-25T14:23:28Z</time>
      </trkpt>
      <trkpt lat="49.83698" lon="2.23171">
        <ele>60.2</ele>
        <time>2023-02-25T14:23:29Z</time>
      </trkpt>
      <trkpt lat="49.83697" lon="2.2317">
        <ele>60.2</ele>
        <time>2023-02-25T14:23:30Z</time>
      </trkpt>
      <trkpt lat="49.83697" lon="2.23169">
        <ele>60.2</ele>
        <time>2023-02-25T14:23:31Z</time>
      </trkpt>
      <trkpt lat="49.83696" lon="2.23168">
        <ele>60.1</ele>
        <time>2023-02-25T14:23:33Z</time>
      </trkpt>
      <trkpt lat="49.83695" lon="2.23165">
        <ele>60.1</ele>
        <time>2023-02-25T14:23:34Z</time>
      </trkpt>
      <trkpt lat="49.83694" lon="2.23165">
        <ele>60.1</ele>
        <time>2023-02-25T14:23:35Z</time>
      </trkpt>
      <trkpt lat="49.83694" lon="2.23163">
        <ele>60</ele>
        <time>2023-02-25T14:23:36Z</time>
      </trkpt>
      <trkpt lat="49.83693" lon="2.23163">
        <ele>58.7</ele>
        <time>2023-02-25T14:23:37Z</time>
      </trkpt>
      <trkpt lat="49.83692" lon="2.23162">
        <ele>58.6</ele>
        <time>2023-02-25T14:23:39Z</time>
      </trkpt>
      <trkpt lat="49.83691" lon="2.23162">
        <ele>58.5</ele>
        <time>2023-02-25T14:23:40Z</time>
      </trkpt>
      <trkpt lat="49.8369" lon="2.23161">
        <ele>58.4</ele>
        <time>2023-02-25T14:23:41Z</time>
      </trkpt>
      <trkpt lat="49.83689" lon="2.2316">
        <ele>58.3</ele>
        <time>2023-02-25T14:23:42Z</time>
      </trkpt>
      <trkpt lat="49.83689" lon="2.23159">
        <ele>58.2</ele>
        <time>2023-02-25T14:23:44Z</time>
      </trkpt>
      <trkpt lat="49.83689" lon="2.23157">
        <ele>58.1</ele>
        <time>2023-02-25T14:23:45Z</time>
      </trkpt>
      <trkpt lat="49.83689" lon="2.23156">
        <ele>58</ele>
        <time>2023-02-25T14:23:46Z</time>
      </trkpt>
      <trkpt lat="49.8369" lon="2.23154">
        <ele>57.9</ele>
        <time>2023-02-25T14:23:47Z</time>
      </trkpt>
      <trkpt lat="49.83691" lon="2.23153">
        <ele>57.8</ele>
        <time>2023-02-25T14:23:48Z</time>
      </trkpt>
      <trkpt lat="49.83693" lon="2.23151">
        <ele>57.5</ele>
        <time>2023-02-25T14:23:50Z</time>
      </trkpt>
      <trkpt lat="49.83694" lon="2.23151">
        <ele>57.4</ele>
        <time>2023-02-25T14:23:51Z</time>
      </trkpt>
      <trkpt lat="49.83695" lon="2.2315">
        <ele>57.3</ele>
        <time>2023-02-25T14:23:53Z</time>
      </trkpt>
      <trkpt lat="49.83697" lon="2.2315">
        <ele>57.1</ele>
        <time>2023-02-25T14:23:54Z</time>
      </trkpt>
      <trkpt lat="49.83698" lon="2.2315">
        <ele>57</ele>
        <time>2023-02-25T14:23:55Z</time>
      </trkpt>
      <trkpt lat="49.837" lon="2.2315">
        <ele>56.8</ele>
        <time>2023-02-25T14:23:56Z</time>
      </trkpt>
      <trkpt lat="49.83701" lon="2.23151">
        <ele>56.7</ele>
        <time>2023-02-25T14:23:57Z</time>
      </trkpt>
      <trkpt lat="49.83703" lon="2.23151">
        <ele>56.6</ele>
        <time>2023-02-25T14:23:58Z</time>
      </trkpt>
      <trkpt lat="49.83704" lon="2.23152">
        <ele>56.4</ele>
        <time>2023-02-25T14:24:00Z</time>
      </trkpt>
      <trkpt lat="49.83706" lon="2.23151">
        <ele>56.2</ele>
        <time>2023-02-25T14:24:01Z</time>
      </trkpt>
      <trkpt lat="49.83707" lon="2.23151">
        <ele>56.2</ele>
        <time>2023-02-25T14:24:02Z</time>
      </trkpt>
      <trkpt lat="49.83708" lon="2.2315">
        <ele>56.1</ele>
        <time>2023-02-25T14:24:03Z</time>
      </trkpt>
      <trkpt lat="49.83711" lon="2.23149">
        <ele>55.8</ele>
        <time>2023-02-25T14:24:04Z</time>
      </trkpt>
      <trkpt lat="49.83711" lon="2.23148">
        <ele>55.8</ele>
        <time>2023-02-25T14:24:05Z</time>
      </trkpt>
      <trkpt lat="49.83712" lon="2.23148">
        <ele>55.7</ele>
        <time>2023-02-25T14:24:06Z</time>
      </trkpt>
      <trkpt lat="49.83714" lon="2.23148">
        <ele>55.5</ele>
        <time>2023-02-25T14:24:08Z</time>
      </trkpt>
      <trkpt lat="49.83715" lon="2.23147">
        <ele>55.4</ele>
        <time>2023-02-25T14:24:09Z</time>
      </trkpt>
      <trkpt lat="49.83716" lon="2.23147">
        <ele>55.4</ele>
        <time>2023-02-25T14:24:10Z</time>
      </trkpt>
      <trkpt lat="49.83718" lon="2.23145">
        <ele>55.2</ele>
        <time>2023-02-25T14:24:11Z</time>
      </trkpt>
      <trkpt lat="49.83718" lon="2.23145">
        <ele>55.1</ele>
        <time>2023-02-25T14:24:12Z</time>
      </trkpt>
      <trkpt lat="49.83719" lon="2.23145">
        <ele>55</ele>
        <time>2023-02-25T14:24:13Z</time>
      </trkpt>
      <trkpt lat="49.83721" lon="2.23144">
        <ele>54.8</ele>
        <time>2023-02-25T14:24:14Z</time>
      </trkpt>
      <trkpt lat="49.83722" lon="2.23144">
        <ele>54.8</ele>
        <time>2023-02-25T14:24:16Z</time>
      </trkpt>
      <trkpt lat="49.83723" lon="2.23143">
        <ele>54.7</ele>
        <time>2023-02-25T14:24:17Z</time>
      </trkpt>
      <trkpt lat="49.83724" lon="2.23143">
        <ele>54.6</ele>
        <time>2023-02-25T14:24:18Z</time>
      </trkpt>
      <trkpt lat="49.83725" lon="2.23143">
        <ele>54.5</ele>
        <time>2023-02-25T14:24:19Z</time>
      </trkpt>
      <trkpt lat="49.83726" lon="2.23143">
        <ele>54.4</ele>
        <time>2023-02-25T14:24:20Z</time>
      </trkpt>
      <trkpt lat="49.83727" lon="2.23143">
        <ele>54.3</ele>
        <time>2023-02-25T14:24:21Z</time>
      </trkpt>
      <trkpt lat="49.83728" lon="2.23142">
        <ele>54.2</ele>
        <time>2023-02-25T14:24:23Z</time>
      </trkpt>
      <trkpt lat="49.83728" lon="2.23141">
        <ele>54.2</ele>
        <time>2023-02-25T14:24:24Z</time>
      </trkpt>
      <trkpt lat="49.83729" lon="2.2314">
        <ele>54.1</ele>
        <time>2023-02-25T14:24:25Z</time>
      </trkpt>
      <trkpt lat="49.8373" lon="2.23139">
        <ele>53.9</ele>
        <time>2023-02-25T14:24:26Z</time>
      </trkpt>
      <trkpt lat="49.83731" lon="2.23137">
        <ele>53.8</ele>
        <time>2023-02-25T14:24:27Z</time>
      </trkpt>
      <trkpt lat="49.83732" lon="2.23137">
        <ele>53.8</ele>
        <time>2023-02-25T14:24:29Z</time>
      </trkpt>
      <trkpt lat="49.83733" lon="2.23136">
        <ele>53.7</ele>
        <time>2023-02-25T14:24:30Z</time>
      </trkpt>
      <trkpt lat="49.83733" lon="2.23135">
        <ele>53.6</ele>
        <time>2023-02-25T14:24:31Z</time>
      </trkpt>
      <trkpt lat="49.83734" lon="2.23134">
        <ele>53.5</ele>
        <time>2023-02-25T14:24:32Z</time>
      </trkpt>
      <trkpt lat="49.83735" lon="2.23133">
        <ele>53.4</ele>
        <time>2023-02-25T14:24:33Z</time>
      </trkpt>
      <trkpt lat="49.83736" lon="2.23132">
        <ele>53.3</ele>
        <time>2023-02-25T14:24:34Z</time>
      </trkpt>
      <trkpt lat="49.83737" lon="2.23131">
        <ele>53.2</ele>
        <time>2023-02-25T14:24:35Z</time>
      </trkpt>
      <trkpt lat="49.83738" lon="2.23131">
        <ele>53.1</ele>
        <time>2023-02-25T14:24:37Z</time>
      </trkpt>
      <trkpt lat="49.83739" lon="2.2313">
        <ele>53.1</ele>
        <time>2023-02-25T14:24:38Z</time>
      </trkpt>
      <trkpt lat="49.83739" lon="2.23129">
        <ele>53</ele>
        <time>2023-02-25T14:24:39Z</time>
      </trkpt>
      <trkpt lat="49.8374" lon="2.23128">
        <ele>52.9</ele>
        <time>2023-02-25T14:24:40Z</time>
      </trkpt>
      <trkpt lat="49.83741" lon="2.23127">
        <ele>52.8</ele>
        <time>2023-02-25T14:24:41Z</time>
      </trkpt>
      <trkpt lat="49.83741" lon="2.23126">
        <ele>52.8</ele>
        <time>2023-02-25T14:24:42Z</time>
      </trkpt>
      <trkpt lat="49.83743" lon="2.23124">
        <ele>52.6</ele>
        <time>2023-02-25T14:24:43Z</time>
      </trkpt>
      <trkpt lat="49.83743" lon="2.23124">
        <ele>52.6</ele>
        <time>2023-02-25T14:24:45Z</time>
      </trkpt>
      <trkpt lat="49.83744" lon="2.23123">
        <ele>52.5</ele>
        <time>2023-02-25T14:24:46Z</time>
      </trkpt>
      <trkpt lat="49.83744" lon="2.23122">
        <ele>52.5</ele>
        <time>2023-02-25T14:24:47Z</time>
      </trkpt>
      <trkpt lat="49.83746" lon="2.23122">
        <ele>52.4</ele>
        <time>2023-02-25T14:24:48Z</time>
      </trkpt>
      <trkpt lat="49.83747" lon="2.23121">
        <ele>52.3</ele>
        <time>2023-02-25T14:24:49Z</time>
      </trkpt>
      <trkpt lat="49.83748" lon="2.2312">
        <ele>52.2</ele>
        <time>2023-02-25T14:24:50Z</time>
      </trkpt>
      <trkpt lat="49.83749" lon="2.2312">
        <ele>52.1</ele>
        <time>2023-02-25T14:24:51Z</time>
      </trkpt>
      <trkpt lat="49.8375" lon="2.23119">
        <ele>52</ele>
        <time>2023-02-25T14:24:52Z</time>
      </trkpt>
      <trkpt lat="49.83751" lon="2.23119">
        <ele>51.9</ele>
        <time>2023-02-25T14:24:54Z</time>
      </trkpt>
      <trkpt lat="49.83752" lon="2.23119">
        <ele>51.8</ele>
        <time>2023-02-25T14:24:55Z</time>
      </trkpt>
      <trkpt lat="49.83753" lon="2.23119">
        <ele>51.8</ele>
        <time>2023-02-25T14:24:56Z</time>
      </trkpt>
      <trkpt lat="49.83754" lon="2.23119">
        <ele>51.7</ele>
        <time>2023-02-25T14:24:57Z</time>
      </trkpt>
      <trkpt lat="49.83755" lon="2.23119">
        <ele>51.6</ele>
        <time>2023-02-25T14:24:58Z</time>
      </trkpt>
      <trkpt lat="49.83756" lon="2.23119">
        <ele>51.5</ele>
        <time>2023-02-25T14:24:59Z</time>
      </trkpt>
      <trkpt lat="49.83757" lon="2.23118">
        <ele>51.4</ele>
        <time>2023-02-25T14:25:00Z</time>
      </trkpt>
      <trkpt lat="49.83758" lon="2.23118">
        <ele>51.3</ele>
        <time>2023-02-25T14:25:01Z</time>
      </trkpt>
      <trkpt lat="49.83759" lon="2.23118">
        <ele>51.3</ele>
        <time>2023-02-25T14:25:03Z</time>
      </trkpt>
      <trkpt lat="49.8376" lon="2.23118">
        <ele>51.2</ele>
        <time>2023-02-25T14:25:04Z</time>
      </trkpt>
      <trkpt lat="49.83762" lon="2.23118">
        <ele>51</ele>
        <time>2023-02-25T14:25:05Z</time>
      </trkpt>
      <trkpt lat="49.83763" lon="2.23118">
        <ele>50.9</ele>
        <time>2023-02-25T14:25:06Z</time>
      </trkpt>
      <trkpt lat="49.83764" lon="2.23117">
        <ele>50.9</ele>
        <time>2023-02-25T14:25:07Z</time>
      </trkpt>
      <trkpt lat="49.83765" lon="2.23117">
        <ele>50.8</ele>
        <time>2023-02-25T14:25:08Z</time>
      </trkpt>
      <trkpt lat="49.83766" lon="2.23117">
        <ele>50.7</ele>
        <time>2023-02-25T14:25:09Z</time>
      </trkpt>
      <trkpt lat="49.83767" lon="2.23117">
        <ele>50.6</ele>
        <time>2023-02-25T14:25:11Z</time>
      </trkpt>
      <trkpt lat="49.83768" lon="2.23116">
        <ele>50.5</ele>
        <time>2023-02-25T14:25:12Z</time>
      </trkpt>
      <trkpt lat="49.83769" lon="2.23116">
        <ele>50.4</ele>
        <time>2023-02-25T14:25:13Z</time>
      </trkpt>
      <trkpt lat="49.83771" lon="2.23115">
        <ele>50.3</ele>
        <time>2023-02-25T14:25:14Z</time>
      </trkpt>
      <trkpt lat="49.83772" lon="2.23114">
        <ele>50.2</ele>
        <time>2023-02-25T14:25:15Z</time>
      </trkpt>
      <trkpt lat="49.83773" lon="2.23114">
        <ele>50.1</ele>
        <time>2023-02-25T14:25:16Z</time>
      </trkpt>
      <trkpt lat="49.83774" lon="2.23114">
        <ele>50</ele>
        <time>2023-02-25T14:25:17Z</time>
      </trkpt>
      <trkpt lat="49.83775" lon="2.23113">
        <ele>50</ele>
        <time>2023-02-25T14:25:18Z</time>
      </trkpt>
      <trkpt lat="49.83776" lon="2.23113">
        <ele>49.9</ele>
        <time>2023-02-25T14:25:20Z</time>
      </trkpt>
      <trkpt lat="49.83777" lon="2.23113">
        <ele>49.8</ele>
        <time>2023-02-25T14:25:21Z</time>
      </trkpt>
      <trkpt lat="49.83778" lon="2.23113">
        <ele>49.7</ele>
        <time>2023-02-25T14:25:22Z</time>
      </trkpt>
      <trkpt lat="49.8378" lon="2.23113">
        <ele>49.6</ele>
        <time>2023-02-25T14:25:23Z</time>
      </trkpt>
      <trkpt lat="49.83782" lon="2.23113">
        <ele>49.4</ele>
        <time>2023-02-25T14:25:24Z</time>
      </trkpt>
      <trkpt lat="49.83783" lon="2.23113">
        <ele>49.3</ele>
        <time>2023-02-25T14:25:25Z</time>
      </trkpt>
      <trkpt lat="49.83784" lon="2.23113">
        <ele>49.3</ele>
        <time>2023-02-25T14:25:26Z</time>
      </trkpt>
      <trkpt lat="49.83784" lon="2.23113">
        <ele>49.2</ele>
        <time>2023-02-25T14:25:28Z</time>
      </trkpt>
      <trkpt lat="49.83785" lon="2.23113">
        <ele>49.1</ele>
        <time>2023-02-25T14:25:29Z</time>
      </trkpt>
      <trkpt lat="49.83787" lon="2.23113">
        <ele>49</ele>
        <time>2023-02-25T14:25:30Z</time>
      </trkpt>
      <trkpt lat="49.83788" lon="2.23114">
        <ele>49</ele>
        <time>2023-02-25T14:25:31Z</time>
      </trkpt>
      <trkpt lat="49.83789" lon="2.23115">
        <ele>48.9</ele>
        <time>2023-02-25T14:25:33Z</time>
      </trkpt>
      <trkpt lat="49.8379" lon="2.23115">
        <ele>48.8</ele>
        <time>2023-02-25T14:25:34Z</time>
      </trkpt>
      <trkpt lat="49.83791" lon="2.23115">
        <ele>48.8</ele>
        <time>2023-02-25T14:25:35Z</time>
      </trkpt>
      <trkpt lat="49.83792" lon="2.23114">
        <ele>48.7</ele>
        <time>2023-02-25T14:25:36Z</time>
      </trkpt>
      <trkpt lat="49.83792" lon="2.23114">
        <ele>48.6</ele>
        <time>2023-02-25T14:25:37Z</time>
      </trkpt>
      <trkpt lat="49.83793" lon="2.23113">
        <ele>48.6</ele>
        <time>2023-02-25T14:25:39Z</time>
      </trkpt>
      <trkpt lat="49.83794" lon="2.23113">
        <ele>48.5</ele>
        <time>2023-02-25T14:25:40Z</time>
      </trkpt>
      <trkpt lat="49.83795" lon="2.23112">
        <ele>48.5</ele>
        <time>2023-02-25T14:25:41Z</time>
      </trkpt>
      <trkpt lat="49.83796" lon="2.23112">
        <ele>48.3</ele>
        <time>2023-02-25T14:25:43Z</time>
      </trkpt>
      <trkpt lat="49.83797" lon="2.23113">
        <ele>48.3</ele>
        <time>2023-02-25T14:25:44Z</time>
      </trkpt>
      <trkpt lat="49.83798" lon="2.23113">
        <ele>48.2</ele>
        <time>2023-02-25T14:25:46Z</time>
      </trkpt>
      <trkpt lat="49.83799" lon="2.23113">
        <ele>48.1</ele>
        <time>2023-02-25T14:25:47Z</time>
      </trkpt>
      <trkpt lat="49.838" lon="2.23113">
        <ele>48.1</ele>
        <time>2023-02-25T14:25:48Z</time>
      </trkpt>
      <trkpt lat="49.83801" lon="2.23112">
        <ele>48</ele>
        <time>2023-02-25T14:25:49Z</time>
      </trkpt>
      <trkpt lat="49.83802" lon="2.23112">
        <ele>47.9</ele>
        <time>2023-02-25T14:25:50Z</time>
      </trkpt>
      <trkpt lat="49.83803" lon="2.23111">
        <ele>47.8</ele>
        <time>2023-02-25T14:25:51Z</time>
      </trkpt>
      <trkpt lat="49.83804" lon="2.2311">
        <ele>47.7</ele>
        <time>2023-02-25T14:25:52Z</time>
      </trkpt>
      <trkpt lat="49.83805" lon="2.23109">
        <ele>47.7</ele>
        <time>2023-02-25T14:25:54Z</time>
      </trkpt>
      <trkpt lat="49.83806" lon="2.23109">
        <ele>47.6</ele>
        <time>2023-02-25T14:25:55Z</time>
      </trkpt>
      <trkpt lat="49.83807" lon="2.23108">
        <ele>47.5</ele>
        <time>2023-02-25T14:25:56Z</time>
      </trkpt>
      <trkpt lat="49.83808" lon="2.23107">
        <ele>47.4</ele>
        <time>2023-02-25T14:25:57Z</time>
      </trkpt>
      <trkpt lat="49.83809" lon="2.23106">
        <ele>47.4</ele>
        <time>2023-02-25T14:25:58Z</time>
      </trkpt>
      <trkpt lat="49.8381" lon="2.23105">
        <ele>47.3</ele>
        <time>2023-02-25T14:25:59Z</time>
      </trkpt>
      <trkpt lat="49.83812" lon="2.23104">
        <ele>47.2</ele>
        <time>2023-02-25T14:26:00Z</time>
      </trkpt>
      <trkpt lat="49.83812" lon="2.23104">
        <ele>47.1</ele>
        <time>2023-02-25T14:26:02Z</time>
      </trkpt>
      <trkpt lat="49.83813" lon="2.23104">
        <ele>47.1</ele>
        <time>2023-02-25T14:26:03Z</time>
      </trkpt>
      <trkpt lat="49.83815" lon="2.23103">
        <ele>47</ele>
        <time>2023-02-25T14:26:04Z</time>
      </trkpt>
      <trkpt lat="49.83816" lon="2.23103">
        <ele>46.9</ele>
        <time>2023-02-25T14:26:05Z</time>
      </trkpt>
      <trkpt lat="49.83817" lon="2.23102">
        <ele>46.8</ele>
        <time>2023-02-25T14:26:06Z</time>
      </trkpt>
      <trkpt lat="49.83818" lon="2.23102">
        <ele>46.7</ele>
        <time>2023-02-25T14:26:07Z</time>
      </trkpt>
      <trkpt lat="49.83819" lon="2.23102">
        <ele>46.6</ele>
        <time>2023-02-25T14:26:08Z</time>
      </trkpt>
      <trkpt lat="49.8382" lon="2.23102">
        <ele>46.6</ele>
        <time>2023-02-25T14:26:10Z</time>
      </trkpt>
      <trkpt lat="49.83821" lon="2.23101">
        <ele>46.5</ele>
        <time>2023-02-25T14:26:11Z</time>
      </trkpt>
      <trkpt lat="49.83822" lon="2.23101">
        <ele>46.4</ele>
        <time>2023-02-25T14:26:12Z</time>
      </trkpt>
      <trkpt lat="49.83823" lon="2.23101">
        <ele>46.3</ele>
        <time>2023-02-25T14:26:13Z</time>
      </trkpt>
      <trkpt lat="49.83825" lon="2.231">
        <ele>46.2</ele>
        <time>2023-02-25T14:26:14Z</time>
      </trkpt>
      <trkpt lat="49.83826" lon="2.23099">
        <ele>46.1</ele>
        <time>2023-02-25T14:26:15Z</time>
      </trkpt>
      <trkpt lat="49.83827" lon="2.23098">
        <ele>46</ele>
        <time>2023-02-25T14:26:17Z</time>
      </trkpt>
      <trkpt lat="49.83828" lon="2.23098">
        <ele>45.9</ele>
        <time>2023-02-25T14:26:18Z</time>
      </trkpt>
      <trkpt lat="49.83829" lon="2.23097">
        <ele>45.9</ele>
        <time>2023-02-25T14:26:19Z</time>
      </trkpt>
      <trkpt lat="49.8383" lon="2.23096">
        <ele>45.8</ele>
        <time>2023-02-25T14:26:20Z</time>
      </trkpt>
      <trkpt lat="49.8383" lon="2.23096">
        <ele>45.7</ele>
        <time>2023-02-25T14:26:21Z</time>
      </trkpt>
      <trkpt lat="49.83831" lon="2.23095">
        <ele>45.6</ele>
        <time>2023-02-25T14:26:22Z</time>
      </trkpt>
      <trkpt lat="49.83832" lon="2.23094">
        <ele>45.5</ele>
        <time>2023-02-25T14:26:23Z</time>
      </trkpt>
      <trkpt lat="49.83834" lon="2.23091">
        <ele>45.4</ele>
        <time>2023-02-25T14:26:24Z</time>
      </trkpt>
      <trkpt lat="49.83835" lon="2.2309">
        <ele>45.3</ele>
        <time>2023-02-25T14:26:25Z</time>
      </trkpt>
      <trkpt lat="49.83835" lon="2.23089">
        <ele>45.2</ele>
        <time>2023-02-25T14:26:27Z</time>
      </trkpt>
      <trkpt lat="49.83836" lon="2.23087">
        <ele>45.1</ele>
        <time>2023-02-25T14:26:28Z</time>
      </trkpt>
      <trkpt lat="49.83837" lon="2.23086">
        <ele>45</ele>
        <time>2023-02-25T14:26:29Z</time>
      </trkpt>
      <trkpt lat="49.83838" lon="2.23084">
        <ele>44.9</ele>
        <time>2023-02-25T14:26:30Z</time>
      </trkpt>
      <trkpt lat="49.83838" lon="2.23084">
        <ele>44.9</ele>
        <time>2023-02-25T14:26:32Z</time>
      </trkpt>
      <trkpt lat="49.83838" lon="2.23085">
        <ele>44.8</ele>
        <time>2023-02-25T14:26:33Z</time>
      </trkpt>
      <trkpt lat="49.83839" lon="2.23087">
        <ele>44.7</ele>
        <time>2023-02-25T14:26:35Z</time>
      </trkpt>
      <trkpt lat="49.8384" lon="2.23088">
        <ele>44.6</ele>
        <time>2023-02-25T14:26:36Z</time>
      </trkpt>
      <trkpt lat="49.83841" lon="2.23089">
        <ele>44.5</ele>
        <time>2023-02-25T14:26:37Z</time>
      </trkpt>
      <trkpt lat="49.83842" lon="2.23089">
        <ele>44.5</ele>
        <time>2023-02-25T14:26:38Z</time>
      </trkpt>
      <trkpt lat="49.83842" lon="2.2309">
        <ele>44.4</ele>
        <time>2023-02-25T14:26:39Z</time>
      </trkpt>
      <trkpt lat="49.83845" lon="2.23092">
        <ele>44.2</ele>
        <time>2023-02-25T14:26:40Z</time>
      </trkpt>
      <trkpt lat="49.83846" lon="2.23093">
        <ele>44.1</ele>
        <time>2023-02-25T14:26:41Z</time>
      </trkpt>
      <trkpt lat="49.83846" lon="2.23093">
        <ele>44</ele>
        <time>2023-02-25T14:26:43Z</time>
      </trkpt>
      <trkpt lat="49.83847" lon="2.23093">
        <ele>44</ele>
        <time>2023-02-25T14:26:44Z</time>
      </trkpt>
      <trkpt lat="49.83848" lon="2.23094">
        <ele>43.9</ele>
        <time>2023-02-25T14:26:45Z</time>
      </trkpt>
      <trkpt lat="49.83849" lon="2.23094">
        <ele>43.8</ele>
        <time>2023-02-25T14:26:46Z</time>
      </trkpt>
      <trkpt lat="49.83851" lon="2.23095">
        <ele>43.7</ele>
        <time>2023-02-25T14:26:47Z</time>
      </trkpt>
      <trkpt lat="49.83852" lon="2.23095">
        <ele>43.6</ele>
        <time>2023-02-25T14:26:48Z</time>
      </trkpt>
      <trkpt lat="49.83853" lon="2.23095">
        <ele>43.6</ele>
        <time>2023-02-25T14:26:49Z</time>
      </trkpt>
      <trkpt lat="49.83855" lon="2.23097">
        <ele>43.4</ele>
        <time>2023-02-25T14:26:51Z</time>
      </trkpt>
      <trkpt lat="49.83855" lon="2.23097">
        <ele>43.3</ele>
        <time>2023-02-25T14:26:52Z</time>
      </trkpt>
      <trkpt lat="49.83856" lon="2.23098">
        <ele>43.3</ele>
        <time>2023-02-25T14:26:53Z</time>
      </trkpt>
      <trkpt lat="49.83859" lon="2.23098">
        <ele>43.1</ele>
        <time>2023-02-25T14:26:54Z</time>
      </trkpt>
      <trkpt lat="49.8386" lon="2.23098">
        <ele>42.9</ele>
        <time>2023-02-25T14:26:55Z</time>
      </trkpt>
      <trkpt lat="49.8386" lon="2.23098">
        <ele>42.9</ele>
        <time>2023-02-25T14:26:56Z</time>
      </trkpt>
      <trkpt lat="49.83861" lon="2.23098">
        <ele>42.8</ele>
        <time>2023-02-25T14:26:57Z</time>
      </trkpt>
      <trkpt lat="49.83862" lon="2.23097">
        <ele>42.7</ele>
        <time>2023-02-25T14:26:59Z</time>
      </trkpt>
      <trkpt lat="49.83863" lon="2.23096">
        <ele>42.6</ele>
        <time>2023-02-25T14:27:00Z</time>
      </trkpt>
      <trkpt lat="49.83865" lon="2.23093">
        <ele>41.9</ele>
        <time>2023-02-25T14:27:01Z</time>
      </trkpt>
      <trkpt lat="49.83866" lon="2.23094">
        <ele>41.9</ele>
        <time>2023-02-25T14:27:02Z</time>
      </trkpt>
      <trkpt lat="49.83868" lon="2.23093">
        <ele>41.8</ele>
        <time>2023-02-25T14:27:03Z</time>
      </trkpt>
      <trkpt lat="49.83869" lon="2.23093">
        <ele>41.8</ele>
        <time>2023-02-25T14:27:04Z</time>
      </trkpt>
      <trkpt lat="49.8387" lon="2.23093">
        <ele>41.7</ele>
        <time>2023-02-25T14:27:05Z</time>
      </trkpt>
      <trkpt lat="49.83871" lon="2.23093">
        <ele>41.7</ele>
        <time>2023-02-25T14:27:07Z</time>
      </trkpt>
      <trkpt lat="49.83872" lon="2.23093">
        <ele>41.6</ele>
        <time>2023-02-25T14:27:08Z</time>
      </trkpt>
      <trkpt lat="49.83873" lon="2.23093">
        <ele>41.6</ele>
        <time>2023-02-25T14:27:09Z</time>
      </trkpt>
      <trkpt lat="49.83874" lon="2.23093">
        <ele>41.6</ele>
        <time>2023-02-25T14:27:10Z</time>
      </trkpt>
      <trkpt lat="49.83876" lon="2.23092">
        <ele>41.5</ele>
        <time>2023-02-25T14:27:11Z</time>
      </trkpt>
      <trkpt lat="49.83878" lon="2.23092">
        <ele>41.4</ele>
        <time>2023-02-25T14:27:12Z</time>
      </trkpt>
      <trkpt lat="49.83879" lon="2.23092">
        <ele>41.4</ele>
        <time>2023-02-25T14:27:13Z</time>
      </trkpt>
      <trkpt lat="49.8388" lon="2.23091">
        <ele>41.3</ele>
        <time>2023-02-25T14:27:14Z</time>
      </trkpt>
      <trkpt lat="49.83882" lon="2.23091">
        <ele>41.3</ele>
        <time>2023-02-25T14:27:15Z</time>
      </trkpt>
      <trkpt lat="49.83883" lon="2.2309">
        <ele>41.2</ele>
        <time>2023-02-25T14:27:17Z</time>
      </trkpt>
      <trkpt lat="49.83884" lon="2.2309">
        <ele>41.2</ele>
        <time>2023-02-25T14:27:18Z</time>
      </trkpt>
      <trkpt lat="49.83887" lon="2.23089">
        <ele>41.1</ele>
        <time>2023-02-25T14:27:19Z</time>
      </trkpt>
      <trkpt lat="49.83888" lon="2.23088">
        <ele>41</ele>
        <time>2023-02-25T14:27:20Z</time>
      </trkpt>
      <trkpt lat="49.83888" lon="2.23087">
        <ele>41</ele>
        <time>2023-02-25T14:27:21Z</time>
      </trkpt>
      <trkpt lat="49.83889" lon="2.23087">
        <ele>41</ele>
        <time>2023-02-25T14:27:22Z</time>
      </trkpt>
      <trkpt lat="49.8389" lon="2.23087">
        <ele>40.9</ele>
        <time>2023-02-25T14:27:23Z</time>
      </trkpt>
      <trkpt lat="49.83892" lon="2.23086">
        <ele>40.9</ele>
        <time>2023-02-25T14:27:25Z</time>
      </trkpt>
      <trkpt lat="49.83893" lon="2.23084">
        <ele>40.8</ele>
        <time>2023-02-25T14:27:26Z</time>
      </trkpt>
      <trkpt lat="49.83894" lon="2.23084">
        <ele>40.8</ele>
        <time>2023-02-25T14:27:27Z</time>
      </trkpt>
      <trkpt lat="49.83895" lon="2.23083">
        <ele>40.7</ele>
        <time>2023-02-25T14:27:28Z</time>
      </trkpt>
      <trkpt lat="49.83896" lon="2.23079">
        <ele>40.6</ele>
        <time>2023-02-25T14:27:29Z</time>
      </trkpt>
      <trkpt lat="49.83896" lon="2.23076">
        <ele>40.6</ele>
        <time>2023-02-25T14:27:30Z</time>
      </trkpt>
      <trkpt lat="49.83897" lon="2.23075">
        <ele>40.5</ele>
        <time>2023-02-25T14:27:31Z</time>
      </trkpt>
      <trkpt lat="49.83898" lon="2.23074">
        <ele>40.5</ele>
        <time>2023-02-25T14:27:32Z</time>
      </trkpt>
      <trkpt lat="49.839" lon="2.23071">
        <ele>40.4</ele>
        <time>2023-02-25T14:27:33Z</time>
      </trkpt>
      <trkpt lat="49.839" lon="2.2307">
        <ele>40.3</ele>
        <time>2023-02-25T14:27:35Z</time>
      </trkpt>
      <trkpt lat="49.83901" lon="2.23068">
        <ele>40.3</ele>
        <time>2023-02-25T14:27:36Z</time>
      </trkpt>
      <trkpt lat="49.83901" lon="2.23068">
        <ele>40.3</ele>
        <time>2023-02-25T14:27:37Z</time>
      </trkpt>
      <trkpt lat="49.83901" lon="2.23067">
        <ele>40.3</ele>
        <time>2023-02-25T14:27:38Z</time>
      </trkpt>
      <trkpt lat="49.83902" lon="2.23066">
        <ele>40.2</ele>
        <time>2023-02-25T14:27:39Z</time>
      </trkpt>
      <trkpt lat="49.83903" lon="2.23065">
        <ele>40.2</ele>
        <time>2023-02-25T14:27:40Z</time>
      </trkpt>
      <trkpt lat="49.83904" lon="2.23063">
        <ele>40.1</ele>
        <time>2023-02-25T14:27:41Z</time>
      </trkpt>
      <trkpt lat="49.83906" lon="2.23062">
        <ele>40.1</ele>
        <time>2023-02-25T14:27:43Z</time>
      </trkpt>
      <trkpt lat="49.83907" lon="2.23062">
        <ele>40</ele>
        <time>2023-02-25T14:27:44Z</time>
      </trkpt>
      <trkpt lat="49.83908" lon="2.23061">
        <ele>40</ele>
        <time>2023-02-25T14:27:45Z</time>
      </trkpt>
      <trkpt lat="49.8391" lon="2.2306">
        <ele>39.9</ele>
        <time>2023-02-25T14:27:46Z</time>
      </trkpt>
      <trkpt lat="49.83911" lon="2.23059">
        <ele>39.9</ele>
        <time>2023-02-25T14:27:47Z</time>
      </trkpt>
      <trkpt lat="49.83912" lon="2.23059">
        <ele>39.8</ele>
        <time>2023-02-25T14:27:48Z</time>
      </trkpt>
      <trkpt lat="49.83913" lon="2.23058">
        <ele>39.8</ele>
        <time>2023-02-25T14:27:49Z</time>
      </trkpt>
      <trkpt lat="49.83914" lon="2.23053">
        <ele>39.7</ele>
        <time>2023-02-25T14:27:51Z</time>
      </trkpt>
      <trkpt lat="49.83915" lon="2.23051">
        <ele>39.6</ele>
        <time>2023-02-25T14:27:52Z</time>
      </trkpt>
      <trkpt lat="49.83916" lon="2.2305">
        <ele>39.6</ele>
        <time>2023-02-25T14:27:53Z</time>
      </trkpt>
      <trkpt lat="49.83917" lon="2.23049">
        <ele>39.6</ele>
        <time>2023-02-25T14:27:54Z</time>
      </trkpt>
      <trkpt lat="49.83917" lon="2.23048">
        <ele>39.6</ele>
        <time>2023-02-25T14:27:55Z</time>
      </trkpt>
      <trkpt lat="49.83918" lon="2.23047">
        <ele>39.6</ele>
        <time>2023-02-25T14:27:57Z</time>
      </trkpt>
      <trkpt lat="49.83919" lon="2.23046">
        <ele>39.6</ele>
        <time>2023-02-25T14:27:58Z</time>
      </trkpt>
      <trkpt lat="49.8392" lon="2.23046">
        <ele>39.5</ele>
        <time>2023-02-25T14:27:59Z</time>
      </trkpt>
      <trkpt lat="49.8392" lon="2.23045">
        <ele>39.5</ele>
        <time>2023-02-25T14:28:00Z</time>
      </trkpt>
      <trkpt lat="49.83919" lon="2.23043">
        <ele>39.5</ele>
        <time>2023-02-25T14:28:02Z</time>
      </trkpt>
      <trkpt lat="49.83918" lon="2.23043">
        <ele>39.5</ele>
        <time>2023-02-25T14:28:03Z</time>
      </trkpt>
      <trkpt lat="49.83918" lon="2.23043">
        <ele>39.5</ele>
        <time>2023-02-25T14:28:05Z</time>
      </trkpt>
      <trkpt lat="49.83917" lon="2.23045">
        <ele>39.5</ele>
        <time>2023-02-25T14:28:06Z</time>
      </trkpt>
      <trkpt lat="49.83916" lon="2.23045">
        <ele>39.5</ele>
        <time>2023-02-25T14:28:08Z</time>
      </trkpt>
      <trkpt lat="49.83916" lon="2.23045">
        <ele>39.5</ele>
        <time>2023-02-25T14:28:09Z</time>
      </trkpt>
      <trkpt lat="49.83916" lon="2.23045">
        <ele>39.5</ele>
        <time>2023-02-25T14:28:10Z</time>
      </trkpt>
      <trkpt lat="49.83916" lon="2.23045">
        <ele>39.5</ele>
        <time>2023-02-25T14:28:12Z</time>
      </trkpt>
      <trkpt lat="49.83916" lon="2.23045">
        <ele>39.5</ele>
        <time>2023-02-25T14:28:13Z</time>
      </trkpt>
      <trkpt lat="49.83916" lon="2.23045">
        <ele>39.5</ele>
        <time>2023-02-25T14:28:15Z</time>
      </trkpt>
      <trkpt lat="49.83916" lon="2.23045">
        <ele>39.5</ele>
        <time>2023-02-25T14:28:16Z</time>
      </trkpt>
      <trkpt lat="49.83916" lon="2.23045">
        <ele>39.5</ele>
        <time>2023-02-25T14:28:18Z</time>
      </trkpt>
      <trkpt lat="49.83916" lon="2.23045">
        <ele>39.5</ele>
        <time>2023-02-25T14:28:19Z</time>
      </trkpt>
      <trkpt lat="49.83915" lon="2.23046">
        <ele>39.5</ele>
        <time>2023-02-25T14:28:20Z</time>
      </trkpt>
      <trkpt lat="49.83915" lon="2.23047">
        <ele>39.4</ele>
        <time>2023-02-25T14:28:21Z</time>
      </trkpt>
      <trkpt lat="49.83915" lon="2.23047">
        <ele>39.4</ele>
        <time>2023-02-25T14:28:22Z</time>
      </trkpt>
      <trkpt lat="49.83915" lon="2.23047">
        <ele>39.4</ele>
        <time>2023-02-25T14:28:23Z</time>
      </trkpt>
      <trkpt lat="49.83915" lon="2.23047">
        <ele>39.4</ele>
        <time>2023-02-25T14:28:24Z</time>
      </trkpt>
      <trkpt lat="49.83915" lon="2.23047">
        <ele>39.4</ele>
        <time>2023-02-25T14:28:25Z</time>
      </trkpt>
      <trkpt lat="49.83915" lon="2.23047">
        <ele>39.4</ele>
        <time>2023-02-25T14:28:26Z</time>
      </trkpt>
      <trkpt lat="49.83915" lon="2.23047">
        <ele>39.4</ele>
        <time>2023-02-25T14:28:27Z</time>
      </trkpt>
      <trkpt lat="49.83915" lon="2.23047">
        <ele>39.4</ele>
        <time>2023-02-25T14:28:28Z</time>
      </trkpt>
      <trkpt lat="49.83915" lon="2.23047">
        <ele>39.4</ele>
        <time>2023-02-25T14:28:29Z</time>
      </trkpt>
      <trkpt lat="49.83915" lon="2.23047">
        <ele>39.4</ele>
        <time>2023-02-25T14:28:30Z</time>
      </trkpt>
      <trkpt lat="49.83915" lon="2.23047">
        <ele>39.4</ele>
        <time>2023-02-25T14:28:31Z</time>
      </trkpt>
      <trkpt lat="49.83915" lon="2.23047">
        <ele>39.4</ele>
        <time>2023-02-25T14:28:32Z</time>
      </trkpt>
      <trkpt lat="49.83915" lon="2.23047">
        <ele>39.4</ele>
        <time>2023-02-25T14:28:33Z</time>
      </trkpt>
      <trkpt lat="49.83915" lon="2.23047">
        <ele>39.4</ele>
        <time>2023-02-25T14:28:34Z</time>
      </trkpt>
      <trkpt lat="49.83915" lon="2.23047">
        <ele>39.4</ele>
        <time>2023-02-25T14:28:35Z</time>
      </trkpt>
      <trkpt lat="49.83915" lon="2.23047">
        <ele>39.4</ele>
        <time>2023-02-25T14:28:36Z</time>
      </trkpt>
      <trkpt lat="49.83915" lon="2.23047">
        <ele>39.4</ele>
        <time>2023-02-25T14:28:37Z</time>
      </trkpt>
      <trkpt lat="49.83915" lon="2.23047">
        <ele>39.4</ele>
        <time>2023-02-25T14:28:38Z</time>
      </trkpt>
      <trkpt lat="49.83915" lon="2.23047">
        <ele>39.4</ele>
        <time>2023-02-25T14:28:39Z</time>
      </trkpt>
      <trkpt lat="49.83915" lon="2.23047">
        <ele>39.4</ele>
        <time>2023-02-25T14:28:40Z</time>
      </trkpt>
      <trkpt lat="49.83915" lon="2.23047">
        <ele>39.4</ele>
        <time>2023-02-25T14:28:41Z</time>
      </trkpt>
      <trkpt lat="49.83915" lon="2.23047">
        <ele>39.4</ele>
        <time>2023-02-25T14:28:43Z</time>
      </trkpt>
      <trkpt lat="49.83915" lon="2.23047">
        <ele>39.4</ele>
        <time>2023-02-25T14:28:44Z</time>
      </trkpt>
      <trkpt lat="49.83915" lon="2.23047">
        <ele>39.4</ele>
        <time>2023-02-25T14:28:45Z</time>
      </trkpt>
      <trkpt lat="49.83915" lon="2.23047">
        <ele>39.4</ele>
        <time>2023-02-25T14:28:46Z</time>
      </trkpt>
      <trkpt lat="49.83915" lon="2.23047">
        <ele>39.4</ele>
        <time>2023-02-25T14:28:47Z</time>
      </trkpt>
      <trkpt lat="49.83915" lon="2.23047">
        <ele>39.4</ele>
        <time>2023-02-25T14:28:48Z</time>
      </trkpt>
      <trkpt lat="49.83915" lon="2.23047">
        <ele>39.4</ele>
        <time>2023-02-25T14:28:49Z</time>
      </trkpt>
      <trkpt lat="49.83915" lon="2.23047">
        <ele>39.4</ele>
        <time>2023-02-25T14:28:50Z</time>
      </trkpt>
      <trkpt lat="49.83915" lon="2.23047">
        <ele>39.4</ele>
        <time>2023-02-25T14:28:51Z</time>
      </trkpt>
      <trkpt lat="49.83915" lon="2.23047">
        <ele>39.4</ele>
        <time>2023-02-25T14:28:52Z</time>
      </trkpt>
      <trkpt lat="49.83915" lon="2.23047">
        <ele>39.4</ele>
        <time>2023-02-25T14:28:53Z</time>
      </trkpt>
      <trkpt lat="49.83915" lon="2.23047">
        <ele>39.4</ele>
        <time>2023-02-25T14:28:54Z</time>
      </trkpt>
      <trkpt lat="49.83915" lon="2.23047">
        <ele>39.4</ele>
        <time>2023-02-25T14:28:55Z</time>
      </trkpt>
      <trkpt lat="49.83915" lon="2.23047">
        <ele>39.4</ele>
        <time>2023-02-25T14:28:56Z</time>
      </trkpt>
      <trkpt lat="49.83915" lon="2.23047">
        <ele>39.4</ele>
        <time>2023-02-25T14:28:57Z</time>
      </trkpt>
      <trkpt lat="49.83916" lon="2.23046">
        <ele>39.4</ele>
        <time>2023-02-25T14:28:58Z</time>
      </trkpt>
      <trkpt lat="49.83916" lon="2.23045">
        <ele>39.4</ele>
        <time>2023-02-25T14:28:59Z</time>
      </trkpt>
      <trkpt lat="49.83916" lon="2.23044">
        <ele>39.4</ele>
        <time>2023-02-25T14:29:00Z</time>
      </trkpt>
      <trkpt lat="49.83915" lon="2.23042">
        <ele>39.4</ele>
        <time>2023-02-25T14:29:01Z</time>
      </trkpt>
      <trkpt lat="49.83915" lon="2.2304">
        <ele>39.4</ele>
        <time>2023-02-25T14:29:03Z</time>
      </trkpt>
      <trkpt lat="49.83915" lon="2.23036">
        <ele>39.3</ele>
        <time>2023-02-25T14:29:04Z</time>
      </trkpt>
      <trkpt lat="49.83914" lon="2.23034">
        <ele>39.3</ele>
        <time>2023-02-25T14:29:05Z</time>
      </trkpt>
      <trkpt lat="49.83914" lon="2.23032">
        <ele>39.3</ele>
        <time>2023-02-25T14:29:06Z</time>
      </trkpt>
      <trkpt lat="49.83914" lon="2.2303">
        <ele>39.3</ele>
        <time>2023-02-25T14:29:07Z</time>
      </trkpt>
      <trkpt lat="49.83914" lon="2.23029">
        <ele>39.3</ele>
        <time>2023-02-25T14:29:08Z</time>
      </trkpt>
      <trkpt lat="49.83915" lon="2.23027">
        <ele>39.3</ele>
        <time>2023-02-25T14:29:10Z</time>
      </trkpt>
      <trkpt lat="49.83917" lon="2.23026">
        <ele>39.2</ele>
        <time>2023-02-25T14:29:11Z</time>
      </trkpt>
      <trkpt lat="49.83918" lon="2.23025">
        <ele>39.1</ele>
        <time>2023-02-25T14:29:12Z</time>
      </trkpt>
      <trkpt lat="49.83919" lon="2.23024">
        <ele>39.1</ele>
        <time>2023-02-25T14:29:13Z</time>
      </trkpt>
      <trkpt lat="49.8392" lon="2.23023">
        <ele>39</ele>
        <time>2023-02-25T14:29:14Z</time>
      </trkpt>
      <trkpt lat="49.83923" lon="2.23021">
        <ele>38.8</ele>
        <time>2023-02-25T14:29:16Z</time>
      </trkpt>
      <trkpt lat="49.83925" lon="2.2302">
        <ele>38.8</ele>
        <time>2023-02-25T14:29:17Z</time>
      </trkpt>
      <trkpt lat="49.83925" lon="2.23019">
        <ele>38.7</ele>
        <time>2023-02-25T14:29:18Z</time>
      </trkpt>
      <trkpt lat="49.83926" lon="2.23018">
        <ele>38.7</ele>
        <time>2023-02-25T14:29:19Z</time>
      </trkpt>
      <trkpt lat="49.83926" lon="2.23018">
        <ele>38.6</ele>
        <time>2023-02-25T14:29:20Z</time>
      </trkpt>
      <trkpt lat="49.83929" lon="2.23017">
        <ele>38.5</ele>
        <time>2023-02-25T14:29:21Z</time>
      </trkpt>
      <trkpt lat="49.8393" lon="2.23016">
        <ele>38.5</ele>
        <time>2023-02-25T14:29:22Z</time>
      </trkpt>
      <trkpt lat="49.83931" lon="2.23014">
        <ele>38.3</ele>
        <time>2023-02-25T14:29:24Z</time>
      </trkpt>
      <trkpt lat="49.83931" lon="2.23013">
        <ele>38.2</ele>
        <time>2023-02-25T14:29:25Z</time>
      </trkpt>
      <trkpt lat="49.83932" lon="2.23011">
        <ele>38.2</ele>
        <time>2023-02-25T14:29:26Z</time>
      </trkpt>
      <trkpt lat="49.83933" lon="2.2301">
        <ele>38.1</ele>
        <time>2023-02-25T14:29:28Z</time>
      </trkpt>
      <trkpt lat="49.83934" lon="2.23008">
        <ele>38.1</ele>
        <time>2023-02-25T14:29:30Z</time>
      </trkpt>
      <trkpt lat="49.83935" lon="2.23007">
        <ele>38</ele>
        <time>2023-02-25T14:29:32Z</time>
      </trkpt>
      <trkpt lat="49.83935" lon="2.23006">
        <ele>38</ele>
        <time>2023-02-25T14:29:33Z</time>
      </trkpt>
      <trkpt lat="49.83936" lon="2.23005">
        <ele>38</ele>
        <time>2023-02-25T14:29:34Z</time>
      </trkpt>
      <trkpt lat="49.83936" lon="2.23004">
        <ele>37.9</ele>
        <time>2023-02-25T14:29:35Z</time>
      </trkpt>
      <trkpt lat="49.83937" lon="2.23003">
        <ele>37.9</ele>
        <time>2023-02-25T14:29:37Z</time>
      </trkpt>
      <trkpt lat="49.83938" lon="2.23002">
        <ele>37.9</ele>
        <time>2023-02-25T14:29:39Z</time>
      </trkpt>
      <trkpt lat="49.83938" lon="2.23001">
        <ele>37.8</ele>
        <time>2023-02-25T14:29:40Z</time>
      </trkpt>
      <trkpt lat="49.83937" lon="2.22997">
        <ele>37.8</ele>
        <time>2023-02-25T14:29:41Z</time>
      </trkpt>
      <trkpt lat="49.83937" lon="2.22996">
        <ele>37.7</ele>
        <time>2023-02-25T14:29:42Z</time>
      </trkpt>
      <trkpt lat="49.83937" lon="2.22994">
        <ele>37.7</ele>
        <time>2023-02-25T14:29:43Z</time>
      </trkpt>
      <trkpt lat="49.83937" lon="2.22992">
        <ele>37.7</ele>
        <time>2023-02-25T14:29:44Z</time>
      </trkpt>
      <trkpt lat="49.83936" lon="2.22991">
        <ele>37.6</ele>
        <time>2023-02-25T14:29:46Z</time>
      </trkpt>
      <trkpt lat="49.83936" lon="2.22989">
        <ele>37.6</ele>
        <time>2023-02-25T14:29:47Z</time>
      </trkpt>
      <trkpt lat="49.83935" lon="2.22988">
        <ele>37.6</ele>
        <time>2023-02-25T14:29:48Z</time>
      </trkpt>
      <trkpt lat="49.83935" lon="2.22986">
        <ele>37.5</ele>
        <time>2023-02-25T14:29:49Z</time>
      </trkpt>
      <trkpt lat="49.83935" lon="2.22982">
        <ele>37.5</ele>
        <time>2023-02-25T14:29:50Z</time>
      </trkpt>
      <trkpt lat="49.83934" lon="2.2298">
        <ele>37.5</ele>
        <time>2023-02-25T14:29:51Z</time>
      </trkpt>
      <trkpt lat="49.83935" lon="2.22979">
        <ele>37.4</ele>
        <time>2023-02-25T14:29:52Z</time>
      </trkpt>
      <trkpt lat="49.83935" lon="2.22977">
        <ele>37.4</ele>
        <time>2023-02-25T14:29:54Z</time>
      </trkpt>
      <trkpt lat="49.83935" lon="2.22976">
        <ele>37.4</ele>
        <time>2023-02-25T14:29:55Z</time>
      </trkpt>
      <trkpt lat="49.83936" lon="2.22975">
        <ele>37.4</ele>
        <time>2023-02-25T14:29:56Z</time>
      </trkpt>
      <trkpt lat="49.83936" lon="2.22974">
        <ele>37.4</ele>
        <time>2023-02-25T14:29:57Z</time>
      </trkpt>
      <trkpt lat="49.83936" lon="2.22972">
        <ele>37.4</ele>
        <time>2023-02-25T14:29:58Z</time>
      </trkpt>
      <trkpt lat="49.83936" lon="2.22971">
        <ele>37.3</ele>
        <time>2023-02-25T14:30:00Z</time>
      </trkpt>
      <trkpt lat="49.83936" lon="2.2297">
        <ele>37.3</ele>
        <time>2023-02-25T14:30:01Z</time>
      </trkpt>
      <trkpt lat="49.83937" lon="2.22968">
        <ele>37.3</ele>
        <time>2023-02-25T14:30:02Z</time>
      </trkpt>
      <trkpt lat="49.83938" lon="2.22967">
        <ele>37.3</ele>
        <time>2023-02-25T14:30:03Z</time>
      </trkpt>
      <trkpt lat="49.83938" lon="2.22966">
        <ele>37.3</ele>
        <time>2023-02-25T14:30:04Z</time>
      </trkpt>
      <trkpt lat="49.83939" lon="2.22964">
        <ele>37.3</ele>
        <time>2023-02-25T14:30:05Z</time>
      </trkpt>
      <trkpt lat="49.8394" lon="2.22963">
        <ele>37.3</ele>
        <time>2023-02-25T14:30:07Z</time>
      </trkpt>
      <trkpt lat="49.8394" lon="2.22963">
        <ele>37.3</ele>
        <time>2023-02-25T14:30:08Z</time>
      </trkpt>
      <trkpt lat="49.83941" lon="2.22962">
        <ele>37.3</ele>
        <time>2023-02-25T14:30:09Z</time>
      </trkpt>
      <trkpt lat="49.83942" lon="2.22961">
        <ele>37.3</ele>
        <time>2023-02-25T14:30:10Z</time>
      </trkpt>
      <trkpt lat="49.83944" lon="2.22961">
        <ele>37.3</ele>
        <time>2023-02-25T14:30:12Z</time>
      </trkpt>
      <trkpt lat="49.83945" lon="2.22961">
        <ele>37.3</ele>
        <time>2023-02-25T14:30:13Z</time>
      </trkpt>
      <trkpt lat="49.83945" lon="2.22962">
        <ele>37.2</ele>
        <time>2023-02-25T14:30:14Z</time>
      </trkpt>
      <trkpt lat="49.83946" lon="2.22962">
        <ele>37.2</ele>
        <time>2023-02-25T14:30:15Z</time>
      </trkpt>
      <trkpt lat="49.83945" lon="2.22964">
        <ele>37.2</ele>
        <time>2023-02-25T14:30:16Z</time>
      </trkpt>
      <trkpt lat="49.83945" lon="2.22965">
        <ele>37.2</ele>
        <time>2023-02-25T14:30:17Z</time>
      </trkpt>
      <trkpt lat="49.83946" lon="2.22965">
        <ele>37.2</ele>
        <time>2023-02-25T14:30:19Z</time>
      </trkpt>
      <trkpt lat="49.83947" lon="2.22965">
        <ele>37.2</ele>
        <time>2023-02-25T14:30:21Z</time>
      </trkpt>
      <trkpt lat="49.83946" lon="2.22965">
        <ele>37.2</ele>
        <time>2023-02-25T14:30:23Z</time>
      </trkpt>
      <trkpt lat="49.83946" lon="2.22965">
        <ele>37.2</ele>
        <time>2023-02-25T14:30:24Z</time>
      </trkpt>
      <trkpt lat="49.83946" lon="2.22964">
        <ele>37.2</ele>
        <time>2023-02-25T14:30:25Z</time>
      </trkpt>
      <trkpt lat="49.83946" lon="2.22964">
        <ele>37.2</ele>
        <time>2023-02-25T14:30:26Z</time>
      </trkpt>
      <trkpt lat="49.83946" lon="2.22964">
        <ele>37.2</ele>
        <time>2023-02-25T14:30:27Z</time>
      </trkpt>
      <trkpt lat="49.83946" lon="2.22964">
        <ele>37.2</ele>
        <time>2023-02-25T14:30:28Z</time>
      </trkpt>
      <trkpt lat="49.83946" lon="2.22963">
        <ele>37.2</ele>
        <time>2023-02-25T14:30:29Z</time>
      </trkpt>
      <trkpt lat="49.83947" lon="2.22963">
        <ele>37.2</ele>
        <time>2023-02-25T14:30:30Z</time>
      </trkpt>
      <trkpt lat="49.83947" lon="2.22963">
        <ele>37.2</ele>
        <time>2023-02-25T14:30:32Z</time>
      </trkpt>
      <trkpt lat="49.83947" lon="2.22963">
        <ele>37.2</ele>
        <time>2023-02-25T14:30:33Z</time>
      </trkpt>
      <trkpt lat="49.83948" lon="2.22963">
        <ele>37.2</ele>
        <time>2023-02-25T14:30:34Z</time>
      </trkpt>
      <trkpt lat="49.83949" lon="2.22962">
        <ele>37.2</ele>
        <time>2023-02-25T14:30:35Z</time>
      </trkpt>
      <trkpt lat="49.83949" lon="2.2296">
        <ele>37.2</ele>
        <time>2023-02-25T14:30:36Z</time>
      </trkpt>
      <trkpt lat="49.83949" lon="2.22959">
        <ele>37.2</ele>
        <time>2023-02-25T14:30:37Z</time>
      </trkpt>
      <trkpt lat="49.83949" lon="2.22957">
        <ele>37.2</ele>
        <time>2023-02-25T14:30:38Z</time>
      </trkpt>
      <trkpt lat="49.83949" lon="2.22953">
        <ele>37.2</ele>
        <time>2023-02-25T14:30:40Z</time>
      </trkpt>
      <trkpt lat="49.83949" lon="2.22952">
        <ele>37.2</ele>
        <time>2023-02-25T14:30:41Z</time>
      </trkpt>
      <trkpt lat="49.83949" lon="2.2295">
        <ele>37.2</ele>
        <time>2023-02-25T14:30:42Z</time>
      </trkpt>
      <trkpt lat="49.83949" lon="2.22948">
        <ele>37.2</ele>
        <time>2023-02-25T14:30:43Z</time>
      </trkpt>
      <trkpt lat="49.83949" lon="2.22947">
        <ele>37.2</ele>
        <time>2023-02-25T14:30:44Z</time>
      </trkpt>
      <trkpt lat="49.83949" lon="2.22946">
        <ele>37.2</ele>
        <time>2023-02-25T14:30:46Z</time>
      </trkpt>
      <trkpt lat="49.83948" lon="2.22944">
        <ele>37.2</ele>
        <time>2023-02-25T14:30:47Z</time>
      </trkpt>
      <trkpt lat="49.83947" lon="2.22943">
        <ele>37.2</ele>
        <time>2023-02-25T14:30:49Z</time>
      </trkpt>
      <trkpt lat="49.83946" lon="2.22942">
        <ele>37.2</ele>
        <time>2023-02-25T14:30:50Z</time>
      </trkpt>
      <trkpt lat="49.83943" lon="2.22944">
        <ele>37.2</ele>
        <time>2023-02-25T14:30:53Z</time>
      </trkpt>
      <trkpt lat="49.83942" lon="2.22945">
        <ele>37.2</ele>
        <time>2023-02-25T14:30:55Z</time>
      </trkpt>
      <trkpt lat="49.83942" lon="2.22946">
        <ele>37.2</ele>
        <time>2023-02-25T14:30:56Z</time>
      </trkpt>
      <trkpt lat="49.83943" lon="2.22947">
        <ele>37.2</ele>
        <time>2023-02-25T14:30:57Z</time>
      </trkpt>
      <trkpt lat="49.83944" lon="2.22947">
        <ele>37.2</ele>
        <time>2023-02-25T14:30:59Z</time>
      </trkpt>
      <trkpt lat="49.83944" lon="2.22947">
        <ele>37.2</ele>
        <time>2023-02-25T14:31:01Z</time>
      </trkpt>
      <trkpt lat="49.83946" lon="2.22947">
        <ele>37.2</ele>
        <time>2023-02-25T14:31:03Z</time>
      </trkpt>
      <trkpt lat="49.83946" lon="2.22947">
        <ele>37.2</ele>
        <time>2023-02-25T14:31:05Z</time>
      </trkpt>
      <trkpt lat="49.83947" lon="2.22947">
        <ele>37.2</ele>
        <time>2023-02-25T14:31:06Z</time>
      </trkpt>
      <trkpt lat="49.83947" lon="2.22948">
        <ele>37.2</ele>
        <time>2023-02-25T14:31:08Z</time>
      </trkpt>
      <trkpt lat="49.83948" lon="2.22949">
        <ele>37.2</ele>
        <time>2023-02-25T14:31:09Z</time>
      </trkpt>
      <trkpt lat="49.83948" lon="2.22949">
        <ele>37.2</ele>
        <time>2023-02-25T14:31:10Z</time>
      </trkpt>
      <trkpt lat="49.83944" lon="2.22958">
        <ele>37.2</ele>
        <time>2023-02-25T14:31:13Z</time>
      </trkpt>
      <trkpt lat="49.83944" lon="2.22958">
        <ele>37.2</ele>
        <time>2023-02-25T14:31:14Z</time>
      </trkpt>
      <trkpt lat="49.83944" lon="2.22958">
        <ele>37.2</ele>
        <time>2023-02-25T14:31:16Z</time>
      </trkpt>
      <trkpt lat="49.83943" lon="2.2296">
        <ele>37.2</ele>
        <time>2023-02-25T14:31:17Z</time>
      </trkpt>
      <trkpt lat="49.83943" lon="2.2296">
        <ele>37.2</ele>
        <time>2023-02-25T14:31:18Z</time>
      </trkpt>
      <trkpt lat="49.83944" lon="2.2296">
        <ele>37.2</ele>
        <time>2023-02-25T14:31:19Z</time>
      </trkpt>
      <trkpt lat="49.83945" lon="2.2296">
        <ele>37.2</ele>
        <time>2023-02-25T14:31:20Z</time>
      </trkpt>
      <trkpt lat="49.83944" lon="2.22959">
        <ele>37.2</ele>
        <time>2023-02-25T14:31:21Z</time>
      </trkpt>
      <trkpt lat="49.83944" lon="2.22963">
        <ele>37.2</ele>
        <time>2023-02-25T14:31:22Z</time>
      </trkpt>
      <trkpt lat="49.83945" lon="2.22964">
        <ele>37.2</ele>
        <time>2023-02-25T14:31:24Z</time>
      </trkpt>
      <trkpt lat="49.83945" lon="2.22964">
        <ele>37.2</ele>
        <time>2023-02-25T14:31:25Z</time>
      </trkpt>
      <trkpt lat="49.83944" lon="2.22963">
        <ele>37.1</ele>
        <time>2023-02-25T14:31:27Z</time>
      </trkpt>
      <trkpt lat="49.83945" lon="2.22962">
        <ele>37.1</ele>
        <time>2023-02-25T14:31:28Z</time>
      </trkpt>
      <trkpt lat="49.83946" lon="2.2296">
        <ele>37.1</ele>
        <time>2023-02-25T14:31:29Z</time>
      </trkpt>
      <trkpt lat="49.83946" lon="2.22958">
        <ele>37.1</ele>
        <time>2023-02-25T14:31:30Z</time>
      </trkpt>
      <trkpt lat="49.83946" lon="2.2295">
        <ele>37.1</ele>
        <time>2023-02-25T14:31:32Z</time>
      </trkpt>
      <trkpt lat="49.83945" lon="2.22949">
        <ele>37.1</ele>
        <time>2023-02-25T14:31:33Z</time>
      </trkpt>
      <trkpt lat="49.83945" lon="2.22946">
        <ele>37.1</ele>
        <time>2023-02-25T14:31:34Z</time>
      </trkpt>
      <trkpt lat="49.83943" lon="2.22941">
        <ele>37.1</ele>
        <time>2023-02-25T14:31:35Z</time>
      </trkpt>
      <trkpt lat="49.83943" lon="2.22939">
        <ele>37.1</ele>
        <time>2023-02-25T14:31:36Z</time>
      </trkpt>
      <trkpt lat="49.8394" lon="2.22933">
        <ele>37.1</ele>
        <time>2023-02-25T14:31:37Z</time>
      </trkpt>
      <trkpt lat="49.8394" lon="2.2293">
        <ele>37.1</ele>
        <time>2023-02-25T14:31:38Z</time>
      </trkpt>
      <trkpt lat="49.83939" lon="2.22929">
        <ele>37.1</ele>
        <time>2023-02-25T14:31:40Z</time>
      </trkpt>
      <trkpt lat="49.83939" lon="2.22928">
        <ele>37.1</ele>
        <time>2023-02-25T14:31:41Z</time>
      </trkpt>
      <trkpt lat="49.83938" lon="2.22926">
        <ele>37.1</ele>
        <time>2023-02-25T14:31:42Z</time>
      </trkpt>
      <trkpt lat="49.83939" lon="2.22924">
        <ele>37.1</ele>
        <time>2023-02-25T14:31:43Z</time>
      </trkpt>
      <trkpt lat="49.83939" lon="2.22922">
        <ele>37.1</ele>
        <time>2023-02-25T14:31:44Z</time>
      </trkpt>
      <trkpt lat="49.83939" lon="2.2292">
        <ele>37</ele>
        <time>2023-02-25T14:31:46Z</time>
      </trkpt>
      <trkpt lat="49.8394" lon="2.22919">
        <ele>37</ele>
        <time>2023-02-25T14:31:47Z</time>
      </trkpt>
      <trkpt lat="49.8394" lon="2.22918">
        <ele>37</ele>
        <time>2023-02-25T14:31:48Z</time>
      </trkpt>
      <trkpt lat="49.8394" lon="2.22917">
        <ele>37</ele>
        <time>2023-02-25T14:31:49Z</time>
      </trkpt>
      <trkpt lat="49.8394" lon="2.22915">
        <ele>37</ele>
        <time>2023-02-25T14:31:50Z</time>
      </trkpt>
      <trkpt lat="49.8394" lon="2.22914">
        <ele>37</ele>
        <time>2023-02-25T14:31:51Z</time>
      </trkpt>
      <trkpt lat="49.8394" lon="2.22912">
        <ele>37</ele>
        <time>2023-02-25T14:31:53Z</time>
      </trkpt>
      <trkpt lat="49.8394" lon="2.22912">
        <ele>37</ele>
        <time>2023-02-25T14:31:54Z</time>
      </trkpt>
      <trkpt lat="49.8394" lon="2.22912">
        <ele>37</ele>
        <time>2023-02-25T14:31:55Z</time>
      </trkpt>
      <trkpt lat="49.8394" lon="2.22912">
        <ele>37</ele>
        <time>2023-02-25T14:31:56Z</time>
      </trkpt>
      <trkpt lat="49.83938" lon="2.22912">
        <ele>37</ele>
        <time>2023-02-25T14:31:57Z</time>
      </trkpt>
      <trkpt lat="49.83937" lon="2.22911">
        <ele>37</ele>
        <time>2023-02-25T14:31:59Z</time>
      </trkpt>
      <trkpt lat="49.83937" lon="2.2291">
        <ele>36.9</ele>
        <time>2023-02-25T14:32:00Z</time>
      </trkpt>
      <trkpt lat="49.83937" lon="2.22907">
        <ele>36.9</ele>
        <time>2023-02-25T14:32:01Z</time>
      </trkpt>
      <trkpt lat="49.83937" lon="2.22905">
        <ele>36.9</ele>
        <time>2023-02-25T14:32:02Z</time>
      </trkpt>
      <trkpt lat="49.83937" lon="2.22904">
        <ele>36.9</ele>
        <time>2023-02-25T14:32:03Z</time>
      </trkpt>
      <trkpt lat="49.83939" lon="2.22903">
        <ele>36.9</ele>
        <time>2023-02-25T14:32:05Z</time>
      </trkpt>
      <trkpt lat="49.8394" lon="2.22901">
        <ele>36.9</ele>
        <time>2023-02-25T14:32:07Z</time>
      </trkpt>
      <trkpt lat="49.83939" lon="2.22901">
        <ele>36.9</ele>
        <time>2023-02-25T14:32:08Z</time>
      </trkpt>
      <trkpt lat="49.83938" lon="2.22901">
        <ele>36.9</ele>
        <time>2023-02-25T14:32:09Z</time>
      </trkpt>
      <trkpt lat="49.83937" lon="2.22901">
        <ele>36.8</ele>
        <time>2023-02-25T14:32:10Z</time>
      </trkpt>
      <trkpt lat="49.83937" lon="2.22901">
        <ele>36.8</ele>
        <time>2023-02-25T14:32:12Z</time>
      </trkpt>
      <trkpt lat="49.83936" lon="2.22902">
        <ele>36.8</ele>
        <time>2023-02-25T14:32:13Z</time>
      </trkpt>
      <trkpt lat="49.83935" lon="2.22901">
        <ele>36.8</ele>
        <time>2023-02-25T14:32:14Z</time>
      </trkpt>
      <trkpt lat="49.83935" lon="2.22901">
        <ele>36.8</ele>
        <time>2023-02-25T14:32:17Z</time>
      </trkpt>
      <trkpt lat="49.83936" lon="2.229">
        <ele>36.8</ele>
        <time>2023-02-25T14:32:18Z</time>
      </trkpt>
      <trkpt lat="49.83936" lon="2.229">
        <ele>36.8</ele>
        <time>2023-02-25T14:32:19Z</time>
      </trkpt>
      <trkpt lat="49.83936" lon="2.229">
        <ele>36.8</ele>
        <time>2023-02-25T14:32:21Z</time>
      </trkpt>
      <trkpt lat="49.83936" lon="2.229">
        <ele>36.8</ele>
        <time>2023-02-25T14:32:22Z</time>
      </trkpt>
      <trkpt lat="49.83936" lon="2.229">
        <ele>36.8</ele>
        <time>2023-02-25T14:32:24Z</time>
      </trkpt>
      <trkpt lat="49.83937" lon="2.229">
        <ele>36.8</ele>
        <time>2023-02-25T14:32:25Z</time>
      </trkpt>
      <trkpt lat="49.83937" lon="2.22899">
        <ele>36.8</ele>
        <time>2023-02-25T14:32:26Z</time>
      </trkpt>
      <trkpt lat="49.83937" lon="2.22898">
        <ele>36.8</ele>
        <time>2023-02-25T14:32:27Z</time>
      </trkpt>
      <trkpt lat="49.83937" lon="2.22897">
        <ele>36.8</ele>
        <time>2023-02-25T14:32:28Z</time>
      </trkpt>
      <trkpt lat="49.83937" lon="2.22896">
        <ele>36.8</ele>
        <time>2023-02-25T14:32:30Z</time>
      </trkpt>
      <trkpt lat="49.83937" lon="2.22894">
        <ele>36.8</ele>
        <time>2023-02-25T14:32:31Z</time>
      </trkpt>
      <trkpt lat="49.83937" lon="2.22892">
        <ele>36.8</ele>
        <time>2023-02-25T14:32:33Z</time>
      </trkpt>
      <trkpt lat="49.83936" lon="2.22891">
        <ele>36.8</ele>
        <time>2023-02-25T14:32:34Z</time>
      </trkpt>
      <trkpt lat="49.83936" lon="2.22889">
        <ele>36.8</ele>
        <time>2023-02-25T14:32:35Z</time>
      </trkpt>
      <trkpt lat="49.83937" lon="2.22888">
        <ele>36.7</ele>
        <time>2023-02-25T14:32:36Z</time>
      </trkpt>
      <trkpt lat="49.83938" lon="2.22887">
        <ele>36.7</ele>
        <time>2023-02-25T14:32:37Z</time>
      </trkpt>
      <trkpt lat="49.83939" lon="2.22886">
        <ele>36.7</ele>
        <time>2023-02-25T14:32:38Z</time>
      </trkpt>
      <trkpt lat="49.8394" lon="2.22885">
        <ele>36.7</ele>
        <time>2023-02-25T14:32:39Z</time>
      </trkpt>
      <trkpt lat="49.83941" lon="2.22884">
        <ele>36.7</ele>
        <time>2023-02-25T14:32:41Z</time>
      </trkpt>
      <trkpt lat="49.83942" lon="2.22883">
        <ele>36.7</ele>
        <time>2023-02-25T14:32:42Z</time>
      </trkpt>
      <trkpt lat="49.83942" lon="2.2288">
        <ele>36.7</ele>
        <time>2023-02-25T14:32:43Z</time>
      </trkpt>
      <trkpt lat="49.83943" lon="2.22878">
        <ele>36.7</ele>
        <time>2023-02-25T14:32:44Z</time>
      </trkpt>
      <trkpt lat="49.83944" lon="2.22876">
        <ele>36.7</ele>
        <time>2023-02-25T14:32:45Z</time>
      </trkpt>
      <trkpt lat="49.83944" lon="2.22874">
        <ele>36.7</ele>
        <time>2023-02-25T14:32:46Z</time>
      </trkpt>
      <trkpt lat="49.83944" lon="2.22871">
        <ele>36.6</ele>
        <time>2023-02-25T14:32:47Z</time>
      </trkpt>
      <trkpt lat="49.83944" lon="2.22865">
        <ele>36.6</ele>
        <time>2023-02-25T14:32:49Z</time>
      </trkpt>
      <trkpt lat="49.83944" lon="2.22863">
        <ele>36.6</ele>
        <time>2023-02-25T14:32:50Z</time>
      </trkpt>
      <trkpt lat="49.83944" lon="2.22859">
        <ele>36.5</ele>
        <time>2023-02-25T14:32:51Z</time>
      </trkpt>
      <trkpt lat="49.83944" lon="2.22857">
        <ele>36.5</ele>
        <time>2023-02-25T14:32:52Z</time>
      </trkpt>
      <trkpt lat="49.83943" lon="2.22855">
        <ele>36.5</ele>
        <time>2023-02-25T14:32:53Z</time>
      </trkpt>
      <trkpt lat="49.83943" lon="2.22852">
        <ele>36.5</ele>
        <time>2023-02-25T14:32:54Z</time>
      </trkpt>
      <trkpt lat="49.83944" lon="2.22847">
        <ele>36.5</ele>
        <time>2023-02-25T14:32:55Z</time>
      </trkpt>
      <trkpt lat="49.83944" lon="2.22846">
        <ele>36.5</ele>
        <time>2023-02-25T14:32:56Z</time>
      </trkpt>
      <trkpt lat="49.83943" lon="2.22843">
        <ele>36.4</ele>
        <time>2023-02-25T14:32:57Z</time>
      </trkpt>
      <trkpt lat="49.83943" lon="2.22839">
        <ele>36.4</ele>
        <time>2023-02-25T14:32:59Z</time>
      </trkpt>
      <trkpt lat="49.83944" lon="2.22834">
        <ele>36.4</ele>
        <time>2023-02-25T14:33:00Z</time>
      </trkpt>
      <trkpt lat="49.83944" lon="2.22833">
        <ele>36.4</ele>
        <time>2023-02-25T14:33:01Z</time>
      </trkpt>
      <trkpt lat="49.83944" lon="2.22831">
        <ele>36.4</ele>
        <time>2023-02-25T14:33:02Z</time>
      </trkpt>
      <trkpt lat="49.83944" lon="2.22829">
        <ele>36.4</ele>
        <time>2023-02-25T14:33:03Z</time>
      </trkpt>
      <trkpt lat="49.83943" lon="2.22828">
        <ele>36.4</ele>
        <time>2023-02-25T14:33:05Z</time>
      </trkpt>
      <trkpt lat="49.83942" lon="2.22826">
        <ele>36.4</ele>
        <time>2023-02-25T14:33:06Z</time>
      </trkpt>
      <trkpt lat="49.83942" lon="2.22824">
        <ele>36.4</ele>
        <time>2023-02-25T14:33:07Z</time>
      </trkpt>
      <trkpt lat="49.83942" lon="2.22823">
        <ele>36.4</ele>
        <time>2023-02-25T14:33:08Z</time>
      </trkpt>
      <trkpt lat="49.83943" lon="2.22821">
        <ele>36.4</ele>
        <time>2023-02-25T14:33:09Z</time>
      </trkpt>
      <trkpt lat="49.83943" lon="2.22819">
        <ele>36.4</ele>
        <time>2023-02-25T14:33:10Z</time>
      </trkpt>
      <trkpt lat="49.83943" lon="2.22818">
        <ele>36.4</ele>
        <time>2023-02-25T14:33:11Z</time>
      </trkpt>
      <trkpt lat="49.83943" lon="2.22816">
        <ele>36.4</ele>
        <time>2023-02-25T14:33:12Z</time>
      </trkpt>
      <trkpt lat="49.83943" lon="2.22814">
        <ele>36.4</ele>
        <time>2023-02-25T14:33:13Z</time>
      </trkpt>
      <trkpt lat="49.83943" lon="2.22813">
        <ele>36.4</ele>
        <time>2023-02-25T14:33:15Z</time>
      </trkpt>
      <trkpt lat="49.83942" lon="2.22811">
        <ele>36.4</ele>
        <time>2023-02-25T14:33:16Z</time>
      </trkpt>
      <trkpt lat="49.83942" lon="2.2281">
        <ele>36.4</ele>
        <time>2023-02-25T14:33:17Z</time>
      </trkpt>
      <trkpt lat="49.83942" lon="2.22807">
        <ele>36.4</ele>
        <time>2023-02-25T14:33:18Z</time>
      </trkpt>
      <trkpt lat="49.83941" lon="2.22803">
        <ele>36.4</ele>
        <time>2023-02-25T14:33:19Z</time>
      </trkpt>
      <trkpt lat="49.83941" lon="2.22801">
        <ele>36.3</ele>
        <time>2023-02-25T14:33:20Z</time>
      </trkpt>
      <trkpt lat="49.83941" lon="2.22801">
        <ele>36.3</ele>
        <time>2023-02-25T14:33:21Z</time>
      </trkpt>
      <trkpt lat="49.83941" lon="2.22799">
        <ele>36.3</ele>
        <time>2023-02-25T14:33:22Z</time>
      </trkpt>
      <trkpt lat="49.8394" lon="2.22797">
        <ele>36.3</ele>
        <time>2023-02-25T14:33:23Z</time>
      </trkpt>
      <trkpt lat="49.8394" lon="2.22794">
        <ele>36.3</ele>
        <time>2023-02-25T14:33:24Z</time>
      </trkpt>
      <trkpt lat="49.8394" lon="2.22793">
        <ele>36.3</ele>
        <time>2023-02-25T14:33:26Z</time>
      </trkpt>
      <trkpt lat="49.8394" lon="2.22792">
        <ele>36.3</ele>
        <time>2023-02-25T14:33:27Z</time>
      </trkpt>
      <trkpt lat="49.8394" lon="2.22788">
        <ele>36.3</ele>
        <time>2023-02-25T14:33:28Z</time>
      </trkpt>
      <trkpt lat="49.8394" lon="2.22786">
        <ele>36.3</ele>
        <time>2023-02-25T14:33:29Z</time>
      </trkpt>
      <trkpt lat="49.8394" lon="2.22784">
        <ele>36.3</ele>
        <time>2023-02-25T14:33:30Z</time>
      </trkpt>
      <trkpt lat="49.8394" lon="2.22783">
        <ele>36.3</ele>
        <time>2023-02-25T14:33:32Z</time>
      </trkpt>
      <trkpt lat="49.8394" lon="2.22781">
        <ele>36.3</ele>
        <time>2023-02-25T14:33:33Z</time>
      </trkpt>
      <trkpt lat="49.8394" lon="2.22779">
        <ele>36.3</ele>
        <time>2023-02-25T14:33:34Z</time>
      </trkpt>
      <trkpt lat="49.83941" lon="2.22777">
        <ele>36.3</ele>
        <time>2023-02-25T14:33:35Z</time>
      </trkpt>
      <trkpt lat="49.83941" lon="2.22776">
        <ele>36.3</ele>
        <time>2023-02-25T14:33:36Z</time>
      </trkpt>
      <trkpt lat="49.83941" lon="2.22775">
        <ele>36.3</ele>
        <time>2023-02-25T14:33:37Z</time>
      </trkpt>
      <trkpt lat="49.83941" lon="2.22772">
        <ele>36.3</ele>
        <time>2023-02-25T14:33:38Z</time>
      </trkpt>
      <trkpt lat="49.83941" lon="2.2277">
        <ele>36.3</ele>
        <time>2023-02-25T14:33:39Z</time>
      </trkpt>
      <trkpt lat="49.83941" lon="2.22768">
        <ele>36.3</ele>
        <time>2023-02-25T14:33:40Z</time>
      </trkpt>
      <trkpt lat="49.83942" lon="2.22767">
        <ele>36.3</ele>
        <time>2023-02-25T14:33:42Z</time>
      </trkpt>
      <trkpt lat="49.83942" lon="2.22766">
        <ele>36.3</ele>
        <time>2023-02-25T14:33:43Z</time>
      </trkpt>
      <trkpt lat="49.83942" lon="2.22765">
        <ele>36.3</ele>
        <time>2023-02-25T14:33:44Z</time>
      </trkpt>
      <trkpt lat="49.83943" lon="2.22764">
        <ele>36.3</ele>
        <time>2023-02-25T14:33:45Z</time>
      </trkpt>
      <trkpt lat="49.83943" lon="2.22764">
        <ele>36.3</ele>
        <time>2023-02-25T14:33:46Z</time>
      </trkpt>
      <trkpt lat="49.83944" lon="2.22764">
        <ele>36.3</ele>
        <time>2023-02-25T14:33:47Z</time>
      </trkpt>
      <trkpt lat="49.83944" lon="2.22763">
        <ele>36.3</ele>
        <time>2023-02-25T14:33:48Z</time>
      </trkpt>
      <trkpt lat="49.83944" lon="2.22761">
        <ele>36.3</ele>
        <time>2023-02-25T14:33:49Z</time>
      </trkpt>
      <trkpt lat="49.83945" lon="2.2276">
        <ele>36.3</ele>
        <time>2023-02-25T14:33:50Z</time>
      </trkpt>
      <trkpt lat="49.83945" lon="2.22757">
        <ele>36.3</ele>
        <time>2023-02-25T14:33:51Z</time>
      </trkpt>
      <trkpt lat="49.83945" lon="2.22756">
        <ele>36.3</ele>
        <time>2023-02-25T14:33:53Z</time>
      </trkpt>
      <trkpt lat="49.83946" lon="2.22754">
        <ele>36.3</ele>
        <time>2023-02-25T14:33:54Z</time>
      </trkpt>
      <trkpt lat="49.83946" lon="2.22753">
        <ele>36.3</ele>
        <time>2023-02-25T14:33:55Z</time>
      </trkpt>
      <trkpt lat="49.83946" lon="2.22752">
        <ele>36.3</ele>
        <time>2023-02-25T14:33:56Z</time>
      </trkpt>
      <trkpt lat="49.83947" lon="2.22751">
        <ele>36.3</ele>
        <time>2023-02-25T14:33:58Z</time>
      </trkpt>
      <trkpt lat="49.83947" lon="2.2275">
        <ele>36.3</ele>
        <time>2023-02-25T14:33:59Z</time>
      </trkpt>
      <trkpt lat="49.83948" lon="2.22747">
        <ele>36.3</ele>
        <time>2023-02-25T14:34:00Z</time>
      </trkpt>
      <trkpt lat="49.83949" lon="2.22746">
        <ele>36.3</ele>
        <time>2023-02-25T14:34:01Z</time>
      </trkpt>
      <trkpt lat="49.83949" lon="2.22745">
        <ele>36.3</ele>
        <time>2023-02-25T14:34:02Z</time>
      </trkpt>
      <trkpt lat="49.8395" lon="2.22741">
        <ele>36.3</ele>
        <time>2023-02-25T14:34:03Z</time>
      </trkpt>
      <trkpt lat="49.8395" lon="2.2274">
        <ele>36.3</ele>
        <time>2023-02-25T14:34:04Z</time>
      </trkpt>
      <trkpt lat="49.8395" lon="2.22739">
        <ele>36.3</ele>
        <time>2023-02-25T14:34:05Z</time>
      </trkpt>
      <trkpt lat="49.8395" lon="2.22737">
        <ele>36.3</ele>
        <time>2023-02-25T14:34:07Z</time>
      </trkpt>
      <trkpt lat="49.8395" lon="2.22736">
        <ele>36.3</ele>
        <time>2023-02-25T14:34:08Z</time>
      </trkpt>
      <trkpt lat="49.83951" lon="2.22734">
        <ele>36.2</ele>
        <time>2023-02-25T14:34:09Z</time>
      </trkpt>
      <trkpt lat="49.83952" lon="2.22732">
        <ele>36.2</ele>
        <time>2023-02-25T14:34:10Z</time>
      </trkpt>
      <trkpt lat="49.83952" lon="2.22731">
        <ele>36.2</ele>
        <time>2023-02-25T14:34:11Z</time>
      </trkpt>
      <trkpt lat="49.83952" lon="2.22729">
        <ele>36.2</ele>
        <time>2023-02-25T14:34:12Z</time>
      </trkpt>
      <trkpt lat="49.83953" lon="2.22728">
        <ele>36.2</ele>
        <time>2023-02-25T14:34:13Z</time>
      </trkpt>
      <trkpt lat="49.83953" lon="2.22726">
        <ele>36.2</ele>
        <time>2023-02-25T14:34:15Z</time>
      </trkpt>
      <trkpt lat="49.83953" lon="2.22725">
        <ele>36.2</ele>
        <time>2023-02-25T14:34:16Z</time>
      </trkpt>
      <trkpt lat="49.83954" lon="2.22722">
        <ele>36.2</ele>
        <time>2023-02-25T14:34:17Z</time>
      </trkpt>
      <trkpt lat="49.83954" lon="2.2272">
        <ele>36.2</ele>
        <time>2023-02-25T14:34:18Z</time>
      </trkpt>
      <trkpt lat="49.83954" lon="2.22719">
        <ele>36.2</ele>
        <time>2023-02-25T14:34:19Z</time>
      </trkpt>
      <trkpt lat="49.83954" lon="2.22717">
        <ele>36.2</ele>
        <time>2023-02-25T14:34:20Z</time>
      </trkpt>
      <trkpt lat="49.83954" lon="2.22714">
        <ele>36.2</ele>
        <time>2023-02-25T14:34:21Z</time>
      </trkpt>
      <trkpt lat="49.83954" lon="2.22712">
        <ele>36.2</ele>
        <time>2023-02-25T14:34:22Z</time>
      </trkpt>
      <trkpt lat="49.83954" lon="2.22708">
        <ele>36.2</ele>
        <time>2023-02-25T14:34:24Z</time>
      </trkpt>
      <trkpt lat="49.83954" lon="2.22706">
        <ele>36.2</ele>
        <time>2023-02-25T14:34:25Z</time>
      </trkpt>
      <trkpt lat="49.83955" lon="2.22704">
        <ele>36.2</ele>
        <time>2023-02-25T14:34:26Z</time>
      </trkpt>
      <trkpt lat="49.83955" lon="2.22701">
        <ele>36.2</ele>
        <time>2023-02-25T14:34:27Z</time>
      </trkpt>
      <trkpt lat="49.83956" lon="2.227">
        <ele>36.2</ele>
        <time>2023-02-25T14:34:29Z</time>
      </trkpt>
      <trkpt lat="49.83956" lon="2.22699">
        <ele>36.2</ele>
        <time>2023-02-25T14:34:30Z</time>
      </trkpt>
      <trkpt lat="49.83956" lon="2.22696">
        <ele>36.2</ele>
        <time>2023-02-25T14:34:31Z</time>
      </trkpt>
      <trkpt lat="49.83956" lon="2.22694">
        <ele>36.2</ele>
        <time>2023-02-25T14:34:32Z</time>
      </trkpt>
      <trkpt lat="49.83956" lon="2.22693">
        <ele>36.2</ele>
        <time>2023-02-25T14:34:33Z</time>
      </trkpt>
      <trkpt lat="49.83957" lon="2.22689">
        <ele>36.2</ele>
        <time>2023-02-25T14:34:34Z</time>
      </trkpt>
      <trkpt lat="49.83957" lon="2.22687">
        <ele>36.2</ele>
        <time>2023-02-25T14:34:35Z</time>
      </trkpt>
      <trkpt lat="49.83957" lon="2.22687">
        <ele>36.2</ele>
        <time>2023-02-25T14:34:36Z</time>
      </trkpt>
      <trkpt lat="49.83957" lon="2.22685">
        <ele>36.2</ele>
        <time>2023-02-25T14:34:37Z</time>
      </trkpt>
      <trkpt lat="49.83957" lon="2.22683">
        <ele>36.2</ele>
        <time>2023-02-25T14:34:38Z</time>
      </trkpt>
      <trkpt lat="49.83957" lon="2.2268">
        <ele>36.2</ele>
        <time>2023-02-25T14:34:40Z</time>
      </trkpt>
      <trkpt lat="49.83958" lon="2.22678">
        <ele>36.2</ele>
        <time>2023-02-25T14:34:41Z</time>
      </trkpt>
      <trkpt lat="49.83958" lon="2.22677">
        <ele>36.3</ele>
        <time>2023-02-25T14:34:42Z</time>
      </trkpt>
      <trkpt lat="49.83958" lon="2.22674">
        <ele>36.3</ele>
        <time>2023-02-25T14:34:43Z</time>
      </trkpt>
      <trkpt lat="49.83957" lon="2.22672">
        <ele>36.3</ele>
        <time>2023-02-25T14:34:44Z</time>
      </trkpt>
      <trkpt lat="49.83957" lon="2.22671">
        <ele>36.3</ele>
        <time>2023-02-25T14:34:45Z</time>
      </trkpt>
      <trkpt lat="49.83957" lon="2.22668">
        <ele>36.3</ele>
        <time>2023-02-25T14:34:46Z</time>
      </trkpt>
      <trkpt lat="49.83957" lon="2.22667">
        <ele>36.3</ele>
        <time>2023-02-25T14:34:47Z</time>
      </trkpt>
      <trkpt lat="49.83957" lon="2.22665">
        <ele>36.3</ele>
        <time>2023-02-25T14:34:48Z</time>
      </trkpt>
      <trkpt lat="49.83957" lon="2.22664">
        <ele>36.3</ele>
        <time>2023-02-25T14:34:50Z</time>
      </trkpt>
      <trkpt lat="49.83957" lon="2.22662">
        <ele>36.3</ele>
        <time>2023-02-25T14:34:51Z</time>
      </trkpt>
      <trkpt lat="49.83957" lon="2.2266">
        <ele>36.3</ele>
        <time>2023-02-25T14:34:52Z</time>
      </trkpt>
      <trkpt lat="49.83957" lon="2.22658">
        <ele>36.3</ele>
        <time>2023-02-25T14:34:53Z</time>
      </trkpt>
      <trkpt lat="49.83957" lon="2.22657">
        <ele>36.4</ele>
        <time>2023-02-25T14:34:54Z</time>
      </trkpt>
      <trkpt lat="49.83957" lon="2.22655">
        <ele>36.4</ele>
        <time>2023-02-25T14:34:55Z</time>
      </trkpt>
      <trkpt lat="49.83956" lon="2.22653">
        <ele>36.4</ele>
        <time>2023-02-25T14:34:56Z</time>
      </trkpt>
      <trkpt lat="49.83956" lon="2.22652">
        <ele>36.4</ele>
        <time>2023-02-25T14:34:58Z</time>
      </trkpt>
      <trkpt lat="49.83956" lon="2.2265">
        <ele>36.4</ele>
        <time>2023-02-25T14:34:59Z</time>
      </trkpt>
      <trkpt lat="49.83956" lon="2.22648">
        <ele>36.4</ele>
        <time>2023-02-25T14:35:00Z</time>
      </trkpt>
      <trkpt lat="49.83955" lon="2.22646">
        <ele>36.4</ele>
        <time>2023-02-25T14:35:01Z</time>
      </trkpt>
      <trkpt lat="49.83955" lon="2.22645">
        <ele>36.4</ele>
        <time>2023-02-25T14:35:02Z</time>
      </trkpt>
      <trkpt lat="49.83955" lon="2.22643">
        <ele>36.4</ele>
        <time>2023-02-25T14:35:03Z</time>
      </trkpt>
      <trkpt lat="49.83955" lon="2.22641">
        <ele>36.4</ele>
        <time>2023-02-25T14:35:04Z</time>
      </trkpt>
      <trkpt lat="49.83954" lon="2.22638">
        <ele>36.4</ele>
        <time>2023-02-25T14:35:06Z</time>
      </trkpt>
      <trkpt lat="49.83954" lon="2.22637">
        <ele>36.5</ele>
        <time>2023-02-25T14:35:07Z</time>
      </trkpt>
      <trkpt lat="49.83953" lon="2.22635">
        <ele>36.5</ele>
        <time>2023-02-25T14:35:08Z</time>
      </trkpt>
      <trkpt lat="49.83953" lon="2.22634">
        <ele>36.5</ele>
        <time>2023-02-25T14:35:09Z</time>
      </trkpt>
      <trkpt lat="49.83953" lon="2.22632">
        <ele>36.5</ele>
        <time>2023-02-25T14:35:10Z</time>
      </trkpt>
      <trkpt lat="49.83952" lon="2.22629">
        <ele>36.5</ele>
        <time>2023-02-25T14:35:11Z</time>
      </trkpt>
      <trkpt lat="49.83952" lon="2.22628">
        <ele>36.5</ele>
        <time>2023-02-25T14:35:12Z</time>
      </trkpt>
      <trkpt lat="49.83952" lon="2.22626">
        <ele>36.5</ele>
        <time>2023-02-25T14:35:14Z</time>
      </trkpt>
      <trkpt lat="49.83953" lon="2.22626">
        <ele>36.5</ele>
        <time>2023-02-25T14:35:15Z</time>
      </trkpt>
      <trkpt lat="49.83953" lon="2.22624">
        <ele>36.5</ele>
        <time>2023-02-25T14:35:16Z</time>
      </trkpt>
      <trkpt lat="49.83953" lon="2.22623">
        <ele>36.5</ele>
        <time>2023-02-25T14:35:17Z</time>
      </trkpt>
      <trkpt lat="49.83953" lon="2.22621">
        <ele>36.6</ele>
        <time>2023-02-25T14:35:18Z</time>
      </trkpt>
      <trkpt lat="49.83953" lon="2.2262">
        <ele>36.6</ele>
        <time>2023-02-25T14:35:19Z</time>
      </trkpt>
      <trkpt lat="49.83953" lon="2.22619">
        <ele>36.6</ele>
        <time>2023-02-25T14:35:20Z</time>
      </trkpt>
      <trkpt lat="49.83953" lon="2.22617">
        <ele>36.6</ele>
        <time>2023-02-25T14:35:22Z</time>
      </trkpt>
      <trkpt lat="49.83953" lon="2.22616">
        <ele>36.6</ele>
        <time>2023-02-25T14:35:23Z</time>
      </trkpt>
      <trkpt lat="49.83954" lon="2.22614">
        <ele>36.6</ele>
        <time>2023-02-25T14:35:24Z</time>
      </trkpt>
      <trkpt lat="49.83954" lon="2.22612">
        <ele>36.6</ele>
        <time>2023-02-25T14:35:25Z</time>
      </trkpt>
      <trkpt lat="49.83953" lon="2.2261">
        <ele>36.6</ele>
        <time>2023-02-25T14:35:26Z</time>
      </trkpt>
      <trkpt lat="49.83953" lon="2.22608">
        <ele>36.7</ele>
        <time>2023-02-25T14:35:27Z</time>
      </trkpt>
      <trkpt lat="49.83953" lon="2.22606">
        <ele>36.7</ele>
        <time>2023-02-25T14:35:28Z</time>
      </trkpt>
      <trkpt lat="49.83953" lon="2.22604">
        <ele>36.7</ele>
        <time>2023-02-25T14:35:30Z</time>
      </trkpt>
      <trkpt lat="49.83953" lon="2.22601">
        <ele>36.7</ele>
        <time>2023-02-25T14:35:31Z</time>
      </trkpt>
      <trkpt lat="49.83953" lon="2.226">
        <ele>36.7</ele>
        <time>2023-02-25T14:35:32Z</time>
      </trkpt>
      <trkpt lat="49.83953" lon="2.22598">
        <ele>36.7</ele>
        <time>2023-02-25T14:35:33Z</time>
      </trkpt>
      <trkpt lat="49.83953" lon="2.22597">
        <ele>36.7</ele>
        <time>2023-02-25T14:35:34Z</time>
      </trkpt>
      <trkpt lat="49.83953" lon="2.22595">
        <ele>36.7</ele>
        <time>2023-02-25T14:35:35Z</time>
      </trkpt>
      <trkpt lat="49.83953" lon="2.22593">
        <ele>36.7</ele>
        <time>2023-02-25T14:35:37Z</time>
      </trkpt>
      <trkpt lat="49.83953" lon="2.22592">
        <ele>36.8</ele>
        <time>2023-02-25T14:35:38Z</time>
      </trkpt>
      <trkpt lat="49.83953" lon="2.2259">
        <ele>36.8</ele>
        <time>2023-02-25T14:35:39Z</time>
      </trkpt>
      <trkpt lat="49.83953" lon="2.22588">
        <ele>36.8</ele>
        <time>2023-02-25T14:35:40Z</time>
      </trkpt>
      <trkpt lat="49.83951" lon="2.22584">
        <ele>36.8</ele>
        <time>2023-02-25T14:35:41Z</time>
      </trkpt>
      <trkpt lat="49.83951" lon="2.22583">
        <ele>36.8</ele>
        <time>2023-02-25T14:35:42Z</time>
      </trkpt>
      <trkpt lat="49.83951" lon="2.22581">
        <ele>36.8</ele>
        <time>2023-02-25T14:35:43Z</time>
      </trkpt>
      <trkpt lat="49.8395" lon="2.22579">
        <ele>36.8</ele>
        <time>2023-02-25T14:35:45Z</time>
      </trkpt>
      <trkpt lat="49.8395" lon="2.22577">
        <ele>36.9</ele>
        <time>2023-02-25T14:35:46Z</time>
      </trkpt>
      <trkpt lat="49.8395" lon="2.22575">
        <ele>36.9</ele>
        <time>2023-02-25T14:35:47Z</time>
      </trkpt>
      <trkpt lat="49.83949" lon="2.22571">
        <ele>36.9</ele>
        <time>2023-02-25T14:35:48Z</time>
      </trkpt>
      <trkpt lat="49.83949" lon="2.2257">
        <ele>36.9</ele>
        <time>2023-02-25T14:35:49Z</time>
      </trkpt>
      <trkpt lat="49.83949" lon="2.22569">
        <ele>36.9</ele>
        <time>2023-02-25T14:35:50Z</time>
      </trkpt>
      <trkpt lat="49.83947" lon="2.22565">
        <ele>37</ele>
        <time>2023-02-25T14:35:51Z</time>
      </trkpt>
      <trkpt lat="49.83947" lon="2.22563">
        <ele>37</ele>
        <time>2023-02-25T14:35:53Z</time>
      </trkpt>
      <trkpt lat="49.83947" lon="2.22562">
        <ele>37</ele>
        <time>2023-02-25T14:35:54Z</time>
      </trkpt>
      <trkpt lat="49.83947" lon="2.22561">
        <ele>37</ele>
        <time>2023-02-25T14:35:55Z</time>
      </trkpt>
      <trkpt lat="49.83946" lon="2.22559">
        <ele>37</ele>
        <time>2023-02-25T14:35:56Z</time>
      </trkpt>
      <trkpt lat="49.83946" lon="2.22558">
        <ele>37.1</ele>
        <time>2023-02-25T14:35:57Z</time>
      </trkpt>
      <trkpt lat="49.83945" lon="2.22556">
        <ele>37.1</ele>
        <time>2023-02-25T14:35:58Z</time>
      </trkpt>
      <trkpt lat="49.83945" lon="2.22554">
        <ele>37.1</ele>
        <time>2023-02-25T14:36:00Z</time>
      </trkpt>
      <trkpt lat="49.83945" lon="2.22551">
        <ele>37.1</ele>
        <time>2023-02-25T14:36:01Z</time>
      </trkpt>
      <trkpt lat="49.83944" lon="2.2255">
        <ele>37.1</ele>
        <time>2023-02-25T14:36:02Z</time>
      </trkpt>
      <trkpt lat="49.83944" lon="2.22548">
        <ele>37.1</ele>
        <time>2023-02-25T14:36:03Z</time>
      </trkpt>
      <trkpt lat="49.83944" lon="2.22545">
        <ele>37.2</ele>
        <time>2023-02-25T14:36:04Z</time>
      </trkpt>
      <trkpt lat="49.83944" lon="2.22544">
        <ele>37.2</ele>
        <time>2023-02-25T14:36:05Z</time>
      </trkpt>
      <trkpt lat="49.83944" lon="2.22543">
        <ele>37.2</ele>
        <time>2023-02-25T14:36:06Z</time>
      </trkpt>
      <trkpt lat="49.83945" lon="2.2254">
        <ele>37.2</ele>
        <time>2023-02-25T14:36:08Z</time>
      </trkpt>
      <trkpt lat="49.83947" lon="2.2254">
        <ele>37.3</ele>
        <time>2023-02-25T14:36:09Z</time>
      </trkpt>
      <trkpt lat="49.83948" lon="2.2254">
        <ele>37.3</ele>
        <time>2023-02-25T14:36:10Z</time>
      </trkpt>
      <trkpt lat="49.83951" lon="2.2254">
        <ele>37.3</ele>
        <time>2023-02-25T14:36:11Z</time>
      </trkpt>
      <trkpt lat="49.83952" lon="2.22539">
        <ele>37.3</ele>
        <time>2023-02-25T14:36:12Z</time>
      </trkpt>
      <trkpt lat="49.83952" lon="2.22537">
        <ele>37.4</ele>
        <time>2023-02-25T14:36:13Z</time>
      </trkpt>
      <trkpt lat="49.83952" lon="2.22535">
        <ele>37.4</ele>
        <time>2023-02-25T14:36:14Z</time>
      </trkpt>
      <trkpt lat="49.83952" lon="2.22534">
        <ele>37.4</ele>
        <time>2023-02-25T14:36:15Z</time>
      </trkpt>
      <trkpt lat="49.83952" lon="2.22532">
        <ele>37.4</ele>
        <time>2023-02-25T14:36:17Z</time>
      </trkpt>
      <trkpt lat="49.83952" lon="2.2253">
        <ele>37.4</ele>
        <time>2023-02-25T14:36:18Z</time>
      </trkpt>
      <trkpt lat="49.83953" lon="2.22528">
        <ele>37.5</ele>
        <time>2023-02-25T14:36:19Z</time>
      </trkpt>
      <trkpt lat="49.83953" lon="2.22526">
        <ele>37.5</ele>
        <time>2023-02-25T14:36:20Z</time>
      </trkpt>
      <trkpt lat="49.83951" lon="2.22524">
        <ele>37.5</ele>
        <time>2023-02-25T14:36:21Z</time>
      </trkpt>
      <trkpt lat="49.83951" lon="2.22522">
        <ele>37.5</ele>
        <time>2023-02-25T14:36:22Z</time>
      </trkpt>
      <trkpt lat="49.8395" lon="2.22521">
        <ele>37.5</ele>
        <time>2023-02-25T14:36:24Z</time>
      </trkpt>
      <trkpt lat="49.8395" lon="2.22519">
        <ele>37.6</ele>
        <time>2023-02-25T14:36:25Z</time>
      </trkpt>
      <trkpt lat="49.8395" lon="2.22517">
        <ele>37.6</ele>
        <time>2023-02-25T14:36:26Z</time>
      </trkpt>
      <trkpt lat="49.8395" lon="2.22514">
        <ele>37.6</ele>
        <time>2023-02-25T14:36:27Z</time>
      </trkpt>
      <trkpt lat="49.8395" lon="2.22513">
        <ele>37.6</ele>
        <time>2023-02-25T14:36:29Z</time>
      </trkpt>
      <trkpt lat="49.8395" lon="2.22512">
        <ele>37.6</ele>
        <time>2023-02-25T14:36:30Z</time>
      </trkpt>
      <trkpt lat="49.8395" lon="2.22513">
        <ele>37.7</ele>
        <time>2023-02-25T14:36:32Z</time>
      </trkpt>
      <trkpt lat="49.83951" lon="2.22514">
        <ele>37.7</ele>
        <time>2023-02-25T14:36:34Z</time>
      </trkpt>
      <trkpt lat="49.83951" lon="2.22514">
        <ele>37.7</ele>
        <time>2023-02-25T14:36:35Z</time>
      </trkpt>
      <trkpt lat="49.83951" lon="2.22514">
        <ele>37.7</ele>
        <time>2023-02-25T14:36:37Z</time>
      </trkpt>
      <trkpt lat="49.83951" lon="2.22512">
        <ele>37.7</ele>
        <time>2023-02-25T14:36:39Z</time>
      </trkpt>
      <trkpt lat="49.83951" lon="2.22512">
        <ele>37.7</ele>
        <time>2023-02-25T14:36:40Z</time>
      </trkpt>
      <trkpt lat="49.83951" lon="2.22513">
        <ele>37.7</ele>
        <time>2023-02-25T14:36:42Z</time>
      </trkpt>
      <trkpt lat="49.83952" lon="2.22513">
        <ele>37.7</ele>
        <time>2023-02-25T14:36:45Z</time>
      </trkpt>
      <trkpt lat="49.83952" lon="2.22513">
        <ele>37.7</ele>
        <time>2023-02-25T14:36:46Z</time>
      </trkpt>
      <trkpt lat="49.83952" lon="2.22512">
        <ele>37.7</ele>
        <time>2023-02-25T14:36:47Z</time>
      </trkpt>
      <trkpt lat="49.83952" lon="2.22512">
        <ele>37.7</ele>
        <time>2023-02-25T14:36:48Z</time>
      </trkpt>
      <trkpt lat="49.83951" lon="2.22511">
        <ele>37.7</ele>
        <time>2023-02-25T14:36:49Z</time>
      </trkpt>
      <trkpt lat="49.83951" lon="2.22507">
        <ele>37.8</ele>
        <time>2023-02-25T14:36:51Z</time>
      </trkpt>
      <trkpt lat="49.83951" lon="2.22506">
        <ele>37.8</ele>
        <time>2023-02-25T14:36:52Z</time>
      </trkpt>
      <trkpt lat="49.8395" lon="2.22505">
        <ele>37.8</ele>
        <time>2023-02-25T14:36:54Z</time>
      </trkpt>
      <trkpt lat="49.8395" lon="2.22504">
        <ele>37.8</ele>
        <time>2023-02-25T14:36:55Z</time>
      </trkpt>
      <trkpt lat="49.8395" lon="2.22503">
        <ele>37.8</ele>
        <time>2023-02-25T14:36:56Z</time>
      </trkpt>
      <trkpt lat="49.83949" lon="2.22501">
        <ele>37.9</ele>
        <time>2023-02-25T14:36:57Z</time>
      </trkpt>
      <trkpt lat="49.83949" lon="2.22499">
        <ele>37.9</ele>
        <time>2023-02-25T14:36:58Z</time>
      </trkpt>
      <trkpt lat="49.83949" lon="2.22497">
        <ele>37.9</ele>
        <time>2023-02-25T14:36:59Z</time>
      </trkpt>
      <trkpt lat="49.83949" lon="2.22496">
        <ele>37.9</ele>
        <time>2023-02-25T14:37:00Z</time>
      </trkpt>
      <trkpt lat="49.83949" lon="2.22493">
        <ele>37.9</ele>
        <time>2023-02-25T14:37:02Z</time>
      </trkpt>
      <trkpt lat="49.83949" lon="2.22492">
        <ele>37.9</ele>
        <time>2023-02-25T14:37:03Z</time>
      </trkpt>
      <trkpt lat="49.8395" lon="2.2249">
        <ele>38</ele>
        <time>2023-02-25T14:37:04Z</time>
      </trkpt>
      <trkpt lat="49.8395" lon="2.22488">
        <ele>38</ele>
        <time>2023-02-25T14:37:05Z</time>
      </trkpt>
      <trkpt lat="49.8395" lon="2.22484">
        <ele>38</ele>
        <time>2023-02-25T14:37:06Z</time>
      </trkpt>
      <trkpt lat="49.83949" lon="2.22483">
        <ele>38</ele>
        <time>2023-02-25T14:37:07Z</time>
      </trkpt>
      <trkpt lat="49.8395" lon="2.22482">
        <ele>38</ele>
        <time>2023-02-25T14:37:09Z</time>
      </trkpt>
      <trkpt lat="49.8395" lon="2.2248">
        <ele>38</ele>
        <time>2023-02-25T14:37:10Z</time>
      </trkpt>
      <trkpt lat="49.83951" lon="2.22478">
        <ele>38</ele>
        <time>2023-02-25T14:37:11Z</time>
      </trkpt>
      <trkpt lat="49.83951" lon="2.22474">
        <ele>38.1</ele>
        <time>2023-02-25T14:37:12Z</time>
      </trkpt>
      <trkpt lat="49.8395" lon="2.22473">
        <ele>38.1</ele>
        <time>2023-02-25T14:37:13Z</time>
      </trkpt>
      <trkpt lat="49.83951" lon="2.22471">
        <ele>38.1</ele>
        <time>2023-02-25T14:37:14Z</time>
      </trkpt>
      <trkpt lat="49.83952" lon="2.2247">
        <ele>38.1</ele>
        <time>2023-02-25T14:37:16Z</time>
      </trkpt>
      <trkpt lat="49.8395" lon="2.22468">
        <ele>38.1</ele>
        <time>2023-02-25T14:37:17Z</time>
      </trkpt>
      <trkpt lat="49.83951" lon="2.22467">
        <ele>38.1</ele>
        <time>2023-02-25T14:37:18Z</time>
      </trkpt>
      <trkpt lat="49.83952" lon="2.22465">
        <ele>38.1</ele>
        <time>2023-02-25T14:37:19Z</time>
      </trkpt>
      <trkpt lat="49.83951" lon="2.22463">
        <ele>38.2</ele>
        <time>2023-02-25T14:37:21Z</time>
      </trkpt>
      <trkpt lat="49.83951" lon="2.22464">
        <ele>38.2</ele>
        <time>2023-02-25T14:37:23Z</time>
      </trkpt>
      <trkpt lat="49.83951" lon="2.22464">
        <ele>38.2</ele>
        <time>2023-02-25T14:37:24Z</time>
      </trkpt>
      <trkpt lat="49.83951" lon="2.22464">
        <ele>38.2</ele>
        <time>2023-02-25T14:37:26Z</time>
      </trkpt>
      <trkpt lat="49.83952" lon="2.22465">
        <ele>38.2</ele>
        <time>2023-02-25T14:37:27Z</time>
      </trkpt>
      <trkpt lat="49.83953" lon="2.22465">
        <ele>38.2</ele>
        <time>2023-02-25T14:37:29Z</time>
      </trkpt>
      <trkpt lat="49.83953" lon="2.22465">
        <ele>38.2</ele>
        <time>2023-02-25T14:37:30Z</time>
      </trkpt>
      <trkpt lat="49.83953" lon="2.22465">
        <ele>38.2</ele>
        <time>2023-02-25T14:37:31Z</time>
      </trkpt>
      <trkpt lat="49.83954" lon="2.22465">
        <ele>38.2</ele>
        <time>2023-02-25T14:37:33Z</time>
      </trkpt>
      <trkpt lat="49.83954" lon="2.22465">
        <ele>38.2</ele>
        <time>2023-02-25T14:37:35Z</time>
      </trkpt>
      <trkpt lat="49.83955" lon="2.22464">
        <ele>38.2</ele>
        <time>2023-02-25T14:37:36Z</time>
      </trkpt>
      <trkpt lat="49.83954" lon="2.22463">
        <ele>38.2</ele>
        <time>2023-02-25T14:37:37Z</time>
      </trkpt>
      <trkpt lat="49.83954" lon="2.22462">
        <ele>38.2</ele>
        <time>2023-02-25T14:37:38Z</time>
      </trkpt>
      <trkpt lat="49.83954" lon="2.22461">
        <ele>38.2</ele>
        <time>2023-02-25T14:37:39Z</time>
      </trkpt>
      <trkpt lat="49.83955" lon="2.2246">
        <ele>38.2</ele>
        <time>2023-02-25T14:37:40Z</time>
      </trkpt>
      <trkpt lat="49.83956" lon="2.22457">
        <ele>38.2</ele>
        <time>2023-02-25T14:37:42Z</time>
      </trkpt>
      <trkpt lat="49.83957" lon="2.22456">
        <ele>38.2</ele>
        <time>2023-02-25T14:37:43Z</time>
      </trkpt>
      <trkpt lat="49.83958" lon="2.22454">
        <ele>38.2</ele>
        <time>2023-02-25T14:37:44Z</time>
      </trkpt>
      <trkpt lat="49.83958" lon="2.22453">
        <ele>38.2</ele>
        <time>2023-02-25T14:37:45Z</time>
      </trkpt>
      <trkpt lat="49.83959" lon="2.22451">
        <ele>38.2</ele>
        <time>2023-02-25T14:37:46Z</time>
      </trkpt>
      <trkpt lat="49.83961" lon="2.22449">
        <ele>38.3</ele>
        <time>2023-02-25T14:37:47Z</time>
      </trkpt>
      <trkpt lat="49.83962" lon="2.22448">
        <ele>38.3</ele>
        <time>2023-02-25T14:37:48Z</time>
      </trkpt>
      <trkpt lat="49.83963" lon="2.22448">
        <ele>38.3</ele>
        <time>2023-02-25T14:37:49Z</time>
      </trkpt>
      <trkpt lat="49.83964" lon="2.22447">
        <ele>38.3</ele>
        <time>2023-02-25T14:37:51Z</time>
      </trkpt>
      <trkpt lat="49.83965" lon="2.22446">
        <ele>38.3</ele>
        <time>2023-02-25T14:37:52Z</time>
      </trkpt>
      <trkpt lat="49.83966" lon="2.22444">
        <ele>38.3</ele>
        <time>2023-02-25T14:37:53Z</time>
      </trkpt>
      <trkpt lat="49.83967" lon="2.22442">
        <ele>38.3</ele>
        <time>2023-02-25T14:37:54Z</time>
      </trkpt>
      <trkpt lat="49.83967" lon="2.22441">
        <ele>38.3</ele>
        <time>2023-02-25T14:37:55Z</time>
      </trkpt>
      <trkpt lat="49.83968" lon="2.2244">
        <ele>38.3</ele>
        <time>2023-02-25T14:37:57Z</time>
      </trkpt>
      <trkpt lat="49.83969" lon="2.22438">
        <ele>38.3</ele>
        <time>2023-02-25T14:37:58Z</time>
      </trkpt>
      <trkpt lat="49.83969" lon="2.22436">
        <ele>38.4</ele>
        <time>2023-02-25T14:37:59Z</time>
      </trkpt>
      <trkpt lat="49.83969" lon="2.22435">
        <ele>38.4</ele>
        <time>2023-02-25T14:38:00Z</time>
      </trkpt>
      <trkpt lat="49.83969" lon="2.22433">
        <ele>38.4</ele>
        <time>2023-02-25T14:38:01Z</time>
      </trkpt>
      <trkpt lat="49.8397" lon="2.22432">
        <ele>38.4</ele>
        <time>2023-02-25T14:38:02Z</time>
      </trkpt>
      <trkpt lat="49.8397" lon="2.2243">
        <ele>38.4</ele>
        <time>2023-02-25T14:38:04Z</time>
      </trkpt>
      <trkpt lat="49.8397" lon="2.22429">
        <ele>38.4</ele>
        <time>2023-02-25T14:38:06Z</time>
      </trkpt>
      <trkpt lat="49.8397" lon="2.22426">
        <ele>38.4</ele>
        <time>2023-02-25T14:38:08Z</time>
      </trkpt>
      <trkpt lat="49.8397" lon="2.22425">
        <ele>38.4</ele>
        <time>2023-02-25T14:38:09Z</time>
      </trkpt>
      <trkpt lat="49.83969" lon="2.22424">
        <ele>38.4</ele>
        <time>2023-02-25T14:38:11Z</time>
      </trkpt>
      <trkpt lat="49.83969" lon="2.22424">
        <ele>38.4</ele>
        <time>2023-02-25T14:38:12Z</time>
      </trkpt>
      <trkpt lat="49.83968" lon="2.22424">
        <ele>38.4</ele>
        <time>2023-02-25T14:38:14Z</time>
      </trkpt>
      <trkpt lat="49.83968" lon="2.22424">
        <ele>38.4</ele>
        <time>2023-02-25T14:38:15Z</time>
      </trkpt>
      <trkpt lat="49.83968" lon="2.22423">
        <ele>38.4</ele>
        <time>2023-02-25T14:38:16Z</time>
      </trkpt>
      <trkpt lat="49.83968" lon="2.22423">
        <ele>38.4</ele>
        <time>2023-02-25T14:38:18Z</time>
      </trkpt>
      <trkpt lat="49.83968" lon="2.22422">
        <ele>38.4</ele>
        <time>2023-02-25T14:38:19Z</time>
      </trkpt>
      <trkpt lat="49.83968" lon="2.22422">
        <ele>38.4</ele>
        <time>2023-02-25T14:38:21Z</time>
      </trkpt>
      <trkpt lat="49.83967" lon="2.22422">
        <ele>38.4</ele>
        <time>2023-02-25T14:38:22Z</time>
      </trkpt>
      <trkpt lat="49.83967" lon="2.22422">
        <ele>38.4</ele>
        <time>2023-02-25T14:38:24Z</time>
      </trkpt>
      <trkpt lat="49.83968" lon="2.22422">
        <ele>38.4</ele>
        <time>2023-02-25T14:38:25Z</time>
      </trkpt>
      <trkpt lat="49.83968" lon="2.22422">
        <ele>38.4</ele>
        <time>2023-02-25T14:38:26Z</time>
      </trkpt>
      <trkpt lat="49.83968" lon="2.22423">
        <ele>38.4</ele>
        <time>2023-02-25T14:38:27Z</time>
      </trkpt>
      <trkpt lat="49.83968" lon="2.22423">
        <ele>38.4</ele>
        <time>2023-02-25T14:38:28Z</time>
      </trkpt>
      <trkpt lat="49.83968" lon="2.22423">
        <ele>38.4</ele>
        <time>2023-02-25T14:38:29Z</time>
      </trkpt>
      <trkpt lat="49.83968" lon="2.22423">
        <ele>38.4</ele>
        <time>2023-02-25T14:38:30Z</time>
      </trkpt>
      <trkpt lat="49.83968" lon="2.22423">
        <ele>38.4</ele>
        <time>2023-02-25T14:38:31Z</time>
      </trkpt>
      <trkpt lat="49.83968" lon="2.22423">
        <ele>38.4</ele>
        <time>2023-02-25T14:38:32Z</time>
      </trkpt>
      <trkpt lat="49.83968" lon="2.22423">
        <ele>38.4</ele>
        <time>2023-02-25T14:38:33Z</time>
      </trkpt>
      <trkpt lat="49.83968" lon="2.22423">
        <ele>38.4</ele>
        <time>2023-02-25T14:38:34Z</time>
      </trkpt>
      <trkpt lat="49.83968" lon="2.22423">
        <ele>38.4</ele>
        <time>2023-02-25T14:38:35Z</time>
      </trkpt>
      <trkpt lat="49.83968" lon="2.22423">
        <ele>38.4</ele>
        <time>2023-02-25T14:38:36Z</time>
      </trkpt>
      <trkpt lat="49.83968" lon="2.22422">
        <ele>38.4</ele>
        <time>2023-02-25T14:38:37Z</time>
      </trkpt>
      <trkpt lat="49.83968" lon="2.2242">
        <ele>38.4</ele>
        <time>2023-02-25T14:38:38Z</time>
      </trkpt>
      <trkpt lat="49.83969" lon="2.22418">
        <ele>38.5</ele>
        <time>2023-02-25T14:38:39Z</time>
      </trkpt>
      <trkpt lat="49.8397" lon="2.22417">
        <ele>38.5</ele>
        <time>2023-02-25T14:38:40Z</time>
      </trkpt>
      <trkpt lat="49.83971" lon="2.22416">
        <ele>38.5</ele>
        <time>2023-02-25T14:38:42Z</time>
      </trkpt>
      <trkpt lat="49.83972" lon="2.22415">
        <ele>38.5</ele>
        <time>2023-02-25T14:38:43Z</time>
      </trkpt>
      <trkpt lat="49.83973" lon="2.22414">
        <ele>38.5</ele>
        <time>2023-02-25T14:38:44Z</time>
      </trkpt>
      <trkpt lat="49.83973" lon="2.22413">
        <ele>38.5</ele>
        <time>2023-02-25T14:38:45Z</time>
      </trkpt>
      <trkpt lat="49.83975" lon="2.22412">
        <ele>38.5</ele>
        <time>2023-02-25T14:38:46Z</time>
      </trkpt>
      <trkpt lat="49.83976" lon="2.22412">
        <ele>38.5</ele>
        <time>2023-02-25T14:38:48Z</time>
      </trkpt>
      <trkpt lat="49.83977" lon="2.22412">
        <ele>38.5</ele>
        <time>2023-02-25T14:38:49Z</time>
      </trkpt>
      <trkpt lat="49.83978" lon="2.22413">
        <ele>38.5</ele>
        <time>2023-02-25T14:38:50Z</time>
      </trkpt>
      <trkpt lat="49.83979" lon="2.22412">
        <ele>38.5</ele>
        <time>2023-02-25T14:38:51Z</time>
      </trkpt>
      <trkpt lat="49.8398" lon="2.22412">
        <ele>38.5</ele>
        <time>2023-02-25T14:38:52Z</time>
      </trkpt>
      <trkpt lat="49.83981" lon="2.22411">
        <ele>38.5</ele>
        <time>2023-02-25T14:38:54Z</time>
      </trkpt>
      <trkpt lat="49.83982" lon="2.22411">
        <ele>38.5</ele>
        <time>2023-02-25T14:38:56Z</time>
      </trkpt>
      <trkpt lat="49.83984" lon="2.22411">
        <ele>38.5</ele>
        <time>2023-02-25T14:38:57Z</time>
      </trkpt>
      <trkpt lat="49.83985" lon="2.22411">
        <ele>38.5</ele>
        <time>2023-02-25T14:38:58Z</time>
      </trkpt>
      <trkpt lat="49.83985" lon="2.22411">
        <ele>38.5</ele>
        <time>2023-02-25T14:38:59Z</time>
      </trkpt>
      <trkpt lat="49.83986" lon="2.22411">
        <ele>38.5</ele>
        <time>2023-02-25T14:39:00Z</time>
      </trkpt>
      <trkpt lat="49.83987" lon="2.2241">
        <ele>38.5</ele>
        <time>2023-02-25T14:39:01Z</time>
      </trkpt>
      <trkpt lat="49.83988" lon="2.2241">
        <ele>38.5</ele>
        <time>2023-02-25T14:39:02Z</time>
      </trkpt>
      <trkpt lat="49.83989" lon="2.22411">
        <ele>38.5</ele>
        <time>2023-02-25T14:39:04Z</time>
      </trkpt>
      <trkpt lat="49.8399" lon="2.22412">
        <ele>38.5</ele>
        <time>2023-02-25T14:39:05Z</time>
      </trkpt>
      <trkpt lat="49.83992" lon="2.22413">
        <ele>38.5</ele>
        <time>2023-02-25T14:39:06Z</time>
      </trkpt>
      <trkpt lat="49.83993" lon="2.22414">
        <ele>38.5</ele>
        <time>2023-02-25T14:39:07Z</time>
      </trkpt>
      <trkpt lat="49.83994" lon="2.22414">
        <ele>38.4</ele>
        <time>2023-02-25T14:39:09Z</time>
      </trkpt>
      <trkpt lat="49.83995" lon="2.22414">
        <ele>38.4</ele>
        <time>2023-02-25T14:39:10Z</time>
      </trkpt>
      <trkpt lat="49.83996" lon="2.22415">
        <ele>38.4</ele>
        <time>2023-02-25T14:39:11Z</time>
      </trkpt>
      <trkpt lat="49.83997" lon="2.22415">
        <ele>38.4</ele>
        <time>2023-02-25T14:39:12Z</time>
      </trkpt>
      <trkpt lat="49.83997" lon="2.22416">
        <ele>38.4</ele>
        <time>2023-02-25T14:39:13Z</time>
      </trkpt>
      <trkpt lat="49.83998" lon="2.22417">
        <ele>38.4</ele>
        <time>2023-02-25T14:39:14Z</time>
      </trkpt>
      <trkpt lat="49.83999" lon="2.22419">
        <ele>38.4</ele>
        <time>2023-02-25T14:39:16Z</time>
      </trkpt>
      <trkpt lat="49.84" lon="2.2242">
        <ele>38.4</ele>
        <time>2023-02-25T14:39:17Z</time>
      </trkpt>
      <trkpt lat="49.84001" lon="2.22422">
        <ele>38.4</ele>
        <time>2023-02-25T14:39:18Z</time>
      </trkpt>
      <trkpt lat="49.84002" lon="2.22423">
        <ele>38.4</ele>
        <time>2023-02-25T14:39:19Z</time>
      </trkpt>
      <trkpt lat="49.84003" lon="2.22423">
        <ele>38.4</ele>
        <time>2023-02-25T14:39:20Z</time>
      </trkpt>
      <trkpt lat="49.84006" lon="2.22425">
        <ele>38.4</ele>
        <time>2023-02-25T14:39:22Z</time>
      </trkpt>
      <trkpt lat="49.84006" lon="2.22426">
        <ele>38.3</ele>
        <time>2023-02-25T14:39:24Z</time>
      </trkpt>
      <trkpt lat="49.84007" lon="2.22427">
        <ele>38.3</ele>
        <time>2023-02-25T14:39:25Z</time>
      </trkpt>
      <trkpt lat="49.84007" lon="2.22429">
        <ele>38.3</ele>
        <time>2023-02-25T14:39:26Z</time>
      </trkpt>
      <trkpt lat="49.84008" lon="2.22431">
        <ele>38.3</ele>
        <time>2023-02-25T14:39:27Z</time>
      </trkpt>
      <trkpt lat="49.84009" lon="2.22431">
        <ele>38.3</ele>
        <time>2023-02-25T14:39:29Z</time>
      </trkpt>
      <trkpt lat="49.8401" lon="2.22432">
        <ele>38.3</ele>
        <time>2023-02-25T14:39:30Z</time>
      </trkpt>
      <trkpt lat="49.8401" lon="2.22432">
        <ele>38.3</ele>
        <time>2023-02-25T14:39:31Z</time>
      </trkpt>
      <trkpt lat="49.84011" lon="2.22432">
        <ele>38.3</ele>
        <time>2023-02-25T14:39:33Z</time>
      </trkpt>
      <trkpt lat="49.84012" lon="2.22432">
        <ele>38.3</ele>
        <time>2023-02-25T14:39:34Z</time>
      </trkpt>
      <trkpt lat="49.84012" lon="2.22432">
        <ele>38.3</ele>
        <time>2023-02-25T14:39:35Z</time>
      </trkpt>
      <trkpt lat="49.84012" lon="2.22432">
        <ele>38.3</ele>
        <time>2023-02-25T14:39:36Z</time>
      </trkpt>
      <trkpt lat="49.84012" lon="2.22433">
        <ele>38.3</ele>
        <time>2023-02-25T14:39:38Z</time>
      </trkpt>
      <trkpt lat="49.84012" lon="2.22433">
        <ele>38.3</ele>
        <time>2023-02-25T14:39:40Z</time>
      </trkpt>
      <trkpt lat="49.84013" lon="2.22433">
        <ele>38.3</ele>
        <time>2023-02-25T14:39:41Z</time>
      </trkpt>
      <trkpt lat="49.84013" lon="2.22434">
        <ele>38.3</ele>
        <time>2023-02-25T14:39:43Z</time>
      </trkpt>
      <trkpt lat="49.84013" lon="2.22434">
        <ele>38.3</ele>
        <time>2023-02-25T14:39:44Z</time>
      </trkpt>
      <trkpt lat="49.84013" lon="2.22434">
        <ele>38.3</ele>
        <time>2023-02-25T14:39:45Z</time>
      </trkpt>
      <trkpt lat="49.84012" lon="2.22433">
        <ele>38.3</ele>
        <time>2023-02-25T14:39:47Z</time>
      </trkpt>
      <trkpt lat="49.84012" lon="2.22433">
        <ele>38.3</ele>
        <time>2023-02-25T14:39:48Z</time>
      </trkpt>
      <trkpt lat="49.84012" lon="2.22432">
        <ele>38.3</ele>
        <time>2023-02-25T14:39:50Z</time>
      </trkpt>
      <trkpt lat="49.84012" lon="2.22432">
        <ele>38.3</ele>
        <time>2023-02-25T14:39:51Z</time>
      </trkpt>
      <trkpt lat="49.84012" lon="2.22432">
        <ele>38.3</ele>
        <time>2023-02-25T14:39:52Z</time>
      </trkpt>
      <trkpt lat="49.84012" lon="2.22432">
        <ele>38.3</ele>
        <time>2023-02-25T14:39:54Z</time>
      </trkpt>
      <trkpt lat="49.84012" lon="2.22432">
        <ele>38.3</ele>
        <time>2023-02-25T14:39:55Z</time>
      </trkpt>
      <trkpt lat="49.84011" lon="2.22432">
        <ele>38.3</ele>
        <time>2023-02-25T14:39:57Z</time>
      </trkpt>
      <trkpt lat="49.84011" lon="2.22433">
        <ele>38.3</ele>
        <time>2023-02-25T14:39:58Z</time>
      </trkpt>
      <trkpt lat="49.84011" lon="2.22433">
        <ele>38.3</ele>
        <time>2023-02-25T14:39:59Z</time>
      </trkpt>
      <trkpt lat="49.84011" lon="2.22433">
        <ele>38.3</ele>
        <time>2023-02-25T14:40:00Z</time>
      </trkpt>
      <trkpt lat="49.84011" lon="2.22433">
        <ele>38.3</ele>
        <time>2023-02-25T14:40:01Z</time>
      </trkpt>
      <trkpt lat="49.84011" lon="2.22433">
        <ele>38.3</ele>
        <time>2023-02-25T14:40:02Z</time>
      </trkpt>
      <trkpt lat="49.84011" lon="2.22433">
        <ele>38.3</ele>
        <time>2023-02-25T14:40:03Z</time>
      </trkpt>
      <trkpt lat="49.84011" lon="2.22433">
        <ele>38.3</ele>
        <time>2023-02-25T14:40:04Z</time>
      </trkpt>
      <trkpt lat="49.84011" lon="2.22433">
        <ele>38.3</ele>
        <time>2023-02-25T14:40:05Z</time>
      </trkpt>
      <trkpt lat="49.8401" lon="2.22432">
        <ele>38.3</ele>
        <time>2023-02-25T14:40:06Z</time>
      </trkpt>
      <trkpt lat="49.84012" lon="2.22432">
        <ele>38.2</ele>
        <time>2023-02-25T14:40:07Z</time>
      </trkpt>
      <trkpt lat="49.84013" lon="2.22433">
        <ele>38.2</ele>
        <time>2023-02-25T14:40:08Z</time>
      </trkpt>
      <trkpt lat="49.84014" lon="2.22434">
        <ele>38.2</ele>
        <time>2023-02-25T14:40:09Z</time>
      </trkpt>
      <trkpt lat="49.84014" lon="2.22434">
        <ele>38.2</ele>
        <time>2023-02-25T14:40:11Z</time>
      </trkpt>
      <trkpt lat="49.84015" lon="2.22435">
        <ele>38.2</ele>
        <time>2023-02-25T14:40:12Z</time>
      </trkpt>
      <trkpt lat="49.84016" lon="2.22435">
        <ele>38.2</ele>
        <time>2023-02-25T14:40:13Z</time>
      </trkpt>
      <trkpt lat="49.84017" lon="2.22436">
        <ele>38.2</ele>
        <time>2023-02-25T14:40:14Z</time>
      </trkpt>
      <trkpt lat="49.84019" lon="2.22437">
        <ele>38.2</ele>
        <time>2023-02-25T14:40:15Z</time>
      </trkpt>
      <trkpt lat="49.8402" lon="2.22437">
        <ele>38.2</ele>
        <time>2023-02-25T14:40:16Z</time>
      </trkpt>
      <trkpt lat="49.8402" lon="2.22437">
        <ele>38.2</ele>
        <time>2023-02-25T14:40:17Z</time>
      </trkpt>
      <trkpt lat="49.84021" lon="2.22438">
        <ele>38.2</ele>
        <time>2023-02-25T14:40:18Z</time>
      </trkpt>
      <trkpt lat="49.84022" lon="2.22438">
        <ele>38.1</ele>
        <time>2023-02-25T14:40:20Z</time>
      </trkpt>
      <trkpt lat="49.84023" lon="2.22439">
        <ele>38.1</ele>
        <time>2023-02-25T14:40:21Z</time>
      </trkpt>
      <trkpt lat="49.84025" lon="2.2244">
        <ele>38.1</ele>
        <time>2023-02-25T14:40:22Z</time>
      </trkpt>
      <trkpt lat="49.84026" lon="2.22441">
        <ele>38.1</ele>
        <time>2023-02-25T14:40:23Z</time>
      </trkpt>
      <trkpt lat="49.84026" lon="2.22442">
        <ele>38.1</ele>
        <time>2023-02-25T14:40:24Z</time>
      </trkpt>
      <trkpt lat="49.84027" lon="2.22442">
        <ele>38.1</ele>
        <time>2023-02-25T14:40:25Z</time>
      </trkpt>
      <trkpt lat="49.84028" lon="2.22443">
        <ele>38.1</ele>
        <time>2023-02-25T14:40:26Z</time>
      </trkpt>
      <trkpt lat="49.84029" lon="2.22444">
        <ele>38.1</ele>
        <time>2023-02-25T14:40:28Z</time>
      </trkpt>
      <trkpt lat="49.8403" lon="2.22444">
        <ele>38</ele>
        <time>2023-02-25T14:40:29Z</time>
      </trkpt>
      <trkpt lat="49.84031" lon="2.22445">
        <ele>38</ele>
        <time>2023-02-25T14:40:30Z</time>
      </trkpt>
      <trkpt lat="49.84032" lon="2.22446">
        <ele>38</ele>
        <time>2023-02-25T14:40:31Z</time>
      </trkpt>
      <trkpt lat="49.84034" lon="2.22447">
        <ele>38</ele>
        <time>2023-02-25T14:40:32Z</time>
      </trkpt>
      <trkpt lat="49.84035" lon="2.22448">
        <ele>38</ele>
        <time>2023-02-25T14:40:33Z</time>
      </trkpt>
      <trkpt lat="49.84037" lon="2.22449">
        <ele>38</ele>
        <time>2023-02-25T14:40:34Z</time>
      </trkpt>
      <trkpt lat="49.84038" lon="2.22449">
        <ele>38</ele>
        <time>2023-02-25T14:40:35Z</time>
      </trkpt>
      <trkpt lat="49.84039" lon="2.2245">
        <ele>37.9</ele>
        <time>2023-02-25T14:40:37Z</time>
      </trkpt>
      <trkpt lat="49.8404" lon="2.2245">
        <ele>37.9</ele>
        <time>2023-02-25T14:40:38Z</time>
      </trkpt>
      <trkpt lat="49.84041" lon="2.22451">
        <ele>37.9</ele>
        <time>2023-02-25T14:40:39Z</time>
      </trkpt>
      <trkpt lat="49.84041" lon="2.22451">
        <ele>37.9</ele>
        <time>2023-02-25T14:40:40Z</time>
      </trkpt>
      <trkpt lat="49.84043" lon="2.22452">
        <ele>37.9</ele>
        <time>2023-02-25T14:40:41Z</time>
      </trkpt>
      <trkpt lat="49.84044" lon="2.22453">
        <ele>37.9</ele>
        <time>2023-02-25T14:40:42Z</time>
      </trkpt>
      <trkpt lat="49.84045" lon="2.22453">
        <ele>37.9</ele>
        <time>2023-02-25T14:40:43Z</time>
      </trkpt>
      <trkpt lat="49.84047" lon="2.22454">
        <ele>37.9</ele>
        <time>2023-02-25T14:40:45Z</time>
      </trkpt>
      <trkpt lat="49.84048" lon="2.22454">
        <ele>37.8</ele>
        <time>2023-02-25T14:40:46Z</time>
      </trkpt>
      <trkpt lat="49.84049" lon="2.22455">
        <ele>37.8</ele>
        <time>2023-02-25T14:40:47Z</time>
      </trkpt>
      <trkpt lat="49.8405" lon="2.22455">
        <ele>37.8</ele>
        <time>2023-02-25T14:40:48Z</time>
      </trkpt>
      <trkpt lat="49.84052" lon="2.22455">
        <ele>37.8</ele>
        <time>2023-02-25T14:40:49Z</time>
      </trkpt>
      <trkpt lat="49.84053" lon="2.22455">
        <ele>37.8</ele>
        <time>2023-02-25T14:40:50Z</time>
      </trkpt>
      <trkpt lat="49.84054" lon="2.22455">
        <ele>37.8</ele>
        <time>2023-02-25T14:40:51Z</time>
      </trkpt>
      <trkpt lat="49.84056" lon="2.22456">
        <ele>37.8</ele>
        <time>2023-02-25T14:40:53Z</time>
      </trkpt>
      <trkpt lat="49.84057" lon="2.22456">
        <ele>37.8</ele>
        <time>2023-02-25T14:40:54Z</time>
      </trkpt>
      <trkpt lat="49.84059" lon="2.22456">
        <ele>37.7</ele>
        <time>2023-02-25T14:40:55Z</time>
      </trkpt>
      <trkpt lat="49.8406" lon="2.22457">
        <ele>37.7</ele>
        <time>2023-02-25T14:40:56Z</time>
      </trkpt>
      <trkpt lat="49.84061" lon="2.22457">
        <ele>37.7</ele>
        <time>2023-02-25T14:40:57Z</time>
      </trkpt>
      <trkpt lat="49.84062" lon="2.22457">
        <ele>37.7</ele>
        <time>2023-02-25T14:40:58Z</time>
      </trkpt>
      <trkpt lat="49.84063" lon="2.22458">
        <ele>37.7</ele>
        <time>2023-02-25T14:40:59Z</time>
      </trkpt>
      <trkpt lat="49.84065" lon="2.22458">
        <ele>37.7</ele>
        <time>2023-02-25T14:41:01Z</time>
      </trkpt>
      <trkpt lat="49.84066" lon="2.22459">
        <ele>37.7</ele>
        <time>2023-02-25T14:41:02Z</time>
      </trkpt>
      <trkpt lat="49.84068" lon="2.22459">
        <ele>37.6</ele>
        <time>2023-02-25T14:41:03Z</time>
      </trkpt>
      <trkpt lat="49.84069" lon="2.2246">
        <ele>37.6</ele>
        <time>2023-02-25T14:41:04Z</time>
      </trkpt>
      <trkpt lat="49.8407" lon="2.22461">
        <ele>37.6</ele>
        <time>2023-02-25T14:41:05Z</time>
      </trkpt>
      <trkpt lat="49.84071" lon="2.22462">
        <ele>37.6</ele>
        <time>2023-02-25T14:41:06Z</time>
      </trkpt>
      <trkpt lat="49.84073" lon="2.22464">
        <ele>37.6</ele>
        <time>2023-02-25T14:41:07Z</time>
      </trkpt>
      <trkpt lat="49.84074" lon="2.22464">
        <ele>37.6</ele>
        <time>2023-02-25T14:41:08Z</time>
      </trkpt>
      <trkpt lat="49.84074" lon="2.22464">
        <ele>37.6</ele>
        <time>2023-02-25T14:41:09Z</time>
      </trkpt>
      <trkpt lat="49.84077" lon="2.22464">
        <ele>37.5</ele>
        <time>2023-02-25T14:41:11Z</time>
      </trkpt>
      <trkpt lat="49.84078" lon="2.22464">
        <ele>37.5</ele>
        <time>2023-02-25T14:41:12Z</time>
      </trkpt>
      <trkpt lat="49.84079" lon="2.22464">
        <ele>37.5</ele>
        <time>2023-02-25T14:41:13Z</time>
      </trkpt>
      <trkpt lat="49.84081" lon="2.22464">
        <ele>37.5</ele>
        <time>2023-02-25T14:41:14Z</time>
      </trkpt>
      <trkpt lat="49.84082" lon="2.22464">
        <ele>37.5</ele>
        <time>2023-02-25T14:41:15Z</time>
      </trkpt>
      <trkpt lat="49.84083" lon="2.22465">
        <ele>37.5</ele>
        <time>2023-02-25T14:41:17Z</time>
      </trkpt>
      <trkpt lat="49.84084" lon="2.22465">
        <ele>37.5</ele>
        <time>2023-02-25T14:41:18Z</time>
      </trkpt>
      <trkpt lat="49.84085" lon="2.22465">
        <ele>37.4</ele>
        <time>2023-02-25T14:41:19Z</time>
      </trkpt>
      <trkpt lat="49.84086" lon="2.22466">
        <ele>37.4</ele>
        <time>2023-02-25T14:41:20Z</time>
      </trkpt>
      <trkpt lat="49.84087" lon="2.22466">
        <ele>37.4</ele>
        <time>2023-02-25T14:41:22Z</time>
      </trkpt>
      <trkpt lat="49.84089" lon="2.22466">
        <ele>37.4</ele>
        <time>2023-02-25T14:41:23Z</time>
      </trkpt>
      <trkpt lat="49.8409" lon="2.22466">
        <ele>37.4</ele>
        <time>2023-02-25T14:41:24Z</time>
      </trkpt>
      <trkpt lat="49.84091" lon="2.22466">
        <ele>37.4</ele>
        <time>2023-02-25T14:41:25Z</time>
      </trkpt>
      <trkpt lat="49.84092" lon="2.22467">
        <ele>37.4</ele>
        <time>2023-02-25T14:41:26Z</time>
      </trkpt>
      <trkpt lat="49.84093" lon="2.22468">
        <ele>37.4</ele>
        <time>2023-02-25T14:41:28Z</time>
      </trkpt>
      <trkpt lat="49.84094" lon="2.22468">
        <ele>37.4</ele>
        <time>2023-02-25T14:41:29Z</time>
      </trkpt>
      <trkpt lat="49.84095" lon="2.22469">
        <ele>37.3</ele>
        <time>2023-02-25T14:41:30Z</time>
      </trkpt>
      <trkpt lat="49.84097" lon="2.2247">
        <ele>37.3</ele>
        <time>2023-02-25T14:41:31Z</time>
      </trkpt>
      <trkpt lat="49.84097" lon="2.22471">
        <ele>37.3</ele>
        <time>2023-02-25T14:41:32Z</time>
      </trkpt>
      <trkpt lat="49.84098" lon="2.22471">
        <ele>37.3</ele>
        <time>2023-02-25T14:41:33Z</time>
      </trkpt>
      <trkpt lat="49.84099" lon="2.22471">
        <ele>37.3</ele>
        <time>2023-02-25T14:41:35Z</time>
      </trkpt>
      <trkpt lat="49.841" lon="2.22472">
        <ele>37.3</ele>
        <time>2023-02-25T14:41:36Z</time>
      </trkpt>
      <trkpt lat="49.841" lon="2.22472">
        <ele>37.3</ele>
        <time>2023-02-25T14:41:37Z</time>
      </trkpt>
      <trkpt lat="49.84102" lon="2.22473">
        <ele>37.3</ele>
        <time>2023-02-25T14:41:38Z</time>
      </trkpt>
      <trkpt lat="49.84103" lon="2.22473">
        <ele>37.3</ele>
        <time>2023-02-25T14:41:39Z</time>
      </trkpt>
      <trkpt lat="49.84104" lon="2.22474">
        <ele>37.3</ele>
        <time>2023-02-25T14:41:40Z</time>
      </trkpt>
      <trkpt lat="49.84104" lon="2.22474">
        <ele>37.3</ele>
        <time>2023-02-25T14:41:42Z</time>
      </trkpt>
      <trkpt lat="49.84105" lon="2.22474">
        <ele>37.3</ele>
        <time>2023-02-25T14:41:43Z</time>
      </trkpt>
      <trkpt lat="49.84106" lon="2.22475">
        <ele>37.3</ele>
        <time>2023-02-25T14:41:44Z</time>
      </trkpt>
      <trkpt lat="49.84106" lon="2.22475">
        <ele>37.2</ele>
        <time>2023-02-25T14:41:45Z</time>
      </trkpt>
      <trkpt lat="49.84107" lon="2.22476">
        <ele>37.2</ele>
        <time>2023-02-25T14:41:46Z</time>
      </trkpt>
      <trkpt lat="49.84108" lon="2.22477">
        <ele>37.2</ele>
        <time>2023-02-25T14:41:47Z</time>
      </trkpt>
      <trkpt lat="49.84109" lon="2.22477">
        <ele>37.2</ele>
        <time>2023-02-25T14:41:49Z</time>
      </trkpt>
      <trkpt lat="49.8411" lon="2.22478">
        <ele>37.2</ele>
        <time>2023-02-25T14:41:50Z</time>
      </trkpt>
      <trkpt lat="49.84111" lon="2.22478">
        <ele>37.2</ele>
        <time>2023-02-25T14:41:51Z</time>
      </trkpt>
      <trkpt lat="49.84111" lon="2.22478">
        <ele>37.2</ele>
        <time>2023-02-25T14:41:52Z</time>
      </trkpt>
      <trkpt lat="49.84113" lon="2.22479">
        <ele>37.2</ele>
        <time>2023-02-25T14:41:53Z</time>
      </trkpt>
      <trkpt lat="49.84113" lon="2.22479">
        <ele>37.2</ele>
        <time>2023-02-25T14:41:54Z</time>
      </trkpt>
      <trkpt lat="49.84114" lon="2.22479">
        <ele>37.2</ele>
        <time>2023-02-25T14:41:55Z</time>
      </trkpt>
      <trkpt lat="49.84115" lon="2.2248">
        <ele>37.2</ele>
        <time>2023-02-25T14:41:56Z</time>
      </trkpt>
      <trkpt lat="49.84117" lon="2.2248">
        <ele>37.2</ele>
        <time>2023-02-25T14:41:58Z</time>
      </trkpt>
      <trkpt lat="49.84118" lon="2.2248">
        <ele>37.2</ele>
        <time>2023-02-25T14:41:59Z</time>
      </trkpt>
      <trkpt lat="49.84119" lon="2.22481">
        <ele>37.1</ele>
        <time>2023-02-25T14:42:00Z</time>
      </trkpt>
      <trkpt lat="49.8412" lon="2.22481">
        <ele>37.1</ele>
        <time>2023-02-25T14:42:01Z</time>
      </trkpt>
      <trkpt lat="49.84121" lon="2.22481">
        <ele>37.1</ele>
        <time>2023-02-25T14:42:02Z</time>
      </trkpt>
      <trkpt lat="49.84123" lon="2.22481">
        <ele>37.1</ele>
        <time>2023-02-25T14:42:03Z</time>
      </trkpt>
      <trkpt lat="49.84123" lon="2.22481">
        <ele>37.1</ele>
        <time>2023-02-25T14:42:04Z</time>
      </trkpt>
      <trkpt lat="49.84124" lon="2.22482">
        <ele>37.1</ele>
        <time>2023-02-25T14:42:05Z</time>
      </trkpt>
      <trkpt lat="49.84127" lon="2.22482">
        <ele>37.1</ele>
        <time>2023-02-25T14:42:06Z</time>
      </trkpt>
      <trkpt lat="49.84128" lon="2.22483">
        <ele>37.1</ele>
        <time>2023-02-25T14:42:08Z</time>
      </trkpt>
      <trkpt lat="49.84129" lon="2.22483">
        <ele>37.1</ele>
        <time>2023-02-25T14:42:09Z</time>
      </trkpt>
      <trkpt lat="49.8413" lon="2.22484">
        <ele>37.1</ele>
        <time>2023-02-25T14:42:10Z</time>
      </trkpt>
      <trkpt lat="49.84131" lon="2.22484">
        <ele>37.1</ele>
        <time>2023-02-25T14:42:11Z</time>
      </trkpt>
      <trkpt lat="49.84132" lon="2.22485">
        <ele>37.1</ele>
        <time>2023-02-25T14:42:12Z</time>
      </trkpt>
      <trkpt lat="49.84134" lon="2.22486">
        <ele>37</ele>
        <time>2023-02-25T14:42:13Z</time>
      </trkpt>
      <trkpt lat="49.84135" lon="2.22486">
        <ele>37</ele>
        <time>2023-02-25T14:42:15Z</time>
      </trkpt>
      <trkpt lat="49.84136" lon="2.22487">
        <ele>37</ele>
        <time>2023-02-25T14:42:16Z</time>
      </trkpt>
      <trkpt lat="49.84137" lon="2.22486">
        <ele>37</ele>
        <time>2023-02-25T14:42:17Z</time>
      </trkpt>
      <trkpt lat="49.84139" lon="2.22487">
        <ele>37</ele>
        <time>2023-02-25T14:42:18Z</time>
      </trkpt>
      <trkpt lat="49.8414" lon="2.22487">
        <ele>37</ele>
        <time>2023-02-25T14:42:19Z</time>
      </trkpt>
      <trkpt lat="49.8414" lon="2.22488">
        <ele>37</ele>
        <time>2023-02-25T14:42:20Z</time>
      </trkpt>
      <trkpt lat="49.84141" lon="2.22488">
        <ele>37</ele>
        <time>2023-02-25T14:42:21Z</time>
      </trkpt>
      <trkpt lat="49.84142" lon="2.22489">
        <ele>37</ele>
        <time>2023-02-25T14:42:23Z</time>
      </trkpt>
      <trkpt lat="49.84144" lon="2.22489">
        <ele>37</ele>
        <time>2023-02-25T14:42:24Z</time>
      </trkpt>
      <trkpt lat="49.84144" lon="2.2249">
        <ele>37</ele>
        <time>2023-02-25T14:42:25Z</time>
      </trkpt>
      <trkpt lat="49.84146" lon="2.2249">
        <ele>37</ele>
        <time>2023-02-25T14:42:26Z</time>
      </trkpt>
      <trkpt lat="49.84147" lon="2.2249">
        <ele>37</ele>
        <time>2023-02-25T14:42:27Z</time>
      </trkpt>
      <trkpt lat="49.84148" lon="2.22491">
        <ele>36.9</ele>
        <time>2023-02-25T14:42:28Z</time>
      </trkpt>
      <trkpt lat="49.84149" lon="2.22491">
        <ele>36.9</ele>
        <time>2023-02-25T14:42:29Z</time>
      </trkpt>
      <trkpt lat="49.8415" lon="2.22491">
        <ele>36.9</ele>
        <time>2023-02-25T14:42:30Z</time>
      </trkpt>
      <trkpt lat="49.84151" lon="2.22491">
        <ele>36.9</ele>
        <time>2023-02-25T14:42:32Z</time>
      </trkpt>
      <trkpt lat="49.84153" lon="2.22492">
        <ele>36.9</ele>
        <time>2023-02-25T14:42:33Z</time>
      </trkpt>
      <trkpt lat="49.84155" lon="2.22492">
        <ele>36.9</ele>
        <time>2023-02-25T14:42:34Z</time>
      </trkpt>
      <trkpt lat="49.84156" lon="2.22492">
        <ele>36.9</ele>
        <time>2023-02-25T14:42:35Z</time>
      </trkpt>
      <trkpt lat="49.84157" lon="2.22493">
        <ele>36.9</ele>
        <time>2023-02-25T14:42:37Z</time>
      </trkpt>
      <trkpt lat="49.84158" lon="2.22493">
        <ele>36.9</ele>
        <time>2023-02-25T14:42:38Z</time>
      </trkpt>
      <trkpt lat="49.84159" lon="2.22493">
        <ele>36.9</ele>
        <time>2023-02-25T14:42:39Z</time>
      </trkpt>
      <trkpt lat="49.8416" lon="2.22493">
        <ele>36.8</ele>
        <time>2023-02-25T14:42:40Z</time>
      </trkpt>
      <trkpt lat="49.84162" lon="2.22494">
        <ele>36.8</ele>
        <time>2023-02-25T14:42:41Z</time>
      </trkpt>
      <trkpt lat="49.84163" lon="2.22494">
        <ele>36.8</ele>
        <time>2023-02-25T14:42:42Z</time>
      </trkpt>
      <trkpt lat="49.84164" lon="2.22494">
        <ele>36.8</ele>
        <time>2023-02-25T14:42:43Z</time>
      </trkpt>
      <trkpt lat="49.84165" lon="2.22495">
        <ele>36.8</ele>
        <time>2023-02-25T14:42:44Z</time>
      </trkpt>
      <trkpt lat="49.84166" lon="2.22495">
        <ele>36.8</ele>
        <time>2023-02-25T14:42:45Z</time>
      </trkpt>
      <trkpt lat="49.84167" lon="2.22495">
        <ele>36.8</ele>
        <time>2023-02-25T14:42:47Z</time>
      </trkpt>
      <trkpt lat="49.84167" lon="2.22495">
        <ele>36.8</ele>
        <time>2023-02-25T14:42:48Z</time>
      </trkpt>
      <trkpt lat="49.84169" lon="2.22496">
        <ele>36.7</ele>
        <time>2023-02-25T14:42:49Z</time>
      </trkpt>
      <trkpt lat="49.8417" lon="2.22497">
        <ele>36.7</ele>
        <time>2023-02-25T14:42:50Z</time>
      </trkpt>
      <trkpt lat="49.84172" lon="2.22498">
        <ele>36.7</ele>
        <time>2023-02-25T14:42:51Z</time>
      </trkpt>
      <trkpt lat="49.84173" lon="2.22498">
        <ele>36.7</ele>
        <time>2023-02-25T14:42:52Z</time>
      </trkpt>
      <trkpt lat="49.84173" lon="2.22499">
        <ele>36.7</ele>
        <time>2023-02-25T14:42:53Z</time>
      </trkpt>
      <trkpt lat="49.84174" lon="2.22499">
        <ele>36.7</ele>
        <time>2023-02-25T14:42:54Z</time>
      </trkpt>
      <trkpt lat="49.84175" lon="2.225">
        <ele>36.7</ele>
        <time>2023-02-25T14:42:56Z</time>
      </trkpt>
      <trkpt lat="49.84176" lon="2.225">
        <ele>36.7</ele>
        <time>2023-02-25T14:42:57Z</time>
      </trkpt>
      <trkpt lat="49.84178" lon="2.22501">
        <ele>36.7</ele>
        <time>2023-02-25T14:42:58Z</time>
      </trkpt>
      <trkpt lat="49.84179" lon="2.22501">
        <ele>36.6</ele>
        <time>2023-02-25T14:42:59Z</time>
      </trkpt>
      <trkpt lat="49.8418" lon="2.22502">
        <ele>36.6</ele>
        <time>2023-02-25T14:43:00Z</time>
      </trkpt>
      <trkpt lat="49.8418" lon="2.22502">
        <ele>36.6</ele>
        <time>2023-02-25T14:43:01Z</time>
      </trkpt>
      <trkpt lat="49.84181" lon="2.22503">
        <ele>36.6</ele>
        <time>2023-02-25T14:43:02Z</time>
      </trkpt>
      <trkpt lat="49.84183" lon="2.22503">
        <ele>36.6</ele>
        <time>2023-02-25T14:43:03Z</time>
      </trkpt>
      <trkpt lat="49.84183" lon="2.22503">
        <ele>36.6</ele>
        <time>2023-02-25T14:43:05Z</time>
      </trkpt>
      <trkpt lat="49.84184" lon="2.22503">
        <ele>36.6</ele>
        <time>2023-02-25T14:43:06Z</time>
      </trkpt>
      <trkpt lat="49.84186" lon="2.22504">
        <ele>36.6</ele>
        <time>2023-02-25T14:43:07Z</time>
      </trkpt>
      <trkpt lat="49.84187" lon="2.22504">
        <ele>36.6</ele>
        <time>2023-02-25T14:43:08Z</time>
      </trkpt>
      <trkpt lat="49.84188" lon="2.22504">
        <ele>36.6</ele>
        <time>2023-02-25T14:43:09Z</time>
      </trkpt>
      <trkpt lat="49.84189" lon="2.22505">
        <ele>36.6</ele>
        <time>2023-02-25T14:43:10Z</time>
      </trkpt>
      <trkpt lat="49.8419" lon="2.22506">
        <ele>36.6</ele>
        <time>2023-02-25T14:43:11Z</time>
      </trkpt>
      <trkpt lat="49.84191" lon="2.22507">
        <ele>36.6</ele>
        <time>2023-02-25T14:43:12Z</time>
      </trkpt>
      <trkpt lat="49.84192" lon="2.22508">
        <ele>36.6</ele>
        <time>2023-02-25T14:43:13Z</time>
      </trkpt>
      <trkpt lat="49.84193" lon="2.22508">
        <ele>36.5</ele>
        <time>2023-02-25T14:43:15Z</time>
      </trkpt>
      <trkpt lat="49.84194" lon="2.22508">
        <ele>36.5</ele>
        <time>2023-02-25T14:43:16Z</time>
      </trkpt>
      <trkpt lat="49.84195" lon="2.22508">
        <ele>36.5</ele>
        <time>2023-02-25T14:43:17Z</time>
      </trkpt>
      <trkpt lat="49.84197" lon="2.22508">
        <ele>36.5</ele>
        <time>2023-02-25T14:43:18Z</time>
      </trkpt>
      <trkpt lat="49.84197" lon="2.22508">
        <ele>36.5</ele>
        <time>2023-02-25T14:43:20Z</time>
      </trkpt>
      <trkpt lat="49.84198" lon="2.22508">
        <ele>36.5</ele>
        <time>2023-02-25T14:43:21Z</time>
      </trkpt>
      <trkpt lat="49.84199" lon="2.22507">
        <ele>36.5</ele>
        <time>2023-02-25T14:43:22Z</time>
      </trkpt>
      <trkpt lat="49.842" lon="2.22507">
        <ele>36.5</ele>
        <time>2023-02-25T14:43:23Z</time>
      </trkpt>
      <trkpt lat="49.84202" lon="2.22507">
        <ele>36.5</ele>
        <time>2023-02-25T14:43:24Z</time>
      </trkpt>
      <trkpt lat="49.84203" lon="2.22506">
        <ele>36.5</ele>
        <time>2023-02-25T14:43:25Z</time>
      </trkpt>
      <trkpt lat="49.84204" lon="2.22506">
        <ele>36.5</ele>
        <time>2023-02-25T14:43:26Z</time>
      </trkpt>
      <trkpt lat="49.84205" lon="2.22506">
        <ele>36.5</ele>
        <time>2023-02-25T14:43:27Z</time>
      </trkpt>
      <trkpt lat="49.84206" lon="2.22506">
        <ele>36.4</ele>
        <time>2023-02-25T14:43:29Z</time>
      </trkpt>
      <trkpt lat="49.84207" lon="2.22506">
        <ele>36.4</ele>
        <time>2023-02-25T14:43:30Z</time>
      </trkpt>
      <trkpt lat="49.84208" lon="2.22506">
        <ele>36.4</ele>
        <time>2023-02-25T14:43:31Z</time>
      </trkpt>
      <trkpt lat="49.84208" lon="2.22506">
        <ele>36.4</ele>
        <time>2023-02-25T14:43:32Z</time>
      </trkpt>
      <trkpt lat="49.84209" lon="2.22506">
        <ele>36.4</ele>
        <time>2023-02-25T14:43:33Z</time>
      </trkpt>
      <trkpt lat="49.84211" lon="2.22506">
        <ele>36.4</ele>
        <time>2023-02-25T14:43:34Z</time>
      </trkpt>
      <trkpt lat="49.84212" lon="2.22506">
        <ele>36.4</ele>
        <time>2023-02-25T14:43:35Z</time>
      </trkpt>
      <trkpt lat="49.84214" lon="2.22506">
        <ele>36.4</ele>
        <time>2023-02-25T14:43:36Z</time>
      </trkpt>
      <trkpt lat="49.84214" lon="2.22507">
        <ele>36.4</ele>
        <time>2023-02-25T14:43:37Z</time>
      </trkpt>
      <trkpt lat="49.84215" lon="2.22507">
        <ele>36.4</ele>
        <time>2023-02-25T14:43:38Z</time>
      </trkpt>
      <trkpt lat="49.84216" lon="2.22507">
        <ele>36.3</ele>
        <time>2023-02-25T14:43:40Z</time>
      </trkpt>
      <trkpt lat="49.84216" lon="2.22507">
        <ele>36.3</ele>
        <time>2023-02-25T14:43:41Z</time>
      </trkpt>
      <trkpt lat="49.84217" lon="2.22507">
        <ele>36.3</ele>
        <time>2023-02-25T14:43:42Z</time>
      </trkpt>
      <trkpt lat="49.84218" lon="2.22507">
        <ele>36.3</ele>
        <time>2023-02-25T14:43:43Z</time>
      </trkpt>
      <trkpt lat="49.8422" lon="2.22507">
        <ele>36.3</ele>
        <time>2023-02-25T14:43:44Z</time>
      </trkpt>
      <trkpt lat="49.84221" lon="2.22507">
        <ele>36.3</ele>
        <time>2023-02-25T14:43:45Z</time>
      </trkpt>
      <trkpt lat="49.84222" lon="2.22508">
        <ele>36.3</ele>
        <time>2023-02-25T14:43:46Z</time>
      </trkpt>
      <trkpt lat="49.84223" lon="2.22508">
        <ele>36.3</ele>
        <time>2023-02-25T14:43:47Z</time>
      </trkpt>
      <trkpt lat="49.84225" lon="2.22509">
        <ele>36.2</ele>
        <time>2023-02-25T14:43:49Z</time>
      </trkpt>
      <trkpt lat="49.84226" lon="2.2251">
        <ele>36.2</ele>
        <time>2023-02-25T14:43:50Z</time>
      </trkpt>
      <trkpt lat="49.84227" lon="2.2251">
        <ele>36.2</ele>
        <time>2023-02-25T14:43:51Z</time>
      </trkpt>
      <trkpt lat="49.84228" lon="2.22511">
        <ele>36.2</ele>
        <time>2023-02-25T14:43:52Z</time>
      </trkpt>
      <trkpt lat="49.84229" lon="2.22511">
        <ele>36.2</ele>
        <time>2023-02-25T14:43:53Z</time>
      </trkpt>
      <trkpt lat="49.84231" lon="2.22511">
        <ele>36.2</ele>
        <time>2023-02-25T14:43:54Z</time>
      </trkpt>
      <trkpt lat="49.84233" lon="2.22512">
        <ele>36.2</ele>
        <time>2023-02-25T14:43:55Z</time>
      </trkpt>
      <trkpt lat="49.84233" lon="2.22513">
        <ele>36.2</ele>
        <time>2023-02-25T14:43:56Z</time>
      </trkpt>
      <trkpt lat="49.84234" lon="2.22513">
        <ele>36.2</ele>
        <time>2023-02-25T14:43:57Z</time>
      </trkpt>
      <trkpt lat="49.84236" lon="2.22514">
        <ele>36.1</ele>
        <time>2023-02-25T14:43:58Z</time>
      </trkpt>
      <trkpt lat="49.84237" lon="2.22514">
        <ele>36.1</ele>
        <time>2023-02-25T14:44:00Z</time>
      </trkpt>
      <trkpt lat="49.84239" lon="2.22514">
        <ele>36.1</ele>
        <time>2023-02-25T14:44:01Z</time>
      </trkpt>
      <trkpt lat="49.8424" lon="2.22515">
        <ele>36.1</ele>
        <time>2023-02-25T14:44:02Z</time>
      </trkpt>
      <trkpt lat="49.84243" lon="2.22516">
        <ele>36.1</ele>
        <time>2023-02-25T14:44:03Z</time>
      </trkpt>
      <trkpt lat="49.84244" lon="2.22516">
        <ele>36.1</ele>
        <time>2023-02-25T14:44:04Z</time>
      </trkpt>
      <trkpt lat="49.84247" lon="2.22517">
        <ele>36.1</ele>
        <time>2023-02-25T14:44:05Z</time>
      </trkpt>
      <trkpt lat="49.84248" lon="2.22517">
        <ele>36.1</ele>
        <time>2023-02-25T14:44:07Z</time>
      </trkpt>
      <trkpt lat="49.84249" lon="2.22518">
        <ele>36.1</ele>
        <time>2023-02-25T14:44:08Z</time>
      </trkpt>
      <trkpt lat="49.8425" lon="2.22518">
        <ele>36.1</ele>
        <time>2023-02-25T14:44:09Z</time>
      </trkpt>
      <trkpt lat="49.84252" lon="2.22519">
        <ele>36.1</ele>
        <time>2023-02-25T14:44:10Z</time>
      </trkpt>
      <trkpt lat="49.84254" lon="2.2252">
        <ele>36.1</ele>
        <time>2023-02-25T14:44:12Z</time>
      </trkpt>
      <trkpt lat="49.84255" lon="2.2252">
        <ele>36</ele>
        <time>2023-02-25T14:44:13Z</time>
      </trkpt>
      <trkpt lat="49.84256" lon="2.22521">
        <ele>36</ele>
        <time>2023-02-25T14:44:15Z</time>
      </trkpt>
      <trkpt lat="49.84257" lon="2.22522">
        <ele>36</ele>
        <time>2023-02-25T14:44:16Z</time>
      </trkpt>
      <trkpt lat="49.84258" lon="2.22523">
        <ele>36</ele>
        <time>2023-02-25T14:44:17Z</time>
      </trkpt>
      <trkpt lat="49.84259" lon="2.22523">
        <ele>36</ele>
        <time>2023-02-25T14:44:18Z</time>
      </trkpt>
      <trkpt lat="49.84261" lon="2.22524">
        <ele>36</ele>
        <time>2023-02-25T14:44:20Z</time>
      </trkpt>
      <trkpt lat="49.84262" lon="2.22524">
        <ele>36</ele>
        <time>2023-02-25T14:44:21Z</time>
      </trkpt>
      <trkpt lat="49.84262" lon="2.22525">
        <ele>36</ele>
        <time>2023-02-25T14:44:22Z</time>
      </trkpt>
      <trkpt lat="49.84263" lon="2.22525">
        <ele>36</ele>
        <time>2023-02-25T14:44:23Z</time>
      </trkpt>
      <trkpt lat="49.84265" lon="2.22526">
        <ele>36</ele>
        <time>2023-02-25T14:44:24Z</time>
      </trkpt>
      <trkpt lat="49.84265" lon="2.22526">
        <ele>36</ele>
        <time>2023-02-25T14:44:26Z</time>
      </trkpt>
      <trkpt lat="49.84266" lon="2.22527">
        <ele>36</ele>
        <time>2023-02-25T14:44:27Z</time>
      </trkpt>
      <trkpt lat="49.84267" lon="2.22528">
        <ele>36</ele>
        <time>2023-02-25T14:44:28Z</time>
      </trkpt>
      <trkpt lat="49.84269" lon="2.22529">
        <ele>35.9</ele>
        <time>2023-02-25T14:44:29Z</time>
      </trkpt>
      <trkpt lat="49.8427" lon="2.22529">
        <ele>35.9</ele>
        <time>2023-02-25T14:44:30Z</time>
      </trkpt>
      <trkpt lat="49.8427" lon="2.2253">
        <ele>35.9</ele>
        <time>2023-02-25T14:44:31Z</time>
      </trkpt>
      <trkpt lat="49.84271" lon="2.2253">
        <ele>35.9</ele>
        <time>2023-02-25T14:44:33Z</time>
      </trkpt>
      <trkpt lat="49.84273" lon="2.22531">
        <ele>35.9</ele>
        <time>2023-02-25T14:44:34Z</time>
      </trkpt>
      <trkpt lat="49.84273" lon="2.22531">
        <ele>35.9</ele>
        <time>2023-02-25T14:44:35Z</time>
      </trkpt>
      <trkpt lat="49.84274" lon="2.22532">
        <ele>35.9</ele>
        <time>2023-02-25T14:44:36Z</time>
      </trkpt>
      <trkpt lat="49.84275" lon="2.22533">
        <ele>35.9</ele>
        <time>2023-02-25T14:44:37Z</time>
      </trkpt>
      <trkpt lat="49.84275" lon="2.22533">
        <ele>35.9</ele>
        <time>2023-02-25T14:44:38Z</time>
      </trkpt>
      <trkpt lat="49.84277" lon="2.22534">
        <ele>35.9</ele>
        <time>2023-02-25T14:44:40Z</time>
      </trkpt>
      <trkpt lat="49.84277" lon="2.22535">
        <ele>35.9</ele>
        <time>2023-02-25T14:44:41Z</time>
      </trkpt>
      <trkpt lat="49.84279" lon="2.22536">
        <ele>35.9</ele>
        <time>2023-02-25T14:44:42Z</time>
      </trkpt>
      <trkpt lat="49.8428" lon="2.22537">
        <ele>35.9</ele>
        <time>2023-02-25T14:44:43Z</time>
      </trkpt>
      <trkpt lat="49.84281" lon="2.22538">
        <ele>35.9</ele>
        <time>2023-02-25T14:44:44Z</time>
      </trkpt>
      <trkpt lat="49.84282" lon="2.22538">
        <ele>35.9</ele>
        <time>2023-02-25T14:44:46Z</time>
      </trkpt>
      <trkpt lat="49.84283" lon="2.22539">
        <ele>35.9</ele>
        <time>2023-02-25T14:44:47Z</time>
      </trkpt>
      <trkpt lat="49.84284" lon="2.2254">
        <ele>35.9</ele>
        <time>2023-02-25T14:44:48Z</time>
      </trkpt>
      <trkpt lat="49.84285" lon="2.22541">
        <ele>35.9</ele>
        <time>2023-02-25T14:44:49Z</time>
      </trkpt>
      <trkpt lat="49.84287" lon="2.22543">
        <ele>35.9</ele>
        <time>2023-02-25T14:44:50Z</time>
      </trkpt>
      <trkpt lat="49.84288" lon="2.22543">
        <ele>35.9</ele>
        <time>2023-02-25T14:44:51Z</time>
      </trkpt>
      <trkpt lat="49.84289" lon="2.22544">
        <ele>35.9</ele>
        <time>2023-02-25T14:44:52Z</time>
      </trkpt>
      <trkpt lat="49.8429" lon="2.22547">
        <ele>35.9</ele>
        <time>2023-02-25T14:44:53Z</time>
      </trkpt>
      <trkpt lat="49.84291" lon="2.22548">
        <ele>35.9</ele>
        <time>2023-02-25T14:44:55Z</time>
      </trkpt>
      <trkpt lat="49.84292" lon="2.22549">
        <ele>35.9</ele>
        <time>2023-02-25T14:44:56Z</time>
      </trkpt>
      <trkpt lat="49.84293" lon="2.2255">
        <ele>35.9</ele>
        <time>2023-02-25T14:44:57Z</time>
      </trkpt>
      <trkpt lat="49.84294" lon="2.22552">
        <ele>35.9</ele>
        <time>2023-02-25T14:44:58Z</time>
      </trkpt>
      <trkpt lat="49.84295" lon="2.22554">
        <ele>35.9</ele>
        <time>2023-02-25T14:45:00Z</time>
      </trkpt>
      <trkpt lat="49.84295" lon="2.22555">
        <ele>35.9</ele>
        <time>2023-02-25T14:45:01Z</time>
      </trkpt>
      <trkpt lat="49.84295" lon="2.22556">
        <ele>35.9</ele>
        <time>2023-02-25T14:45:02Z</time>
      </trkpt>
      <trkpt lat="49.84296" lon="2.22557">
        <ele>35.9</ele>
        <time>2023-02-25T14:45:04Z</time>
      </trkpt>
      <trkpt lat="49.84296" lon="2.22557">
        <ele>35.9</ele>
        <time>2023-02-25T14:45:05Z</time>
      </trkpt>
      <trkpt lat="49.84296" lon="2.22557">
        <ele>35.9</ele>
        <time>2023-02-25T14:45:07Z</time>
      </trkpt>
      <trkpt lat="49.84296" lon="2.22557">
        <ele>35.9</ele>
        <time>2023-02-25T14:45:08Z</time>
      </trkpt>
      <trkpt lat="49.84296" lon="2.22557">
        <ele>35.9</ele>
        <time>2023-02-25T14:45:09Z</time>
      </trkpt>
      <trkpt lat="49.84296" lon="2.22556">
        <ele>35.9</ele>
        <time>2023-02-25T14:45:11Z</time>
      </trkpt>
      <trkpt lat="49.84296" lon="2.22556">
        <ele>35.9</ele>
        <time>2023-02-25T14:45:12Z</time>
      </trkpt>
      <trkpt lat="49.84296" lon="2.22556">
        <ele>35.9</ele>
        <time>2023-02-25T14:45:14Z</time>
      </trkpt>
      <trkpt lat="49.84297" lon="2.22556">
        <ele>35.9</ele>
        <time>2023-02-25T14:45:15Z</time>
      </trkpt>
      <trkpt lat="49.84297" lon="2.22557">
        <ele>35.9</ele>
        <time>2023-02-25T14:45:16Z</time>
      </trkpt>
      <trkpt lat="49.84297" lon="2.22557">
        <ele>35.9</ele>
        <time>2023-02-25T14:45:18Z</time>
      </trkpt>
      <trkpt lat="49.84297" lon="2.22557">
        <ele>35.9</ele>
        <time>2023-02-25T14:45:19Z</time>
      </trkpt>
      <trkpt lat="49.84296" lon="2.22556">
        <ele>35.8</ele>
        <time>2023-02-25T14:45:20Z</time>
      </trkpt>
      <trkpt lat="49.84296" lon="2.22556">
        <ele>35.8</ele>
        <time>2023-02-25T14:45:21Z</time>
      </trkpt>
      <trkpt lat="49.84296" lon="2.22556">
        <ele>35.8</ele>
        <time>2023-02-25T14:45:22Z</time>
      </trkpt>
      <trkpt lat="49.84296" lon="2.22556">
        <ele>35.8</ele>
        <time>2023-02-25T14:45:23Z</time>
      </trkpt>
      <trkpt lat="49.84296" lon="2.22556">
        <ele>35.8</ele>
        <time>2023-02-25T14:45:24Z</time>
      </trkpt>
      <trkpt lat="49.84296" lon="2.22556">
        <ele>35.8</ele>
        <time>2023-02-25T14:45:25Z</time>
      </trkpt>
      <trkpt lat="49.84296" lon="2.22556">
        <ele>35.8</ele>
        <time>2023-02-25T14:45:26Z</time>
      </trkpt>
      <trkpt lat="49.84296" lon="2.22556">
        <ele>35.8</ele>
        <time>2023-02-25T14:45:27Z</time>
      </trkpt>
      <trkpt lat="49.84296" lon="2.22556">
        <ele>35.8</ele>
        <time>2023-02-25T14:45:28Z</time>
      </trkpt>
      <trkpt lat="49.84296" lon="2.22556">
        <ele>35.8</ele>
        <time>2023-02-25T14:45:29Z</time>
      </trkpt>
      <trkpt lat="49.84296" lon="2.22556">
        <ele>35.8</ele>
        <time>2023-02-25T14:45:30Z</time>
      </trkpt>
      <trkpt lat="49.84296" lon="2.22556">
        <ele>35.8</ele>
        <time>2023-02-25T14:45:31Z</time>
      </trkpt>
      <trkpt lat="49.84296" lon="2.22556">
        <ele>35.8</ele>
        <time>2023-02-25T14:45:32Z</time>
      </trkpt>
      <trkpt lat="49.84296" lon="2.22556">
        <ele>35.8</ele>
        <time>2023-02-25T14:45:33Z</time>
      </trkpt>
      <trkpt lat="49.84296" lon="2.22556">
        <ele>35.8</ele>
        <time>2023-02-25T14:45:34Z</time>
      </trkpt>
      <trkpt lat="49.84296" lon="2.22556">
        <ele>35.8</ele>
        <time>2023-02-25T14:45:35Z</time>
      </trkpt>
      <trkpt lat="49.84296" lon="2.22556">
        <ele>35.8</ele>
        <time>2023-02-25T14:45:36Z</time>
      </trkpt>
      <trkpt lat="49.84296" lon="2.22557">
        <ele>35.8</ele>
        <time>2023-02-25T14:45:37Z</time>
      </trkpt>
      <trkpt lat="49.84296" lon="2.22558">
        <ele>35.8</ele>
        <time>2023-02-25T14:45:38Z</time>
      </trkpt>
      <trkpt lat="49.84297" lon="2.2256">
        <ele>35.8</ele>
        <time>2023-02-25T14:45:39Z</time>
      </trkpt>
      <trkpt lat="49.84297" lon="2.22562">
        <ele>35.8</ele>
        <time>2023-02-25T14:45:40Z</time>
      </trkpt>
      <trkpt lat="49.84297" lon="2.22564">
        <ele>35.8</ele>
        <time>2023-02-25T14:45:41Z</time>
      </trkpt>
      <trkpt lat="49.84297" lon="2.22565">
        <ele>35.7</ele>
        <time>2023-02-25T14:45:42Z</time>
      </trkpt>
      <trkpt lat="49.84297" lon="2.22568">
        <ele>35.7</ele>
        <time>2023-02-25T14:45:43Z</time>
      </trkpt>
      <trkpt lat="49.84297" lon="2.2257">
        <ele>35.7</ele>
        <time>2023-02-25T14:45:44Z</time>
      </trkpt>
      <trkpt lat="49.84297" lon="2.22571">
        <ele>35.7</ele>
        <time>2023-02-25T14:45:45Z</time>
      </trkpt>
      <trkpt lat="49.84297" lon="2.22574">
        <ele>35.6</ele>
        <time>2023-02-25T14:45:46Z</time>
      </trkpt>
      <trkpt lat="49.84297" lon="2.22576">
        <ele>35.6</ele>
        <time>2023-02-25T14:45:47Z</time>
      </trkpt>
      <trkpt lat="49.84297" lon="2.22579">
        <ele>35.6</ele>
        <time>2023-02-25T14:45:48Z</time>
      </trkpt>
      <trkpt lat="49.84297" lon="2.22582">
        <ele>35.6</ele>
        <time>2023-02-25T14:45:50Z</time>
      </trkpt>
      <trkpt lat="49.84297" lon="2.22585">
        <ele>35.5</ele>
        <time>2023-02-25T14:45:51Z</time>
      </trkpt>
      <trkpt lat="49.84296" lon="2.22587">
        <ele>35.5</ele>
        <time>2023-02-25T14:45:52Z</time>
      </trkpt>
      <trkpt lat="49.84296" lon="2.22589">
        <ele>35.5</ele>
        <time>2023-02-25T14:45:53Z</time>
      </trkpt>
      <trkpt lat="49.84296" lon="2.22592">
        <ele>35.5</ele>
        <time>2023-02-25T14:45:54Z</time>
      </trkpt>
      <trkpt lat="49.84295" lon="2.22594">
        <ele>35.5</ele>
        <time>2023-02-25T14:45:55Z</time>
      </trkpt>
      <trkpt lat="49.84295" lon="2.22596">
        <ele>35.5</ele>
        <time>2023-02-25T14:45:57Z</time>
      </trkpt>
      <trkpt lat="49.84295" lon="2.22598">
        <ele>35.4</ele>
        <time>2023-02-25T14:45:58Z</time>
      </trkpt>
      <trkpt lat="49.84295" lon="2.226">
        <ele>35.4</ele>
        <time>2023-02-25T14:45:59Z</time>
      </trkpt>
      <trkpt lat="49.84295" lon="2.22603">
        <ele>35.4</ele>
        <time>2023-02-25T14:46:00Z</time>
      </trkpt>
      <trkpt lat="49.84295" lon="2.22605">
        <ele>35.4</ele>
        <time>2023-02-25T14:46:01Z</time>
      </trkpt>
      <trkpt lat="49.84294" lon="2.22609">
        <ele>35.4</ele>
        <time>2023-02-25T14:46:02Z</time>
      </trkpt>
      <trkpt lat="49.84294" lon="2.2261">
        <ele>35.4</ele>
        <time>2023-02-25T14:46:03Z</time>
      </trkpt>
      <trkpt lat="49.84294" lon="2.22612">
        <ele>35.4</ele>
        <time>2023-02-25T14:46:04Z</time>
      </trkpt>
      <trkpt lat="49.84294" lon="2.22613">
        <ele>35.4</ele>
        <time>2023-02-25T14:46:05Z</time>
      </trkpt>
      <trkpt lat="49.84294" lon="2.22615">
        <ele>35.4</ele>
        <time>2023-02-25T14:46:07Z</time>
      </trkpt>
      <trkpt lat="49.84294" lon="2.22617">
        <ele>35.4</ele>
        <time>2023-02-25T14:46:08Z</time>
      </trkpt>
      <trkpt lat="49.84295" lon="2.22619">
        <ele>35.4</ele>
        <time>2023-02-25T14:46:09Z</time>
      </trkpt>
      <trkpt lat="49.84295" lon="2.22621">
        <ele>35.4</ele>
        <time>2023-02-25T14:46:10Z</time>
      </trkpt>
      <trkpt lat="49.84295" lon="2.22622">
        <ele>35.4</ele>
        <time>2023-02-25T14:46:11Z</time>
      </trkpt>
      <trkpt lat="49.84296" lon="2.22624">
        <ele>35.3</ele>
        <time>2023-02-25T14:46:12Z</time>
      </trkpt>
      <trkpt lat="49.84296" lon="2.22625">
        <ele>35.3</ele>
        <time>2023-02-25T14:46:13Z</time>
      </trkpt>
      <trkpt lat="49.84296" lon="2.22627">
        <ele>35.3</ele>
        <time>2023-02-25T14:46:14Z</time>
      </trkpt>
      <trkpt lat="49.84296" lon="2.22628">
        <ele>35.3</ele>
        <time>2023-02-25T14:46:15Z</time>
      </trkpt>
      <trkpt lat="49.84296" lon="2.2263">
        <ele>35.3</ele>
        <time>2023-02-25T14:46:16Z</time>
      </trkpt>
      <trkpt lat="49.84296" lon="2.22632">
        <ele>35.3</ele>
        <time>2023-02-25T14:46:17Z</time>
      </trkpt>
      <trkpt lat="49.84296" lon="2.22634">
        <ele>35.3</ele>
        <time>2023-02-25T14:46:18Z</time>
      </trkpt>
      <trkpt lat="49.84296" lon="2.22636">
        <ele>35.3</ele>
        <time>2023-02-25T14:46:20Z</time>
      </trkpt>
      <trkpt lat="49.84296" lon="2.22638">
        <ele>35.3</ele>
        <time>2023-02-25T14:46:21Z</time>
      </trkpt>
      <trkpt lat="49.84296" lon="2.2264">
        <ele>35.3</ele>
        <time>2023-02-25T14:46:22Z</time>
      </trkpt>
      <trkpt lat="49.84296" lon="2.22642">
        <ele>35.3</ele>
        <time>2023-02-25T14:46:23Z</time>
      </trkpt>
      <trkpt lat="49.84295" lon="2.22643">
        <ele>35.3</ele>
        <time>2023-02-25T14:46:24Z</time>
      </trkpt>
      <trkpt lat="49.84295" lon="2.22645">
        <ele>35.3</ele>
        <time>2023-02-25T14:46:25Z</time>
      </trkpt>
      <trkpt lat="49.84295" lon="2.22647">
        <ele>35.3</ele>
        <time>2023-02-25T14:46:26Z</time>
      </trkpt>
      <trkpt lat="49.84295" lon="2.22648">
        <ele>35.3</ele>
        <time>2023-02-25T14:46:28Z</time>
      </trkpt>
      <trkpt lat="49.84295" lon="2.2265">
        <ele>35.3</ele>
        <time>2023-02-25T14:46:29Z</time>
      </trkpt>
      <trkpt lat="49.84295" lon="2.22652">
        <ele>35.3</ele>
        <time>2023-02-25T14:46:30Z</time>
      </trkpt>
      <trkpt lat="49.84295" lon="2.22654">
        <ele>35.3</ele>
        <time>2023-02-25T14:46:31Z</time>
      </trkpt>
      <trkpt lat="49.84295" lon="2.22655">
        <ele>35.3</ele>
        <time>2023-02-25T14:46:32Z</time>
      </trkpt>
      <trkpt lat="49.84295" lon="2.22657">
        <ele>35.3</ele>
        <time>2023-02-25T14:46:33Z</time>
      </trkpt>
      <trkpt lat="49.84296" lon="2.22659">
        <ele>35.3</ele>
        <time>2023-02-25T14:46:34Z</time>
      </trkpt>
      <trkpt lat="49.84296" lon="2.2266">
        <ele>35.3</ele>
        <time>2023-02-25T14:46:35Z</time>
      </trkpt>
      <trkpt lat="49.84296" lon="2.22662">
        <ele>35.3</ele>
        <time>2023-02-25T14:46:37Z</time>
      </trkpt>
      <trkpt lat="49.84296" lon="2.22664">
        <ele>35.3</ele>
        <time>2023-02-25T14:46:38Z</time>
      </trkpt>
      <trkpt lat="49.84296" lon="2.22667">
        <ele>35.3</ele>
        <time>2023-02-25T14:46:39Z</time>
      </trkpt>
      <trkpt lat="49.84296" lon="2.22669">
        <ele>35.3</ele>
        <time>2023-02-25T14:46:40Z</time>
      </trkpt>
      <trkpt lat="49.84296" lon="2.22671">
        <ele>35.3</ele>
        <time>2023-02-25T14:46:42Z</time>
      </trkpt>
      <trkpt lat="49.84296" lon="2.22673">
        <ele>35.3</ele>
        <time>2023-02-25T14:46:43Z</time>
      </trkpt>
      <trkpt lat="49.84296" lon="2.22674">
        <ele>35.3</ele>
        <time>2023-02-25T14:46:44Z</time>
      </trkpt>
      <trkpt lat="49.84297" lon="2.22676">
        <ele>35.3</ele>
        <time>2023-02-25T14:46:45Z</time>
      </trkpt>
      <trkpt lat="49.84298" lon="2.22679">
        <ele>35.3</ele>
        <time>2023-02-25T14:46:46Z</time>
      </trkpt>
      <trkpt lat="49.84298" lon="2.2268">
        <ele>35.3</ele>
        <time>2023-02-25T14:46:47Z</time>
      </trkpt>
      <trkpt lat="49.84299" lon="2.22682">
        <ele>35.3</ele>
        <time>2023-02-25T14:46:48Z</time>
      </trkpt>
      <trkpt lat="49.843" lon="2.22685">
        <ele>35.3</ele>
        <time>2023-02-25T14:46:49Z</time>
      </trkpt>
      <trkpt lat="49.843" lon="2.22686">
        <ele>35.3</ele>
        <time>2023-02-25T14:46:51Z</time>
      </trkpt>
      <trkpt lat="49.843" lon="2.22687">
        <ele>35.3</ele>
        <time>2023-02-25T14:46:52Z</time>
      </trkpt>
      <trkpt lat="49.84301" lon="2.22691">
        <ele>35.3</ele>
        <time>2023-02-25T14:46:53Z</time>
      </trkpt>
      <trkpt lat="49.84301" lon="2.22693">
        <ele>35.3</ele>
        <time>2023-02-25T14:46:54Z</time>
      </trkpt>
      <trkpt lat="49.84301" lon="2.22694">
        <ele>35.3</ele>
        <time>2023-02-25T14:46:56Z</time>
      </trkpt>
      <trkpt lat="49.84301" lon="2.22696">
        <ele>35.3</ele>
        <time>2023-02-25T14:46:57Z</time>
      </trkpt>
      <trkpt lat="49.84301" lon="2.22698">
        <ele>35.3</ele>
        <time>2023-02-25T14:46:58Z</time>
      </trkpt>
      <trkpt lat="49.84301" lon="2.227">
        <ele>35.3</ele>
        <time>2023-02-25T14:46:59Z</time>
      </trkpt>
      <trkpt lat="49.84301" lon="2.22702">
        <ele>35.3</ele>
        <time>2023-02-25T14:47:00Z</time>
      </trkpt>
      <trkpt lat="49.84301" lon="2.22703">
        <ele>35.3</ele>
        <time>2023-02-25T14:47:01Z</time>
      </trkpt>
      <trkpt lat="49.84301" lon="2.22705">
        <ele>35.3</ele>
        <time>2023-02-25T14:47:03Z</time>
      </trkpt>
      <trkpt lat="49.84301" lon="2.22707">
        <ele>35.3</ele>
        <time>2023-02-25T14:47:04Z</time>
      </trkpt>
      <trkpt lat="49.84301" lon="2.2271">
        <ele>35.3</ele>
        <time>2023-02-25T14:47:06Z</time>
      </trkpt>
      <trkpt lat="49.84301" lon="2.22711">
        <ele>35.4</ele>
        <time>2023-02-25T14:47:07Z</time>
      </trkpt>
      <trkpt lat="49.84301" lon="2.22713">
        <ele>35.4</ele>
        <time>2023-02-25T14:47:08Z</time>
      </trkpt>
      <trkpt lat="49.84301" lon="2.22714">
        <ele>35.4</ele>
        <time>2023-02-25T14:47:09Z</time>
      </trkpt>
      <trkpt lat="49.84301" lon="2.22715">
        <ele>35.4</ele>
        <time>2023-02-25T14:47:10Z</time>
      </trkpt>
      <trkpt lat="49.84301" lon="2.22717">
        <ele>35.4</ele>
        <time>2023-02-25T14:47:11Z</time>
      </trkpt>
      <trkpt lat="49.84301" lon="2.2272">
        <ele>35.4</ele>
        <time>2023-02-25T14:47:12Z</time>
      </trkpt>
      <trkpt lat="49.84301" lon="2.22721">
        <ele>35.4</ele>
        <time>2023-02-25T14:47:14Z</time>
      </trkpt>
      <trkpt lat="49.84302" lon="2.22723">
        <ele>35.4</ele>
        <time>2023-02-25T14:47:15Z</time>
      </trkpt>
      <trkpt lat="49.84302" lon="2.22724">
        <ele>35.4</ele>
        <time>2023-02-25T14:47:16Z</time>
      </trkpt>
      <trkpt lat="49.84302" lon="2.22725">
        <ele>35.4</ele>
        <time>2023-02-25T14:47:17Z</time>
      </trkpt>
      <trkpt lat="49.84302" lon="2.22727">
        <ele>35.4</ele>
        <time>2023-02-25T14:47:18Z</time>
      </trkpt>
      <trkpt lat="49.84302" lon="2.22728">
        <ele>35.4</ele>
        <time>2023-02-25T14:47:19Z</time>
      </trkpt>
      <trkpt lat="49.84304" lon="2.22728">
        <ele>35.4</ele>
        <time>2023-02-25T14:47:20Z</time>
      </trkpt>
      <trkpt lat="49.84305" lon="2.22728">
        <ele>35.4</ele>
        <time>2023-02-25T14:47:21Z</time>
      </trkpt>
      <trkpt lat="49.84306" lon="2.2273">
        <ele>35.4</ele>
        <time>2023-02-25T14:47:22Z</time>
      </trkpt>
      <trkpt lat="49.84306" lon="2.22731">
        <ele>35.4</ele>
        <time>2023-02-25T14:47:24Z</time>
      </trkpt>
      <trkpt lat="49.84307" lon="2.22733">
        <ele>35.4</ele>
        <time>2023-02-25T14:47:25Z</time>
      </trkpt>
      <trkpt lat="49.84308" lon="2.22734">
        <ele>35.4</ele>
        <time>2023-02-25T14:47:26Z</time>
      </trkpt>
      <trkpt lat="49.84308" lon="2.22735">
        <ele>35.4</ele>
        <time>2023-02-25T14:47:27Z</time>
      </trkpt>
      <trkpt lat="49.84307" lon="2.22737">
        <ele>35.4</ele>
        <time>2023-02-25T14:47:28Z</time>
      </trkpt>
      <trkpt lat="49.84307" lon="2.22739">
        <ele>35.4</ele>
        <time>2023-02-25T14:47:29Z</time>
      </trkpt>
      <trkpt lat="49.84305" lon="2.22741">
        <ele>35.4</ele>
        <time>2023-02-25T14:47:30Z</time>
      </trkpt>
      <trkpt lat="49.84305" lon="2.22743">
        <ele>35.4</ele>
        <time>2023-02-25T14:47:31Z</time>
      </trkpt>
      <trkpt lat="49.84304" lon="2.22744">
        <ele>35.4</ele>
        <time>2023-02-25T14:47:33Z</time>
      </trkpt>
      <trkpt lat="49.84303" lon="2.22745">
        <ele>35.4</ele>
        <time>2023-02-25T14:47:34Z</time>
      </trkpt>
      <trkpt lat="49.84302" lon="2.22746">
        <ele>35.5</ele>
        <time>2023-02-25T14:47:35Z</time>
      </trkpt>
      <trkpt lat="49.84302" lon="2.22747">
        <ele>35.5</ele>
        <time>2023-02-25T14:47:36Z</time>
      </trkpt>
      <trkpt lat="49.84302" lon="2.22749">
        <ele>35.5</ele>
        <time>2023-02-25T14:47:37Z</time>
      </trkpt>
      <trkpt lat="49.84301" lon="2.22751">
        <ele>35.5</ele>
        <time>2023-02-25T14:47:38Z</time>
      </trkpt>
      <trkpt lat="49.84301" lon="2.22753">
        <ele>35.5</ele>
        <time>2023-02-25T14:47:39Z</time>
      </trkpt>
      <trkpt lat="49.84301" lon="2.22755">
        <ele>35.5</ele>
        <time>2023-02-25T14:47:41Z</time>
      </trkpt>
      <trkpt lat="49.84301" lon="2.22756">
        <ele>35.5</ele>
        <time>2023-02-25T14:47:42Z</time>
      </trkpt>
      <trkpt lat="49.84301" lon="2.22758">
        <ele>35.5</ele>
        <time>2023-02-25T14:47:43Z</time>
      </trkpt>
      <trkpt lat="49.84301" lon="2.22759">
        <ele>35.5</ele>
        <time>2023-02-25T14:47:44Z</time>
      </trkpt>
      <trkpt lat="49.843" lon="2.22763">
        <ele>35.5</ele>
        <time>2023-02-25T14:47:45Z</time>
      </trkpt>
      <trkpt lat="49.843" lon="2.22764">
        <ele>35.5</ele>
        <time>2023-02-25T14:47:46Z</time>
      </trkpt>
      <trkpt lat="49.843" lon="2.22765">
        <ele>35.5</ele>
        <time>2023-02-25T14:47:47Z</time>
      </trkpt>
      <trkpt lat="49.843" lon="2.22768">
        <ele>35.5</ele>
        <time>2023-02-25T14:47:49Z</time>
      </trkpt>
      <trkpt lat="49.843" lon="2.22769">
        <ele>35.5</ele>
        <time>2023-02-25T14:47:50Z</time>
      </trkpt>
      <trkpt lat="49.84299" lon="2.22771">
        <ele>35.5</ele>
        <time>2023-02-25T14:47:51Z</time>
      </trkpt>
      <trkpt lat="49.843" lon="2.22774">
        <ele>35.5</ele>
        <time>2023-02-25T14:47:52Z</time>
      </trkpt>
      <trkpt lat="49.843" lon="2.22775">
        <ele>35.5</ele>
        <time>2023-02-25T14:47:53Z</time>
      </trkpt>
      <trkpt lat="49.843" lon="2.22776">
        <ele>35.5</ele>
        <time>2023-02-25T14:47:54Z</time>
      </trkpt>
      <trkpt lat="49.843" lon="2.22778">
        <ele>35.5</ele>
        <time>2023-02-25T14:47:55Z</time>
      </trkpt>
      <trkpt lat="49.84299" lon="2.2278">
        <ele>35.5</ele>
        <time>2023-02-25T14:47:56Z</time>
      </trkpt>
      <trkpt lat="49.84299" lon="2.22782">
        <ele>35.5</ele>
        <time>2023-02-25T14:47:58Z</time>
      </trkpt>
      <trkpt lat="49.843" lon="2.22784">
        <ele>35.5</ele>
        <time>2023-02-25T14:47:59Z</time>
      </trkpt>
      <trkpt lat="49.843" lon="2.22785">
        <ele>35.5</ele>
        <time>2023-02-25T14:48:00Z</time>
      </trkpt>
      <trkpt lat="49.84299" lon="2.22787">
        <ele>35.5</ele>
        <time>2023-02-25T14:48:01Z</time>
      </trkpt>
      <trkpt lat="49.84299" lon="2.22789">
        <ele>35.5</ele>
        <time>2023-02-25T14:48:02Z</time>
      </trkpt>
      <trkpt lat="49.843" lon="2.2279">
        <ele>35.6</ele>
        <time>2023-02-25T14:48:03Z</time>
      </trkpt>
      <trkpt lat="49.843" lon="2.22792">
        <ele>35.6</ele>
        <time>2023-02-25T14:48:04Z</time>
      </trkpt>
      <trkpt lat="49.84302" lon="2.22796">
        <ele>35.6</ele>
        <time>2023-02-25T14:48:05Z</time>
      </trkpt>
      <trkpt lat="49.84302" lon="2.22798">
        <ele>35.6</ele>
        <time>2023-02-25T14:48:07Z</time>
      </trkpt>
      <trkpt lat="49.84303" lon="2.22799">
        <ele>35.6</ele>
        <time>2023-02-25T14:48:08Z</time>
      </trkpt>
      <trkpt lat="49.84303" lon="2.228">
        <ele>35.6</ele>
        <time>2023-02-25T14:48:09Z</time>
      </trkpt>
      <trkpt lat="49.84304" lon="2.22802">
        <ele>35.6</ele>
        <time>2023-02-25T14:48:10Z</time>
      </trkpt>
      <trkpt lat="49.84304" lon="2.22803">
        <ele>35.6</ele>
        <time>2023-02-25T14:48:11Z</time>
      </trkpt>
      <trkpt lat="49.84305" lon="2.22805">
        <ele>35.6</ele>
        <time>2023-02-25T14:48:12Z</time>
      </trkpt>
      <trkpt lat="49.84305" lon="2.22806">
        <ele>35.6</ele>
        <time>2023-02-25T14:48:13Z</time>
      </trkpt>
      <trkpt lat="49.84306" lon="2.2281">
        <ele>35.6</ele>
        <time>2023-02-25T14:48:15Z</time>
      </trkpt>
      <trkpt lat="49.84306" lon="2.22811">
        <ele>35.6</ele>
        <time>2023-02-25T14:48:16Z</time>
      </trkpt>
      <trkpt lat="49.84306" lon="2.22812">
        <ele>35.6</ele>
        <time>2023-02-25T14:48:17Z</time>
      </trkpt>
      <trkpt lat="49.84306" lon="2.22815">
        <ele>35.6</ele>
        <time>2023-02-25T14:48:18Z</time>
      </trkpt>
      <trkpt lat="49.84306" lon="2.22817">
        <ele>35.6</ele>
        <time>2023-02-25T14:48:19Z</time>
      </trkpt>
      <trkpt lat="49.84306" lon="2.22818">
        <ele>35.6</ele>
        <time>2023-02-25T14:48:20Z</time>
      </trkpt>
      <trkpt lat="49.84306" lon="2.22819">
        <ele>35.6</ele>
        <time>2023-02-25T14:48:21Z</time>
      </trkpt>
      <trkpt lat="49.84306" lon="2.22821">
        <ele>35.6</ele>
        <time>2023-02-25T14:48:23Z</time>
      </trkpt>
      <trkpt lat="49.84306" lon="2.22823">
        <ele>35.6</ele>
        <time>2023-02-25T14:48:24Z</time>
      </trkpt>
      <trkpt lat="49.84307" lon="2.22826">
        <ele>35.6</ele>
        <time>2023-02-25T14:48:25Z</time>
      </trkpt>
      <trkpt lat="49.84307" lon="2.22827">
        <ele>35.6</ele>
        <time>2023-02-25T14:48:26Z</time>
      </trkpt>
      <trkpt lat="49.84307" lon="2.22828">
        <ele>35.7</ele>
        <time>2023-02-25T14:48:27Z</time>
      </trkpt>
      <trkpt lat="49.84307" lon="2.2283">
        <ele>35.7</ele>
        <time>2023-02-25T14:48:28Z</time>
      </trkpt>
      <trkpt lat="49.84307" lon="2.22831">
        <ele>35.7</ele>
        <time>2023-02-25T14:48:30Z</time>
      </trkpt>
      <trkpt lat="49.84307" lon="2.22834">
        <ele>35.7</ele>
        <time>2023-02-25T14:48:31Z</time>
      </trkpt>
      <trkpt lat="49.84306" lon="2.22835">
        <ele>35.7</ele>
        <time>2023-02-25T14:48:32Z</time>
      </trkpt>
      <trkpt lat="49.84306" lon="2.22835">
        <ele>35.7</ele>
        <time>2023-02-25T14:48:33Z</time>
      </trkpt>
      <trkpt lat="49.84305" lon="2.22837">
        <ele>35.7</ele>
        <time>2023-02-25T14:48:34Z</time>
      </trkpt>
      <trkpt lat="49.84305" lon="2.22837">
        <ele>35.7</ele>
        <time>2023-02-25T14:48:35Z</time>
      </trkpt>
      <trkpt lat="49.84305" lon="2.22839">
        <ele>35.7</ele>
        <time>2023-02-25T14:48:36Z</time>
      </trkpt>
      <trkpt lat="49.84305" lon="2.2284">
        <ele>35.7</ele>
        <time>2023-02-25T14:48:38Z</time>
      </trkpt>
      <trkpt lat="49.84306" lon="2.22841">
        <ele>35.7</ele>
        <time>2023-02-25T14:48:39Z</time>
      </trkpt>
      <trkpt lat="49.84306" lon="2.22843">
        <ele>35.7</ele>
        <time>2023-02-25T14:48:40Z</time>
      </trkpt>
      <trkpt lat="49.84306" lon="2.22844">
        <ele>35.7</ele>
        <time>2023-02-25T14:48:41Z</time>
      </trkpt>
      <trkpt lat="49.84306" lon="2.22846">
        <ele>35.7</ele>
        <time>2023-02-25T14:48:42Z</time>
      </trkpt>
      <trkpt lat="49.84307" lon="2.22849">
        <ele>35.7</ele>
        <time>2023-02-25T14:48:43Z</time>
      </trkpt>
      <trkpt lat="49.84307" lon="2.2285">
        <ele>35.7</ele>
        <time>2023-02-25T14:48:44Z</time>
      </trkpt>
      <trkpt lat="49.84307" lon="2.22852">
        <ele>35.7</ele>
        <time>2023-02-25T14:48:46Z</time>
      </trkpt>
      <trkpt lat="49.84307" lon="2.22854">
        <ele>35.7</ele>
        <time>2023-02-25T14:48:47Z</time>
      </trkpt>
      <trkpt lat="49.84307" lon="2.22855">
        <ele>35.7</ele>
        <time>2023-02-25T14:48:48Z</time>
      </trkpt>
      <trkpt lat="49.84307" lon="2.22857">
        <ele>35.7</ele>
        <time>2023-02-25T14:48:49Z</time>
      </trkpt>
      <trkpt lat="49.84307" lon="2.22859">
        <ele>35.7</ele>
        <time>2023-02-25T14:48:50Z</time>
      </trkpt>
      <trkpt lat="49.84308" lon="2.2286">
        <ele>35.7</ele>
        <time>2023-02-25T14:48:51Z</time>
      </trkpt>
      <trkpt lat="49.84308" lon="2.22862">
        <ele>35.7</ele>
        <time>2023-02-25T14:48:52Z</time>
      </trkpt>
      <trkpt lat="49.84308" lon="2.22864">
        <ele>35.7</ele>
        <time>2023-02-25T14:48:53Z</time>
      </trkpt>
      <trkpt lat="49.84308" lon="2.22865">
        <ele>35.7</ele>
        <time>2023-02-25T14:48:54Z</time>
      </trkpt>
      <trkpt lat="49.84308" lon="2.22867">
        <ele>35.7</ele>
        <time>2023-02-25T14:48:56Z</time>
      </trkpt>
      <trkpt lat="49.84308" lon="2.22868">
        <ele>35.7</ele>
        <time>2023-02-25T14:48:57Z</time>
      </trkpt>
      <trkpt lat="49.84308" lon="2.2287">
        <ele>35.7</ele>
        <time>2023-02-25T14:48:58Z</time>
      </trkpt>
      <trkpt lat="49.84308" lon="2.22872">
        <ele>35.7</ele>
        <time>2023-02-25T14:48:59Z</time>
      </trkpt>
      <trkpt lat="49.84308" lon="2.22873">
        <ele>35.7</ele>
        <time>2023-02-25T14:49:00Z</time>
      </trkpt>
      <trkpt lat="49.84308" lon="2.22875">
        <ele>35.7</ele>
        <time>2023-02-25T14:49:01Z</time>
      </trkpt>
      <trkpt lat="49.84308" lon="2.22877">
        <ele>35.7</ele>
        <time>2023-02-25T14:49:02Z</time>
      </trkpt>
      <trkpt lat="49.84308" lon="2.2288">
        <ele>35.7</ele>
        <time>2023-02-25T14:49:03Z</time>
      </trkpt>
      <trkpt lat="49.84307" lon="2.22881">
        <ele>35.7</ele>
        <time>2023-02-25T14:49:05Z</time>
      </trkpt>
      <trkpt lat="49.84307" lon="2.22883">
        <ele>35.7</ele>
        <time>2023-02-25T14:49:06Z</time>
      </trkpt>
      <trkpt lat="49.84307" lon="2.22886">
        <ele>35.7</ele>
        <time>2023-02-25T14:49:07Z</time>
      </trkpt>
      <trkpt lat="49.84307" lon="2.22888">
        <ele>35.7</ele>
        <time>2023-02-25T14:49:08Z</time>
      </trkpt>
      <trkpt lat="49.84307" lon="2.22889">
        <ele>35.7</ele>
        <time>2023-02-25T14:49:09Z</time>
      </trkpt>
      <trkpt lat="49.84306" lon="2.22892">
        <ele>35.7</ele>
        <time>2023-02-25T14:49:10Z</time>
      </trkpt>
      <trkpt lat="49.84305" lon="2.22893">
        <ele>35.7</ele>
        <time>2023-02-25T14:49:11Z</time>
      </trkpt>
      <trkpt lat="49.84305" lon="2.22894">
        <ele>35.7</ele>
        <time>2023-02-25T14:49:12Z</time>
      </trkpt>
      <trkpt lat="49.84305" lon="2.22896">
        <ele>35.7</ele>
        <time>2023-02-25T14:49:14Z</time>
      </trkpt>
      <trkpt lat="49.84305" lon="2.22897">
        <ele>35.7</ele>
        <time>2023-02-25T14:49:15Z</time>
      </trkpt>
      <trkpt lat="49.84305" lon="2.22898">
        <ele>35.7</ele>
        <time>2023-02-25T14:49:16Z</time>
      </trkpt>
      <trkpt lat="49.84304" lon="2.229">
        <ele>35.7</ele>
        <time>2023-02-25T14:49:17Z</time>
      </trkpt>
      <trkpt lat="49.84304" lon="2.22901">
        <ele>35.6</ele>
        <time>2023-02-25T14:49:18Z</time>
      </trkpt>
      <trkpt lat="49.84304" lon="2.22902">
        <ele>35.6</ele>
        <time>2023-02-25T14:49:19Z</time>
      </trkpt>
      <trkpt lat="49.84304" lon="2.22903">
        <ele>35.6</ele>
        <time>2023-02-25T14:49:20Z</time>
      </trkpt>
      <trkpt lat="49.84304" lon="2.22905">
        <ele>35.6</ele>
        <time>2023-02-25T14:49:21Z</time>
      </trkpt>
      <trkpt lat="49.84303" lon="2.22907">
        <ele>35.6</ele>
        <time>2023-02-25T14:49:23Z</time>
      </trkpt>
      <trkpt lat="49.84303" lon="2.22908">
        <ele>35.6</ele>
        <time>2023-02-25T14:49:24Z</time>
      </trkpt>
      <trkpt lat="49.84303" lon="2.2291">
        <ele>35.6</ele>
        <time>2023-02-25T14:49:25Z</time>
      </trkpt>
      <trkpt lat="49.84303" lon="2.22914">
        <ele>35.6</ele>
        <time>2023-02-25T14:49:26Z</time>
      </trkpt>
      <trkpt lat="49.84303" lon="2.22915">
        <ele>35.6</ele>
        <time>2023-02-25T14:49:27Z</time>
      </trkpt>
      <trkpt lat="49.84303" lon="2.22917">
        <ele>35.6</ele>
        <time>2023-02-25T14:49:28Z</time>
      </trkpt>
      <trkpt lat="49.84303" lon="2.22918">
        <ele>35.6</ele>
        <time>2023-02-25T14:49:30Z</time>
      </trkpt>
      <trkpt lat="49.84303" lon="2.2292">
        <ele>35.6</ele>
        <time>2023-02-25T14:49:31Z</time>
      </trkpt>
      <trkpt lat="49.84302" lon="2.22922">
        <ele>35.6</ele>
        <time>2023-02-25T14:49:32Z</time>
      </trkpt>
      <trkpt lat="49.84302" lon="2.22924">
        <ele>35.6</ele>
        <time>2023-02-25T14:49:33Z</time>
      </trkpt>
      <trkpt lat="49.84302" lon="2.22926">
        <ele>35.6</ele>
        <time>2023-02-25T14:49:34Z</time>
      </trkpt>
      <trkpt lat="49.84301" lon="2.22929">
        <ele>35.6</ele>
        <time>2023-02-25T14:49:35Z</time>
      </trkpt>
      <trkpt lat="49.843" lon="2.2293">
        <ele>35.6</ele>
        <time>2023-02-25T14:49:36Z</time>
      </trkpt>
      <trkpt lat="49.843" lon="2.22931">
        <ele>35.6</ele>
        <time>2023-02-25T14:49:37Z</time>
      </trkpt>
      <trkpt lat="49.84299" lon="2.22933">
        <ele>35.6</ele>
        <time>2023-02-25T14:49:38Z</time>
      </trkpt>
      <trkpt lat="49.84299" lon="2.22935">
        <ele>35.6</ele>
        <time>2023-02-25T14:49:40Z</time>
      </trkpt>
      <trkpt lat="49.84298" lon="2.22936">
        <ele>35.6</ele>
        <time>2023-02-25T14:49:41Z</time>
      </trkpt>
      <trkpt lat="49.84298" lon="2.22938">
        <ele>35.6</ele>
        <time>2023-02-25T14:49:42Z</time>
      </trkpt>
      <trkpt lat="49.84297" lon="2.2294">
        <ele>35.6</ele>
        <time>2023-02-25T14:49:44Z</time>
      </trkpt>
      <trkpt lat="49.84298" lon="2.22941">
        <ele>35.6</ele>
        <time>2023-02-25T14:49:45Z</time>
      </trkpt>
      <trkpt lat="49.84299" lon="2.22941">
        <ele>35.6</ele>
        <time>2023-02-25T14:49:46Z</time>
      </trkpt>
      <trkpt lat="49.843" lon="2.2294">
        <ele>35.6</ele>
        <time>2023-02-25T14:49:48Z</time>
      </trkpt>
      <trkpt lat="49.843" lon="2.2294">
        <ele>35.6</ele>
        <time>2023-02-25T14:49:49Z</time>
      </trkpt>
      <trkpt lat="49.84301" lon="2.22939">
        <ele>35.6</ele>
        <time>2023-02-25T14:49:51Z</time>
      </trkpt>
      <trkpt lat="49.84301" lon="2.22939">
        <ele>35.6</ele>
        <time>2023-02-25T14:49:52Z</time>
      </trkpt>
      <trkpt lat="49.84301" lon="2.22939">
        <ele>35.6</ele>
        <time>2023-02-25T14:49:54Z</time>
      </trkpt>
      <trkpt lat="49.84301" lon="2.22938">
        <ele>35.6</ele>
        <time>2023-02-25T14:49:55Z</time>
      </trkpt>
      <trkpt lat="49.84301" lon="2.22938">
        <ele>35.6</ele>
        <time>2023-02-25T14:49:57Z</time>
      </trkpt>
      <trkpt lat="49.84301" lon="2.22938">
        <ele>35.7</ele>
        <time>2023-02-25T14:49:58Z</time>
      </trkpt>
      <trkpt lat="49.84301" lon="2.22938">
        <ele>35.7</ele>
        <time>2023-02-25T14:49:59Z</time>
      </trkpt>
      <trkpt lat="49.84301" lon="2.22939">
        <ele>35.7</ele>
        <time>2023-02-25T14:50:00Z</time>
      </trkpt>
      <trkpt lat="49.843" lon="2.2294">
        <ele>35.7</ele>
        <time>2023-02-25T14:50:01Z</time>
      </trkpt>
      <trkpt lat="49.843" lon="2.22941">
        <ele>35.7</ele>
        <time>2023-02-25T14:50:02Z</time>
      </trkpt>
      <trkpt lat="49.843" lon="2.22942">
        <ele>35.7</ele>
        <time>2023-02-25T14:50:03Z</time>
      </trkpt>
      <trkpt lat="49.84299" lon="2.22944">
        <ele>35.7</ele>
        <time>2023-02-25T14:50:04Z</time>
      </trkpt>
      <trkpt lat="49.84298" lon="2.22947">
        <ele>35.7</ele>
        <time>2023-02-25T14:50:05Z</time>
      </trkpt>
      <trkpt lat="49.84297" lon="2.22948">
        <ele>35.7</ele>
        <time>2023-02-25T14:50:07Z</time>
      </trkpt>
      <trkpt lat="49.84297" lon="2.22949">
        <ele>35.7</ele>
        <time>2023-02-25T14:50:08Z</time>
      </trkpt>
      <trkpt lat="49.84296" lon="2.22951">
        <ele>35.7</ele>
        <time>2023-02-25T14:50:09Z</time>
      </trkpt>
      <trkpt lat="49.84296" lon="2.22953">
        <ele>35.7</ele>
        <time>2023-02-25T14:50:10Z</time>
      </trkpt>
      <trkpt lat="49.84295" lon="2.22955">
        <ele>35.7</ele>
        <time>2023-02-25T14:50:11Z</time>
      </trkpt>
      <trkpt lat="49.84295" lon="2.22957">
        <ele>35.7</ele>
        <time>2023-02-25T14:50:12Z</time>
      </trkpt>
      <trkpt lat="49.84295" lon="2.22959">
        <ele>35.7</ele>
        <time>2023-02-25T14:50:14Z</time>
      </trkpt>
      <trkpt lat="49.84295" lon="2.2296">
        <ele>35.7</ele>
        <time>2023-02-25T14:50:15Z</time>
      </trkpt>
      <trkpt lat="49.84295" lon="2.22962">
        <ele>35.8</ele>
        <time>2023-02-25T14:50:16Z</time>
      </trkpt>
      <trkpt lat="49.84294" lon="2.22964">
        <ele>35.8</ele>
        <time>2023-02-25T14:50:17Z</time>
      </trkpt>
      <trkpt lat="49.84294" lon="2.22966">
        <ele>35.8</ele>
        <time>2023-02-25T14:50:18Z</time>
      </trkpt>
      <trkpt lat="49.84294" lon="2.22968">
        <ele>35.8</ele>
        <time>2023-02-25T14:50:19Z</time>
      </trkpt>
      <trkpt lat="49.84294" lon="2.22969">
        <ele>35.8</ele>
        <time>2023-02-25T14:50:21Z</time>
      </trkpt>
      <trkpt lat="49.84294" lon="2.2297">
        <ele>35.8</ele>
        <time>2023-02-25T14:50:22Z</time>
      </trkpt>
      <trkpt lat="49.84294" lon="2.22972">
        <ele>35.8</ele>
        <time>2023-02-25T14:50:23Z</time>
      </trkpt>
      <trkpt lat="49.84293" lon="2.22974">
        <ele>35.8</ele>
        <time>2023-02-25T14:50:24Z</time>
      </trkpt>
      <trkpt lat="49.84292" lon="2.22977">
        <ele>35.8</ele>
        <time>2023-02-25T14:50:25Z</time>
      </trkpt>
      <trkpt lat="49.84292" lon="2.22978">
        <ele>35.8</ele>
        <time>2023-02-25T14:50:26Z</time>
      </trkpt>
      <trkpt lat="49.84291" lon="2.22979">
        <ele>35.8</ele>
        <time>2023-02-25T14:50:28Z</time>
      </trkpt>
      <trkpt lat="49.84291" lon="2.22981">
        <ele>35.8</ele>
        <time>2023-02-25T14:50:29Z</time>
      </trkpt>
      <trkpt lat="49.8429" lon="2.22982">
        <ele>35.8</ele>
        <time>2023-02-25T14:50:30Z</time>
      </trkpt>
      <trkpt lat="49.8429" lon="2.22983">
        <ele>35.8</ele>
        <time>2023-02-25T14:50:31Z</time>
      </trkpt>
      <trkpt lat="49.84288" lon="2.22987">
        <ele>35.8</ele>
        <time>2023-02-25T14:50:32Z</time>
      </trkpt>
      <trkpt lat="49.84288" lon="2.22989">
        <ele>35.8</ele>
        <time>2023-02-25T14:50:33Z</time>
      </trkpt>
      <trkpt lat="49.84288" lon="2.22991">
        <ele>35.8</ele>
        <time>2023-02-25T14:50:35Z</time>
      </trkpt>
      <trkpt lat="49.84288" lon="2.22993">
        <ele>35.8</ele>
        <time>2023-02-25T14:50:36Z</time>
      </trkpt>
      <trkpt lat="49.84289" lon="2.22995">
        <ele>35.8</ele>
        <time>2023-02-25T14:50:37Z</time>
      </trkpt>
      <trkpt lat="49.84289" lon="2.22996">
        <ele>35.8</ele>
        <time>2023-02-25T14:50:38Z</time>
      </trkpt>
      <trkpt lat="49.84289" lon="2.22997">
        <ele>35.8</ele>
        <time>2023-02-25T14:50:39Z</time>
      </trkpt>
      <trkpt lat="49.84289" lon="2.22998">
        <ele>35.8</ele>
        <time>2023-02-25T14:50:41Z</time>
      </trkpt>
      <trkpt lat="49.8429" lon="2.22999">
        <ele>35.8</ele>
        <time>2023-02-25T14:50:42Z</time>
      </trkpt>
      <trkpt lat="49.84291" lon="2.22999">
        <ele>35.8</ele>
        <time>2023-02-25T14:50:43Z</time>
      </trkpt>
    </trkseg>
  </trk>
</gpx>